<?xml version="1.0" encoding="UTF-8"?>
<gpx creator="Garmin Connect" version="1.1"
  xsi:schemaLocation="http://www.topografix.com/GPX/1/1 http://www.topografix.com/GPX/11.xsd"
  xmlns:ns3="http://www.garmin.com/xmlschemas/TrackPointExtension/v1"
  xmlns="http://www.topografix.com/GPX/1/1"
  xmlns:xsi="http://www.w3.org/2001/XMLSchema-instance" xmlns:ns2="http://www.garmin.com/xmlschemas/GpxExtensions/v3">
  <metadata>
    <name>2023.-Veliki-Popisanac</name>
    <link href="connect.garmin.com">
      <text>Garmin Connect</text>
    </link>
    <time>2023-10-16T16:20:20.000Z</time>
  </metadata>
  <trk>
    <name>2023.-Veliki-Popisanac</name>
    <trkseg>
      <trkpt lat="45.70023324340582" lon="17.704769941046834">
        <ele>144.6</ele>
        <time>2023-10-16T16:20:20.000Z</time>
      </trkpt>
      <trkpt lat="45.70023131556809" lon="17.704771114513278">
        <ele>144.58</ele>
        <time>2023-10-16T16:20:20.000Z</time>
      </trkpt>
      <trkpt lat="45.70022729225457" lon="17.704781340435147">
        <ele>144.57</ele>
        <time>2023-10-16T16:20:20.000Z</time>
      </trkpt>
      <trkpt lat="45.70022159256041" lon="17.70479508675635">
        <ele>144.55</ele>
        <time>2023-10-16T16:20:20.001Z</time>
      </trkpt>
      <trkpt lat="45.700214048847556" lon="17.70481076091528">
        <ele>144.54</ele>
        <time>2023-10-16T16:20:20.002Z</time>
      </trkpt>
      <trkpt lat="45.70020457729697" lon="17.70484453998506">
        <ele>144.53</ele>
        <time>2023-10-16T16:20:20.004Z</time>
      </trkpt>
      <trkpt lat="45.70019770413637" lon="17.70486406981945">
        <ele>144.51</ele>
        <time>2023-10-16T16:20:20.007Z</time>
      </trkpt>
      <trkpt lat="45.70018990896642" lon="17.704885443672538">
        <ele>144.5</ele>
        <time>2023-10-16T16:20:20.010Z</time>
      </trkpt>
      <trkpt lat="45.70018094033003" lon="17.704907739534974">
        <ele>144.5</ele>
        <time>2023-10-16T16:20:20.014Z</time>
      </trkpt>
      <trkpt lat="45.70017079822719" lon="17.70493003539741">
        <ele>144.48</ele>
        <time>2023-10-16T16:20:20.018Z</time>
      </trkpt>
      <trkpt lat="45.70015965029597" lon="17.704951660707593">
        <ele>144.47</ele>
        <time>2023-10-16T16:20:20.023Z</time>
      </trkpt>
      <trkpt lat="45.70014774799347" lon="17.70497211255133">
        <ele>144.46</ele>
        <time>2023-10-16T16:20:20.029Z</time>
      </trkpt>
      <trkpt lat="45.70013500750065" lon="17.704990720376372">
        <ele>144.45</ele>
        <time>2023-10-16T16:20:20.035Z</time>
      </trkpt>
      <trkpt lat="45.700121177360415" lon="17.70500672981143">
        <ele>144.44</ele>
        <time>2023-10-16T16:20:20.042Z</time>
      </trkpt>
      <trkpt lat="45.7001063413918" lon="17.705019302666187">
        <ele>144.43</ele>
        <time>2023-10-16T16:20:20.049Z</time>
      </trkpt>
      <trkpt lat="45.7000907510519" lon="17.70502827130258">
        <ele>144.41</ele>
        <time>2023-10-16T16:20:20.057Z</time>
      </trkpt>
      <trkpt lat="45.70007465779781" lon="17.705033887177706">
        <ele>144.4</ele>
        <time>2023-10-16T16:20:20.065Z</time>
      </trkpt>
      <trkpt lat="45.70005848072469" lon="17.705036401748657">
        <ele>144.39</ele>
        <time>2023-10-16T16:20:20.074Z</time>
      </trkpt>
      <trkpt lat="45.7000423874706" lon="17.705036234110594">
        <ele>144.39</ele>
        <time>2023-10-16T16:20:20.084Z</time>
      </trkpt>
      <trkpt lat="45.700026797130704" lon="17.705033468082547">
        <ele>144.38</ele>
        <time>2023-10-16T16:20:20.094Z</time>
      </trkpt>
      <trkpt lat="45.700012128800154" lon="17.705028858035803">
        <ele>144.38</ele>
        <time>2023-10-16T16:20:20.105Z</time>
      </trkpt>
      <trkpt lat="45.69999829865992" lon="17.705022571608424">
        <ele>144.38</ele>
        <time>2023-10-16T16:20:20.116Z</time>
      </trkpt>
      <trkpt lat="45.699985306710005" lon="17.70501502789557">
        <ele>144.38</ele>
        <time>2023-10-16T16:20:20.128Z</time>
      </trkpt>
      <trkpt lat="45.6999734044075" lon="17.705006394535303">
        <ele>144.39</ele>
        <time>2023-10-16T16:20:20.140Z</time>
      </trkpt>
      <trkpt lat="45.69996292702854" lon="17.704997761175036">
        <ele>144.39</ele>
        <time>2023-10-16T16:20:20.152Z</time>
      </trkpt>
      <trkpt lat="45.69995379075408" lon="17.70498963072896">
        <ele>144.41</ele>
        <time>2023-10-16T16:20:20.165Z</time>
      </trkpt>
      <trkpt lat="45.699945660308" lon="17.704981919378042">
        <ele>144.42</ele>
        <time>2023-10-16T16:20:20.178Z</time>
      </trkpt>
      <trkpt lat="45.69993828423321" lon="17.70497445948422">
        <ele>144.44</ele>
        <time>2023-10-16T16:20:20.191Z</time>
      </trkpt>
      <trkpt lat="45.69993141107261" lon="17.70496716722846">
        <ele>144.45</ele>
        <time>2023-10-16T16:20:20.205Z</time>
      </trkpt>
      <trkpt lat="45.699925208464265" lon="17.704959539696574">
        <ele>144.48</ele>
        <time>2023-10-16T16:20:20.219Z</time>
      </trkpt>
      <trkpt lat="45.69991950877011" lon="17.704951325431466">
        <ele>144.5</ele>
        <time>2023-10-16T16:20:20.233Z</time>
      </trkpt>
      <trkpt lat="45.69991406053305" lon="17.704942440614104">
        <ele>144.53</ele>
        <time>2023-10-16T16:20:20.247Z</time>
      </trkpt>
      <trkpt lat="45.699908612295985" lon="17.70493296906352">
        <ele>144.56</ele>
        <time>2023-10-16T16:20:20.262Z</time>
      </trkpt>
      <trkpt lat="45.69990308023989" lon="17.704922910779715">
        <ele>144.59</ele>
        <time>2023-10-16T16:20:20.277Z</time>
      </trkpt>
      <trkpt lat="45.69989696145058" lon="17.704912684857845">
        <ele>144.63</ele>
        <time>2023-10-16T16:20:20.292Z</time>
      </trkpt>
      <trkpt lat="45.699890004470944" lon="17.704901788383722">
        <ele>144.67</ele>
        <time>2023-10-16T16:20:20.308Z</time>
      </trkpt>
      <trkpt lat="45.69988254457712" lon="17.70489047281444">
        <ele>144.71</ele>
        <time>2023-10-16T16:20:20.324Z</time>
      </trkpt>
      <trkpt lat="45.699874330312014" lon="17.70487915724516">
        <ele>144.75</ele>
        <time>2023-10-16T16:20:20.340Z</time>
      </trkpt>
      <trkpt lat="45.69986544549465" lon="17.70486800931394">
        <ele>144.8</ele>
        <time>2023-10-16T16:20:20.357Z</time>
      </trkpt>
      <trkpt lat="45.69985563866794" lon="17.70485761575401">
        <ele>144.84</ele>
        <time>2023-10-16T16:20:20.374Z</time>
      </trkpt>
      <trkpt lat="45.69984499365091" lon="17.70484839566052">
        <ele>144.89</ele>
        <time>2023-10-16T16:20:20.392Z</time>
      </trkpt>
      <trkpt lat="45.69983351044357" lon="17.704840935766697">
        <ele>144.94</ele>
        <time>2023-10-16T16:20:20.410Z</time>
      </trkpt>
      <trkpt lat="45.699821189045906" lon="17.704835403710604">
        <ele>144.99</ele>
        <time>2023-10-16T16:20:20.428Z</time>
      </trkpt>
      <trkpt lat="45.69980828091502" lon="17.70483179949224">
        <ele>145.04</ele>
        <time>2023-10-16T16:20:20.447Z</time>
      </trkpt>
      <trkpt lat="45.699794786050916" lon="17.704830039292574">
        <ele>145.1</ele>
        <time>2023-10-16T16:20:20.466Z</time>
      </trkpt>
      <trkpt lat="45.699781039729714" lon="17.704830206930637">
        <ele>145.15</ele>
        <time>2023-10-16T16:20:20.486Z</time>
      </trkpt>
      <trkpt lat="45.69976712577045" lon="17.704832386225462">
        <ele>145.2</ele>
        <time>2023-10-16T16:20:20.506Z</time>
      </trkpt>
      <trkpt lat="45.69975304417312" lon="17.704836325719953">
        <ele>145.25</ele>
        <time>2023-10-16T16:20:20.527Z</time>
      </trkpt>
      <trkpt lat="45.69973896257579" lon="17.704841941595078">
        <ele>145.29</ele>
        <time>2023-10-16T16:20:20.548Z</time>
      </trkpt>
      <trkpt lat="45.699724880978465" lon="17.704849150031805">
        <ele>145.34</ele>
        <time>2023-10-16T16:20:20.570Z</time>
      </trkpt>
      <trkpt lat="45.6997109670192" lon="17.70485778339207">
        <ele>145.39</ele>
        <time>2023-10-16T16:20:20.592Z</time>
      </trkpt>
      <trkpt lat="45.69969713687897" lon="17.704867590218782">
        <ele>145.43</ele>
        <time>2023-10-16T16:20:20.615Z</time>
      </trkpt>
      <trkpt lat="45.69968355819583" lon="17.704878319054842">
        <ele>145.47</ele>
        <time>2023-10-16T16:20:20.638Z</time>
      </trkpt>
      <trkpt lat="45.69967023096979" lon="17.704889802262187">
        <ele>145.51</ele>
        <time>2023-10-16T16:20:20.662Z</time>
      </trkpt>
      <trkpt lat="45.69965715520084" lon="17.70490212365985">
        <ele>145.55</ele>
        <time>2023-10-16T16:20:20.686Z</time>
      </trkpt>
      <trkpt lat="45.69964449852705" lon="17.704915115609765">
        <ele>145.59</ele>
        <time>2023-10-16T16:20:20.711Z</time>
      </trkpt>
      <trkpt lat="45.699632093310356" lon="17.704928694292903">
        <ele>145.62</ele>
        <time>2023-10-16T16:20:20.736Z</time>
      </trkpt>
      <trkpt lat="45.69962010718882" lon="17.7049426920712">
        <ele>145.65</ele>
        <time>2023-10-16T16:20:20.762Z</time>
      </trkpt>
      <trkpt lat="45.69960845634341" lon="17.704957025125623">
        <ele>145.68</ele>
        <time>2023-10-16T16:20:20.788Z</time>
      </trkpt>
      <trkpt lat="45.69959722459316" lon="17.704971441999078">
        <ele>145.71</ele>
        <time>2023-10-16T16:20:20.815Z</time>
      </trkpt>
      <trkpt lat="45.6995864957571" lon="17.704985942691565">
        <ele>145.74</ele>
        <time>2023-10-16T16:20:20.842Z</time>
      </trkpt>
      <trkpt lat="45.69957668893039" lon="17.705000108107924">
        <ele>145.76</ele>
        <time>2023-10-16T16:20:20.870Z</time>
      </trkpt>
      <trkpt lat="45.69956763647497" lon="17.705013770610094">
        <ele>145.78</ele>
        <time>2023-10-16T16:20:20.898Z</time>
      </trkpt>
      <trkpt lat="45.69955933839083" lon="17.705027097836137">
        <ele>145.8</ele>
        <time>2023-10-16T16:20:20.927Z</time>
      </trkpt>
      <trkpt lat="45.69955162703991" lon="17.705039754509926">
        <ele>145.82</ele>
        <time>2023-10-16T16:20:20.956Z</time>
      </trkpt>
      <trkpt lat="45.69954441860318" lon="17.70505123771727">
        <ele>145.84</ele>
        <time>2023-10-16T16:20:20.985Z</time>
      </trkpt>
      <trkpt lat="45.699537713080645" lon="17.705061631277204">
        <ele>145.85</ele>
        <time>2023-10-16T16:20:21.015Z</time>
      </trkpt>
      <trkpt lat="45.69953159429133" lon="17.70507076755166">
        <ele>145.86</ele>
        <time>2023-10-16T16:20:21.045Z</time>
      </trkpt>
      <trkpt lat="45.69952589459717" lon="17.705078814178705">
        <ele>145.87</ele>
        <time>2023-10-16T16:20:21.075Z</time>
      </trkpt>
      <trkpt lat="45.699520697817206" lon="17.705085771158338">
        <ele>145.88</ele>
        <time>2023-10-16T16:20:21.106Z</time>
      </trkpt>
      <trkpt lat="45.699515752494335" lon="17.705092392861843">
        <ele>145.89</ele>
        <time>2023-10-16T16:20:21.137Z</time>
      </trkpt>
      <trkpt lat="45.699510890990496" lon="17.705099182203412">
        <ele>145.9</ele>
        <time>2023-10-16T16:20:21.168Z</time>
      </trkpt>
      <trkpt lat="45.699505526572466" lon="17.705107228830457">
        <ele>145.91</ele>
        <time>2023-10-16T16:20:21.199Z</time>
      </trkpt>
      <trkpt lat="45.69949949160218" lon="17.705116951838136">
        <ele>145.91</ele>
        <time>2023-10-16T16:20:21.231Z</time>
      </trkpt>
      <trkpt lat="45.69949286989868" lon="17.705128602683544">
        <ele>145.91</ele>
        <time>2023-10-16T16:20:21.263Z</time>
      </trkpt>
      <trkpt lat="45.699485493823886" lon="17.70514260046184">
        <ele>145.92</ele>
        <time>2023-10-16T16:20:21.295Z</time>
      </trkpt>
      <trkpt lat="45.699477111920714" lon="17.705160370096564">
        <ele>145.92</ele>
        <time>2023-10-16T16:20:21.328Z</time>
      </trkpt>
      <trkpt lat="45.699467808008194" lon="17.705181827768683">
        <ele>145.92</ele>
        <time>2023-10-16T16:20:21.361Z</time>
      </trkpt>
      <trkpt lat="45.69945741444826" lon="17.705206973478198">
        <ele>145.91</ele>
        <time>2023-10-16T16:20:21.395Z</time>
      </trkpt>
      <trkpt lat="45.699445847421885" lon="17.705235723406076">
        <ele>145.91</ele>
        <time>2023-10-16T16:20:21.430Z</time>
      </trkpt>
      <trkpt lat="45.69943335838616" lon="17.70526774227619">
        <ele>145.91</ele>
        <time>2023-10-16T16:20:21.466Z</time>
      </trkpt>
      <trkpt lat="45.699419947341084" lon="17.705302024260163">
        <ele>145.91</ele>
        <time>2023-10-16T16:20:21.503Z</time>
      </trkpt>
      <trkpt lat="45.69940594956279" lon="17.705337731167674">
        <ele>145.91</ele>
        <time>2023-10-16T16:20:21.541Z</time>
      </trkpt>
      <trkpt lat="45.69939128123224" lon="17.705374360084534">
        <ele>145.92</ele>
        <time>2023-10-16T16:20:21.580Z</time>
      </trkpt>
      <trkpt lat="45.6993761099875" lon="17.705411659553647">
        <ele>145.92</ele>
        <time>2023-10-16T16:20:21.620Z</time>
      </trkpt>
      <trkpt lat="45.69936077110469" lon="17.705449126660824">
        <ele>145.93</ele>
        <time>2023-10-16T16:20:21.661Z</time>
      </trkpt>
      <trkpt lat="45.699345264583826" lon="17.705486426129937">
        <ele>145.94</ele>
        <time>2023-10-16T16:20:21.703Z</time>
      </trkpt>
      <trkpt lat="45.69932975806296" lon="17.705523306503892">
        <ele>145.95</ele>
        <time>2023-10-16T16:20:21.746Z</time>
      </trkpt>
      <trkpt lat="45.69931433536112" lon="17.70555934868753">
        <ele>145.95</ele>
        <time>2023-10-16T16:20:21.790Z</time>
      </trkpt>
      <trkpt lat="45.69929899647832" lon="17.705594217404723">
        <ele>145.96</ele>
        <time>2023-10-16T16:20:21.835Z</time>
      </trkpt>
      <trkpt lat="45.69928348995745" lon="17.70562833175063">
        <ele>145.97</ele>
        <time>2023-10-16T16:20:21.881Z</time>
      </trkpt>
      <trkpt lat="45.69926789961755" lon="17.70566152408719">
        <ele>145.98</ele>
        <time>2023-10-16T16:20:21.928Z</time>
      </trkpt>
      <trkpt lat="45.69925222545862" lon="17.7056937944144">
        <ele>145.99</ele>
        <time>2023-10-16T16:20:21.975Z</time>
      </trkpt>
      <trkpt lat="45.699236299842596" lon="17.70572505891323">
        <ele>146.01</ele>
        <time>2023-10-16T16:20:22.023Z</time>
      </trkpt>
      <trkpt lat="45.69922020658851" lon="17.705754563212395">
        <ele>146.03</ele>
        <time>2023-10-16T16:20:22.072Z</time>
      </trkpt>
      <trkpt lat="45.699203945696354" lon="17.705781469121575">
        <ele>146.05</ele>
        <time>2023-10-16T16:20:22.122Z</time>
      </trkpt>
      <trkpt lat="45.69918760098517" lon="17.705804770812392">
        <ele>146.07</ele>
        <time>2023-10-16T16:20:22.173Z</time>
      </trkpt>
      <trkpt lat="45.699171256273985" lon="17.70582421682775">
        <ele>146.1</ele>
        <time>2023-10-16T16:20:22.225Z</time>
      </trkpt>
      <trkpt lat="45.6991549115628" lon="17.7058388851583">
        <ele>146.13</ele>
        <time>2023-10-16T16:20:22.277Z</time>
      </trkpt>
      <trkpt lat="45.69913873448968" lon="17.705848859623075">
        <ele>146.16</ele>
        <time>2023-10-16T16:20:22.330Z</time>
      </trkpt>
      <trkpt lat="45.69912255741656" lon="17.705854391679168">
        <ele>146.2</ele>
        <time>2023-10-16T16:20:22.383Z</time>
      </trkpt>
      <trkpt lat="45.699106799438596" lon="17.705855229869485">
        <ele>146.24</ele>
        <time>2023-10-16T16:20:22.437Z</time>
      </trkpt>
      <trkpt lat="45.69909137673676" lon="17.70585212856531">
        <ele>146.28</ele>
        <time>2023-10-16T16:20:22.491Z</time>
      </trkpt>
      <trkpt lat="45.699076037853956" lon="17.70584517158568">
        <ele>146.33</ele>
        <time>2023-10-16T16:20:22.546Z</time>
      </trkpt>
      <trkpt lat="45.699060866609216" lon="17.705835113301873">
        <ele>146.38</ele>
        <time>2023-10-16T16:20:22.601Z</time>
      </trkpt>
      <trkpt lat="45.6990460306406" lon="17.705822624266148">
        <ele>146.44</ele>
        <time>2023-10-16T16:20:22.657Z</time>
      </trkpt>
      <trkpt lat="45.69903111085296" lon="17.705808710306883">
        <ele>146.49</ele>
        <time>2023-10-16T16:20:22.714Z</time>
      </trkpt>
      <trkpt lat="45.69901619106531" lon="17.705794293433428">
        <ele>146.56</ele>
        <time>2023-10-16T16:20:22.771Z</time>
      </trkpt>
      <trkpt lat="45.69900093600154" lon="17.705779625102878">
        <ele>146.62</ele>
        <time>2023-10-16T16:20:22.829Z</time>
      </trkpt>
      <trkpt lat="45.698985513299704" lon="17.705765292048454">
        <ele>146.69</ele>
        <time>2023-10-16T16:20:22.887Z</time>
      </trkpt>
      <trkpt lat="45.69896975532174" lon="17.705751126632094">
        <ele>146.76</ele>
        <time>2023-10-16T16:20:22.946Z</time>
      </trkpt>
      <trkpt lat="45.69895366206765" lon="17.70573721267283">
        <ele>146.83</ele>
        <time>2023-10-16T16:20:23.006Z</time>
      </trkpt>
      <trkpt lat="45.698937149718404" lon="17.70572355017066">
        <ele>146.9</ele>
        <time>2023-10-16T16:20:23.066Z</time>
      </trkpt>
      <trkpt lat="45.698920134454966" lon="17.705709636211395">
        <ele>146.97</ele>
        <time>2023-10-16T16:20:23.127Z</time>
      </trkpt>
      <trkpt lat="45.698902532458305" lon="17.705695386976004">
        <ele>147.05</ele>
        <time>2023-10-16T16:20:23.189Z</time>
      </trkpt>
      <trkpt lat="45.698884427547455" lon="17.705680802464485">
        <ele>147.12</ele>
        <time>2023-10-16T16:20:23.251Z</time>
      </trkpt>
      <trkpt lat="45.698865819722414" lon="17.70566537976265">
        <ele>147.2</ele>
        <time>2023-10-16T16:20:23.314Z</time>
      </trkpt>
      <trkpt lat="45.69884704425931" lon="17.705649454146624">
        <ele>147.27</ele>
        <time>2023-10-16T16:20:23.378Z</time>
      </trkpt>
      <trkpt lat="45.69882793352008" lon="17.70563269034028">
        <ele>147.35</ele>
        <time>2023-10-16T16:20:23.443Z</time>
      </trkpt>
      <trkpt lat="45.698808655142784" lon="17.705615675076842">
        <ele>147.43</ele>
        <time>2023-10-16T16:20:23.508Z</time>
      </trkpt>
      <trkpt lat="45.698789125308394" lon="17.70559840835631">
        <ele>147.51</ele>
        <time>2023-10-16T16:20:23.574Z</time>
      </trkpt>
      <trkpt lat="45.69876967929304" lon="17.70558130927384">
        <ele>147.59</ele>
        <time>2023-10-16T16:20:23.641Z</time>
      </trkpt>
      <trkpt lat="45.69875023327768" lon="17.7055642940104">
        <ele>147.67</ele>
        <time>2023-10-16T16:20:23.709Z</time>
      </trkpt>
      <trkpt lat="45.69873078726232" lon="17.70554769784212">
        <ele>147.75</ele>
        <time>2023-10-16T16:20:23.777Z</time>
      </trkpt>
      <trkpt lat="45.69871125742793" lon="17.70553193986416">
        <ele>147.83</ele>
        <time>2023-10-16T16:20:23.846Z</time>
      </trkpt>
      <trkpt lat="45.698691895231605" lon="17.70551735535264">
        <ele>147.91</ele>
        <time>2023-10-16T16:20:23.916Z</time>
      </trkpt>
      <trkpt lat="45.69867261685431" lon="17.70550411194563">
        <ele>147.99</ele>
        <time>2023-10-16T16:20:23.987Z</time>
      </trkpt>
      <trkpt lat="45.69865342229605" lon="17.70549246110022">
        <ele>148.07</ele>
        <time>2023-10-16T16:20:24.058Z</time>
      </trkpt>
      <trkpt lat="45.69863389246166" lon="17.705482067540288">
        <ele>148.15</ele>
        <time>2023-10-16T16:20:24.130Z</time>
      </trkpt>
      <trkpt lat="45.6986144464463" lon="17.705473098903894">
        <ele>148.23</ele>
        <time>2023-10-16T16:20:24.203Z</time>
      </trkpt>
      <trkpt lat="45.69859491661191" lon="17.705465303733945">
        <ele>148.31</ele>
        <time>2023-10-16T16:20:24.276Z</time>
      </trkpt>
      <trkpt lat="45.69857530295849" lon="17.70545817911625">
        <ele>148.39</ele>
        <time>2023-10-16T16:20:24.350Z</time>
      </trkpt>
      <trkpt lat="45.69855527020991" lon="17.705451138317585">
        <ele>148.47</ele>
        <time>2023-10-16T16:20:24.425Z</time>
      </trkpt>
      <trkpt lat="45.6985349021852" lon="17.705444181337953">
        <ele>148.55</ele>
        <time>2023-10-16T16:20:24.500Z</time>
      </trkpt>
      <trkpt lat="45.69851419888437" lon="17.70543672144413">
        <ele>148.64</ele>
        <time>2023-10-16T16:20:24.576Z</time>
      </trkpt>
      <trkpt lat="45.6984934117645" lon="17.705428507179022">
        <ele>148.72</ele>
        <time>2023-10-16T16:20:24.653Z</time>
      </trkpt>
      <trkpt lat="45.69847228936851" lon="17.705419035628438">
        <ele>148.8</ele>
        <time>2023-10-16T16:20:24.731Z</time>
      </trkpt>
      <trkpt lat="45.698450999334455" lon="17.70540839061141">
        <ele>148.88</ele>
        <time>2023-10-16T16:20:24.809Z</time>
      </trkpt>
      <trkpt lat="45.698429457843304" lon="17.70539657212794">
        <ele>148.96</ele>
        <time>2023-10-16T16:20:24.888Z</time>
      </trkpt>
      <trkpt lat="45.69840791635215" lon="17.70538399927318">
        <ele>149.04</ele>
        <time>2023-10-16T16:20:24.968Z</time>
      </trkpt>
      <trkpt lat="45.69838612340391" lon="17.705371342599392">
        <ele>149.12</ele>
        <time>2023-10-16T16:20:25.049Z</time>
      </trkpt>
      <trkpt lat="45.69836433045566" lon="17.70535902120173">
        <ele>149.21</ele>
        <time>2023-10-16T16:20:25.130Z</time>
      </trkpt>
      <trkpt lat="45.69834228605032" lon="17.705347537994385">
        <ele>149.29</ele>
        <time>2023-10-16T16:20:25.212Z</time>
      </trkpt>
      <trkpt lat="45.69831999018788" lon="17.705337312072515">
        <ele>149.37</ele>
        <time>2023-10-16T16:20:25.295Z</time>
      </trkpt>
      <trkpt lat="45.69829744286835" lon="17.70532825961709">
        <ele>149.46</ele>
        <time>2023-10-16T16:20:25.379Z</time>
      </trkpt>
      <trkpt lat="45.69827472791076" lon="17.705320548266172">
        <ele>149.54</ele>
        <time>2023-10-16T16:20:25.464Z</time>
      </trkpt>
      <trkpt lat="45.69825176149607" lon="17.705313926562667">
        <ele>149.62</ele>
        <time>2023-10-16T16:20:25.549Z</time>
      </trkpt>
      <trkpt lat="45.69822879508138" lon="17.705308562144637">
        <ele>149.71</ele>
        <time>2023-10-16T16:20:25.635Z</time>
      </trkpt>
      <trkpt lat="45.6982053257525" lon="17.705304035916924">
        <ele>149.79</ele>
        <time>2023-10-16T16:20:25.722Z</time>
      </trkpt>
      <trkpt lat="45.698181353509426" lon="17.705300264060497">
        <ele>149.88</ele>
        <time>2023-10-16T16:20:25.810Z</time>
      </trkpt>
      <trkpt lat="45.698157297447324" lon="17.705296827480197">
        <ele>149.97</ele>
        <time>2023-10-16T16:20:25.898Z</time>
      </trkpt>
      <trkpt lat="45.69813307374716" lon="17.705293307080865">
        <ele>150.05</ele>
        <time>2023-10-16T16:20:25.987Z</time>
      </trkpt>
      <trkpt lat="45.698108514770865" lon="17.705289032310247">
        <ele>150.14</ele>
        <time>2023-10-16T16:20:26.077Z</time>
      </trkpt>
      <trkpt lat="45.69808370433748" lon="17.70528425462544">
        <ele>150.24</ele>
        <time>2023-10-16T16:20:26.168Z</time>
      </trkpt>
      <trkpt lat="45.69805889390409" lon="17.70527889020741">
        <ele>150.33</ele>
        <time>2023-10-16T16:20:26.260Z</time>
      </trkpt>
      <trkpt lat="45.698034167289734" lon="17.705273274332285">
        <ele>150.43</ele>
        <time>2023-10-16T16:20:26.353Z</time>
      </trkpt>
      <trkpt lat="45.69800902158022" lon="17.705267323181033">
        <ele>150.53</ele>
        <time>2023-10-16T16:20:26.446Z</time>
      </trkpt>
      <trkpt lat="45.69798354059458" lon="17.705261539667845">
        <ele>150.63</ele>
        <time>2023-10-16T16:20:26.540Z</time>
      </trkpt>
      <trkpt lat="45.69795780815184" lon="17.70525600761175">
        <ele>150.74</ele>
        <time>2023-10-16T16:20:26.635Z</time>
      </trkpt>
      <trkpt lat="45.69793241098523" lon="17.705250727012753">
        <ele>150.84</ele>
        <time>2023-10-16T16:20:26.731Z</time>
      </trkpt>
      <trkpt lat="45.69790726527572" lon="17.705245781689882">
        <ele>150.95</ele>
        <time>2023-10-16T16:20:26.828Z</time>
      </trkpt>
      <trkpt lat="45.69788253866136" lon="17.705241171643138">
        <ele>151.06</ele>
        <time>2023-10-16T16:20:26.926Z</time>
      </trkpt>
      <trkpt lat="45.69785797968507" lon="17.70523681305349">
        <ele>151.17</ele>
        <time>2023-10-16T16:20:27.025Z</time>
      </trkpt>
      <trkpt lat="45.69783367216587" lon="17.705232622101903">
        <ele>151.28</ele>
        <time>2023-10-16T16:20:27.124Z</time>
      </trkpt>
      <trkpt lat="45.69780961610377" lon="17.70522851496935">
        <ele>151.39</ele>
        <time>2023-10-16T16:20:27.224Z</time>
      </trkpt>
      <trkpt lat="45.69778581149876" lon="17.705224491655827">
        <ele>151.51</ele>
        <time>2023-10-16T16:20:27.325Z</time>
      </trkpt>
      <trkpt lat="45.69776217453182" lon="17.705220468342304">
        <ele>151.62</ele>
        <time>2023-10-16T16:20:27.427Z</time>
      </trkpt>
      <trkpt lat="45.697738537564874" lon="17.70521636120975">
        <ele>151.74</ele>
        <time>2023-10-16T16:20:27.530Z</time>
      </trkpt>
      <trkpt lat="45.69771498441696" lon="17.705212254077196">
        <ele>151.86</ele>
        <time>2023-10-16T16:20:27.633Z</time>
      </trkpt>
      <trkpt lat="45.69769143126905" lon="17.705208146944642">
        <ele>151.99</ele>
        <time>2023-10-16T16:20:27.737Z</time>
      </trkpt>
      <trkpt lat="45.697667710483074" lon="17.70520362071693">
        <ele>152.11</ele>
        <time>2023-10-16T16:20:27.842Z</time>
      </trkpt>
      <trkpt lat="45.69764348678291" lon="17.70519875921309">
        <ele>152.24</ele>
        <time>2023-10-16T16:20:27.948Z</time>
      </trkpt>
      <trkpt lat="45.697618843987584" lon="17.705193227156997">
        <ele>152.37</ele>
        <time>2023-10-16T16:20:28.055Z</time>
      </trkpt>
      <trkpt lat="45.69759369827807" lon="17.705187192186713">
        <ele>152.51</ele>
        <time>2023-10-16T16:20:28.162Z</time>
      </trkpt>
      <trkpt lat="45.69756838493049" lon="17.705180821940303">
        <ele>152.64</ele>
        <time>2023-10-16T16:20:28.270Z</time>
      </trkpt>
      <trkpt lat="45.69754256866872" lon="17.705174116417766">
        <ele>152.78</ele>
        <time>2023-10-16T16:20:28.379Z</time>
      </trkpt>
      <trkpt lat="45.69751650094986" lon="17.7051670756191">
        <ele>152.91</ele>
        <time>2023-10-16T16:20:28.489Z</time>
      </trkpt>
      <trkpt lat="45.69749009795487" lon="17.70515969954431">
        <ele>153.05</ele>
        <time>2023-10-16T16:20:28.600Z</time>
      </trkpt>
      <trkpt lat="45.697464030236006" lon="17.705152155831456">
        <ele>153.18</ele>
        <time>2023-10-16T16:20:28.712Z</time>
      </trkpt>
      <trkpt lat="45.69743787869811" lon="17.705143941566348">
        <ele>153.32</ele>
        <time>2023-10-16T16:20:28.825Z</time>
      </trkpt>
      <trkpt lat="45.697411727160215" lon="17.70513522438705">
        <ele>153.46</ele>
        <time>2023-10-16T16:20:28.939Z</time>
      </trkpt>
      <trkpt lat="45.69738557562232" lon="17.705126088112593">
        <ele>153.59</ele>
        <time>2023-10-16T16:20:29.054Z</time>
      </trkpt>
      <trkpt lat="45.69736001081765" lon="17.70511670038104">
        <ele>153.73</ele>
        <time>2023-10-16T16:20:29.169Z</time>
      </trkpt>
      <trkpt lat="45.69733486510813" lon="17.705107061192393">
        <ele>153.87</ele>
        <time>2023-10-16T16:20:29.285Z</time>
      </trkpt>
      <trkpt lat="45.697310138493776" lon="17.705097254365683">
        <ele>154.01</ele>
        <time>2023-10-16T16:20:29.402Z</time>
      </trkpt>
      <trkpt lat="45.697286082431674" lon="17.705087112262845">
        <ele>154.16</ele>
        <time>2023-10-16T16:20:29.520Z</time>
      </trkpt>
      <trkpt lat="45.69726278074086" lon="17.705076718702912">
        <ele>154.3</ele>
        <time>2023-10-16T16:20:29.639Z</time>
      </trkpt>
      <trkpt lat="45.69723998196423" lon="17.70506582222879">
        <ele>154.44</ele>
        <time>2023-10-16T16:20:29.759Z</time>
      </trkpt>
      <trkpt lat="45.69721751846373" lon="17.705054506659508">
        <ele>154.59</ele>
        <time>2023-10-16T16:20:29.879Z</time>
      </trkpt>
      <trkpt lat="45.69719547405839" lon="17.7050428558141">
        <ele>154.73</ele>
        <time>2023-10-16T16:20:30.000Z</time>
      </trkpt>
      <trkpt lat="45.69717359729111" lon="17.7050307020545">
        <ele>154.87</ele>
        <time>2023-10-16T16:20:30.122Z</time>
      </trkpt>
      <trkpt lat="45.69715213961899" lon="17.705018213018775">
        <ele>155.02</ele>
        <time>2023-10-16T16:20:30.245Z</time>
      </trkpt>
      <trkpt lat="45.697131017223" lon="17.705005640164018">
        <ele>155.17</ele>
        <time>2023-10-16T16:20:30.368Z</time>
      </trkpt>
      <trkpt lat="45.69710997864604" lon="17.704992815852165">
        <ele>155.31</ele>
        <time>2023-10-16T16:20:30.492Z</time>
      </trkpt>
      <trkpt lat="45.69708902388811" lon="17.70497990772128">
        <ele>155.46</ele>
        <time>2023-10-16T16:20:30.617Z</time>
      </trkpt>
      <trkpt lat="45.69706790149212" lon="17.704966915771365">
        <ele>155.6</ele>
        <time>2023-10-16T16:20:30.743Z</time>
      </trkpt>
      <trkpt lat="45.69704661145806" lon="17.704953840002418">
        <ele>155.75</ele>
        <time>2023-10-16T16:20:30.870Z</time>
      </trkpt>
      <trkpt lat="45.69702481850982" lon="17.704940428957343">
        <ele>155.9</ele>
        <time>2023-10-16T16:20:30.997Z</time>
      </trkpt>
      <trkpt lat="45.69700294174254" lon="17.7049271017313">
        <ele>156.05</ele>
        <time>2023-10-16T16:20:31.125Z</time>
      </trkpt>
      <trkpt lat="45.6969808973372" lon="17.70491343922913">
        <ele>156.19</ele>
        <time>2023-10-16T16:20:31.254Z</time>
      </trkpt>
      <trkpt lat="45.69695902056992" lon="17.704899860545993">
        <ele>156.34</ele>
        <time>2023-10-16T16:20:31.384Z</time>
      </trkpt>
      <trkpt lat="45.6969375628978" lon="17.704886617138982">
        <ele>156.48</ele>
        <time>2023-10-16T16:20:31.515Z</time>
      </trkpt>
      <trkpt lat="45.69691660813987" lon="17.70487387664616">
        <ele>156.62</ele>
        <time>2023-10-16T16:20:31.646Z</time>
      </trkpt>
      <trkpt lat="45.696896240115166" lon="17.704861722886562">
        <ele>156.77</ele>
        <time>2023-10-16T16:20:31.778Z</time>
      </trkpt>
      <trkpt lat="45.69687654264271" lon="17.70485032349825">
        <ele>156.91</ele>
        <time>2023-10-16T16:20:31.911Z</time>
      </trkpt>
      <trkpt lat="45.69685743190348" lon="17.704839846119285">
        <ele>157.06</ele>
        <time>2023-10-16T16:20:32.044Z</time>
      </trkpt>
      <trkpt lat="45.69683890789747" lon="17.70482978783548">
        <ele>157.2</ele>
        <time>2023-10-16T16:20:32.178Z</time>
      </trkpt>
      <trkpt lat="45.69682071916759" lon="17.704819981008768">
        <ele>157.34</ele>
        <time>2023-10-16T16:20:32.313Z</time>
      </trkpt>
      <trkpt lat="45.69680311717093" lon="17.70481025800109">
        <ele>157.49</ele>
        <time>2023-10-16T16:20:32.448Z</time>
      </trkpt>
      <trkpt lat="45.69678568281233" lon="17.704799948260188">
        <ele>157.63</ele>
        <time>2023-10-16T16:20:32.584Z</time>
      </trkpt>
      <trkpt lat="45.696768667548895" lon="17.704789387062192">
        <ele>157.78</ele>
        <time>2023-10-16T16:20:32.721Z</time>
      </trkpt>
      <trkpt lat="45.696751568466425" lon="17.70477798767388">
        <ele>157.92</ele>
        <time>2023-10-16T16:20:32.858Z</time>
      </trkpt>
      <trkpt lat="45.69673430174589" lon="17.704765498638153">
        <ele>158.07</ele>
        <time>2023-10-16T16:20:32.996Z</time>
      </trkpt>
      <trkpt lat="45.6967166159302" lon="17.704751919955015">
        <ele>158.22</ele>
        <time>2023-10-16T16:20:33.135Z</time>
      </trkpt>
      <trkpt lat="45.69669851101935" lon="17.704736916348338">
        <ele>158.37</ele>
        <time>2023-10-16T16:20:33.274Z</time>
      </trkpt>
      <trkpt lat="45.69667965173721" lon="17.704720068722963">
        <ele>158.53</ele>
        <time>2023-10-16T16:20:33.414Z</time>
      </trkpt>
      <trkpt lat="45.696660205721855" lon="17.704701712355018">
        <ele>158.68</ele>
        <time>2023-10-16T16:20:33.555Z</time>
      </trkpt>
      <trkpt lat="45.69664025679231" lon="17.704682182520628">
        <ele>158.84</ele>
        <time>2023-10-16T16:20:33.697Z</time>
      </trkpt>
      <trkpt lat="45.696620140224695" lon="17.704661898314953">
        <ele>159.0</ele>
        <time>2023-10-16T16:20:33.839Z</time>
      </trkpt>
      <trkpt lat="45.69659977219999" lon="17.704641530290246">
        <ele>159.16</ele>
        <time>2023-10-16T16:20:33.982Z</time>
      </trkpt>
      <trkpt lat="45.696579571813345" lon="17.704621916636825">
        <ele>159.31</ele>
        <time>2023-10-16T16:20:34.126Z</time>
      </trkpt>
      <trkpt lat="45.696559119969606" lon="17.704602889716625">
        <ele>159.48</ele>
        <time>2023-10-16T16:20:34.271Z</time>
      </trkpt>
      <trkpt lat="45.6965387519449" lon="17.704585203900933">
        <ele>159.64</ele>
        <time>2023-10-16T16:20:34.417Z</time>
      </trkpt>
      <trkpt lat="45.696518467739224" lon="17.704569026827812">
        <ele>159.8</ele>
        <time>2023-10-16T16:20:34.563Z</time>
      </trkpt>
      <trkpt lat="45.69649835117161" lon="17.704554442316294">
        <ele>159.96</ele>
        <time>2023-10-16T16:20:34.710Z</time>
      </trkpt>
      <trkpt lat="45.69647815078497" lon="17.704541282728314">
        <ele>160.12</ele>
        <time>2023-10-16T16:20:34.858Z</time>
      </trkpt>
      <trkpt lat="45.69645820185542" lon="17.704529715701938">
        <ele>160.29</ele>
        <time>2023-10-16T16:20:35.007Z</time>
      </trkpt>
      <trkpt lat="45.69643867202103" lon="17.704519657418132">
        <ele>160.45</ele>
        <time>2023-10-16T16:20:35.156Z</time>
      </trkpt>
      <trkpt lat="45.69641939364374" lon="17.70451068878174">
        <ele>160.61</ele>
        <time>2023-10-16T16:20:35.306Z</time>
      </trkpt>
      <trkpt lat="45.6964005343616" lon="17.704502558335662">
        <ele>160.77</ele>
        <time>2023-10-16T16:20:35.457Z</time>
      </trkpt>
      <trkpt lat="45.69638184271753" lon="17.704495014622808">
        <ele>160.93</ele>
        <time>2023-10-16T16:20:35.608Z</time>
      </trkpt>
      <trkpt lat="45.69636331871152" lon="17.704487554728985">
        <ele>161.1</ele>
        <time>2023-10-16T16:20:35.760Z</time>
      </trkpt>
      <trkpt lat="45.696344962343574" lon="17.70448001101613">
        <ele>161.26</ele>
        <time>2023-10-16T16:20:35.913Z</time>
      </trkpt>
      <trkpt lat="45.69632677361369" lon="17.70447213202715">
        <ele>161.42</ele>
        <time>2023-10-16T16:20:36.066Z</time>
      </trkpt>
      <trkpt lat="45.696308836340904" lon="17.704463750123978">
        <ele>161.58</ele>
        <time>2023-10-16T16:20:36.220Z</time>
      </trkpt>
      <trkpt lat="45.69629106670618" lon="17.70445461384952">
        <ele>161.74</ele>
        <time>2023-10-16T16:20:36.374Z</time>
      </trkpt>
      <trkpt lat="45.69627379998565" lon="17.704444974660873">
        <ele>161.9</ele>
        <time>2023-10-16T16:20:36.529Z</time>
      </trkpt>
      <trkpt lat="45.69625695236027" lon="17.704434916377068">
        <ele>162.06</ele>
        <time>2023-10-16T16:20:36.685Z</time>
      </trkpt>
      <trkpt lat="45.696240440011024" lon="17.70442427136004">
        <ele>162.22</ele>
        <time>2023-10-16T16:20:36.841Z</time>
      </trkpt>
      <trkpt lat="45.69622392766178" lon="17.704413291066885">
        <ele>162.38</ele>
        <time>2023-10-16T16:20:36.998Z</time>
      </trkpt>
      <trkpt lat="45.69620741531253" lon="17.704402143135667">
        <ele>162.54</ele>
        <time>2023-10-16T16:20:37.156Z</time>
      </trkpt>
      <trkpt lat="45.69619098678231" lon="17.704390911385417">
        <ele>162.7</ele>
        <time>2023-10-16T16:20:37.314Z</time>
      </trkpt>
      <trkpt lat="45.696174474433064" lon="17.704380014911294">
        <ele>162.86</ele>
        <time>2023-10-16T16:20:37.473Z</time>
      </trkpt>
      <trkpt lat="45.696157878264785" lon="17.704369453713298">
        <ele>163.03</ele>
        <time>2023-10-16T16:20:37.632Z</time>
      </trkpt>
      <trkpt lat="45.69614103063941" lon="17.704358976334333">
        <ele>163.19</ele>
        <time>2023-10-16T16:20:37.792Z</time>
      </trkpt>
      <trkpt lat="45.696124099195" lon="17.704348331317306">
        <ele>163.35</ele>
        <time>2023-10-16T16:20:37.953Z</time>
      </trkpt>
      <trkpt lat="45.696107083931565" lon="17.704337602481246">
        <ele>163.51</ele>
        <time>2023-10-16T16:20:38.114Z</time>
      </trkpt>
      <trkpt lat="45.69608981721103" lon="17.7043261192739">
        <ele>163.67</ele>
        <time>2023-10-16T16:20:38.276Z</time>
      </trkpt>
      <trkpt lat="45.69607213139534" lon="17.704313965514302">
        <ele>163.83</ele>
        <time>2023-10-16T16:20:38.438Z</time>
      </trkpt>
      <trkpt lat="45.696054277941585" lon="17.704300973564386">
        <ele>163.99</ele>
        <time>2023-10-16T16:20:38.601Z</time>
      </trkpt>
      <trkpt lat="45.6960363406688" lon="17.704287311062217">
        <ele>164.15</ele>
        <time>2023-10-16T16:20:38.765Z</time>
      </trkpt>
      <trkpt lat="45.69601848721504" lon="17.7042727265507">
        <ele>164.31</ele>
        <time>2023-10-16T16:20:38.929Z</time>
      </trkpt>
      <trkpt lat="45.69600063376129" lon="17.7042571362108">
        <ele>164.47</ele>
        <time>2023-10-16T16:20:39.094Z</time>
      </trkpt>
      <trkpt lat="45.695982445031404" lon="17.70424003712833">
        <ele>164.63</ele>
        <time>2023-10-16T16:20:39.260Z</time>
      </trkpt>
      <trkpt lat="45.695964340120554" lon="17.704221764579415">
        <ele>164.79</ele>
        <time>2023-10-16T16:20:39.427Z</time>
      </trkpt>
      <trkpt lat="45.69594606757164" lon="17.704202570021152">
        <ele>164.95</ele>
        <time>2023-10-16T16:20:39.594Z</time>
      </trkpt>
      <trkpt lat="45.69592762738466" lon="17.7041828725487">
        <ele>165.11</ele>
        <time>2023-10-16T16:20:39.762Z</time>
      </trkpt>
      <trkpt lat="45.695908684283495" lon="17.70416283980012">
        <ele>165.27</ele>
        <time>2023-10-16T16:20:39.931Z</time>
      </trkpt>
      <trkpt lat="45.695889657363296" lon="17.70414289087057">
        <ele>165.44</ele>
        <time>2023-10-16T16:20:40.101Z</time>
      </trkpt>
      <trkpt lat="45.69587046280503" lon="17.704123193398118">
        <ele>165.59</ele>
        <time>2023-10-16T16:20:40.272Z</time>
      </trkpt>
      <trkpt lat="45.69585118442774" lon="17.704103998839855">
        <ele>165.75</ele>
        <time>2023-10-16T16:20:40.443Z</time>
      </trkpt>
      <trkpt lat="45.695831989869475" lon="17.70408522337675">
        <ele>165.91</ele>
        <time>2023-10-16T16:20:40.615Z</time>
      </trkpt>
      <trkpt lat="45.69581254385412" lon="17.7040671184659">
        <ele>166.07</ele>
        <time>2023-10-16T16:20:40.788Z</time>
      </trkpt>
      <trkpt lat="45.69579301401973" lon="17.704049684107304">
        <ele>166.22</ele>
        <time>2023-10-16T16:20:40.962Z</time>
      </trkpt>
      <trkpt lat="45.69577356800437" lon="17.70403333939612">
        <ele>166.38</ele>
        <time>2023-10-16T16:20:41.136Z</time>
      </trkpt>
      <trkpt lat="45.69575437344611" lon="17.70401774905622">
        <ele>166.53</ele>
        <time>2023-10-16T16:20:41.311Z</time>
      </trkpt>
      <trkpt lat="45.69573501124978" lon="17.70400266163051">
        <ele>166.68</ele>
        <time>2023-10-16T16:20:41.487Z</time>
      </trkpt>
      <trkpt lat="45.69571556523442" lon="17.70398799329996">
        <ele>166.83</ele>
        <time>2023-10-16T16:20:41.664Z</time>
      </trkpt>
      <trkpt lat="45.69569586776197" lon="17.703973576426506">
        <ele>166.98</ele>
        <time>2023-10-16T16:20:41.841Z</time>
      </trkpt>
      <trkpt lat="45.69567600265145" lon="17.70395915955305">
        <ele>167.13</ele>
        <time>2023-10-16T16:20:42.019Z</time>
      </trkpt>
      <trkpt lat="45.69565580226481" lon="17.7039444912225">
        <ele>167.28</ele>
        <time>2023-10-16T16:20:42.198Z</time>
      </trkpt>
      <trkpt lat="45.69563526660204" lon="17.703929487615824">
        <ele>167.43</ele>
        <time>2023-10-16T16:20:42.378Z</time>
      </trkpt>
      <trkpt lat="45.69561422802508" lon="17.703913310542703">
        <ele>167.57</ele>
        <time>2023-10-16T16:20:42.558Z</time>
      </trkpt>
      <trkpt lat="45.69559318944812" lon="17.703895792365074">
        <ele>167.72</ele>
        <time>2023-10-16T16:20:42.739Z</time>
      </trkpt>
      <trkpt lat="45.69557223469019" lon="17.703876681625843">
        <ele>167.86</ele>
        <time>2023-10-16T16:20:42.921Z</time>
      </trkpt>
      <trkpt lat="45.69555169902742" lon="17.703856397420168">
        <ele>168.0</ele>
        <time>2023-10-16T16:20:43.104Z</time>
      </trkpt>
      <trkpt lat="45.6955318339169" lon="17.703834688290954">
        <ele>168.14</ele>
        <time>2023-10-16T16:20:43.288Z</time>
      </trkpt>
      <trkpt lat="45.6955130584538" lon="17.703811889514327">
        <ele>168.28</ele>
        <time>2023-10-16T16:20:43.473Z</time>
      </trkpt>
      <trkpt lat="45.69549520500004" lon="17.703788252547383">
        <ele>168.42</ele>
        <time>2023-10-16T16:20:43.658Z</time>
      </trkpt>
      <trkpt lat="45.695478692650795" lon="17.70376419648528">
        <ele>168.56</ele>
        <time>2023-10-16T16:20:43.844Z</time>
      </trkpt>
      <trkpt lat="45.69546293467283" lon="17.703740391880274">
        <ele>168.7</ele>
        <time>2023-10-16T16:20:44.031Z</time>
      </trkpt>
      <trkpt lat="45.69544801488519" lon="17.70371776074171">
        <ele>168.83</ele>
        <time>2023-10-16T16:20:44.219Z</time>
      </trkpt>
      <trkpt lat="45.695433681830764" lon="17.70369672216475">
        <ele>168.97</ele>
        <time>2023-10-16T16:20:44.407Z</time>
      </trkpt>
      <trkpt lat="45.695420019328594" lon="17.70367811433971">
        <ele>169.1</ele>
        <time>2023-10-16T16:20:44.596Z</time>
      </trkpt>
      <trkpt lat="45.695406859740615" lon="17.703662272542715">
        <ele>169.23</ele>
        <time>2023-10-16T16:20:44.786Z</time>
      </trkpt>
      <trkpt lat="45.6953938677907" lon="17.703649029135704">
        <ele>169.37</ele>
        <time>2023-10-16T16:20:44.976Z</time>
      </trkpt>
      <trkpt lat="45.69538087584078" lon="17.703637881204486">
        <ele>169.5</ele>
        <time>2023-10-16T16:20:45.167Z</time>
      </trkpt>
      <trkpt lat="45.69536763243377" lon="17.703628912568092">
        <ele>169.63</ele>
        <time>2023-10-16T16:20:45.358Z</time>
      </trkpt>
      <trkpt lat="45.695354137569666" lon="17.70362195558846">
        <ele>169.76</ele>
        <time>2023-10-16T16:20:45.550Z</time>
      </trkpt>
      <trkpt lat="45.695340475067496" lon="17.703616758808494">
        <ele>169.89</ele>
        <time>2023-10-16T16:20:45.742Z</time>
      </trkpt>
      <trkpt lat="45.69532656110823" lon="17.70361315459013">
        <ele>170.01</ele>
        <time>2023-10-16T16:20:45.934Z</time>
      </trkpt>
      <trkpt lat="45.69531264714897" lon="17.703610556200147">
        <ele>170.14</ele>
        <time>2023-10-16T16:20:46.127Z</time>
      </trkpt>
      <trkpt lat="45.6952989846468" lon="17.703608125448227">
        <ele>170.26</ele>
        <time>2023-10-16T16:20:46.320Z</time>
      </trkpt>
      <trkpt lat="45.69528548978269" lon="17.70360527560115">
        <ele>170.39</ele>
        <time>2023-10-16T16:20:46.514Z</time>
      </trkpt>
      <trkpt lat="45.69527224637568" lon="17.70360150374472">
        <ele>170.51</ele>
        <time>2023-10-16T16:20:46.708Z</time>
      </trkpt>
      <trkpt lat="45.695259254425764" lon="17.703596390783787">
        <ele>170.64</ele>
        <time>2023-10-16T16:20:46.903Z</time>
      </trkpt>
      <trkpt lat="45.69524651393294" lon="17.70359018817544">
        <ele>170.76</ele>
        <time>2023-10-16T16:20:47.098Z</time>
      </trkpt>
      <trkpt lat="45.69523402489722" lon="17.703583063557744">
        <ele>170.89</ele>
        <time>2023-10-16T16:20:47.294Z</time>
      </trkpt>
      <trkpt lat="45.695221619680524" lon="17.7035750169307">
        <ele>171.01</ele>
        <time>2023-10-16T16:20:47.490Z</time>
      </trkpt>
      <trkpt lat="45.69520954973996" lon="17.703566467389464">
        <ele>171.14</ele>
        <time>2023-10-16T16:20:47.687Z</time>
      </trkpt>
      <trkpt lat="45.69519747979939" lon="17.703557247295976">
        <ele>171.26</ele>
        <time>2023-10-16T16:20:47.884Z</time>
      </trkpt>
      <trkpt lat="45.69518566131592" lon="17.703547356650233">
        <ele>171.39</ele>
        <time>2023-10-16T16:20:48.081Z</time>
      </trkpt>
      <trkpt lat="45.69517401047051" lon="17.703537046909332">
        <ele>171.51</ele>
        <time>2023-10-16T16:20:48.279Z</time>
      </trkpt>
      <trkpt lat="45.695162527263165" lon="17.70352615043521">
        <ele>171.64</ele>
        <time>2023-10-16T16:20:48.477Z</time>
      </trkpt>
      <trkpt lat="45.695151295512915" lon="17.703515086323023">
        <ele>171.77</ele>
        <time>2023-10-16T16:20:48.676Z</time>
      </trkpt>
      <trkpt lat="45.6951401475817" lon="17.703503938391805">
        <ele>171.89</ele>
        <time>2023-10-16T16:20:48.875Z</time>
      </trkpt>
      <trkpt lat="45.69512916728854" lon="17.70349287427962">
        <ele>172.02</ele>
        <time>2023-10-16T16:20:49.075Z</time>
      </trkpt>
      <trkpt lat="45.69511835463345" lon="17.703481977805495">
        <ele>172.15</ele>
        <time>2023-10-16T16:20:49.275Z</time>
      </trkpt>
      <trkpt lat="45.695107877254486" lon="17.70347150042653">
        <ele>172.28</ele>
        <time>2023-10-16T16:20:49.476Z</time>
      </trkpt>
      <trkpt lat="45.69509773515165" lon="17.70346119068563">
        <ele>172.41</ele>
        <time>2023-10-16T16:20:49.677Z</time>
      </trkpt>
      <trkpt lat="45.695087760686874" lon="17.703450797125697">
        <ele>172.54</ele>
        <time>2023-10-16T16:20:49.878Z</time>
      </trkpt>
      <trkpt lat="45.69507812149823" lon="17.70344015210867">
        <ele>172.67</ele>
        <time>2023-10-16T16:20:50.080Z</time>
      </trkpt>
      <trkpt lat="45.69506848230958" lon="17.703429339453578">
        <ele>172.81</ele>
        <time>2023-10-16T16:20:50.282Z</time>
      </trkpt>
      <trkpt lat="45.695058926939964" lon="17.703418107703328">
        <ele>172.94</ele>
        <time>2023-10-16T16:20:50.485Z</time>
      </trkpt>
      <trkpt lat="45.69504937157035" lon="17.703406708315015">
        <ele>173.08</ele>
        <time>2023-10-16T16:20:50.688Z</time>
      </trkpt>
      <trkpt lat="45.69503981620073" lon="17.703394973650575">
        <ele>173.21</ele>
        <time>2023-10-16T16:20:50.891Z</time>
      </trkpt>
      <trkpt lat="45.69503026083112" lon="17.70338298752904">
        <ele>173.35</ele>
        <time>2023-10-16T16:20:51.095Z</time>
      </trkpt>
      <trkpt lat="45.695020789280534" lon="17.703370917588472">
        <ele>173.49</ele>
        <time>2023-10-16T16:20:51.299Z</time>
      </trkpt>
      <trkpt lat="45.69501140154898" lon="17.703358763828874">
        <ele>173.64</ele>
        <time>2023-10-16T16:20:51.504Z</time>
      </trkpt>
      <trkpt lat="45.6950019299984" lon="17.703346023336053">
        <ele>173.78</ele>
        <time>2023-10-16T16:20:51.709Z</time>
      </trkpt>
      <trkpt lat="45.69499220699072" lon="17.703333031386137">
        <ele>173.92</ele>
        <time>2023-10-16T16:20:51.915Z</time>
      </trkpt>
      <trkpt lat="45.694982316344976" lon="17.703319787979126">
        <ele>174.07</ele>
        <time>2023-10-16T16:20:52.121Z</time>
      </trkpt>
      <trkpt lat="45.694972425699234" lon="17.703306041657925">
        <ele>174.22</ele>
        <time>2023-10-16T16:20:52.328Z</time>
      </trkpt>
      <trkpt lat="45.69496253505349" lon="17.703291960060596">
        <ele>174.37</ele>
        <time>2023-10-16T16:20:52.535Z</time>
      </trkpt>
      <trkpt lat="45.69495281204581" lon="17.70327754318714">
        <ele>174.51</ele>
        <time>2023-10-16T16:20:52.742Z</time>
      </trkpt>
      <trkpt lat="45.6949430052191" lon="17.703262707218528">
        <ele>174.67</ele>
        <time>2023-10-16T16:20:52.950Z</time>
      </trkpt>
      <trkpt lat="45.69493328221142" lon="17.703247452154756">
        <ele>174.82</ele>
        <time>2023-10-16T16:20:53.158Z</time>
      </trkpt>
      <trkpt lat="45.69492372684181" lon="17.70323211327195">
        <ele>174.97</ele>
        <time>2023-10-16T16:20:53.367Z</time>
      </trkpt>
      <trkpt lat="45.69491408765316" lon="17.703216606751084">
        <ele>175.12</ele>
        <time>2023-10-16T16:20:53.576Z</time>
      </trkpt>
      <trkpt lat="45.69490444846451" lon="17.703200848773122">
        <ele>175.28</ele>
        <time>2023-10-16T16:20:53.786Z</time>
      </trkpt>
      <trkpt lat="45.6948948930949" lon="17.703184839338064">
        <ele>175.43</ele>
        <time>2023-10-16T16:20:53.996Z</time>
      </trkpt>
      <trkpt lat="45.69488542154431" lon="17.703168746083975">
        <ele>175.59</ele>
        <time>2023-10-16T16:20:54.207Z</time>
      </trkpt>
      <trkpt lat="45.69487603381276" lon="17.70315240137279">
        <ele>175.75</ele>
        <time>2023-10-16T16:20:54.418Z</time>
      </trkpt>
      <trkpt lat="45.69486664608121" lon="17.703136056661606">
        <ele>175.9</ele>
        <time>2023-10-16T16:20:54.630Z</time>
      </trkpt>
      <trkpt lat="45.694857174530625" lon="17.70311971195042">
        <ele>176.06</ele>
        <time>2023-10-16T16:20:54.842Z</time>
      </trkpt>
      <trkpt lat="45.69484770298004" lon="17.70310345105827">
        <ele>176.22</ele>
        <time>2023-10-16T16:20:55.055Z</time>
      </trkpt>
      <trkpt lat="45.69483831524849" lon="17.703087273985147">
        <ele>176.37</ele>
        <time>2023-10-16T16:20:55.268Z</time>
      </trkpt>
      <trkpt lat="45.694828843697906" lon="17.703071180731058">
        <ele>176.53</ele>
        <time>2023-10-16T16:20:55.482Z</time>
      </trkpt>
      <trkpt lat="45.69481937214732" lon="17.70305508747697">
        <ele>176.69</ele>
        <time>2023-10-16T16:20:55.696Z</time>
      </trkpt>
      <trkpt lat="45.69480998441577" lon="17.70303907804191">
        <ele>176.84</ele>
        <time>2023-10-16T16:20:55.911Z</time>
      </trkpt>
      <trkpt lat="45.69480059668422" lon="17.703023152425885">
        <ele>177.0</ele>
        <time>2023-10-16T16:20:56.126Z</time>
      </trkpt>
      <trkpt lat="45.694791208952665" lon="17.703007394447923">
        <ele>177.16</ele>
        <time>2023-10-16T16:20:56.342Z</time>
      </trkpt>
      <trkpt lat="45.694781905040145" lon="17.70299163646996">
        <ele>177.31</ele>
        <time>2023-10-16T16:20:56.558Z</time>
      </trkpt>
      <trkpt lat="45.694772601127625" lon="17.70297604613006">
        <ele>177.47</ele>
        <time>2023-10-16T16:20:56.775Z</time>
      </trkpt>
      <trkpt lat="45.694763297215104" lon="17.702960539609194">
        <ele>177.62</ele>
        <time>2023-10-16T16:20:56.992Z</time>
      </trkpt>
      <trkpt lat="45.694754077121615" lon="17.70294520072639">
        <ele>177.78</ele>
        <time>2023-10-16T16:20:57.210Z</time>
      </trkpt>
      <trkpt lat="45.69474485702813" lon="17.702929861843586">
        <ele>177.93</ele>
        <time>2023-10-16T16:20:57.428Z</time>
      </trkpt>
      <trkpt lat="45.69473588839173" lon="17.70291494205594">
        <ele>178.09</ele>
        <time>2023-10-16T16:20:57.647Z</time>
      </trkpt>
      <trkpt lat="45.69472700357437" lon="17.70290018990636">
        <ele>178.24</ele>
        <time>2023-10-16T16:20:57.866Z</time>
      </trkpt>
      <trkpt lat="45.69471811875701" lon="17.702885437756777">
        <ele>178.39</ele>
        <time>2023-10-16T16:20:58.086Z</time>
      </trkpt>
      <trkpt lat="45.69470923393965" lon="17.702870601788163">
        <ele>178.54</ele>
        <time>2023-10-16T16:20:58.306Z</time>
      </trkpt>
      <trkpt lat="45.694700265303254" lon="17.702855598181486">
        <ele>178.69</ele>
        <time>2023-10-16T16:20:58.526Z</time>
      </trkpt>
      <trkpt lat="45.69469129666686" lon="17.70284067839384">
        <ele>178.84</ele>
        <time>2023-10-16T16:20:58.747Z</time>
      </trkpt>
      <trkpt lat="45.694682244211435" lon="17.702825758606195">
        <ele>178.99</ele>
        <time>2023-10-16T16:20:58.968Z</time>
      </trkpt>
      <trkpt lat="45.69467310793698" lon="17.702810922637582">
        <ele>179.14</ele>
        <time>2023-10-16T16:20:59.190Z</time>
      </trkpt>
      <trkpt lat="45.69466380402446" lon="17.702796170488">
        <ele>179.28</ele>
        <time>2023-10-16T16:20:59.412Z</time>
      </trkpt>
      <trkpt lat="45.694654416292906" lon="17.70278150215745">
        <ele>179.43</ele>
        <time>2023-10-16T16:20:59.635Z</time>
      </trkpt>
      <trkpt lat="45.694645112380385" lon="17.7027668338269">
        <ele>179.57</ele>
        <time>2023-10-16T16:20:59.858Z</time>
      </trkpt>
      <trkpt lat="45.69463555701077" lon="17.702751997858286">
        <ele>179.71</ele>
        <time>2023-10-16T16:21:00.082Z</time>
      </trkpt>
      <trkpt lat="45.69462591782212" lon="17.702737161889672">
        <ele>179.85</ele>
        <time>2023-10-16T16:21:00.306Z</time>
      </trkpt>
      <trkpt lat="45.694616194814444" lon="17.70272240974009">
        <ele>179.99</ele>
        <time>2023-10-16T16:21:00.531Z</time>
      </trkpt>
      <trkpt lat="45.69460638798773" lon="17.70270774140954">
        <ele>180.13</ele>
        <time>2023-10-16T16:21:00.756Z</time>
      </trkpt>
      <trkpt lat="45.694596664980054" lon="17.702693324536085">
        <ele>180.26</ele>
        <time>2023-10-16T16:21:00.982Z</time>
      </trkpt>
      <trkpt lat="45.69458677433431" lon="17.7026788238436">
        <ele>180.4</ele>
        <time>2023-10-16T16:21:01.208Z</time>
      </trkpt>
      <trkpt lat="45.69457688368857" lon="17.70266432315111">
        <ele>180.53</ele>
        <time>2023-10-16T16:21:01.435Z</time>
      </trkpt>
      <trkpt lat="45.69456699304283" lon="17.702649906277657">
        <ele>180.66</ele>
        <time>2023-10-16T16:21:01.662Z</time>
      </trkpt>
      <trkpt lat="45.69455735385418" lon="17.702635657042265">
        <ele>180.79</ele>
        <time>2023-10-16T16:21:01.889Z</time>
      </trkpt>
      <trkpt lat="45.6945476308465" lon="17.702621491625905">
        <ele>180.92</ele>
        <time>2023-10-16T16:21:02.117Z</time>
      </trkpt>
      <trkpt lat="45.69453790783882" lon="17.70260749384761">
        <ele>181.05</ele>
        <time>2023-10-16T16:21:02.345Z</time>
      </trkpt>
      <trkpt lat="45.69452810101211" lon="17.702593747526407">
        <ele>181.17</ele>
        <time>2023-10-16T16:21:02.574Z</time>
      </trkpt>
      <trkpt lat="45.69451821036637" lon="17.70258016884327">
        <ele>181.3</ele>
        <time>2023-10-16T16:21:02.803Z</time>
      </trkpt>
      <trkpt lat="45.694508235901594" lon="17.70256692543626">
        <ele>181.42</ele>
        <time>2023-10-16T16:21:03.033Z</time>
      </trkpt>
      <trkpt lat="45.69449834525585" lon="17.70255384966731">
        <ele>181.54</ele>
        <time>2023-10-16T16:21:03.263Z</time>
      </trkpt>
      <trkpt lat="45.69448853842914" lon="17.702540773898363">
        <ele>181.66</ele>
        <time>2023-10-16T16:21:03.494Z</time>
      </trkpt>
      <trkpt lat="45.69447873160243" lon="17.702527614310384">
        <ele>181.77</ele>
        <time>2023-10-16T16:21:03.725Z</time>
      </trkpt>
      <trkpt lat="45.694469176232815" lon="17.702514370903373">
        <ele>181.89</ele>
        <time>2023-10-16T16:21:03.957Z</time>
      </trkpt>
      <trkpt lat="45.69445978850126" lon="17.702500876039267">
        <ele>182.0</ele>
        <time>2023-10-16T16:21:04.189Z</time>
      </trkpt>
      <trkpt lat="45.69445040076971" lon="17.70248679444194">
        <ele>182.12</ele>
        <time>2023-10-16T16:21:04.421Z</time>
      </trkpt>
      <trkpt lat="45.694441348314285" lon="17.702472042292356">
        <ele>182.23</ele>
        <time>2023-10-16T16:21:04.654Z</time>
      </trkpt>
      <trkpt lat="45.694432547315955" lon="17.702456200495362">
        <ele>182.34</ele>
        <time>2023-10-16T16:21:04.887Z</time>
      </trkpt>
      <trkpt lat="45.69442408159375" lon="17.702439185231924">
        <ele>182.44</ele>
        <time>2023-10-16T16:21:05.121Z</time>
      </trkpt>
      <trkpt lat="45.694415867328644" lon="17.70242091268301">
        <ele>182.55</ele>
        <time>2023-10-16T16:21:05.355Z</time>
      </trkpt>
      <trkpt lat="45.6944078207016" lon="17.702401466667652">
        <ele>182.65</ele>
        <time>2023-10-16T16:21:05.590Z</time>
      </trkpt>
      <trkpt lat="45.694399774074554" lon="17.702381182461977">
        <ele>182.75</ele>
        <time>2023-10-16T16:21:05.825Z</time>
      </trkpt>
      <trkpt lat="45.69439172744751" lon="17.702360562980175">
        <ele>182.86</ele>
        <time>2023-10-16T16:21:06.061Z</time>
      </trkpt>
      <trkpt lat="45.6943837646395" lon="17.702340194955468">
        <ele>182.95</ele>
        <time>2023-10-16T16:21:06.298Z</time>
      </trkpt>
      <trkpt lat="45.69437563419342" lon="17.70232032984495">
        <ele>183.05</ele>
        <time>2023-10-16T16:21:06.535Z</time>
      </trkpt>
      <trkpt lat="45.69436741992831" lon="17.702301302924752">
        <ele>183.15</ele>
        <time>2023-10-16T16:21:06.773Z</time>
      </trkpt>
      <trkpt lat="45.69435895420611" lon="17.7022831980139">
        <ele>183.24</ele>
        <time>2023-10-16T16:21:07.011Z</time>
      </trkpt>
      <trkpt lat="45.69435032084584" lon="17.702266350388527">
        <ele>183.33</ele>
        <time>2023-10-16T16:21:07.250Z</time>
      </trkpt>
      <trkpt lat="45.69434143602848" lon="17.70225084386766">
        <ele>183.42</ele>
        <time>2023-10-16T16:21:07.489Z</time>
      </trkpt>
      <trkpt lat="45.69433246739209" lon="17.702236510813236">
        <ele>183.5</ele>
        <time>2023-10-16T16:21:07.729Z</time>
      </trkpt>
      <trkpt lat="45.69432341493666" lon="17.702223351225257">
        <ele>183.59</ele>
        <time>2023-10-16T16:21:07.969Z</time>
      </trkpt>
      <trkpt lat="45.69431444630027" lon="17.702211113646626">
        <ele>183.67</ele>
        <time>2023-10-16T16:21:08.209Z</time>
      </trkpt>
      <trkpt lat="45.694305477663875" lon="17.702199211344123">
        <ele>183.75</ele>
        <time>2023-10-16T16:21:08.450Z</time>
      </trkpt>
      <trkpt lat="45.694296760484576" lon="17.702187560498714">
        <ele>183.83</ele>
        <time>2023-10-16T16:21:08.691Z</time>
      </trkpt>
      <trkpt lat="45.69428804330528" lon="17.702175490558147">
        <ele>183.9</ele>
        <time>2023-10-16T16:21:08.933Z</time>
      </trkpt>
      <trkpt lat="45.694279577583075" lon="17.702162750065327">
        <ele>183.98</ele>
        <time>2023-10-16T16:21:09.175Z</time>
      </trkpt>
      <trkpt lat="45.694271279498935" lon="17.702149506658316">
        <ele>184.05</ele>
        <time>2023-10-16T16:21:09.417Z</time>
      </trkpt>
      <trkpt lat="45.69426323287189" lon="17.702135760337114">
        <ele>184.12</ele>
        <time>2023-10-16T16:21:09.660Z</time>
      </trkpt>
      <trkpt lat="45.69425527006388" lon="17.702121762558818">
        <ele>184.19</ele>
        <time>2023-10-16T16:21:09.903Z</time>
      </trkpt>
      <trkpt lat="45.694247391074896" lon="17.702107513323426">
        <ele>184.26</ele>
        <time>2023-10-16T16:21:10.147Z</time>
      </trkpt>
      <trkpt lat="45.694239512085915" lon="17.702093264088035">
        <ele>184.32</ele>
        <time>2023-10-16T16:21:10.391Z</time>
      </trkpt>
      <trkpt lat="45.69423138163984" lon="17.702079182490706">
        <ele>184.39</ele>
        <time>2023-10-16T16:21:10.636Z</time>
      </trkpt>
      <trkpt lat="45.6942228320986" lon="17.702065352350473">
        <ele>184.45</ele>
        <time>2023-10-16T16:21:10.881Z</time>
      </trkpt>
      <trkpt lat="45.69421386346221" lon="17.70205202512443">
        <ele>184.51</ele>
        <time>2023-10-16T16:21:11.126Z</time>
      </trkpt>
      <trkpt lat="45.694204391911626" lon="17.702039200812578">
        <ele>184.57</ele>
        <time>2023-10-16T16:21:11.372Z</time>
      </trkpt>
      <trkpt lat="45.69419416598976" lon="17.70202754996717">
        <ele>184.63</ele>
        <time>2023-10-16T16:21:11.618Z</time>
      </trkpt>
      <trkpt lat="45.69418293423951" lon="17.702017491683364">
        <ele>184.68</ele>
        <time>2023-10-16T16:21:11.865Z</time>
      </trkpt>
      <trkpt lat="45.69417044520378" lon="17.702009193599224">
        <ele>184.74</ele>
        <time>2023-10-16T16:21:12.112Z</time>
      </trkpt>
      <trkpt lat="45.694156531244516" lon="17.702002907171845">
        <ele>184.79</ele>
        <time>2023-10-16T16:21:12.360Z</time>
      </trkpt>
      <trkpt lat="45.694141359999776" lon="17.701998464763165">
        <ele>184.84</ele>
        <time>2023-10-16T16:21:12.608Z</time>
      </trkpt>
      <trkpt lat="45.69412501528859" lon="17.70199628546834">
        <ele>184.9</ele>
        <time>2023-10-16T16:21:12.857Z</time>
      </trkpt>
      <trkpt lat="45.69410724565387" lon="17.701996201649308">
        <ele>184.95</ele>
        <time>2023-10-16T16:21:13.106Z</time>
      </trkpt>
      <trkpt lat="45.69408821873367" lon="17.7019982971251">
        <ele>184.99</ele>
        <time>2023-10-16T16:21:13.356Z</time>
      </trkpt>
      <trkpt lat="45.69406810216606" lon="17.702002404257655">
        <ele>185.04</ele>
        <time>2023-10-16T16:21:13.607Z</time>
      </trkpt>
      <trkpt lat="45.69404739886522" lon="17.702008355408907">
        <ele>185.09</ele>
        <time>2023-10-16T16:21:13.858Z</time>
      </trkpt>
      <trkpt lat="45.69402577355504" lon="17.70201589912176">
        <ele>185.14</ele>
        <time>2023-10-16T16:21:14.110Z</time>
      </trkpt>
      <trkpt lat="45.69400331005454" lon="17.702024448662996">
        <ele>185.18</ele>
        <time>2023-10-16T16:21:14.363Z</time>
      </trkpt>
      <trkpt lat="45.693980092182755" lon="17.70203350111842">
        <ele>185.22</ele>
        <time>2023-10-16T16:21:14.617Z</time>
      </trkpt>
      <trkpt lat="45.69395645521581" lon="17.70204272121191">
        <ele>185.26</ele>
        <time>2023-10-16T16:21:14.871Z</time>
      </trkpt>
      <trkpt lat="45.693932231515646" lon="17.702051606029272">
        <ele>185.3</ele>
        <time>2023-10-16T16:21:15.126Z</time>
      </trkpt>
      <trkpt lat="45.693907756358385" lon="17.702060155570507">
        <ele>185.34</ele>
        <time>2023-10-16T16:21:15.382Z</time>
      </trkpt>
      <trkpt lat="45.693882778286934" lon="17.70206803455949">
        <ele>185.37</ele>
        <time>2023-10-16T16:21:15.639Z</time>
      </trkpt>
      <trkpt lat="45.693857967853546" lon="17.702075159177184">
        <ele>185.4</ele>
        <time>2023-10-16T16:21:15.897Z</time>
      </trkpt>
      <trkpt lat="45.69383307360113" lon="17.702081697061658">
        <ele>185.43</ele>
        <time>2023-10-16T16:21:16.156Z</time>
      </trkpt>
      <trkpt lat="45.69380826316774" lon="17.702087815850973">
        <ele>185.45</ele>
        <time>2023-10-16T16:21:16.416Z</time>
      </trkpt>
      <trkpt lat="45.69378345273435" lon="17.70209359936416">
        <ele>185.48</ele>
        <time>2023-10-16T16:21:16.676Z</time>
      </trkpt>
      <trkpt lat="45.69375880993903" lon="17.702099215239286">
        <ele>185.5</ele>
        <time>2023-10-16T16:21:16.937Z</time>
      </trkpt>
      <trkpt lat="45.69373450241983" lon="17.70210474729538">
        <ele>185.52</ele>
        <time>2023-10-16T16:21:17.199Z</time>
      </trkpt>
      <trkpt lat="45.69371069781482" lon="17.7021106146276">
        <ele>185.54</ele>
        <time>2023-10-16T16:21:17.462Z</time>
      </trkpt>
      <trkpt lat="45.6936876475811" lon="17.702116817235947">
        <ele>185.56</ele>
        <time>2023-10-16T16:21:17.726Z</time>
      </trkpt>
      <trkpt lat="45.693665435537696" lon="17.702123103663325">
        <ele>185.58</ele>
        <time>2023-10-16T16:21:17.990Z</time>
      </trkpt>
      <trkpt lat="45.69364364258945" lon="17.702129473909736">
        <ele>185.6</ele>
        <time>2023-10-16T16:21:18.255Z</time>
      </trkpt>
      <trkpt lat="45.69362226873636" lon="17.702135760337114">
        <ele>185.61</ele>
        <time>2023-10-16T16:21:18.521Z</time>
      </trkpt>
      <trkpt lat="45.69360106252134" lon="17.702141795307398">
        <ele>185.63</ele>
        <time>2023-10-16T16:21:18.788Z</time>
      </trkpt>
      <trkpt lat="45.69358027540147" lon="17.702146992087364">
        <ele>185.64</ele>
        <time>2023-10-16T16:21:19.055Z</time>
      </trkpt>
      <trkpt lat="45.69355965591967" lon="17.702151350677013">
        <ele>185.64</ele>
        <time>2023-10-16T16:21:19.323Z</time>
      </trkpt>
      <trkpt lat="45.69353903643787" lon="17.702154703438282">
        <ele>185.65</ele>
        <time>2023-10-16T16:21:19.592Z</time>
      </trkpt>
      <trkpt lat="45.693518249318004" lon="17.702156882733107">
        <ele>185.65</ele>
        <time>2023-10-16T16:21:19.861Z</time>
      </trkpt>
      <trkpt lat="45.69349754601717" lon="17.702157637104392">
        <ele>185.65</ele>
        <time>2023-10-16T16:21:20.131Z</time>
      </trkpt>
      <trkpt lat="45.69347667507827" lon="17.70215696655214">
        <ele>185.64</ele>
        <time>2023-10-16T16:21:20.402Z</time>
      </trkpt>
      <trkpt lat="45.69345546886325" lon="17.70215503871441">
        <ele>185.64</ele>
        <time>2023-10-16T16:21:20.673Z</time>
      </trkpt>
      <trkpt lat="45.6934339273721" lon="17.7021521050483">
        <ele>185.63</ele>
        <time>2023-10-16T16:21:20.945Z</time>
      </trkpt>
      <trkpt lat="45.69341238588095" lon="17.702148165553808">
        <ele>185.61</ele>
        <time>2023-10-16T16:21:21.218Z</time>
      </trkpt>
      <trkpt lat="45.69339067675173" lon="17.702143639326096">
        <ele>185.6</ele>
        <time>2023-10-16T16:21:21.492Z</time>
      </trkpt>
      <trkpt lat="45.69336888380349" lon="17.70213844254613">
        <ele>185.58</ele>
        <time>2023-10-16T16:21:21.766Z</time>
      </trkpt>
      <trkpt lat="45.69334700703621" lon="17.702132994309068">
        <ele>185.56</ele>
        <time>2023-10-16T16:21:22.041Z</time>
      </trkpt>
      <trkpt lat="45.69332496263087" lon="17.70212729461491">
        <ele>185.54</ele>
        <time>2023-10-16T16:21:22.317Z</time>
      </trkpt>
      <trkpt lat="45.69330291822553" lon="17.702121511101723">
        <ele>185.51</ele>
        <time>2023-10-16T16:21:22.594Z</time>
      </trkpt>
      <trkpt lat="45.69328070618212" lon="17.70211547613144">
        <ele>185.48</ele>
        <time>2023-10-16T16:21:22.871Z</time>
      </trkpt>
      <trkpt lat="45.69325857795775" lon="17.702109273523092">
        <ele>185.45</ele>
        <time>2023-10-16T16:21:23.149Z</time>
      </trkpt>
      <trkpt lat="45.693236365914345" lon="17.702102484181523">
        <ele>185.41</ele>
        <time>2023-10-16T16:21:23.428Z</time>
      </trkpt>
      <trkpt lat="45.693214405328035" lon="17.70209494046867">
        <ele>185.37</ele>
        <time>2023-10-16T16:21:23.708Z</time>
      </trkpt>
      <trkpt lat="45.69319252856076" lon="17.70208613947034">
        <ele>185.33</ele>
        <time>2023-10-16T16:21:23.988Z</time>
      </trkpt>
      <trkpt lat="45.693170903250575" lon="17.70207591354847">
        <ele>185.28</ele>
        <time>2023-10-16T16:21:24.269Z</time>
      </trkpt>
      <trkpt lat="45.693149445578456" lon="17.702064095064998">
        <ele>185.23</ele>
        <time>2023-10-16T16:21:24.551Z</time>
      </trkpt>
      <trkpt lat="45.693128407001495" lon="17.702050851657987">
        <ele>185.18</ele>
        <time>2023-10-16T16:21:24.834Z</time>
      </trkpt>
      <trkpt lat="45.69310770370066" lon="17.702036099508405">
        <ele>185.12</ele>
        <time>2023-10-16T16:21:25.117Z</time>
      </trkpt>
      <trkpt lat="45.69308716803789" lon="17.702019922435284">
        <ele>185.06</ele>
        <time>2023-10-16T16:21:25.401Z</time>
      </trkpt>
      <trkpt lat="45.693066883832216" lon="17.702002404257655">
        <ele>185.0</ele>
        <time>2023-10-16T16:21:25.686Z</time>
      </trkpt>
      <trkpt lat="45.69304693490267" lon="17.701983712613583">
        <ele>184.93</ele>
        <time>2023-10-16T16:21:25.972Z</time>
      </trkpt>
      <trkpt lat="45.693027237430215" lon="17.70196409896016">
        <ele>184.87</ele>
        <time>2023-10-16T16:21:26.259Z</time>
      </trkpt>
      <trkpt lat="45.69300753995776" lon="17.701943647116423">
        <ele>184.79</ele>
        <time>2023-10-16T16:21:26.546Z</time>
      </trkpt>
      <trkpt lat="45.69298775866628" lon="17.70192252472043">
        <ele>184.72</ele>
        <time>2023-10-16T16:21:26.834Z</time>
      </trkpt>
      <trkpt lat="45.692968061193824" lon="17.701901402324438">
        <ele>184.64</ele>
        <time>2023-10-16T16:21:27.123Z</time>
      </trkpt>
      <trkpt lat="45.69294819608331" lon="17.70188053138554">
        <ele>184.55</ele>
        <time>2023-10-16T16:21:27.413Z</time>
      </trkpt>
      <trkpt lat="45.69292824715376" lon="17.701860163360834">
        <ele>184.47</ele>
        <time>2023-10-16T16:21:27.704Z</time>
      </trkpt>
      <trkpt lat="45.692907962948084" lon="17.701840130612254">
        <ele>184.38</ele>
        <time>2023-10-16T16:21:27.995Z</time>
      </trkpt>
      <trkpt lat="45.692887511104345" lon="17.7018204331398">
        <ele>184.29</ele>
        <time>2023-10-16T16:21:28.287Z</time>
      </trkpt>
      <trkpt lat="45.69286705926061" lon="17.701801070943475">
        <ele>184.19</ele>
        <time>2023-10-16T16:21:28.580Z</time>
      </trkpt>
      <trkpt lat="45.69284677505493" lon="17.701781876385212">
        <ele>184.09</ele>
        <time>2023-10-16T16:21:28.874Z</time>
      </trkpt>
      <trkpt lat="45.692826407030225" lon="17.70176276564598">
        <ele>183.99</ele>
        <time>2023-10-16T16:21:29.169Z</time>
      </trkpt>
      <trkpt lat="45.692805955186486" lon="17.70174323581159">
        <ele>183.88</ele>
        <time>2023-10-16T16:21:29.465Z</time>
      </trkpt>
      <trkpt lat="45.692785419523716" lon="17.701723538339138">
        <ele>183.77</ele>
        <time>2023-10-16T16:21:29.761Z</time>
      </trkpt>
      <trkpt lat="45.692764800041914" lon="17.70170358940959">
        <ele>183.65</ele>
        <time>2023-10-16T16:21:30.058Z</time>
      </trkpt>
      <trkpt lat="45.69274418056011" lon="17.701682969927788">
        <ele>183.53</ele>
        <time>2023-10-16T16:21:30.356Z</time>
      </trkpt>
      <trkpt lat="45.69272322580218" lon="17.701661344617605">
        <ele>183.41</ele>
        <time>2023-10-16T16:21:30.655Z</time>
      </trkpt>
      <trkpt lat="45.69270218722522" lon="17.701638462021947">
        <ele>183.28</ele>
        <time>2023-10-16T16:21:30.955Z</time>
      </trkpt>
      <trkpt lat="45.69268106482923" lon="17.701614489778876">
        <ele>183.15</ele>
        <time>2023-10-16T16:21:31.256Z</time>
      </trkpt>
      <trkpt lat="45.692659858614206" lon="17.701589511707425">
        <ele>183.02</ele>
        <time>2023-10-16T16:21:31.558Z</time>
      </trkpt>
      <trkpt lat="45.69263840094209" lon="17.701563611626625">
        <ele>182.89</ele>
        <time>2023-10-16T16:21:31.861Z</time>
      </trkpt>
      <trkpt lat="45.692616356536746" lon="17.70153704099357">
        <ele>182.76</ele>
        <time>2023-10-16T16:21:32.165Z</time>
      </trkpt>
      <trkpt lat="45.69259397685528" lon="17.701509883627295">
        <ele>182.62</ele>
        <time>2023-10-16T16:21:32.470Z</time>
      </trkpt>
      <trkpt lat="45.69257159717381" lon="17.701482474803925">
        <ele>182.49</ele>
        <time>2023-10-16T16:21:32.775Z</time>
      </trkpt>
      <trkpt lat="45.69254913367331" lon="17.70145489834249">
        <ele>182.35</ele>
        <time>2023-10-16T16:21:33.081Z</time>
      </trkpt>
      <trkpt lat="45.692526921629906" lon="17.701427154242992">
        <ele>182.21</ele>
        <time>2023-10-16T16:21:33.388Z</time>
      </trkpt>
      <trkpt lat="45.69250462576747" lon="17.70139924250543">
        <ele>182.08</ele>
        <time>2023-10-16T16:21:33.696Z</time>
      </trkpt>
      <trkpt lat="45.69248258136213" lon="17.701371666043997">
        <ele>181.94</ele>
        <time>2023-10-16T16:21:34.005Z</time>
      </trkpt>
      <trkpt lat="45.69246062077582" lon="17.701345095410943">
        <ele>181.81</ele>
        <time>2023-10-16T16:21:34.315Z</time>
      </trkpt>
      <trkpt lat="45.69243857637048" lon="17.7013196144253">
        <ele>181.67</ele>
        <time>2023-10-16T16:21:34.626Z</time>
      </trkpt>
      <trkpt lat="45.69241653196514" lon="17.7012955583632">
        <ele>181.54</ele>
        <time>2023-10-16T16:21:34.938Z</time>
      </trkpt>
      <trkpt lat="45.692394487559795" lon="17.701272927224636">
        <ele>181.41</ele>
        <time>2023-10-16T16:21:35.251Z</time>
      </trkpt>
      <trkpt lat="45.692372526973486" lon="17.70125155337155">
        <ele>181.27</ele>
        <time>2023-10-16T16:21:35.565Z</time>
      </trkpt>
      <trkpt lat="45.69235073402524" lon="17.701231436803937">
        <ele>181.14</ele>
        <time>2023-10-16T16:21:35.880Z</time>
      </trkpt>
      <trkpt lat="45.692328941076994" lon="17.70121249370277">
        <ele>181.02</ele>
        <time>2023-10-16T16:21:36.196Z</time>
      </trkpt>
      <trkpt lat="45.69230689667165" lon="17.701194807887077">
        <ele>180.89</ele>
        <time>2023-10-16T16:21:36.513Z</time>
      </trkpt>
      <trkpt lat="45.692284516990185" lon="17.70117829553783">
        <ele>180.76</ele>
        <time>2023-10-16T16:21:36.830Z</time>
      </trkpt>
      <trkpt lat="45.69226188585162" lon="17.701162872835994">
        <ele>180.64</ele>
        <time>2023-10-16T16:21:37.148Z</time>
      </trkpt>
      <trkpt lat="45.69223900325596" lon="17.701148288324475">
        <ele>180.52</ele>
        <time>2023-10-16T16:21:37.467Z</time>
      </trkpt>
      <trkpt lat="45.69221578538418" lon="17.701134039089084">
        <ele>180.4</ele>
        <time>2023-10-16T16:21:37.787Z</time>
      </trkpt>
      <trkpt lat="45.6921923160553" lon="17.70111962221563">
        <ele>180.29</ele>
        <time>2023-10-16T16:21:38.108Z</time>
      </trkpt>
      <trkpt lat="45.692168762907386" lon="17.701105121523142">
        <ele>180.17</ele>
        <time>2023-10-16T16:21:38.430Z</time>
      </trkpt>
      <trkpt lat="45.692145209759474" lon="17.70109045319259">
        <ele>180.06</ele>
        <time>2023-10-16T16:21:38.753Z</time>
      </trkpt>
      <trkpt lat="45.69212157279253" lon="17.70107528194785">
        <ele>179.96</ele>
        <time>2023-10-16T16:21:39.076Z</time>
      </trkpt>
      <trkpt lat="45.692097935825586" lon="17.70105960778892">
        <ele>179.86</ele>
        <time>2023-10-16T16:21:39.400Z</time>
      </trkpt>
      <trkpt lat="45.69207421503961" lon="17.7010434307158">
        <ele>179.76</ele>
        <time>2023-10-16T16:21:39.725Z</time>
      </trkpt>
      <trkpt lat="45.69205074571073" lon="17.701026666909456">
        <ele>179.67</ele>
        <time>2023-10-16T16:21:40.051Z</time>
      </trkpt>
      <trkpt lat="45.692027444019914" lon="17.701009484007955">
        <ele>179.58</ele>
        <time>2023-10-16T16:21:40.378Z</time>
      </trkpt>
      <trkpt lat="45.69200439378619" lon="17.700992049649358">
        <ele>179.49</ele>
        <time>2023-10-16T16:21:40.706Z</time>
      </trkpt>
      <trkpt lat="45.691981511190534" lon="17.700974699109793">
        <ele>179.41</ele>
        <time>2023-10-16T16:21:41.035Z</time>
      </trkpt>
      <trkpt lat="45.691959131509066" lon="17.70095751620829">
        <ele>179.34</ele>
        <time>2023-10-16T16:21:41.364Z</time>
      </trkpt>
      <trkpt lat="45.69193725474179" lon="17.700940584763885">
        <ele>179.27</ele>
        <time>2023-10-16T16:21:41.694Z</time>
      </trkpt>
      <trkpt lat="45.691915545612574" lon="17.700923569500446">
        <ele>179.21</ele>
        <time>2023-10-16T16:21:42.025Z</time>
      </trkpt>
      <trkpt lat="45.69189392030239" lon="17.700906554237008">
        <ele>179.16</ele>
        <time>2023-10-16T16:21:42.357Z</time>
      </trkpt>
      <trkpt lat="45.69187237881124" lon="17.70088953897357">
        <ele>179.11</ele>
        <time>2023-10-16T16:21:42.690Z</time>
      </trkpt>
      <trkpt lat="45.69185050204396" lon="17.70087252371013">
        <ele>179.06</ele>
        <time>2023-10-16T16:21:43.024Z</time>
      </trkpt>
      <trkpt lat="45.69182837381959" lon="17.700855592265725">
        <ele>179.02</ele>
        <time>2023-10-16T16:21:43.358Z</time>
      </trkpt>
      <trkpt lat="45.691806161776185" lon="17.70083866082132">
        <ele>178.99</ele>
        <time>2023-10-16T16:21:43.693Z</time>
      </trkpt>
      <trkpt lat="45.69178378209472" lon="17.700821813195944">
        <ele>178.97</ele>
        <time>2023-10-16T16:21:44.029Z</time>
      </trkpt>
      <trkpt lat="45.69176148623228" lon="17.70080496557057">
        <ele>178.95</ele>
        <time>2023-10-16T16:21:44.366Z</time>
      </trkpt>
      <trkpt lat="45.69173910655081" lon="17.7007878664881">
        <ele>178.94</ele>
        <time>2023-10-16T16:21:44.704Z</time>
      </trkpt>
      <trkpt lat="45.69171664305031" lon="17.700770515948534">
        <ele>178.94</ele>
        <time>2023-10-16T16:21:45.043Z</time>
      </trkpt>
      <trkpt lat="45.69169401191175" lon="17.700752997770905">
        <ele>178.94</ele>
        <time>2023-10-16T16:21:45.383Z</time>
      </trkpt>
      <trkpt lat="45.69167171604931" lon="17.700735479593277">
        <ele>178.96</ele>
        <time>2023-10-16T16:21:45.723Z</time>
      </trkpt>
      <trkpt lat="45.691649755463004" lon="17.700717793777585">
        <ele>178.98</ele>
        <time>2023-10-16T16:21:46.064Z</time>
      </trkpt>
      <trkpt lat="45.69162813015282" lon="17.700699856504798">
        <ele>179.01</ele>
        <time>2023-10-16T16:21:46.406Z</time>
      </trkpt>
      <trkpt lat="45.691607259213924" lon="17.700681751593947">
        <ele>179.04</ele>
        <time>2023-10-16T16:21:46.749Z</time>
      </trkpt>
      <trkpt lat="45.69158689118922" lon="17.70066331140697">
        <ele>179.09</ele>
        <time>2023-10-16T16:21:47.093Z</time>
      </trkpt>
      <trkpt lat="45.69156694225967" lon="17.700644619762897">
        <ele>179.14</ele>
        <time>2023-10-16T16:21:47.437Z</time>
      </trkpt>
      <trkpt lat="45.69154732860625" lon="17.70062567666173">
        <ele>179.19</ele>
        <time>2023-10-16T16:21:47.782Z</time>
      </trkpt>
      <trkpt lat="45.691527631133795" lon="17.700606482103467">
        <ele>179.26</ele>
        <time>2023-10-16T16:21:48.128Z</time>
      </trkpt>
      <trkpt lat="45.69150801748037" lon="17.70058711990714">
        <ele>179.33</ele>
        <time>2023-10-16T16:21:48.475Z</time>
      </trkpt>
      <trkpt lat="45.69148840382695" lon="17.700567673891783">
        <ele>179.42</ele>
        <time>2023-10-16T16:21:48.823Z</time>
      </trkpt>
      <trkpt lat="45.6914687063545" lon="17.700548311695457">
        <ele>179.51</ele>
        <time>2023-10-16T16:21:49.171Z</time>
      </trkpt>
      <trkpt lat="45.691448925063014" lon="17.70052894949913">
        <ele>179.6</ele>
        <time>2023-10-16T16:21:49.520Z</time>
      </trkpt>
      <trkpt lat="45.691428976133466" lon="17.70050992257893">
        <ele>179.71</ele>
        <time>2023-10-16T16:21:49.870Z</time>
      </trkpt>
      <trkpt lat="45.69140869192779" lon="17.70049139857292">
        <ele>179.82</ele>
        <time>2023-10-16T16:21:50.221Z</time>
      </trkpt>
      <trkpt lat="45.69138824008405" lon="17.700473461300135">
        <ele>179.94</ele>
        <time>2023-10-16T16:21:50.573Z</time>
      </trkpt>
      <trkpt lat="45.69136762060225" lon="17.700456026941538">
        <ele>180.06</ele>
        <time>2023-10-16T16:21:50.925Z</time>
      </trkpt>
      <trkpt lat="45.69134700112045" lon="17.7004390116781">
        <ele>180.19</ele>
        <time>2023-10-16T16:21:51.278Z</time>
      </trkpt>
      <trkpt lat="45.69132621400058" lon="17.70042233169079">
        <ele>180.33</ele>
        <time>2023-10-16T16:21:51.632Z</time>
      </trkpt>
      <trkpt lat="45.69130559451878" lon="17.700405903160572">
        <ele>180.47</ele>
        <time>2023-10-16T16:21:51.987Z</time>
      </trkpt>
      <trkpt lat="45.69128514267504" lon="17.700389558449388">
        <ele>180.62</ele>
        <time>2023-10-16T16:21:52.343Z</time>
      </trkpt>
      <trkpt lat="45.691264774650335" lon="17.700373213738203">
        <ele>180.78</ele>
        <time>2023-10-16T16:21:52.699Z</time>
      </trkpt>
      <trkpt lat="45.69124449044466" lon="17.700356701388955">
        <ele>180.94</ele>
        <time>2023-10-16T16:21:53.056Z</time>
      </trkpt>
      <trkpt lat="45.691224206238985" lon="17.700340021401644">
        <ele>181.11</ele>
        <time>2023-10-16T16:21:53.414Z</time>
      </trkpt>
      <trkpt lat="45.69120400585234" lon="17.700323089957237">
        <ele>181.28</ele>
        <time>2023-10-16T16:21:53.773Z</time>
      </trkpt>
      <trkpt lat="45.6911838054657" lon="17.700305823236704">
        <ele>181.45</ele>
        <time>2023-10-16T16:21:54.133Z</time>
      </trkpt>
      <trkpt lat="45.69116368889809" lon="17.70028847269714">
        <ele>181.63</ele>
        <time>2023-10-16T16:21:54.493Z</time>
      </trkpt>
      <trkpt lat="45.69114348851144" lon="17.700271205976605">
        <ele>181.82</ele>
        <time>2023-10-16T16:21:54.854Z</time>
      </trkpt>
      <trkpt lat="45.691123539581895" lon="17.700254023075104">
        <ele>182.01</ele>
        <time>2023-10-16T16:21:55.216Z</time>
      </trkpt>
      <trkpt lat="45.69110384210944" lon="17.70023725926876">
        <ele>182.2</ele>
        <time>2023-10-16T16:21:55.579Z</time>
      </trkpt>
      <trkpt lat="45.691084396094084" lon="17.700220914557576">
        <ele>182.4</ele>
        <time>2023-10-16T16:21:55.942Z</time>
      </trkpt>
      <trkpt lat="45.691065452992916" lon="17.70020490512252">
        <ele>182.6</ele>
        <time>2023-10-16T16:21:56.306Z</time>
      </trkpt>
      <trkpt lat="45.69104650989175" lon="17.700189063325524">
        <ele>182.8</ele>
        <time>2023-10-16T16:21:56.671Z</time>
      </trkpt>
      <trkpt lat="45.69102798588574" lon="17.700173305347562">
        <ele>183.0</ele>
        <time>2023-10-16T16:21:57.037Z</time>
      </trkpt>
      <trkpt lat="45.691009629517794" lon="17.7001575473696">
        <ele>183.21</ele>
        <time>2023-10-16T16:21:57.403Z</time>
      </trkpt>
      <trkpt lat="45.69099135696888" lon="17.700141705572605">
        <ele>183.41</ele>
        <time>2023-10-16T16:21:57.770Z</time>
      </trkpt>
      <trkpt lat="45.690973168239" lon="17.700125612318516">
        <ele>183.62</ele>
        <time>2023-10-16T16:21:58.138Z</time>
      </trkpt>
      <trkpt lat="45.69095506332815" lon="17.7001091837883">
        <ele>183.83</ele>
        <time>2023-10-16T16:21:58.506Z</time>
      </trkpt>
      <trkpt lat="45.69093704223633" lon="17.700092503800988">
        <ele>184.04</ele>
        <time>2023-10-16T16:21:58.875Z</time>
      </trkpt>
      <trkpt lat="45.69091902114451" lon="17.70007557235658">
        <ele>184.25</ele>
        <time>2023-10-16T16:21:59.245Z</time>
      </trkpt>
      <trkpt lat="45.690900748595595" lon="17.700058054178953">
        <ele>184.46</ele>
        <time>2023-10-16T16:21:59.616Z</time>
      </trkpt>
      <trkpt lat="45.690882224589586" lon="17.700040116906166">
        <ele>184.67</ele>
        <time>2023-10-16T16:21:59.987Z</time>
      </trkpt>
      <trkpt lat="45.69086344912648" lon="17.700021844357252">
        <ele>184.87</ele>
        <time>2023-10-16T16:22:00.359Z</time>
      </trkpt>
      <trkpt lat="45.690844589844346" lon="17.7000037394464">
        <ele>185.08</ele>
        <time>2023-10-16T16:22:00.732Z</time>
      </trkpt>
      <trkpt lat="45.69082564674318" lon="17.69998555071652">
        <ele>185.28</ele>
        <time>2023-10-16T16:22:01.106Z</time>
      </trkpt>
      <trkpt lat="45.69080678746104" lon="17.699967697262764">
        <ele>185.49</ele>
        <time>2023-10-16T16:22:01.480Z</time>
      </trkpt>
      <trkpt lat="45.69078801199794" lon="17.699950011447072">
        <ele>185.69</ele>
        <time>2023-10-16T16:22:01.855Z</time>
      </trkpt>
      <trkpt lat="45.69076948799193" lon="17.699932912364602">
        <ele>185.88</ele>
        <time>2023-10-16T16:22:02.231Z</time>
      </trkpt>
      <trkpt lat="45.69075113162398" lon="17.69991614855826">
        <ele>186.08</ele>
        <time>2023-10-16T16:22:02.608Z</time>
      </trkpt>
      <trkpt lat="45.69073277525604" lon="17.69989963620901">
        <ele>186.27</ele>
        <time>2023-10-16T16:22:02.985Z</time>
      </trkpt>
      <trkpt lat="45.690714502707124" lon="17.699883291497827">
        <ele>186.45</ele>
        <time>2023-10-16T16:22:03.363Z</time>
      </trkpt>
      <trkpt lat="45.69069631397724" lon="17.699867198243737">
        <ele>186.63</ele>
        <time>2023-10-16T16:22:03.742Z</time>
      </trkpt>
      <trkpt lat="45.69067820906639" lon="17.699851104989648">
        <ele>186.81</ele>
        <time>2023-10-16T16:22:04.121Z</time>
      </trkpt>
      <trkpt lat="45.69066010415554" lon="17.699834844097495">
        <ele>186.98</ele>
        <time>2023-10-16T16:22:04.501Z</time>
      </trkpt>
      <trkpt lat="45.69064191542566" lon="17.699818331748247">
        <ele>187.15</ele>
        <time>2023-10-16T16:22:04.882Z</time>
      </trkpt>
      <trkpt lat="45.69062397815287" lon="17.699801819399">
        <ele>187.31</ele>
        <time>2023-10-16T16:22:05.264Z</time>
      </trkpt>
      <trkpt lat="45.69060578942299" lon="17.69978480413556">
        <ele>187.47</ele>
        <time>2023-10-16T16:22:05.646Z</time>
      </trkpt>
      <trkpt lat="45.690587516874075" lon="17.699767453595996">
        <ele>187.62</ele>
        <time>2023-10-16T16:22:06.029Z</time>
      </trkpt>
      <trkpt lat="45.69056916050613" lon="17.699749935418367">
        <ele>187.77</ele>
        <time>2023-10-16T16:22:06.413Z</time>
      </trkpt>
      <trkpt lat="45.69055072031915" lon="17.699732165783644">
        <ele>187.91</ele>
        <time>2023-10-16T16:22:06.798Z</time>
      </trkpt>
      <trkpt lat="45.690532280132174" lon="17.69971431232989">
        <ele>188.04</ele>
        <time>2023-10-16T16:22:07.183Z</time>
      </trkpt>
      <trkpt lat="45.690513756126165" lon="17.699696207419038">
        <ele>188.16</ele>
        <time>2023-10-16T16:22:07.569Z</time>
      </trkpt>
      <trkpt lat="45.69049531593919" lon="17.699678018689156">
        <ele>188.28</ele>
        <time>2023-10-16T16:22:07.956Z</time>
      </trkpt>
      <trkpt lat="45.69047695957124" lon="17.699659578502178">
        <ele>188.39</ele>
        <time>2023-10-16T16:22:08.344Z</time>
      </trkpt>
      <trkpt lat="45.69045885466039" lon="17.699640970677137">
        <ele>188.49</ele>
        <time>2023-10-16T16:22:08.732Z</time>
      </trkpt>
      <trkpt lat="45.690441001206636" lon="17.699621943756938">
        <ele>188.59</ele>
        <time>2023-10-16T16:22:09.121Z</time>
      </trkpt>
      <trkpt lat="45.69042306393385" lon="17.69960249774158">
        <ele>188.67</ele>
        <time>2023-10-16T16:22:09.511Z</time>
      </trkpt>
      <trkpt lat="45.69040546193719" lon="17.699582716450095">
        <ele>188.75</ele>
        <time>2023-10-16T16:22:09.901Z</time>
      </trkpt>
      <trkpt lat="45.69038794375956" lon="17.699562683701515">
        <ele>188.82</ele>
        <time>2023-10-16T16:22:10.292Z</time>
      </trkpt>
      <trkpt lat="45.690370090305805" lon="17.699542148038745">
        <ele>188.87</ele>
        <time>2023-10-16T16:22:10.684Z</time>
      </trkpt>
      <trkpt lat="45.69035181775689" lon="17.699521277099848">
        <ele>188.92</ele>
        <time>2023-10-16T16:22:11.077Z</time>
      </trkpt>
      <trkpt lat="45.690333377569914" lon="17.69950032234192">
        <ele>188.96</ele>
        <time>2023-10-16T16:22:11.471Z</time>
      </trkpt>
      <trkpt lat="45.69031476974487" lon="17.699479619041085">
        <ele>188.99</ele>
        <time>2023-10-16T16:22:11.865Z</time>
      </trkpt>
      <trkpt lat="45.690295742824674" lon="17.69945925101638">
        <ele>189.0</ele>
        <time>2023-10-16T16:22:12.260Z</time>
      </trkpt>
      <trkpt lat="45.69027646444738" lon="17.699438966810703">
        <ele>189.01</ele>
        <time>2023-10-16T16:22:12.656Z</time>
      </trkpt>
      <trkpt lat="45.690256683155894" lon="17.699418682605028">
        <ele>189.01</ele>
        <time>2023-10-16T16:22:13.053Z</time>
      </trkpt>
      <trkpt lat="45.690236650407314" lon="17.69939823076129">
        <ele>188.99</ele>
        <time>2023-10-16T16:22:13.451Z</time>
      </trkpt>
      <trkpt lat="45.69021636620164" lon="17.699377359822392">
        <ele>188.97</ele>
        <time>2023-10-16T16:22:13.849Z</time>
      </trkpt>
      <trkpt lat="45.69019574671984" lon="17.699356321245432">
        <ele>188.93</ele>
        <time>2023-10-16T16:22:14.248Z</time>
      </trkpt>
      <trkpt lat="45.69017487578094" lon="17.699335534125566">
        <ele>188.89</ele>
        <time>2023-10-16T16:22:14.648Z</time>
      </trkpt>
      <trkpt lat="45.69015392102301" lon="17.69931566901505">
        <ele>188.83</ele>
        <time>2023-10-16T16:22:15.049Z</time>
      </trkpt>
      <trkpt lat="45.69013271480799" lon="17.699297312647104">
        <ele>188.76</ele>
        <time>2023-10-16T16:22:15.451Z</time>
      </trkpt>
      <trkpt lat="45.69011125713587" lon="17.699280884116888">
        <ele>188.69</ele>
        <time>2023-10-16T16:22:15.854Z</time>
      </trkpt>
      <trkpt lat="45.69008946418762" lon="17.699266551062465">
        <ele>188.6</ele>
        <time>2023-10-16T16:22:16.257Z</time>
      </trkpt>
      <trkpt lat="45.69006733596325" lon="17.699254732578993">
        <ele>188.5</ele>
        <time>2023-10-16T16:22:16.661Z</time>
      </trkpt>
      <trkpt lat="45.69004487246275" lon="17.69924584776163">
        <ele>188.39</ele>
        <time>2023-10-16T16:22:17.066Z</time>
      </trkpt>
      <trkpt lat="45.69002198986709" lon="17.699240064248443">
        <ele>188.27</ele>
        <time>2023-10-16T16:22:17.472Z</time>
      </trkpt>
      <trkpt lat="45.689998688176274" lon="17.69923754967749">
        <ele>188.13</ele>
        <time>2023-10-16T16:22:17.879Z</time>
      </trkpt>
      <trkpt lat="45.689974799752235" lon="17.699238220229745">
        <ele>187.99</ele>
        <time>2023-10-16T16:22:18.286Z</time>
      </trkpt>
      <trkpt lat="45.68995024077594" lon="17.69924182444811">
        <ele>187.83</ele>
        <time>2023-10-16T16:22:18.694Z</time>
      </trkpt>
      <trkpt lat="45.68992534652352" lon="17.699247859418392">
        <ele>187.67</ele>
        <time>2023-10-16T16:22:19.103Z</time>
      </trkpt>
      <trkpt lat="45.68990028463304" lon="17.69925565458834">
        <ele>187.49</ele>
        <time>2023-10-16T16:22:19.513Z</time>
      </trkpt>
      <trkpt lat="45.68987547419965" lon="17.699264455586672">
        <ele>187.31</ele>
        <time>2023-10-16T16:22:19.924Z</time>
      </trkpt>
      <trkpt lat="45.689850663766265" lon="17.699273508042097">
        <ele>187.12</ele>
        <time>2023-10-16T16:22:20.336Z</time>
      </trkpt>
      <trkpt lat="45.68982593715191" lon="17.699282057583332">
        <ele>186.92</ele>
        <time>2023-10-16T16:22:20.748Z</time>
      </trkpt>
      <trkpt lat="45.68980154581368" lon="17.69928934983909">
        <ele>186.71</ele>
        <time>2023-10-16T16:22:21.161Z</time>
      </trkpt>
      <trkpt lat="45.68977748975158" lon="17.69929521717131">
        <ele>186.5</ele>
        <time>2023-10-16T16:22:21.575Z</time>
      </trkpt>
      <trkpt lat="45.6897537689656" lon="17.699299408122897">
        <ele>186.27</ele>
        <time>2023-10-16T16:22:21.990Z</time>
      </trkpt>
      <trkpt lat="45.689730467274785" lon="17.699302174150944">
        <ele>186.05</ele>
        <time>2023-10-16T16:22:22.406Z</time>
      </trkpt>
      <trkpt lat="45.68970741704106" lon="17.699303766712546">
        <ele>185.81</ele>
        <time>2023-10-16T16:22:22.822Z</time>
      </trkpt>
      <trkpt lat="45.6896847859025" lon="17.699304185807705">
        <ele>185.57</ele>
        <time>2023-10-16T16:22:23.239Z</time>
      </trkpt>
      <trkpt lat="45.68966240622103" lon="17.699303682893515">
        <ele>185.32</ele>
        <time>2023-10-16T16:22:23.657Z</time>
      </trkpt>
      <trkpt lat="45.689640110358596" lon="17.69930200651288">
        <ele>185.06</ele>
        <time>2023-10-16T16:22:24.076Z</time>
      </trkpt>
      <trkpt lat="45.68961798213422" lon="17.69929949194193">
        <ele>184.8</ele>
        <time>2023-10-16T16:22:24.495Z</time>
      </trkpt>
      <trkpt lat="45.68959585390985" lon="17.699296222999692">
        <ele>184.54</ele>
        <time>2023-10-16T16:22:24.915Z</time>
      </trkpt>
      <trkpt lat="45.689573641866446" lon="17.69929270260036">
        <ele>184.27</ele>
        <time>2023-10-16T16:22:25.336Z</time>
      </trkpt>
      <trkpt lat="45.68955142982304" lon="17.69928926602006">
        <ele>183.99</ele>
        <time>2023-10-16T16:22:25.758Z</time>
      </trkpt>
      <trkpt lat="45.689529217779636" lon="17.699286248534918">
        <ele>183.71</ele>
        <time>2023-10-16T16:22:26.180Z</time>
      </trkpt>
      <trkpt lat="45.6895069219172" lon="17.699283817782998">
        <ele>183.43</ele>
        <time>2023-10-16T16:22:26.603Z</time>
      </trkpt>
      <trkpt lat="45.689484709873796" lon="17.6992819737643">
        <ele>183.14</ele>
        <time>2023-10-16T16:22:27.027Z</time>
      </trkpt>
      <trkpt lat="45.689462749287486" lon="17.699280716478825">
        <ele>182.84</ele>
        <time>2023-10-16T16:22:27.452Z</time>
      </trkpt>
      <trkpt lat="45.68944087252021" lon="17.699279878288507">
        <ele>182.54</ele>
        <time>2023-10-16T16:22:27.877Z</time>
      </trkpt>
      <trkpt lat="45.689419163390994" lon="17.699279878288507">
        <ele>182.24</ele>
        <time>2023-10-16T16:22:28.303Z</time>
      </trkpt>
      <trkpt lat="45.68939762189984" lon="17.69928054884076">
        <ele>181.94</ele>
        <time>2023-10-16T16:22:28.730Z</time>
      </trkpt>
      <trkpt lat="45.689376248046756" lon="17.699281722307205">
        <ele>181.63</ele>
        <time>2023-10-16T16:22:29.157Z</time>
      </trkpt>
      <trkpt lat="45.68935479037464" lon="17.699283314868808">
        <ele>181.32</ele>
        <time>2023-10-16T16:22:29.585Z</time>
      </trkpt>
      <trkpt lat="45.689333248883486" lon="17.699284991249442">
        <ele>181.01</ele>
        <time>2023-10-16T16:22:30.014Z</time>
      </trkpt>
      <trkpt lat="45.68931179121137" lon="17.699286248534918">
        <ele>180.7</ele>
        <time>2023-10-16T16:22:30.444Z</time>
      </trkpt>
      <trkpt lat="45.689290249720216" lon="17.699287086725235">
        <ele>180.39</ele>
        <time>2023-10-16T16:22:30.874Z</time>
      </trkpt>
      <trkpt lat="45.68926845677197" lon="17.699287422001362">
        <ele>180.08</ele>
        <time>2023-10-16T16:22:31.305Z</time>
      </trkpt>
      <trkpt lat="45.68924641236663" lon="17.69928733818233">
        <ele>179.76</ele>
        <time>2023-10-16T16:22:31.737Z</time>
      </trkpt>
      <trkpt lat="45.68922403268516" lon="17.69928691908717">
        <ele>179.45</ele>
        <time>2023-10-16T16:22:32.170Z</time>
      </trkpt>
      <trkpt lat="45.689201233908534" lon="17.699286080896854">
        <ele>179.13</ele>
        <time>2023-10-16T16:22:32.603Z</time>
      </trkpt>
      <trkpt lat="45.68917801603675" lon="17.699284655973315">
        <ele>178.82</ele>
        <time>2023-10-16T16:22:33.037Z</time>
      </trkpt>
      <trkpt lat="45.68915446288884" lon="17.699282560497522">
        <ele>178.5</ele>
        <time>2023-10-16T16:22:33.472Z</time>
      </trkpt>
      <trkpt lat="45.6891305744648" lon="17.69927996210754">
        <ele>178.19</ele>
        <time>2023-10-16T16:22:33.908Z</time>
      </trkpt>
      <trkpt lat="45.68910668604076" lon="17.699276860803366">
        <ele>177.87</ele>
        <time>2023-10-16T16:22:34.344Z</time>
      </trkpt>
      <trkpt lat="45.68908262997866" lon="17.699273256585002">
        <ele>177.56</ele>
        <time>2023-10-16T16:22:34.781Z</time>
      </trkpt>
      <trkpt lat="45.68905849009752" lon="17.69926923327148">
        <ele>177.25</ele>
        <time>2023-10-16T16:22:35.219Z</time>
      </trkpt>
      <trkpt lat="45.68903426639736" lon="17.699264707043767">
        <ele>176.94</ele>
        <time>2023-10-16T16:22:35.658Z</time>
      </trkpt>
      <trkpt lat="45.68900995887816" lon="17.699259342625737">
        <ele>176.64</ele>
        <time>2023-10-16T16:22:36.098Z</time>
      </trkpt>
      <trkpt lat="45.688985735177994" lon="17.699252972379327">
        <ele>176.33</ele>
        <time>2023-10-16T16:22:36.539Z</time>
      </trkpt>
      <trkpt lat="45.68896193057299" lon="17.699245512485504">
        <ele>176.03</ele>
        <time>2023-10-16T16:22:36.980Z</time>
      </trkpt>
      <trkpt lat="45.68893854506314" lon="17.699236879125237">
        <ele>175.73</ele>
        <time>2023-10-16T16:22:37.422Z</time>
      </trkpt>
      <trkpt lat="45.68891566246748" lon="17.699226988479495">
        <ele>175.44</ele>
        <time>2023-10-16T16:22:37.865Z</time>
      </trkpt>
      <trkpt lat="45.688893450424075" lon="17.699215672910213">
        <ele>175.15</ele>
        <time>2023-10-16T16:22:38.309Z</time>
      </trkpt>
      <trkpt lat="45.68887207657099" lon="17.69920284859836">
        <ele>174.86</ele>
        <time>2023-10-16T16:22:38.753Z</time>
      </trkpt>
      <trkpt lat="45.688851876184344" lon="17.699188515543938">
        <ele>174.58</ele>
        <time>2023-10-16T16:22:39.198Z</time>
      </trkpt>
      <trkpt lat="45.68883318454027" lon="17.699172757565975">
        <ele>174.3</ele>
        <time>2023-10-16T16:22:39.644Z</time>
      </trkpt>
      <trkpt lat="45.6888160854578" lon="17.699155239388347">
        <ele>174.02</ele>
        <time>2023-10-16T16:22:40.091Z</time>
      </trkpt>
      <trkpt lat="45.688800746575" lon="17.69913679920137">
        <ele>173.75</ele>
        <time>2023-10-16T16:22:40.538Z</time>
      </trkpt>
      <trkpt lat="45.68878775462508" lon="17.699117437005043">
        <ele>173.48</ele>
        <time>2023-10-16T16:22:40.986Z</time>
      </trkpt>
      <trkpt lat="45.68877685815096" lon="17.69909732043743">
        <ele>173.22</ele>
        <time>2023-10-16T16:22:41.435Z</time>
      </trkpt>
      <trkpt lat="45.68876814097166" lon="17.699076952412724">
        <ele>172.96</ele>
        <time>2023-10-16T16:22:41.884Z</time>
      </trkpt>
      <trkpt lat="45.68876126781106" lon="17.699055997654796">
        <ele>172.7</ele>
        <time>2023-10-16T16:22:42.334Z</time>
      </trkpt>
      <trkpt lat="45.688756071031094" lon="17.699034959077835">
        <ele>172.45</ele>
        <time>2023-10-16T16:22:42.784Z</time>
      </trkpt>
      <trkpt lat="45.6887523829937" lon="17.69901375286281">
        <ele>172.21</ele>
        <time>2023-10-16T16:22:43.235Z</time>
      </trkpt>
      <trkpt lat="45.68875020369887" lon="17.698992546647787">
        <ele>171.97</ele>
        <time>2023-10-16T16:22:43.686Z</time>
      </trkpt>
      <trkpt lat="45.68874911405146" lon="17.698971424251795">
        <ele>171.73</ele>
        <time>2023-10-16T16:22:44.138Z</time>
      </trkpt>
      <trkpt lat="45.68874903023243" lon="17.698950553312898">
        <ele>171.49</ele>
        <time>2023-10-16T16:22:44.590Z</time>
      </trkpt>
      <trkpt lat="45.68874961696565" lon="17.698930520564318">
        <ele>171.26</ele>
        <time>2023-10-16T16:22:45.043Z</time>
      </trkpt>
      <trkpt lat="45.688750706613064" lon="17.698910823091865">
        <ele>171.03</ele>
        <time>2023-10-16T16:22:45.496Z</time>
      </trkpt>
      <trkpt lat="45.68875154480338" lon="17.69889196380973">
        <ele>170.8</ele>
        <time>2023-10-16T16:22:45.950Z</time>
      </trkpt>
      <trkpt lat="45.6887521315366" lon="17.698874277994037">
        <ele>170.58</ele>
        <time>2023-10-16T16:22:46.404Z</time>
      </trkpt>
      <trkpt lat="45.6887523829937" lon="17.698857514187694">
        <ele>170.36</ele>
        <time>2023-10-16T16:22:46.858Z</time>
      </trkpt>
      <trkpt lat="45.688752299174666" lon="17.698842091485858">
        <ele>170.14</ele>
        <time>2023-10-16T16:22:47.313Z</time>
      </trkpt>
      <trkpt lat="45.68875188007951" lon="17.698828177526593">
        <ele>169.92</ele>
        <time>2023-10-16T16:22:47.768Z</time>
      </trkpt>
      <trkpt lat="45.688751209527254" lon="17.698815939947963">
        <ele>169.71</ele>
        <time>2023-10-16T16:22:48.223Z</time>
      </trkpt>
      <trkpt lat="45.68875011987984" lon="17.69880563020706">
        <ele>169.5</ele>
        <time>2023-10-16T16:22:48.679Z</time>
      </trkpt>
      <trkpt lat="45.6887486949563" lon="17.69879716448486">
        <ele>169.29</ele>
        <time>2023-10-16T16:22:49.135Z</time>
      </trkpt>
      <trkpt lat="45.68874693475664" lon="17.69879045896232">
        <ele>169.08</ele>
        <time>2023-10-16T16:22:49.591Z</time>
      </trkpt>
      <trkpt lat="45.688744923099875" lon="17.69878542982042">
        <ele>168.88</ele>
        <time>2023-10-16T16:22:50.047Z</time>
      </trkpt>
      <trkpt lat="45.68874274380505" lon="17.698781825602055">
        <ele>168.68</ele>
        <time>2023-10-16T16:22:50.503Z</time>
      </trkpt>
      <trkpt lat="45.688740564510226" lon="17.698779478669167">
        <ele>168.48</ele>
        <time>2023-10-16T16:22:50.959Z</time>
      </trkpt>
      <trkpt lat="45.68873846903443" lon="17.698777969926596">
        <ele>168.28</ele>
        <time>2023-10-16T16:22:51.415Z</time>
      </trkpt>
      <trkpt lat="45.68873645737767" lon="17.698776880279183">
        <ele>168.08</ele>
        <time>2023-10-16T16:22:51.871Z</time>
      </trkpt>
      <trkpt lat="45.688734613358974" lon="17.69877579063177">
        <ele>167.88</ele>
        <time>2023-10-16T16:22:52.327Z</time>
      </trkpt>
      <trkpt lat="45.68873302079737" lon="17.698774114251137">
        <ele>167.69</ele>
        <time>2023-10-16T16:22:52.784Z</time>
      </trkpt>
      <trkpt lat="45.6887315120548" lon="17.698771934956312">
        <ele>167.49</ele>
        <time>2023-10-16T16:22:53.241Z</time>
      </trkpt>
      <trkpt lat="45.68873008713126" lon="17.69876841455698">
        <ele>167.3</ele>
        <time>2023-10-16T16:22:53.698Z</time>
      </trkpt>
      <trkpt lat="45.688728746026754" lon="17.698763888329268">
        <ele>167.1</ele>
        <time>2023-10-16T16:22:54.155Z</time>
      </trkpt>
      <trkpt lat="45.68872698582709" lon="17.698757266625762">
        <ele>166.9</ele>
        <time>2023-10-16T16:22:54.612Z</time>
      </trkpt>
      <trkpt lat="45.68872430361807" lon="17.698748633265495">
        <ele>166.71</ele>
        <time>2023-10-16T16:22:55.069Z</time>
      </trkpt>
      <trkpt lat="45.68872086703777" lon="17.698738407343626">
        <ele>166.51</ele>
        <time>2023-10-16T16:22:55.526Z</time>
      </trkpt>
      <trkpt lat="45.688716089352965" lon="17.698727007955313">
        <ele>166.31</ele>
        <time>2023-10-16T16:22:55.984Z</time>
      </trkpt>
      <trkpt lat="45.688709719106555" lon="17.69871518947184">
        <ele>166.11</ele>
        <time>2023-10-16T16:22:56.442Z</time>
      </trkpt>
      <trkpt lat="45.68870209157467" lon="17.698703203350306">
        <ele>165.91</ele>
        <time>2023-10-16T16:22:56.901Z</time>
      </trkpt>
      <trkpt lat="45.688693039119244" lon="17.698691971600056">
        <ele>165.71</ele>
        <time>2023-10-16T16:22:57.360Z</time>
      </trkpt>
      <trkpt lat="45.68868247792125" lon="17.698681829497218">
        <ele>165.51</ele>
        <time>2023-10-16T16:22:57.819Z</time>
      </trkpt>
      <trkpt lat="45.688670575618744" lon="17.69867269322276">
        <ele>165.3</ele>
        <time>2023-10-16T16:22:58.279Z</time>
      </trkpt>
      <trkpt lat="45.68865758366883" lon="17.69866489805281">
        <ele>165.1</ele>
        <time>2023-10-16T16:22:58.739Z</time>
      </trkpt>
      <trkpt lat="45.68864358589053" lon="17.698658108711243">
        <ele>164.89</ele>
        <time>2023-10-16T16:22:59.200Z</time>
      </trkpt>
      <trkpt lat="45.68862891755998" lon="17.69865316338837">
        <ele>164.68</ele>
        <time>2023-10-16T16:22:59.661Z</time>
      </trkpt>
      <trkpt lat="45.68861433304846" lon="17.698649978265166">
        <ele>164.46</ele>
        <time>2023-10-16T16:23:00.123Z</time>
      </trkpt>
      <trkpt lat="45.688599832355976" lon="17.698648301884532">
        <ele>164.25</ele>
        <time>2023-10-16T16:23:00.585Z</time>
      </trkpt>
      <trkpt lat="45.688586086034775" lon="17.698647379875183">
        <ele>164.04</ele>
        <time>2023-10-16T16:23:01.048Z</time>
      </trkpt>
      <trkpt lat="45.688573429360986" lon="17.698647044599056">
        <ele>163.82</ele>
        <time>2023-10-16T16:23:01.511Z</time>
      </trkpt>
      <trkpt lat="45.688561610877514" lon="17.698647044599056">
        <ele>163.6</ele>
        <time>2023-10-16T16:23:01.975Z</time>
      </trkpt>
      <trkpt lat="45.68855063058436" lon="17.69864670932293">
        <ele>163.39</ele>
        <time>2023-10-16T16:23:02.439Z</time>
      </trkpt>
      <trkpt lat="45.68854032084346" lon="17.698646122589707">
        <ele>163.17</ele>
        <time>2023-10-16T16:23:02.903Z</time>
      </trkpt>
      <trkpt lat="45.68853059783578" lon="17.69864520058036">
        <ele>162.95</ele>
        <time>2023-10-16T16:23:03.368Z</time>
      </trkpt>
      <trkpt lat="45.68852121010423" lon="17.698644027113914">
        <ele>162.72</ele>
        <time>2023-10-16T16:23:03.833Z</time>
      </trkpt>
      <trkpt lat="45.68851199001074" lon="17.69864285364747">
        <ele>162.5</ele>
        <time>2023-10-16T16:23:04.298Z</time>
      </trkpt>
      <trkpt lat="45.68850310519338" lon="17.698641596361995">
        <ele>162.28</ele>
        <time>2023-10-16T16:23:04.763Z</time>
      </trkpt>
      <trkpt lat="45.688494220376015" lon="17.698640255257487">
        <ele>162.05</ele>
        <time>2023-10-16T16:23:05.229Z</time>
      </trkpt>
      <trkpt lat="45.68848525173962" lon="17.69863899797201">
        <ele>161.82</ele>
        <time>2023-10-16T16:23:05.695Z</time>
      </trkpt>
      <trkpt lat="45.6884759478271" lon="17.698637656867504">
        <ele>161.59</ele>
        <time>2023-10-16T16:23:06.161Z</time>
      </trkpt>
      <trkpt lat="45.68846622481942" lon="17.6986360643059">
        <ele>161.36</ele>
        <time>2023-10-16T16:23:06.628Z</time>
      </trkpt>
      <trkpt lat="45.688456082716584" lon="17.698634304106236">
        <ele>161.12</ele>
        <time>2023-10-16T16:23:07.095Z</time>
      </trkpt>
      <trkpt lat="45.68844568915665" lon="17.698632292449474">
        <ele>160.89</ele>
        <time>2023-10-16T16:23:07.562Z</time>
      </trkpt>
      <trkpt lat="45.68843487650156" lon="17.698630029335618">
        <ele>160.65</ele>
        <time>2023-10-16T16:23:08.030Z</time>
      </trkpt>
      <trkpt lat="45.688423896208405" lon="17.698627514764667">
        <ele>160.41</ele>
        <time>2023-10-16T16:23:08.498Z</time>
      </trkpt>
      <trkpt lat="45.688412664458156" lon="17.698624581098557">
        <ele>160.17</ele>
        <time>2023-10-16T16:23:08.967Z</time>
      </trkpt>
      <trkpt lat="45.68840109743178" lon="17.69862131215632">
        <ele>159.93</ele>
        <time>2023-10-16T16:23:09.436Z</time>
      </trkpt>
      <trkpt lat="45.68838936276734" lon="17.698617791756988">
        <ele>159.69</ele>
        <time>2023-10-16T16:23:09.905Z</time>
      </trkpt>
      <trkpt lat="45.68837729282677" lon="17.69861401990056">
        <ele>159.44</ele>
        <time>2023-10-16T16:23:10.375Z</time>
      </trkpt>
      <trkpt lat="45.68836513906717" lon="17.698609996587038">
        <ele>159.2</ele>
        <time>2023-10-16T16:23:10.845Z</time>
      </trkpt>
      <trkpt lat="45.688352985307574" lon="17.698605889454484">
        <ele>158.95</ele>
        <time>2023-10-16T16:23:11.316Z</time>
      </trkpt>
      <trkpt lat="45.688340831547976" lon="17.698601530864835">
        <ele>158.71</ele>
        <time>2023-10-16T16:23:11.787Z</time>
      </trkpt>
      <trkpt lat="45.68832867778838" lon="17.69859683699906">
        <ele>158.46</ele>
        <time>2023-10-16T16:23:12.258Z</time>
      </trkpt>
      <trkpt lat="45.68831652402878" lon="17.698591640219092">
        <ele>158.21</ele>
        <time>2023-10-16T16:23:12.730Z</time>
      </trkpt>
      <trkpt lat="45.68830445408821" lon="17.698585940524936">
        <ele>157.96</ele>
        <time>2023-10-16T16:23:13.202Z</time>
      </trkpt>
      <trkpt lat="45.688292467966676" lon="17.69857931882143">
        <ele>157.71</ele>
        <time>2023-10-16T16:23:13.675Z</time>
      </trkpt>
      <trkpt lat="45.68828048184514" lon="17.69857202656567">
        <ele>157.46</ele>
        <time>2023-10-16T16:23:14.148Z</time>
      </trkpt>
      <trkpt lat="45.68826883099973" lon="17.69856414757669">
        <ele>157.21</ele>
        <time>2023-10-16T16:23:14.622Z</time>
      </trkpt>
      <trkpt lat="45.68825709633529" lon="17.698555514216423">
        <ele>156.96</ele>
        <time>2023-10-16T16:23:15.096Z</time>
      </trkpt>
      <trkpt lat="45.68824586458504" lon="17.698546377941966">
        <ele>156.71</ele>
        <time>2023-10-16T16:23:15.570Z</time>
      </trkpt>
      <trkpt lat="45.688234716653824" lon="17.698536487296224">
        <ele>156.46</ele>
        <time>2023-10-16T16:23:16.045Z</time>
      </trkpt>
      <trkpt lat="45.68822373636067" lon="17.698525926098228">
        <ele>156.21</ele>
        <time>2023-10-16T16:23:16.520Z</time>
      </trkpt>
      <trkpt lat="45.68821317516267" lon="17.69851477816701">
        <ele>155.96</ele>
        <time>2023-10-16T16:23:16.996Z</time>
      </trkpt>
      <trkpt lat="45.688202949240804" lon="17.69850304350257">
        <ele>155.71</ele>
        <time>2023-10-16T16:23:17.472Z</time>
      </trkpt>
      <trkpt lat="45.68819339387119" lon="17.698491225019097">
        <ele>155.47</ele>
        <time>2023-10-16T16:23:17.949Z</time>
      </trkpt>
      <trkpt lat="45.68818434141576" lon="17.69847957417369">
        <ele>155.22</ele>
        <time>2023-10-16T16:23:18.426Z</time>
      </trkpt>
      <trkpt lat="45.68817587569356" lon="17.698468510061502">
        <ele>154.97</ele>
        <time>2023-10-16T16:23:18.903Z</time>
      </trkpt>
      <trkpt lat="45.68816791288555" lon="17.6984582003206">
        <ele>154.73</ele>
        <time>2023-10-16T16:23:19.381Z</time>
      </trkpt>
      <trkpt lat="45.68816062062979" lon="17.698448728770018">
        <ele>154.49</ele>
        <time>2023-10-16T16:23:19.859Z</time>
      </trkpt>
      <trkpt lat="45.68815383128822" lon="17.69844009540975">
        <ele>154.25</ele>
        <time>2023-10-16T16:23:20.337Z</time>
      </trkpt>
      <trkpt lat="45.688147377222776" lon="17.698431964963675">
        <ele>154.01</ele>
        <time>2023-10-16T16:23:20.816Z</time>
      </trkpt>
      <trkpt lat="45.68814125843346" lon="17.698424505069852">
        <ele>153.77</ele>
        <time>2023-10-16T16:23:21.295Z</time>
      </trkpt>
      <trkpt lat="45.68813530728221" lon="17.69841763190925">
        <ele>153.54</ele>
        <time>2023-10-16T16:23:21.774Z</time>
      </trkpt>
      <trkpt lat="45.68812943994999" lon="17.698411429300904">
        <ele>153.3</ele>
        <time>2023-10-16T16:23:22.253Z</time>
      </trkpt>
      <trkpt lat="45.6881236564368" lon="17.698406064882874">
        <ele>153.07</ele>
        <time>2023-10-16T16:23:22.733Z</time>
      </trkpt>
      <trkpt lat="45.68811778910458" lon="17.69840145483613">
        <ele>152.84</ele>
        <time>2023-10-16T16:23:23.213Z</time>
      </trkpt>
      <trkpt lat="45.68811192177236" lon="17.698397431522608">
        <ele>152.62</ele>
        <time>2023-10-16T16:23:23.693Z</time>
      </trkpt>
      <trkpt lat="45.68810588680208" lon="17.698393827304244">
        <ele>152.39</ele>
        <time>2023-10-16T16:23:24.173Z</time>
      </trkpt>
      <trkpt lat="45.68809968419373" lon="17.69839022308588">
        <ele>152.17</ele>
        <time>2023-10-16T16:23:24.654Z</time>
      </trkpt>
      <trkpt lat="45.68809331394732" lon="17.698386618867517">
        <ele>151.95</ele>
        <time>2023-10-16T16:23:25.135Z</time>
      </trkpt>
      <trkpt lat="45.68808644078672" lon="17.69838284701109">
        <ele>151.74</ele>
        <time>2023-10-16T16:23:25.616Z</time>
      </trkpt>
      <trkpt lat="45.68807906471193" lon="17.698379075154662">
        <ele>151.53</ele>
        <time>2023-10-16T16:23:26.097Z</time>
      </trkpt>
      <trkpt lat="45.68807118572295" lon="17.698375303298235">
        <ele>151.32</ele>
        <time>2023-10-16T16:23:26.579Z</time>
      </trkpt>
      <trkpt lat="45.688062720000744" lon="17.698371782898903">
        <ele>151.11</ele>
        <time>2023-10-16T16:23:27.061Z</time>
      </trkpt>
      <trkpt lat="45.68805324845016" lon="17.69836868159473">
        <ele>150.91</ele>
        <time>2023-10-16T16:23:27.543Z</time>
      </trkpt>
      <trkpt lat="45.688042771071196" lon="17.698365915566683">
        <ele>150.71</ele>
        <time>2023-10-16T16:23:28.026Z</time>
      </trkpt>
      <trkpt lat="45.68803137168288" lon="17.698363484814763">
        <ele>150.51</ele>
        <time>2023-10-16T16:23:28.509Z</time>
      </trkpt>
      <trkpt lat="45.68801888264716" lon="17.698361221700907">
        <ele>150.32</ele>
        <time>2023-10-16T16:23:28.992Z</time>
      </trkpt>
      <trkpt lat="45.68800522014499" lon="17.698359042406082">
        <ele>150.13</ele>
        <time>2023-10-16T16:23:29.476Z</time>
      </trkpt>
      <trkpt lat="45.68799038417637" lon="17.69835694693029">
        <ele>149.94</ele>
        <time>2023-10-16T16:23:29.960Z</time>
      </trkpt>
      <trkpt lat="45.687974290922284" lon="17.698354767635465">
        <ele>149.76</ele>
        <time>2023-10-16T16:23:30.445Z</time>
      </trkpt>
      <trkpt lat="45.68795710802078" lon="17.698352420702577">
        <ele>149.58</ele>
        <time>2023-10-16T16:23:30.930Z</time>
      </trkpt>
      <trkpt lat="45.68793883547187" lon="17.698349989950657">
        <ele>149.41</ele>
        <time>2023-10-16T16:23:31.416Z</time>
      </trkpt>
      <trkpt lat="45.68791947327554" lon="17.698347391560674">
        <ele>149.24</ele>
        <time>2023-10-16T16:23:31.903Z</time>
      </trkpt>
      <trkpt lat="45.687899021431804" lon="17.698344457894564">
        <ele>149.07</ele>
        <time>2023-10-16T16:23:32.390Z</time>
      </trkpt>
      <trkpt lat="45.68787798285484" lon="17.6983408536762">
        <ele>148.91</ele>
        <time>2023-10-16T16:23:32.878Z</time>
      </trkpt>
      <trkpt lat="45.68785627372563" lon="17.698336662724614">
        <ele>148.76</ele>
        <time>2023-10-16T16:23:33.367Z</time>
      </trkpt>
      <trkpt lat="45.68783397786319" lon="17.69833154976368">
        <ele>148.61</ele>
        <time>2023-10-16T16:23:33.857Z</time>
      </trkpt>
      <trkpt lat="45.687811179086566" lon="17.6983252633363">
        <ele>148.46</ele>
        <time>2023-10-16T16:23:34.347Z</time>
      </trkpt>
      <trkpt lat="45.68778804503381" lon="17.698317803442478">
        <ele>148.33</ele>
        <time>2023-10-16T16:23:34.838Z</time>
      </trkpt>
      <trkpt lat="45.687764659523964" lon="17.698309421539307">
        <ele>148.2</ele>
        <time>2023-10-16T16:23:35.330Z</time>
      </trkpt>
      <trkpt lat="45.68774110637605" lon="17.698300201445818">
        <ele>148.07</ele>
        <time>2023-10-16T16:23:35.823Z</time>
      </trkpt>
      <trkpt lat="45.68771755322814" lon="17.698290813714266">
        <ele>147.95</ele>
        <time>2023-10-16T16:23:36.317Z</time>
      </trkpt>
      <trkpt lat="45.687694335356355" lon="17.69828226417303">
        <ele>147.84</ele>
        <time>2023-10-16T16:23:36.811Z</time>
      </trkpt>
      <trkpt lat="45.68767170421779" lon="17.698275726288557">
        <ele>147.73</ele>
        <time>2023-10-16T16:23:37.306Z</time>
      </trkpt>
      <trkpt lat="45.6876505818218" lon="17.698272122070193">
        <ele>147.63</ele>
        <time>2023-10-16T16:23:37.802Z</time>
      </trkpt>
      <trkpt lat="45.68763138726354" lon="17.698272122070193">
        <ele>147.54</ele>
        <time>2023-10-16T16:23:38.298Z</time>
      </trkpt>
      <trkpt lat="45.68761428818107" lon="17.698275642469525">
        <ele>147.45</ele>
        <time>2023-10-16T16:23:38.795Z</time>
      </trkpt>
      <trkpt lat="45.687599116936326" lon="17.69828327000141">
        <ele>147.37</ele>
        <time>2023-10-16T16:23:39.293Z</time>
      </trkpt>
      <trkpt lat="45.68758553825319" lon="17.698295675218105">
        <ele>147.3</ele>
        <time>2023-10-16T16:23:39.791Z</time>
      </trkpt>
      <trkpt lat="45.68757380358875" lon="17.698312606662512">
        <ele>147.23</ele>
        <time>2023-10-16T16:23:40.290Z</time>
      </trkpt>
      <trkpt lat="45.687563829123974" lon="17.698334399610758">
        <ele>147.17</ele>
        <time>2023-10-16T16:23:40.789Z</time>
      </trkpt>
      <trkpt lat="45.68755527958274" lon="17.698361054062843">
        <ele>147.12</ele>
        <time>2023-10-16T16:23:41.289Z</time>
      </trkpt>
      <trkpt lat="45.687548238784075" lon="17.698391815647483">
        <ele>147.07</ele>
        <time>2023-10-16T16:23:41.790Z</time>
      </trkpt>
      <trkpt lat="45.68754262290895" lon="17.69842584617436">
        <ele>147.03</ele>
        <time>2023-10-16T16:23:42.292Z</time>
      </trkpt>
      <trkpt lat="45.6875382643193" lon="17.69846146926284">
        <ele>147.0</ele>
        <time>2023-10-16T16:23:42.794Z</time>
      </trkpt>
      <trkpt lat="45.68753432482481" lon="17.698497343808413">
        <ele>146.97</ele>
        <time>2023-10-16T16:23:43.297Z</time>
      </trkpt>
      <trkpt lat="45.687530720606446" lon="17.69853330217302">
        <ele>146.95</ele>
        <time>2023-10-16T16:23:43.801Z</time>
      </trkpt>
      <trkpt lat="45.68752703256905" lon="17.69856900908053">
        <ele>146.94</ele>
        <time>2023-10-16T16:23:44.306Z</time>
      </trkpt>
      <trkpt lat="45.68752351216972" lon="17.698604464530945">
        <ele>146.93</ele>
        <time>2023-10-16T16:23:44.812Z</time>
      </trkpt>
      <trkpt lat="45.68752024322748" lon="17.698639500886202">
        <ele>146.92</ele>
        <time>2023-10-16T16:23:45.319Z</time>
      </trkpt>
      <trkpt lat="45.68751705810428" lon="17.69867453724146">
        <ele>146.92</ele>
        <time>2023-10-16T16:23:45.826Z</time>
      </trkpt>
      <trkpt lat="45.68751378916204" lon="17.698708986863494">
        <ele>146.92</ele>
        <time>2023-10-16T16:23:46.334Z</time>
      </trkpt>
      <trkpt lat="45.6875105202198" lon="17.698742849752307">
        <ele>146.93</ele>
        <time>2023-10-16T16:23:46.843Z</time>
      </trkpt>
      <trkpt lat="45.68750699982047" lon="17.698776125907898">
        <ele>146.94</ele>
        <time>2023-10-16T16:23:47.353Z</time>
      </trkpt>
      <trkpt lat="45.68750297650695" lon="17.698809066787362">
        <ele>146.96</ele>
        <time>2023-10-16T16:23:47.864Z</time>
      </trkpt>
      <trkpt lat="45.68749853409827" lon="17.69884225912392">
        <ele>146.98</ele>
        <time>2023-10-16T16:23:48.375Z</time>
      </trkpt>
      <trkpt lat="45.687493588775396" lon="17.698875619098544">
        <ele>147.0</ele>
        <time>2023-10-16T16:23:48.887Z</time>
      </trkpt>
      <trkpt lat="45.68748788908124" lon="17.698909314349294">
        <ele>147.03</ele>
        <time>2023-10-16T16:23:49.400Z</time>
      </trkpt>
      <trkpt lat="45.68748160265386" lon="17.698943680152297">
        <ele>147.07</ele>
        <time>2023-10-16T16:23:49.914Z</time>
      </trkpt>
      <trkpt lat="45.6874745618552" lon="17.698978632688522">
        <ele>147.11</ele>
        <time>2023-10-16T16:23:50.429Z</time>
      </trkpt>
      <trkpt lat="45.68746685050428" lon="17.69901366904378">
        <ele>147.15</ele>
        <time>2023-10-16T16:23:50.944Z</time>
      </trkpt>
      <trkpt lat="45.687458803877234" lon="17.699048789218068">
        <ele>147.19</ele>
        <time>2023-10-16T16:23:51.460Z</time>
      </trkpt>
      <trkpt lat="45.68745042197406" lon="17.69908449612558">
        <ele>147.24</ele>
        <time>2023-10-16T16:23:51.977Z</time>
      </trkpt>
      <trkpt lat="45.68744187243283" lon="17.699120538309216">
        <ele>147.29</ele>
        <time>2023-10-16T16:23:52.495Z</time>
      </trkpt>
      <trkpt lat="45.687433490529656" lon="17.699157251045108">
        <ele>147.33</ele>
        <time>2023-10-16T16:23:53.014Z</time>
      </trkpt>
      <trkpt lat="45.68742527626455" lon="17.699194131419063">
        <ele>147.37</ele>
        <time>2023-10-16T16:23:53.534Z</time>
      </trkpt>
      <trkpt lat="45.68741739727557" lon="17.69923168234527">
        <ele>147.42</ele>
        <time>2023-10-16T16:23:54.055Z</time>
      </trkpt>
      <trkpt lat="45.68740968592465" lon="17.6992698200047">
        <ele>147.48</ele>
        <time>2023-10-16T16:23:54.577Z</time>
      </trkpt>
      <trkpt lat="45.68740222603083" lon="17.699308125302196">
        <ele>147.53</ele>
        <time>2023-10-16T16:23:55.100Z</time>
      </trkpt>
      <trkpt lat="45.68739510141313" lon="17.699346179142594">
        <ele>147.59</ele>
        <time>2023-10-16T16:23:55.624Z</time>
      </trkpt>
      <trkpt lat="45.68738822825253" lon="17.69938406534493">
        <ele>147.65</ele>
        <time>2023-10-16T16:23:56.149Z</time>
      </trkpt>
      <trkpt lat="45.687381690368056" lon="17.699421616271138">
        <ele>147.71</ele>
        <time>2023-10-16T16:23:56.674Z</time>
      </trkpt>
      <trkpt lat="45.68737557157874" lon="17.69945891574025">
        <ele>147.77</ele>
        <time>2023-10-16T16:23:57.200Z</time>
      </trkpt>
      <trkpt lat="45.687369955703616" lon="17.69949554465711">
        <ele>147.83</ele>
        <time>2023-10-16T16:23:57.727Z</time>
      </trkpt>
      <trkpt lat="45.687364591285586" lon="17.699531838297844">
        <ele>147.89</ele>
        <time>2023-10-16T16:23:58.255Z</time>
      </trkpt>
      <trkpt lat="45.68735922686756" lon="17.699567712843418">
        <ele>147.94</ele>
        <time>2023-10-16T16:23:58.784Z</time>
      </trkpt>
      <trkpt lat="45.68735369481146" lon="17.699603252112865">
        <ele>147.99</ele>
        <time>2023-10-16T16:23:59.314Z</time>
      </trkpt>
      <trkpt lat="45.68734799511731" lon="17.699638037011027">
        <ele>148.04</ele>
        <time>2023-10-16T16:23:59.845Z</time>
      </trkpt>
      <trkpt lat="45.68734187632799" lon="17.699672486633062">
        <ele>148.08</ele>
        <time>2023-10-16T16:24:00.376Z</time>
      </trkpt>
      <trkpt lat="45.68733542226255" lon="17.69970660097897">
        <ele>148.12</ele>
        <time>2023-10-16T16:24:00.908Z</time>
      </trkpt>
      <trkpt lat="45.68732863292098" lon="17.699740547686815">
        <ele>148.16</ele>
        <time>2023-10-16T16:24:01.441Z</time>
      </trkpt>
      <trkpt lat="45.68732167594135" lon="17.6997740752995">
        <ele>148.19</ele>
        <time>2023-10-16T16:24:01.975Z</time>
      </trkpt>
      <trkpt lat="45.68731446750462" lon="17.699807099997997">
        <ele>148.22</ele>
        <time>2023-10-16T16:24:02.510Z</time>
      </trkpt>
      <trkpt lat="45.68730709142983" lon="17.699839705601335">
        <ele>148.24</ele>
        <time>2023-10-16T16:24:03.046Z</time>
      </trkpt>
      <trkpt lat="45.68729946389794" lon="17.699871892109513">
        <ele>148.25</ele>
        <time>2023-10-16T16:24:03.582Z</time>
      </trkpt>
      <trkpt lat="45.68729200400412" lon="17.699903156608343">
        <ele>148.26</ele>
        <time>2023-10-16T16:24:04.119Z</time>
      </trkpt>
      <trkpt lat="45.68728471174836" lon="17.699933666735888">
        <ele>148.26</ele>
        <time>2023-10-16T16:24:04.657Z</time>
      </trkpt>
      <trkpt lat="45.687277587130666" lon="17.699963841587305">
        <ele>148.26</ele>
        <time>2023-10-16T16:24:05.196Z</time>
      </trkpt>
      <trkpt lat="45.6872707977891" lon="17.699993764981627">
        <ele>148.26</ele>
        <time>2023-10-16T16:24:05.735Z</time>
      </trkpt>
      <trkpt lat="45.68726451136172" lon="17.70002326928079">
        <ele>148.26</ele>
        <time>2023-10-16T16:24:06.275Z</time>
      </trkpt>
      <trkpt lat="45.6872586440295" lon="17.70005243830383">
        <ele>148.24</ele>
        <time>2023-10-16T16:24:06.816Z</time>
      </trkpt>
      <trkpt lat="45.68725302815437" lon="17.700081691145897">
        <ele>148.22</ele>
        <time>2023-10-16T16:24:07.357Z</time>
      </trkpt>
      <trkpt lat="45.687247747555375" lon="17.70011111162603">
        <ele>148.19</ele>
        <time>2023-10-16T16:24:07.899Z</time>
      </trkpt>
      <trkpt lat="45.68724271841347" lon="17.700140699744225">
        <ele>148.16</ele>
        <time>2023-10-16T16:24:08.442Z</time>
      </trkpt>
      <trkpt lat="45.687237940728664" lon="17.70017028786242">
        <ele>148.12</ele>
        <time>2023-10-16T16:24:08.986Z</time>
      </trkpt>
      <trkpt lat="45.68723333068192" lon="17.700200378894806">
        <ele>148.07</ele>
        <time>2023-10-16T16:24:09.530Z</time>
      </trkpt>
      <trkpt lat="45.68722897209227" lon="17.70023080520332">
        <ele>148.02</ele>
        <time>2023-10-16T16:24:10.075Z</time>
      </trkpt>
      <trkpt lat="45.687224781140685" lon="17.70026165060699">
        <ele>147.96</ele>
        <time>2023-10-16T16:24:10.621Z</time>
      </trkpt>
      <trkpt lat="45.687220925465226" lon="17.70029241219163">
        <ele>147.89</ele>
        <time>2023-10-16T16:24:11.168Z</time>
      </trkpt>
      <trkpt lat="45.687217405065894" lon="17.700323425233364">
        <ele>147.82</ele>
        <time>2023-10-16T16:24:11.715Z</time>
      </trkpt>
      <trkpt lat="45.68721421994269" lon="17.700354605913162">
        <ele>147.74</ele>
        <time>2023-10-16T16:24:12.263Z</time>
      </trkpt>
      <trkpt lat="45.687211537733674" lon="17.70038570277393">
        <ele>147.66</ele>
        <time>2023-10-16T16:24:12.812Z</time>
      </trkpt>
      <trkpt lat="45.68720952607691" lon="17.700416380539536">
        <ele>147.57</ele>
        <time>2023-10-16T16:24:13.361Z</time>
      </trkpt>
      <trkpt lat="45.687208184972405" lon="17.700446723029017">
        <ele>147.48</ele>
        <time>2023-10-16T16:24:13.911Z</time>
      </trkpt>
      <trkpt lat="45.68720751442015" lon="17.70047714933753">
        <ele>147.38</ele>
        <time>2023-10-16T16:24:14.462Z</time>
      </trkpt>
      <trkpt lat="45.68720743060112" lon="17.70050791092217">
        <ele>147.28</ele>
        <time>2023-10-16T16:24:15.014Z</time>
      </trkpt>
      <trkpt lat="45.68720776587725" lon="17.70053875632584">
        <ele>147.17</ele>
        <time>2023-10-16T16:24:15.566Z</time>
      </trkpt>
      <trkpt lat="45.68720826879144" lon="17.70057043991983">
        <ele>147.05</ele>
        <time>2023-10-16T16:24:16.119Z</time>
      </trkpt>
      <trkpt lat="45.68720885552466" lon="17.700603045523167">
        <ele>146.93</ele>
        <time>2023-10-16T16:24:16.673Z</time>
      </trkpt>
      <trkpt lat="45.68720952607691" lon="17.700636573135853">
        <ele>146.8</ele>
        <time>2023-10-16T16:24:17.228Z</time>
      </trkpt>
      <trkpt lat="45.687210112810135" lon="17.700671022757888">
        <ele>146.68</ele>
        <time>2023-10-16T16:24:17.783Z</time>
      </trkpt>
      <trkpt lat="45.68721069954336" lon="17.700706562027335">
        <ele>146.55</ele>
        <time>2023-10-16T16:24:18.339Z</time>
      </trkpt>
      <trkpt lat="45.68721095100045" lon="17.700743274763227">
        <ele>146.41</ele>
        <time>2023-10-16T16:24:18.896Z</time>
      </trkpt>
      <trkpt lat="45.68721086718142" lon="17.700781244784594">
        <ele>146.27</ele>
        <time>2023-10-16T16:24:19.454Z</time>
      </trkpt>
      <trkpt lat="45.6872102804482" lon="17.700820388272405">
        <ele>146.13</ele>
        <time>2023-10-16T16:24:20.013Z</time>
      </trkpt>
      <trkpt lat="45.687209190800786" lon="17.700860956683755">
        <ele>145.98</ele>
        <time>2023-10-16T16:24:20.573Z</time>
      </trkpt>
      <trkpt lat="45.687207682058215" lon="17.700902614742517">
        <ele>145.83</ele>
        <time>2023-10-16T16:24:21.134Z</time>
      </trkpt>
      <trkpt lat="45.68720592185855" lon="17.70094527862966">
        <ele>145.68</ele>
        <time>2023-10-16T16:24:21.696Z</time>
      </trkpt>
      <trkpt lat="45.68720407783985" lon="17.7009881939739">
        <ele>145.53</ele>
        <time>2023-10-16T16:24:22.259Z</time>
      </trkpt>
      <trkpt lat="45.687202233821154" lon="17.70103169605136">
        <ele>145.37</ele>
        <time>2023-10-16T16:24:22.823Z</time>
      </trkpt>
      <trkpt lat="45.68720022216439" lon="17.701075365766883">
        <ele>145.21</ele>
        <time>2023-10-16T16:24:23.388Z</time>
      </trkpt>
      <trkpt lat="45.68719821050763" lon="17.701118616387248">
        <ele>145.05</ele>
        <time>2023-10-16T16:24:23.954Z</time>
      </trkpt>
      <trkpt lat="45.6871962826699" lon="17.701161447912455">
        <ele>144.89</ele>
        <time>2023-10-16T16:24:24.521Z</time>
      </trkpt>
      <trkpt lat="45.68719427101314" lon="17.701203608885407">
        <ele>144.73</ele>
        <time>2023-10-16T16:24:25.089Z</time>
      </trkpt>
      <trkpt lat="45.68719242699444" lon="17.701245015487075">
        <ele>144.57</ele>
        <time>2023-10-16T16:24:25.658Z</time>
      </trkpt>
      <trkpt lat="45.68719066679478" lon="17.701285667717457">
        <ele>144.4</ele>
        <time>2023-10-16T16:24:26.228Z</time>
      </trkpt>
      <trkpt lat="45.68718899041414" lon="17.701325062662363">
        <ele>144.24</ele>
        <time>2023-10-16T16:24:26.799Z</time>
      </trkpt>
      <trkpt lat="45.68718739785254" lon="17.701363116502762">
        <ele>144.07</ele>
        <time>2023-10-16T16:24:27.371Z</time>
      </trkpt>
      <trkpt lat="45.687185637652874" lon="17.701400415971875">
        <ele>143.9</ele>
        <time>2023-10-16T16:24:27.943Z</time>
      </trkpt>
      <trkpt lat="45.68718354217708" lon="17.7014372125268">
        <ele>143.73</ele>
        <time>2023-10-16T16:24:28.516Z</time>
      </trkpt>
      <trkpt lat="45.68718111142516" lon="17.701473338529468">
        <ele>143.56</ele>
        <time>2023-10-16T16:24:29.090Z</time>
      </trkpt>
      <trkpt lat="45.68717826157808" lon="17.70150921307504">
        <ele>143.4</ele>
        <time>2023-10-16T16:24:29.665Z</time>
      </trkpt>
      <trkpt lat="45.68717482499778" lon="17.701545087620616">
        <ele>143.25</ele>
        <time>2023-10-16T16:24:30.241Z</time>
      </trkpt>
      <trkpt lat="45.6871706340462" lon="17.701581632718444">
        <ele>143.09</ele>
        <time>2023-10-16T16:24:30.818Z</time>
      </trkpt>
      <trkpt lat="45.687165604904294" lon="17.701618932187557">
        <ele>142.93</ele>
        <time>2023-10-16T16:24:31.396Z</time>
      </trkpt>
      <trkpt lat="45.687159737572074" lon="17.70165715366602">
        <ele>142.77</ele>
        <time>2023-10-16T16:24:31.975Z</time>
      </trkpt>
      <trkpt lat="45.68715303204954" lon="17.701696464791894">
        <ele>142.61</ele>
        <time>2023-10-16T16:24:32.554Z</time>
      </trkpt>
      <trkpt lat="45.68714532069862" lon="17.701737200841308">
        <ele>142.46</ele>
        <time>2023-10-16T16:24:33.134Z</time>
      </trkpt>
      <trkpt lat="45.687136854976416" lon="17.701779445633292">
        <ele>142.31</ele>
        <time>2023-10-16T16:24:33.715Z</time>
      </trkpt>
      <trkpt lat="45.68712771870196" lon="17.701822612434626">
        <ele>142.16</ele>
        <time>2023-10-16T16:24:34.298Z</time>
      </trkpt>
      <trkpt lat="45.68711807951331" lon="17.701866198331118">
        <ele>142.01</ele>
        <time>2023-10-16T16:24:34.882Z</time>
      </trkpt>
      <trkpt lat="45.68710810504854" lon="17.701910203322768">
        <ele>141.86</ele>
        <time>2023-10-16T16:24:35.467Z</time>
      </trkpt>
      <trkpt lat="45.68709787912667" lon="17.70195420831442">
        <ele>141.72</ele>
        <time>2023-10-16T16:24:36.053Z</time>
      </trkpt>
      <trkpt lat="45.68708773702383" lon="17.70199771039188">
        <ele>141.58</ele>
        <time>2023-10-16T16:24:36.640Z</time>
      </trkpt>
      <trkpt lat="45.68707801401615" lon="17.70204020664096">
        <ele>141.44</ele>
        <time>2023-10-16T16:24:37.228Z</time>
      </trkpt>
      <trkpt lat="45.68706929683685" lon="17.702081697061658">
        <ele>141.31</ele>
        <time>2023-10-16T16:24:37.817Z</time>
      </trkpt>
      <trkpt lat="45.687061753124" lon="17.70212193019688">
        <ele>141.17</ele>
        <time>2023-10-16T16:24:38.407Z</time>
      </trkpt>
      <trkpt lat="45.687055718153715" lon="17.702160654589534">
        <ele>141.04</ele>
        <time>2023-10-16T16:24:38.998Z</time>
      </trkpt>
      <trkpt lat="45.687051359564066" lon="17.70219719968736">
        <ele>140.91</ele>
        <time>2023-10-16T16:24:39.590Z</time>
      </trkpt>
      <trkpt lat="45.68704850971699" lon="17.702231984585524">
        <ele>140.79</ele>
        <time>2023-10-16T16:24:40.182Z</time>
      </trkpt>
      <trkpt lat="45.68704716861248" lon="17.702265260741115">
        <ele>140.68</ele>
        <time>2023-10-16T16:24:40.775Z</time>
      </trkpt>
      <trkpt lat="45.68704708479345" lon="17.70229727961123">
        <ele>140.57</ele>
        <time>2023-10-16T16:24:41.369Z</time>
      </trkpt>
      <trkpt lat="45.687048342078924" lon="17.702328208833933">
        <ele>140.48</ele>
        <time>2023-10-16T16:24:41.964Z</time>
      </trkpt>
      <trkpt lat="45.687050856649876" lon="17.70235838368535">
        <ele>140.38</ele>
        <time>2023-10-16T16:24:42.559Z</time>
      </trkpt>
      <trkpt lat="45.6870546285063" lon="17.702387804165483">
        <ele>140.3</ele>
        <time>2023-10-16T16:24:43.155Z</time>
      </trkpt>
      <trkpt lat="45.68705940619111" lon="17.702416637912393">
        <ele>140.22</ele>
        <time>2023-10-16T16:24:43.752Z</time>
      </trkpt>
      <trkpt lat="45.687064938247204" lon="17.70244480110705">
        <ele>140.15</ele>
        <time>2023-10-16T16:24:44.350Z</time>
      </trkpt>
      <trkpt lat="45.687071308493614" lon="17.702472880482674">
        <ele>140.08</ele>
        <time>2023-10-16T16:24:44.948Z</time>
      </trkpt>
      <trkpt lat="45.68707826547325" lon="17.702501295134425">
        <ele>140.02</ele>
        <time>2023-10-16T16:24:45.547Z</time>
      </trkpt>
      <trkpt lat="45.68708564154804" lon="17.7025302965194">
        <ele>139.97</ele>
        <time>2023-10-16T16:24:46.147Z</time>
      </trkpt>
      <trkpt lat="45.68709343671799" lon="17.7025596331805">
        <ele>139.93</ele>
        <time>2023-10-16T16:24:46.747Z</time>
      </trkpt>
      <trkpt lat="45.68710173480213" lon="17.702589724212885">
        <ele>139.89</ele>
        <time>2023-10-16T16:24:47.348Z</time>
      </trkpt>
      <trkpt lat="45.68711053580046" lon="17.702620569616556">
        <ele>139.86</ele>
        <time>2023-10-16T16:24:47.950Z</time>
      </trkpt>
      <trkpt lat="45.68711950443685" lon="17.702651750296354">
        <ele>139.84</ele>
        <time>2023-10-16T16:24:48.553Z</time>
      </trkpt>
      <trkpt lat="45.68712864071131" lon="17.70268335007131">
        <ele>139.83</ele>
        <time>2023-10-16T16:24:49.156Z</time>
      </trkpt>
      <trkpt lat="45.6871376093477" lon="17.702715285122395">
        <ele>139.82</ele>
        <time>2023-10-16T16:24:49.760Z</time>
      </trkpt>
      <trkpt lat="45.687146075069904" lon="17.70274772308767">
        <ele>139.82</ele>
        <time>2023-10-16T16:24:50.365Z</time>
      </trkpt>
      <trkpt lat="45.68715353496373" lon="17.70277999341488">
        <ele>139.84</ele>
        <time>2023-10-16T16:24:50.971Z</time>
      </trkpt>
      <trkpt lat="45.68715906701982" lon="17.702811425551772">
        <ele>139.85</ele>
        <time>2023-10-16T16:24:51.578Z</time>
      </trkpt>
      <trkpt lat="45.687162168323994" lon="17.702841265127063">
        <ele>139.88</ele>
        <time>2023-10-16T16:24:52.185Z</time>
      </trkpt>
      <trkpt lat="45.68716241978109" lon="17.70286850631237">
        <ele>139.92</ele>
        <time>2023-10-16T16:24:52.793Z</time>
      </trkpt>
      <trkpt lat="45.687159821391106" lon="17.702892227098346">
        <ele>139.96</ele>
        <time>2023-10-16T16:24:53.402Z</time>
      </trkpt>
      <trkpt lat="45.68715428933501" lon="17.70291142165661">
        <ele>140.01</ele>
        <time>2023-10-16T16:24:54.011Z</time>
      </trkpt>
      <trkpt lat="45.687146158888936" lon="17.702925838530064">
        <ele>140.08</ele>
        <time>2023-10-16T16:24:54.620Z</time>
      </trkpt>
      <trkpt lat="45.68713551387191" lon="17.702935310080647">
        <ele>140.14</ele>
        <time>2023-10-16T16:24:55.230Z</time>
      </trkpt>
      <trkpt lat="45.68712235428393" lon="17.70293975248933">
        <ele>140.22</ele>
        <time>2023-10-16T16:24:55.840Z</time>
      </trkpt>
      <trkpt lat="45.68710684776306" lon="17.702939249575138">
        <ele>140.3</ele>
        <time>2023-10-16T16:24:56.451Z</time>
      </trkpt>
      <trkpt lat="45.6870892457664" lon="17.70293388515711">
        <ele>140.4</ele>
        <time>2023-10-16T16:24:57.062Z</time>
      </trkpt>
      <trkpt lat="45.68707005120814" lon="17.702924078330398">
        <ele>140.5</ele>
        <time>2023-10-16T16:24:57.674Z</time>
      </trkpt>
      <trkpt lat="45.6870495993644" lon="17.702909912914038">
        <ele>140.61</ele>
        <time>2023-10-16T16:24:58.287Z</time>
      </trkpt>
      <trkpt lat="45.68702856078744" lon="17.70289239473641">
        <ele>140.73</ele>
        <time>2023-10-16T16:24:58.901Z</time>
      </trkpt>
      <trkpt lat="45.68700743839145" lon="17.702872278168797">
        <ele>140.85</ele>
        <time>2023-10-16T16:24:59.516Z</time>
      </trkpt>
      <trkpt lat="45.686986315995455" lon="17.702850736677647">
        <ele>140.99</ele>
        <time>2023-10-16T16:25:00.131Z</time>
      </trkpt>
      <trkpt lat="45.68696510978043" lon="17.702828692272305">
        <ele>141.14</ele>
        <time>2023-10-16T16:25:00.747Z</time>
      </trkpt>
      <trkpt lat="45.68694373592734" lon="17.70280689932406">
        <ele>141.29</ele>
        <time>2023-10-16T16:25:01.364Z</time>
      </trkpt>
      <trkpt lat="45.68692211061716" lon="17.702786028385162">
        <ele>141.46</ele>
        <time>2023-10-16T16:25:01.982Z</time>
      </trkpt>
      <trkpt lat="45.68690065294504" lon="17.702766666188836">
        <ele>141.63</ele>
        <time>2023-10-16T16:25:02.601Z</time>
      </trkpt>
      <trkpt lat="45.686879279091954" lon="17.702749064192176">
        <ele>141.82</ele>
        <time>2023-10-16T16:25:03.221Z</time>
      </trkpt>
      <trkpt lat="45.6868579890579" lon="17.702733390033245">
        <ele>142.0</ele>
        <time>2023-10-16T16:25:03.842Z</time>
      </trkpt>
      <trkpt lat="45.68683669902384" lon="17.702719643712044">
        <ele>142.2</ele>
        <time>2023-10-16T16:25:04.463Z</time>
      </trkpt>
      <trkpt lat="45.686815241351724" lon="17.702707825228572">
        <ele>142.4</ele>
        <time>2023-10-16T16:25:05.085Z</time>
      </trkpt>
      <trkpt lat="45.686793364584446" lon="17.702697683125734">
        <ele>142.61</ele>
        <time>2023-10-16T16:25:05.708Z</time>
      </trkpt>
      <trkpt lat="45.68677098490298" lon="17.70268871448934">
        <ele>142.82</ele>
        <time>2023-10-16T16:25:06.332Z</time>
      </trkpt>
      <trkpt lat="45.68674810230732" lon="17.702680667862296">
        <ele>143.04</ele>
        <time>2023-10-16T16:25:06.956Z</time>
      </trkpt>
      <trkpt lat="45.68672471679747" lon="17.70267304033041">
        <ele>143.27</ele>
        <time>2023-10-16T16:25:07.581Z</time>
      </trkpt>
      <trkpt lat="45.686700996011496" lon="17.702665580436587">
        <ele>143.5</ele>
        <time>2023-10-16T16:25:08.207Z</time>
      </trkpt>
      <trkpt lat="45.68667635321617" lon="17.702657701447606">
        <ele>143.75</ele>
        <time>2023-10-16T16:25:08.834Z</time>
      </trkpt>
      <trkpt lat="45.68665095604956" lon="17.702649403363466">
        <ele>144.0</ele>
        <time>2023-10-16T16:25:09.462Z</time>
      </trkpt>
      <trkpt lat="45.6866246368736" lon="17.702640686184168">
        <ele>144.26</ele>
        <time>2023-10-16T16:25:10.091Z</time>
      </trkpt>
      <trkpt lat="45.686597814783454" lon="17.702631382271647">
        <ele>144.52</ele>
        <time>2023-10-16T16:25:10.721Z</time>
      </trkpt>
      <trkpt lat="45.68657023832202" lon="17.70262165926397">
        <ele>144.78</ele>
        <time>2023-10-16T16:25:11.351Z</time>
      </trkpt>
      <trkpt lat="45.68654224276543" lon="17.702611600980163">
        <ele>145.04</ele>
        <time>2023-10-16T16:25:11.982Z</time>
      </trkpt>
      <trkpt lat="45.686514247208834" lon="17.702601375058293">
        <ele>145.31</ele>
        <time>2023-10-16T16:25:12.614Z</time>
      </trkpt>
      <trkpt lat="45.686486503109336" lon="17.70259098149836">
        <ele>145.58</ele>
        <time>2023-10-16T16:25:13.247Z</time>
      </trkpt>
      <trkpt lat="45.686459094285965" lon="17.702580839395523">
        <ele>145.85</ele>
        <time>2023-10-16T16:25:13.881Z</time>
      </trkpt>
      <trkpt lat="45.686432188376784" lon="17.702571116387844">
        <ele>146.12</ele>
        <time>2023-10-16T16:25:14.516Z</time>
      </trkpt>
      <trkpt lat="45.686405869200826" lon="17.702561980113387">
        <ele>146.39</ele>
        <time>2023-10-16T16:25:15.152Z</time>
      </trkpt>
      <trkpt lat="45.68638063967228" lon="17.702553430572152">
        <ele>146.66</ele>
        <time>2023-10-16T16:25:15.789Z</time>
      </trkpt>
      <trkpt lat="45.68635658361018" lon="17.702545886859298">
        <ele>146.93</ele>
        <time>2023-10-16T16:25:16.427Z</time>
      </trkpt>
      <trkpt lat="45.686333449557424" lon="17.702539013698697">
        <ele>147.2</ele>
        <time>2023-10-16T16:25:17.066Z</time>
      </trkpt>
      <trkpt lat="45.68631140515208" lon="17.70253323018551">
        <ele>147.47</ele>
        <time>2023-10-16T16:25:17.705Z</time>
      </trkpt>
      <trkpt lat="45.68629070185125" lon="17.70252887159586">
        <ele>147.73</ele>
        <time>2023-10-16T16:25:18.345Z</time>
      </trkpt>
      <trkpt lat="45.686271507292986" lon="17.702526273205876">
        <ele>147.99</ele>
        <time>2023-10-16T16:25:18.986Z</time>
      </trkpt>
      <trkpt lat="45.68625323474407" lon="17.70252551883459">
        <ele>148.24</ele>
        <time>2023-10-16T16:25:19.627Z</time>
      </trkpt>
      <trkpt lat="45.68623588420451" lon="17.702526692301035">
        <ele>148.49</ele>
        <time>2023-10-16T16:25:20.269Z</time>
      </trkpt>
      <trkpt lat="45.686219120398164" lon="17.70252937451005">
        <ele>148.74</ele>
        <time>2023-10-16T16:25:20.911Z</time>
      </trkpt>
      <trkpt lat="45.68620285950601" lon="17.702533565461636">
        <ele>148.98</ele>
        <time>2023-10-16T16:25:21.554Z</time>
      </trkpt>
      <trkpt lat="45.68618710152805" lon="17.702539768069983">
        <ele>149.21</ele>
        <time>2023-10-16T16:25:22.198Z</time>
      </trkpt>
      <trkpt lat="45.68617142736912" lon="17.702548233792186">
        <ele>149.44</ele>
        <time>2023-10-16T16:25:22.842Z</time>
      </trkpt>
      <trkpt lat="45.686156088486314" lon="17.702558962628245">
        <ele>149.67</ele>
        <time>2023-10-16T16:25:23.487Z</time>
      </trkpt>
      <trkpt lat="45.68614116869867" lon="17.702571619302034">
        <ele>149.88</ele>
        <time>2023-10-16T16:25:24.132Z</time>
      </trkpt>
      <trkpt lat="45.686126332730055" lon="17.70258561708033">
        <ele>150.09</ele>
        <time>2023-10-16T16:25:24.778Z</time>
      </trkpt>
      <trkpt lat="45.68611132912338" lon="17.70260028541088">
        <ele>150.29</ele>
        <time>2023-10-16T16:25:25.424Z</time>
      </trkpt>
      <trkpt lat="45.686095990240574" lon="17.702615289017558">
        <ele>150.49</ele>
        <time>2023-10-16T16:25:26.071Z</time>
      </trkpt>
      <trkpt lat="45.68608048371971" lon="17.702630376443267">
        <ele>150.68</ele>
        <time>2023-10-16T16:25:26.719Z</time>
      </trkpt>
      <trkpt lat="45.686065312474966" lon="17.702645296230912">
        <ele>150.87</ele>
        <time>2023-10-16T16:25:27.367Z</time>
      </trkpt>
      <trkpt lat="45.68605072796345" lon="17.702660551294684">
        <ele>151.05</ele>
        <time>2023-10-16T16:25:28.016Z</time>
      </trkpt>
      <trkpt lat="45.68603706546128" lon="17.70267589017749">
        <ele>151.22</ele>
        <time>2023-10-16T16:25:28.665Z</time>
      </trkpt>
      <trkpt lat="45.68602449260652" lon="17.70269106142223">
        <ele>151.39</ele>
        <time>2023-10-16T16:25:29.315Z</time>
      </trkpt>
      <trkpt lat="45.686012925580144" lon="17.70270531065762">
        <ele>151.56</ele>
        <time>2023-10-16T16:25:29.966Z</time>
      </trkpt>
      <trkpt lat="45.68600236438215" lon="17.702718218788505">
        <ele>151.72</ele>
        <time>2023-10-16T16:25:30.617Z</time>
      </trkpt>
      <trkpt lat="45.68599230609834" lon="17.702729953452945">
        <ele>151.88</ele>
        <time>2023-10-16T16:25:31.268Z</time>
      </trkpt>
      <trkpt lat="45.68598308600485" lon="17.702740849927068">
        <ele>152.03</ele>
        <time>2023-10-16T16:25:31.920Z</time>
      </trkpt>
      <trkpt lat="45.68597453646362" lon="17.702750992029905">
        <ele>152.18</ele>
        <time>2023-10-16T16:25:32.572Z</time>
      </trkpt>
      <trkpt lat="45.6859668251127" lon="17.70276054739952">
        <ele>152.32</ele>
        <time>2023-10-16T16:25:33.225Z</time>
      </trkpt>
      <trkpt lat="45.6859599519521" lon="17.702770018950105">
        <ele>152.46</ele>
        <time>2023-10-16T16:25:33.878Z</time>
      </trkpt>
      <trkpt lat="45.68595358170569" lon="17.702779406681657">
        <ele>152.59</ele>
        <time>2023-10-16T16:25:34.531Z</time>
      </trkpt>
      <trkpt lat="45.685947462916374" lon="17.70278887823224">
        <ele>152.72</ele>
        <time>2023-10-16T16:25:35.184Z</time>
      </trkpt>
      <trkpt lat="45.68594142794609" lon="17.702798517420888">
        <ele>152.85</ele>
        <time>2023-10-16T16:25:35.838Z</time>
      </trkpt>
      <trkpt lat="45.68593547679484" lon="17.702808659523726">
        <ele>152.97</ele>
        <time>2023-10-16T16:25:36.492Z</time>
      </trkpt>
      <trkpt lat="45.68592969328165" lon="17.702819388359785">
        <ele>153.08</ele>
        <time>2023-10-16T16:25:37.146Z</time>
      </trkpt>
      <trkpt lat="45.68592424504459" lon="17.702831039205194">
        <ele>153.19</ele>
        <time>2023-10-16T16:25:37.801Z</time>
      </trkpt>
      <trkpt lat="45.68591946735978" lon="17.70284361205995">
        <ele>153.3</ele>
        <time>2023-10-16T16:25:38.456Z</time>
      </trkpt>
      <trkpt lat="45.685915276408195" lon="17.70285719074309">
        <ele>153.41</ele>
        <time>2023-10-16T16:25:39.111Z</time>
      </trkpt>
      <trkpt lat="45.685911839827895" lon="17.70287143997848">
        <ele>153.51</ele>
        <time>2023-10-16T16:25:39.767Z</time>
      </trkpt>
      <trkpt lat="45.68590924143791" lon="17.702886192128062">
        <ele>153.62</ele>
        <time>2023-10-16T16:25:40.423Z</time>
      </trkpt>
      <trkpt lat="45.68590722978115" lon="17.702901614829898">
        <ele>153.72</ele>
        <time>2023-10-16T16:25:41.079Z</time>
      </trkpt>
      <trkpt lat="45.68590580485761" lon="17.702917624264956">
        <ele>153.81</ele>
        <time>2023-10-16T16:25:41.736Z</time>
      </trkpt>
      <trkpt lat="45.68590479902923" lon="17.702933801338077">
        <ele>153.91</ele>
        <time>2023-10-16T16:25:42.393Z</time>
      </trkpt>
      <trkpt lat="45.68590421229601" lon="17.702949894592166">
        <ele>154.0</ele>
        <time>2023-10-16T16:25:43.051Z</time>
      </trkpt>
      <trkpt lat="45.68590387701988" lon="17.702965401113033">
        <ele>154.09</ele>
        <time>2023-10-16T16:25:43.709Z</time>
      </trkpt>
      <trkpt lat="45.685903960838914" lon="17.702980237081647">
        <ele>154.18</ele>
        <time>2023-10-16T16:25:44.367Z</time>
      </trkpt>
      <trkpt lat="45.68590429611504" lon="17.70299406722188">
        <ele>154.26</ele>
        <time>2023-10-16T16:25:45.026Z</time>
      </trkpt>
      <trkpt lat="45.685904966667295" lon="17.70300672389567">
        <ele>154.35</ele>
        <time>2023-10-16T16:25:45.685Z</time>
      </trkpt>
      <trkpt lat="45.68590580485761" lon="17.70301803946495">
        <ele>154.43</ele>
        <time>2023-10-16T16:25:46.344Z</time>
      </trkpt>
      <trkpt lat="45.685906894505024" lon="17.70302868448198">
        <ele>154.51</ele>
        <time>2023-10-16T16:25:47.003Z</time>
      </trkpt>
      <trkpt lat="45.68590831942856" lon="17.70303849130869">
        <ele>154.59</ele>
        <time>2023-10-16T16:25:47.663Z</time>
      </trkpt>
      <trkpt lat="45.68591024726629" lon="17.703047459945083">
        <ele>154.67</ele>
        <time>2023-10-16T16:25:48.323Z</time>
      </trkpt>
      <trkpt lat="45.68591267801821" lon="17.70305567421019">
        <ele>154.75</ele>
        <time>2023-10-16T16:25:48.983Z</time>
      </trkpt>
      <trkpt lat="45.685915695503354" lon="17.703063553199172">
        <ele>154.83</ele>
        <time>2023-10-16T16:25:49.643Z</time>
      </trkpt>
      <trkpt lat="45.685919132083654" lon="17.703071180731058">
        <ele>154.9</ele>
        <time>2023-10-16T16:25:50.304Z</time>
      </trkpt>
      <trkpt lat="45.68592315539718" lon="17.70307855680585">
        <ele>154.98</ele>
        <time>2023-10-16T16:25:50.965Z</time>
      </trkpt>
      <trkpt lat="45.68592734634876" lon="17.703086184337735">
        <ele>155.06</ele>
        <time>2023-10-16T16:25:51.626Z</time>
      </trkpt>
      <trkpt lat="45.685931872576475" lon="17.70309431478381">
        <ele>155.14</ele>
        <time>2023-10-16T16:25:52.287Z</time>
      </trkpt>
      <trkpt lat="45.68593648262322" lon="17.70310303196311">
        <ele>155.22</ele>
        <time>2023-10-16T16:25:52.948Z</time>
      </trkpt>
      <trkpt lat="45.685941176488996" lon="17.703112587332726">
        <ele>155.3</ele>
        <time>2023-10-16T16:25:53.610Z</time>
      </trkpt>
      <trkpt lat="45.6859459541738" lon="17.703122897073627">
        <ele>155.38</ele>
        <time>2023-10-16T16:25:54.272Z</time>
      </trkpt>
      <trkpt lat="45.68595081567764" lon="17.703134045004845">
        <ele>155.47</ele>
        <time>2023-10-16T16:25:54.934Z</time>
      </trkpt>
      <trkpt lat="45.68595567718148" lon="17.70314603112638">
        <ele>155.56</ele>
        <time>2023-10-16T16:25:55.597Z</time>
      </trkpt>
      <trkpt lat="45.685960706323385" lon="17.703158855438232">
        <ele>155.64</ele>
        <time>2023-10-16T16:25:56.260Z</time>
      </trkpt>
      <trkpt lat="45.68596598692238" lon="17.70317243412137">
        <ele>155.74</ele>
        <time>2023-10-16T16:25:56.923Z</time>
      </trkpt>
      <trkpt lat="45.68597160279751" lon="17.703186767175794">
        <ele>155.83</ele>
        <time>2023-10-16T16:25:57.587Z</time>
      </trkpt>
      <trkpt lat="45.68597755394876" lon="17.703202022239566">
        <ele>155.92</ele>
        <time>2023-10-16T16:25:58.251Z</time>
      </trkpt>
      <trkpt lat="45.6859840080142" lon="17.70321778021753">
        <ele>156.02</ele>
        <time>2023-10-16T16:25:58.916Z</time>
      </trkpt>
      <trkpt lat="45.68599079735577" lon="17.703233789652586">
        <ele>156.12</ele>
        <time>2023-10-16T16:25:59.581Z</time>
      </trkpt>
      <trkpt lat="45.68599758669734" lon="17.703250218182802">
        <ele>156.23</ele>
        <time>2023-10-16T16:26:00.246Z</time>
      </trkpt>
      <trkpt lat="45.68600454367697" lon="17.703266898170114">
        <ele>156.33</ele>
        <time>2023-10-16T16:26:00.912Z</time>
      </trkpt>
      <trkpt lat="45.68601158447564" lon="17.70328374579549">
        <ele>156.44</ele>
        <time>2023-10-16T16:26:01.578Z</time>
      </trkpt>
      <trkpt lat="45.6860186252743" lon="17.703300677239895">
        <ele>156.55</ele>
        <time>2023-10-16T16:26:02.245Z</time>
      </trkpt>
      <trkpt lat="45.686025666072965" lon="17.70331752486527">
        <ele>156.67</ele>
        <time>2023-10-16T16:26:02.912Z</time>
      </trkpt>
      <trkpt lat="45.686032455414534" lon="17.703334372490644">
        <ele>156.79</ele>
        <time>2023-10-16T16:26:03.580Z</time>
      </trkpt>
      <trkpt lat="45.68603899329901" lon="17.703350884839892">
        <ele>156.91</ele>
        <time>2023-10-16T16:26:04.248Z</time>
      </trkpt>
      <trkpt lat="45.68604502826929" lon="17.703367229551077">
        <ele>157.04</ele>
        <time>2023-10-16T16:26:04.917Z</time>
      </trkpt>
      <trkpt lat="45.68605072796345" lon="17.703383406624198">
        <ele>157.16</ele>
        <time>2023-10-16T16:26:05.586Z</time>
      </trkpt>
      <trkpt lat="45.68605609238148" lon="17.703399416059256">
        <ele>157.3</ele>
        <time>2023-10-16T16:26:06.255Z</time>
      </trkpt>
      <trkpt lat="45.68606112152338" lon="17.70341567695141">
        <ele>157.43</ele>
        <time>2023-10-16T16:26:06.925Z</time>
      </trkpt>
      <trkpt lat="45.68606598302722" lon="17.70343185402453">
        <ele>157.58</ele>
        <time>2023-10-16T16:26:07.595Z</time>
      </trkpt>
      <trkpt lat="45.68607084453106" lon="17.70344803109765">
        <ele>157.72</ele>
        <time>2023-10-16T16:26:08.266Z</time>
      </trkpt>
      <trkpt lat="45.686075538396835" lon="17.703463872894645">
        <ele>157.87</ele>
        <time>2023-10-16T16:26:08.937Z</time>
      </trkpt>
      <trkpt lat="45.68608023226261" lon="17.703479379415512">
        <ele>158.02</ele>
        <time>2023-10-16T16:26:09.609Z</time>
      </trkpt>
      <trkpt lat="45.686085261404514" lon="17.703494634479284">
        <ele>158.18</ele>
        <time>2023-10-16T16:26:10.281Z</time>
      </trkpt>
      <trkpt lat="45.68609037436545" lon="17.703509386628866">
        <ele>158.34</ele>
        <time>2023-10-16T16:26:10.953Z</time>
      </trkpt>
      <trkpt lat="45.686095571145415" lon="17.70352380350232">
        <ele>158.5</ele>
        <time>2023-10-16T16:26:11.626Z</time>
      </trkpt>
      <trkpt lat="45.686100935563445" lon="17.70353788509965">
        <ele>158.67</ele>
        <time>2023-10-16T16:26:12.299Z</time>
      </trkpt>
      <trkpt lat="45.68610604852438" lon="17.703551799058914">
        <ele>158.84</ele>
        <time>2023-10-16T16:26:12.972Z</time>
      </trkpt>
      <trkpt lat="45.68611099384725" lon="17.703565377742052">
        <ele>159.01</ele>
        <time>2023-10-16T16:26:13.646Z</time>
      </trkpt>
      <trkpt lat="45.68611577153206" lon="17.703578369691968">
        <ele>159.19</ele>
        <time>2023-10-16T16:26:14.320Z</time>
      </trkpt>
      <trkpt lat="45.68612029775977" lon="17.703590858727694">
        <ele>159.37</ele>
        <time>2023-10-16T16:26:14.994Z</time>
      </trkpt>
      <trkpt lat="45.68612474016845" lon="17.703602761030197">
        <ele>159.56</ele>
        <time>2023-10-16T16:26:15.669Z</time>
      </trkpt>
      <trkpt lat="45.68612918257713" lon="17.703614328056574">
        <ele>159.75</ele>
        <time>2023-10-16T16:26:16.344Z</time>
      </trkpt>
      <trkpt lat="45.68613337352872" lon="17.703625559806824">
        <ele>159.94</ele>
        <time>2023-10-16T16:26:17.019Z</time>
      </trkpt>
      <trkpt lat="45.68613731302321" lon="17.70363662391901">
        <ele>160.14</ele>
        <time>2023-10-16T16:26:17.695Z</time>
      </trkpt>
      <trkpt lat="45.68614116869867" lon="17.70364777185023">
        <ele>160.34</ele>
        <time>2023-10-16T16:26:18.371Z</time>
      </trkpt>
      <trkpt lat="45.68614477291703" lon="17.703658752143383">
        <ele>160.55</ele>
        <time>2023-10-16T16:26:19.047Z</time>
      </trkpt>
      <trkpt lat="45.686148377135396" lon="17.703669648617506">
        <ele>160.76</ele>
        <time>2023-10-16T16:26:19.724Z</time>
      </trkpt>
      <trkpt lat="45.68615214899182" lon="17.703680209815502">
        <ele>160.97</ele>
        <time>2023-10-16T16:26:20.401Z</time>
      </trkpt>
      <trkpt lat="45.68615600466728" lon="17.70369035191834">
        <ele>161.19</ele>
        <time>2023-10-16T16:26:21.078Z</time>
      </trkpt>
      <trkpt lat="45.68616019561887" lon="17.703700326383114">
        <ele>161.41</ele>
        <time>2023-10-16T16:26:21.755Z</time>
      </trkpt>
      <trkpt lat="45.686164470389485" lon="17.703709797933698">
        <ele>161.64</ele>
        <time>2023-10-16T16:26:22.433Z</time>
      </trkpt>
      <trkpt lat="45.686168912798166" lon="17.70371918566525">
        <ele>161.87</ele>
        <time>2023-10-16T16:26:23.111Z</time>
      </trkpt>
      <trkpt lat="45.68617360666394" lon="17.703728321939707">
        <ele>162.1</ele>
        <time>2023-10-16T16:26:23.789Z</time>
      </trkpt>
      <trkpt lat="45.68617838434875" lon="17.703737458214164">
        <ele>162.34</ele>
        <time>2023-10-16T16:26:24.467Z</time>
      </trkpt>
      <trkpt lat="45.68618316203356" lon="17.703746426850557">
        <ele>162.58</ele>
        <time>2023-10-16T16:26:25.146Z</time>
      </trkpt>
      <trkpt lat="45.686187855899334" lon="17.703755479305983">
        <ele>162.82</ele>
        <time>2023-10-16T16:26:25.825Z</time>
      </trkpt>
      <trkpt lat="45.68619254976511" lon="17.70376469939947">
        <ele>163.07</ele>
        <time>2023-10-16T16:26:26.504Z</time>
      </trkpt>
      <trkpt lat="45.686197159811854" lon="17.703774254769087">
        <ele>163.32</ele>
        <time>2023-10-16T16:26:27.183Z</time>
      </trkpt>
      <trkpt lat="45.686201602220535" lon="17.703784396871924">
        <ele>163.57</ele>
        <time>2023-10-16T16:26:27.863Z</time>
      </trkpt>
      <trkpt lat="45.68620587699115" lon="17.703795293346047">
        <ele>163.83</ele>
        <time>2023-10-16T16:26:28.543Z</time>
      </trkpt>
      <trkpt lat="45.68620981648564" lon="17.703807028010488">
        <ele>164.09</ele>
        <time>2023-10-16T16:26:29.223Z</time>
      </trkpt>
      <trkpt lat="45.68621350452304" lon="17.703820019960403">
        <ele>164.35</ele>
        <time>2023-10-16T16:26:29.904Z</time>
      </trkpt>
      <trkpt lat="45.686216773465276" lon="17.70383410155773">
        <ele>164.62</ele>
        <time>2023-10-16T16:26:30.585Z</time>
      </trkpt>
      <trkpt lat="45.68621945567429" lon="17.703849356621504">
        <ele>164.89</ele>
        <time>2023-10-16T16:26:31.266Z</time>
      </trkpt>
      <trkpt lat="45.68622155115008" lon="17.70386586897075">
        <ele>165.16</ele>
        <time>2023-10-16T16:26:31.948Z</time>
      </trkpt>
      <trkpt lat="45.686223059892654" lon="17.703883219510317">
        <ele>165.44</ele>
        <time>2023-10-16T16:26:32.630Z</time>
      </trkpt>
      <trkpt lat="45.686223981902" lon="17.703901156783104">
        <ele>165.71</ele>
        <time>2023-10-16T16:26:33.313Z</time>
      </trkpt>
      <trkpt lat="45.68622414954007" lon="17.703919429332018">
        <ele>165.99</ele>
        <time>2023-10-16T16:26:33.996Z</time>
      </trkpt>
      <trkpt lat="45.686223646625876" lon="17.703937701880932">
        <ele>166.28</ele>
        <time>2023-10-16T16:26:34.679Z</time>
      </trkpt>
      <trkpt lat="45.68622280843556" lon="17.70395572297275">
        <ele>166.56</ele>
        <time>2023-10-16T16:26:35.363Z</time>
      </trkpt>
      <trkpt lat="45.68622171878815" lon="17.703972989693284">
        <ele>166.85</ele>
        <time>2023-10-16T16:26:36.047Z</time>
      </trkpt>
      <trkpt lat="45.68622046150267" lon="17.7039894182235">
        <ele>167.13</ele>
        <time>2023-10-16T16:26:36.732Z</time>
      </trkpt>
      <trkpt lat="45.68621903657913" lon="17.704004840925336">
        <ele>167.42</ele>
        <time>2023-10-16T16:26:37.417Z</time>
      </trkpt>
      <trkpt lat="45.686217695474625" lon="17.704019341617823">
        <ele>167.71</ele>
        <time>2023-10-16T16:26:38.102Z</time>
      </trkpt>
      <trkpt lat="45.68621652200818" lon="17.704032668843865">
        <ele>168.0</ele>
        <time>2023-10-16T16:26:38.788Z</time>
      </trkpt>
      <trkpt lat="45.68621559999883" lon="17.704044906422496">
        <ele>168.29</ele>
        <time>2023-10-16T16:26:39.474Z</time>
      </trkpt>
      <trkpt lat="45.68621509708464" lon="17.704056138172746">
        <ele>168.57</ele>
        <time>2023-10-16T16:26:40.160Z</time>
      </trkpt>
      <trkpt lat="45.686215264722705" lon="17.7040671184659">
        <ele>168.86</ele>
        <time>2023-10-16T16:26:40.846Z</time>
      </trkpt>
      <trkpt lat="45.68621610291302" lon="17.70407776348293">
        <ele>169.15</ele>
        <time>2023-10-16T16:26:41.533Z</time>
      </trkpt>
      <trkpt lat="45.686217695474625" lon="17.704088408499956">
        <ele>169.44</ele>
        <time>2023-10-16T16:26:42.220Z</time>
      </trkpt>
      <trkpt lat="45.68621987476945" lon="17.704099221155047">
        <ele>169.73</ele>
        <time>2023-10-16T16:26:42.907Z</time>
      </trkpt>
      <trkpt lat="45.686222640797496" lon="17.704110704362392">
        <ele>170.02</ele>
        <time>2023-10-16T16:26:43.595Z</time>
      </trkpt>
      <trkpt lat="45.6862258259207" lon="17.704122522845864">
        <ele>170.31</ele>
        <time>2023-10-16T16:26:44.283Z</time>
      </trkpt>
      <trkpt lat="45.68622934632003" lon="17.704135263338685">
        <ele>170.6</ele>
        <time>2023-10-16T16:26:44.971Z</time>
      </trkpt>
      <trkpt lat="45.68623303435743" lon="17.704148506745696">
        <ele>170.89</ele>
        <time>2023-10-16T16:26:45.659Z</time>
      </trkpt>
      <trkpt lat="45.68623697385192" lon="17.704162588343024">
        <ele>171.18</ele>
        <time>2023-10-16T16:26:46.348Z</time>
      </trkpt>
      <trkpt lat="45.686241164803505" lon="17.704177424311638">
        <ele>171.47</ele>
        <time>2023-10-16T16:26:47.037Z</time>
      </trkpt>
      <trkpt lat="45.68624543957412" lon="17.70419309847057">
        <ele>171.76</ele>
        <time>2023-10-16T16:26:47.727Z</time>
      </trkpt>
      <trkpt lat="45.68624963052571" lon="17.704209191724658">
        <ele>172.05</ele>
        <time>2023-10-16T16:26:48.417Z</time>
      </trkpt>
      <trkpt lat="45.68625365383923" lon="17.704225536435843">
        <ele>172.33</ele>
        <time>2023-10-16T16:26:49.107Z</time>
      </trkpt>
      <trkpt lat="45.686257341876626" lon="17.704242300242186">
        <ele>172.61</ele>
        <time>2023-10-16T16:26:49.798Z</time>
      </trkpt>
      <trkpt lat="45.68626052699983" lon="17.704259399324656">
        <ele>172.9</ele>
        <time>2023-10-16T16:26:50.489Z</time>
      </trkpt>
      <trkpt lat="45.686263209208846" lon="17.70427666604519">
        <ele>173.18</ele>
        <time>2023-10-16T16:26:51.181Z</time>
      </trkpt>
      <trkpt lat="45.686265556141734" lon="17.704294100403786">
        <ele>173.45</ele>
        <time>2023-10-16T16:26:51.873Z</time>
      </trkpt>
      <trkpt lat="45.686267567798495" lon="17.704311618581414">
        <ele>173.73</ele>
        <time>2023-10-16T16:26:52.565Z</time>
      </trkpt>
      <trkpt lat="45.68626941181719" lon="17.70432896912098">
        <ele>174.01</ele>
        <time>2023-10-16T16:26:53.258Z</time>
      </trkpt>
      <trkpt lat="45.686271004378796" lon="17.704345984384418">
        <ele>174.28</ele>
        <time>2023-10-16T16:26:53.951Z</time>
      </trkpt>
      <trkpt lat="45.68627217784524" lon="17.704362580552697">
        <ele>174.55</ele>
        <time>2023-10-16T16:26:54.645Z</time>
      </trkpt>
      <trkpt lat="45.68627284839749" lon="17.704378506168723">
        <ele>174.82</ele>
        <time>2023-10-16T16:26:55.339Z</time>
      </trkpt>
      <trkpt lat="45.68627318367362" lon="17.704393761232495">
        <ele>175.09</ele>
        <time>2023-10-16T16:26:56.033Z</time>
      </trkpt>
      <trkpt lat="45.68627318367362" lon="17.704408513382077">
        <ele>175.35</ele>
        <time>2023-10-16T16:26:56.728Z</time>
      </trkpt>
      <trkpt lat="45.68627318367362" lon="17.7044228464365">
        <ele>175.61</ele>
        <time>2023-10-16T16:26:57.423Z</time>
      </trkpt>
      <trkpt lat="45.686273351311684" lon="17.704436760395765">
        <ele>175.87</ele>
        <time>2023-10-16T16:26:58.118Z</time>
      </trkpt>
      <trkpt lat="45.68627360276878" lon="17.70445025525987">
        <ele>176.13</ele>
        <time>2023-10-16T16:26:58.814Z</time>
      </trkpt>
      <trkpt lat="45.686273854225874" lon="17.704463582485914">
        <ele>176.38</ele>
        <time>2023-10-16T16:26:59.510Z</time>
      </trkpt>
      <trkpt lat="45.68627410568297" lon="17.70447657443583">
        <ele>176.63</ele>
        <time>2023-10-16T16:27:00.206Z</time>
      </trkpt>
      <trkpt lat="45.68627427332103" lon="17.70448973402381">
        <ele>176.88</ele>
        <time>2023-10-16T16:27:00.903Z</time>
      </trkpt>
      <trkpt lat="45.686274357140064" lon="17.70450297743082">
        <ele>177.13</ele>
        <time>2023-10-16T16:27:01.600Z</time>
      </trkpt>
      <trkpt lat="45.686274440959096" lon="17.70451655611396">
        <ele>177.37</ele>
        <time>2023-10-16T16:27:02.297Z</time>
      </trkpt>
      <trkpt lat="45.686274357140064" lon="17.704530637711287">
        <ele>177.61</ele>
        <time>2023-10-16T16:27:02.995Z</time>
      </trkpt>
      <trkpt lat="45.686273938044906" lon="17.704545306041837">
        <ele>177.85</ele>
        <time>2023-10-16T16:27:03.693Z</time>
      </trkpt>
      <trkpt lat="45.68627318367362" lon="17.704560393467546">
        <ele>178.08</ele>
        <time>2023-10-16T16:27:04.391Z</time>
      </trkpt>
      <trkpt lat="45.686271926388144" lon="17.704575899988413">
        <ele>178.31</ele>
        <time>2023-10-16T16:27:05.090Z</time>
      </trkpt>
      <trkpt lat="45.68627025000751" lon="17.704591657966375">
        <ele>178.54</ele>
        <time>2023-10-16T16:27:05.789Z</time>
      </trkpt>
      <trkpt lat="45.686268070712686" lon="17.7046075835824">
        <ele>178.76</ele>
        <time>2023-10-16T16:27:06.488Z</time>
      </trkpt>
      <trkpt lat="45.6862657237798" lon="17.70462367683649">
        <ele>178.99</ele>
        <time>2023-10-16T16:27:07.188Z</time>
      </trkpt>
      <trkpt lat="45.68626295775175" lon="17.704639937728643">
        <ele>179.21</ele>
        <time>2023-10-16T16:27:07.888Z</time>
      </trkpt>
      <trkpt lat="45.68625994026661" lon="17.70465636625886">
        <ele>179.42</ele>
        <time>2023-10-16T16:27:08.589Z</time>
      </trkpt>
      <trkpt lat="45.686256838962436" lon="17.704672878608108">
        <ele>179.64</ele>
        <time>2023-10-16T16:27:09.290Z</time>
      </trkpt>
      <trkpt lat="45.68625348620117" lon="17.704689474776387">
        <ele>179.85</ele>
        <time>2023-10-16T16:27:09.991Z</time>
      </trkpt>
      <trkpt lat="45.68625004962087" lon="17.70470623858273">
        <ele>180.05</ele>
        <time>2023-10-16T16:27:10.693Z</time>
      </trkpt>
      <trkpt lat="45.686246613040566" lon="17.704723002389073">
        <ele>180.26</ele>
        <time>2023-10-16T16:27:11.395Z</time>
      </trkpt>
      <trkpt lat="45.6862432602793" lon="17.70473951473832">
        <ele>180.46</ele>
        <time>2023-10-16T16:27:12.098Z</time>
      </trkpt>
      <trkpt lat="45.68623990751803" lon="17.704755775630474">
        <ele>180.66</ele>
        <time>2023-10-16T16:27:12.801Z</time>
      </trkpt>
      <trkpt lat="45.68623647093773" lon="17.704771868884563">
        <ele>180.85</ele>
        <time>2023-10-16T16:27:13.504Z</time>
      </trkpt>
      <trkpt lat="45.68623303435743" lon="17.7047872915864">
        <ele>181.05</ele>
        <time>2023-10-16T16:27:14.208Z</time>
      </trkpt>
      <trkpt lat="45.68622959777713" lon="17.704802295193076">
        <ele>181.24</ele>
        <time>2023-10-16T16:27:14.912Z</time>
      </trkpt>
      <trkpt lat="45.68622624501586" lon="17.7048166282475">
        <ele>181.42</ele>
        <time>2023-10-16T16:27:15.617Z</time>
      </trkpt>
      <trkpt lat="45.68622297607362" lon="17.7048303745687">
        <ele>181.61</ele>
        <time>2023-10-16T16:27:16.322Z</time>
      </trkpt>
      <trkpt lat="45.68621995858848" lon="17.704843617975712">
        <ele>181.79</ele>
        <time>2023-10-16T16:27:17.027Z</time>
      </trkpt>
      <trkpt lat="45.686217192560434" lon="17.704856442287564">
        <ele>181.96</ele>
        <time>2023-10-16T16:27:17.732Z</time>
      </trkpt>
      <trkpt lat="45.686214845627546" lon="17.704868679866195">
        <ele>182.14</ele>
        <time>2023-10-16T16:27:18.438Z</time>
      </trkpt>
      <trkpt lat="45.686212833970785" lon="17.7048805821687">
        <ele>182.31</ele>
        <time>2023-10-16T16:27:19.144Z</time>
      </trkpt>
      <trkpt lat="45.686211409047246" lon="17.70489231683314">
        <ele>182.48</ele>
        <time>2023-10-16T16:27:19.850Z</time>
      </trkpt>
      <trkpt lat="45.68621057085693" lon="17.70490405149758">
        <ele>182.65</ele>
        <time>2023-10-16T16:27:20.557Z</time>
      </trkpt>
      <trkpt lat="45.686210403218865" lon="17.704915953800082">
        <ele>182.82</ele>
        <time>2023-10-16T16:27:21.264Z</time>
      </trkpt>
      <trkpt lat="45.68621065467596" lon="17.70492802374065">
        <ele>182.98</ele>
        <time>2023-10-16T16:27:21.971Z</time>
      </trkpt>
      <trkpt lat="45.68621149286628" lon="17.704940596595407">
        <ele>183.15</ele>
        <time>2023-10-16T16:27:22.678Z</time>
      </trkpt>
      <trkpt lat="45.68621266633272" lon="17.704953085631132">
        <ele>183.31</ele>
        <time>2023-10-16T16:27:23.386Z</time>
      </trkpt>
      <trkpt lat="45.68621417507529" lon="17.70496565848589">
        <ele>183.47</ele>
        <time>2023-10-16T16:27:24.094Z</time>
      </trkpt>
      <trkpt lat="45.68621601909399" lon="17.704978147521615">
        <ele>183.63</ele>
        <time>2023-10-16T16:27:24.802Z</time>
      </trkpt>
      <trkpt lat="45.686218198388815" lon="17.70499055273831">
        <ele>183.78</ele>
        <time>2023-10-16T16:27:25.511Z</time>
      </trkpt>
      <trkpt lat="45.686220629140735" lon="17.705002622678876">
        <ele>183.94</ele>
        <time>2023-10-16T16:27:26.220Z</time>
      </trkpt>
      <trkpt lat="45.68622339516878" lon="17.705014776438475">
        <ele>184.1</ele>
        <time>2023-10-16T16:27:26.929Z</time>
      </trkpt>
      <trkpt lat="45.68622641265392" lon="17.70502676256001">
        <ele>184.25</ele>
        <time>2023-10-16T16:27:27.639Z</time>
      </trkpt>
      <trkpt lat="45.6862295139581" lon="17.705038581043482">
        <ele>184.4</ele>
        <time>2023-10-16T16:27:28.349Z</time>
      </trkpt>
      <trkpt lat="45.68623261526227" lon="17.705050064250827">
        <ele>184.56</ele>
        <time>2023-10-16T16:27:29.059Z</time>
      </trkpt>
      <trkpt lat="45.68623571656644" lon="17.70506146363914">
        <ele>184.71</ele>
        <time>2023-10-16T16:27:29.769Z</time>
      </trkpt>
      <trkpt lat="45.68623848259449" lon="17.70507261157036">
        <ele>184.86</ele>
        <time>2023-10-16T16:27:30.480Z</time>
      </trkpt>
      <trkpt lat="45.68624091334641" lon="17.705083675682545">
        <ele>185.01</ele>
        <time>2023-10-16T16:27:31.191Z</time>
      </trkpt>
      <trkpt lat="45.68624292500317" lon="17.705094907432795">
        <ele>185.17</ele>
        <time>2023-10-16T16:27:31.902Z</time>
      </trkpt>
      <trkpt lat="45.686244517564774" lon="17.705106223002076">
        <ele>185.32</ele>
        <time>2023-10-16T16:27:32.614Z</time>
      </trkpt>
      <trkpt lat="45.68624569103122" lon="17.70511770620942">
        <ele>185.47</ele>
        <time>2023-10-16T16:27:33.326Z</time>
      </trkpt>
      <trkpt lat="45.68624636158347" lon="17.70512935705483">
        <ele>185.63</ele>
        <time>2023-10-16T16:27:34.038Z</time>
      </trkpt>
      <trkpt lat="45.68624678067863" lon="17.70514109171927">
        <ele>185.78</ele>
        <time>2023-10-16T16:27:34.750Z</time>
      </trkpt>
      <trkpt lat="45.686246613040566" lon="17.705152491107583">
        <ele>185.94</ele>
        <time>2023-10-16T16:27:35.463Z</time>
      </trkpt>
      <trkpt lat="45.68624619394541" lon="17.705163890495896">
        <ele>186.09</ele>
        <time>2023-10-16T16:27:36.176Z</time>
      </trkpt>
      <trkpt lat="45.68624543957412" lon="17.70517528988421">
        <ele>186.25</ele>
        <time>2023-10-16T16:27:36.889Z</time>
      </trkpt>
      <trkpt lat="45.68624476902187" lon="17.705186856910586">
        <ele>186.41</ele>
        <time>2023-10-16T16:27:37.602Z</time>
      </trkpt>
      <trkpt lat="45.68624418228865" lon="17.70519867539406">
        <ele>186.57</ele>
        <time>2023-10-16T16:27:38.316Z</time>
      </trkpt>
      <trkpt lat="45.686243595555425" lon="17.705210661515594">
        <ele>186.73</ele>
        <time>2023-10-16T16:27:39.030Z</time>
      </trkpt>
      <trkpt lat="45.686243176460266" lon="17.705222899094224">
        <ele>186.89</ele>
        <time>2023-10-16T16:27:39.744Z</time>
      </trkpt>
      <trkpt lat="45.68624284118414" lon="17.70523488521576">
        <ele>187.06</ele>
        <time>2023-10-16T16:27:40.459Z</time>
      </trkpt>
      <trkpt lat="45.68624292500317" lon="17.705246871337295">
        <ele>187.22</ele>
        <time>2023-10-16T16:27:41.174Z</time>
      </trkpt>
      <trkpt lat="45.68624334409833" lon="17.705257767811418">
        <ele>187.39</ele>
        <time>2023-10-16T16:27:41.889Z</time>
      </trkpt>
      <trkpt lat="45.6862430088222" lon="17.70527159795165">
        <ele>187.56</ele>
        <time>2023-10-16T16:27:42.604Z</time>
      </trkpt>
      <trkpt lat="45.686242673546076" lon="17.705285511910915">
        <ele>187.73</ele>
        <time>2023-10-16T16:27:43.320Z</time>
      </trkpt>
      <trkpt lat="45.686242170631886" lon="17.70529649220407">
        <ele>187.9</ele>
        <time>2023-10-16T16:27:44.036Z</time>
      </trkpt>
      <trkpt lat="45.68624527193606" lon="17.705308813601732">
        <ele>188.08</ele>
        <time>2023-10-16T16:27:44.752Z</time>
      </trkpt>
      <trkpt lat="45.68623747676611" lon="17.70535466261208">
        <ele>188.26</ele>
        <time>2023-10-16T16:27:45.469Z</time>
      </trkpt>
      <trkpt lat="45.686234375461936" lon="17.705355416983366">
        <ele>188.44</ele>
        <time>2023-10-16T16:27:46.186Z</time>
      </trkpt>
      <trkpt lat="45.686224987730384" lon="17.70536882802844">
        <ele>188.63</ele>
        <time>2023-10-16T16:27:46.904Z</time>
      </trkpt>
      <trkpt lat="45.686213253065944" lon="17.70538198761642">
        <ele>188.81</ele>
        <time>2023-10-16T16:27:47.622Z</time>
      </trkpt>
      <trkpt lat="45.68620126694441" lon="17.705397913232446">
        <ele>189.0</ele>
        <time>2023-10-16T16:27:48.341Z</time>
      </trkpt>
      <trkpt lat="45.68619254976511" lon="17.70541668869555">
        <ele>189.19</ele>
        <time>2023-10-16T16:27:49.061Z</time>
      </trkpt>
      <trkpt lat="45.686183078214526" lon="17.70543185994029">
        <ele>189.39</ele>
        <time>2023-10-16T16:27:49.781Z</time>
      </trkpt>
      <trkpt lat="45.686173187568784" lon="17.705449126660824">
        <ele>189.58</ele>
        <time>2023-10-16T16:27:50.502Z</time>
      </trkpt>
      <trkpt lat="45.68616405129433" lon="17.705466812476516">
        <ele>189.78</ele>
        <time>2023-10-16T16:27:51.223Z</time>
      </trkpt>
      <trkpt lat="45.68615600466728" lon="17.705485420301557">
        <ele>189.98</ele>
        <time>2023-10-16T16:27:51.945Z</time>
      </trkpt>
      <trkpt lat="45.68614913150668" lon="17.70550419576466">
        <ele>190.18</ele>
        <time>2023-10-16T16:27:52.667Z</time>
      </trkpt>
      <trkpt lat="45.68614351563156" lon="17.70552313886583">
        <ele>190.39</ele>
        <time>2023-10-16T16:27:53.390Z</time>
      </trkpt>
      <trkpt lat="45.686139073222876" lon="17.705542165786028">
        <ele>190.6</ele>
        <time>2023-10-16T16:27:54.113Z</time>
      </trkpt>
      <trkpt lat="45.68613580428064" lon="17.705561025068164">
        <ele>190.8</ele>
        <time>2023-10-16T16:27:54.836Z</time>
      </trkpt>
      <trkpt lat="45.686133708804846" lon="17.705579632893205">
        <ele>191.01</ele>
        <time>2023-10-16T16:27:55.560Z</time>
      </trkpt>
      <trkpt lat="45.68613261915743" lon="17.705597737804055">
        <ele>191.23</ele>
        <time>2023-10-16T16:27:56.284Z</time>
      </trkpt>
      <trkpt lat="45.68613245151937" lon="17.705615172162652">
        <ele>191.44</ele>
        <time>2023-10-16T16:27:57.009Z</time>
      </trkpt>
      <trkpt lat="45.686133205890656" lon="17.70563160069287">
        <ele>191.66</ele>
        <time>2023-10-16T16:27:57.734Z</time>
      </trkpt>
      <trkpt lat="45.68613446317613" lon="17.70564685575664">
        <ele>191.87</ele>
        <time>2023-10-16T16:27:58.459Z</time>
      </trkpt>
      <trkpt lat="45.68613555282354" lon="17.70566152408719">
        <ele>192.09</ele>
        <time>2023-10-16T16:27:59.185Z</time>
      </trkpt>
      <trkpt lat="45.686136139556766" lon="17.70567518658936">
        <ele>192.31</ele>
        <time>2023-10-16T16:27:59.911Z</time>
      </trkpt>
      <trkpt lat="45.686136139556766" lon="17.70568834617734">
        <ele>192.53</ele>
        <time>2023-10-16T16:28:00.637Z</time>
      </trkpt>
      <trkpt lat="45.68613521754742" lon="17.705701254308224">
        <ele>192.75</ele>
        <time>2023-10-16T16:28:01.364Z</time>
      </trkpt>
      <trkpt lat="45.68613337352872" lon="17.705714078620076">
        <ele>192.97</ele>
        <time>2023-10-16T16:28:02.091Z</time>
      </trkpt>
      <trkpt lat="45.68613052368164" lon="17.705726819112897">
        <ele>193.2</ele>
        <time>2023-10-16T16:28:02.818Z</time>
      </trkpt>
      <trkpt lat="45.68612675182521" lon="17.705739978700876">
        <ele>193.42</ele>
        <time>2023-10-16T16:28:03.546Z</time>
      </trkpt>
      <trkpt lat="45.6861222255975" lon="17.705753557384014">
        <ele>193.65</ele>
        <time>2023-10-16T16:28:04.274Z</time>
      </trkpt>
      <trkpt lat="45.686117028817534" lon="17.705767890438437">
        <ele>193.87</ele>
        <time>2023-10-16T16:28:05.002Z</time>
      </trkpt>
      <trkpt lat="45.68611132912338" lon="17.705782977864146">
        <ele>194.1</ele>
        <time>2023-10-16T16:28:05.731Z</time>
      </trkpt>
      <trkpt lat="45.68610521033406" lon="17.705799071118236">
        <ele>194.32</ele>
        <time>2023-10-16T16:28:06.460Z</time>
      </trkpt>
      <trkpt lat="45.686098923906684" lon="17.705815751105547">
        <ele>194.55</ele>
        <time>2023-10-16T16:28:07.190Z</time>
      </trkpt>
      <trkpt lat="45.68609280511737" lon="17.705833269283175">
        <ele>194.77</ele>
        <time>2023-10-16T16:28:07.920Z</time>
      </trkpt>
      <trkpt lat="45.68608685396612" lon="17.705851458013058">
        <ele>195.0</ele>
        <time>2023-10-16T16:28:08.651Z</time>
      </trkpt>
      <trkpt lat="45.68608123809099" lon="17.705869898200035">
        <ele>195.22</ele>
        <time>2023-10-16T16:28:09.382Z</time>
      </trkpt>
      <trkpt lat="45.686076041311026" lon="17.705888589844108">
        <ele>195.44</ele>
        <time>2023-10-16T16:28:10.114Z</time>
      </trkpt>
      <trkpt lat="45.686071179807186" lon="17.705907365307212">
        <ele>195.66</ele>
        <time>2023-10-16T16:28:10.846Z</time>
      </trkpt>
      <trkpt lat="45.68606682121754" lon="17.705925973132253">
        <ele>195.88</ele>
        <time>2023-10-16T16:28:11.578Z</time>
      </trkpt>
      <trkpt lat="45.68606304936111" lon="17.705944078043103">
        <ele>196.1</ele>
        <time>2023-10-16T16:28:12.311Z</time>
      </trkpt>
      <trkpt lat="45.686059864237905" lon="17.7059615124017">
        <ele>196.32</ele>
        <time>2023-10-16T16:28:13.044Z</time>
      </trkpt>
      <trkpt lat="45.686057433485985" lon="17.70597810856998">
        <ele>196.53</ele>
        <time>2023-10-16T16:28:13.778Z</time>
      </trkpt>
      <trkpt lat="45.68605567328632" lon="17.70599369890988">
        <ele>196.74</ele>
        <time>2023-10-16T16:28:14.512Z</time>
      </trkpt>
      <trkpt lat="45.68605466745794" lon="17.70600845105946">
        <ele>196.95</ele>
        <time>2023-10-16T16:28:15.246Z</time>
      </trkpt>
      <trkpt lat="45.68605424836278" lon="17.706022197380662">
        <ele>197.16</ele>
        <time>2023-10-16T16:28:15.981Z</time>
      </trkpt>
      <trkpt lat="45.68605466745794" lon="17.706035021692514">
        <ele>197.36</ele>
        <time>2023-10-16T16:28:16.716Z</time>
      </trkpt>
      <trkpt lat="45.686055505648255" lon="17.70604700781405">
        <ele>197.56</ele>
        <time>2023-10-16T16:28:17.451Z</time>
      </trkpt>
      <trkpt lat="45.68605709820986" lon="17.70605832338333">
        <ele>197.75</ele>
        <time>2023-10-16T16:28:18.187Z</time>
      </trkpt>
      <trkpt lat="45.68605927750468" lon="17.70606896840036">
        <ele>197.94</ele>
        <time>2023-10-16T16:28:18.923Z</time>
      </trkpt>
      <trkpt lat="45.686061875894666" lon="17.70607927814126">
        <ele>198.13</ele>
        <time>2023-10-16T16:28:19.659Z</time>
      </trkpt>
      <trkpt lat="45.68606497719884" lon="17.706089336425066">
        <ele>198.31</ele>
        <time>2023-10-16T16:28:20.395Z</time>
      </trkpt>
      <trkpt lat="45.68606841377914" lon="17.70609922707081">
        <ele>198.49</ele>
        <time>2023-10-16T16:28:21.132Z</time>
      </trkpt>
      <trkpt lat="45.68607218563557" lon="17.706108950078487">
        <ele>198.67</ele>
        <time>2023-10-16T16:28:21.869Z</time>
      </trkpt>
      <trkpt lat="45.686076460406184" lon="17.706118673086166">
        <ele>198.84</ele>
        <time>2023-10-16T16:28:22.606Z</time>
      </trkpt>
      <trkpt lat="45.68608148954809" lon="17.706128479912877">
        <ele>199.0</ele>
        <time>2023-10-16T16:28:23.343Z</time>
      </trkpt>
      <trkpt lat="45.68608710542321" lon="17.706138119101524">
        <ele>199.16</ele>
        <time>2023-10-16T16:28:24.081Z</time>
      </trkpt>
      <trkpt lat="45.686093643307686" lon="17.706147423014045">
        <ele>199.32</ele>
        <time>2023-10-16T16:28:24.819Z</time>
      </trkpt>
      <trkpt lat="45.686101438477635" lon="17.706156810745597">
        <ele>199.46</ele>
        <time>2023-10-16T16:28:25.557Z</time>
      </trkpt>
      <trkpt lat="45.686110658571124" lon="17.706166114658117">
        <ele>199.61</ele>
        <time>2023-10-16T16:28:26.296Z</time>
      </trkpt>
      <trkpt lat="45.68612130358815" lon="17.706175334751606">
        <ele>199.75</ele>
        <time>2023-10-16T16:28:27.035Z</time>
      </trkpt>
      <trkpt lat="45.68613337352872" lon="17.706184722483158">
        <ele>199.88</ele>
        <time>2023-10-16T16:28:27.775Z</time>
      </trkpt>
      <trkpt lat="45.686146868392825" lon="17.706194696947932">
        <ele>200.0</ele>
        <time>2023-10-16T16:28:28.515Z</time>
      </trkpt>
      <trkpt lat="45.68616162054241" lon="17.706205928698182">
        <ele>200.12</ele>
        <time>2023-10-16T16:28:29.256Z</time>
      </trkpt>
      <trkpt lat="45.68617754615843" lon="17.70621900446713">
        <ele>200.23</ele>
        <time>2023-10-16T16:28:29.997Z</time>
      </trkpt>
      <trkpt lat="45.68619414232671" lon="17.706234510987997">
        <ele>200.34</ele>
        <time>2023-10-16T16:28:30.739Z</time>
      </trkpt>
      <trkpt lat="45.68621115759015" lon="17.706252615898848">
        <ele>200.44</ele>
        <time>2023-10-16T16:28:31.482Z</time>
      </trkpt>
      <trkpt lat="45.68622817285359" lon="17.70627373829484">
        <ele>200.53</ele>
        <time>2023-10-16T16:28:32.225Z</time>
      </trkpt>
      <trkpt lat="45.68624535575509" lon="17.706298464909196">
        <ele>200.62</ele>
        <time>2023-10-16T16:28:32.969Z</time>
      </trkpt>
      <trkpt lat="45.6862622871995" lon="17.706326628103852">
        <ele>200.7</ele>
        <time>2023-10-16T16:28:33.714Z</time>
      </trkpt>
      <trkpt lat="45.68627896718681" lon="17.70635822787881">
        <ele>200.77</ele>
        <time>2023-10-16T16:28:34.460Z</time>
      </trkpt>
      <trkpt lat="45.686295395717025" lon="17.706393096596003">
        <ele>200.84</ele>
        <time>2023-10-16T16:28:35.207Z</time>
      </trkpt>
      <trkpt lat="45.686311572790146" lon="17.70643064752221">
        <ele>200.9</ele>
        <time>2023-10-16T16:28:35.955Z</time>
      </trkpt>
      <trkpt lat="45.68632774986327" lon="17.70647071301937">
        <ele>200.95</ele>
        <time>2023-10-16T16:28:36.704Z</time>
      </trkpt>
      <trkpt lat="45.68634409457445" lon="17.706512371078134">
        <ele>201.0</ele>
        <time>2023-10-16T16:28:37.454Z</time>
      </trkpt>
      <trkpt lat="45.6863606069237" lon="17.706554112955928">
        <ele>201.03</ele>
        <time>2023-10-16T16:28:38.205Z</time>
      </trkpt>
      <trkpt lat="45.68637762218714" lon="17.70659518428147">
        <ele>201.06</ele>
        <time>2023-10-16T16:28:38.957Z</time>
      </trkpt>
      <trkpt lat="45.68639547564089" lon="17.706635165959597">
        <ele>201.08</ele>
        <time>2023-10-16T16:28:39.711Z</time>
      </trkpt>
      <trkpt lat="45.686414083465934" lon="17.706673219799995">
        <ele>201.09</ele>
        <time>2023-10-16T16:28:40.466Z</time>
      </trkpt>
      <trkpt lat="45.6864332780242" lon="17.706708507612348">
        <ele>201.09</ele>
        <time>2023-10-16T16:28:41.222Z</time>
      </trkpt>
      <trkpt lat="45.68645289167762" lon="17.70674094557762">
        <ele>201.08</ele>
        <time>2023-10-16T16:28:41.979Z</time>
      </trkpt>
      <trkpt lat="45.686472840607166" lon="17.70677061751485">
        <ele>201.06</ele>
        <time>2023-10-16T16:28:42.737Z</time>
      </trkpt>
      <trkpt lat="45.68649304099381" lon="17.70679760724306">
        <ele>201.04</ele>
        <time>2023-10-16T16:28:43.496Z</time>
      </trkpt>
      <trkpt lat="45.68651357665658" lon="17.706822585314512">
        <ele>201.0</ele>
        <time>2023-10-16T16:28:44.256Z</time>
      </trkpt>
      <trkpt lat="45.68653411231935" lon="17.70684546791017">
        <ele>200.96</ele>
        <time>2023-10-16T16:28:45.016Z</time>
      </trkpt>
      <trkpt lat="45.68655498325825" lon="17.70686692558229">
        <ele>200.9</ele>
        <time>2023-10-16T16:28:45.777Z</time>
      </trkpt>
      <trkpt lat="45.686575938016176" lon="17.706887712702155">
        <ele>200.84</ele>
        <time>2023-10-16T16:28:46.539Z</time>
      </trkpt>
      <trkpt lat="45.68659697659314" lon="17.70690841600299">
        <ele>200.78</ele>
        <time>2023-10-16T16:28:47.302Z</time>
      </trkpt>
      <trkpt lat="45.686617847532034" lon="17.706929286941886">
        <ele>200.7</ele>
        <time>2023-10-16T16:28:48.066Z</time>
      </trkpt>
      <trkpt lat="45.686638467013836" lon="17.706950828433037">
        <ele>200.62</ele>
        <time>2023-10-16T16:28:48.831Z</time>
      </trkpt>
      <trkpt lat="45.68665908649564" lon="17.706973794847727">
        <ele>200.53</ele>
        <time>2023-10-16T16:28:49.597Z</time>
      </trkpt>
      <trkpt lat="45.68667953833938" lon="17.706998018547893">
        <ele>200.43</ele>
        <time>2023-10-16T16:28:50.363Z</time>
      </trkpt>
      <trkpt lat="45.68669990636408" lon="17.707023499533534">
        <ele>200.33</ele>
        <time>2023-10-16T16:28:51.130Z</time>
      </trkpt>
      <trkpt lat="45.686720022931695" lon="17.70704973489046">
        <ele>200.22</ele>
        <time>2023-10-16T16:28:51.898Z</time>
      </trkpt>
      <trkpt lat="45.68673980422318" lon="17.707076221704483">
        <ele>200.1</ele>
        <time>2023-10-16T16:28:52.667Z</time>
      </trkpt>
      <trkpt lat="45.686759585514665" lon="17.707102708518505">
        <ele>199.97</ele>
        <time>2023-10-16T16:28:53.437Z</time>
      </trkpt>
      <trkpt lat="45.686779115349054" lon="17.70712844096124">
        <ele>199.84</ele>
        <time>2023-10-16T16:28:54.208Z</time>
      </trkpt>
      <trkpt lat="45.68679847754538" lon="17.70715283229947">
        <ele>199.7</ele>
        <time>2023-10-16T16:28:54.980Z</time>
      </trkpt>
      <trkpt lat="45.68681767210364" lon="17.70717579871416">
        <ele>199.56</ele>
        <time>2023-10-16T16:28:55.753Z</time>
      </trkpt>
      <trkpt lat="45.68683661520481" lon="17.707197088748217">
        <ele>199.41</ele>
        <time>2023-10-16T16:28:56.526Z</time>
      </trkpt>
      <trkpt lat="45.68685555830598" lon="17.70721678622067">
        <ele>199.25</ele>
        <time>2023-10-16T16:28:57.300Z</time>
      </trkpt>
      <trkpt lat="45.68687433376908" lon="17.70723447203636">
        <ele>199.08</ele>
        <time>2023-10-16T16:28:58.075Z</time>
      </trkpt>
      <trkpt lat="45.68689327687025" lon="17.70725048147142">
        <ele>198.91</ele>
        <time>2023-10-16T16:28:58.851Z</time>
      </trkpt>
      <trkpt lat="45.68691263906658" lon="17.707264479249716">
        <ele>198.74</ele>
        <time>2023-10-16T16:28:59.627Z</time>
      </trkpt>
      <trkpt lat="45.686932085081935" lon="17.70727688446641">
        <ele>198.55</ele>
        <time>2023-10-16T16:29:00.404Z</time>
      </trkpt>
      <trkpt lat="45.68695186637342" lon="17.707287780940533">
        <ele>198.37</ele>
        <time>2023-10-16T16:29:01.182Z</time>
      </trkpt>
      <trkpt lat="45.686971731483936" lon="17.70729742012918">
        <ele>198.17</ele>
        <time>2023-10-16T16:29:01.961Z</time>
      </trkpt>
      <trkpt lat="45.68699159659445" lon="17.707306304946542">
        <ele>197.97</ele>
        <time>2023-10-16T16:29:02.740Z</time>
      </trkpt>
      <trkpt lat="45.68701146170497" lon="17.707315105944872">
        <ele>197.77</ele>
        <time>2023-10-16T16:29:03.520Z</time>
      </trkpt>
      <trkpt lat="45.687031326815486" lon="17.707323906943202">
        <ele>197.57</ele>
        <time>2023-10-16T16:29:04.301Z</time>
      </trkpt>
      <trkpt lat="45.687051191926" lon="17.707333294674754">
        <ele>197.36</ele>
        <time>2023-10-16T16:29:05.082Z</time>
      </trkpt>
      <trkpt lat="45.68707105703652" lon="17.70734326913953">
        <ele>197.15</ele>
        <time>2023-10-16T16:29:05.864Z</time>
      </trkpt>
      <trkpt lat="45.687090922147036" lon="17.70735366269946">
        <ele>196.93</ele>
        <time>2023-10-16T16:29:06.647Z</time>
      </trkpt>
      <trkpt lat="45.68711053580046" lon="17.707364559173584">
        <ele>196.71</ele>
        <time>2023-10-16T16:29:07.430Z</time>
      </trkpt>
      <trkpt lat="45.687129981815815" lon="17.70737604238093">
        <ele>196.48</ele>
        <time>2023-10-16T16:29:08.214Z</time>
      </trkpt>
      <trkpt lat="45.68714984692633" lon="17.70738827995956">
        <ele>196.26</ele>
        <time>2023-10-16T16:29:08.999Z</time>
      </trkpt>
      <trkpt lat="45.687170047312975" lon="17.70740143954754">
        <ele>196.02</ele>
        <time>2023-10-16T16:29:09.785Z</time>
      </trkpt>
      <trkpt lat="45.68719033151865" lon="17.7074156049639">
        <ele>195.79</ele>
        <time>2023-10-16T16:29:10.571Z</time>
      </trkpt>
      <trkpt lat="45.68721086718142" lon="17.70743086002767">
        <ele>195.55</ele>
        <time>2023-10-16T16:29:11.358Z</time>
      </trkpt>
      <trkpt lat="45.687231654301286" lon="17.70744745619595">
        <ele>195.31</ele>
        <time>2023-10-16T16:29:12.146Z</time>
      </trkpt>
      <trkpt lat="45.687252609059215" lon="17.707465896382928">
        <ele>195.06</ele>
        <time>2023-10-16T16:29:12.935Z</time>
      </trkpt>
      <trkpt lat="45.68727356381714" lon="17.70748609676957">
        <ele>194.82</ele>
        <time>2023-10-16T16:29:13.725Z</time>
      </trkpt>
      <trkpt lat="45.687294183298945" lon="17.70750847645104">
        <ele>194.57</ele>
        <time>2023-10-16T16:29:14.515Z</time>
      </trkpt>
      <trkpt lat="45.68731480278075" lon="17.707533622160554">
        <ele>194.31</ele>
        <time>2023-10-16T16:29:15.306Z</time>
      </trkpt>
      <trkpt lat="45.68733491934836" lon="17.707561533898115">
        <ele>194.06</ele>
        <time>2023-10-16T16:29:16.098Z</time>
      </trkpt>
      <trkpt lat="45.68735453300178" lon="17.707592295482755">
        <ele>193.79</ele>
        <time>2023-10-16T16:29:16.891Z</time>
      </trkpt>
      <trkpt lat="45.68737339228392" lon="17.707625571638346">
        <ele>193.53</ele>
        <time>2023-10-16T16:29:17.685Z</time>
      </trkpt>
      <trkpt lat="45.687391329556704" lon="17.70766102708876">
        <ele>193.26</ele>
        <time>2023-10-16T16:29:18.480Z</time>
      </trkpt>
      <trkpt lat="45.68740868009627" lon="17.707698661834">
        <ele>192.99</ele>
        <time>2023-10-16T16:29:19.276Z</time>
      </trkpt>
      <trkpt lat="45.68742544390261" lon="17.707737805321813">
        <ele>192.72</ele>
        <time>2023-10-16T16:29:20.073Z</time>
      </trkpt>
      <trkpt lat="45.687441788613796" lon="17.70777770318091">
        <ele>192.45</ele>
        <time>2023-10-16T16:29:20.871Z</time>
      </trkpt>
      <trkpt lat="45.687457881867886" lon="17.707817181944847">
        <ele>192.18</ele>
        <time>2023-10-16T16:29:21.671Z</time>
      </trkpt>
      <trkpt lat="45.68747422657907" lon="17.70785599015653">
        <ele>191.91</ele>
        <time>2023-10-16T16:29:22.472Z</time>
      </trkpt>
      <trkpt lat="45.68749115802348" lon="17.707893289625645">
        <ele>191.64</ele>
        <time>2023-10-16T16:29:23.274Z</time>
      </trkpt>
      <trkpt lat="45.687508676201105" lon="17.7079283259809">
        <ele>191.36</ele>
        <time>2023-10-16T16:29:24.077Z</time>
      </trkpt>
      <trkpt lat="45.68752694875002" lon="17.707961099222302">
        <ele>191.09</ele>
        <time>2023-10-16T16:29:24.881Z</time>
      </trkpt>
      <trkpt lat="45.68754639476538" lon="17.70799169316888">
        <ele>190.82</ele>
        <time>2023-10-16T16:29:25.686Z</time>
      </trkpt>
      <trkpt lat="45.68756693042815" lon="17.708020443096757">
        <ele>190.54</ele>
        <time>2023-10-16T16:29:26.492Z</time>
      </trkpt>
      <trkpt lat="45.68758838810027" lon="17.708047600463033">
        <ele>190.27</ele>
        <time>2023-10-16T16:29:27.298Z</time>
      </trkpt>
      <trkpt lat="45.68761051632464" lon="17.708073081448674">
        <ele>190.0</ele>
        <time>2023-10-16T16:29:28.105Z</time>
      </trkpt>
      <trkpt lat="45.68763365037739" lon="17.708097556605935">
        <ele>189.73</ele>
        <time>2023-10-16T16:29:28.913Z</time>
      </trkpt>
      <trkpt lat="45.68765762262046" lon="17.70812119357288">
        <ele>189.46</ele>
        <time>2023-10-16T16:29:29.722Z</time>
      </trkpt>
      <trkpt lat="45.687682181596756" lon="17.70814415998757">
        <ele>189.2</ele>
        <time>2023-10-16T16:29:30.532Z</time>
      </trkpt>
      <trkpt lat="45.68770715966821" lon="17.70816628821194">
        <ele>188.93</ele>
        <time>2023-10-16T16:29:31.343Z</time>
      </trkpt>
      <trkpt lat="45.68773264065385" lon="17.70818766206503">
        <ele>188.67</ele>
        <time>2023-10-16T16:29:32.155Z</time>
      </trkpt>
      <trkpt lat="45.68775845691562" lon="17.7082081977278">
        <ele>188.41</ele>
        <time>2023-10-16T16:29:32.968Z</time>
      </trkpt>
      <trkpt lat="45.68778452463448" lon="17.708227643743157">
        <ele>188.15</ele>
        <time>2023-10-16T16:29:33.782Z</time>
      </trkpt>
      <trkpt lat="45.68781075999141" lon="17.70824583247304">
        <ele>187.89</ele>
        <time>2023-10-16T16:29:34.597Z</time>
      </trkpt>
      <trkpt lat="45.68783733062446" lon="17.708262847736478">
        <ele>187.63</ele>
        <time>2023-10-16T16:29:35.413Z</time>
      </trkpt>
      <trkpt lat="45.687864404171705" lon="17.70827852189541">
        <ele>187.38</ele>
        <time>2023-10-16T16:29:36.230Z</time>
      </trkpt>
      <trkpt lat="45.68789189681411" lon="17.7082927711308">
        <ele>187.13</ele>
        <time>2023-10-16T16:29:37.048Z</time>
      </trkpt>
      <trkpt lat="45.68791938945651" lon="17.708305595442653">
        <ele>186.89</ele>
        <time>2023-10-16T16:29:37.867Z</time>
      </trkpt>
      <trkpt lat="45.68794713355601" lon="17.708317413926125">
        <ele>186.65</ele>
        <time>2023-10-16T16:29:38.687Z</time>
      </trkpt>
      <trkpt lat="45.687974877655506" lon="17.708328645676374">
        <ele>186.41</ele>
        <time>2023-10-16T16:29:39.508Z</time>
      </trkpt>
      <trkpt lat="45.68800228647888" lon="17.708340045064688">
        <ele>186.17</ele>
        <time>2023-10-16T16:29:40.330Z</time>
      </trkpt>
      <trkpt lat="45.6880287732929" lon="17.70835236646235">
        <ele>185.94</ele>
        <time>2023-10-16T16:29:41.153Z</time>
      </trkpt>
      <trkpt lat="45.68805417045951" lon="17.708366196602583">
        <ele>185.71</ele>
        <time>2023-10-16T16:29:41.977Z</time>
      </trkpt>
      <trkpt lat="45.688078394159675" lon="17.708382373675704">
        <ele>185.49</ele>
        <time>2023-10-16T16:29:42.802Z</time>
      </trkpt>
      <trkpt lat="45.68810152821243" lon="17.70840081386268">
        <ele>185.27</ele>
        <time>2023-10-16T16:29:43.628Z</time>
      </trkpt>
      <trkpt lat="45.688123404979706" lon="17.708421433344483">
        <ele>185.05</ele>
        <time>2023-10-16T16:29:44.454Z</time>
      </trkpt>
      <trkpt lat="45.6881442759186" lon="17.708443896844983">
        <ele>184.84</ele>
        <time>2023-10-16T16:29:45.281Z</time>
      </trkpt>
      <trkpt lat="45.688164392486215" lon="17.708467952907085">
        <ele>184.63</ele>
        <time>2023-10-16T16:29:46.109Z</time>
      </trkpt>
      <trkpt lat="45.68818408995867" lon="17.70849360153079">
        <ele>184.42</ele>
        <time>2023-10-16T16:29:46.938Z</time>
      </trkpt>
      <trkpt lat="45.68820328451693" lon="17.70852042362094">
        <ele>184.22</ele>
        <time>2023-10-16T16:29:47.768Z</time>
      </trkpt>
      <trkpt lat="45.6882222276181" lon="17.708548167720437">
        <ele>184.02</ele>
        <time>2023-10-16T16:29:48.599Z</time>
      </trkpt>
      <trkpt lat="45.688241086900234" lon="17.708576079458">
        <ele>183.83</ele>
        <time>2023-10-16T16:29:49.431Z</time>
      </trkpt>
      <trkpt lat="45.68826044909656" lon="17.70860407501459">
        <ele>183.64</ele>
        <time>2023-10-16T16:29:50.264Z</time>
      </trkpt>
      <trkpt lat="45.688280230388045" lon="17.708631651476026">
        <ele>183.46</ele>
        <time>2023-10-16T16:29:51.098Z</time>
      </trkpt>
      <trkpt lat="45.68830043077469" lon="17.708658473566175">
        <ele>183.28</ele>
        <time>2023-10-16T16:29:51.933Z</time>
      </trkpt>
      <trkpt lat="45.68832096643746" lon="17.708684289827943">
        <ele>183.11</ele>
        <time>2023-10-16T16:29:52.769Z</time>
      </trkpt>
      <trkpt lat="45.68834158591926" lon="17.708709686994553">
        <ele>182.94</ele>
        <time>2023-10-16T16:29:53.605Z</time>
      </trkpt>
      <trkpt lat="45.688362289220095" lon="17.708734581246972">
        <ele>182.78</ele>
        <time>2023-10-16T16:29:54.442Z</time>
      </trkpt>
      <trkpt lat="45.6883829087019" lon="17.708758721128106">
        <ele>182.62</ele>
        <time>2023-10-16T16:29:55.280Z</time>
      </trkpt>
      <trkpt lat="45.68840310908854" lon="17.708782022818923">
        <ele>182.47</ele>
        <time>2023-10-16T16:29:56.119Z</time>
      </trkpt>
      <trkpt lat="45.68842322565615" lon="17.708804234862328">
        <ele>182.32</ele>
        <time>2023-10-16T16:29:56.959Z</time>
      </trkpt>
      <trkpt lat="45.68844325840473" lon="17.708825189620256">
        <ele>182.18</ele>
        <time>2023-10-16T16:29:57.800Z</time>
      </trkpt>
      <trkpt lat="45.68846320733428" lon="17.708845222368836">
        <ele>182.05</ele>
        <time>2023-10-16T16:29:58.642Z</time>
      </trkpt>
      <trkpt lat="45.68848290480673" lon="17.708864249289036">
        <ele>181.92</ele>
        <time>2023-10-16T16:29:59.484Z</time>
      </trkpt>
      <trkpt lat="45.688502602279186" lon="17.708882186561823">
        <ele>181.79</ele>
        <time>2023-10-16T16:30:00.327Z</time>
      </trkpt>
      <trkpt lat="45.68852238357067" lon="17.708899453282356">
        <ele>181.67</ele>
        <time>2023-10-16T16:30:01.171Z</time>
      </trkpt>
      <trkpt lat="45.68854241631925" lon="17.70891630090773">
        <ele>181.56</ele>
        <time>2023-10-16T16:30:02.016Z</time>
      </trkpt>
      <trkpt lat="45.688562700524926" lon="17.708932561799884">
        <ele>181.45</ele>
        <time>2023-10-16T16:30:02.861Z</time>
      </trkpt>
      <trkpt lat="45.6885829847306" lon="17.708948822692037">
        <ele>181.34</ele>
        <time>2023-10-16T16:30:03.707Z</time>
      </trkpt>
      <trkpt lat="45.68860310129821" lon="17.708965921774507">
        <ele>181.24</ele>
        <time>2023-10-16T16:30:04.554Z</time>
      </trkpt>
      <trkpt lat="45.688622798770666" lon="17.708984026685357">
        <ele>181.15</ele>
        <time>2023-10-16T16:30:05.402Z</time>
      </trkpt>
      <trkpt lat="45.68864140659571" lon="17.70900372415781">
        <ele>181.06</ele>
        <time>2023-10-16T16:30:06.251Z</time>
      </trkpt>
      <trkpt lat="45.68865858949721" lon="17.709025014191866">
        <ele>180.98</ele>
        <time>2023-10-16T16:30:07.100Z</time>
      </trkpt>
      <trkpt lat="45.688674096018076" lon="17.709048064425588">
        <ele>180.9</ele>
        <time>2023-10-16T16:30:07.950Z</time>
      </trkpt>
      <trkpt lat="45.68868792615831" lon="17.709072707220912">
        <ele>180.83</ele>
        <time>2023-10-16T16:30:08.801Z</time>
      </trkpt>
      <trkpt lat="45.68870007991791" lon="17.709099194034934">
        <ele>180.76</ele>
        <time>2023-10-16T16:30:09.653Z</time>
      </trkpt>
      <trkpt lat="45.688710724934936" lon="17.709127441048622">
        <ele>180.69</ele>
        <time>2023-10-16T16:30:10.505Z</time>
      </trkpt>
      <trkpt lat="45.68871969357133" lon="17.709157029166818">
        <ele>180.63</ele>
        <time>2023-10-16T16:30:11.358Z</time>
      </trkpt>
      <trkpt lat="45.688727321103215" lon="17.709187790751457">
        <ele>180.58</ele>
        <time>2023-10-16T16:30:12.212Z</time>
      </trkpt>
      <trkpt lat="45.688733691349626" lon="17.709219474345446">
        <ele>180.53</ele>
        <time>2023-10-16T16:30:13.067Z</time>
      </trkpt>
      <trkpt lat="45.68873888812959" lon="17.709252079948783">
        <ele>180.48</ele>
        <time>2023-10-16T16:30:13.922Z</time>
      </trkpt>
      <trkpt lat="45.688743498176336" lon="17.70928518846631">
        <ele>180.43</ele>
        <time>2023-10-16T16:30:14.778Z</time>
      </trkpt>
      <trkpt lat="45.68874802440405" lon="17.709318548440933">
        <ele>180.39</ele>
        <time>2023-10-16T16:30:15.635Z</time>
      </trkpt>
      <trkpt lat="45.68875288590789" lon="17.70935215987265">
        <ele>180.36</ele>
        <time>2023-10-16T16:30:16.493Z</time>
      </trkpt>
      <trkpt lat="45.688758585602045" lon="17.709386106580496">
        <ele>180.33</ele>
        <time>2023-10-16T16:30:17.352Z</time>
      </trkpt>
      <trkpt lat="45.68876503966749" lon="17.709420388564467">
        <ele>180.3</ele>
        <time>2023-10-16T16:30:18.211Z</time>
      </trkpt>
      <trkpt lat="45.68877216428518" lon="17.70945467054844">
        <ele>180.28</ele>
        <time>2023-10-16T16:30:19.071Z</time>
      </trkpt>
      <trkpt lat="45.6887798756361" lon="17.709488784894347">
        <ele>180.26</ele>
        <time>2023-10-16T16:30:19.932Z</time>
      </trkpt>
      <trkpt lat="45.68878850899637" lon="17.709522731602192">
        <ele>180.25</ele>
        <time>2023-10-16T16:30:20.794Z</time>
      </trkpt>
      <trkpt lat="45.688797729089856" lon="17.70955642685294">
        <ele>180.25</ele>
        <time>2023-10-16T16:30:21.657Z</time>
      </trkpt>
      <trkpt lat="45.68880778737366" lon="17.709589786827564">
        <ele>180.25</ele>
        <time>2023-10-16T16:30:22.521Z</time>
      </trkpt>
      <trkpt lat="45.68881885148585" lon="17.709621973335743">
        <ele>180.25</ele>
        <time>2023-10-16T16:30:23.385Z</time>
      </trkpt>
      <trkpt lat="45.68883066996932" lon="17.70965307019651">
        <ele>180.25</ele>
        <time>2023-10-16T16:30:24.250Z</time>
      </trkpt>
      <trkpt lat="45.68884324282408" lon="17.709683580324054">
        <ele>180.26</ele>
        <time>2023-10-16T16:30:25.116Z</time>
      </trkpt>
      <trkpt lat="45.68885648623109" lon="17.709713503718376">
        <ele>180.28</ele>
        <time>2023-10-16T16:30:25.983Z</time>
      </trkpt>
      <trkpt lat="45.68887006491423" lon="17.709742840379477">
        <ele>180.3</ele>
        <time>2023-10-16T16:30:26.851Z</time>
      </trkpt>
      <trkpt lat="45.68888397887349" lon="17.70977226085961">
        <ele>180.32</ele>
        <time>2023-10-16T16:30:27.720Z</time>
      </trkpt>
      <trkpt lat="45.68889814428985" lon="17.709801765158772">
        <ele>180.35</ele>
        <time>2023-10-16T16:30:28.589Z</time>
      </trkpt>
      <trkpt lat="45.688912477344275" lon="17.709831688553095">
        <ele>180.38</ele>
        <time>2023-10-16T16:30:29.459Z</time>
      </trkpt>
      <trkpt lat="45.6889268103987" lon="17.709861947223544">
        <ele>180.41</ele>
        <time>2023-10-16T16:30:30.330Z</time>
      </trkpt>
      <trkpt lat="45.68894105963409" lon="17.709892373532057">
        <ele>180.44</ele>
        <time>2023-10-16T16:30:31.202Z</time>
      </trkpt>
      <trkpt lat="45.68895539268851" lon="17.709923554211855">
        <ele>180.48</ele>
        <time>2023-10-16T16:30:32.075Z</time>
      </trkpt>
      <trkpt lat="45.688969725742936" lon="17.709955740720034">
        <ele>180.52</ele>
        <time>2023-10-16T16:30:32.949Z</time>
      </trkpt>
      <trkpt lat="45.68898397497833" lon="17.709989100694656">
        <ele>180.56</ele>
        <time>2023-10-16T16:30:33.824Z</time>
      </trkpt>
      <trkpt lat="45.68899830803275" lon="17.71002355031669">
        <ele>180.61</ele>
        <time>2023-10-16T16:30:34.700Z</time>
      </trkpt>
      <trkpt lat="45.68901247344911" lon="17.710059005767107">
        <ele>180.65</ele>
        <time>2023-10-16T16:30:35.577Z</time>
      </trkpt>
      <trkpt lat="45.68902663886547" lon="17.710095131769776">
        <ele>180.7</ele>
        <time>2023-10-16T16:30:36.455Z</time>
      </trkpt>
      <trkpt lat="45.68904088810086" lon="17.710131173953414">
        <ele>180.74</ele>
        <time>2023-10-16T16:30:37.333Z</time>
      </trkpt>
      <trkpt lat="45.68905538879335" lon="17.71016721613705">
        <ele>180.79</ele>
        <time>2023-10-16T16:30:38.212Z</time>
      </trkpt>
      <trkpt lat="45.68907022476196" lon="17.710202923044562">
        <ele>180.83</ele>
        <time>2023-10-16T16:30:39.092Z</time>
      </trkpt>
      <trkpt lat="45.6890853960067" lon="17.71023804321885">
        <ele>180.88</ele>
        <time>2023-10-16T16:30:39.973Z</time>
      </trkpt>
      <trkpt lat="45.689101070165634" lon="17.71027274429798">
        <ele>180.93</ele>
        <time>2023-10-16T16:30:40.855Z</time>
      </trkpt>
      <trkpt lat="45.68911707960069" lon="17.710306607186794">
        <ele>180.98</ele>
        <time>2023-10-16T16:30:41.738Z</time>
      </trkpt>
      <trkpt lat="45.689133424311876" lon="17.710339380428195">
        <ele>181.03</ele>
        <time>2023-10-16T16:30:42.622Z</time>
      </trkpt>
      <trkpt lat="45.68915018811822" lon="17.710371147841215">
        <ele>181.09</ele>
        <time>2023-10-16T16:30:43.507Z</time>
      </trkpt>
      <trkpt lat="45.68916737101972" lon="17.710401406511664">
        <ele>181.14</ele>
        <time>2023-10-16T16:30:44.393Z</time>
      </trkpt>
      <trkpt lat="45.68918505683541" lon="17.710430240258574">
        <ele>181.19</ele>
        <time>2023-10-16T16:30:45.280Z</time>
      </trkpt>
      <trkpt lat="45.68920358084142" lon="17.710457649081945">
        <ele>181.24</ele>
        <time>2023-10-16T16:30:46.168Z</time>
      </trkpt>
      <trkpt lat="45.68922260776162" lon="17.710483884438872">
        <ele>181.29</ele>
        <time>2023-10-16T16:30:47.057Z</time>
      </trkpt>
      <trkpt lat="45.68924222141504" lon="17.71050861105323">
        <ele>181.34</ele>
        <time>2023-10-16T16:30:47.947Z</time>
      </trkpt>
      <trkpt lat="45.68926217034459" lon="17.71053208038211">
        <ele>181.39</ele>
        <time>2023-10-16T16:30:48.837Z</time>
      </trkpt>
      <trkpt lat="45.6892822869122" lon="17.710554962977767">
        <ele>181.44</ele>
        <time>2023-10-16T16:30:49.728Z</time>
      </trkpt>
      <trkpt lat="45.68930231966078" lon="17.71057759411633">
        <ele>181.49</ele>
        <time>2023-10-16T16:30:50.620Z</time>
      </trkpt>
      <trkpt lat="45.68932210095227" lon="17.710599973797798">
        <ele>181.53</ele>
        <time>2023-10-16T16:30:51.513Z</time>
      </trkpt>
      <trkpt lat="45.6893412116915" lon="17.71062252111733">
        <ele>181.58</ele>
        <time>2023-10-16T16:30:52.407Z</time>
      </trkpt>
      <trkpt lat="45.68935940042138" lon="17.710645403712988">
        <ele>181.62</ele>
        <time>2023-10-16T16:30:53.302Z</time>
      </trkpt>
      <trkpt lat="45.68937649950385" lon="17.710668789222836">
        <ele>181.65</ele>
        <time>2023-10-16T16:30:54.197Z</time>
      </trkpt>
      <trkpt lat="45.68939200602472" lon="17.710693096742034">
        <ele>181.69</ele>
        <time>2023-10-16T16:30:55.093Z</time>
      </trkpt>
      <trkpt lat="45.68940583616495" lon="17.710718661546707">
        <ele>181.71</ele>
        <time>2023-10-16T16:30:55.990Z</time>
      </trkpt>
      <trkpt lat="45.68941765464842" lon="17.710745567455888">
        <ele>181.74</ele>
        <time>2023-10-16T16:30:56.888Z</time>
      </trkpt>
      <trkpt lat="45.6894276291132" lon="17.710773898288608">
        <ele>181.75</ele>
        <time>2023-10-16T16:30:57.786Z</time>
      </trkpt>
      <trkpt lat="45.68943567574024" lon="17.71080382168293">
        <ele>181.76</ele>
        <time>2023-10-16T16:30:58.685Z</time>
      </trkpt>
      <trkpt lat="45.689441710710526" lon="17.710834918543696">
        <ele>181.77</ele>
        <time>2023-10-16T16:30:59.585Z</time>
      </trkpt>
      <trkpt lat="45.68944590166211" lon="17.710867021232843">
        <ele>181.77</ele>
        <time>2023-10-16T16:31:00.486Z</time>
      </trkpt>
      <trkpt lat="45.68944833241403" lon="17.71090012975037">
        <ele>181.76</ele>
        <time>2023-10-16T16:31:01.388Z</time>
      </trkpt>
      <trkpt lat="45.68944917060435" lon="17.710933908820152">
        <ele>181.75</ele>
        <time>2023-10-16T16:31:02.290Z</time>
      </trkpt>
      <trkpt lat="45.68944875150919" lon="17.710968358442187">
        <ele>181.73</ele>
        <time>2023-10-16T16:31:03.193Z</time>
      </trkpt>
      <trkpt lat="45.68944741040468" lon="17.71100322715938">
        <ele>181.7</ele>
        <time>2023-10-16T16:31:04.097Z</time>
      </trkpt>
      <trkpt lat="45.68944548256695" lon="17.711038682609797">
        <ele>181.67</ele>
        <time>2023-10-16T16:31:05.002Z</time>
      </trkpt>
      <trkpt lat="45.68944338709116" lon="17.711074138060212">
        <ele>181.63</ele>
        <time>2023-10-16T16:31:05.908Z</time>
      </trkpt>
      <trkpt lat="45.68944129161537" lon="17.71110976114869">
        <ele>181.58</ele>
        <time>2023-10-16T16:31:06.814Z</time>
      </trkpt>
      <trkpt lat="45.68943911232054" lon="17.71114538423717">
        <ele>181.52</ele>
        <time>2023-10-16T16:31:07.721Z</time>
      </trkpt>
      <trkpt lat="45.68943701684475" lon="17.71118109114468">
        <ele>181.46</ele>
        <time>2023-10-16T16:31:08.629Z</time>
      </trkpt>
      <trkpt lat="45.68943500518799" lon="17.711216881871223">
        <ele>181.39</ele>
        <time>2023-10-16T16:31:09.538Z</time>
      </trkpt>
      <trkpt lat="45.68943299353123" lon="17.711252756416798">
        <ele>181.31</ele>
        <time>2023-10-16T16:31:10.448Z</time>
      </trkpt>
      <trkpt lat="45.6894310656935" lon="17.711288882419467">
        <ele>181.22</ele>
        <time>2023-10-16T16:31:11.359Z</time>
      </trkpt>
      <trkpt lat="45.689429473131895" lon="17.711325092241168">
        <ele>181.12</ele>
        <time>2023-10-16T16:31:12.270Z</time>
      </trkpt>
      <trkpt lat="45.689427964389324" lon="17.711361469700933">
        <ele>181.02</ele>
        <time>2023-10-16T16:31:13.182Z</time>
      </trkpt>
      <trkpt lat="45.68942645564675" lon="17.71139793097973">
        <ele>180.91</ele>
        <time>2023-10-16T16:31:14.095Z</time>
      </trkpt>
      <trkpt lat="45.68942486308515" lon="17.711434392258525">
        <ele>180.78</ele>
        <time>2023-10-16T16:31:15.009Z</time>
      </trkpt>
      <trkpt lat="45.68942301906645" lon="17.71147127263248">
        <ele>180.65</ele>
        <time>2023-10-16T16:31:15.924Z</time>
      </trkpt>
      <trkpt lat="45.6894207559526" lon="17.71150840446353">
        <ele>180.5</ele>
        <time>2023-10-16T16:31:16.840Z</time>
      </trkpt>
      <trkpt lat="45.68941798992455" lon="17.711545703932643">
        <ele>180.35</ele>
        <time>2023-10-16T16:31:17.757Z</time>
      </trkpt>
      <trkpt lat="45.68941497243941" lon="17.71158325485885">
        <ele>180.18</ele>
        <time>2023-10-16T16:31:18.675Z</time>
      </trkpt>
      <trkpt lat="45.68941161967814" lon="17.711621057242155">
        <ele>180.01</ele>
        <time>2023-10-16T16:31:19.593Z</time>
      </trkpt>
      <trkpt lat="45.689408015459776" lon="17.711659194901586">
        <ele>179.83</ele>
        <time>2023-10-16T16:31:20.512Z</time>
      </trkpt>
      <trkpt lat="45.68940382450819" lon="17.71169750019908">
        <ele>179.65</ele>
        <time>2023-10-16T16:31:21.432Z</time>
      </trkpt>
      <trkpt lat="45.689399130642414" lon="17.71173572167754">
        <ele>179.45</ele>
        <time>2023-10-16T16:31:22.353Z</time>
      </trkpt>
      <trkpt lat="45.68939368240535" lon="17.711773943156004">
        <ele>179.24</ele>
        <time>2023-10-16T16:31:23.275Z</time>
      </trkpt>
      <trkpt lat="45.689387479797006" lon="17.71181191317737">
        <ele>179.02</ele>
        <time>2023-10-16T16:31:24.198Z</time>
      </trkpt>
      <trkpt lat="45.68938069045544" lon="17.71184954792261">
        <ele>178.8</ele>
        <time>2023-10-16T16:31:25.122Z</time>
      </trkpt>
      <trkpt lat="45.68937348201871" lon="17.711886512115598">
        <ele>178.56</ele>
        <time>2023-10-16T16:31:26.047Z</time>
      </trkpt>
      <trkpt lat="45.689365938305855" lon="17.711922889575362">
        <ele>178.32</ele>
        <time>2023-10-16T16:31:26.973Z</time>
      </trkpt>
      <trkpt lat="45.689358143135905" lon="17.711958847939968">
        <ele>178.07</ele>
        <time>2023-10-16T16:31:27.900Z</time>
      </trkpt>
      <trkpt lat="45.689350347965956" lon="17.711994387209415">
        <ele>177.81</ele>
        <time>2023-10-16T16:31:28.827Z</time>
      </trkpt>
      <trkpt lat="45.68934238515794" lon="17.712029423564672">
        <ele>177.54</ele>
        <time>2023-10-16T16:31:29.755Z</time>
      </trkpt>
      <trkpt lat="45.6893343385309" lon="17.712064292281866">
        <ele>177.27</ele>
        <time>2023-10-16T16:31:30.684Z</time>
      </trkpt>
      <trkpt lat="45.68932662717998" lon="17.712099412456155">
        <ele>176.98</ele>
        <time>2023-10-16T16:31:31.614Z</time>
      </trkpt>
      <trkpt lat="45.68931933492422" lon="17.712135203182697">
        <ele>176.69</ele>
        <time>2023-10-16T16:31:32.545Z</time>
      </trkpt>
      <trkpt lat="45.689312629401684" lon="17.71217199973762">
        <ele>176.39</ele>
        <time>2023-10-16T16:31:33.477Z</time>
      </trkpt>
      <trkpt lat="45.689306845888495" lon="17.712209969758987">
        <ele>176.09</ele>
        <time>2023-10-16T16:31:34.410Z</time>
      </trkpt>
      <trkpt lat="45.689301984384656" lon="17.712248861789703">
        <ele>175.77</ele>
        <time>2023-10-16T16:31:35.344Z</time>
      </trkpt>
      <trkpt lat="45.6892978772521" lon="17.712288424372673">
        <ele>175.45</ele>
        <time>2023-10-16T16:31:36.278Z</time>
      </trkpt>
      <trkpt lat="45.68929452449083" lon="17.71232890896499">
        <ele>175.12</ele>
        <time>2023-10-16T16:31:37.213Z</time>
      </trkpt>
      <trkpt lat="45.68929175846279" lon="17.712369980290532">
        <ele>174.78</ele>
        <time>2023-10-16T16:31:38.149Z</time>
      </trkpt>
      <trkpt lat="45.68928949534893" lon="17.712411303073168">
        <ele>174.44</ele>
        <time>2023-10-16T16:31:39.086Z</time>
      </trkpt>
      <trkpt lat="45.689287818968296" lon="17.71245254203677">
        <ele>174.09</ele>
        <time>2023-10-16T16:31:40.024Z</time>
      </trkpt>
      <trkpt lat="45.68928689695895" lon="17.71249352954328">
        <ele>173.73</ele>
        <time>2023-10-16T16:31:40.963Z</time>
      </trkpt>
      <trkpt lat="45.689286813139915" lon="17.7125340141356">
        <ele>173.37</ele>
        <time>2023-10-16T16:31:41.903Z</time>
      </trkpt>
      <trkpt lat="45.689287735149264" lon="17.712573409080505">
        <ele>173.0</ele>
        <time>2023-10-16T16:31:42.844Z</time>
      </trkpt>
      <trkpt lat="45.68928957916796" lon="17.712611379101872">
        <ele>172.62</ele>
        <time>2023-10-16T16:31:43.786Z</time>
      </trkpt>
      <trkpt lat="45.68929226137698" lon="17.71264784038067">
        <ele>172.24</ele>
        <time>2023-10-16T16:31:44.729Z</time>
      </trkpt>
      <trkpt lat="45.689295614138246" lon="17.712682960554957">
        <ele>171.85</ele>
        <time>2023-10-16T16:31:45.673Z</time>
      </trkpt>
      <trkpt lat="45.6892997212708" lon="17.71271732635796">
        <ele>171.45</ele>
        <time>2023-10-16T16:31:46.618Z</time>
      </trkpt>
      <trkpt lat="45.68930458277464" lon="17.71275051869452">
        <ele>171.05</ele>
        <time>2023-10-16T16:31:47.563Z</time>
      </trkpt>
      <trkpt lat="45.68931053392589" lon="17.71278278902173">
        <ele>170.64</ele>
        <time>2023-10-16T16:31:48.509Z</time>
      </trkpt>
      <trkpt lat="45.68931732326746" lon="17.71281447261572">
        <ele>170.23</ele>
        <time>2023-10-16T16:31:49.456Z</time>
      </trkpt>
      <trkpt lat="45.68932528607547" lon="17.712845988571644">
        <ele>169.81</ele>
        <time>2023-10-16T16:31:50.404Z</time>
      </trkpt>
      <trkpt lat="45.68933400325477" lon="17.71287750452757">
        <ele>169.39</ele>
        <time>2023-10-16T16:31:51.352Z</time>
      </trkpt>
      <trkpt lat="45.68934339098632" lon="17.71290885284543">
        <ele>168.96</ele>
        <time>2023-10-16T16:31:52.301Z</time>
      </trkpt>
      <trkpt lat="45.689353197813034" lon="17.712940284982324">
        <ele>168.52</ele>
        <time>2023-10-16T16:31:53.251Z</time>
      </trkpt>
      <trkpt lat="45.689363507553935" lon="17.71297230385244">
        <ele>168.09</ele>
        <time>2023-10-16T16:31:54.202Z</time>
      </trkpt>
      <trkpt lat="45.68937406875193" lon="17.713004909455776">
        <ele>167.65</ele>
        <time>2023-10-16T16:31:55.154Z</time>
      </trkpt>
      <trkpt lat="45.689385049045086" lon="17.7130382694304">
        <ele>167.2</ele>
        <time>2023-10-16T16:31:56.107Z</time>
      </trkpt>
      <trkpt lat="45.689396196976304" lon="17.713071880862117">
        <ele>166.76</ele>
        <time>2023-10-16T16:31:57.060Z</time>
      </trkpt>
      <trkpt lat="45.68940776400268" lon="17.71310616284609">
        <ele>166.31</ele>
        <time>2023-10-16T16:31:58.014Z</time>
      </trkpt>
      <trkpt lat="45.68941941484809" lon="17.713141115382314">
        <ele>165.85</ele>
        <time>2023-10-16T16:31:58.969Z</time>
      </trkpt>
      <trkpt lat="45.6894310656935" lon="17.71317657083273">
        <ele>165.39</ele>
        <time>2023-10-16T16:31:59.925Z</time>
      </trkpt>
      <trkpt lat="45.689442716538906" lon="17.713212026283145">
        <ele>164.94</ele>
        <time>2023-10-16T16:32:00.882Z</time>
      </trkpt>
      <trkpt lat="45.68945428356528" lon="17.71324748173356">
        <ele>164.47</ele>
        <time>2023-10-16T16:32:01.840Z</time>
      </trkpt>
      <trkpt lat="45.68946585059166" lon="17.713283440098166">
        <ele>164.01</ele>
        <time>2023-10-16T16:32:02.799Z</time>
      </trkpt>
      <trkpt lat="45.68947724997997" lon="17.713319649919868">
        <ele>163.55</ele>
        <time>2023-10-16T16:32:03.759Z</time>
      </trkpt>
      <trkpt lat="45.68948839791119" lon="17.71335585974157">
        <ele>163.08</ele>
        <time>2023-10-16T16:32:04.720Z</time>
      </trkpt>
      <trkpt lat="45.689499294385314" lon="17.713392237201333">
        <ele>162.62</ele>
        <time>2023-10-16T16:32:05.682Z</time>
      </trkpt>
      <trkpt lat="45.68950977176428" lon="17.71342928521335">
        <ele>162.15</ele>
        <time>2023-10-16T16:32:06.645Z</time>
      </trkpt>
      <trkpt lat="45.68952008150518" lon="17.713466752320528">
        <ele>161.68</ele>
        <time>2023-10-16T16:32:07.609Z</time>
      </trkpt>
      <trkpt lat="45.68952980451286" lon="17.7135044708848">
        <ele>161.22</ele>
        <time>2023-10-16T16:32:08.574Z</time>
      </trkpt>
      <trkpt lat="45.68953910842538" lon="17.713542357087135">
        <ele>160.75</ele>
        <time>2023-10-16T16:32:09.539Z</time>
      </trkpt>
      <trkpt lat="45.689547741785645" lon="17.713580410927534">
        <ele>160.29</ele>
        <time>2023-10-16T16:32:10.505Z</time>
      </trkpt>
      <trkpt lat="45.68955562077463" lon="17.71361880004406">
        <ele>159.83</ele>
        <time>2023-10-16T16:32:11.472Z</time>
      </trkpt>
      <trkpt lat="45.68956257775426" lon="17.713657524436712">
        <ele>159.36</ele>
        <time>2023-10-16T16:32:12.440Z</time>
      </trkpt>
      <trkpt lat="45.68956852890551" lon="17.7136960811913">
        <ele>158.91</ele>
        <time>2023-10-16T16:32:13.409Z</time>
      </trkpt>
      <trkpt lat="45.689573558047414" lon="17.713734386488795">
        <ele>158.45</ele>
        <time>2023-10-16T16:32:14.379Z</time>
      </trkpt>
      <trkpt lat="45.68957766517997" lon="17.713772859424353">
        <ele>157.99</ele>
        <time>2023-10-16T16:32:15.350Z</time>
      </trkpt>
      <trkpt lat="45.68958101794124" lon="17.71381124854088">
        <ele>157.54</ele>
        <time>2023-10-16T16:32:16.322Z</time>
      </trkpt>
      <trkpt lat="45.68958353251219" lon="17.713849134743214">
        <ele>157.09</ele>
        <time>2023-10-16T16:32:17.295Z</time>
      </trkpt>
      <trkpt lat="45.68958512507379" lon="17.713886434212327">
        <ele>156.64</ele>
        <time>2023-10-16T16:32:18.269Z</time>
      </trkpt>
      <trkpt lat="45.689585795626044" lon="17.713923314586282">
        <ele>156.2</ele>
        <time>2023-10-16T16:32:19.244Z</time>
      </trkpt>
      <trkpt lat="45.68958546034992" lon="17.713960027322173">
        <ele>155.77</ele>
        <time>2023-10-16T16:32:20.219Z</time>
      </trkpt>
      <trkpt lat="45.68958428688347" lon="17.713996656239033">
        <ele>155.35</ele>
        <time>2023-10-16T16:32:21.195Z</time>
      </trkpt>
      <trkpt lat="45.68958227522671" lon="17.714033033698797">
        <ele>154.93</ele>
        <time>2023-10-16T16:32:22.172Z</time>
      </trkpt>
      <trkpt lat="45.68957967683673" lon="17.7140692435205">
        <ele>154.52</ele>
        <time>2023-10-16T16:32:23.150Z</time>
      </trkpt>
      <trkpt lat="45.689576491713524" lon="17.714105285704136">
        <ele>154.11</ele>
        <time>2023-10-16T16:32:24.129Z</time>
      </trkpt>
      <trkpt lat="45.6895727198571" lon="17.7141416631639">
        <ele>153.71</ele>
        <time>2023-10-16T16:32:25.109Z</time>
      </trkpt>
      <trkpt lat="45.68956836126745" lon="17.71417778916657">
        <ele>153.31</ele>
        <time>2023-10-16T16:32:26.090Z</time>
      </trkpt>
      <trkpt lat="45.6895637512207" lon="17.714213579893112">
        <ele>152.92</ele>
        <time>2023-10-16T16:32:27.071Z</time>
      </trkpt>
      <trkpt lat="45.68955914117396" lon="17.71424911916256">
        <ele>152.53</ele>
        <time>2023-10-16T16:32:28.053Z</time>
      </trkpt>
      <trkpt lat="45.68955469876528" lon="17.714284155517817">
        <ele>152.15</ele>
        <time>2023-10-16T16:32:29.036Z</time>
      </trkpt>
      <trkpt lat="45.689550591632724" lon="17.714319108054042">
        <ele>151.78</ele>
        <time>2023-10-16T16:32:30.020Z</time>
      </trkpt>
      <trkpt lat="45.68954698741436" lon="17.714353809133172">
        <ele>151.42</ele>
        <time>2023-10-16T16:32:31.005Z</time>
      </trkpt>
      <trkpt lat="45.68954396992922" lon="17.71438842639327">
        <ele>151.06</ele>
        <time>2023-10-16T16:32:31.991Z</time>
      </trkpt>
      <trkpt lat="45.68954162299633" lon="17.71442354656756">
        <ele>150.71</ele>
        <time>2023-10-16T16:32:32.977Z</time>
      </trkpt>
      <trkpt lat="45.68954003043473" lon="17.71445916965604">
        <ele>150.36</ele>
        <time>2023-10-16T16:32:33.964Z</time>
      </trkpt>
      <trkpt lat="45.68953902460635" lon="17.71449537947774">
        <ele>150.02</ele>
        <time>2023-10-16T16:32:34.952Z</time>
      </trkpt>
      <trkpt lat="45.68953877314925" lon="17.7145320083946">
        <ele>149.69</ele>
        <time>2023-10-16T16:32:35.941Z</time>
      </trkpt>
      <trkpt lat="45.689538940787315" lon="17.714569559320807">
        <ele>149.36</ele>
        <time>2023-10-16T16:32:36.931Z</time>
      </trkpt>
      <trkpt lat="45.68953910842538" lon="17.714608116075397">
        <ele>149.04</ele>
        <time>2023-10-16T16:32:37.922Z</time>
      </trkpt>
      <trkpt lat="45.68953902460635" lon="17.714647511020303">
        <ele>148.72</ele>
        <time>2023-10-16T16:32:38.914Z</time>
      </trkpt>
      <trkpt lat="45.68953868933022" lon="17.714687827974558">
        <ele>148.42</ele>
        <time>2023-10-16T16:32:39.907Z</time>
      </trkpt>
      <trkpt lat="45.689538102597" lon="17.7147288993001">
        <ele>148.11</ele>
        <time>2023-10-16T16:32:40.900Z</time>
      </trkpt>
      <trkpt lat="45.689537432044744" lon="17.714770305901766">
        <ele>147.82</ele>
        <time>2023-10-16T16:32:41.894Z</time>
      </trkpt>
      <trkpt lat="45.68953709676862" lon="17.71481154486537">
        <ele>147.53</ele>
        <time>2023-10-16T16:32:42.889Z</time>
      </trkpt>
      <trkpt lat="45.68953718058765" lon="17.71485169418156">
        <ele>147.24</ele>
        <time>2023-10-16T16:32:43.885Z</time>
      </trkpt>
      <trkpt lat="45.6895378511399" lon="17.71489075385034">
        <ele>146.96</ele>
        <time>2023-10-16T16:32:44.882Z</time>
      </trkpt>
      <trkpt lat="45.68953919224441" lon="17.714928975328803">
        <ele>146.68</ele>
        <time>2023-10-16T16:32:45.880Z</time>
      </trkpt>
      <trkpt lat="45.68954120390117" lon="17.714966610074043">
        <ele>146.41</ele>
        <time>2023-10-16T16:32:46.879Z</time>
      </trkpt>
      <trkpt lat="45.68954405374825" lon="17.715003322809935">
        <ele>146.14</ele>
        <time>2023-10-16T16:32:47.879Z</time>
      </trkpt>
      <trkpt lat="45.68954790942371" lon="17.715039616450667">
        <ele>145.88</ele>
        <time>2023-10-16T16:32:48.880Z</time>
      </trkpt>
      <trkpt lat="45.68955285474658" lon="17.715075742453337">
        <ele>145.63</ele>
        <time>2023-10-16T16:32:49.882Z</time>
      </trkpt>
      <trkpt lat="45.68955880589783" lon="17.715111868456006">
        <ele>145.38</ele>
        <time>2023-10-16T16:32:50.884Z</time>
      </trkpt>
      <trkpt lat="45.689565762877464" lon="17.71514774300158">
        <ele>145.14</ele>
        <time>2023-10-16T16:32:51.887Z</time>
      </trkpt>
      <trkpt lat="45.689573558047414" lon="17.715183533728123">
        <ele>144.9</ele>
        <time>2023-10-16T16:32:52.891Z</time>
      </trkpt>
      <trkpt lat="45.68958210758865" lon="17.71522007882595">
        <ele>144.66</ele>
        <time>2023-10-16T16:32:53.896Z</time>
      </trkpt>
      <trkpt lat="45.689591243863106" lon="17.71525771357119">
        <ele>144.43</ele>
        <time>2023-10-16T16:32:54.902Z</time>
      </trkpt>
      <trkpt lat="45.68960071541369" lon="17.715296102687716">
        <ele>144.2</ele>
        <time>2023-10-16T16:32:55.909Z</time>
      </trkpt>
      <trkpt lat="45.68961060605943" lon="17.715335162356496">
        <ele>143.98</ele>
        <time>2023-10-16T16:32:56.917Z</time>
      </trkpt>
      <trkpt lat="45.68962091580033" lon="17.715375060215592">
        <ele>143.76</ele>
        <time>2023-10-16T16:32:57.926Z</time>
      </trkpt>
      <trkpt lat="45.68963164463639" lon="17.71541546098888">
        <ele>143.54</ele>
        <time>2023-10-16T16:32:58.936Z</time>
      </trkpt>
      <trkpt lat="45.68964270874858" lon="17.715455694124103">
        <ele>143.33</ele>
        <time>2023-10-16T16:32:59.947Z</time>
      </trkpt>
      <trkpt lat="45.689654191955924" lon="17.715495759621263">
        <ele>143.12</ele>
        <time>2023-10-16T16:33:00.959Z</time>
      </trkpt>
      <trkpt lat="45.689666010439396" lon="17.71553515456617">
        <ele>142.91</ele>
        <time>2023-10-16T16:33:01.972Z</time>
      </trkpt>
      <trkpt lat="45.68967799656093" lon="17.71557387895882">
        <ele>142.7</ele>
        <time>2023-10-16T16:33:02.986Z</time>
      </trkpt>
      <trkpt lat="45.6896900665015" lon="17.71561193279922">
        <ele>142.5</ele>
        <time>2023-10-16T16:33:04.001Z</time>
      </trkpt>
      <trkpt lat="45.689701968804" lon="17.71564906463027">
        <ele>142.3</ele>
        <time>2023-10-16T16:33:05.017Z</time>
      </trkpt>
      <trkpt lat="45.68971370346844" lon="17.71568519063294">
        <ele>142.11</ele>
        <time>2023-10-16T16:33:06.034Z</time>
      </trkpt>
      <trkpt lat="45.68972535431385" lon="17.71572039462626">
        <ele>141.91</ele>
        <time>2023-10-16T16:33:07.052Z</time>
      </trkpt>
      <trkpt lat="45.68973708897829" lon="17.715754341334105">
        <ele>141.72</ele>
        <time>2023-10-16T16:33:08.071Z</time>
      </trkpt>
      <trkpt lat="45.689749075099826" lon="17.71578677929938">
        <ele>141.54</ele>
        <time>2023-10-16T16:33:09.091Z</time>
      </trkpt>
      <trkpt lat="45.689761312678456" lon="17.715817959979177">
        <ele>141.35</ele>
        <time>2023-10-16T16:33:10.111Z</time>
      </trkpt>
      <trkpt lat="45.689773885533214" lon="17.71584796719253">
        <ele>141.17</ele>
        <time>2023-10-16T16:33:11.132Z</time>
      </trkpt>
      <trkpt lat="45.6897867936641" lon="17.7158772200346">
        <ele>140.98</ele>
        <time>2023-10-16T16:33:12.154Z</time>
      </trkpt>
      <trkpt lat="45.689799869433045" lon="17.71590605378151">
        <ele>140.8</ele>
        <time>2023-10-16T16:33:13.177Z</time>
      </trkpt>
      <trkpt lat="45.68981319665909" lon="17.71593497134745">
        <ele>140.62</ele>
        <time>2023-10-16T16:33:14.201Z</time>
      </trkpt>
      <trkpt lat="45.689826691523194" lon="17.715964140370488">
        <ele>140.44</ele>
        <time>2023-10-16T16:33:15.225Z</time>
      </trkpt>
      <trkpt lat="45.68984010256827" lon="17.715993644669652">
        <ele>140.27</ele>
        <time>2023-10-16T16:33:16.250Z</time>
      </trkpt>
      <trkpt lat="45.68985342979431" lon="17.716023484244943">
        <ele>140.09</ele>
        <time>2023-10-16T16:33:17.276Z</time>
      </trkpt>
      <trkpt lat="45.68986667320132" lon="17.71605407819152">
        <ele>139.91</ele>
        <time>2023-10-16T16:33:18.303Z</time>
      </trkpt>
      <trkpt lat="45.68987958133221" lon="17.716085677966475">
        <ele>139.74</ele>
        <time>2023-10-16T16:33:19.331Z</time>
      </trkpt>
      <trkpt lat="45.6898919865489" lon="17.71611819975078">
        <ele>139.56</ele>
        <time>2023-10-16T16:33:20.360Z</time>
      </trkpt>
      <trkpt lat="45.68990363739431" lon="17.716151727363467">
        <ele>139.38</ele>
        <time>2023-10-16T16:33:21.389Z</time>
      </trkpt>
      <trkpt lat="45.689914701506495" lon="17.71618609316647">
        <ele>139.21</ele>
        <time>2023-10-16T16:33:22.419Z</time>
      </trkpt>
      <trkpt lat="45.68992517888546" lon="17.716221548616886">
        <ele>139.03</ele>
        <time>2023-10-16T16:33:23.450Z</time>
      </trkpt>
      <trkpt lat="45.689935237169266" lon="17.71625784225762">
        <ele>138.85</ele>
        <time>2023-10-16T16:33:24.482Z</time>
      </trkpt>
      <trkpt lat="45.68994504399598" lon="17.71629447117448">
        <ele>138.67</ele>
        <time>2023-10-16T16:33:25.515Z</time>
      </trkpt>
      <trkpt lat="45.68995501846075" lon="17.71633118391037">
        <ele>138.5</ele>
        <time>2023-10-16T16:33:26.549Z</time>
      </trkpt>
      <trkpt lat="45.68996524438262" lon="17.71636789664626">
        <ele>138.32</ele>
        <time>2023-10-16T16:33:27.584Z</time>
      </trkpt>
      <trkpt lat="45.68997597321868" lon="17.716404693201184">
        <ele>138.14</ele>
        <time>2023-10-16T16:33:28.620Z</time>
      </trkpt>
      <trkpt lat="45.68998728878796" lon="17.71644107066095">
        <ele>137.96</ele>
        <time>2023-10-16T16:33:29.657Z</time>
      </trkpt>
      <trkpt lat="45.689999191090465" lon="17.716477196663618">
        <ele>137.78</ele>
        <time>2023-10-16T16:33:30.695Z</time>
      </trkpt>
      <trkpt lat="45.69001168012619" lon="17.716513238847256">
        <ele>137.6</ele>
        <time>2023-10-16T16:33:31.734Z</time>
      </trkpt>
      <trkpt lat="45.6900249235332" lon="17.71654919721186">
        <ele>137.43</ele>
        <time>2023-10-16T16:33:32.774Z</time>
      </trkpt>
      <trkpt lat="45.690038837492466" lon="17.716585155576468">
        <ele>137.25</ele>
        <time>2023-10-16T16:33:33.815Z</time>
      </trkpt>
      <trkpt lat="45.69005325436592" lon="17.716620694845915">
        <ele>137.07</ele>
        <time>2023-10-16T16:33:34.857Z</time>
      </trkpt>
      <trkpt lat="45.69006850942969" lon="17.716656317934394">
        <ele>136.89</ele>
        <time>2023-10-16T16:33:35.900Z</time>
      </trkpt>
      <trkpt lat="45.69008443504572" lon="17.716691941022873">
        <ele>136.7</ele>
        <time>2023-10-16T16:33:36.943Z</time>
      </trkpt>
      <trkpt lat="45.690100863575935" lon="17.71672748029232">
        <ele>136.52</ele>
        <time>2023-10-16T16:33:37.987Z</time>
      </trkpt>
      <trkpt lat="45.69011779502034" lon="17.71676260046661">
        <ele>136.33</ele>
        <time>2023-10-16T16:33:39.032Z</time>
      </trkpt>
      <trkpt lat="45.69013522937894" lon="17.716797469183803">
        <ele>136.15</ele>
        <time>2023-10-16T16:33:40.078Z</time>
      </trkpt>
      <trkpt lat="45.69015299901366" lon="17.716831834986806">
        <ele>135.96</ele>
        <time>2023-10-16T16:33:41.125Z</time>
      </trkpt>
      <trkpt lat="45.69017102010548" lon="17.716865362599492">
        <ele>135.77</ele>
        <time>2023-10-16T16:33:42.173Z</time>
      </trkpt>
      <trkpt lat="45.69018912501633" lon="17.716897884383798">
        <ele>135.58</ele>
        <time>2023-10-16T16:33:43.222Z</time>
      </trkpt>
      <trkpt lat="45.690207313746214" lon="17.716929400339723">
        <ele>135.39</ele>
        <time>2023-10-16T16:33:44.272Z</time>
      </trkpt>
      <trkpt lat="45.69022558629513" lon="17.716959910467267">
        <ele>135.19</ele>
        <time>2023-10-16T16:33:45.323Z</time>
      </trkpt>
      <trkpt lat="45.690244026482105" lon="17.716989498585463">
        <ele>135.0</ele>
        <time>2023-10-16T16:33:46.375Z</time>
      </trkpt>
      <trkpt lat="45.690262550488114" lon="17.717018080875278">
        <ele>134.81</ele>
        <time>2023-10-16T16:33:47.428Z</time>
      </trkpt>
      <trkpt lat="45.69028107449412" lon="17.717045741155744">
        <ele>134.61</ele>
        <time>2023-10-16T16:33:48.482Z</time>
      </trkpt>
      <trkpt lat="45.690299682319164" lon="17.717072814702988">
        <ele>134.42</ele>
        <time>2023-10-16T16:33:49.537Z</time>
      </trkpt>
      <trkpt lat="45.69031820632517" lon="17.717099552974105">
        <ele>134.22</ele>
        <time>2023-10-16T16:33:50.593Z</time>
      </trkpt>
      <trkpt lat="45.69033647887409" lon="17.717125955969095">
        <ele>134.02</ele>
        <time>2023-10-16T16:33:51.650Z</time>
      </trkpt>
      <trkpt lat="45.69035458378494" lon="17.717152778059244">
        <ele>133.82</ele>
        <time>2023-10-16T16:33:52.708Z</time>
      </trkpt>
      <trkpt lat="45.69037243723869" lon="17.71718035452068">
        <ele>133.62</ele>
        <time>2023-10-16T16:33:53.766Z</time>
      </trkpt>
      <trkpt lat="45.69038987159729" lon="17.717209020629525">
        <ele>133.41</ele>
        <time>2023-10-16T16:33:54.825Z</time>
      </trkpt>
      <trkpt lat="45.690406719222665" lon="17.717238944023848">
        <ele>133.21</ele>
        <time>2023-10-16T16:33:55.885Z</time>
      </trkpt>
      <trkpt lat="45.690422896295786" lon="17.717270040884614">
        <ele>133.01</ele>
        <time>2023-10-16T16:33:56.946Z</time>
      </trkpt>
      <trkpt lat="45.69043840281665" lon="17.717302897945046">
        <ele>132.8</ele>
        <time>2023-10-16T16:33:58.008Z</time>
      </trkpt>
      <trkpt lat="45.690453154966235" lon="17.71733726374805">
        <ele>132.6</ele>
        <time>2023-10-16T16:33:59.071Z</time>
      </trkpt>
      <trkpt lat="45.69046723656356" lon="17.717373054474592">
        <ele>132.39</ele>
        <time>2023-10-16T16:34:00.135Z</time>
      </trkpt>
      <trkpt lat="45.690480479970574" lon="17.717409934848547">
        <ele>132.19</ele>
        <time>2023-10-16T16:34:01.200Z</time>
      </trkpt>
      <trkpt lat="45.69049288518727" lon="17.717447988688946">
        <ele>131.98</ele>
        <time>2023-10-16T16:34:02.266Z</time>
      </trkpt>
      <trkpt lat="45.69050478748977" lon="17.717487132176757">
        <ele>131.77</ele>
        <time>2023-10-16T16:34:03.333Z</time>
      </trkpt>
      <trkpt lat="45.69051601924002" lon="17.717526694759727">
        <ele>131.57</ele>
        <time>2023-10-16T16:34:04.401Z</time>
      </trkpt>
      <trkpt lat="45.690526915714145" lon="17.717566341161728">
        <ele>131.37</ele>
        <time>2023-10-16T16:34:05.470Z</time>
      </trkpt>
      <trkpt lat="45.69053747691214" lon="17.71760556846857">
        <ele>131.17</ele>
        <time>2023-10-16T16:34:06.540Z</time>
      </trkpt>
      <trkpt lat="45.69054812192917" lon="17.71764412522316">
        <ele>130.98</ele>
        <time>2023-10-16T16:34:07.611Z</time>
      </trkpt>
      <trkpt lat="45.6905585154891" lon="17.717682011425495">
        <ele>130.78</ele>
        <time>2023-10-16T16:34:08.683Z</time>
      </trkpt>
      <trkpt lat="45.690568489953876" lon="17.717718556523323">
        <ele>130.59</ele>
        <time>2023-10-16T16:34:09.756Z</time>
      </trkpt>
      <trkpt lat="45.69057804532349" lon="17.717753760516644">
        <ele>130.4</ele>
        <time>2023-10-16T16:34:10.830Z</time>
      </trkpt>
      <trkpt lat="45.69058718159795" lon="17.717787958681583">
        <ele>130.21</ele>
        <time>2023-10-16T16:34:11.904Z</time>
      </trkpt>
      <trkpt lat="45.69059589877725" lon="17.71782106719911">
        <ele>130.03</ele>
        <time>2023-10-16T16:34:12.979Z</time>
      </trkpt>
      <trkpt lat="45.69060428068042" lon="17.71785325370729">
        <ele>129.85</ele>
        <time>2023-10-16T16:34:14.055Z</time>
      </trkpt>
      <trkpt lat="45.69061224348843" lon="17.717884266749024">
        <ele>129.67</ele>
        <time>2023-10-16T16:34:15.132Z</time>
      </trkpt>
      <trkpt lat="45.690619787201285" lon="17.71791435778141">
        <ele>129.5</ele>
        <time>2023-10-16T16:34:16.210Z</time>
      </trkpt>
      <trkpt lat="45.69062682799995" lon="17.717943862080574">
        <ele>129.33</ele>
        <time>2023-10-16T16:34:17.288Z</time>
      </trkpt>
      <trkpt lat="45.69063361734152" lon="17.717973198741674">
        <ele>129.16</ele>
        <time>2023-10-16T16:34:18.367Z</time>
      </trkpt>
      <trkpt lat="45.69064007140696" lon="17.718002451583743">
        <ele>129.0</ele>
        <time>2023-10-16T16:34:19.447Z</time>
      </trkpt>
      <trkpt lat="45.69064644165337" lon="17.718031872063875">
        <ele>128.83</ele>
        <time>2023-10-16T16:34:20.527Z</time>
      </trkpt>
      <trkpt lat="45.690652979537845" lon="17.718061627820134">
        <ele>128.67</ele>
        <time>2023-10-16T16:34:21.608Z</time>
      </trkpt>
      <trkpt lat="45.690659768879414" lon="17.718091886490583">
        <ele>128.52</ele>
        <time>2023-10-16T16:34:22.690Z</time>
      </trkpt>
      <trkpt lat="45.69066655822098" lon="17.718122312799096">
        <ele>128.36</ele>
        <time>2023-10-16T16:34:23.773Z</time>
      </trkpt>
      <trkpt lat="45.69067326374352" lon="17.718152906745672">
        <ele>128.21</ele>
        <time>2023-10-16T16:34:24.856Z</time>
      </trkpt>
      <trkpt lat="45.69067946635187" lon="17.71818366833031">
        <ele>128.07</ele>
        <time>2023-10-16T16:34:25.940Z</time>
      </trkpt>
      <trkpt lat="45.690684746950865" lon="17.71821442991495">
        <ele>127.92</ele>
        <time>2023-10-16T16:34:27.025Z</time>
      </trkpt>
      <trkpt lat="45.690688686445355" lon="17.718244856223464">
        <ele>127.78</ele>
        <time>2023-10-16T16:34:28.111Z</time>
      </trkpt>
      <trkpt lat="45.69069086574018" lon="17.718274611979723">
        <ele>127.64</ele>
        <time>2023-10-16T16:34:29.197Z</time>
      </trkpt>
      <trkpt lat="45.69069094955921" lon="17.718303194269538">
        <ele>127.5</ele>
        <time>2023-10-16T16:34:30.284Z</time>
      </trkpt>
      <trkpt lat="45.69068851880729" lon="17.718330435454845">
        <ele>127.37</ele>
        <time>2023-10-16T16:34:31.372Z</time>
      </trkpt>
      <trkpt lat="45.69068357348442" lon="17.718356251716614">
        <ele>127.24</ele>
        <time>2023-10-16T16:34:32.460Z</time>
      </trkpt>
      <trkpt lat="45.6906758621335" lon="17.718380223959684">
        <ele>127.12</ele>
        <time>2023-10-16T16:34:33.549Z</time>
      </trkpt>
      <trkpt lat="45.69066538475454" lon="17.71840251982212">
        <ele>127.0</ele>
        <time>2023-10-16T16:34:34.639Z</time>
      </trkpt>
      <trkpt lat="45.69065222516656" lon="17.718423223122954">
        <ele>126.88</ele>
        <time>2023-10-16T16:34:35.729Z</time>
      </trkpt>
      <trkpt lat="45.69063671864569" lon="17.718442417681217">
        <ele>126.76</ele>
        <time>2023-10-16T16:34:36.820Z</time>
      </trkpt>
      <trkpt lat="45.69061903283" lon="17.71846018731594">
        <ele>126.65</ele>
        <time>2023-10-16T16:34:37.912Z</time>
      </trkpt>
      <trkpt lat="45.690599754452705" lon="17.718476532027125">
        <ele>126.55</ele>
        <time>2023-10-16T16:34:39.004Z</time>
      </trkpt>
      <trkpt lat="45.690579637885094" lon="17.718491787090898">
        <ele>126.45</ele>
        <time>2023-10-16T16:34:40.097Z</time>
      </trkpt>
      <trkpt lat="45.69055893458426" lon="17.718506287783384">
        <ele>126.35</ele>
        <time>2023-10-16T16:34:41.191Z</time>
      </trkpt>
      <trkpt lat="45.690538231283426" lon="17.718520034104586">
        <ele>126.25</ele>
        <time>2023-10-16T16:34:42.286Z</time>
      </trkpt>
      <trkpt lat="45.69051777943969" lon="17.718533528968692">
        <ele>126.16</ele>
        <time>2023-10-16T16:34:43.381Z</time>
      </trkpt>
      <trkpt lat="45.69049741141498" lon="17.718546940013766">
        <ele>126.07</ele>
        <time>2023-10-16T16:34:44.477Z</time>
      </trkpt>
      <trkpt lat="45.69047687575221" lon="17.718560602515936">
        <ele>125.98</ele>
        <time>2023-10-16T16:34:45.574Z</time>
      </trkpt>
      <trkpt lat="45.69045634008944" lon="17.718574348837137">
        <ele>125.9</ele>
        <time>2023-10-16T16:34:46.672Z</time>
      </trkpt>
      <trkpt lat="45.69043538533151" lon="17.718588262796402">
        <ele>125.82</ele>
        <time>2023-10-16T16:34:47.770Z</time>
      </trkpt>
      <trkpt lat="45.690413508564234" lon="17.718602512031794">
        <ele>125.74</ele>
        <time>2023-10-16T16:34:48.869Z</time>
      </trkpt>
      <trkpt lat="45.69039079360664" lon="17.71861692890525">
        <ele>125.66</ele>
        <time>2023-10-16T16:34:49.969Z</time>
      </trkpt>
      <trkpt lat="45.69036698900163" lon="17.718632016330957">
        <ele>125.59</ele>
        <time>2023-10-16T16:34:51.070Z</time>
      </trkpt>
      <trkpt lat="45.69034201093018" lon="17.718648025766015">
        <ele>125.52</ele>
        <time>2023-10-16T16:34:52.172Z</time>
      </trkpt>
      <trkpt lat="45.69031560793519" lon="17.71866529248655">
        <ele>125.46</ele>
        <time>2023-10-16T16:34:53.275Z</time>
      </trkpt>
      <trkpt lat="45.690287947654724" lon="17.718684151768684">
        <ele>125.4</ele>
        <time>2023-10-16T16:34:54.379Z</time>
      </trkpt>
      <trkpt lat="45.69025953300297" lon="17.718704352155328">
        <ele>125.34</ele>
        <time>2023-10-16T16:34:55.484Z</time>
      </trkpt>
      <trkpt lat="45.69023095071316" lon="17.718725642189384">
        <ele>125.29</ele>
        <time>2023-10-16T16:34:56.590Z</time>
      </trkpt>
      <trkpt lat="45.69020220078528" lon="17.718748189508915">
        <ele>125.24</ele>
        <time>2023-10-16T16:34:57.697Z</time>
      </trkpt>
      <trkpt lat="45.690173702314496" lon="17.718771491199732">
        <ele>125.19</ele>
        <time>2023-10-16T16:34:58.805Z</time>
      </trkpt>
      <trkpt lat="45.6901457067579" lon="17.718795547261834">
        <ele>125.15</ele>
        <time>2023-10-16T16:34:59.914Z</time>
      </trkpt>
      <trkpt lat="45.690118465572596" lon="17.718820106238127">
        <ele>125.11</ele>
        <time>2023-10-16T16:35:01.024Z</time>
      </trkpt>
      <trkpt lat="45.69009223021567" lon="17.71884474903345">
        <ele>125.07</ele>
        <time>2023-10-16T16:35:02.135Z</time>
      </trkpt>
      <trkpt lat="45.69006691686809" lon="17.71886855363846">
        <ele>125.04</ele>
        <time>2023-10-16T16:35:03.247Z</time>
      </trkpt>
      <trkpt lat="45.69004277698696" lon="17.718890346586704">
        <ele>125.01</ele>
        <time>2023-10-16T16:35:04.360Z</time>
      </trkpt>
      <trkpt lat="45.69001981057227" lon="17.71890870295465">
        <ele>124.99</ele>
        <time>2023-10-16T16:35:05.474Z</time>
      </trkpt>
      <trkpt lat="45.68999793380499" lon="17.71892437711358">
        <ele>124.97</ele>
        <time>2023-10-16T16:35:06.589Z</time>
      </trkpt>
      <trkpt lat="45.68997664377093" lon="17.71893762052059">
        <ele>124.95</ele>
        <time>2023-10-16T16:35:07.705Z</time>
      </trkpt>
      <trkpt lat="45.689955772832036" lon="17.718949019908905">
        <ele>124.93</ele>
        <time>2023-10-16T16:35:08.822Z</time>
      </trkpt>
      <trkpt lat="45.689935237169266" lon="17.71895899437368">
        <ele>124.92</ele>
        <time>2023-10-16T16:35:09.939Z</time>
      </trkpt>
      <trkpt lat="45.68991478532553" lon="17.718967711552978">
        <ele>124.91</ele>
        <time>2023-10-16T16:35:11.057Z</time>
      </trkpt>
      <trkpt lat="45.689894584938884" lon="17.71897567436099">
        <ele>124.91</ele>
        <time>2023-10-16T16:35:12.176Z</time>
      </trkpt>
      <trkpt lat="45.68987446837127" lon="17.71898338571191">
        <ele>124.9</ele>
        <time>2023-10-16T16:35:13.295Z</time>
      </trkpt>
      <trkpt lat="45.689854603260756" lon="17.718991516157985">
        <ele>124.91</ele>
        <time>2023-10-16T16:35:14.415Z</time>
      </trkpt>
      <trkpt lat="45.689835073426366" lon="17.7190010715276">
        <ele>124.91</ele>
        <time>2023-10-16T16:35:15.536Z</time>
      </trkpt>
      <trkpt lat="45.68981629796326" lon="17.719013476744294">
        <ele>124.92</ele>
        <time>2023-10-16T16:35:16.657Z</time>
      </trkpt>
      <trkpt lat="45.68979852832854" lon="17.719029989093542">
        <ele>124.93</ele>
        <time>2023-10-16T16:35:17.779Z</time>
      </trkpt>
      <trkpt lat="45.68978235125542" lon="17.719050273299217">
        <ele>124.94</ele>
        <time>2023-10-16T16:35:18.902Z</time>
      </trkpt>
      <trkpt lat="45.68976793438196" lon="17.71907391026616">
        <ele>124.96</ele>
        <time>2023-10-16T16:35:20.026Z</time>
      </trkpt>
      <trkpt lat="45.689755864441395" lon="17.719100480899215">
        <ele>124.98</ele>
        <time>2023-10-16T16:35:21.150Z</time>
      </trkpt>
      <trkpt lat="45.68974647670984" lon="17.719129398465157">
        <ele>125.0</ele>
        <time>2023-10-16T16:35:22.275Z</time>
      </trkpt>
      <trkpt lat="45.68973985500634" lon="17.719160579144955">
        <ele>125.02</ele>
        <time>2023-10-16T16:35:23.401Z</time>
      </trkpt>
      <trkpt lat="45.68973599933088" lon="17.71919352002442">
        <ele>125.05</ele>
        <time>2023-10-16T16:35:24.528Z</time>
      </trkpt>
      <trkpt lat="45.68973507732153" lon="17.719227969646454">
        <ele>125.09</ele>
        <time>2023-10-16T16:35:25.655Z</time>
      </trkpt>
      <trkpt lat="45.689736837521195" lon="17.7192635089159">
        <ele>125.12</ele>
        <time>2023-10-16T16:35:26.783Z</time>
      </trkpt>
      <trkpt lat="45.689741196110845" lon="17.719299970194697">
        <ele>125.16</ele>
        <time>2023-10-16T16:35:27.912Z</time>
      </trkpt>
      <trkpt lat="45.68974765017629" lon="17.719336934387684">
        <ele>125.21</ele>
        <time>2023-10-16T16:35:29.042Z</time>
      </trkpt>
      <trkpt lat="45.68975578062236" lon="17.719373982399702">
        <ele>125.25</ele>
        <time>2023-10-16T16:35:30.173Z</time>
      </trkpt>
      <trkpt lat="45.689765168353915" lon="17.719410695135593">
        <ele>125.3</ele>
        <time>2023-10-16T16:35:31.305Z</time>
      </trkpt>
      <trkpt lat="45.68977514281869" lon="17.719446988776326">
        <ele>125.36</ele>
        <time>2023-10-16T16:35:32.438Z</time>
      </trkpt>
      <trkpt lat="45.68978545255959" lon="17.71948277950287">
        <ele>125.42</ele>
        <time>2023-10-16T16:35:33.572Z</time>
      </trkpt>
      <trkpt lat="45.68979584611952" lon="17.719517815858126">
        <ele>125.48</ele>
        <time>2023-10-16T16:35:34.707Z</time>
      </trkpt>
      <trkpt lat="45.689806239679456" lon="17.719552433118224">
        <ele>125.55</ele>
        <time>2023-10-16T16:35:35.842Z</time>
      </trkpt>
      <trkpt lat="45.68981654942036" lon="17.7195864636451">
        <ele>125.63</ele>
        <time>2023-10-16T16:35:36.978Z</time>
      </trkpt>
      <trkpt lat="45.689826691523194" lon="17.719619823619723">
        <ele>125.71</ele>
        <time>2023-10-16T16:35:38.115Z</time>
      </trkpt>
      <trkpt lat="45.689836749807" lon="17.71965293213725">
        <ele>125.79</ele>
        <time>2023-10-16T16:35:39.253Z</time>
      </trkpt>
      <trkpt lat="45.689846724271774" lon="17.719685789197683">
        <ele>125.87</ele>
        <time>2023-10-16T16:35:40.392Z</time>
      </trkpt>
      <trkpt lat="45.68985661491752" lon="17.719718143343925">
        <ele>125.96</ele>
        <time>2023-10-16T16:35:41.532Z</time>
      </trkpt>
      <trkpt lat="45.68986642174423" lon="17.71975007839501">
        <ele>126.06</ele>
        <time>2023-10-16T16:35:42.672Z</time>
      </trkpt>
      <trkpt lat="45.68987622857094" lon="17.71978184580803">
        <ele>126.16</ele>
        <time>2023-10-16T16:35:43.813Z</time>
      </trkpt>
      <trkpt lat="45.68988595157862" lon="17.719813277944922">
        <ele>126.27</ele>
        <time>2023-10-16T16:35:44.955Z</time>
      </trkpt>
      <trkpt lat="45.689895674586296" lon="17.719844542443752">
        <ele>126.38</ele>
        <time>2023-10-16T16:35:46.098Z</time>
      </trkpt>
      <trkpt lat="45.68990531377494" lon="17.719875471666455">
        <ele>126.49</ele>
        <time>2023-10-16T16:35:47.242Z</time>
      </trkpt>
      <trkpt lat="45.68991495296359" lon="17.71990640088916">
        <ele>126.61</ele>
        <time>2023-10-16T16:35:48.386Z</time>
      </trkpt>
      <trkpt lat="45.68992459215224" lon="17.719937162473798">
        <ele>126.74</ele>
        <time>2023-10-16T16:35:49.531Z</time>
      </trkpt>
      <trkpt lat="45.689934231340885" lon="17.719967840239406">
        <ele>126.86</ele>
        <time>2023-10-16T16:35:50.677Z</time>
      </trkpt>
      <trkpt lat="45.689943954348564" lon="17.719998015090823">
        <ele>126.99</ele>
        <time>2023-10-16T16:35:51.824Z</time>
      </trkpt>
      <trkpt lat="45.68995367735624" lon="17.720028022304177">
        <ele>127.12</ele>
        <time>2023-10-16T16:35:52.972Z</time>
      </trkpt>
      <trkpt lat="45.68996340036392" lon="17.720057861879468">
        <ele>127.26</ele>
        <time>2023-10-16T16:35:54.120Z</time>
      </trkpt>
      <trkpt lat="45.6899731233716" lon="17.720087449997663">
        <ele>127.4</ele>
        <time>2023-10-16T16:35:55.269Z</time>
      </trkpt>
      <trkpt lat="45.68998267874122" lon="17.72011653520167">
        <ele>127.55</ele>
        <time>2023-10-16T16:35:56.419Z</time>
      </trkpt>
      <trkpt lat="45.6899921502918" lon="17.72014536894858">
        <ele>127.7</ele>
        <time>2023-10-16T16:35:57.570Z</time>
      </trkpt>
      <trkpt lat="45.69000145420432" lon="17.720173867419362">
        <ele>127.85</ele>
        <time>2023-10-16T16:35:58.721Z</time>
      </trkpt>
      <trkpt lat="45.69001059047878" lon="17.720201946794987">
        <ele>128.01</ele>
        <time>2023-10-16T16:35:59.873Z</time>
      </trkpt>
      <trkpt lat="45.69001947529614" lon="17.720229355618358">
        <ele>128.16</ele>
        <time>2023-10-16T16:36:01.026Z</time>
      </trkpt>
      <trkpt lat="45.690028024837375" lon="17.720256010070443">
        <ele>128.32</ele>
        <time>2023-10-16T16:36:02.179Z</time>
      </trkpt>
      <trkpt lat="45.69003598764539" lon="17.720281491056085">
        <ele>128.49</ele>
        <time>2023-10-16T16:36:03.333Z</time>
      </trkpt>
      <trkpt lat="45.690043615177274" lon="17.720306301489472">
        <ele>128.65</ele>
        <time>2023-10-16T16:36:04.488Z</time>
      </trkpt>
      <trkpt lat="45.69005073979497" lon="17.720329938456416">
        <ele>128.82</ele>
        <time>2023-10-16T16:36:05.643Z</time>
      </trkpt>
      <trkpt lat="45.69005761295557" lon="17.720352485775948">
        <ele>128.99</ele>
        <time>2023-10-16T16:36:06.799Z</time>
      </trkpt>
      <trkpt lat="45.690064234659076" lon="17.720373943448067">
        <ele>129.16</ele>
        <time>2023-10-16T16:36:07.955Z</time>
      </trkpt>
      <trkpt lat="45.69007127545774" lon="17.720397664234042">
        <ele>129.34</ele>
        <time>2023-10-16T16:36:09.112Z</time>
      </trkpt>
      <trkpt lat="45.69007714278996" lon="17.7204171102494">
        <ele>129.51</ele>
        <time>2023-10-16T16:36:10.270Z</time>
      </trkpt>
      <trkpt lat="45.69008284248412" lon="17.720434796065092">
        <ele>129.69</ele>
        <time>2023-10-16T16:36:11.428Z</time>
      </trkpt>
      <trkpt lat="45.69008845835924" lon="17.720451476052403">
        <ele>129.87</ele>
        <time>2023-10-16T16:36:12.586Z</time>
      </trkpt>
      <trkpt lat="45.69009424187243" lon="17.720467150211334">
        <ele>130.05</ele>
        <time>2023-10-16T16:36:13.745Z</time>
      </trkpt>
      <trkpt lat="45.69010010920465" lon="17.720481986179948">
        <ele>130.24</ele>
        <time>2023-10-16T16:36:14.904Z</time>
      </trkpt>
      <trkpt lat="45.69010597653687" lon="17.720496570691466">
        <ele>130.42</ele>
        <time>2023-10-16T16:36:16.064Z</time>
      </trkpt>
      <trkpt lat="45.69011176005006" lon="17.720510652288795">
        <ele>130.61</ele>
        <time>2023-10-16T16:36:17.224Z</time>
      </trkpt>
      <trkpt lat="45.69011771120131" lon="17.720524817705154">
        <ele>130.8</ele>
        <time>2023-10-16T16:36:18.384Z</time>
      </trkpt>
      <trkpt lat="45.69012366235256" lon="17.720538564026356">
        <ele>130.99</ele>
        <time>2023-10-16T16:36:19.545Z</time>
      </trkpt>
      <trkpt lat="45.690130703151226" lon="17.720550801604986">
        <ele>131.18</ele>
        <time>2023-10-16T16:36:20.706Z</time>
      </trkpt>
      <trkpt lat="45.69013665430248" lon="17.720565050840378">
        <ele>131.37</ele>
        <time>2023-10-16T16:36:21.868Z</time>
      </trkpt>
      <trkpt lat="45.69014260545373" lon="17.720579467713833">
        <ele>131.56</ele>
        <time>2023-10-16T16:36:23.030Z</time>
      </trkpt>
      <trkpt lat="45.69014864042401" lon="17.72059405222535">
        <ele>131.75</ele>
        <time>2023-10-16T16:36:24.192Z</time>
      </trkpt>
      <trkpt lat="45.6901546753943" lon="17.720608804374933">
        <ele>131.95</ele>
        <time>2023-10-16T16:36:25.355Z</time>
      </trkpt>
      <trkpt lat="45.69016071036458" lon="17.720623891800642">
        <ele>132.14</ele>
        <time>2023-10-16T16:36:26.518Z</time>
      </trkpt>
      <trkpt lat="45.69016666151583" lon="17.72063998505473">
        <ele>132.34</ele>
        <time>2023-10-16T16:36:27.682Z</time>
      </trkpt>
      <trkpt lat="45.690172696486115" lon="17.720656413584948">
        <ele>132.53</ele>
        <time>2023-10-16T16:36:28.846Z</time>
      </trkpt>
      <trkpt lat="45.6901787314564" lon="17.720672925934196">
        <ele>132.73</ele>
        <time>2023-10-16T16:36:30.010Z</time>
      </trkpt>
      <trkpt lat="45.69018476642668" lon="17.72068935446441">
        <ele>132.93</ele>
        <time>2023-10-16T16:36:31.175Z</time>
      </trkpt>
      <trkpt lat="45.69019096903503" lon="17.720706118270755">
        <ele>133.12</ele>
        <time>2023-10-16T16:36:32.340Z</time>
      </trkpt>
      <trkpt lat="45.690197171643376" lon="17.72072296589613">
        <ele>133.32</ele>
        <time>2023-10-16T16:36:33.506Z</time>
      </trkpt>
      <trkpt lat="45.69020337425172" lon="17.720739813521504">
        <ele>133.52</ele>
        <time>2023-10-16T16:36:34.672Z</time>
      </trkpt>
      <trkpt lat="45.69020940922201" lon="17.72075674496591">
        <ele>133.71</ele>
        <time>2023-10-16T16:36:35.839Z</time>
      </trkpt>
      <trkpt lat="45.69021527655423" lon="17.720774179324508">
        <ele>133.91</ele>
        <time>2023-10-16T16:36:37.006Z</time>
      </trkpt>
      <trkpt lat="45.69022089242935" lon="17.720791781321168">
        <ele>134.1</ele>
        <time>2023-10-16T16:36:38.174Z</time>
      </trkpt>
      <trkpt lat="45.690226424485445" lon="17.72080955095589">
        <ele>134.3</ele>
        <time>2023-10-16T16:36:39.342Z</time>
      </trkpt>
      <trkpt lat="45.69023187272251" lon="17.720827404409647">
        <ele>134.49</ele>
        <time>2023-10-16T16:36:40.510Z</time>
      </trkpt>
      <trkpt lat="45.690237153321505" lon="17.720845257863402">
        <ele>134.68</ele>
        <time>2023-10-16T16:36:41.679Z</time>
      </trkpt>
      <trkpt lat="45.690242517739534" lon="17.720863027498126">
        <ele>134.87</ele>
        <time>2023-10-16T16:36:42.848Z</time>
      </trkpt>
      <trkpt lat="45.690247965976596" lon="17.720880713313818">
        <ele>135.06</ele>
        <time>2023-10-16T16:36:44.018Z</time>
      </trkpt>
      <trkpt lat="45.69025349803269" lon="17.720898315310478">
        <ele>135.25</ele>
        <time>2023-10-16T16:36:45.188Z</time>
      </trkpt>
      <trkpt lat="45.690259113907814" lon="17.720915665850043">
        <ele>135.43</ele>
        <time>2023-10-16T16:36:46.359Z</time>
      </trkpt>
      <trkpt lat="45.690264897421" lon="17.72093301638961">
        <ele>135.61</ele>
        <time>2023-10-16T16:36:47.530Z</time>
      </trkpt>
      <trkpt lat="45.690270932391286" lon="17.720950031653047">
        <ele>135.8</ele>
        <time>2023-10-16T16:36:48.702Z</time>
      </trkpt>
      <trkpt lat="45.69027713499963" lon="17.720966711640358">
        <ele>135.97</ele>
        <time>2023-10-16T16:36:49.874Z</time>
      </trkpt>
      <trkpt lat="45.69028342142701" lon="17.7209834754467">
        <ele>136.15</ele>
        <time>2023-10-16T16:36:51.046Z</time>
      </trkpt>
      <trkpt lat="45.69028970785439" lon="17.72099998779595">
        <ele>136.33</ele>
        <time>2023-10-16T16:36:52.219Z</time>
      </trkpt>
      <trkpt lat="45.69029616191983" lon="17.72101616486907">
        <ele>136.5</ele>
        <time>2023-10-16T16:36:53.392Z</time>
      </trkpt>
      <trkpt lat="45.69030253216624" lon="17.721031839028">
        <ele>136.67</ele>
        <time>2023-10-16T16:36:54.566Z</time>
      </trkpt>
      <trkpt lat="45.690308986231685" lon="17.7210474293679">
        <ele>136.83</ele>
        <time>2023-10-16T16:36:55.740Z</time>
      </trkpt>
      <trkpt lat="45.69031527265906" lon="17.721063438802958">
        <ele>137.0</ele>
        <time>2023-10-16T16:36:56.915Z</time>
      </trkpt>
      <trkpt lat="45.69032130762935" lon="17.72108011879027">
        <ele>137.16</ele>
        <time>2023-10-16T16:36:58.090Z</time>
      </trkpt>
      <trkpt lat="45.69032692350447" lon="17.721098056063056">
        <ele>137.32</ele>
        <time>2023-10-16T16:36:59.266Z</time>
      </trkpt>
      <trkpt lat="45.69033186882734" lon="17.721117418259382">
        <ele>137.47</ele>
        <time>2023-10-16T16:37:00.442Z</time>
      </trkpt>
      <trkpt lat="45.690336311236024" lon="17.72113778628409">
        <ele>137.62</ele>
        <time>2023-10-16T16:37:01.619Z</time>
      </trkpt>
      <trkpt lat="45.69034008309245" lon="17.721158489584923">
        <ele>137.77</ele>
        <time>2023-10-16T16:37:02.796Z</time>
      </trkpt>
      <trkpt lat="45.69034360349178" lon="17.72117936052382">
        <ele>137.91</ele>
        <time>2023-10-16T16:37:03.974Z</time>
      </trkpt>
      <trkpt lat="45.69034678861499" lon="17.72120039910078">
        <ele>138.05</ele>
        <time>2023-10-16T16:37:05.152Z</time>
      </trkpt>
      <trkpt lat="45.6903497222811" lon="17.721221772953868">
        <ele>138.19</ele>
        <time>2023-10-16T16:37:06.331Z</time>
      </trkpt>
      <trkpt lat="45.69035240449011" lon="17.721243565902114">
        <ele>138.32</ele>
        <time>2023-10-16T16:37:07.510Z</time>
      </trkpt>
      <trkpt lat="45.69035533815622" lon="17.721265945583582">
        <ele>138.45</ele>
        <time>2023-10-16T16:37:08.690Z</time>
      </trkpt>
      <trkpt lat="45.6903584394604" lon="17.721288073807955">
        <ele>138.57</ele>
        <time>2023-10-16T16:37:09.870Z</time>
      </trkpt>
      <trkpt lat="45.690361708402634" lon="17.72130928002298">
        <ele>138.69</ele>
        <time>2023-10-16T16:37:11.051Z</time>
      </trkpt>
      <trkpt lat="45.69036539644003" lon="17.7213288936764">
        <ele>138.81</ele>
        <time>2023-10-16T16:37:12.232Z</time>
      </trkpt>
      <trkpt lat="45.69036983884871" lon="17.72134691476822">
        <ele>138.92</ele>
        <time>2023-10-16T16:37:13.414Z</time>
      </trkpt>
      <trkpt lat="45.69037470035255" lon="17.72136359475553">
        <ele>139.02</ele>
        <time>2023-10-16T16:37:14.596Z</time>
      </trkpt>
      <trkpt lat="45.69038023240864" lon="17.72137968800962">
        <ele>139.12</ele>
        <time>2023-10-16T16:37:15.778Z</time>
      </trkpt>
      <trkpt lat="45.69038609974086" lon="17.72139527834952">
        <ele>139.22</ele>
        <time>2023-10-16T16:37:16.961Z</time>
      </trkpt>
      <trkpt lat="45.69039221853018" lon="17.721410701051354">
        <ele>139.31</ele>
        <time>2023-10-16T16:37:18.144Z</time>
      </trkpt>
      <trkpt lat="45.69039858877659" lon="17.721425788477063">
        <ele>139.4</ele>
        <time>2023-10-16T16:37:19.328Z</time>
      </trkpt>
      <trkpt lat="45.69040504284203" lon="17.72144070826471">
        <ele>139.48</ele>
        <time>2023-10-16T16:37:20.512Z</time>
      </trkpt>
      <trkpt lat="45.690411161631346" lon="17.7214549575001">
        <ele>139.56</ele>
        <time>2023-10-16T16:37:21.696Z</time>
      </trkpt>
      <trkpt lat="45.69041660986841" lon="17.721468871459365">
        <ele>139.63</ele>
        <time>2023-10-16T16:37:22.881Z</time>
      </trkpt>
      <trkpt lat="45.69042172282934" lon="17.721482617780566">
        <ele>139.69</ele>
        <time>2023-10-16T16:37:24.066Z</time>
      </trkpt>
      <trkpt lat="45.69042608141899" lon="17.72149653173983">
        <ele>139.75</ele>
        <time>2023-10-16T16:37:25.252Z</time>
      </trkpt>
      <trkpt lat="45.690429685637355" lon="17.72151061333716">
        <ele>139.81</ele>
        <time>2023-10-16T16:37:26.438Z</time>
      </trkpt>
      <trkpt lat="45.69043278694153" lon="17.721524946391582">
        <ele>139.86</ele>
        <time>2023-10-16T16:37:27.624Z</time>
      </trkpt>
      <trkpt lat="45.69043521769345" lon="17.721539363265038">
        <ele>139.91</ele>
        <time>2023-10-16T16:37:28.811Z</time>
      </trkpt>
      <trkpt lat="45.690437061712146" lon="17.721553947776556">
        <ele>139.95</ele>
        <time>2023-10-16T16:37:29.998Z</time>
      </trkpt>
      <trkpt lat="45.690437983721495" lon="17.721568616107106">
        <ele>139.99</ele>
        <time>2023-10-16T16:37:31.185Z</time>
      </trkpt>
      <trkpt lat="45.69043789990246" lon="17.721583284437656">
        <ele>140.02</ele>
        <time>2023-10-16T16:37:32.373Z</time>
      </trkpt>
      <trkpt lat="45.69043664261699" lon="17.721597952768207">
        <ele>140.05</ele>
        <time>2023-10-16T16:37:33.561Z</time>
      </trkpt>
      <trkpt lat="45.69043421186507" lon="17.721612034365535">
        <ele>140.08</ele>
        <time>2023-10-16T16:37:34.749Z</time>
      </trkpt>
      <trkpt lat="45.69043027237058" lon="17.721625613048673">
        <ele>140.09</ele>
        <time>2023-10-16T16:37:35.938Z</time>
      </trkpt>
      <trkpt lat="45.69042490795255" lon="17.721638772636652">
        <ele>140.11</ele>
        <time>2023-10-16T16:37:37.127Z</time>
      </trkpt>
      <trkpt lat="45.69041820243001" lon="17.72165134549141">
        <ele>140.12</ele>
        <time>2023-10-16T16:37:38.316Z</time>
      </trkpt>
      <trkpt lat="45.69041032344103" lon="17.721662996336818">
        <ele>140.13</ele>
        <time>2023-10-16T16:37:39.506Z</time>
      </trkpt>
      <trkpt lat="45.69040093570948" lon="17.721673725172877">
        <ele>140.13</ele>
        <time>2023-10-16T16:37:40.696Z</time>
      </trkpt>
      <trkpt lat="45.69039003923535" lon="17.721683448180556">
        <ele>140.13</ele>
        <time>2023-10-16T16:37:41.887Z</time>
      </trkpt>
      <trkpt lat="45.69037763401866" lon="17.72169191390276">
        <ele>140.12</ele>
        <time>2023-10-16T16:37:43.078Z</time>
      </trkpt>
      <trkpt lat="45.69036388769746" lon="17.721699122339487">
        <ele>140.11</ele>
        <time>2023-10-16T16:37:44.269Z</time>
      </trkpt>
      <trkpt lat="45.69034921936691" lon="17.721704989671707">
        <ele>140.1</ele>
        <time>2023-10-16T16:37:45.461Z</time>
      </trkpt>
      <trkpt lat="45.690333461388946" lon="17.721709851175547">
        <ele>140.08</ele>
        <time>2023-10-16T16:37:46.654Z</time>
      </trkpt>
      <trkpt lat="45.6903169490397" lon="17.721714293584228">
        <ele>140.06</ele>
        <time>2023-10-16T16:37:47.847Z</time>
      </trkpt>
      <trkpt lat="45.69030001759529" lon="17.721718652173877">
        <ele>140.03</ele>
        <time>2023-10-16T16:37:49.041Z</time>
      </trkpt>
      <trkpt lat="45.69028300233185" lon="17.721723346039653">
        <ele>140.0</ele>
        <time>2023-10-16T16:37:50.235Z</time>
      </trkpt>
      <trkpt lat="45.69026615470648" lon="17.721728459000587">
        <ele>139.97</ele>
        <time>2023-10-16T16:37:51.430Z</time>
      </trkpt>
      <trkpt lat="45.69024947471917" lon="17.721734242513776">
        <ele>139.94</ele>
        <time>2023-10-16T16:37:52.625Z</time>
      </trkpt>
      <trkpt lat="45.690233297646046" lon="17.721740696579218">
        <ele>139.9</ele>
        <time>2023-10-16T16:37:53.821Z</time>
      </trkpt>
      <trkpt lat="45.690217623487115" lon="17.72174765355885">
        <ele>139.86</ele>
        <time>2023-10-16T16:37:55.018Z</time>
      </trkpt>
      <trkpt lat="45.690202452242374" lon="17.721755113452673">
        <ele>139.83</ele>
        <time>2023-10-16T16:37:56.215Z</time>
      </trkpt>
      <trkpt lat="45.690187783911824" lon="17.721763076260686">
        <ele>139.79</ele>
        <time>2023-10-16T16:37:57.413Z</time>
      </trkpt>
      <trkpt lat="45.6901734508574" lon="17.72177154198289">
        <ele>139.75</ele>
        <time>2023-10-16T16:37:58.611Z</time>
      </trkpt>
      <trkpt lat="45.690159536898136" lon="17.72178042680025">
        <ele>139.71</ele>
        <time>2023-10-16T16:37:59.810Z</time>
      </trkpt>
      <trkpt lat="45.69014604203403" lon="17.721789479255676">
        <ele>139.66</ele>
        <time>2023-10-16T16:38:01.009Z</time>
      </trkpt>
      <trkpt lat="45.690133050084114" lon="17.721798783168197">
        <ele>139.62</ele>
        <time>2023-10-16T16:38:02.209Z</time>
      </trkpt>
      <trkpt lat="45.690120393410325" lon="17.721808087080717">
        <ele>139.58</ele>
        <time>2023-10-16T16:38:03.409Z</time>
      </trkpt>
      <trkpt lat="45.69010807201266" lon="17.721817390993237">
        <ele>139.54</ele>
        <time>2023-10-16T16:38:04.610Z</time>
      </trkpt>
      <trkpt lat="45.69009608589113" lon="17.721826946362853">
        <ele>139.5</ele>
        <time>2023-10-16T16:38:05.811Z</time>
      </trkpt>
      <trkpt lat="45.69008451886475" lon="17.721836920827627">
        <ele>139.45</ele>
        <time>2023-10-16T16:38:07.012Z</time>
      </trkpt>
      <trkpt lat="45.690073454752564" lon="17.72184731438756">
        <ele>139.41</ele>
        <time>2023-10-16T16:38:08.214Z</time>
      </trkpt>
      <trkpt lat="45.6900629773736" lon="17.721858462318778">
        <ele>139.37</ele>
        <time>2023-10-16T16:38:09.416Z</time>
      </trkpt>
      <trkpt lat="45.69005317054689" lon="17.721870196983218">
        <ele>139.34</ele>
        <time>2023-10-16T16:38:10.619Z</time>
      </trkpt>
      <trkpt lat="45.6900439504534" lon="17.721882602199912">
        <ele>139.3</ele>
        <time>2023-10-16T16:38:11.822Z</time>
      </trkpt>
      <trkpt lat="45.6900352332741" lon="17.721895342692733">
        <ele>139.26</ele>
        <time>2023-10-16T16:38:13.026Z</time>
      </trkpt>
      <trkpt lat="45.69002685137093" lon="17.72190833464265">
        <ele>139.23</ele>
        <time>2023-10-16T16:38:14.230Z</time>
      </trkpt>
      <trkpt lat="45.69001838564873" lon="17.721921494230628">
        <ele>139.2</ele>
        <time>2023-10-16T16:38:15.434Z</time>
      </trkpt>
      <trkpt lat="45.690009417012334" lon="17.721934486180544">
        <ele>139.17</ele>
        <time>2023-10-16T16:38:16.639Z</time>
      </trkpt>
      <trkpt lat="45.69000002928078" lon="17.7219470590353">
        <ele>139.14</ele>
        <time>2023-10-16T16:38:17.844Z</time>
      </trkpt>
      <trkpt lat="45.689989468082786" lon="17.721958877518773">
        <ele>139.11</ele>
        <time>2023-10-16T16:38:19.050Z</time>
      </trkpt>
      <trkpt lat="45.68997756578028" lon="17.721969690173864">
        <ele>139.09</ele>
        <time>2023-10-16T16:38:20.256Z</time>
      </trkpt>
      <trkpt lat="45.689964573830366" lon="17.72197932936251">
        <ele>139.07</ele>
        <time>2023-10-16T16:38:21.463Z</time>
      </trkpt>
      <trkpt lat="45.68995024077594" lon="17.72198813036084">
        <ele>139.05</ele>
        <time>2023-10-16T16:38:22.670Z</time>
      </trkpt>
      <trkpt lat="45.68993481807411" lon="17.721996176987886">
        <ele>139.03</ele>
        <time>2023-10-16T16:38:23.878Z</time>
      </trkpt>
      <trkpt lat="45.68991830572486" lon="17.722003972157836">
        <ele>139.02</ele>
        <time>2023-10-16T16:38:25.086Z</time>
      </trkpt>
      <trkpt lat="45.68990120664239" lon="17.722011767327785">
        <ele>139.01</ele>
        <time>2023-10-16T16:38:26.295Z</time>
      </trkpt>
      <trkpt lat="45.68988360464573" lon="17.722019897773862">
        <ele>139.01</ele>
        <time>2023-10-16T16:38:27.505Z</time>
      </trkpt>
      <trkpt lat="45.6898660864681" lon="17.722027944400907">
        <ele>139.01</ele>
        <time>2023-10-16T16:38:28.715Z</time>
      </trkpt>
      <trkpt lat="45.6898489035666" lon="17.722035739570856">
        <ele>139.01</ele>
        <time>2023-10-16T16:38:29.926Z</time>
      </trkpt>
      <trkpt lat="45.68983180448413" lon="17.722043618559837">
        <ele>139.02</ele>
        <time>2023-10-16T16:38:31.137Z</time>
      </trkpt>
      <trkpt lat="45.689815543591976" lon="17.722051665186882">
        <ele>139.03</ele>
        <time>2023-10-16T16:38:32.349Z</time>
      </trkpt>
      <trkpt lat="45.689800372347236" lon="17.722060130909085">
        <ele>139.05</ele>
        <time>2023-10-16T16:38:33.561Z</time>
      </trkpt>
      <trkpt lat="45.68978603929281" lon="17.722069351002574">
        <ele>139.08</ele>
        <time>2023-10-16T16:38:34.774Z</time>
      </trkpt>
      <trkpt lat="45.68977262824774" lon="17.722079241648316">
        <ele>139.11</ele>
        <time>2023-10-16T16:38:35.987Z</time>
      </trkpt>
      <trkpt lat="45.689760223031044" lon="17.72208971902728">
        <ele>139.14</ele>
        <time>2023-10-16T16:38:37.201Z</time>
      </trkpt>
      <trkpt lat="45.689748572185636" lon="17.722100615501404">
        <ele>139.19</ele>
        <time>2023-10-16T16:38:38.415Z</time>
      </trkpt>
      <trkpt lat="45.68973767571151" lon="17.72211159579456">
        <ele>139.23</ele>
        <time>2023-10-16T16:38:39.630Z</time>
      </trkpt>
      <trkpt lat="45.68972728215158" lon="17.722122743725777">
        <ele>139.29</ele>
        <time>2023-10-16T16:38:40.845Z</time>
      </trkpt>
      <trkpt lat="45.689717307686806" lon="17.722134310752153">
        <ele>139.35</ele>
        <time>2023-10-16T16:38:42.061Z</time>
      </trkpt>
      <trkpt lat="45.68970758467913" lon="17.722146213054657">
        <ele>139.41</ele>
        <time>2023-10-16T16:38:43.277Z</time>
      </trkpt>
      <trkpt lat="45.68969802930951" lon="17.72215853445232">
        <ele>139.48</ele>
        <time>2023-10-16T16:38:44.494Z</time>
      </trkpt>
      <trkpt lat="45.689688390120864" lon="17.722171191126108">
        <ele>139.56</ele>
        <time>2023-10-16T16:38:45.711Z</time>
      </trkpt>
      <trkpt lat="45.689678667113185" lon="17.722184099256992">
        <ele>139.64</ele>
        <time>2023-10-16T16:38:46.928Z</time>
      </trkpt>
      <trkpt lat="45.689668860286474" lon="17.72219725884497">
        <ele>139.72</ele>
        <time>2023-10-16T16:38:48.146Z</time>
      </trkpt>
      <trkpt lat="45.689659137278795" lon="17.722210586071014">
        <ele>139.82</ele>
        <time>2023-10-16T16:38:49.364Z</time>
      </trkpt>
      <trkpt lat="45.68964974954724" lon="17.722224164754152">
        <ele>139.91</ele>
        <time>2023-10-16T16:38:50.583Z</time>
      </trkpt>
      <trkpt lat="45.68964078091085" lon="17.722238078713417">
        <ele>140.02</ele>
        <time>2023-10-16T16:38:51.802Z</time>
      </trkpt>
      <trkpt lat="45.689632315188646" lon="17.72225232794881">
        <ele>140.12</ele>
        <time>2023-10-16T16:38:53.022Z</time>
      </trkpt>
      <trkpt lat="45.68962460383773" lon="17.722266828641295">
        <ele>140.24</ele>
        <time>2023-10-16T16:38:54.242Z</time>
      </trkpt>
      <trkpt lat="45.689617563039064" lon="17.722281916067004">
        <ele>140.36</ele>
        <time>2023-10-16T16:38:55.463Z</time>
      </trkpt>
      <trkpt lat="45.68961136043072" lon="17.722297757864">
        <ele>140.48</ele>
        <time>2023-10-16T16:38:56.684Z</time>
      </trkpt>
      <trkpt lat="45.68960607983172" lon="17.722314186394215">
        <ele>140.61</ele>
        <time>2023-10-16T16:38:57.905Z</time>
      </trkpt>
      <trkpt lat="45.689601469784975" lon="17.722331201657653">
        <ele>140.74</ele>
        <time>2023-10-16T16:38:59.127Z</time>
      </trkpt>
      <trkpt lat="45.68959744647145" lon="17.72234905511141">
        <ele>140.88</ele>
        <time>2023-10-16T16:39:00.349Z</time>
      </trkpt>
      <trkpt lat="45.68959375843406" lon="17.722367495298386">
        <ele>141.02</ele>
        <time>2023-10-16T16:39:01.572Z</time>
      </trkpt>
      <trkpt lat="45.68959007039666" lon="17.722386438399553">
        <ele>141.17</ele>
        <time>2023-10-16T16:39:02.795Z</time>
      </trkpt>
      <trkpt lat="45.68958613090217" lon="17.72240588441491">
        <ele>141.32</ele>
        <time>2023-10-16T16:39:04.019Z</time>
      </trkpt>
      <trkpt lat="45.68958177231252" lon="17.722426503896713">
        <ele>141.48</ele>
        <time>2023-10-16T16:39:05.243Z</time>
      </trkpt>
      <trkpt lat="45.68957691080868" lon="17.722448213025928">
        <ele>141.64</ele>
        <time>2023-10-16T16:39:06.468Z</time>
      </trkpt>
      <trkpt lat="45.68957146257162" lon="17.722471095621586">
        <ele>141.81</ele>
        <time>2023-10-16T16:39:07.693Z</time>
      </trkpt>
      <trkpt lat="45.6895655952394" lon="17.72249523550272">
        <ele>141.98</ele>
        <time>2023-10-16T16:39:08.919Z</time>
      </trkpt>
      <trkpt lat="45.68955956026912" lon="17.722520045936108">
        <ele>142.15</ele>
        <time>2023-10-16T16:39:10.145Z</time>
      </trkpt>
      <trkpt lat="45.6895534414798" lon="17.72254602983594">
        <ele>142.33</ele>
        <time>2023-10-16T16:39:11.372Z</time>
      </trkpt>
      <trkpt lat="45.68954740650952" lon="17.72257243283093">
        <ele>142.5</ele>
        <time>2023-10-16T16:39:12.600Z</time>
      </trkpt>
      <trkpt lat="45.68954204209149" lon="17.722599590197206">
        <ele>142.68</ele>
        <time>2023-10-16T16:39:13.828Z</time>
      </trkpt>
      <trkpt lat="45.68953718058765" lon="17.722627082839608">
        <ele>142.87</ele>
        <time>2023-10-16T16:39:15.057Z</time>
      </trkpt>
      <trkpt lat="45.68953290581703" lon="17.722654407843947">
        <ele>143.06</ele>
        <time>2023-10-16T16:39:16.287Z</time>
      </trkpt>
      <trkpt lat="45.689529217779636" lon="17.722681229934096">
        <ele>143.25</ele>
        <time>2023-10-16T16:39:17.517Z</time>
      </trkpt>
      <trkpt lat="45.689526200294495" lon="17.722706710919738">
        <ele>143.44</ele>
        <time>2023-10-16T16:39:18.748Z</time>
      </trkpt>
      <trkpt lat="45.68952343426645" lon="17.722730850800872">
        <ele>143.63</ele>
        <time>2023-10-16T16:39:19.980Z</time>
      </trkpt>
      <trkpt lat="45.68952100351453" lon="17.72275323048234">
        <ele>143.82</ele>
        <time>2023-10-16T16:39:21.212Z</time>
      </trkpt>
      <trkpt lat="45.6895190756768" lon="17.722773849964142">
        <ele>144.01</ele>
        <time>2023-10-16T16:39:22.445Z</time>
      </trkpt>
      <trkpt lat="45.68951731547713" lon="17.72279337979853">
        <ele>144.21</ele>
        <time>2023-10-16T16:39:23.678Z</time>
      </trkpt>
      <trkpt lat="45.68951572291553" lon="17.72281131707132">
        <ele>144.4</ele>
        <time>2023-10-16T16:39:24.911Z</time>
      </trkpt>
      <trkpt lat="45.689514046534896" lon="17.722828667610884">
        <ele>144.6</ele>
        <time>2023-10-16T16:39:26.145Z</time>
      </trkpt>
      <trkpt lat="45.689512034878135" lon="17.7228450961411">
        <ele>144.79</ele>
        <time>2023-10-16T16:39:27.379Z</time>
      </trkpt>
      <trkpt lat="45.68950977176428" lon="17.722860937938094">
        <ele>144.98</ele>
        <time>2023-10-16T16:39:28.614Z</time>
      </trkpt>
      <trkpt lat="45.68950742483139" lon="17.72287644445896">
        <ele>145.17</ele>
        <time>2023-10-16T16:39:29.849Z</time>
      </trkpt>
      <trkpt lat="45.689504742622375" lon="17.722892286255956">
        <ele>145.37</ele>
        <time>2023-10-16T16:39:31.084Z</time>
      </trkpt>
      <trkpt lat="45.689501808956265" lon="17.72290854714811">
        <ele>145.56</ele>
        <time>2023-10-16T16:39:32.320Z</time>
      </trkpt>
      <trkpt lat="45.68949904292822" lon="17.722925059497356">
        <ele>145.75</ele>
        <time>2023-10-16T16:39:33.556Z</time>
      </trkpt>
      <trkpt lat="45.68949610926211" lon="17.72294241003692">
        <ele>145.94</ele>
        <time>2023-10-16T16:39:34.793Z</time>
      </trkpt>
      <trkpt lat="45.689492924138904" lon="17.722960598766804">
        <ele>146.13</ele>
        <time>2023-10-16T16:39:36.030Z</time>
      </trkpt>
      <trkpt lat="45.6894894875586" lon="17.722979793325067">
        <ele>146.32</ele>
        <time>2023-10-16T16:39:37.267Z</time>
      </trkpt>
      <trkpt lat="45.68948596715927" lon="17.722999742254615">
        <ele>146.51</ele>
        <time>2023-10-16T16:39:38.505Z</time>
      </trkpt>
      <trkpt lat="45.689482279121876" lon="17.72302044555545">
        <ele>146.7</ele>
        <time>2023-10-16T16:39:39.743Z</time>
      </trkpt>
      <trkpt lat="45.689478339627385" lon="17.723041819408536">
        <ele>146.89</ele>
        <time>2023-10-16T16:39:40.982Z</time>
      </trkpt>
      <trkpt lat="45.689473981037736" lon="17.723063612356782">
        <ele>147.07</ele>
        <time>2023-10-16T16:39:42.221Z</time>
      </trkpt>
      <trkpt lat="45.68946928717196" lon="17.72308590821922">
        <ele>147.26</ele>
        <time>2023-10-16T16:39:43.461Z</time>
      </trkpt>
      <trkpt lat="45.68946425803006" lon="17.723108120262623">
        <ele>147.44</ele>
        <time>2023-10-16T16:39:44.702Z</time>
      </trkpt>
      <trkpt lat="45.689458809792995" lon="17.723130751401186">
        <ele>147.62</ele>
        <time>2023-10-16T16:39:45.943Z</time>
      </trkpt>
      <trkpt lat="45.689452858641744" lon="17.723153633996844">
        <ele>147.81</ele>
        <time>2023-10-16T16:39:47.185Z</time>
      </trkpt>
      <trkpt lat="45.6894464045763" lon="17.72317685186863">
        <ele>147.99</ele>
        <time>2023-10-16T16:39:48.427Z</time>
      </trkpt>
      <trkpt lat="45.689439196139574" lon="17.723200153559446">
        <ele>148.16</ele>
        <time>2023-10-16T16:39:49.670Z</time>
      </trkpt>
      <trkpt lat="45.689431400969625" lon="17.723223455250263">
        <ele>148.34</ele>
        <time>2023-10-16T16:39:50.913Z</time>
      </trkpt>
      <trkpt lat="45.689422683790326" lon="17.723246421664953">
        <ele>148.52</ele>
        <time>2023-10-16T16:39:52.157Z</time>
      </trkpt>
      <trkpt lat="45.689413379877806" lon="17.723269052803516">
        <ele>148.69</ele>
        <time>2023-10-16T16:39:53.402Z</time>
      </trkpt>
      <trkpt lat="45.68940340541303" lon="17.72329118102789">
        <ele>148.86</ele>
        <time>2023-10-16T16:39:54.647Z</time>
      </trkpt>
      <trkpt lat="45.6893930118531" lon="17.723312890157104">
        <ele>149.03</ele>
        <time>2023-10-16T16:39:55.893Z</time>
      </trkpt>
      <trkpt lat="45.68938186392188" lon="17.723334347829223">
        <ele>149.2</ele>
        <time>2023-10-16T16:39:57.140Z</time>
      </trkpt>
      <trkpt lat="45.689370380714536" lon="17.72335521876812">
        <ele>149.37</ele>
        <time>2023-10-16T16:39:58.387Z</time>
      </trkpt>
      <trkpt lat="45.68935847841203" lon="17.723375419154763">
        <ele>149.54</ele>
        <time>2023-10-16T16:39:59.635Z</time>
      </trkpt>
      <trkpt lat="45.68934632465243" lon="17.72339486517012">
        <ele>149.7</ele>
        <time>2023-10-16T16:40:00.883Z</time>
      </trkpt>
      <trkpt lat="45.68933383561671" lon="17.723413221538067">
        <ele>149.86</ele>
        <time>2023-10-16T16:40:02.132Z</time>
      </trkpt>
      <trkpt lat="45.689321430400014" lon="17.723431158810854">
        <ele>150.02</ele>
        <time>2023-10-16T16:40:03.382Z</time>
      </trkpt>
      <trkpt lat="45.68930944427848" lon="17.72344850935042">
        <ele>150.18</ele>
        <time>2023-10-16T16:40:04.632Z</time>
      </trkpt>
      <trkpt lat="45.68929779343307" lon="17.72346569225192">
        <ele>150.34</ele>
        <time>2023-10-16T16:40:05.883Z</time>
      </trkpt>
      <trkpt lat="45.68928647786379" lon="17.72348279133439">
        <ele>150.49</ele>
        <time>2023-10-16T16:40:07.134Z</time>
      </trkpt>
      <trkpt lat="45.68927532993257" lon="17.723500058054924">
        <ele>150.65</ele>
        <time>2023-10-16T16:40:08.386Z</time>
      </trkpt>
      <trkpt lat="45.68926393054426" lon="17.7235169056803">
        <ele>150.8</ele>
        <time>2023-10-16T16:40:09.638Z</time>
      </trkpt>
      <trkpt lat="45.68925186060369" lon="17.723533418029547">
        <ele>150.96</ele>
        <time>2023-10-16T16:40:10.891Z</time>
      </trkpt>
      <trkpt lat="45.68923878483474" lon="17.723549595102668">
        <ele>151.11</ele>
        <time>2023-10-16T16:40:12.144Z</time>
      </trkpt>
      <trkpt lat="45.689224703237414" lon="17.723565436899662">
        <ele>151.26</ele>
        <time>2023-10-16T16:40:13.398Z</time>
      </trkpt>
      <trkpt lat="45.689209615811706" lon="17.72358102723956">
        <ele>151.4</ele>
        <time>2023-10-16T16:40:14.653Z</time>
      </trkpt>
      <trkpt lat="45.68919369019568" lon="17.72359653376043">
        <ele>151.55</ele>
        <time>2023-10-16T16:40:15.908Z</time>
      </trkpt>
      <trkpt lat="45.68917659111321" lon="17.723611621186137">
        <ele>151.69</ele>
        <time>2023-10-16T16:40:17.164Z</time>
      </trkpt>
      <trkpt lat="45.68915848620236" lon="17.723626289516687">
        <ele>151.83</ele>
        <time>2023-10-16T16:40:18.421Z</time>
      </trkpt>
      <trkpt lat="45.689139291644096" lon="17.723640371114016">
        <ele>151.97</ele>
        <time>2023-10-16T16:40:19.678Z</time>
      </trkpt>
      <trkpt lat="45.689119175076485" lon="17.72365378215909">
        <ele>152.1</ele>
        <time>2023-10-16T16:40:20.936Z</time>
      </trkpt>
      <trkpt lat="45.68909847177565" lon="17.723666606470942">
        <ele>152.24</ele>
        <time>2023-10-16T16:40:22.195Z</time>
      </trkpt>
      <trkpt lat="45.689078187569976" lon="17.723679430782795">
        <ele>152.38</ele>
        <time>2023-10-16T16:40:23.455Z</time>
      </trkpt>
      <trkpt lat="45.68905916064978" lon="17.72369284182787">
        <ele>152.51</ele>
        <time>2023-10-16T16:40:24.715Z</time>
      </trkpt>
      <trkpt lat="45.68904214538634" lon="17.72370709106326">
        <ele>152.65</ele>
        <time>2023-10-16T16:40:25.976Z</time>
      </trkpt>
      <trkpt lat="45.68902814760804" lon="17.72372167557478">
        <ele>152.78</ele>
        <time>2023-10-16T16:40:27.238Z</time>
      </trkpt>
      <trkpt lat="45.68901725113392" lon="17.723736511543393">
        <ele>152.91</ele>
        <time>2023-10-16T16:40:28.500Z</time>
      </trkpt>
      <trkpt lat="45.68900937214494" lon="17.723751598969102">
        <ele>153.05</ele>
        <time>2023-10-16T16:40:29.763Z</time>
      </trkpt>
      <trkpt lat="45.68900417536497" lon="17.723766770213842">
        <ele>153.19</ele>
        <time>2023-10-16T16:40:31.026Z</time>
      </trkpt>
      <trkpt lat="45.68900115787983" lon="17.723782109096646">
        <ele>153.32</ele>
        <time>2023-10-16T16:40:32.289Z</time>
      </trkpt>
      <trkpt lat="45.68899914622307" lon="17.723797699436545">
        <ele>153.46</ele>
        <time>2023-10-16T16:40:33.553Z</time>
      </trkpt>
      <trkpt lat="45.688997972756624" lon="17.72381354123354">
        <ele>153.6</ele>
        <time>2023-10-16T16:40:34.817Z</time>
      </trkpt>
      <trkpt lat="45.68899730220437" lon="17.723829550668597">
        <ele>153.73</ele>
        <time>2023-10-16T16:40:36.081Z</time>
      </trkpt>
      <trkpt lat="45.68899688310921" lon="17.723845560103655">
        <ele>153.87</ele>
        <time>2023-10-16T16:40:37.346Z</time>
      </trkpt>
      <trkpt lat="45.68899629637599" lon="17.723861066624522">
        <ele>154.01</ele>
        <time>2023-10-16T16:40:38.611Z</time>
      </trkpt>
      <trkpt lat="45.68899495527148" lon="17.7238760702312">
        <ele>154.14</ele>
        <time>2023-10-16T16:40:39.877Z</time>
      </trkpt>
      <trkpt lat="45.68899202160537" lon="17.723891073837876">
        <ele>154.28</ele>
        <time>2023-10-16T16:40:41.143Z</time>
      </trkpt>
      <trkpt lat="45.68898749537766" lon="17.723906077444553">
        <ele>154.41</ele>
        <time>2023-10-16T16:40:42.409Z</time>
      </trkpt>
      <trkpt lat="45.688981376588345" lon="17.72392108105123">
        <ele>154.55</ele>
        <time>2023-10-16T16:40:43.676Z</time>
      </trkpt>
      <trkpt lat="45.68897374905646" lon="17.72393616847694">
        <ele>154.68</ele>
        <time>2023-10-16T16:40:44.943Z</time>
      </trkpt>
      <trkpt lat="45.68896494805813" lon="17.723951255902648">
        <ele>154.81</ele>
        <time>2023-10-16T16:40:46.211Z</time>
      </trkpt>
      <trkpt lat="45.68895623087883" lon="17.723966175690293">
        <ele>154.95</ele>
        <time>2023-10-16T16:40:47.479Z</time>
      </trkpt>
      <trkpt lat="45.68894759751856" lon="17.723981011658907">
        <ele>155.08</ele>
        <time>2023-10-16T16:40:48.747Z</time>
      </trkpt>
      <trkpt lat="45.68893921561539" lon="17.72399576380849">
        <ele>155.21</ele>
        <time>2023-10-16T16:40:50.016Z</time>
      </trkpt>
      <trkpt lat="45.688931085169315" lon="17.724010096862912">
        <ele>155.34</ele>
        <time>2023-10-16T16:40:51.285Z</time>
      </trkpt>
      <trkpt lat="45.68892303854227" lon="17.724024346098304">
        <ele>155.48</ele>
        <time>2023-10-16T16:40:52.555Z</time>
      </trkpt>
      <trkpt lat="45.68891507573426" lon="17.72403826005757">
        <ele>155.61</ele>
        <time>2023-10-16T16:40:53.825Z</time>
      </trkpt>
      <trkpt lat="45.688907112926245" lon="17.724051922559738">
        <ele>155.74</ele>
        <time>2023-10-16T16:40:55.096Z</time>
      </trkpt>
      <trkpt lat="45.6888990662992" lon="17.724065417423844">
        <ele>155.87</ele>
        <time>2023-10-16T16:40:56.367Z</time>
      </trkpt>
      <trkpt lat="45.688890935853124" lon="17.724078996106982">
        <ele>156.0</ele>
        <time>2023-10-16T16:40:57.638Z</time>
      </trkpt>
      <trkpt lat="45.68888255394995" lon="17.724092658609152">
        <ele>156.13</ele>
        <time>2023-10-16T16:40:58.910Z</time>
      </trkpt>
      <trkpt lat="45.68887400440872" lon="17.724106572568417">
        <ele>156.26</ele>
        <time>2023-10-16T16:41:00.182Z</time>
      </trkpt>
      <trkpt lat="45.68886528722942" lon="17.724120654165745">
        <ele>156.39</ele>
        <time>2023-10-16T16:41:01.455Z</time>
      </trkpt>
      <trkpt lat="45.688856318593025" lon="17.724134903401136">
        <ele>156.52</ele>
        <time>2023-10-16T16:41:02.728Z</time>
      </trkpt>
      <trkpt lat="45.68884693086147" lon="17.72414965555072">
        <ele>156.65</ele>
        <time>2023-10-16T16:41:04.002Z</time>
      </trkpt>
      <trkpt lat="45.688837207853794" lon="17.72416491061449">
        <ele>156.77</ele>
        <time>2023-10-16T16:41:05.276Z</time>
      </trkpt>
      <trkpt lat="45.68882681429386" lon="17.724181255325675">
        <ele>156.9</ele>
        <time>2023-10-16T16:41:06.551Z</time>
      </trkpt>
      <trkpt lat="45.688815750181675" lon="17.724198857322335">
        <ele>157.03</ele>
        <time>2023-10-16T16:41:07.826Z</time>
      </trkpt>
      <trkpt lat="45.688804015517235" lon="17.72421763278544">
        <ele>157.15</ele>
        <time>2023-10-16T16:41:09.102Z</time>
      </trkpt>
      <trkpt lat="45.68879169411957" lon="17.72423766553402">
        <ele>157.28</ele>
        <time>2023-10-16T16:41:10.378Z</time>
      </trkpt>
      <trkpt lat="45.688778618350625" lon="17.72425912320614">
        <ele>157.4</ele>
        <time>2023-10-16T16:41:11.655Z</time>
      </trkpt>
      <trkpt lat="45.688764955848455" lon="17.724281838163733">
        <ele>157.52</ele>
        <time>2023-10-16T16:41:12.933Z</time>
      </trkpt>
      <trkpt lat="45.68875087425113" lon="17.72430555894971">
        <ele>157.63</ele>
        <time>2023-10-16T16:41:14.212Z</time>
      </trkpt>
      <trkpt lat="45.68873628973961" lon="17.72433045320213">
        <ele>157.75</ele>
        <time>2023-10-16T16:41:15.491Z</time>
      </trkpt>
      <trkpt lat="45.68872136995196" lon="17.724356520920992">
        <ele>157.86</ele>
        <time>2023-10-16T16:41:16.771Z</time>
      </trkpt>
      <trkpt lat="45.68870619870722" lon="17.724383510649204">
        <ele>157.98</ele>
        <time>2023-10-16T16:41:18.052Z</time>
      </trkpt>
      <trkpt lat="45.688690692186356" lon="17.724411422386765">
        <ele>158.09</ele>
        <time>2023-10-16T16:41:19.334Z</time>
      </trkpt>
      <trkpt lat="45.68867518566549" lon="17.724439669400454">
        <ele>158.2</ele>
        <time>2023-10-16T16:41:20.617Z</time>
      </trkpt>
      <trkpt lat="45.68865967914462" lon="17.72446825169027">
        <ele>158.3</ele>
        <time>2023-10-16T16:41:21.900Z</time>
      </trkpt>
      <trkpt lat="45.68864392116666" lon="17.724497420713305">
        <ele>158.41</ele>
        <time>2023-10-16T16:41:23.184Z</time>
      </trkpt>
      <trkpt lat="45.688627576455474" lon="17.72452692501247">
        <ele>158.5</ele>
        <time>2023-10-16T16:41:24.469Z</time>
      </trkpt>
      <trkpt lat="45.68861081264913" lon="17.724556513130665">
        <ele>158.6</ele>
        <time>2023-10-16T16:41:25.755Z</time>
      </trkpt>
      <trkpt lat="45.688593378290534" lon="17.724586352705956">
        <ele>158.68</ele>
        <time>2023-10-16T16:41:27.042Z</time>
      </trkpt>
      <trkpt lat="45.68857527337968" lon="17.72461644373834">
        <ele>158.77</ele>
        <time>2023-10-16T16:41:28.330Z</time>
      </trkpt>
      <trkpt lat="45.68855616264045" lon="17.72464720532298">
        <ele>158.85</ele>
        <time>2023-10-16T16:41:29.619Z</time>
      </trkpt>
      <trkpt lat="45.68853612989187" lon="17.72467838600278">
        <ele>158.93</ele>
        <time>2023-10-16T16:41:30.909Z</time>
      </trkpt>
      <trkpt lat="45.6885155942291" lon="17.72470973432064">
        <ele>159.01</ele>
        <time>2023-10-16T16:41:32.200Z</time>
      </trkpt>
      <trkpt lat="45.68849463947117" lon="17.724740831181407">
        <ele>159.09</ele>
        <time>2023-10-16T16:41:33.492Z</time>
      </trkpt>
      <trkpt lat="45.68847309798002" lon="17.724771928042173">
        <ele>159.16</ele>
        <time>2023-10-16T16:41:34.785Z</time>
      </trkpt>
      <trkpt lat="45.688451305031776" lon="17.724802689626813">
        <ele>159.23</ele>
        <time>2023-10-16T16:41:36.079Z</time>
      </trkpt>
      <trkpt lat="45.68842984735966" lon="17.724832948297262">
        <ele>159.29</ele>
        <time>2023-10-16T16:41:37.374Z</time>
      </trkpt>
      <trkpt lat="45.688409144058824" lon="17.72486262023449">
        <ele>159.34</ele>
        <time>2023-10-16T16:41:38.670Z</time>
      </trkpt>
      <trkpt lat="45.688389614224434" lon="17.724892124533653">
        <ele>159.4</ele>
        <time>2023-10-16T16:41:39.967Z</time>
      </trkpt>
      <trkpt lat="45.68837142549455" lon="17.72492129355669">
        <ele>159.45</ele>
        <time>2023-10-16T16:41:41.265Z</time>
      </trkpt>
      <trkpt lat="45.68835466168821" lon="17.724949875846505">
        <ele>159.49</ele>
        <time>2023-10-16T16:41:42.564Z</time>
      </trkpt>
      <trkpt lat="45.68833949044347" lon="17.724977368488908">
        <ele>159.53</ele>
        <time>2023-10-16T16:41:43.863Z</time>
      </trkpt>
      <trkpt lat="45.6883255764842" lon="17.72500435821712">
        <ele>159.56</ele>
        <time>2023-10-16T16:41:45.163Z</time>
      </trkpt>
      <trkpt lat="45.68831275217235" lon="17.725030928850174">
        <ele>159.59</ele>
        <time>2023-10-16T16:41:46.464Z</time>
      </trkpt>
      <trkpt lat="45.68830084986985" lon="17.72505758330226">
        <ele>159.62</ele>
        <time>2023-10-16T16:41:47.766Z</time>
      </trkpt>
      <trkpt lat="45.68828986957669" lon="17.72508407011628">
        <ele>159.64</ele>
        <time>2023-10-16T16:41:49.068Z</time>
      </trkpt>
      <trkpt lat="45.688279727473855" lon="17.725110724568367">
        <ele>159.65</ele>
        <time>2023-10-16T16:41:50.371Z</time>
      </trkpt>
      <trkpt lat="45.68826983682811" lon="17.72513779811561">
        <ele>159.66</ele>
        <time>2023-10-16T16:41:51.675Z</time>
      </trkpt>
      <trkpt lat="45.68825994618237" lon="17.725165206938982">
        <ele>159.67</ele>
        <time>2023-10-16T16:41:52.980Z</time>
      </trkpt>
      <trkpt lat="45.688249887898564" lon="17.725192615762353">
        <ele>159.67</ele>
        <time>2023-10-16T16:41:54.285Z</time>
      </trkpt>
      <trkpt lat="45.6882394105196" lon="17.725220108404756">
        <ele>159.67</ele>
        <time>2023-10-16T16:41:55.591Z</time>
      </trkpt>
      <trkpt lat="45.68822859786451" lon="17.725247852504253">
        <ele>159.66</ele>
        <time>2023-10-16T16:41:56.898Z</time>
      </trkpt>
      <trkpt lat="45.68821753375232" lon="17.725275848060846">
        <ele>159.65</ele>
        <time>2023-10-16T16:41:58.205Z</time>
      </trkpt>
      <trkpt lat="45.68820613436401" lon="17.725303759798408">
        <ele>159.64</ele>
        <time>2023-10-16T16:41:59.513Z</time>
      </trkpt>
      <trkpt lat="45.688194651156664" lon="17.72533167153597">
        <ele>159.62</ele>
        <time>2023-10-16T16:42:00.822Z</time>
      </trkpt>
      <trkpt lat="45.688182916492224" lon="17.72536000236869">
        <ele>159.6</ele>
        <time>2023-10-16T16:42:02.132Z</time>
      </trkpt>
      <trkpt lat="45.688170762732625" lon="17.725388584658504">
        <ele>159.57</ele>
        <time>2023-10-16T16:42:03.443Z</time>
      </trkpt>
      <trkpt lat="45.6881582736969" lon="17.725417586043477">
        <ele>159.54</ele>
        <time>2023-10-16T16:42:04.754Z</time>
      </trkpt>
      <trkpt lat="45.68814553320408" lon="17.725446755066514">
        <ele>159.51</ele>
        <time>2023-10-16T16:42:06.066Z</time>
      </trkpt>
      <trkpt lat="45.68813279271126" lon="17.72547592408955">
        <ele>159.47</ele>
        <time>2023-10-16T16:42:07.379Z</time>
      </trkpt>
      <trkpt lat="45.68812005221844" lon="17.725505093112588">
        <ele>159.43</ele>
        <time>2023-10-16T16:42:08.693Z</time>
      </trkpt>
      <trkpt lat="45.68810731172562" lon="17.725534345954657">
        <ele>159.39</ele>
        <time>2023-10-16T16:42:10.008Z</time>
      </trkpt>
      <trkpt lat="45.688094571232796" lon="17.725563934072852">
        <ele>159.35</ele>
        <time>2023-10-16T16:42:11.323Z</time>
      </trkpt>
      <trkpt lat="45.68808174692094" lon="17.725593773648143">
        <ele>159.3</ele>
        <time>2023-10-16T16:42:12.639Z</time>
      </trkpt>
      <trkpt lat="45.68806883879006" lon="17.72562386468053">
        <ele>159.25</ele>
        <time>2023-10-16T16:42:13.956Z</time>
      </trkpt>
      <trkpt lat="45.68805609829724" lon="17.725654374808073">
        <ele>159.19</ele>
        <time>2023-10-16T16:42:15.274Z</time>
      </trkpt>
      <trkpt lat="45.68804360926151" lon="17.725684801116586">
        <ele>159.13</ele>
        <time>2023-10-16T16:42:16.593Z</time>
      </trkpt>
      <trkpt lat="45.688031539320946" lon="17.725715395063162">
        <ele>159.07</ele>
        <time>2023-10-16T16:42:17.912Z</time>
      </trkpt>
      <trkpt lat="45.688019804656506" lon="17.72574607282877">
        <ele>159.01</ele>
        <time>2023-10-16T16:42:19.232Z</time>
      </trkpt>
      <trkpt lat="45.68800865672529" lon="17.725776666775346">
        <ele>158.94</ele>
        <time>2023-10-16T16:42:20.553Z</time>
      </trkpt>
      <trkpt lat="45.687997844070196" lon="17.72580759599805">
        <ele>158.88</ele>
        <time>2023-10-16T16:42:21.875Z</time>
      </trkpt>
      <trkpt lat="45.68798719905317" lon="17.72583886049688">
        <ele>158.81</ele>
        <time>2023-10-16T16:42:23.198Z</time>
      </trkpt>
      <trkpt lat="45.68797655403614" lon="17.725870544090867">
        <ele>158.75</ele>
        <time>2023-10-16T16:42:24.522Z</time>
      </trkpt>
      <trkpt lat="45.687965992838144" lon="17.725902311503887">
        <ele>158.68</ele>
        <time>2023-10-16T16:42:25.846Z</time>
      </trkpt>
      <trkpt lat="45.687955264002085" lon="17.725934330374002">
        <ele>158.61</ele>
        <time>2023-10-16T16:42:27.171Z</time>
      </trkpt>
      <trkpt lat="45.68794411607087" lon="17.72596651688218">
        <ele>158.53</ele>
        <time>2023-10-16T16:42:28.497Z</time>
      </trkpt>
      <trkpt lat="45.68793246522546" lon="17.725998954847455">
        <ele>158.46</ele>
        <time>2023-10-16T16:42:29.824Z</time>
      </trkpt>
      <trkpt lat="45.68792022764683" lon="17.726031225174665">
        <ele>158.39</ele>
        <time>2023-10-16T16:42:31.152Z</time>
      </trkpt>
      <trkpt lat="45.68790731951594" lon="17.726063076406717">
        <ele>158.32</ele>
        <time>2023-10-16T16:42:32.481Z</time>
      </trkpt>
      <trkpt lat="45.68789357319474" lon="17.726094592362642">
        <ele>158.25</ele>
        <time>2023-10-16T16:42:33.810Z</time>
      </trkpt>
      <trkpt lat="45.68787915632129" lon="17.72612577304244">
        <ele>158.18</ele>
        <time>2023-10-16T16:42:35.140Z</time>
      </trkpt>
      <trkpt lat="45.68786398507655" lon="17.726156702265143">
        <ele>158.11</ele>
        <time>2023-10-16T16:42:36.471Z</time>
      </trkpt>
      <trkpt lat="45.68784839473665" lon="17.726187128573656">
        <ele>158.04</ele>
        <time>2023-10-16T16:42:37.803Z</time>
      </trkpt>
      <trkpt lat="45.68783246912062" lon="17.726217303425074">
        <ele>157.97</ele>
        <time>2023-10-16T16:42:39.136Z</time>
      </trkpt>
      <trkpt lat="45.687816543504596" lon="17.726247143000364">
        <ele>157.89</ele>
        <time>2023-10-16T16:42:40.470Z</time>
      </trkpt>
      <trkpt lat="45.6878007017076" lon="17.726276898756623">
        <ele>157.82</ele>
        <time>2023-10-16T16:42:41.805Z</time>
      </trkpt>
      <trkpt lat="45.687785195186734" lon="17.726306235417724">
        <ele>157.75</ele>
        <time>2023-10-16T16:42:43.141Z</time>
      </trkpt>
      <trkpt lat="45.687770107761025" lon="17.726335655897856">
        <ele>157.68</ele>
        <time>2023-10-16T16:42:44.477Z</time>
      </trkpt>
      <trkpt lat="45.687755439430475" lon="17.726365327835083">
        <ele>157.61</ele>
        <time>2023-10-16T16:42:45.814Z</time>
      </trkpt>
      <trkpt lat="45.68774110637605" lon="17.72639541886747">
        <ele>157.54</ele>
        <time>2023-10-16T16:42:47.152Z</time>
      </trkpt>
      <trkpt lat="45.68772736005485" lon="17.72642576135695">
        <ele>157.48</ele>
        <time>2023-10-16T16:42:48.491Z</time>
      </trkpt>
      <trkpt lat="45.68771403282881" lon="17.72645652294159">
        <ele>157.41</ele>
        <time>2023-10-16T16:42:49.831Z</time>
      </trkpt>
      <trkpt lat="45.687701124697924" lon="17.726487703621387">
        <ele>157.35</ele>
        <time>2023-10-16T16:42:51.172Z</time>
      </trkpt>
      <trkpt lat="45.687688551843166" lon="17.72651913575828">
        <ele>157.29</ele>
        <time>2023-10-16T16:42:52.514Z</time>
      </trkpt>
      <trkpt lat="45.68767639808357" lon="17.72655081935227">
        <ele>157.22</ele>
        <time>2023-10-16T16:42:53.856Z</time>
      </trkpt>
      <trkpt lat="45.687664579600096" lon="17.72658267058432">
        <ele>157.16</ele>
        <time>2023-10-16T16:42:55.199Z</time>
      </trkpt>
      <trkpt lat="45.68765292875469" lon="17.726614773273468">
        <ele>157.1</ele>
        <time>2023-10-16T16:42:56.543Z</time>
      </trkpt>
      <trkpt lat="45.687641529366374" lon="17.72664704360068">
        <ele>157.04</ele>
        <time>2023-10-16T16:42:57.888Z</time>
      </trkpt>
      <trkpt lat="45.687630381435156" lon="17.72667939774692">
        <ele>156.99</ele>
        <time>2023-10-16T16:42:59.234Z</time>
      </trkpt>
      <trkpt lat="45.687619401142" lon="17.72671217098832">
        <ele>156.94</ele>
        <time>2023-10-16T16:43:00.581Z</time>
      </trkpt>
      <trkpt lat="45.68760875612497" lon="17.726745111867785">
        <ele>156.89</ele>
        <time>2023-10-16T16:43:01.928Z</time>
      </trkpt>
      <trkpt lat="45.687598111107945" lon="17.72677855566144">
        <ele>156.84</ele>
        <time>2023-10-16T16:43:03.276Z</time>
      </trkpt>
      <trkpt lat="45.68758763372898" lon="17.726811915636063">
        <ele>156.8</ele>
        <time>2023-10-16T16:43:04.625Z</time>
      </trkpt>
      <trkpt lat="45.68757715635002" lon="17.726845610886812">
        <ele>156.76</ele>
        <time>2023-10-16T16:43:05.975Z</time>
      </trkpt>
      <trkpt lat="45.68756667897105" lon="17.726879557594657">
        <ele>156.72</ele>
        <time>2023-10-16T16:43:07.326Z</time>
      </trkpt>
      <trkpt lat="45.68755628541112" lon="17.726913755759597">
        <ele>156.69</ele>
        <time>2023-10-16T16:43:08.678Z</time>
      </trkpt>
      <trkpt lat="45.68754597567022" lon="17.72694803774357">
        <ele>156.66</ele>
        <time>2023-10-16T16:43:10.031Z</time>
      </trkpt>
      <trkpt lat="45.68753583356738" lon="17.726982655003667">
        <ele>156.63</ele>
        <time>2023-10-16T16:43:11.384Z</time>
      </trkpt>
      <trkpt lat="45.68752602674067" lon="17.727017607539892">
        <ele>156.6</ele>
        <time>2023-10-16T16:43:12.738Z</time>
      </trkpt>
      <trkpt lat="45.68751638755202" lon="17.727052811533213">
        <ele>156.57</ele>
        <time>2023-10-16T16:43:14.093Z</time>
      </trkpt>
      <trkpt lat="45.687507167458534" lon="17.727088183164597">
        <ele>156.54</ele>
        <time>2023-10-16T16:43:15.449Z</time>
      </trkpt>
      <trkpt lat="45.68749853409827" lon="17.727123890072107">
        <ele>156.52</ele>
        <time>2023-10-16T16:43:16.806Z</time>
      </trkpt>
      <trkpt lat="45.68749040365219" lon="17.727159848436713">
        <ele>156.5</ele>
        <time>2023-10-16T16:43:18.164Z</time>
      </trkpt>
      <trkpt lat="45.68748311139643" lon="17.72719639353454">
        <ele>156.49</ele>
        <time>2023-10-16T16:43:19.523Z</time>
      </trkpt>
      <trkpt lat="45.68747674115002" lon="17.7272330224514">
        <ele>156.48</ele>
        <time>2023-10-16T16:43:20.883Z</time>
      </trkpt>
      <trkpt lat="45.68747137673199" lon="17.72726965136826">
        <ele>156.47</ele>
        <time>2023-10-16T16:43:22.244Z</time>
      </trkpt>
      <trkpt lat="45.68746701814234" lon="17.72730586118996">
        <ele>156.47</ele>
        <time>2023-10-16T16:43:23.605Z</time>
      </trkpt>
      <trkpt lat="45.68746358156204" lon="17.72734140045941">
        <ele>156.47</ele>
        <time>2023-10-16T16:43:24.967Z</time>
      </trkpt>
      <trkpt lat="45.687460312619805" lon="17.72737618535757">
        <ele>156.47</ele>
        <time>2023-10-16T16:43:26.330Z</time>
      </trkpt>
      <trkpt lat="45.68745662458241" lon="17.72740946151316">
        <ele>156.48</ele>
        <time>2023-10-16T16:43:27.694Z</time>
      </trkpt>
      <trkpt lat="45.687451930716634" lon="17.727440055459738">
        <ele>156.49</ele>
        <time>2023-10-16T16:43:29.059Z</time>
      </trkpt>
      <trkpt lat="45.687446147203445" lon="17.727467296645045">
        <ele>156.5</ele>
        <time>2023-10-16T16:43:30.424Z</time>
      </trkpt>
      <trkpt lat="45.68743868730962" lon="17.727490682154894">
        <ele>156.52</ele>
        <time>2023-10-16T16:43:31.790Z</time>
      </trkpt>
      <trkpt lat="45.6874296348542" lon="17.72751004435122">
        <ele>156.54</ele>
        <time>2023-10-16T16:43:33.156Z</time>
      </trkpt>
      <trkpt lat="45.68741865456104" lon="17.727525383234024">
        <ele>156.57</ele>
        <time>2023-10-16T16:43:34.523Z</time>
      </trkpt>
      <trkpt lat="45.68740583024919" lon="17.727536614984274">
        <ele>156.6</ele>
        <time>2023-10-16T16:43:35.890Z</time>
      </trkpt>
      <trkpt lat="45.68739082664251" lon="17.727544074878097">
        <ele>156.64</ele>
        <time>2023-10-16T16:43:37.258Z</time>
      </trkpt>
      <trkpt lat="45.68737372756004" lon="17.72754809819162">
        <ele>156.68</ele>
        <time>2023-10-16T16:43:38.627Z</time>
      </trkpt>
      <trkpt lat="45.68735444918275" lon="17.72754918783903">
        <ele>156.73</ele>
        <time>2023-10-16T16:43:39.996Z</time>
      </trkpt>
      <trkpt lat="45.68733366206288" lon="17.72754717618227">
        <ele>156.78</ele>
        <time>2023-10-16T16:43:41.366Z</time>
      </trkpt>
      <trkpt lat="45.68731186911464" lon="17.72754281759262">
        <ele>156.84</ele>
        <time>2023-10-16T16:43:42.737Z</time>
      </trkpt>
      <trkpt lat="45.6872895732522" lon="17.727537117898464">
        <ele>156.91</ele>
        <time>2023-10-16T16:43:44.108Z</time>
      </trkpt>
      <trkpt lat="45.687266774475574" lon="17.72753099910915">
        <ele>156.97</ele>
        <time>2023-10-16T16:43:45.480Z</time>
      </trkpt>
      <trkpt lat="45.68724405951798" lon="17.727524880319834">
        <ele>157.04</ele>
        <time>2023-10-16T16:43:46.853Z</time>
      </trkpt>
      <trkpt lat="45.687221344560385" lon="17.727519096806645">
        <ele>157.11</ele>
        <time>2023-10-16T16:43:48.227Z</time>
      </trkpt>
      <trkpt lat="45.68719871342182" lon="17.72751398384571">
        <ele>157.19</ele>
        <time>2023-10-16T16:43:49.601Z</time>
      </trkpt>
      <trkpt lat="45.687175914645195" lon="17.72750962525606">
        <ele>157.27</ele>
        <time>2023-10-16T16:43:50.976Z</time>
      </trkpt>
      <trkpt lat="45.687153367325664" lon="17.727506356313825">
        <ele>157.36</ele>
        <time>2023-10-16T16:43:52.352Z</time>
      </trkpt>
      <trkpt lat="45.68713107146323" lon="17.727504177019">
        <ele>157.45</ele>
        <time>2023-10-16T16:43:53.729Z</time>
      </trkpt>
      <trkpt lat="45.68710919469595" lon="17.727503003552556">
        <ele>157.55</ele>
        <time>2023-10-16T16:43:55.106Z</time>
      </trkpt>
      <trkpt lat="45.687087988480926" lon="17.72750275209546">
        <ele>157.64</ele>
        <time>2023-10-16T16:43:56.484Z</time>
      </trkpt>
      <trkpt lat="45.68706753663719" lon="17.727503003552556">
        <ele>157.75</ele>
        <time>2023-10-16T16:43:57.863Z</time>
      </trkpt>
      <trkpt lat="45.6870480068028" lon="17.727503338828683">
        <ele>157.86</ele>
        <time>2023-10-16T16:43:59.242Z</time>
      </trkpt>
      <trkpt lat="45.68702948279679" lon="17.72750325500965">
        <ele>157.97</ele>
        <time>2023-10-16T16:44:00.622Z</time>
      </trkpt>
      <trkpt lat="45.68701204843819" lon="17.727502081543207">
        <ele>158.09</ele>
        <time>2023-10-16T16:44:02.003Z</time>
      </trkpt>
      <trkpt lat="45.686995619907975" lon="17.727499566972256">
        <ele>158.21</ele>
        <time>2023-10-16T16:44:03.384Z</time>
      </trkpt>
      <trkpt lat="45.686979945749044" lon="17.727495711296797">
        <ele>158.34</ele>
        <time>2023-10-16T16:44:04.766Z</time>
      </trkpt>
      <trkpt lat="45.68696510978043" lon="17.727490095421672">
        <ele>158.47</ele>
        <time>2023-10-16T16:44:06.148Z</time>
      </trkpt>
      <trkpt lat="45.68695077672601" lon="17.727482467889786">
        <ele>158.61</ele>
        <time>2023-10-16T16:44:07.531Z</time>
      </trkpt>
      <trkpt lat="45.68693669512868" lon="17.72747282870114">
        <ele>158.75</ele>
        <time>2023-10-16T16:44:08.914Z</time>
      </trkpt>
      <trkpt lat="45.68692294880748" lon="17.727461429312825">
        <ele>158.9</ele>
        <time>2023-10-16T16:44:10.298Z</time>
      </trkpt>
      <trkpt lat="45.68690928630531" lon="17.727448102086782">
        <ele>159.05</ele>
        <time>2023-10-16T16:44:11.682Z</time>
      </trkpt>
      <trkpt lat="45.68689570762217" lon="17.727433433756232">
        <ele>159.21</ele>
        <time>2023-10-16T16:44:13.067Z</time>
      </trkpt>
      <trkpt lat="45.68688212893903" lon="17.727417927235365">
        <ele>159.37</ele>
        <time>2023-10-16T16:44:14.453Z</time>
      </trkpt>
      <trkpt lat="45.68686838261783" lon="17.727402336895466">
        <ele>159.53</ele>
        <time>2023-10-16T16:44:15.839Z</time>
      </trkpt>
      <trkpt lat="45.68685446865857" lon="17.727387249469757">
        <ele>159.69</ele>
        <time>2023-10-16T16:44:17.226Z</time>
      </trkpt>
      <trkpt lat="45.68684030324221" lon="17.727373000234365">
        <ele>159.86</ele>
        <time>2023-10-16T16:44:18.613Z</time>
      </trkpt>
      <trkpt lat="45.68682630546391" lon="17.727359673008323">
        <ele>160.04</ele>
        <time>2023-10-16T16:44:20.001Z</time>
      </trkpt>
      <trkpt lat="45.68681264296174" lon="17.727348189800978">
        <ele>160.21</ele>
        <time>2023-10-16T16:44:21.389Z</time>
      </trkpt>
      <trkpt lat="45.68679939955473" lon="17.72733896970749">
        <ele>160.39</ele>
        <time>2023-10-16T16:44:22.778Z</time>
      </trkpt>
      <trkpt lat="45.68678674288094" lon="17.727332348003983">
        <ele>160.57</ele>
        <time>2023-10-16T16:44:24.167Z</time>
      </trkpt>
      <trkpt lat="45.68677458912134" lon="17.72732782177627">
        <ele>160.76</ele>
        <time>2023-10-16T16:44:25.557Z</time>
      </trkpt>
      <trkpt lat="45.6867628544569" lon="17.727325558662415">
        <ele>160.95</ele>
        <time>2023-10-16T16:44:26.947Z</time>
      </trkpt>
      <trkpt lat="45.68675145506859" lon="17.72732581011951">
        <ele>161.13</ele>
        <time>2023-10-16T16:44:28.337Z</time>
      </trkpt>
      <trkpt lat="45.6867403909564" lon="17.727327989414334">
        <ele>161.33</ele>
        <time>2023-10-16T16:44:29.728Z</time>
      </trkpt>
      <trkpt lat="45.68672991357744" lon="17.727331845089793">
        <ele>161.52</ele>
        <time>2023-10-16T16:44:31.119Z</time>
      </trkpt>
      <trkpt lat="45.68671993911266" lon="17.727336958050728">
        <ele>161.71</ele>
        <time>2023-10-16T16:44:32.511Z</time>
      </trkpt>
      <trkpt lat="45.68671046756208" lon="17.72734299302101">
        <ele>161.91</ele>
        <time>2023-10-16T16:44:33.903Z</time>
      </trkpt>
      <trkpt lat="45.68670124746859" lon="17.727349111810327">
        <ele>162.11</ele>
        <time>2023-10-16T16:44:35.295Z</time>
      </trkpt>
      <trkpt lat="45.686692195013165" lon="17.72735414095223">
        <ele>162.32</ele>
        <time>2023-10-16T16:44:36.688Z</time>
      </trkpt>
      <trkpt lat="45.686683310195804" lon="17.727357493713498">
        <ele>162.52</ele>
        <time>2023-10-16T16:44:38.081Z</time>
      </trkpt>
      <trkpt lat="45.68667467683554" lon="17.7273590862751">
        <ele>162.73</ele>
        <time>2023-10-16T16:44:39.474Z</time>
      </trkpt>
      <trkpt lat="45.68666595965624" lon="17.727358834818006">
        <ele>162.94</ele>
        <time>2023-10-16T16:44:40.867Z</time>
      </trkpt>
      <trkpt lat="45.68665707483888" lon="17.727356739342213">
        <ele>163.15</ele>
        <time>2023-10-16T16:44:42.261Z</time>
      </trkpt>
      <trkpt lat="45.686648190021515" lon="17.727352883666754">
        <ele>163.36</ele>
        <time>2023-10-16T16:44:43.655Z</time>
      </trkpt>
      <trkpt lat="45.68663913756609" lon="17.72734735161066">
        <ele>163.58</ele>
        <time>2023-10-16T16:44:45.049Z</time>
      </trkpt>
      <trkpt lat="45.686629582196474" lon="17.727340394631028">
        <ele>163.79</ele>
        <time>2023-10-16T16:44:46.444Z</time>
      </trkpt>
      <trkpt lat="45.68661969155073" lon="17.727332348003983">
        <ele>164.01</ele>
        <time>2023-10-16T16:44:47.839Z</time>
      </trkpt>
      <trkpt lat="45.6866092979908" lon="17.72732346318662">
        <ele>164.23</ele>
        <time>2023-10-16T16:44:49.235Z</time>
      </trkpt>
      <trkpt lat="45.6865987367928" lon="17.727314410731196">
        <ele>164.45</ele>
        <time>2023-10-16T16:44:50.631Z</time>
      </trkpt>
      <trkpt lat="45.686588091775775" lon="17.727306028828025">
        <ele>164.67</ele>
        <time>2023-10-16T16:44:52.027Z</time>
      </trkpt>
      <trkpt lat="45.68657744675875" lon="17.727298568934202">
        <ele>164.89</ele>
        <time>2023-10-16T16:44:53.424Z</time>
      </trkpt>
      <trkpt lat="45.686566550284624" lon="17.727291863411665">
        <ele>165.12</ele>
        <time>2023-10-16T16:44:54.821Z</time>
      </trkpt>
      <trkpt lat="45.68655556999147" lon="17.72728582844138">
        <ele>165.34</ele>
        <time>2023-10-16T16:44:56.219Z</time>
      </trkpt>
      <trkpt lat="45.68654500879347" lon="17.727280715480447">
        <ele>165.56</ele>
        <time>2023-10-16T16:44:57.617Z</time>
      </trkpt>
      <trkpt lat="45.68653453141451" lon="17.727276273071766">
        <ele>165.78</ele>
        <time>2023-10-16T16:44:59.015Z</time>
      </trkpt>
      <trkpt lat="45.68652397021651" lon="17.72727250121534">
        <ele>166.01</ele>
        <time>2023-10-16T16:45:00.414Z</time>
      </trkpt>
      <trkpt lat="45.68651324138045" lon="17.727269316092134">
        <ele>166.23</ele>
        <time>2023-10-16T16:45:01.813Z</time>
      </trkpt>
      <trkpt lat="45.68650284782052" lon="17.72726663388312">
        <ele>166.45</ele>
        <time>2023-10-16T16:45:03.212Z</time>
      </trkpt>
      <trkpt lat="45.686492789536715" lon="17.72726478986442">
        <ele>166.67</ele>
        <time>2023-10-16T16:45:04.612Z</time>
      </trkpt>
      <trkpt lat="45.68648281507194" lon="17.727263532578945">
        <ele>166.89</ele>
        <time>2023-10-16T16:45:06.012Z</time>
      </trkpt>
      <trkpt lat="45.68647309206426" lon="17.727262694388628">
        <ele>167.11</ele>
        <time>2023-10-16T16:45:07.412Z</time>
      </trkpt>
      <trkpt lat="45.686463452875614" lon="17.727262107655406">
        <ele>167.33</ele>
        <time>2023-10-16T16:45:08.813Z</time>
      </trkpt>
      <trkpt lat="45.68645398132503" lon="17.727261688560247">
        <ele>167.55</ele>
        <time>2023-10-16T16:45:10.214Z</time>
      </trkpt>
      <trkpt lat="45.68644459359348" lon="17.727261185646057">
        <ele>167.77</ele>
        <time>2023-10-16T16:45:11.615Z</time>
      </trkpt>
      <trkpt lat="45.68643503822386" lon="17.727260179817677">
        <ele>167.98</ele>
        <time>2023-10-16T16:45:13.017Z</time>
      </trkpt>
      <trkpt lat="45.686425399035215" lon="17.727258754894137">
        <ele>168.2</ele>
        <time>2023-10-16T16:45:14.419Z</time>
      </trkpt>
      <trkpt lat="45.6864158436656" lon="17.727256659418344">
        <ele>168.41</ele>
        <time>2023-10-16T16:45:15.821Z</time>
      </trkpt>
      <trkpt lat="45.68640653975308" lon="17.727253893390298">
        <ele>168.62</ele>
        <time>2023-10-16T16:45:17.224Z</time>
      </trkpt>
      <trkpt lat="45.68639690056443" lon="17.727250456809998">
        <ele>168.83</ele>
        <time>2023-10-16T16:45:18.627Z</time>
      </trkpt>
      <trkpt lat="45.68638700991869" lon="17.727245930582285">
        <ele>169.04</ele>
        <time>2023-10-16T16:45:20.030Z</time>
      </trkpt>
      <trkpt lat="45.686376951634884" lon="17.72724031470716">
        <ele>169.24</ele>
        <time>2023-10-16T16:45:21.434Z</time>
      </trkpt>
      <trkpt lat="45.68636639043689" lon="17.727233609184623">
        <ele>169.45</ele>
        <time>2023-10-16T16:45:22.838Z</time>
      </trkpt>
      <trkpt lat="45.68635566160083" lon="17.72722573019564">
        <ele>169.65</ele>
        <time>2023-10-16T16:45:24.242Z</time>
      </trkpt>
      <trkpt lat="45.686344765126705" lon="17.72721684537828">
        <ele>169.85</ele>
        <time>2023-10-16T16:45:25.647Z</time>
      </trkpt>
      <trkpt lat="45.68633412010968" lon="17.727207876741886">
        <ele>170.05</ele>
        <time>2023-10-16T16:45:27.052Z</time>
      </trkpt>
      <trkpt lat="45.68632347509265" lon="17.727198489010334">
        <ele>170.24</ele>
        <time>2023-10-16T16:45:28.458Z</time>
      </trkpt>
      <trkpt lat="45.68631291389465" lon="17.72718901745975">
        <ele>170.44</ele>
        <time>2023-10-16T16:45:29.864Z</time>
      </trkpt>
      <trkpt lat="45.68630260415375" lon="17.727179629728198">
        <ele>170.63</ele>
        <time>2023-10-16T16:45:31.270Z</time>
      </trkpt>
      <trkpt lat="45.686292462050915" lon="17.727170158177614">
        <ele>170.81</ele>
        <time>2023-10-16T16:45:32.677Z</time>
      </trkpt>
      <trkpt lat="45.68628257140517" lon="17.727160602808">
        <ele>170.99</ele>
        <time>2023-10-16T16:45:34.084Z</time>
      </trkpt>
      <trkpt lat="45.686272932216525" lon="17.72715087980032">
        <ele>171.17</ele>
        <time>2023-10-16T16:45:35.492Z</time>
      </trkpt>
      <trkpt lat="45.68626346066594" lon="17.72714115679264">
        <ele>171.35</ele>
        <time>2023-10-16T16:45:36.900Z</time>
      </trkpt>
      <trkpt lat="45.686254324391484" lon="17.727131685242057">
        <ele>171.52</ele>
        <time>2023-10-16T16:45:38.308Z</time>
      </trkpt>
      <trkpt lat="45.68624527193606" lon="17.727122465148568">
        <ele>171.69</ele>
        <time>2023-10-16T16:45:39.717Z</time>
      </trkpt>
      <trkpt lat="45.68623605184257" lon="17.727113412693143">
        <ele>171.85</ele>
        <time>2023-10-16T16:45:41.126Z</time>
      </trkpt>
      <trkpt lat="45.68622658029199" lon="17.72710444405675">
        <ele>172.01</ele>
        <time>2023-10-16T16:45:42.536Z</time>
      </trkpt>
      <trkpt lat="45.68621685728431" lon="17.72709572687745">
        <ele>172.17</ele>
        <time>2023-10-16T16:45:43.946Z</time>
      </trkpt>
      <trkpt lat="45.6862070504576" lon="17.72708734497428">
        <ele>172.32</ele>
        <time>2023-10-16T16:45:45.356Z</time>
      </trkpt>
      <trkpt lat="45.68619707599282" lon="17.727079214528203">
        <ele>172.47</ele>
        <time>2023-10-16T16:45:46.767Z</time>
      </trkpt>
      <trkpt lat="45.68618685007095" lon="17.727071503177285">
        <ele>172.61</ele>
        <time>2023-10-16T16:45:48.178Z</time>
      </trkpt>
      <trkpt lat="45.686176624149084" lon="17.727064210921526">
        <ele>172.75</ele>
        <time>2023-10-16T16:45:49.589Z</time>
      </trkpt>
      <trkpt lat="45.68616614677012" lon="17.727057337760925">
        <ele>172.88</ele>
        <time>2023-10-16T16:45:51.001Z</time>
      </trkpt>
      <trkpt lat="45.68615583702922" lon="17.72705079987645">
        <ele>173.01</ele>
        <time>2023-10-16T16:45:52.413Z</time>
      </trkpt>
      <trkpt lat="45.68614569492638" lon="17.72704442963004">
        <ele>173.13</ele>
        <time>2023-10-16T16:45:53.826Z</time>
      </trkpt>
      <trkpt lat="45.68613572046161" lon="17.727038227021694">
        <ele>173.25</ele>
        <time>2023-10-16T16:45:55.239Z</time>
      </trkpt>
      <trkpt lat="45.68612624891102" lon="17.727032275870442">
        <ele>173.36</ele>
        <time>2023-10-16T16:45:56.652Z</time>
      </trkpt>
      <trkpt lat="45.6861169449985" lon="17.727026659995317">
        <ele>173.47</ele>
        <time>2023-10-16T16:45:58.066Z</time>
      </trkpt>
      <trkpt lat="45.68610797636211" lon="17.727021295577288">
        <ele>173.57</ele>
        <time>2023-10-16T16:45:59.480Z</time>
      </trkpt>
      <trkpt lat="45.68609917536378" lon="17.727016182616353">
        <ele>173.67</ele>
        <time>2023-10-16T16:46:00.894Z</time>
      </trkpt>
      <trkpt lat="45.68609045818448" lon="17.72701115347445">
        <ele>173.76</ele>
        <time>2023-10-16T16:46:02.309Z</time>
      </trkpt>
      <trkpt lat="45.68608207628131" lon="17.72700629197061">
        <ele>173.85</ele>
        <time>2023-10-16T16:46:03.724Z</time>
      </trkpt>
      <trkpt lat="45.68607377819717" lon="17.727001262828708">
        <ele>173.93</ele>
        <time>2023-10-16T16:46:05.139Z</time>
      </trkpt>
      <trkpt lat="45.68606564775109" lon="17.72699606604874">
        <ele>174.0</ele>
        <time>2023-10-16T16:46:06.555Z</time>
      </trkpt>
      <trkpt lat="45.68605726584792" lon="17.72699019871652">
        <ele>174.07</ele>
        <time>2023-10-16T16:46:07.971Z</time>
      </trkpt>
      <trkpt lat="45.686048716306686" lon="17.72698374465108">
        <ele>174.13</ele>
        <time>2023-10-16T16:46:09.387Z</time>
      </trkpt>
      <trkpt lat="45.686039915308356" lon="17.726976787671447">
        <ele>174.19</ele>
        <time>2023-10-16T16:46:10.803Z</time>
      </trkpt>
      <trkpt lat="45.68603094667196" lon="17.726968992501497">
        <ele>174.24</ele>
        <time>2023-10-16T16:46:12.220Z</time>
      </trkpt>
      <trkpt lat="45.686021307483315" lon="17.726960191503167">
        <ele>174.29</ele>
        <time>2023-10-16T16:46:13.637Z</time>
      </trkpt>
      <trkpt lat="45.68601091392338" lon="17.726950468495488">
        <ele>174.33</ele>
        <time>2023-10-16T16:46:15.055Z</time>
      </trkpt>
      <trkpt lat="45.68599968217313" lon="17.726939991116524">
        <ele>174.36</ele>
        <time>2023-10-16T16:46:16.473Z</time>
      </trkpt>
      <trkpt lat="45.6859876960516" lon="17.72692901082337">
        <ele>174.39</ele>
        <time>2023-10-16T16:46:17.892Z</time>
      </trkpt>
      <trkpt lat="45.68597462028265" lon="17.72691735997796">
        <ele>174.41</ele>
        <time>2023-10-16T16:46:19.311Z</time>
      </trkpt>
      <trkpt lat="45.68596053868532" lon="17.726905290037394">
        <ele>174.43</ele>
        <time>2023-10-16T16:46:20.731Z</time>
      </trkpt>
      <trkpt lat="45.685945115983486" lon="17.726893052458763">
        <ele>174.45</ele>
        <time>2023-10-16T16:46:22.151Z</time>
      </trkpt>
      <trkpt lat="45.68592826835811" lon="17.726880982518196">
        <ele>174.45</ele>
        <time>2023-10-16T16:46:23.572Z</time>
      </trkpt>
      <trkpt lat="45.6859099958092" lon="17.726869666948915">
        <ele>174.45</ele>
        <time>2023-10-16T16:46:24.994Z</time>
      </trkpt>
      <trkpt lat="45.68589021451771" lon="17.726858854293823">
        <ele>174.45</ele>
        <time>2023-10-16T16:46:26.416Z</time>
      </trkpt>
      <trkpt lat="45.68586900830269" lon="17.726848796010017">
        <ele>174.44</ele>
        <time>2023-10-16T16:46:27.839Z</time>
      </trkpt>
      <trkpt lat="45.68584654480219" lon="17.726839492097497">
        <ele>174.43</ele>
        <time>2023-10-16T16:46:29.263Z</time>
      </trkpt>
      <trkpt lat="45.68582299165428" lon="17.72683085873723">
        <ele>174.4</ele>
        <time>2023-10-16T16:46:30.688Z</time>
      </trkpt>
      <trkpt lat="45.68579860031605" lon="17.726822644472122">
        <ele>174.38</ele>
        <time>2023-10-16T16:46:32.113Z</time>
      </trkpt>
      <trkpt lat="45.6857733707875" lon="17.72681476548314">
        <ele>174.35</ele>
        <time>2023-10-16T16:46:33.539Z</time>
      </trkpt>
      <trkpt lat="45.68574730306864" lon="17.72680688649416">
        <ele>174.31</ele>
        <time>2023-10-16T16:46:34.966Z</time>
      </trkpt>
      <trkpt lat="45.68572048097849" lon="17.72679900750518">
        <ele>174.27</ele>
        <time>2023-10-16T16:46:36.394Z</time>
      </trkpt>
      <trkpt lat="45.68569374270737" lon="17.72679129615426">
        <ele>174.22</ele>
        <time>2023-10-16T16:46:37.823Z</time>
      </trkpt>
      <trkpt lat="45.685667088255286" lon="17.726783333346248">
        <ele>174.17</ele>
        <time>2023-10-16T16:46:39.253Z</time>
      </trkpt>
      <trkpt lat="45.68564034998417" lon="17.726774867624044">
        <ele>174.12</ele>
        <time>2023-10-16T16:46:40.684Z</time>
      </trkpt>
      <trkpt lat="45.68561344407499" lon="17.726766066625714">
        <ele>174.06</ele>
        <time>2023-10-16T16:46:42.116Z</time>
      </trkpt>
      <trkpt lat="45.685586454346776" lon="17.726757181808352">
        <ele>173.99</ele>
        <time>2023-10-16T16:46:43.549Z</time>
      </trkpt>
      <trkpt lat="45.68555971607566" lon="17.726748548448086">
        <ele>173.92</ele>
        <time>2023-10-16T16:46:44.983Z</time>
      </trkpt>
      <trkpt lat="45.68553322926164" lon="17.726740250363946">
        <ele>173.84</ele>
        <time>2023-10-16T16:46:46.417Z</time>
      </trkpt>
      <trkpt lat="45.685506826266646" lon="17.726732287555933">
        <ele>173.76</ele>
        <time>2023-10-16T16:46:47.852Z</time>
      </trkpt>
      <trkpt lat="45.68548059090972" lon="17.726724576205015">
        <ele>173.67</ele>
        <time>2023-10-16T16:46:49.288Z</time>
      </trkpt>
      <trkpt lat="45.68545469082892" lon="17.726717200130224">
        <ele>173.58</ele>
        <time>2023-10-16T16:46:50.725Z</time>
      </trkpt>
      <trkpt lat="45.685429126024246" lon="17.72671007551253">
        <ele>173.49</ele>
        <time>2023-10-16T16:46:52.163Z</time>
      </trkpt>
      <trkpt lat="45.68540347740054" lon="17.726702950894833">
        <ele>173.4</ele>
        <time>2023-10-16T16:46:53.602Z</time>
      </trkpt>
      <trkpt lat="45.68537766113877" lon="17.72669591009617">
        <ele>173.3</ele>
        <time>2023-10-16T16:46:55.042Z</time>
      </trkpt>
      <trkpt lat="45.6853520963341" lon="17.726688785478473">
        <ele>173.2</ele>
        <time>2023-10-16T16:46:56.483Z</time>
      </trkpt>
      <trkpt lat="45.68532686680555" lon="17.726681493222713">
        <ele>173.09</ele>
        <time>2023-10-16T16:46:57.924Z</time>
      </trkpt>
      <trkpt lat="45.6853018887341" lon="17.726673698052764">
        <ele>172.98</ele>
        <time>2023-10-16T16:46:59.366Z</time>
      </trkpt>
      <trkpt lat="45.68527691066265" lon="17.72666523233056">
        <ele>172.87</ele>
        <time>2023-10-16T16:47:00.809Z</time>
      </trkpt>
      <trkpt lat="45.68525201641023" lon="17.726656179875135">
        <ele>172.76</ele>
        <time>2023-10-16T16:47:02.253Z</time>
      </trkpt>
      <trkpt lat="45.68522745743394" lon="17.726646959781647">
        <ele>172.65</ele>
        <time>2023-10-16T16:47:03.698Z</time>
      </trkpt>
      <trkpt lat="45.68520298227668" lon="17.72663790732622">
        <ele>172.53</ele>
        <time>2023-10-16T16:47:05.144Z</time>
      </trkpt>
      <trkpt lat="45.68517850711942" lon="17.72662910632789">
        <ele>172.41</ele>
        <time>2023-10-16T16:47:06.591Z</time>
      </trkpt>
      <trkpt lat="45.685153612867" lon="17.72662072442472">
        <ele>172.29</ele>
        <time>2023-10-16T16:47:08.038Z</time>
      </trkpt>
      <trkpt lat="45.68512863479555" lon="17.726613264530897">
        <ele>172.17</ele>
        <time>2023-10-16T16:47:09.486Z</time>
      </trkpt>
      <trkpt lat="45.685103405267" lon="17.726606894284487">
        <ele>172.05</ele>
        <time>2023-10-16T16:47:10.935Z</time>
      </trkpt>
      <trkpt lat="45.68507800810039" lon="17.726601948961616">
        <ele>171.93</ele>
        <time>2023-10-16T16:47:12.385Z</time>
      </trkpt>
      <trkpt lat="45.68505210801959" lon="17.726598931476474">
        <ele>171.81</ele>
        <time>2023-10-16T16:47:13.836Z</time>
      </trkpt>
      <trkpt lat="45.68502587266266" lon="17.726598344743252">
        <ele>171.69</ele>
        <time>2023-10-16T16:47:15.288Z</time>
      </trkpt>
      <trkpt lat="45.68499963730574" lon="17.726599937304854">
        <ele>171.58</ele>
        <time>2023-10-16T16:47:16.741Z</time>
      </trkpt>
      <trkpt lat="45.68497331812978" lon="17.726603876799345">
        <ele>171.46</ele>
        <time>2023-10-16T16:47:18.194Z</time>
      </trkpt>
      <trkpt lat="45.68494699895382" lon="17.72660999558866">
        <ele>171.34</ele>
        <time>2023-10-16T16:47:19.648Z</time>
      </trkpt>
      <trkpt lat="45.684920428320765" lon="17.726618042215705">
        <ele>171.22</ele>
        <time>2023-10-16T16:47:21.103Z</time>
      </trkpt>
      <trkpt lat="45.68489369004965" lon="17.726627932861447">
        <ele>171.11</ele>
        <time>2023-10-16T16:47:22.559Z</time>
      </trkpt>
      <trkpt lat="45.684867203235626" lon="17.726639499887824">
        <ele>171.0</ele>
        <time>2023-10-16T16:47:24.016Z</time>
      </trkpt>
      <trkpt lat="45.6848409678787" lon="17.726652156561613">
        <ele>170.89</ele>
        <time>2023-10-16T16:47:25.474Z</time>
      </trkpt>
      <trkpt lat="45.684814816340804" lon="17.726665483787656">
        <ele>170.78</ele>
        <time>2023-10-16T16:47:26.933Z</time>
      </trkpt>
      <trkpt lat="45.68478866480291" lon="17.726679146289825">
        <ele>170.67</ele>
        <time>2023-10-16T16:47:28.393Z</time>
      </trkpt>
      <trkpt lat="45.68476284854114" lon="17.726692389696836">
        <ele>170.56</ele>
        <time>2023-10-16T16:47:29.854Z</time>
      </trkpt>
      <trkpt lat="45.684737199917436" lon="17.72670479491353">
        <ele>170.45</ele>
        <time>2023-10-16T16:47:31.316Z</time>
      </trkpt>
      <trkpt lat="45.6847114674747" lon="17.726716278120875">
        <ele>170.35</ele>
        <time>2023-10-16T16:47:32.779Z</time>
      </trkpt>
      <trkpt lat="45.68468548357487" lon="17.72672633640468">
        <ele>170.25</ele>
        <time>2023-10-16T16:47:34.242Z</time>
      </trkpt>
      <trkpt lat="45.684659415856004" lon="17.726734969764948">
        <ele>170.14</ele>
        <time>2023-10-16T16:47:35.706Z</time>
      </trkpt>
      <trkpt lat="45.68463343195617" lon="17.726742094382644">
        <ele>170.04</ele>
        <time>2023-10-16T16:47:37.171Z</time>
      </trkpt>
      <trkpt lat="45.68460753187537" lon="17.726747877895832">
        <ele>169.93</ele>
        <time>2023-10-16T16:47:38.637Z</time>
      </trkpt>
      <trkpt lat="45.68458146415651" lon="17.72675273939967">
        <ele>169.83</ele>
        <time>2023-10-16T16:47:40.104Z</time>
      </trkpt>
      <trkpt lat="45.68455522879958" lon="17.726756846532226">
        <ele>169.73</ele>
        <time>2023-10-16T16:47:41.572Z</time>
      </trkpt>
      <trkpt lat="45.684529077261686" lon="17.726760115474463">
        <ele>169.62</ele>
        <time>2023-10-16T16:47:43.041Z</time>
      </trkpt>
      <trkpt lat="45.68450292572379" lon="17.726762546226382">
        <ele>169.52</ele>
        <time>2023-10-16T16:47:44.511Z</time>
      </trkpt>
      <trkpt lat="45.6844765227288" lon="17.726764138787985">
        <ele>169.42</ele>
        <time>2023-10-16T16:47:45.982Z</time>
      </trkpt>
      <trkpt lat="45.684449868276715" lon="17.72676480934024">
        <ele>169.32</ele>
        <time>2023-10-16T16:47:47.453Z</time>
      </trkpt>
      <trkpt lat="45.684423046186566" lon="17.726764557883143">
        <ele>169.23</ele>
        <time>2023-10-16T16:47:48.925Z</time>
      </trkpt>
      <trkpt lat="45.684396056458354" lon="17.7267633844167">
        <ele>169.13</ele>
        <time>2023-10-16T16:47:50.398Z</time>
      </trkpt>
      <trkpt lat="45.68436915054917" lon="17.72676145657897">
        <ele>169.03</ele>
        <time>2023-10-16T16:47:51.872Z</time>
      </trkpt>
      <trkpt lat="45.684341825544834" lon="17.726758774369955">
        <ele>168.94</ele>
        <time>2023-10-16T16:47:53.347Z</time>
      </trkpt>
      <trkpt lat="45.68431433290243" lon="17.726755421608686">
        <ele>168.85</ele>
        <time>2023-10-16T16:47:54.823Z</time>
      </trkpt>
      <trkpt lat="45.684287091717124" lon="17.726751398295164">
        <ele>168.75</ele>
        <time>2023-10-16T16:47:56.300Z</time>
      </trkpt>
      <trkpt lat="45.68426018580794" lon="17.72674729116261">
        <ele>168.66</ele>
        <time>2023-10-16T16:47:57.778Z</time>
      </trkpt>
      <trkpt lat="45.684233447536826" lon="17.726743016391993">
        <ele>168.57</ele>
        <time>2023-10-16T16:47:59.257Z</time>
      </trkpt>
      <trkpt lat="45.68420687690377" lon="17.726738825440407">
        <ele>168.49</ele>
        <time>2023-10-16T16:48:00.737Z</time>
      </trkpt>
      <trkpt lat="45.684181060642004" lon="17.72673513740301">
        <ele>168.4</ele>
        <time>2023-10-16T16:48:02.217Z</time>
      </trkpt>
      <trkpt lat="45.68415591493249" lon="17.726731868460774">
        <ele>168.31</ele>
        <time>2023-10-16T16:48:03.698Z</time>
      </trkpt>
      <trkpt lat="45.6841313559562" lon="17.72672927007079">
        <ele>168.23</ele>
        <time>2023-10-16T16:48:05.180Z</time>
      </trkpt>
      <trkpt lat="45.68410713225603" lon="17.72672776132822">
        <ele>168.15</ele>
        <time>2023-10-16T16:48:06.663Z</time>
      </trkpt>
      <trkpt lat="45.68408307619393" lon="17.726727006956935">
        <ele>168.07</ele>
        <time>2023-10-16T16:48:08.147Z</time>
      </trkpt>
      <trkpt lat="45.68405960686505" lon="17.726727090775967">
        <ele>168.0</ele>
        <time>2023-10-16T16:48:09.631Z</time>
      </trkpt>
      <trkpt lat="45.68403638899326" lon="17.726727593690157">
        <ele>167.92</ele>
        <time>2023-10-16T16:48:11.116Z</time>
      </trkpt>
      <trkpt lat="45.68401325494051" lon="17.72672826424241">
        <ele>167.85</ele>
        <time>2023-10-16T16:48:12.602Z</time>
      </trkpt>
      <trkpt lat="45.683989617973566" lon="17.726728515699506">
        <ele>167.78</ele>
        <time>2023-10-16T16:48:14.089Z</time>
      </trkpt>
      <trkpt lat="45.68396581336856" lon="17.72672818042338">
        <ele>167.72</ele>
        <time>2023-10-16T16:48:15.577Z</time>
      </trkpt>
      <trkpt lat="45.68394158966839" lon="17.726727342233062">
        <ele>167.65</ele>
        <time>2023-10-16T16:48:17.065Z</time>
      </trkpt>
      <trkpt lat="45.68391711451113" lon="17.72672583349049">
        <ele>167.59</ele>
        <time>2023-10-16T16:48:18.554Z</time>
      </trkpt>
      <trkpt lat="45.68389213643968" lon="17.72672340273857">
        <ele>167.53</ele>
        <time>2023-10-16T16:48:20.044Z</time>
      </trkpt>
      <trkpt lat="45.6838668230921" lon="17.726720217615366">
        <ele>167.47</ele>
        <time>2023-10-16T16:48:21.535Z</time>
      </trkpt>
      <trkpt lat="45.68384159356356" lon="17.726716194301844">
        <ele>167.41</ele>
        <time>2023-10-16T16:48:23.027Z</time>
      </trkpt>
      <trkpt lat="45.683816531673074" lon="17.726711332798004">
        <ele>167.36</ele>
        <time>2023-10-16T16:48:24.520Z</time>
      </trkpt>
      <trkpt lat="45.683791721239686" lon="17.726705968379974">
        <ele>167.31</ele>
        <time>2023-10-16T16:48:26.013Z</time>
      </trkpt>
      <trkpt lat="45.68376707844436" lon="17.726700520142913">
        <ele>167.26</ele>
        <time>2023-10-16T16:48:27.507Z</time>
      </trkpt>
      <trkpt lat="45.6837426032871" lon="17.726695239543915">
        <ele>167.21</ele>
        <time>2023-10-16T16:48:29.002Z</time>
      </trkpt>
      <trkpt lat="45.683718798682094" lon="17.72669054567814">
        <ele>167.17</ele>
        <time>2023-10-16T16:48:30.498Z</time>
      </trkpt>
      <trkpt lat="45.68369516171515" lon="17.72668669000268">
        <ele>167.13</ele>
        <time>2023-10-16T16:48:31.995Z</time>
      </trkpt>
      <trkpt lat="45.68367160856724" lon="17.7266838401556">
        <ele>167.1</ele>
        <time>2023-10-16T16:48:33.492Z</time>
      </trkpt>
      <trkpt lat="45.68364822305739" lon="17.726681912317872">
        <ele>167.07</ele>
        <time>2023-10-16T16:48:34.990Z</time>
      </trkpt>
      <trkpt lat="45.683625089004636" lon="17.72668124176562">
        <ele>167.05</ele>
        <time>2023-10-16T16:48:36.489Z</time>
      </trkpt>
      <trkpt lat="45.683602122589946" lon="17.726681577041745">
        <ele>167.03</ele>
        <time>2023-10-16T16:48:37.989Z</time>
      </trkpt>
      <trkpt lat="45.68357882089913" lon="17.726682666689157">
        <ele>167.02</ele>
        <time>2023-10-16T16:48:39.490Z</time>
      </trkpt>
      <trkpt lat="45.683555183932185" lon="17.726684510707855">
        <ele>167.01</ele>
        <time>2023-10-16T16:48:40.991Z</time>
      </trkpt>
      <trkpt lat="45.68353112787008" lon="17.72668669000268">
        <ele>167.0</ele>
        <time>2023-10-16T16:48:42.493Z</time>
      </trkpt>
      <trkpt lat="45.683506820350885" lon="17.726688785478473">
        <ele>167.0</ele>
        <time>2023-10-16T16:48:43.996Z</time>
      </trkpt>
      <trkpt lat="45.68348226137459" lon="17.72669054567814">
        <ele>167.0</ele>
        <time>2023-10-16T16:48:45.500Z</time>
      </trkpt>
      <trkpt lat="45.68345711566508" lon="17.72669155150652">
        <ele>167.0</ele>
        <time>2023-10-16T16:48:47.005Z</time>
      </trkpt>
      <trkpt lat="45.68343171849847" lon="17.726691467687488">
        <ele>167.0</ele>
        <time>2023-10-16T16:48:48.510Z</time>
      </trkpt>
      <trkpt lat="45.683406153693795" lon="17.72669012658298">
        <ele>167.01</ele>
        <time>2023-10-16T16:48:50.016Z</time>
      </trkpt>
      <trkpt lat="45.68338050507009" lon="17.726687528192997">
        <ele>167.03</ele>
        <time>2023-10-16T16:48:51.523Z</time>
      </trkpt>
      <trkpt lat="45.68335460498929" lon="17.726683672517538">
        <ele>167.04</ele>
        <time>2023-10-16T16:48:53.031Z</time>
      </trkpt>
      <trkpt lat="45.68332870490849" lon="17.7266788110137">
        <ele>167.06</ele>
        <time>2023-10-16T16:48:54.540Z</time>
      </trkpt>
      <trkpt lat="45.68330330774188" lon="17.726673111319542">
        <ele>167.08</ele>
        <time>2023-10-16T16:48:56.050Z</time>
      </trkpt>
      <trkpt lat="45.68327849730849" lon="17.7266666572541">
        <ele>167.11</ele>
        <time>2023-10-16T16:48:57.561Z</time>
      </trkpt>
      <trkpt lat="45.68325452506542" lon="17.726659616455436">
        <ele>167.14</ele>
        <time>2023-10-16T16:48:59.072Z</time>
      </trkpt>
      <trkpt lat="45.68323139101267" lon="17.726652156561613">
        <ele>167.17</ele>
        <time>2023-10-16T16:49:00.584Z</time>
      </trkpt>
      <trkpt lat="45.68320934660733" lon="17.72664469666779">
        <ele>167.2</ele>
        <time>2023-10-16T16:49:02.097Z</time>
      </trkpt>
      <trkpt lat="45.68318889476359" lon="17.726637488231063">
        <ele>167.23</ele>
        <time>2023-10-16T16:49:03.611Z</time>
      </trkpt>
      <trkpt lat="45.683169700205326" lon="17.726630866527557">
        <ele>167.27</ele>
        <time>2023-10-16T16:49:05.125Z</time>
      </trkpt>
      <trkpt lat="45.6831519305706" lon="17.726624999195337">
        <ele>167.31</ele>
        <time>2023-10-16T16:49:06.640Z</time>
      </trkpt>
      <trkpt lat="45.683135502040386" lon="17.726620472967625">
        <ele>167.36</ele>
        <time>2023-10-16T16:49:08.156Z</time>
      </trkpt>
      <trkpt lat="45.68312049843371" lon="17.726617706939578">
        <ele>167.41</ele>
        <time>2023-10-16T16:49:09.672Z</time>
      </trkpt>
      <trkpt lat="45.68310683593154" lon="17.72661686874926">
        <ele>167.46</ele>
        <time>2023-10-16T16:49:11.188Z</time>
      </trkpt>
      <trkpt lat="45.683094849810004" lon="17.7266182936728">
        <ele>167.51</ele>
        <time>2023-10-16T16:49:12.705Z</time>
      </trkpt>
      <trkpt lat="45.68308428861201" lon="17.726621981710196">
        <ele>167.57</ele>
        <time>2023-10-16T16:49:14.222Z</time>
      </trkpt>
      <trkpt lat="45.683075319975615" lon="17.726628184318542">
        <ele>167.63</ele>
        <time>2023-10-16T16:49:15.740Z</time>
      </trkpt>
      <trkpt lat="45.683067943900824" lon="17.726637152954936">
        <ele>167.69</ele>
        <time>2023-10-16T16:49:17.258Z</time>
      </trkpt>
      <trkpt lat="45.68306199274957" lon="17.72664813324809">
        <ele>167.75</ele>
        <time>2023-10-16T16:49:18.776Z</time>
      </trkpt>
      <trkpt lat="45.68305696360767" lon="17.72666120901704">
        <ele>167.82</ele>
        <time>2023-10-16T16:49:20.295Z</time>
      </trkpt>
      <trkpt lat="45.68305310793221" lon="17.72667646408081">
        <ele>167.89</ele>
        <time>2023-10-16T16:49:21.814Z</time>
      </trkpt>
      <trkpt lat="45.68305025808513" lon="17.72669398225844">
        <ele>167.96</ele>
        <time>2023-10-16T16:49:23.333Z</time>
      </trkpt>
      <trkpt lat="45.6830483302474" lon="17.72671259008348">
        <ele>168.03</ele>
        <time>2023-10-16T16:49:24.853Z</time>
      </trkpt>
      <trkpt lat="45.68304732441902" lon="17.72673211991787">
        <ele>168.11</ele>
        <time>2023-10-16T16:49:26.373Z</time>
      </trkpt>
      <trkpt lat="45.68304724059999" lon="17.726751985028386">
        <ele>168.18</ele>
        <time>2023-10-16T16:49:27.894Z</time>
      </trkpt>
      <trkpt lat="45.68304757587612" lon="17.726771514862776">
        <ele>168.26</ele>
        <time>2023-10-16T16:49:29.415Z</time>
      </trkpt>
      <trkpt lat="45.683047911152244" lon="17.726790541782975">
        <ele>168.34</ele>
        <time>2023-10-16T16:49:30.937Z</time>
      </trkpt>
      <trkpt lat="45.683047994971275" lon="17.726808730512857">
        <ele>168.42</ele>
        <time>2023-10-16T16:49:32.459Z</time>
      </trkpt>
      <trkpt lat="45.683047492057085" lon="17.72682591341436">
        <ele>168.5</ele>
        <time>2023-10-16T16:49:33.981Z</time>
      </trkpt>
      <trkpt lat="45.683046486228704" lon="17.726842425763607">
        <ele>168.58</ele>
        <time>2023-10-16T16:49:35.504Z</time>
      </trkpt>
      <trkpt lat="45.68304539658129" lon="17.726857932284474">
        <ele>168.67</ele>
        <time>2023-10-16T16:49:37.027Z</time>
      </trkpt>
      <trkpt lat="45.68304439075291" lon="17.72687234915793">
        <ele>168.75</ele>
        <time>2023-10-16T16:49:38.551Z</time>
      </trkpt>
      <trkpt lat="45.6830433011055" lon="17.726885760203004">
        <ele>168.84</ele>
        <time>2023-10-16T16:49:40.075Z</time>
      </trkpt>
      <trkpt lat="45.68304229527712" lon="17.726898584514856">
        <ele>168.93</ele>
        <time>2023-10-16T16:49:41.599Z</time>
      </trkpt>
      <trkpt lat="45.683041205629706" lon="17.72691090591252">
        <ele>169.02</ele>
        <time>2023-10-16T16:49:43.123Z</time>
      </trkpt>
      <trkpt lat="45.6830398645252" lon="17.726922556757927">
        <ele>169.11</ele>
        <time>2023-10-16T16:49:44.648Z</time>
      </trkpt>
      <trkpt lat="45.68303852342069" lon="17.726934039965272">
        <ele>169.2</ele>
        <time>2023-10-16T16:49:46.173Z</time>
      </trkpt>
      <trkpt lat="45.68303743377328" lon="17.726945439353585">
        <ele>169.29</ele>
        <time>2023-10-16T16:49:47.698Z</time>
      </trkpt>
      <trkpt lat="45.683036679401994" lon="17.72695692256093">
        <ele>169.39</ele>
        <time>2023-10-16T16:49:49.224Z</time>
      </trkpt>
      <trkpt lat="45.683036260306835" lon="17.72696857340634">
        <ele>169.48</ele>
        <time>2023-10-16T16:49:50.750Z</time>
      </trkpt>
      <trkpt lat="45.6830361764878" lon="17.726980475708842">
        <ele>169.58</ele>
        <time>2023-10-16T16:49:52.276Z</time>
      </trkpt>
      <trkpt lat="45.6830361764878" lon="17.726992713287473">
        <ele>169.67</ele>
        <time>2023-10-16T16:49:53.802Z</time>
      </trkpt>
      <trkpt lat="45.68303592503071" lon="17.727005453780293">
        <ele>169.77</ele>
        <time>2023-10-16T16:49:55.329Z</time>
      </trkpt>
      <trkpt lat="45.68303567357361" lon="17.727018194273114">
        <ele>169.87</ele>
        <time>2023-10-16T16:49:56.856Z</time>
      </trkpt>
      <trkpt lat="45.683035338297486" lon="17.727031018584967">
        <ele>169.97</ele>
        <time>2023-10-16T16:49:58.383Z</time>
      </trkpt>
      <trkpt lat="45.68303500302136" lon="17.727043759077787">
        <ele>170.07</ele>
        <time>2023-10-16T16:49:59.911Z</time>
      </trkpt>
      <trkpt lat="45.6830345839262" lon="17.727056499570608">
        <ele>170.17</ele>
        <time>2023-10-16T16:50:01.439Z</time>
      </trkpt>
      <trkpt lat="45.68303391337395" lon="17.727069072425365">
        <ele>170.28</ele>
        <time>2023-10-16T16:50:02.967Z</time>
      </trkpt>
      <trkpt lat="45.683032823726535" lon="17.727081310003996">
        <ele>170.38</ele>
        <time>2023-10-16T16:50:04.495Z</time>
      </trkpt>
      <trkpt lat="45.6830311473459" lon="17.72709329612553">
        <ele>170.49</ele>
        <time>2023-10-16T16:50:06.024Z</time>
      </trkpt>
      <trkpt lat="45.683028884232044" lon="17.72710494697094">
        <ele>170.59</ele>
        <time>2023-10-16T16:50:07.553Z</time>
      </trkpt>
      <trkpt lat="45.6830258667469" lon="17.727116094902158">
        <ele>170.7</ele>
        <time>2023-10-16T16:50:09.082Z</time>
      </trkpt>
      <trkpt lat="45.68302217870951" lon="17.72712690755725">
        <ele>170.81</ele>
        <time>2023-10-16T16:50:10.612Z</time>
      </trkpt>
      <trkpt lat="45.68301798775792" lon="17.72713763639331">
        <ele>170.92</ele>
        <time>2023-10-16T16:50:12.142Z</time>
      </trkpt>
      <trkpt lat="45.683013293892145" lon="17.727148113772273">
        <ele>171.04</ele>
        <time>2023-10-16T16:50:13.672Z</time>
      </trkpt>
      <trkpt lat="45.68300818093121" lon="17.727158339694142">
        <ele>171.15</ele>
        <time>2023-10-16T16:50:15.202Z</time>
      </trkpt>
      <trkpt lat="45.68300264887512" lon="17.727168649435043">
        <ele>171.27</ele>
        <time>2023-10-16T16:50:16.733Z</time>
      </trkpt>
      <trkpt lat="45.682996697723866" lon="17.727179126814008">
        <ele>171.39</ele>
        <time>2023-10-16T16:50:18.264Z</time>
      </trkpt>
      <trkpt lat="45.682990327477455" lon="17.727189855650067">
        <ele>171.5</ele>
        <time>2023-10-16T16:50:19.795Z</time>
      </trkpt>
      <trkpt lat="45.682983538135886" lon="17.727200919762254">
        <ele>171.62</ele>
        <time>2023-10-16T16:50:21.327Z</time>
      </trkpt>
      <trkpt lat="45.68297683261335" lon="17.727212151512504">
        <ele>171.74</ele>
        <time>2023-10-16T16:50:22.859Z</time>
      </trkpt>
      <trkpt lat="45.682970294728875" lon="17.727223467081785">
        <ele>171.87</ele>
        <time>2023-10-16T16:50:24.391Z</time>
      </trkpt>
      <trkpt lat="45.68296384066343" lon="17.727235117927194">
        <ele>171.99</ele>
        <time>2023-10-16T16:50:25.924Z</time>
      </trkpt>
      <trkpt lat="45.68295747041702" lon="17.727247020229697">
        <ele>172.12</ele>
        <time>2023-10-16T16:50:27.457Z</time>
      </trkpt>
      <trkpt lat="45.68295101635158" lon="17.72725883871317">
        <ele>172.25</ele>
        <time>2023-10-16T16:50:28.990Z</time>
      </trkpt>
      <trkpt lat="45.68294405937195" lon="17.72727057337761">
        <ele>172.38</ele>
        <time>2023-10-16T16:50:30.524Z</time>
      </trkpt>
      <trkpt lat="45.68293634802103" lon="17.727282056584954">
        <ele>172.51</ele>
        <time>2023-10-16T16:50:32.058Z</time>
      </trkpt>
      <trkpt lat="45.682927798479795" lon="17.727292953059077">
        <ele>172.64</ele>
        <time>2023-10-16T16:50:33.593Z</time>
      </trkpt>
      <trkpt lat="45.68291782401502" lon="17.72730326279998">
        <ele>172.78</ele>
        <time>2023-10-16T16:50:35.128Z</time>
      </trkpt>
      <trkpt lat="45.68290650844574" lon="17.727312734350562">
        <ele>172.92</ele>
        <time>2023-10-16T16:50:36.663Z</time>
      </trkpt>
      <trkpt lat="45.68289393559098" lon="17.72732136771083">
        <ele>173.06</ele>
        <time>2023-10-16T16:50:38.199Z</time>
      </trkpt>
      <trkpt lat="45.68287960253656" lon="17.727329414337873">
        <ele>173.2</ele>
        <time>2023-10-16T16:50:39.735Z</time>
      </trkpt>
      <trkpt lat="45.68286350928247" lon="17.727336790412664">
        <ele>173.35</ele>
        <time>2023-10-16T16:50:41.272Z</time>
      </trkpt>
      <trkpt lat="45.68284582346678" lon="17.727343663573265">
        <ele>173.49</ele>
        <time>2023-10-16T16:50:42.810Z</time>
      </trkpt>
      <trkpt lat="45.68282679654658" lon="17.727350117638707">
        <ele>173.64</ele>
        <time>2023-10-16T16:50:44.348Z</time>
      </trkpt>
      <trkpt lat="45.68280626088381" lon="17.727356236428022">
        <ele>173.8</ele>
        <time>2023-10-16T16:50:45.887Z</time>
      </trkpt>
      <trkpt lat="45.682784635573626" lon="17.72736243903637">
        <ele>173.95</ele>
        <time>2023-10-16T16:50:47.427Z</time>
      </trkpt>
      <trkpt lat="45.68276225589216" lon="17.727368641644716">
        <ele>174.11</ele>
        <time>2023-10-16T16:50:48.967Z</time>
      </trkpt>
      <trkpt lat="45.68273895420134" lon="17.727374676615">
        <ele>174.27</ele>
        <time>2023-10-16T16:50:50.508Z</time>
      </trkpt>
      <trkpt lat="45.68271540105343" lon="17.72738054394722">
        <ele>174.43</ele>
        <time>2023-10-16T16:50:52.050Z</time>
      </trkpt>
      <trkpt lat="45.682691764086485" lon="17.727386076003313">
        <ele>174.6</ele>
        <time>2023-10-16T16:50:53.593Z</time>
      </trkpt>
      <trkpt lat="45.68266804330051" lon="17.72739127278328">
        <ele>174.76</ele>
        <time>2023-10-16T16:50:55.137Z</time>
      </trkpt>
      <trkpt lat="45.6826444901526" lon="17.72739613428712">
        <ele>174.93</ele>
        <time>2023-10-16T16:50:56.681Z</time>
      </trkpt>
      <trkpt lat="45.68262110464275" lon="17.727400744333863">
        <ele>175.1</ele>
        <time>2023-10-16T16:50:58.226Z</time>
      </trkpt>
      <trkpt lat="45.6825977191329" lon="17.727404600009322">
        <ele>175.27</ele>
        <time>2023-10-16T16:50:59.772Z</time>
      </trkpt>
      <trkpt lat="45.68257433362305" lon="17.72740786895156">
        <ele>175.44</ele>
        <time>2023-10-16T16:51:01.319Z</time>
      </trkpt>
      <trkpt lat="45.68255078047514" lon="17.727409964427352">
        <ele>175.62</ele>
        <time>2023-10-16T16:51:02.867Z</time>
      </trkpt>
      <trkpt lat="45.68252697587013" lon="17.7274108864367">
        <ele>175.8</ele>
        <time>2023-10-16T16:51:04.415Z</time>
      </trkpt>
      <trkpt lat="45.682503087446094" lon="17.727410634979606">
        <ele>175.97</ele>
        <time>2023-10-16T16:51:05.964Z</time>
      </trkpt>
      <trkpt lat="45.682479199022055" lon="17.72740937769413">
        <ele>176.15</ele>
        <time>2023-10-16T16:51:07.514Z</time>
      </trkpt>
      <trkpt lat="45.682455310598016" lon="17.72740736603737">
        <ele>176.33</ele>
        <time>2023-10-16T16:51:09.065Z</time>
      </trkpt>
      <trkpt lat="45.68243142217398" lon="17.72740493528545">
        <ele>176.52</ele>
        <time>2023-10-16T16:51:10.617Z</time>
      </trkpt>
      <trkpt lat="45.682407449930906" lon="17.72740208543837">
        <ele>176.7</ele>
        <time>2023-10-16T16:51:12.169Z</time>
      </trkpt>
      <trkpt lat="45.68238372914493" lon="17.727398984134197">
        <ele>176.88</ele>
        <time>2023-10-16T16:51:13.722Z</time>
      </trkpt>
      <trkpt lat="45.68236025981605" lon="17.727395463734865">
        <ele>177.07</ele>
        <time>2023-10-16T16:51:15.276Z</time>
      </trkpt>
      <trkpt lat="45.6823368743062" lon="17.7273918595165">
        <ele>177.25</ele>
        <time>2023-10-16T16:51:16.831Z</time>
      </trkpt>
      <trkpt lat="45.68231348879635" lon="17.72738833911717">
        <ele>177.44</ele>
        <time>2023-10-16T16:51:18.386Z</time>
      </trkpt>
      <trkpt lat="45.68229001946747" lon="17.727385321632028">
        <ele>177.62</ele>
        <time>2023-10-16T16:51:19.942Z</time>
      </trkpt>
      <trkpt lat="45.68226646631956" lon="17.727382723242044">
        <ele>177.81</ele>
        <time>2023-10-16T16:51:21.499Z</time>
      </trkpt>
      <trkpt lat="45.68224257789552" lon="17.727380795404315">
        <ele>178.0</ele>
        <time>2023-10-16T16:51:23.057Z</time>
      </trkpt>
      <trkpt lat="45.682218354195356" lon="17.727379370480776">
        <ele>178.19</ele>
        <time>2023-10-16T16:51:24.616Z</time>
      </trkpt>
      <trkpt lat="45.68219345994294" lon="17.72737853229046">
        <ele>178.38</ele>
        <time>2023-10-16T16:51:26.176Z</time>
      </trkpt>
      <trkpt lat="45.682167895138264" lon="17.727377861738205">
        <ele>178.57</ele>
        <time>2023-10-16T16:51:27.736Z</time>
      </trkpt>
      <trkpt lat="45.6821418274194" lon="17.727377442643046">
        <ele>178.76</ele>
        <time>2023-10-16T16:51:29.297Z</time>
      </trkpt>
      <trkpt lat="45.68211550824344" lon="17.72737719118595">
        <ele>178.95</ele>
        <time>2023-10-16T16:51:30.859Z</time>
      </trkpt>
      <trkpt lat="45.682088853791356" lon="17.727376939728856">
        <ele>179.15</ele>
        <time>2023-10-16T16:51:32.422Z</time>
      </trkpt>
      <trkpt lat="45.68206219933927" lon="17.727376352995634">
        <ele>179.34</ele>
        <time>2023-10-16T16:51:33.986Z</time>
      </trkpt>
      <trkpt lat="45.68203588016331" lon="17.727375430986285">
        <ele>179.52</ele>
        <time>2023-10-16T16:51:35.551Z</time>
      </trkpt>
      <trkpt lat="45.6820107344538" lon="17.727374089881778">
        <ele>179.71</ele>
        <time>2023-10-16T16:51:37.117Z</time>
      </trkpt>
      <trkpt lat="45.68198692984879" lon="17.727372413501143">
        <ele>179.9</ele>
        <time>2023-10-16T16:51:38.683Z</time>
      </trkpt>
      <trkpt lat="45.68196429871023" lon="17.727370401844382">
        <ele>180.09</ele>
        <time>2023-10-16T16:51:40.250Z</time>
      </trkpt>
      <trkpt lat="45.68194300867617" lon="17.72736830636859">
        <ele>180.27</ele>
        <time>2023-10-16T16:51:41.818Z</time>
      </trkpt>
      <trkpt lat="45.68192280828953" lon="17.72736646234989">
        <ele>180.45</ele>
        <time>2023-10-16T16:51:43.387Z</time>
      </trkpt>
      <trkpt lat="45.68190394900739" lon="17.72736545652151">
        <ele>180.63</ele>
        <time>2023-10-16T16:51:44.956Z</time>
      </trkpt>
      <trkpt lat="45.68188643082976" lon="17.72736545652151">
        <ele>180.81</ele>
        <time>2023-10-16T16:51:46.526Z</time>
      </trkpt>
      <trkpt lat="45.681870337575674" lon="17.727366210892797">
        <ele>180.99</ele>
        <time>2023-10-16T16:51:48.096Z</time>
      </trkpt>
      <trkpt lat="45.68185583688319" lon="17.7273678034544">
        <ele>181.16</ele>
        <time>2023-10-16T16:51:49.667Z</time>
      </trkpt>
      <trkpt lat="45.68184267729521" lon="17.727370569482446">
        <ele>181.33</ele>
        <time>2023-10-16T16:51:51.238Z</time>
      </trkpt>
      <trkpt lat="45.681830858811736" lon="17.727374006062746">
        <ele>181.5</ele>
        <time>2023-10-16T16:51:52.810Z</time>
      </trkpt>
      <trkpt lat="45.681819627061486" lon="17.72737802937627">
        <ele>181.66</ele>
        <time>2023-10-16T16:51:54.382Z</time>
      </trkpt>
      <trkpt lat="45.681808814406395" lon="17.72738247178495">
        <ele>181.83</ele>
        <time>2023-10-16T16:51:55.954Z</time>
      </trkpt>
      <trkpt lat="45.681798504665494" lon="17.727387500926852">
        <ele>181.99</ele>
        <time>2023-10-16T16:51:57.527Z</time>
      </trkpt>
      <trkpt lat="45.68178869783878" lon="17.727393032982945">
        <ele>182.15</ele>
        <time>2023-10-16T16:51:59.100Z</time>
      </trkpt>
      <trkpt lat="45.68177972920239" lon="17.72739915177226">
        <ele>182.3</ele>
        <time>2023-10-16T16:52:00.673Z</time>
      </trkpt>
      <trkpt lat="45.68177126348019" lon="17.727405354380608">
        <ele>182.46</ele>
        <time>2023-10-16T16:52:02.247Z</time>
      </trkpt>
      <trkpt lat="45.68176321685314" lon="17.72741130553186">
        <ele>182.61</ele>
        <time>2023-10-16T16:52:03.821Z</time>
      </trkpt>
      <trkpt lat="45.6817551702261" lon="17.727417591959238">
        <ele>182.75</ele>
        <time>2023-10-16T16:52:05.395Z</time>
      </trkpt>
      <trkpt lat="45.68174687214196" lon="17.72742396220565">
        <ele>182.9</ele>
        <time>2023-10-16T16:52:06.970Z</time>
      </trkpt>
      <trkpt lat="45.681738406419754" lon="17.72743033245206">
        <ele>183.04</ele>
        <time>2023-10-16T16:52:08.545Z</time>
      </trkpt>
      <trkpt lat="45.68172952160239" lon="17.727436870336533">
        <ele>183.18</ele>
        <time>2023-10-16T16:52:10.120Z</time>
      </trkpt>
      <trkpt lat="45.68172021768987" lon="17.727443408221006">
        <ele>183.31</ele>
        <time>2023-10-16T16:52:11.696Z</time>
      </trkpt>
      <trkpt lat="45.68171049468219" lon="17.727450029924512">
        <ele>183.44</ele>
        <time>2023-10-16T16:52:13.272Z</time>
      </trkpt>
      <trkpt lat="45.681700352579355" lon="17.72745631635189">
        <ele>183.57</ele>
        <time>2023-10-16T16:52:14.848Z</time>
      </trkpt>
      <trkpt lat="45.68168987520039" lon="17.72746209986508">
        <ele>183.69</ele>
        <time>2023-10-16T16:52:16.425Z</time>
      </trkpt>
      <trkpt lat="45.68167914636433" lon="17.727467296645045">
        <ele>183.81</ele>
        <time>2023-10-16T16:52:18.002Z</time>
      </trkpt>
      <trkpt lat="45.68166824989021" lon="17.727471822872758">
        <ele>183.93</ele>
        <time>2023-10-16T16:52:19.580Z</time>
      </trkpt>
      <trkpt lat="45.68165701813996" lon="17.72747626528144">
        <ele>184.04</ele>
        <time>2023-10-16T16:52:21.158Z</time>
      </trkpt>
      <trkpt lat="45.68164553493261" lon="17.727480540052056">
        <ele>184.15</ele>
        <time>2023-10-16T16:52:22.736Z</time>
      </trkpt>
      <trkpt lat="45.681633884087205" lon="17.727484814822674">
        <ele>184.26</ele>
        <time>2023-10-16T16:52:24.315Z</time>
      </trkpt>
      <trkpt lat="45.68162231706083" lon="17.727489257231355">
        <ele>184.36</ele>
        <time>2023-10-16T16:52:25.894Z</time>
      </trkpt>
      <trkpt lat="45.68161100149155" lon="17.727494118735194">
        <ele>184.46</ele>
        <time>2023-10-16T16:52:27.474Z</time>
      </trkpt>
      <trkpt lat="45.68160002119839" lon="17.72749981842935">
        <ele>184.55</ele>
        <time>2023-10-16T16:52:29.054Z</time>
      </trkpt>
      <trkpt lat="45.68158954381943" lon="17.727506440132856">
        <ele>184.64</ele>
        <time>2023-10-16T16:52:30.634Z</time>
      </trkpt>
      <trkpt lat="45.681579653173685" lon="17.727514235302806">
        <ele>184.72</ele>
        <time>2023-10-16T16:52:32.215Z</time>
      </trkpt>
      <trkpt lat="45.68157051689923" lon="17.7275232039392">
        <ele>184.8</ele>
        <time>2023-10-16T16:52:33.796Z</time>
      </trkpt>
      <trkpt lat="45.681561548262835" lon="17.72753342986107">
        <ele>184.88</ele>
        <time>2023-10-16T16:52:35.377Z</time>
      </trkpt>
      <trkpt lat="45.68155308254063" lon="17.727544493973255">
        <ele>184.95</ele>
        <time>2023-10-16T16:52:36.959Z</time>
      </trkpt>
      <trkpt lat="45.68154511973262" lon="17.727556144818664">
        <ele>185.02</ele>
        <time>2023-10-16T16:52:38.541Z</time>
      </trkpt>
      <trkpt lat="45.6815374083817" lon="17.7275681309402">
        <ele>185.09</ele>
        <time>2023-10-16T16:52:40.124Z</time>
      </trkpt>
      <trkpt lat="45.68153003230691" lon="17.727580284699798">
        <ele>185.15</ele>
        <time>2023-10-16T16:52:41.707Z</time>
      </trkpt>
      <trkpt lat="45.68152282387018" lon="17.727592773735523">
        <ele>185.21</ele>
        <time>2023-10-16T16:52:43.290Z</time>
      </trkpt>
      <trkpt lat="45.681515699252486" lon="17.727605178952217">
        <ele>185.26</ele>
        <time>2023-10-16T16:52:44.874Z</time>
      </trkpt>
      <trkpt lat="45.681508742272854" lon="17.727617416530848">
        <ele>185.31</ele>
        <time>2023-10-16T16:52:46.458Z</time>
      </trkpt>
      <trkpt lat="45.68150203675032" lon="17.727629570290446">
        <ele>185.36</ele>
        <time>2023-10-16T16:52:48.042Z</time>
      </trkpt>
      <trkpt lat="45.681495666503906" lon="17.72764147259295">
        <ele>185.41</ele>
        <time>2023-10-16T16:52:49.627Z</time>
      </trkpt>
      <trkpt lat="45.68148954771459" lon="17.72765320725739">
        <ele>185.45</ele>
        <time>2023-10-16T16:52:51.212Z</time>
      </trkpt>
      <trkpt lat="45.6814840156585" lon="17.72766452282667">
        <ele>185.49</ele>
        <time>2023-10-16T16:52:52.797Z</time>
      </trkpt>
      <trkpt lat="45.6814787350595" lon="17.727675922214985">
        <ele>185.52</ele>
        <time>2023-10-16T16:52:54.383Z</time>
      </trkpt>
      <trkpt lat="45.68147395737469" lon="17.72768740542233">
        <ele>185.55</ele>
        <time>2023-10-16T16:52:55.969Z</time>
      </trkpt>
      <trkpt lat="45.68146959878504" lon="17.72769914008677">
        <ele>185.58</ele>
        <time>2023-10-16T16:52:57.555Z</time>
      </trkpt>
      <trkpt lat="45.68146549165249" lon="17.727711210027337">
        <ele>185.6</ele>
        <time>2023-10-16T16:52:59.142Z</time>
      </trkpt>
      <trkpt lat="45.681461552158" lon="17.727723699063063">
        <ele>185.63</ele>
        <time>2023-10-16T16:53:00.729Z</time>
      </trkpt>
      <trkpt lat="45.68145778030157" lon="17.727736858651042">
        <ele>185.64</ele>
        <time>2023-10-16T16:53:02.316Z</time>
      </trkpt>
      <trkpt lat="45.68145384080708" lon="17.727750688791275">
        <ele>185.66</ele>
        <time>2023-10-16T16:53:03.904Z</time>
      </trkpt>
      <trkpt lat="45.6814493983984" lon="17.727765357121825">
        <ele>185.67</ele>
        <time>2023-10-16T16:53:05.492Z</time>
      </trkpt>
      <trkpt lat="45.681444369256496" lon="17.727780863642693">
        <ele>185.68</ele>
        <time>2023-10-16T16:53:07.080Z</time>
      </trkpt>
      <trkpt lat="45.68143858574331" lon="17.727797543630004">
        <ele>185.69</ele>
        <time>2023-10-16T16:53:08.669Z</time>
      </trkpt>
      <trkpt lat="45.6814319640398" lon="17.727815313264728">
        <ele>185.7</ele>
        <time>2023-10-16T16:53:10.258Z</time>
      </trkpt>
      <trkpt lat="45.68142467178404" lon="17.727833837270737">
        <ele>185.7</ele>
        <time>2023-10-16T16:53:11.848Z</time>
      </trkpt>
      <trkpt lat="45.68141679279506" lon="17.72785311564803">
        <ele>185.7</ele>
        <time>2023-10-16T16:53:13.438Z</time>
      </trkpt>
      <trkpt lat="45.68140849471092" lon="17.72787306457758">
        <ele>185.7</ele>
        <time>2023-10-16T16:53:15.029Z</time>
      </trkpt>
      <trkpt lat="45.68139994516969" lon="17.727893516421318">
        <ele>185.7</ele>
        <time>2023-10-16T16:53:16.620Z</time>
      </trkpt>
      <trkpt lat="45.68139131180942" lon="17.72791421972215">
        <ele>185.69</ele>
        <time>2023-10-16T16:53:18.212Z</time>
      </trkpt>
      <trkpt lat="45.68138284608722" lon="17.727934839203954">
        <ele>185.68</ele>
        <time>2023-10-16T16:53:19.805Z</time>
      </trkpt>
      <trkpt lat="45.68137463182211" lon="17.72795520722866">
        <ele>185.67</ele>
        <time>2023-10-16T16:53:21.398Z</time>
      </trkpt>
      <trkpt lat="45.681366585195065" lon="17.72797523997724">
        <ele>185.66</ele>
        <time>2023-10-16T16:53:22.992Z</time>
      </trkpt>
      <trkpt lat="45.68135912530124" lon="17.727994853630662">
        <ele>185.65</ele>
        <time>2023-10-16T16:53:24.586Z</time>
      </trkpt>
      <trkpt lat="45.68135216832161" lon="17.72801388055086">
        <ele>185.63</ele>
        <time>2023-10-16T16:53:26.181Z</time>
      </trkpt>
      <trkpt lat="45.681345630437136" lon="17.72803232073784">
        <ele>185.61</ele>
        <time>2023-10-16T16:53:27.776Z</time>
      </trkpt>
      <trkpt lat="45.68133934400976" lon="17.72805050946772">
        <ele>185.59</ele>
        <time>2023-10-16T16:53:29.372Z</time>
      </trkpt>
      <trkpt lat="45.68133314140141" lon="17.72806811146438">
        <ele>185.56</ele>
        <time>2023-10-16T16:53:30.968Z</time>
      </trkpt>
      <trkpt lat="45.681326771155" lon="17.728085042908788">
        <ele>185.54</ele>
        <time>2023-10-16T16:53:32.565Z</time>
      </trkpt>
      <trkpt lat="45.6813198979944" lon="17.728101387619972">
        <ele>185.51</ele>
        <time>2023-10-16T16:53:34.162Z</time>
      </trkpt>
      <trkpt lat="45.681312354281545" lon="17.728117229416966">
        <ele>185.48</ele>
        <time>2023-10-16T16:53:35.759Z</time>
      </trkpt>
      <trkpt lat="45.68130388855934" lon="17.728132735937834">
        <ele>185.45</ele>
        <time>2023-10-16T16:53:37.357Z</time>
      </trkpt>
      <trkpt lat="45.68129458464682" lon="17.7281482424587">
        <ele>185.41</ele>
        <time>2023-10-16T16:53:38.955Z</time>
      </trkpt>
      <trkpt lat="45.68128486163914" lon="17.72816332988441">
        <ele>185.38</ele>
        <time>2023-10-16T16:53:40.554Z</time>
      </trkpt>
      <trkpt lat="45.68127446807921" lon="17.72817850112915">
        <ele>185.34</ele>
        <time>2023-10-16T16:53:42.153Z</time>
      </trkpt>
      <trkpt lat="45.681263571605086" lon="17.72819367237389">
        <ele>185.3</ele>
        <time>2023-10-16T16:53:43.753Z</time>
      </trkpt>
      <trkpt lat="45.68125259131193" lon="17.72820884361863">
        <ele>185.27</ele>
        <time>2023-10-16T16:53:45.353Z</time>
      </trkpt>
      <trkpt lat="45.68124144338071" lon="17.728223763406277">
        <ele>185.23</ele>
        <time>2023-10-16T16:53:46.954Z</time>
      </trkpt>
      <trkpt lat="45.68123037926853" lon="17.728238767012954">
        <ele>185.18</ele>
        <time>2023-10-16T16:53:48.555Z</time>
      </trkpt>
      <trkpt lat="45.6812197342515" lon="17.728254524990916">
        <ele>185.14</ele>
        <time>2023-10-16T16:53:50.157Z</time>
      </trkpt>
      <trkpt lat="45.68121001124382" lon="17.72827137261629">
        <ele>185.1</ele>
        <time>2023-10-16T16:53:51.759Z</time>
      </trkpt>
      <trkpt lat="45.68120129406452" lon="17.728289645165205">
        <ele>185.05</ele>
        <time>2023-10-16T16:53:53.362Z</time>
      </trkpt>
      <trkpt lat="45.68119400180876" lon="17.728309594094753">
        <ele>185.0</ele>
        <time>2023-10-16T16:53:54.965Z</time>
      </trkpt>
      <trkpt lat="45.68118846975267" lon="17.728331051766872">
        <ele>184.95</ele>
        <time>2023-10-16T16:53:56.569Z</time>
      </trkpt>
      <trkpt lat="45.681184781715274" lon="17.728354018181562">
        <ele>184.9</ele>
        <time>2023-10-16T16:53:58.174Z</time>
      </trkpt>
      <trkpt lat="45.68118277005851" lon="17.72837782278657">
        <ele>184.85</ele>
        <time>2023-10-16T16:53:59.779Z</time>
      </trkpt>
      <trkpt lat="45.68118318915367" lon="17.728402130305767">
        <ele>184.8</ele>
        <time>2023-10-16T16:54:01.385Z</time>
      </trkpt>
      <trkpt lat="45.68118603900075" lon="17.728426940739155">
        <ele>184.75</ele>
        <time>2023-10-16T16:54:02.991Z</time>
      </trkpt>
      <trkpt lat="45.681191151961684" lon="17.728452505543828">
        <ele>184.7</ele>
        <time>2023-10-16T16:54:04.598Z</time>
      </trkpt>
      <trkpt lat="45.68119844421744" lon="17.728478740900755">
        <ele>184.64</ele>
        <time>2023-10-16T16:54:06.206Z</time>
      </trkpt>
      <trkpt lat="45.681207831948996" lon="17.728505227714777">
        <ele>184.59</ele>
        <time>2023-10-16T16:54:07.814Z</time>
      </trkpt>
      <trkpt lat="45.68121923133731" lon="17.728531127795577">
        <ele>184.53</ele>
        <time>2023-10-16T16:54:09.423Z</time>
      </trkpt>
      <trkpt lat="45.68123264238238" lon="17.728555854409933">
        <ele>184.48</ele>
        <time>2023-10-16T16:54:11.033Z</time>
      </trkpt>
      <trkpt lat="45.68124772980809" lon="17.72857907228172">
        <ele>184.42</ele>
        <time>2023-10-16T16:54:12.643Z</time>
      </trkpt>
      <trkpt lat="45.68126432597637" lon="17.728600949048996">
        <ele>184.36</ele>
        <time>2023-10-16T16:54:14.254Z</time>
      </trkpt>
      <trkpt lat="45.68128226324916" lon="17.728621484711766">
        <ele>184.31</ele>
        <time>2023-10-16T16:54:15.866Z</time>
      </trkpt>
      <trkpt lat="45.68130137398839" lon="17.728641433641315">
        <ele>184.25</ele>
        <time>2023-10-16T16:54:17.479Z</time>
      </trkpt>
      <trkpt lat="45.68132107146084" lon="17.728661131113768">
        <ele>184.19</ele>
        <time>2023-10-16T16:54:19.093Z</time>
      </trkpt>
      <trkpt lat="45.68134127184749" lon="17.728680577129126">
        <ele>184.13</ele>
        <time>2023-10-16T16:54:20.707Z</time>
      </trkpt>
      <trkpt lat="45.68136197514832" lon="17.72869977168739">
        <ele>184.07</ele>
        <time>2023-10-16T16:54:22.322Z</time>
      </trkpt>
      <trkpt lat="45.68138309754431" lon="17.728718547150493">
        <ele>184.0</ele>
        <time>2023-10-16T16:54:23.938Z</time>
      </trkpt>
      <trkpt lat="45.68140438757837" lon="17.728736735880375">
        <ele>183.94</ele>
        <time>2023-10-16T16:54:25.555Z</time>
      </trkpt>
      <trkpt lat="45.681425761431456" lon="17.72875458933413">
        <ele>183.88</ele>
        <time>2023-10-16T16:54:27.173Z</time>
      </trkpt>
      <trkpt lat="45.681447219103575" lon="17.728772358968854">
        <ele>183.82</ele>
        <time>2023-10-16T16:54:28.791Z</time>
      </trkpt>
      <trkpt lat="45.681468760594726" lon="17.728790463879704">
        <ele>183.75</ele>
        <time>2023-10-16T16:54:30.410Z</time>
      </trkpt>
      <trkpt lat="45.681490218266845" lon="17.728808652609587">
        <ele>183.69</ele>
        <time>2023-10-16T16:54:32.030Z</time>
      </trkpt>
      <trkpt lat="45.68151159211993" lon="17.728827176615596">
        <ele>183.63</ele>
        <time>2023-10-16T16:54:33.651Z</time>
      </trkpt>
      <trkpt lat="45.681532798334956" lon="17.728846035897732">
        <ele>183.56</ele>
        <time>2023-10-16T16:54:35.273Z</time>
      </trkpt>
      <trkpt lat="45.68155358545482" lon="17.728865230455995">
        <ele>183.5</ele>
        <time>2023-10-16T16:54:36.896Z</time>
      </trkpt>
      <trkpt lat="45.68157412111759" lon="17.728885430842638">
        <ele>183.43</ele>
        <time>2023-10-16T16:54:38.519Z</time>
      </trkpt>
      <trkpt lat="45.6815942376852" lon="17.72890655323863">
        <ele>183.37</ele>
        <time>2023-10-16T16:54:40.143Z</time>
      </trkpt>
      <trkpt lat="45.681613851338625" lon="17.728928346186876">
        <ele>183.3</ele>
        <time>2023-10-16T16:54:41.768Z</time>
      </trkpt>
      <trkpt lat="45.68163271062076" lon="17.72895106114447">
        <ele>183.24</ele>
        <time>2023-10-16T16:54:43.394Z</time>
      </trkpt>
      <trkpt lat="45.68165039643645" lon="17.728974698111415">
        <ele>183.17</ele>
        <time>2023-10-16T16:54:45.021Z</time>
      </trkpt>
      <trkpt lat="45.681666573509574" lon="17.72899984382093">
        <ele>183.11</ele>
        <time>2023-10-16T16:54:46.649Z</time>
      </trkpt>
      <trkpt lat="45.68168057128787" lon="17.729026414453983">
        <ele>183.05</ele>
        <time>2023-10-16T16:54:48.277Z</time>
      </trkpt>
      <trkpt lat="45.681692054495215" lon="17.729054242372513">
        <ele>182.98</ele>
        <time>2023-10-16T16:54:49.906Z</time>
      </trkpt>
      <trkpt lat="45.681700771674514" lon="17.729083076119423">
        <ele>182.92</ele>
        <time>2023-10-16T16:54:51.536Z</time>
      </trkpt>
      <trkpt lat="45.681706722825766" lon="17.72911325097084">
        <ele>182.86</ele>
        <time>2023-10-16T16:54:53.167Z</time>
      </trkpt>
      <trkpt lat="45.681710075587034" lon="17.729144264012575">
        <ele>182.8</ele>
        <time>2023-10-16T16:54:54.798Z</time>
      </trkpt>
      <trkpt lat="45.681710578501225" lon="17.729175444692373">
        <ele>182.73</ele>
        <time>2023-10-16T16:54:56.430Z</time>
      </trkpt>
      <trkpt lat="45.68170848302543" lon="17.729206709191203">
        <ele>182.67</ele>
        <time>2023-10-16T16:54:58.063Z</time>
      </trkpt>
      <trkpt lat="45.68170412443578" lon="17.729238560423255">
        <ele>182.61</ele>
        <time>2023-10-16T16:54:59.697Z</time>
      </trkpt>
      <trkpt lat="45.68169758655131" lon="17.729271166026592">
        <ele>182.55</ele>
        <time>2023-10-16T16:55:01.331Z</time>
      </trkpt>
      <trkpt lat="45.68168920464814" lon="17.729304526001215">
        <ele>182.48</ele>
        <time>2023-10-16T16:55:02.966Z</time>
      </trkpt>
      <trkpt lat="45.68167964927852" lon="17.729338221251965">
        <ele>182.42</ele>
        <time>2023-10-16T16:55:04.602Z</time>
      </trkpt>
      <trkpt lat="45.681669507175684" lon="17.72937225177884">
        <ele>182.36</ele>
        <time>2023-10-16T16:55:06.239Z</time>
      </trkpt>
      <trkpt lat="45.68165902979672" lon="17.729407120496035">
        <ele>182.29</ele>
        <time>2023-10-16T16:55:07.877Z</time>
      </trkpt>
      <trkpt lat="45.681648552417755" lon="17.72944249212742">
        <ele>182.23</ele>
        <time>2023-10-16T16:55:09.516Z</time>
      </trkpt>
      <trkpt lat="45.681638326495886" lon="17.729478115215898">
        <ele>182.17</ele>
        <time>2023-10-16T16:55:11.156Z</time>
      </trkpt>
      <trkpt lat="45.68162843585014" lon="17.72951390594244">
        <ele>182.12</ele>
        <time>2023-10-16T16:55:12.796Z</time>
      </trkpt>
      <trkpt lat="45.68161904811859" lon="17.72955003194511">
        <ele>182.06</ele>
        <time>2023-10-16T16:55:14.437Z</time>
      </trkpt>
      <trkpt lat="45.6816100794822" lon="17.72958615794778">
        <ele>182.0</ele>
        <time>2023-10-16T16:55:16.079Z</time>
      </trkpt>
      <trkpt lat="45.68160152994096" lon="17.72962245158851">
        <ele>181.94</ele>
        <time>2023-10-16T16:55:17.722Z</time>
      </trkpt>
      <trkpt lat="45.68159356713295" lon="17.72965857759118">
        <ele>181.88</ele>
        <time>2023-10-16T16:55:19.366Z</time>
      </trkpt>
      <trkpt lat="45.68158619105816" lon="17.729694535955787">
        <ele>181.82</ele>
        <time>2023-10-16T16:55:21.011Z</time>
      </trkpt>
      <trkpt lat="45.68157906644046" lon="17.72973041050136">
        <ele>181.76</ele>
        <time>2023-10-16T16:55:22.657Z</time>
      </trkpt>
      <trkpt lat="45.68157219327986" lon="17.72976611740887">
        <ele>181.7</ele>
        <time>2023-10-16T16:55:24.304Z</time>
      </trkpt>
      <trkpt lat="45.68156557157636" lon="17.729801405221224">
        <ele>181.65</ele>
        <time>2023-10-16T16:55:25.951Z</time>
      </trkpt>
      <trkpt lat="45.68155878223479" lon="17.729836273938417">
        <ele>181.59</ele>
        <time>2023-10-16T16:55:27.599Z</time>
      </trkpt>
      <trkpt lat="45.68155165761709" lon="17.729870723560452">
        <ele>181.54</ele>
        <time>2023-10-16T16:55:29.248Z</time>
      </trkpt>
      <trkpt lat="45.68154386244714" lon="17.729904502630234">
        <ele>181.49</ele>
        <time>2023-10-16T16:55:30.898Z</time>
      </trkpt>
      <trkpt lat="45.68153506144881" lon="17.72993710823357">
        <ele>181.44</ele>
        <time>2023-10-16T16:55:32.549Z</time>
      </trkpt>
      <trkpt lat="45.68152508698404" lon="17.729968037456274">
        <ele>181.39</ele>
        <time>2023-10-16T16:55:34.201Z</time>
      </trkpt>
      <trkpt lat="45.68151360377669" lon="17.72999661974609">
        <ele>181.34</ele>
        <time>2023-10-16T16:55:35.853Z</time>
      </trkpt>
      <trkpt lat="45.681500444188714" lon="17.730022184550762">
        <ele>181.29</ele>
        <time>2023-10-16T16:55:37.506Z</time>
      </trkpt>
      <trkpt lat="45.68148569203913" lon="17.730044228956103">
        <ele>181.24</ele>
        <time>2023-10-16T16:55:39.160Z</time>
      </trkpt>
      <trkpt lat="45.68146951496601" lon="17.730062333866954">
        <ele>181.2</ele>
        <time>2023-10-16T16:55:40.815Z</time>
      </trkpt>
      <trkpt lat="45.68145182915032" lon="17.73007624782622">
        <ele>181.15</ele>
        <time>2023-10-16T16:55:42.470Z</time>
      </trkpt>
      <trkpt lat="45.68143288604915" lon="17.730085970833898">
        <ele>181.11</ele>
        <time>2023-10-16T16:55:44.126Z</time>
      </trkpt>
      <trkpt lat="45.68141276948154" lon="17.73009141907096">
        <ele>181.07</ele>
        <time>2023-10-16T16:55:45.783Z</time>
      </trkpt>
      <trkpt lat="45.68139181472361" lon="17.730092592537403">
        <ele>181.03</ele>
        <time>2023-10-16T16:55:47.440Z</time>
      </trkpt>
      <trkpt lat="45.6813701055944" lon="17.73009007796645">
        <ele>181.0</ele>
        <time>2023-10-16T16:55:49.098Z</time>
      </trkpt>
      <trkpt lat="45.68134780973196" lon="17.730084462091327">
        <ele>180.96</ele>
        <time>2023-10-16T16:55:50.757Z</time>
      </trkpt>
      <trkpt lat="45.6813251785934" lon="17.730076499283314">
        <ele>180.92</ele>
        <time>2023-10-16T16:55:52.417Z</time>
      </trkpt>
      <trkpt lat="45.6813024636358" lon="17.730066943913698">
        <ele>180.88</ele>
        <time>2023-10-16T16:55:54.077Z</time>
      </trkpt>
      <trkpt lat="45.68127974867821" lon="17.73005621507764">
        <ele>180.85</ele>
        <time>2023-10-16T16:55:55.738Z</time>
      </trkpt>
      <trkpt lat="45.68125678226352" lon="17.73004498332739">
        <ele>180.81</ele>
        <time>2023-10-16T16:55:57.400Z</time>
      </trkpt>
      <trkpt lat="45.681233648210764" lon="17.730033416301012">
        <ele>180.78</ele>
        <time>2023-10-16T16:55:59.063Z</time>
      </trkpt>
      <trkpt lat="45.68121043033898" lon="17.730021849274635">
        <ele>180.74</ele>
        <time>2023-10-16T16:56:00.727Z</time>
      </trkpt>
      <trkpt lat="45.6811869610101" lon="17.730010617524385">
        <ele>180.71</ele>
        <time>2023-10-16T16:56:02.391Z</time>
      </trkpt>
      <trkpt lat="45.68116324022412" lon="17.73000005632639">
        <ele>180.67</ele>
        <time>2023-10-16T16:56:04.056Z</time>
      </trkpt>
      <trkpt lat="45.68113926798105" lon="17.729990500956774">
        <ele>180.64</ele>
        <time>2023-10-16T16:56:05.722Z</time>
      </trkpt>
      <trkpt lat="45.68111504428089" lon="17.729982202872634">
        <ele>180.6</ele>
        <time>2023-10-16T16:56:07.389Z</time>
      </trkpt>
      <trkpt lat="45.68109065294266" lon="17.729975497350097">
        <ele>180.56</ele>
        <time>2023-10-16T16:56:09.057Z</time>
      </trkpt>
      <trkpt lat="45.68106626160443" lon="17.72997080348432">
        <ele>180.52</ele>
        <time>2023-10-16T16:56:10.726Z</time>
      </trkpt>
      <trkpt lat="45.68104195408523" lon="17.729968540370464">
        <ele>180.48</ele>
        <time>2023-10-16T16:56:12.395Z</time>
      </trkpt>
      <trkpt lat="45.68101798184216" lon="17.729968959465623">
        <ele>180.45</ele>
        <time>2023-10-16T16:56:14.065Z</time>
      </trkpt>
      <trkpt lat="45.68099451251328" lon="17.72997264750302">
        <ele>180.41</ele>
        <time>2023-10-16T16:56:15.736Z</time>
      </trkpt>
      <trkpt lat="45.68097188137472" lon="17.729979688301682">
        <ele>180.37</ele>
        <time>2023-10-16T16:56:17.408Z</time>
      </trkpt>
      <trkpt lat="45.68095000460744" lon="17.729989998042583">
        <ele>180.33</ele>
        <time>2023-10-16T16:56:19.080Z</time>
      </trkpt>
      <trkpt lat="45.68092888221145" lon="17.730003828182817">
        <ele>180.29</ele>
        <time>2023-10-16T16:56:20.753Z</time>
      </trkpt>
      <trkpt lat="45.68090859800577" lon="17.730020843446255">
        <ele>180.26</ele>
        <time>2023-10-16T16:56:22.427Z</time>
      </trkpt>
      <trkpt lat="45.68088906817138" lon="17.730040792375803">
        <ele>180.22</ele>
        <time>2023-10-16T16:56:24.102Z</time>
      </trkpt>
      <trkpt lat="45.68087037652731" lon="17.730063423514366">
        <ele>180.17</ele>
        <time>2023-10-16T16:56:25.778Z</time>
      </trkpt>
      <trkpt lat="45.680852606892586" lon="17.730088317766786">
        <ele>180.13</ele>
        <time>2023-10-16T16:56:27.454Z</time>
      </trkpt>
      <trkpt lat="45.680835507810116" lon="17.73011488839984">
        <ele>180.08</ele>
        <time>2023-10-16T16:56:29.131Z</time>
      </trkpt>
      <trkpt lat="45.6808190792799" lon="17.7301428001374">
        <ele>180.04</ele>
        <time>2023-10-16T16:56:30.809Z</time>
      </trkpt>
      <trkpt lat="45.680803237482905" lon="17.730171801522374">
        <ele>179.99</ele>
        <time>2023-10-16T16:56:32.488Z</time>
      </trkpt>
      <trkpt lat="45.680787647143006" lon="17.730201557278633">
        <ele>179.94</ele>
        <time>2023-10-16T16:56:34.168Z</time>
      </trkpt>
      <trkpt lat="45.6807723082602" lon="17.730231815949082">
        <ele>179.9</ele>
        <time>2023-10-16T16:56:35.849Z</time>
      </trkpt>
      <trkpt lat="45.68075713701546" lon="17.730262242257595">
        <ele>179.86</ele>
        <time>2023-10-16T16:56:37.531Z</time>
      </trkpt>
      <trkpt lat="45.680742133408785" lon="17.730292920023203">
        <ele>179.81</ele>
        <time>2023-10-16T16:56:39.214Z</time>
      </trkpt>
      <trkpt lat="45.68072721362114" lon="17.730323681607842">
        <ele>179.77</ele>
        <time>2023-10-16T16:56:40.897Z</time>
      </trkpt>
      <trkpt lat="45.680712293833494" lon="17.73035435937345">
        <ele>179.73</ele>
        <time>2023-10-16T16:56:42.581Z</time>
      </trkpt>
      <trkpt lat="45.68069737404585" lon="17.730384953320026">
        <ele>179.68</ele>
        <time>2023-10-16T16:56:44.266Z</time>
      </trkpt>
      <trkpt lat="45.68068237043917" lon="17.730415295809507">
        <ele>179.63</ele>
        <time>2023-10-16T16:56:45.952Z</time>
      </trkpt>
      <trkpt lat="45.68066719919443" lon="17.73044530302286">
        <ele>179.58</ele>
        <time>2023-10-16T16:56:47.639Z</time>
      </trkpt>
      <trkpt lat="45.68065194413066" lon="17.73047497496009">
        <ele>179.53</ele>
        <time>2023-10-16T16:56:49.327Z</time>
      </trkpt>
      <trkpt lat="45.68063652142882" lon="17.730504227802157">
        <ele>179.48</ele>
        <time>2023-10-16T16:56:51.016Z</time>
      </trkpt>
      <trkpt lat="45.68062109872699" lon="17.730532977730036">
        <ele>179.42</ele>
        <time>2023-10-16T16:56:52.705Z</time>
      </trkpt>
      <trkpt lat="45.68060550838709" lon="17.730561224743724">
        <ele>179.37</ele>
        <time>2023-10-16T16:56:54.395Z</time>
      </trkpt>
      <trkpt lat="45.68058983422816" lon="17.73058930411935">
        <ele>179.31</ele>
        <time>2023-10-16T16:56:56.086Z</time>
      </trkpt>
      <trkpt lat="45.68057390861213" lon="17.73061721585691">
        <ele>179.26</ele>
        <time>2023-10-16T16:56:57.778Z</time>
      </trkpt>
      <trkpt lat="45.68055781535804" lon="17.730644876137376">
        <ele>179.2</ele>
        <time>2023-10-16T16:56:59.471Z</time>
      </trkpt>
      <trkpt lat="45.68054138682783" lon="17.73067245259881">
        <ele>179.14</ele>
        <time>2023-10-16T16:57:01.165Z</time>
      </trkpt>
      <trkpt lat="45.680524706840515" lon="17.730699945241213">
        <ele>179.08</ele>
        <time>2023-10-16T16:57:02.859Z</time>
      </trkpt>
      <trkpt lat="45.68050794303417" lon="17.730727437883615">
        <ele>179.02</ele>
        <time>2023-10-16T16:57:04.554Z</time>
      </trkpt>
      <trkpt lat="45.680491011589766" lon="17.73075509816408">
        <ele>178.96</ele>
        <time>2023-10-16T16:57:06.250Z</time>
      </trkpt>
      <trkpt lat="45.68047408014536" lon="17.73078284226358">
        <ele>178.9</ele>
        <time>2023-10-16T16:57:07.947Z</time>
      </trkpt>
      <trkpt lat="45.680457232519984" lon="17.730810586363077">
        <ele>178.84</ele>
        <time>2023-10-16T16:57:09.645Z</time>
      </trkpt>
      <trkpt lat="45.68044038489461" lon="17.730838414281607">
        <ele>178.78</ele>
        <time>2023-10-16T16:57:11.344Z</time>
      </trkpt>
      <trkpt lat="45.680423621088266" lon="17.730866242200136">
        <ele>178.72</ele>
        <time>2023-10-16T16:57:13.044Z</time>
      </trkpt>
      <trkpt lat="45.680406941100955" lon="17.730893986299634">
        <ele>178.66</ele>
        <time>2023-10-16T16:57:14.744Z</time>
      </trkpt>
      <trkpt lat="45.68039042875171" lon="17.730921478942037">
        <ele>178.59</ele>
        <time>2023-10-16T16:57:16.445Z</time>
      </trkpt>
      <trkpt lat="45.680374251678586" lon="17.73094897158444">
        <ele>178.53</ele>
        <time>2023-10-16T16:57:18.147Z</time>
      </trkpt>
      <trkpt lat="45.680358577519655" lon="17.730976631864905">
        <ele>178.47</ele>
        <time>2023-10-16T16:57:19.850Z</time>
      </trkpt>
      <trkpt lat="45.68034332245588" lon="17.731004375964403">
        <ele>178.42</ele>
        <time>2023-10-16T16:57:21.554Z</time>
      </trkpt>
      <trkpt lat="45.68032840266824" lon="17.7310321200639">
        <ele>178.36</ele>
        <time>2023-10-16T16:57:23.259Z</time>
      </trkpt>
      <trkpt lat="45.680313650518656" lon="17.731059612706304">
        <ele>178.3</ele>
        <time>2023-10-16T16:57:24.964Z</time>
      </trkpt>
      <trkpt lat="45.680298898369074" lon="17.731087021529675">
        <ele>178.24</ele>
        <time>2023-10-16T16:57:26.670Z</time>
      </trkpt>
      <trkpt lat="45.68028397858143" lon="17.731114262714982">
        <ele>178.18</ele>
        <time>2023-10-16T16:57:28.377Z</time>
      </trkpt>
      <trkpt lat="45.68026889115572" lon="17.73114108480513">
        <ele>178.12</ele>
        <time>2023-10-16T16:57:30.085Z</time>
      </trkpt>
      <trkpt lat="45.68025363609195" lon="17.731167739257216">
        <ele>178.06</ele>
        <time>2023-10-16T16:57:31.794Z</time>
      </trkpt>
      <trkpt lat="45.68023796193302" lon="17.73119430989027">
        <ele>177.99</ele>
        <time>2023-10-16T16:57:33.503Z</time>
      </trkpt>
      <trkpt lat="45.68022186867893" lon="17.731220796704292">
        <ele>177.93</ele>
        <time>2023-10-16T16:57:35.213Z</time>
      </trkpt>
      <trkpt lat="45.680205104872584" lon="17.73124711588025">
        <ele>177.86</ele>
        <time>2023-10-16T16:57:36.924Z</time>
      </trkpt>
      <trkpt lat="45.68018767051399" lon="17.731273267418146">
        <ele>177.79</ele>
        <time>2023-10-16T16:57:38.636Z</time>
      </trkpt>
      <trkpt lat="45.68016914650798" lon="17.73129941895604">
        <ele>177.72</ele>
        <time>2023-10-16T16:57:40.349Z</time>
      </trkpt>
      <trkpt lat="45.68014953285456" lon="17.731325486674905">
        <ele>177.66</ele>
        <time>2023-10-16T16:57:42.063Z</time>
      </trkpt>
      <trkpt lat="45.680128913372755" lon="17.73135155439377">
        <ele>177.6</ele>
        <time>2023-10-16T16:57:43.778Z</time>
      </trkpt>
      <trkpt lat="45.680107455700636" lon="17.731377203017473">
        <ele>177.55</ele>
        <time>2023-10-16T16:57:45.494Z</time>
      </trkpt>
      <trkpt lat="45.68008507601917" lon="17.731402767822146">
        <ele>177.49</ele>
        <time>2023-10-16T16:57:47.211Z</time>
      </trkpt>
      <trkpt lat="45.680062025785446" lon="17.73142833262682">
        <ele>177.43</ele>
        <time>2023-10-16T16:57:48.929Z</time>
      </trkpt>
      <trkpt lat="45.68003872409463" lon="17.731453981250525">
        <ele>177.36</ele>
        <time>2023-10-16T16:57:50.647Z</time>
      </trkpt>
      <trkpt lat="45.68001542240381" lon="17.731479462236166">
        <ele>177.3</ele>
        <time>2023-10-16T16:57:52.366Z</time>
      </trkpt>
      <trkpt lat="45.67999237217009" lon="17.73150502704084">
        <ele>177.23</ele>
        <time>2023-10-16T16:57:54.086Z</time>
      </trkpt>
      <trkpt lat="45.679969657212496" lon="17.731530591845512">
        <ele>177.16</ele>
        <time>2023-10-16T16:57:55.807Z</time>
      </trkpt>
      <trkpt lat="45.67994744516909" lon="17.731556072831154">
        <ele>177.1</ele>
        <time>2023-10-16T16:57:57.529Z</time>
      </trkpt>
      <trkpt lat="45.679926155135036" lon="17.731580967083573">
        <ele>177.03</ele>
        <time>2023-10-16T16:57:59.252Z</time>
      </trkpt>
      <trkpt lat="45.67990578711033" lon="17.731605526059866">
        <ele>176.96</ele>
        <time>2023-10-16T16:58:00.976Z</time>
      </trkpt>
      <trkpt lat="45.67988617345691" lon="17.731629665941">
        <ele>176.9</ele>
        <time>2023-10-16T16:58:02.701Z</time>
      </trkpt>
      <trkpt lat="45.67986756563187" lon="17.73165355436504">
        <ele>176.83</ele>
        <time>2023-10-16T16:58:04.427Z</time>
      </trkpt>
      <trkpt lat="45.679849963635206" lon="17.731677275151014">
        <ele>176.77</ele>
        <time>2023-10-16T16:58:06.154Z</time>
      </trkpt>
      <trkpt lat="45.6798330321908" lon="17.731700660660863">
        <ele>176.7</ele>
        <time>2023-10-16T16:58:07.881Z</time>
      </trkpt>
      <trkpt lat="45.67981651984155" lon="17.73172396235168">
        <ele>176.63</ele>
        <time>2023-10-16T16:58:09.609Z</time>
      </trkpt>
      <trkpt lat="45.67980042658746" lon="17.7317470125854">
        <ele>176.56</ele>
        <time>2023-10-16T16:58:11.338Z</time>
      </trkpt>
      <trkpt lat="45.679784417152405" lon="17.7317694760859">
        <ele>176.49</ele>
        <time>2023-10-16T16:58:13.068Z</time>
      </trkpt>
      <trkpt lat="45.67976840771735" lon="17.73179135285318">
        <ele>176.41</ele>
        <time>2023-10-16T16:58:14.798Z</time>
      </trkpt>
      <trkpt lat="45.679752146825194" lon="17.731812726706266">
        <ele>176.33</ele>
        <time>2023-10-16T16:58:16.529Z</time>
      </trkpt>
      <trkpt lat="45.67973546683788" lon="17.731833681464195">
        <ele>176.25</ele>
        <time>2023-10-16T16:58:18.261Z</time>
      </trkpt>
      <trkpt lat="45.67971853539348" lon="17.73185438476503">
        <ele>176.17</ele>
        <time>2023-10-16T16:58:19.994Z</time>
      </trkpt>
      <trkpt lat="45.679701352491975" lon="17.731874836608768">
        <ele>176.08</ele>
        <time>2023-10-16T16:58:21.727Z</time>
      </trkpt>
      <trkpt lat="45.67968391813338" lon="17.731895791366696">
        <ele>176.0</ele>
        <time>2023-10-16T16:58:23.461Z</time>
      </trkpt>
      <trkpt lat="45.67966639995575" lon="17.731917332857847">
        <ele>175.91</ele>
        <time>2023-10-16T16:58:25.196Z</time>
      </trkpt>
      <trkpt lat="45.679649133235216" lon="17.731939544901252">
        <ele>175.82</ele>
        <time>2023-10-16T16:58:26.932Z</time>
      </trkpt>
      <trkpt lat="45.67963220179081" lon="17.731962678954005">
        <ele>175.72</ele>
        <time>2023-10-16T16:58:28.669Z</time>
      </trkpt>
      <trkpt lat="45.679615857079625" lon="17.73198690265417">
        <ele>175.63</ele>
        <time>2023-10-16T16:58:30.406Z</time>
      </trkpt>
      <trkpt lat="45.67960051819682" lon="17.732012635096908">
        <ele>175.53</ele>
        <time>2023-10-16T16:58:32.144Z</time>
      </trkpt>
      <trkpt lat="45.67958685569465" lon="17.73204012773931">
        <ele>175.42</ele>
        <time>2023-10-16T16:58:33.883Z</time>
      </trkpt>
      <trkpt lat="45.67957545630634" lon="17.732069045305252">
        <ele>175.31</ele>
        <time>2023-10-16T16:58:35.623Z</time>
      </trkpt>
      <trkpt lat="45.67956665530801" lon="17.73209972307086">
        <ele>175.2</ele>
        <time>2023-10-16T16:58:37.363Z</time>
      </trkpt>
      <trkpt lat="45.679560620337725" lon="17.732132328674197">
        <ele>175.09</ele>
        <time>2023-10-16T16:58:39.104Z</time>
      </trkpt>
      <trkpt lat="45.679557267576456" lon="17.732166526839137">
        <ele>174.97</ele>
        <time>2023-10-16T16:58:40.846Z</time>
      </trkpt>
      <trkpt lat="45.679556680843234" lon="17.732201730832458">
        <ele>174.85</ele>
        <time>2023-10-16T16:58:42.589Z</time>
      </trkpt>
      <trkpt lat="45.67955835722387" lon="17.73223743773997">
        <ele>174.73</ele>
        <time>2023-10-16T16:58:44.333Z</time>
      </trkpt>
      <trkpt lat="45.6795618776232" lon="17.73227364756167">
        <ele>174.61</ele>
        <time>2023-10-16T16:58:46.078Z</time>
      </trkpt>
      <trkpt lat="45.67956640385091" lon="17.732310025021434">
        <ele>174.48</ele>
        <time>2023-10-16T16:58:47.823Z</time>
      </trkpt>
      <trkpt lat="45.67957109771669" lon="17.732346151024103">
        <ele>174.35</ele>
        <time>2023-10-16T16:58:49.569Z</time>
      </trkpt>
      <trkpt lat="45.67957520484924" lon="17.732381271198392">
        <ele>174.22</ele>
        <time>2023-10-16T16:58:51.316Z</time>
      </trkpt>
      <trkpt lat="45.679577803239226" lon="17.73241496644914">
        <ele>174.09</ele>
        <time>2023-10-16T16:58:53.064Z</time>
      </trkpt>
      <trkpt lat="45.67957813851535" lon="17.732447236776352">
        <ele>173.95</ele>
        <time>2023-10-16T16:58:54.813Z</time>
      </trkpt>
      <trkpt lat="45.67957570776343" lon="17.73247799836099">
        <ele>173.81</ele>
        <time>2023-10-16T16:58:56.562Z</time>
      </trkpt>
      <trkpt lat="45.679570343345404" lon="17.732506999745965">
        <ele>173.66</ele>
        <time>2023-10-16T16:58:58.312Z</time>
      </trkpt>
      <trkpt lat="45.67956196144223" lon="17.732534492388368">
        <ele>173.52</ele>
        <time>2023-10-16T16:59:00.063Z</time>
      </trkpt>
      <trkpt lat="45.67955064587295" lon="17.732560727745295">
        <ele>173.37</ele>
        <time>2023-10-16T16:59:01.815Z</time>
      </trkpt>
      <trkpt lat="45.67953648045659" lon="17.732586041092873">
        <ele>173.22</ele>
        <time>2023-10-16T16:59:03.567Z</time>
      </trkpt>
      <trkpt lat="45.67951988428831" lon="17.732610097154975">
        <ele>173.06</ele>
        <time>2023-10-16T16:59:05.320Z</time>
      </trkpt>
      <trkpt lat="45.67950119264424" lon="17.732633063569665">
        <ele>172.91</ele>
        <time>2023-10-16T16:59:07.074Z</time>
      </trkpt>
      <trkpt lat="45.679480992257595" lon="17.732655107975006">
        <ele>172.75</ele>
        <time>2023-10-16T16:59:08.829Z</time>
      </trkpt>
      <trkpt lat="45.67945970222354" lon="17.732676565647125">
        <ele>172.59</ele>
        <time>2023-10-16T16:59:10.585Z</time>
      </trkpt>
      <trkpt lat="45.679437993094325" lon="17.732697939500213">
        <ele>172.43</ele>
        <time>2023-10-16T16:59:12.341Z</time>
      </trkpt>
      <trkpt lat="45.67941620014608" lon="17.732719061896205">
        <ele>172.27</ele>
        <time>2023-10-16T16:59:14.098Z</time>
      </trkpt>
      <trkpt lat="45.6793943233788" lon="17.732740100473166">
        <ele>172.11</ele>
        <time>2023-10-16T16:59:15.856Z</time>
      </trkpt>
      <trkpt lat="45.6793721113354" lon="17.732760719954967">
        <ele>171.95</ele>
        <time>2023-10-16T16:59:17.615Z</time>
      </trkpt>
      <trkpt lat="45.67934914492071" lon="17.732780752703547">
        <ele>171.78</ele>
        <time>2023-10-16T16:59:19.375Z</time>
      </trkpt>
      <trkpt lat="45.67932525649667" lon="17.732799611985683">
        <ele>171.61</ele>
        <time>2023-10-16T16:59:21.136Z</time>
      </trkpt>
      <trkpt lat="45.67930036224425" lon="17.732817297801375">
        <ele>171.45</ele>
        <time>2023-10-16T16:59:22.898Z</time>
      </trkpt>
      <trkpt lat="45.67927454598248" lon="17.732833307236433">
        <ele>171.28</ele>
        <time>2023-10-16T16:59:24.661Z</time>
      </trkpt>
      <trkpt lat="45.6792476400733" lon="17.73284730501473">
        <ele>171.11</ele>
        <time>2023-10-16T16:59:26.425Z</time>
      </trkpt>
      <trkpt lat="45.6792201474309" lon="17.73285903967917">
        <ele>170.94</ele>
        <time>2023-10-16T16:59:28.190Z</time>
      </trkpt>
      <trkpt lat="45.679192151874304" lon="17.73286825977266">
        <ele>170.77</ele>
        <time>2023-10-16T16:59:29.956Z</time>
      </trkpt>
      <trkpt lat="45.679163821041584" lon="17.732873875647783">
        <ele>170.6</ele>
        <time>2023-10-16T16:59:31.723Z</time>
      </trkpt>
      <trkpt lat="45.6791353225708" lon="17.732875887304544">
        <ele>170.43</ele>
        <time>2023-10-16T16:59:33.491Z</time>
      </trkpt>
      <trkpt lat="45.67910749465227" lon="17.732873959466815">
        <ele>170.26</ele>
        <time>2023-10-16T16:59:35.259Z</time>
      </trkpt>
      <trkpt lat="45.67908100783825" lon="17.732868175953627">
        <ele>170.09</ele>
        <time>2023-10-16T16:59:37.028Z</time>
      </trkpt>
      <trkpt lat="45.679056867957115" lon="17.732858369126916">
        <ele>169.92</ele>
        <time>2023-10-16T16:59:38.798Z</time>
      </trkpt>
      <trkpt lat="45.67903557792306" lon="17.732845041900873">
        <ele>169.75</ele>
        <time>2023-10-16T16:59:40.569Z</time>
      </trkpt>
      <trkpt lat="45.679017305374146" lon="17.73282869718969">
        <ele>169.58</ele>
        <time>2023-10-16T16:59:42.341Z</time>
      </trkpt>
      <trkpt lat="45.679001631215215" lon="17.732810005545616">
        <ele>169.42</ele>
        <time>2023-10-16T16:59:44.113Z</time>
      </trkpt>
      <trkpt lat="45.67898872308433" lon="17.732788966968656">
        <ele>169.25</ele>
        <time>2023-10-16T16:59:45.886Z</time>
      </trkpt>
      <trkpt lat="45.6789780780673" lon="17.732766084372997">
        <ele>169.09</ele>
        <time>2023-10-16T16:59:47.660Z</time>
      </trkpt>
      <trkpt lat="45.678969444707036" lon="17.732741944491863">
        <ele>168.92</ele>
        <time>2023-10-16T16:59:49.434Z</time>
      </trkpt>
      <trkpt lat="45.67896290682256" lon="17.732717217877507">
        <ele>168.76</ele>
        <time>2023-10-16T16:59:51.209Z</time>
      </trkpt>
      <trkpt lat="45.678958129137754" lon="17.732692155987024">
        <ele>168.59</ele>
        <time>2023-10-16T16:59:52.985Z</time>
      </trkpt>
      <trkpt lat="45.67895444110036" lon="17.73266701027751">
        <ele>168.43</ele>
        <time>2023-10-16T16:59:54.761Z</time>
      </trkpt>
      <trkpt lat="45.67895142361522" lon="17.73264203220606">
        <ele>168.27</ele>
        <time>2023-10-16T16:59:56.538Z</time>
      </trkpt>
      <trkpt lat="45.678948322311044" lon="17.732617557048798">
        <ele>168.1</ele>
        <time>2023-10-16T16:59:58.315Z</time>
      </trkpt>
      <trkpt lat="45.67894480191171" lon="17.732593333348632">
        <ele>167.94</ele>
        <time>2023-10-16T17:00:00.093Z</time>
      </trkpt>
      <trkpt lat="45.67894069477916" lon="17.73256927728653">
        <ele>167.77</ele>
        <time>2023-10-16T17:00:01.871Z</time>
      </trkpt>
      <trkpt lat="45.67893625237048" lon="17.732545221224427">
        <ele>167.61</ele>
        <time>2023-10-16T17:00:03.650Z</time>
      </trkpt>
      <trkpt lat="45.6789315585047" lon="17.73252150043845">
        <ele>167.44</ele>
        <time>2023-10-16T17:00:05.430Z</time>
      </trkpt>
      <trkpt lat="45.67892669700086" lon="17.73249744437635">
        <ele>167.28</ele>
        <time>2023-10-16T17:00:07.210Z</time>
      </trkpt>
      <trkpt lat="45.67892166785896" lon="17.732473136857152">
        <ele>167.11</ele>
        <time>2023-10-16T17:00:08.991Z</time>
      </trkpt>
      <trkpt lat="45.6789162196219" lon="17.73244857788086">
        <ele>166.94</ele>
        <time>2023-10-16T17:00:10.772Z</time>
      </trkpt>
      <trkpt lat="45.67891043610871" lon="17.7324241027236">
        <ele>166.77</ele>
        <time>2023-10-16T17:00:12.554Z</time>
      </trkpt>
      <trkpt lat="45.6789040658623" lon="17.73239920847118">
        <ele>166.6</ele>
        <time>2023-10-16T17:00:14.337Z</time>
      </trkpt>
      <trkpt lat="45.67889727652073" lon="17.73237431421876">
        <ele>166.43</ele>
        <time>2023-10-16T17:00:16.120Z</time>
      </trkpt>
      <trkpt lat="45.678890068084" lon="17.732349587604403">
        <ele>166.26</ele>
        <time>2023-10-16T17:00:17.904Z</time>
      </trkpt>
      <trkpt lat="45.678882356733084" lon="17.732324609532952">
        <ele>166.09</ele>
        <time>2023-10-16T17:00:19.689Z</time>
      </trkpt>
      <trkpt lat="45.6788744777441" lon="17.732299212366343">
        <ele>165.91</ele>
        <time>2023-10-16T17:00:21.474Z</time>
      </trkpt>
      <trkpt lat="45.67886651493609" lon="17.73227314464748">
        <ele>165.74</ele>
        <time>2023-10-16T17:00:23.260Z</time>
      </trkpt>
      <trkpt lat="45.67885855212808" lon="17.732246574014425">
        <ele>165.56</ele>
        <time>2023-10-16T17:00:25.047Z</time>
      </trkpt>
      <trkpt lat="45.67885050550103" lon="17.732219165191054">
        <ele>165.39</ele>
        <time>2023-10-16T17:00:26.834Z</time>
      </trkpt>
      <trkpt lat="45.67884245887399" lon="17.732191001996398">
        <ele>165.21</ele>
        <time>2023-10-16T17:00:28.622Z</time>
      </trkpt>
      <trkpt lat="45.678834496065974" lon="17.732162000611424">
        <ele>165.03</ele>
        <time>2023-10-16T17:00:30.411Z</time>
      </trkpt>
      <trkpt lat="45.67882661707699" lon="17.732132077217102">
        <ele>164.85</ele>
        <time>2023-10-16T17:00:32.200Z</time>
      </trkpt>
      <trkpt lat="45.67881898954511" lon="17.732101399451494">
        <ele>164.67</ele>
        <time>2023-10-16T17:00:33.990Z</time>
      </trkpt>
      <trkpt lat="45.678811613470316" lon="17.73206946440041">
        <ele>164.49</ele>
        <time>2023-10-16T17:00:35.781Z</time>
      </trkpt>
      <trkpt lat="45.678804740309715" lon="17.73203618824482">
        <ele>164.31</ele>
        <time>2023-10-16T17:00:37.573Z</time>
      </trkpt>
      <trkpt lat="45.67879853770137" lon="17.73200207389891">
        <ele>164.13</ele>
        <time>2023-10-16T17:00:39.366Z</time>
      </trkpt>
      <trkpt lat="45.67879267036915" lon="17.73196737281978">
        <ele>163.94</ele>
        <time>2023-10-16T17:00:41.159Z</time>
      </trkpt>
      <trkpt lat="45.67878705449402" lon="17.731932336464524">
        <ele>163.75</ele>
        <time>2023-10-16T17:00:42.953Z</time>
      </trkpt>
      <trkpt lat="45.67878160625696" lon="17.731896797195077">
        <ele>163.57</ele>
        <time>2023-10-16T17:00:44.748Z</time>
      </trkpt>
      <trkpt lat="45.67877624183893" lon="17.731861509382725">
        <ele>163.38</ele>
        <time>2023-10-16T17:00:46.544Z</time>
      </trkpt>
      <trkpt lat="45.67877070978284" lon="17.731826808303595">
        <ele>163.19</ele>
        <time>2023-10-16T17:00:48.341Z</time>
      </trkpt>
      <trkpt lat="45.678765177726746" lon="17.731792610138655">
        <ele>163.0</ele>
        <time>2023-10-16T17:00:50.139Z</time>
      </trkpt>
      <trkpt lat="45.678759813308716" lon="17.731758495792747">
        <ele>162.81</ele>
        <time>2023-10-16T17:00:51.937Z</time>
      </trkpt>
      <trkpt lat="45.67875461652875" lon="17.731724632903934">
        <ele>162.62</ele>
        <time>2023-10-16T17:00:53.736Z</time>
      </trkpt>
      <trkpt lat="45.67874992266297" lon="17.731691440567374">
        <ele>162.42</ele>
        <time>2023-10-16T17:00:55.536Z</time>
      </trkpt>
      <trkpt lat="45.678745647892356" lon="17.731658583506942">
        <ele>162.23</ele>
        <time>2023-10-16T17:00:57.337Z</time>
      </trkpt>
      <trkpt lat="45.6787417922169" lon="17.731625391170382">
        <ele>162.03</ele>
        <time>2023-10-16T17:00:59.139Z</time>
      </trkpt>
      <trkpt lat="45.6787383556366" lon="17.731591863557696">
        <ele>161.83</ele>
        <time>2023-10-16T17:01:00.941Z</time>
      </trkpt>
      <trkpt lat="45.67873550578952" lon="17.731557665392756">
        <ele>161.64</ele>
        <time>2023-10-16T17:01:02.744Z</time>
      </trkpt>
      <trkpt lat="45.67873324267566" lon="17.7315226290375">
        <ele>161.44</ele>
        <time>2023-10-16T17:01:04.548Z</time>
      </trkpt>
      <trkpt lat="45.67873215302825" lon="17.731486670672894">
        <ele>161.25</ele>
        <time>2023-10-16T17:01:06.353Z</time>
      </trkpt>
      <trkpt lat="45.67873248830438" lon="17.73144979029894">
        <ele>161.05</ele>
        <time>2023-10-16T17:01:08.159Z</time>
      </trkpt>
      <trkpt lat="45.678733913227916" lon="17.73141265846789">
        <ele>160.86</ele>
        <time>2023-10-16T17:01:09.966Z</time>
      </trkpt>
      <trkpt lat="45.67873701453209" lon="17.73137552663684">
        <ele>160.66</ele>
        <time>2023-10-16T17:01:11.773Z</time>
      </trkpt>
      <trkpt lat="45.67874187603593" lon="17.731338813900948">
        <ele>160.47</ele>
        <time>2023-10-16T17:01:13.581Z</time>
      </trkpt>
      <trkpt lat="45.67874824628234" lon="17.731302604079247">
        <ele>160.28</ele>
        <time>2023-10-16T17:01:15.390Z</time>
      </trkpt>
      <trkpt lat="45.67875612527132" lon="17.7312670648098">
        <ele>160.1</ele>
        <time>2023-10-16T17:01:17.200Z</time>
      </trkpt>
      <trkpt lat="45.67876551300287" lon="17.73123236373067">
        <ele>159.91</ele>
        <time>2023-10-16T17:01:19.011Z</time>
      </trkpt>
      <trkpt lat="45.6787761580199" lon="17.731199087575078">
        <ele>159.73</ele>
        <time>2023-10-16T17:01:20.823Z</time>
      </trkpt>
      <trkpt lat="45.67878772504628" lon="17.731166817247868">
        <ele>159.55</ele>
        <time>2023-10-16T17:01:22.636Z</time>
      </trkpt>
      <trkpt lat="45.67880013026297" lon="17.731136390939355">
        <ele>159.38</ele>
        <time>2023-10-16T17:01:24.449Z</time>
      </trkpt>
      <trkpt lat="45.67881270311773" lon="17.731107641011477">
        <ele>159.21</ele>
        <time>2023-10-16T17:01:26.263Z</time>
      </trkpt>
      <trkpt lat="45.678825275972486" lon="17.731079813092947">
        <ele>159.04</ele>
        <time>2023-10-16T17:01:28.078Z</time>
      </trkpt>
      <trkpt lat="45.67883768118918" lon="17.731052907183766">
        <ele>158.87</ele>
        <time>2023-10-16T17:01:29.894Z</time>
      </trkpt>
      <trkpt lat="45.67884941585362" lon="17.731026923283935">
        <ele>158.71</ele>
        <time>2023-10-16T17:01:31.711Z</time>
      </trkpt>
      <trkpt lat="45.67886014468968" lon="17.73100135847926">
        <ele>158.55</ele>
        <time>2023-10-16T17:01:33.528Z</time>
      </trkpt>
      <trkpt lat="45.67886953242123" lon="17.73097596131265">
        <ele>158.4</ele>
        <time>2023-10-16T17:01:35.346Z</time>
      </trkpt>
      <trkpt lat="45.678877579048276" lon="17.73095048032701">
        <ele>158.25</ele>
        <time>2023-10-16T17:01:37.165Z</time>
      </trkpt>
      <trkpt lat="45.67888378165662" lon="17.730925250798464">
        <ele>158.1</ele>
        <time>2023-10-16T17:01:38.984Z</time>
      </trkpt>
      <trkpt lat="45.67888814024627" lon="17.730899853631854">
        <ele>157.95</ele>
        <time>2023-10-16T17:01:40.804Z</time>
      </trkpt>
      <trkpt lat="45.67889057099819" lon="17.73087479174137">
        <ele>157.82</ele>
        <time>2023-10-16T17:01:42.624Z</time>
      </trkpt>
      <trkpt lat="45.678890738636255" lon="17.73084989748895">
        <ele>157.69</ele>
        <time>2023-10-16T17:01:44.445Z</time>
      </trkpt>
      <trkpt lat="45.6788884755224" lon="17.730825673788786">
        <ele>157.56</ele>
        <time>2023-10-16T17:01:46.267Z</time>
      </trkpt>
      <trkpt lat="45.678883446380496" lon="17.73080295883119">
        <ele>157.43</ele>
        <time>2023-10-16T17:01:48.089Z</time>
      </trkpt>
      <trkpt lat="45.67887590266764" lon="17.730781668797135">
        <ele>157.31</ele>
        <time>2023-10-16T17:01:49.912Z</time>
      </trkpt>
      <trkpt lat="45.678865844383836" lon="17.73076188750565">
        <ele>157.2</ele>
        <time>2023-10-16T17:01:51.735Z</time>
      </trkpt>
      <trkpt lat="45.67885318771005" lon="17.730744117870927">
        <ele>157.09</ele>
        <time>2023-10-16T17:01:53.559Z</time>
      </trkpt>
      <trkpt lat="45.67883784882724" lon="17.730728276073933">
        <ele>156.99</ele>
        <time>2023-10-16T17:01:55.383Z</time>
      </trkpt>
      <trkpt lat="45.67881999537349" lon="17.730714865028858">
        <ele>156.89</ele>
        <time>2023-10-16T17:01:57.208Z</time>
      </trkpt>
      <trkpt lat="45.67880013026297" lon="17.73070371709764">
        <ele>156.8</ele>
        <time>2023-10-16T17:01:59.034Z</time>
      </trkpt>
      <trkpt lat="45.67877842113376" lon="17.730694748461246">
        <ele>156.71</ele>
        <time>2023-10-16T17:02:00.861Z</time>
      </trkpt>
      <trkpt lat="45.678755370900035" lon="17.730687707662582">
        <ele>156.63</ele>
        <time>2023-10-16T17:02:02.688Z</time>
      </trkpt>
      <trkpt lat="45.6787312310189" lon="17.730682343244553">
        <ele>156.56</ele>
        <time>2023-10-16T17:02:04.516Z</time>
      </trkpt>
      <trkpt lat="45.67870625294745" lon="17.730678152292967">
        <ele>156.49</ele>
        <time>2023-10-16T17:02:06.345Z</time>
      </trkpt>
      <trkpt lat="45.67868052050471" lon="17.730674548074603">
        <ele>156.43</ele>
        <time>2023-10-16T17:02:08.175Z</time>
      </trkpt>
      <trkpt lat="45.67865403369069" lon="17.730671195313334">
        <ele>156.38</ele>
        <time>2023-10-16T17:02:10.006Z</time>
      </trkpt>
      <trkpt lat="45.67862679250538" lon="17.73066801019013">
        <ele>156.34</ele>
        <time>2023-10-16T17:02:11.838Z</time>
      </trkpt>
      <trkpt lat="45.67859837785363" lon="17.73066465742886">
        <ele>156.3</ele>
        <time>2023-10-16T17:02:13.671Z</time>
      </trkpt>
      <trkpt lat="45.67856929264963" lon="17.73066113702953">
        <ele>156.28</ele>
        <time>2023-10-16T17:02:15.505Z</time>
      </trkpt>
      <trkpt lat="45.678539369255304" lon="17.730657532811165">
        <ele>156.26</ele>
        <time>2023-10-16T17:02:17.340Z</time>
      </trkpt>
      <trkpt lat="45.67850877530873" lon="17.730654012411833">
        <ele>156.24</ele>
        <time>2023-10-16T17:02:19.176Z</time>
      </trkpt>
      <trkpt lat="45.67847759462893" lon="17.7306504920125">
        <ele>156.24</ele>
        <time>2023-10-16T17:02:21.013Z</time>
      </trkpt>
      <trkpt lat="45.67844591103494" lon="17.730647223070264">
        <ele>156.24</ele>
        <time>2023-10-16T17:02:22.851Z</time>
      </trkpt>
      <trkpt lat="45.67841414362192" lon="17.73064462468028">
        <ele>156.25</ele>
        <time>2023-10-16T17:02:24.690Z</time>
      </trkpt>
      <trkpt lat="45.67838246002793" lon="17.730643032118678">
        <ele>156.26</ele>
        <time>2023-10-16T17:02:26.530Z</time>
      </trkpt>
      <trkpt lat="45.678351279348135" lon="17.730642529204488">
        <ele>156.28</ele>
        <time>2023-10-16T17:02:28.371Z</time>
      </trkpt>
      <trkpt lat="45.678320936858654" lon="17.730643032118678">
        <ele>156.32</ele>
        <time>2023-10-16T17:02:30.213Z</time>
      </trkpt>
      <trkpt lat="45.67829151637852" lon="17.730644457042217">
        <ele>156.35</ele>
        <time>2023-10-16T17:02:32.056Z</time>
      </trkpt>
      <trkpt lat="45.678263772279024" lon="17.730646887794137">
        <ele>156.4</ele>
        <time>2023-10-16T17:02:33.900Z</time>
      </trkpt>
      <trkpt lat="45.678237369284034" lon="17.730649821460247">
        <ele>156.45</ele>
        <time>2023-10-16T17:02:35.745Z</time>
      </trkpt>
      <trkpt lat="45.67821239121258" lon="17.73065334185958">
        <ele>156.51</ele>
        <time>2023-10-16T17:02:37.591Z</time>
      </trkpt>
      <trkpt lat="45.67818867042661" lon="17.7306573651731">
        <ele>156.57</ele>
        <time>2023-10-16T17:02:39.437Z</time>
      </trkpt>
      <trkpt lat="45.67816570401192" lon="17.730662310495973">
        <ele>156.64</ele>
        <time>2023-10-16T17:02:41.284Z</time>
      </trkpt>
      <trkpt lat="45.67814332433045" lon="17.730667842552066">
        <ele>156.72</ele>
        <time>2023-10-16T17:02:43.132Z</time>
      </trkpt>
      <trkpt lat="45.678121615201235" lon="17.730673709884286">
        <ele>156.8</ele>
        <time>2023-10-16T17:02:44.981Z</time>
      </trkpt>
      <trkpt lat="45.67810024134815" lon="17.730679996311665">
        <ele>156.88</ele>
        <time>2023-10-16T17:02:46.830Z</time>
      </trkpt>
      <trkpt lat="45.67807886749506" lon="17.730686450377107">
        <ele>156.98</ele>
        <time>2023-10-16T17:02:48.680Z</time>
      </trkpt>
      <trkpt lat="45.678057074546814" lon="17.730693323537707">
        <ele>157.08</ele>
        <time>2023-10-16T17:02:50.531Z</time>
      </trkpt>
      <trkpt lat="45.67803486250341" lon="17.73070086725056">
        <ele>157.19</ele>
        <time>2023-10-16T17:02:52.383Z</time>
      </trkpt>
      <trkpt lat="45.678012231364846" lon="17.730709249153733">
        <ele>157.3</ele>
        <time>2023-10-16T17:02:54.235Z</time>
      </trkpt>
      <trkpt lat="45.677989264950156" lon="17.730718469247222">
        <ele>157.42</ele>
        <time>2023-10-16T17:02:56.088Z</time>
      </trkpt>
      <trkpt lat="45.67796596325934" lon="17.7307281922549">
        <ele>157.54</ele>
        <time>2023-10-16T17:02:57.942Z</time>
      </trkpt>
      <trkpt lat="45.67794241011143" lon="17.73073791526258">
        <ele>157.66</ele>
        <time>2023-10-16T17:02:59.797Z</time>
      </trkpt>
      <trkpt lat="45.67791902460158" lon="17.73074663244188">
        <ele>157.79</ele>
        <time>2023-10-16T17:03:01.653Z</time>
      </trkpt>
      <trkpt lat="45.67789580672979" lon="17.730754176154733">
        <ele>157.92</ele>
        <time>2023-10-16T17:03:03.509Z</time>
      </trkpt>
      <trkpt lat="45.67787300795317" lon="17.73075995966792">
        <ele>158.06</ele>
        <time>2023-10-16T17:03:05.366Z</time>
      </trkpt>
      <trkpt lat="45.677850460633636" lon="17.730763480067253">
        <ele>158.2</ele>
        <time>2023-10-16T17:03:07.224Z</time>
      </trkpt>
      <trkpt lat="45.67782858386636" lon="17.730764485895634">
        <ele>158.34</ele>
        <time>2023-10-16T17:03:09.083Z</time>
      </trkpt>
      <trkpt lat="45.67780771292746" lon="17.730762474238873">
        <ele>158.49</ele>
        <time>2023-10-16T17:03:10.942Z</time>
      </trkpt>
      <trkpt lat="45.677787847816944" lon="17.730757277458906">
        <ele>158.64</ele>
        <time>2023-10-16T17:03:12.802Z</time>
      </trkpt>
      <trkpt lat="45.67776865325868" lon="17.73074923083186">
        <ele>158.8</ele>
        <time>2023-10-16T17:03:14.663Z</time>
      </trkpt>
      <trkpt lat="45.67775004543364" lon="17.730738501995802">
        <ele>158.96</ele>
        <time>2023-10-16T17:03:16.524Z</time>
      </trkpt>
      <trkpt lat="45.67773210816085" lon="17.730725593864918">
        <ele>159.12</ele>
        <time>2023-10-16T17:03:18.386Z</time>
      </trkpt>
      <trkpt lat="45.677714589983225" lon="17.730711344629526">
        <ele>159.28</ele>
        <time>2023-10-16T17:03:20.249Z</time>
      </trkpt>
      <trkpt lat="45.67769715562463" lon="17.730696089565754">
        <ele>159.44</ele>
        <time>2023-10-16T17:03:22.112Z</time>
      </trkpt>
      <trkpt lat="45.677679888904095" lon="17.730680163949728">
        <ele>159.6</ele>
        <time>2023-10-16T17:03:23.976Z</time>
      </trkpt>
      <trkpt lat="45.67766270600259" lon="17.73066407069564">
        <ele>159.77</ele>
        <time>2023-10-16T17:03:25.841Z</time>
      </trkpt>
      <trkpt lat="45.67764577455819" lon="17.730648145079613">
        <ele>159.93</ele>
        <time>2023-10-16T17:03:27.706Z</time>
      </trkpt>
      <trkpt lat="45.67762884311378" lon="17.73063238710165">
        <ele>160.1</ele>
        <time>2023-10-16T17:03:29.572Z</time>
      </trkpt>
      <trkpt lat="45.67761207930744" lon="17.73061671294272">
        <ele>160.26</ele>
        <time>2023-10-16T17:03:31.439Z</time>
      </trkpt>
      <trkpt lat="45.67759523168206" lon="17.7306005358696">
        <ele>160.42</ele>
        <time>2023-10-16T17:03:33.306Z</time>
      </trkpt>
      <trkpt lat="45.67757855169475" lon="17.730583688244224">
        <ele>160.58</ele>
        <time>2023-10-16T17:03:35.174Z</time>
      </trkpt>
      <trkpt lat="45.67756237462163" lon="17.730565834790468">
        <ele>160.74</ele>
        <time>2023-10-16T17:03:37.043Z</time>
      </trkpt>
      <trkpt lat="45.67754678428173" lon="17.730546724051237">
        <ele>160.89</ele>
        <time>2023-10-16T17:03:38.912Z</time>
      </trkpt>
      <trkpt lat="45.67753169685602" lon="17.73052585311234">
        <ele>161.04</ele>
        <time>2023-10-16T17:03:40.782Z</time>
      </trkpt>
      <trkpt lat="45.67751744762063" lon="17.730503221973777">
        <ele>161.19</ele>
        <time>2023-10-16T17:03:42.653Z</time>
      </trkpt>
      <trkpt lat="45.67750428803265" lon="17.73047899827361">
        <ele>161.34</ele>
        <time>2023-10-16T17:03:44.525Z</time>
      </trkpt>
      <trkpt lat="45.67749205045402" lon="17.730453182011843">
        <ele>161.49</ele>
        <time>2023-10-16T17:03:46.397Z</time>
      </trkpt>
      <trkpt lat="45.67748073488474" lon="17.73042568936944">
        <ele>161.63</ele>
        <time>2023-10-16T17:03:48.270Z</time>
      </trkpt>
      <trkpt lat="45.677470341324806" lon="17.73039693944156">
        <ele>161.77</ele>
        <time>2023-10-16T17:03:50.144Z</time>
      </trkpt>
      <trkpt lat="45.677460450679064" lon="17.730367351323366">
        <ele>161.91</ele>
        <time>2023-10-16T17:03:52.019Z</time>
      </trkpt>
      <trkpt lat="45.67745114676654" lon="17.73033776320517">
        <ele>162.04</ele>
        <time>2023-10-16T17:03:53.894Z</time>
      </trkpt>
      <trkpt lat="45.67744217813015" lon="17.730308175086975">
        <ele>162.16</ele>
        <time>2023-10-16T17:03:55.770Z</time>
      </trkpt>
      <trkpt lat="45.67743337713182" lon="17.730278754606843">
        <ele>162.28</ele>
        <time>2023-10-16T17:03:57.647Z</time>
      </trkpt>
      <trkpt lat="45.67742457613349" lon="17.730249082669616">
        <ele>162.39</ele>
        <time>2023-10-16T17:03:59.525Z</time>
      </trkpt>
      <trkpt lat="45.677416110411286" lon="17.730219746008515">
        <ele>162.5</ele>
        <time>2023-10-16T17:04:01.403Z</time>
      </trkpt>
      <trkpt lat="45.67740806378424" lon="17.730190409347415">
        <ele>162.6</ele>
        <time>2023-10-16T17:04:03.282Z</time>
      </trkpt>
      <trkpt lat="45.67740052007139" lon="17.73016140796244">
        <ele>162.71</ele>
        <time>2023-10-16T17:04:05.162Z</time>
      </trkpt>
      <trkpt lat="45.67739322781563" lon="17.730132322758436">
        <ele>162.81</ele>
        <time>2023-10-16T17:04:07.042Z</time>
      </trkpt>
      <trkpt lat="45.67738694138825" lon="17.730103908106685">
        <ele>162.9</ele>
        <time>2023-10-16T17:04:08.923Z</time>
      </trkpt>
      <trkpt lat="45.677381828427315" lon="17.730075996369123">
        <ele>162.99</ele>
        <time>2023-10-16T17:04:10.805Z</time>
      </trkpt>
      <trkpt lat="45.677377888932824" lon="17.730048587545753">
        <ele>163.08</ele>
        <time>2023-10-16T17:04:12.688Z</time>
      </trkpt>
      <trkpt lat="45.67737537436187" lon="17.730021011084318">
        <ele>163.17</ele>
        <time>2023-10-16T17:04:14.571Z</time>
      </trkpt>
      <trkpt lat="45.67737478762865" lon="17.729993602260947">
        <ele>163.25</ele>
        <time>2023-10-16T17:04:16.455Z</time>
      </trkpt>
      <trkpt lat="45.677375961095095" lon="17.72996636107564">
        <ele>163.33</ele>
        <time>2023-10-16T17:04:18.339Z</time>
      </trkpt>
      <trkpt lat="45.67737906239927" lon="17.729939622804523">
        <ele>163.4</ele>
        <time>2023-10-16T17:04:20.224Z</time>
      </trkpt>
      <trkpt lat="45.67738367244601" lon="17.729913471266627">
        <ele>163.48</ele>
        <time>2023-10-16T17:04:22.110Z</time>
      </trkpt>
      <trkpt lat="45.67738987505436" lon="17.72988773882389">
        <ele>163.55</ele>
        <time>2023-10-16T17:04:23.996Z</time>
      </trkpt>
      <trkpt lat="45.67739725112915" lon="17.72986234165728">
        <ele>163.61</ele>
        <time>2023-10-16T17:04:25.883Z</time>
      </trkpt>
      <trkpt lat="45.67740588448942" lon="17.729837698861957">
        <ele>163.68</ele>
        <time>2023-10-16T17:04:27.771Z</time>
      </trkpt>
      <trkpt lat="45.677415020763874" lon="17.729813558980823">
        <ele>163.74</ele>
        <time>2023-10-16T17:04:29.659Z</time>
      </trkpt>
      <trkpt lat="45.67742457613349" lon="17.72978950291872">
        <ele>163.8</ele>
        <time>2023-10-16T17:04:31.548Z</time>
      </trkpt>
      <trkpt lat="45.67743446677923" lon="17.729765446856618">
        <ele>163.85</ele>
        <time>2023-10-16T17:04:33.438Z</time>
      </trkpt>
      <trkpt lat="45.67744460888207" lon="17.729741893708706">
        <ele>163.9</ele>
        <time>2023-10-16T17:04:35.328Z</time>
      </trkpt>
      <trkpt lat="45.677454583346844" lon="17.729718508198857">
        <ele>163.95</ele>
        <time>2023-10-16T17:04:37.219Z</time>
      </trkpt>
      <trkpt lat="45.67746422253549" lon="17.729695290327072">
        <ele>164.0</ele>
        <time>2023-10-16T17:04:39.110Z</time>
      </trkpt>
      <trkpt lat="45.67747361026704" lon="17.72967224009335">
        <ele>164.05</ele>
        <time>2023-10-16T17:04:41.002Z</time>
      </trkpt>
      <trkpt lat="45.67748283036053" lon="17.729649022221565">
        <ele>164.09</ele>
        <time>2023-10-16T17:04:42.895Z</time>
      </trkpt>
      <trkpt lat="45.67749188281596" lon="17.729625888168812">
        <ele>164.13</ele>
        <time>2023-10-16T17:04:44.788Z</time>
      </trkpt>
      <trkpt lat="45.67750076763332" lon="17.729602586477995">
        <ele>164.17</ele>
        <time>2023-10-16T17:04:46.682Z</time>
      </trkpt>
      <trkpt lat="45.677509400993586" lon="17.72957886569202">
        <ele>164.21</ele>
        <time>2023-10-16T17:04:48.577Z</time>
      </trkpt>
      <trkpt lat="45.677517615258694" lon="17.729553803801537">
        <ele>164.25</ele>
        <time>2023-10-16T17:04:50.472Z</time>
      </trkpt>
      <trkpt lat="45.677524991333485" lon="17.729527736082673">
        <ele>164.28</ele>
        <time>2023-10-16T17:04:52.368Z</time>
      </trkpt>
      <trkpt lat="45.677531361579895" lon="17.729500578716397">
        <ele>164.31</ele>
        <time>2023-10-16T17:04:54.265Z</time>
      </trkpt>
      <trkpt lat="45.67753664217889" lon="17.729472080245614">
        <ele>164.35</ele>
        <time>2023-10-16T17:04:56.162Z</time>
      </trkpt>
      <trkpt lat="45.67754074931145" lon="17.729442324489355">
        <ele>164.38</ele>
        <time>2023-10-16T17:04:58.060Z</time>
      </trkpt>
      <trkpt lat="45.677544018253684" lon="17.729410892352462">
        <ele>164.41</ele>
        <time>2023-10-16T17:04:59.959Z</time>
      </trkpt>
      <trkpt lat="45.67754636518657" lon="17.729377197101712">
        <ele>164.44</ele>
        <time>2023-10-16T17:05:01.859Z</time>
      </trkpt>
      <trkpt lat="45.67754770629108" lon="17.729341574013233">
        <ele>164.47</ele>
        <time>2023-10-16T17:05:03.759Z</time>
      </trkpt>
      <trkpt lat="45.67754787392914" lon="17.729304190725088">
        <ele>164.5</ele>
        <time>2023-10-16T17:05:05.660Z</time>
      </trkpt>
      <trkpt lat="45.67754686810076" lon="17.72926571778953">
        <ele>164.53</ele>
        <time>2023-10-16T17:05:07.562Z</time>
      </trkpt>
      <trkpt lat="45.67754426971078" lon="17.729226406663656">
        <ele>164.56</ele>
        <time>2023-10-16T17:05:09.465Z</time>
      </trkpt>
      <trkpt lat="45.67754007875919" lon="17.729187766090035">
        <ele>164.59</ele>
        <time>2023-10-16T17:05:11.369Z</time>
      </trkpt>
      <trkpt lat="45.6775345467031" lon="17.729150466620922">
        <ele>164.63</ele>
        <time>2023-10-16T17:05:13.274Z</time>
      </trkpt>
      <trkpt lat="45.677527924999595" lon="17.729115011170506">
        <ele>164.66</ele>
        <time>2023-10-16T17:05:15.180Z</time>
      </trkpt>
      <trkpt lat="45.67752071656287" lon="17.72908190265298">
        <ele>164.69</ele>
        <time>2023-10-16T17:05:17.087Z</time>
      </trkpt>
      <trkpt lat="45.677512837573886" lon="17.729051308706403">
        <ele>164.72</ele>
        <time>2023-10-16T17:05:18.994Z</time>
      </trkpt>
      <trkpt lat="45.677504455670714" lon="17.72902373224497">
        <ele>164.76</ele>
        <time>2023-10-16T17:05:20.902Z</time>
      </trkpt>
      <trkpt lat="45.677495654672384" lon="17.72899992763996">
        <ele>164.79</ele>
        <time>2023-10-16T17:05:22.811Z</time>
      </trkpt>
      <trkpt lat="45.67748626694083" lon="17.728980062529445">
        <ele>164.82</ele>
        <time>2023-10-16T17:05:24.720Z</time>
      </trkpt>
      <trkpt lat="45.67747629247606" lon="17.72896363399923">
        <ele>164.85</ele>
        <time>2023-10-16T17:05:26.630Z</time>
      </trkpt>
      <trkpt lat="45.677465898916125" lon="17.728950306773186">
        <ele>164.88</ele>
        <time>2023-10-16T17:05:28.540Z</time>
      </trkpt>
      <trkpt lat="45.6774552538991" lon="17.72894024848938">
        <ele>164.91</ele>
        <time>2023-10-16T17:05:30.451Z</time>
      </trkpt>
      <trkpt lat="45.67744477652013" lon="17.7289323695004">
        <ele>164.94</ele>
        <time>2023-10-16T17:05:32.362Z</time>
      </trkpt>
      <trkpt lat="45.67743404768407" lon="17.728925831615925">
        <ele>164.97</ele>
        <time>2023-10-16T17:05:34.273Z</time>
      </trkpt>
      <trkpt lat="45.67742306739092" lon="17.728920383378863">
        <ele>165.0</ele>
        <time>2023-10-16T17:05:36.185Z</time>
      </trkpt>
      <trkpt lat="45.67741183564067" lon="17.728915438055992">
        <ele>165.03</ele>
        <time>2023-10-16T17:05:38.097Z</time>
      </trkpt>
      <trkpt lat="45.677400352433324" lon="17.728910241276026">
        <ele>165.07</ele>
        <time>2023-10-16T17:05:40.010Z</time>
      </trkpt>
      <trkpt lat="45.67738845013082" lon="17.728904876857996">
        <ele>165.1</ele>
        <time>2023-10-16T17:05:41.923Z</time>
      </trkpt>
      <trkpt lat="45.67737621255219" lon="17.72889917716384">
        <ele>165.13</ele>
        <time>2023-10-16T17:05:43.836Z</time>
      </trkpt>
      <trkpt lat="45.67736347205937" lon="17.728892723098397">
        <ele>165.17</ele>
        <time>2023-10-16T17:05:45.750Z</time>
      </trkpt>
      <trkpt lat="45.677350563928485" lon="17.728886352851987">
        <ele>165.21</ele>
        <time>2023-10-16T17:05:47.664Z</time>
      </trkpt>
      <trkpt lat="45.67733748815954" lon="17.72888015024364">
        <ele>165.24</ele>
        <time>2023-10-16T17:05:49.579Z</time>
      </trkpt>
      <trkpt lat="45.677324244752526" lon="17.72887386381626">
        <ele>165.28</ele>
        <time>2023-10-16T17:05:51.494Z</time>
      </trkpt>
      <trkpt lat="45.67731041461229" lon="17.728867745026946">
        <ele>165.32</ele>
        <time>2023-10-16T17:05:53.410Z</time>
      </trkpt>
      <trkpt lat="45.677296416834" lon="17.728861877694726">
        <ele>165.36</ele>
        <time>2023-10-16T17:05:55.326Z</time>
      </trkpt>
      <trkpt lat="45.67728225141764" lon="17.728855842724442">
        <ele>165.4</ele>
        <time>2023-10-16T17:05:57.243Z</time>
      </trkpt>
      <trkpt lat="45.67726766690612" lon="17.728850059211254">
        <ele>165.45</ele>
        <time>2023-10-16T17:05:59.160Z</time>
      </trkpt>
      <trkpt lat="45.67725249566138" lon="17.728844778612256">
        <ele>165.49</ele>
        <time>2023-10-16T17:06:01.078Z</time>
      </trkpt>
      <trkpt lat="45.67723690532148" lon="17.72883966565132">
        <ele>165.53</ele>
        <time>2023-10-16T17:06:02.996Z</time>
      </trkpt>
      <trkpt lat="45.67722047679126" lon="17.728834468871355">
        <ele>165.58</ele>
        <time>2023-10-16T17:06:04.915Z</time>
      </trkpt>
      <trkpt lat="45.677203461527824" lon="17.728829188272357">
        <ele>165.63</ele>
        <time>2023-10-16T17:06:06.834Z</time>
      </trkpt>
      <trkpt lat="45.677185943350196" lon="17.728823237121105">
        <ele>165.68</ele>
        <time>2023-10-16T17:06:08.754Z</time>
      </trkpt>
      <trkpt lat="45.67716808989644" lon="17.728816280141473">
        <ele>165.73</ele>
        <time>2023-10-16T17:06:10.675Z</time>
      </trkpt>
      <trkpt lat="45.67714981734753" lon="17.728808568790555">
        <ele>165.78</ele>
        <time>2023-10-16T17:06:12.596Z</time>
      </trkpt>
      <trkpt lat="45.67713146097958" lon="17.72880010306835">
        <ele>165.84</ele>
        <time>2023-10-16T17:06:14.518Z</time>
      </trkpt>
      <trkpt lat="45.6771130207926" lon="17.72879121825099">
        <ele>165.89</ele>
        <time>2023-10-16T17:06:16.441Z</time>
      </trkpt>
      <trkpt lat="45.67709441296756" lon="17.728782165795565">
        <ele>165.96</ele>
        <time>2023-10-16T17:06:18.364Z</time>
      </trkpt>
      <trkpt lat="45.67707580514252" lon="17.72877269424498">
        <ele>166.02</ele>
        <time>2023-10-16T17:06:20.288Z</time>
      </trkpt>
      <trkpt lat="45.677057448774576" lon="17.72876280359924">
        <ele>166.08</ele>
        <time>2023-10-16T17:06:22.212Z</time>
      </trkpt>
      <trkpt lat="45.677039260044694" lon="17.72875257767737">
        <ele>166.15</ele>
        <time>2023-10-16T17:06:24.137Z</time>
      </trkpt>
      <trkpt lat="45.67702132277191" lon="17.728741765022278">
        <ele>166.22</ele>
        <time>2023-10-16T17:06:26.063Z</time>
      </trkpt>
      <trkpt lat="45.67700380459428" lon="17.728730030357838">
        <ele>166.29</ele>
        <time>2023-10-16T17:06:27.989Z</time>
      </trkpt>
      <trkpt lat="45.67698662169278" lon="17.72871745750308">
        <ele>166.37</ele>
        <time>2023-10-16T17:06:29.916Z</time>
      </trkpt>
      <trkpt lat="45.67696969024837" lon="17.728704046458006">
        <ele>166.45</ele>
        <time>2023-10-16T17:06:31.844Z</time>
      </trkpt>
      <trkpt lat="45.676953345537186" lon="17.72868904285133">
        <ele>166.53</ele>
        <time>2023-10-16T17:06:33.772Z</time>
      </trkpt>
      <trkpt lat="45.67693750374019" lon="17.72867202758789">
        <ele>166.61</ele>
        <time>2023-10-16T17:06:35.701Z</time>
      </trkpt>
      <trkpt lat="45.676922583952546" lon="17.728652749210596">
        <ele>166.69</ele>
        <time>2023-10-16T17:06:37.631Z</time>
      </trkpt>
      <trkpt lat="45.67690866999328" lon="17.72863087244332">
        <ele>166.78</ele>
        <time>2023-10-16T17:06:39.561Z</time>
      </trkpt>
      <trkpt lat="45.676895678043365" lon="17.728606229647994">
        <ele>166.87</ele>
        <time>2023-10-16T17:06:41.492Z</time>
      </trkpt>
      <trkpt lat="45.6768836081028" lon="17.72857907228172">
        <ele>166.96</ele>
        <time>2023-10-16T17:06:43.424Z</time>
      </trkpt>
      <trkpt lat="45.676872208714485" lon="17.728549148887396">
        <ele>167.06</ele>
        <time>2023-10-16T17:06:45.357Z</time>
      </trkpt>
      <trkpt lat="45.67686164751649" lon="17.728517297655344">
        <ele>167.16</ele>
        <time>2023-10-16T17:06:47.290Z</time>
      </trkpt>
      <trkpt lat="45.67685142159462" lon="17.728484021499753">
        <ele>167.26</ele>
        <time>2023-10-16T17:06:49.224Z</time>
      </trkpt>
      <trkpt lat="45.676841447129846" lon="17.728449823334813">
        <ele>167.36</ele>
        <time>2023-10-16T17:06:51.159Z</time>
      </trkpt>
      <trkpt lat="45.676831640303135" lon="17.728414870798588">
        <ele>167.46</ele>
        <time>2023-10-16T17:06:53.095Z</time>
      </trkpt>
      <trkpt lat="45.676821833476424" lon="17.7283797506243">
        <ele>167.57</ele>
        <time>2023-10-16T17:06:55.032Z</time>
      </trkpt>
      <trkpt lat="45.67681185901165" lon="17.728344798088074">
        <ele>167.67</ele>
        <time>2023-10-16T17:06:56.970Z</time>
      </trkpt>
      <trkpt lat="45.67680171690881" lon="17.728310516104102">
        <ele>167.78</ele>
        <time>2023-10-16T17:06:58.909Z</time>
      </trkpt>
      <trkpt lat="45.67679123952985" lon="17.72827673703432">
        <ele>167.89</ele>
        <time>2023-10-16T17:07:00.849Z</time>
      </trkpt>
      <trkpt lat="45.67678051069379" lon="17.728244047611952">
        <ele>168.0</ele>
        <time>2023-10-16T17:07:02.789Z</time>
      </trkpt>
      <trkpt lat="45.676769614219666" lon="17.728212364017963">
        <ele>168.12</ele>
        <time>2023-10-16T17:07:04.730Z</time>
      </trkpt>
      <trkpt lat="45.67675863392651" lon="17.72818235680461">
        <ele>168.23</ele>
        <time>2023-10-16T17:07:06.672Z</time>
      </trkpt>
      <trkpt lat="45.676747653633356" lon="17.728153942152858">
        <ele>168.35</ele>
        <time>2023-10-16T17:07:08.615Z</time>
      </trkpt>
      <trkpt lat="45.67673675715923" lon="17.728126952424645">
        <ele>168.47</ele>
        <time>2023-10-16T17:07:10.559Z</time>
      </trkpt>
      <trkpt lat="45.6767263635993" lon="17.728101136162877">
        <ele>168.59</ele>
        <time>2023-10-16T17:07:12.503Z</time>
      </trkpt>
      <trkpt lat="45.67671647295356" lon="17.728076744824648">
        <ele>168.71</ele>
        <time>2023-10-16T17:07:14.448Z</time>
      </trkpt>
      <trkpt lat="45.67670725286007" lon="17.728053610771894">
        <ele>168.83</ele>
        <time>2023-10-16T17:07:16.394Z</time>
      </trkpt>
      <trkpt lat="45.6766986194998" lon="17.728031985461712">
        <ele>168.95</ele>
        <time>2023-10-16T17:07:18.340Z</time>
      </trkpt>
      <trkpt lat="45.67669074051082" lon="17.728011701256037">
        <ele>169.08</ele>
        <time>2023-10-16T17:07:20.287Z</time>
      </trkpt>
      <trkpt lat="45.67668336443603" lon="17.727993596345186">
        <ele>169.2</ele>
        <time>2023-10-16T17:07:22.234Z</time>
      </trkpt>
      <trkpt lat="45.676676323637366" lon="17.727977503091097">
        <ele>169.33</ele>
        <time>2023-10-16T17:07:24.182Z</time>
      </trkpt>
      <trkpt lat="45.6766695342958" lon="17.72796342149377">
        <ele>169.46</ele>
        <time>2023-10-16T17:07:26.130Z</time>
      </trkpt>
      <trkpt lat="45.6766626611352" lon="17.72795118391514">
        <ele>169.59</ele>
        <time>2023-10-16T17:07:28.078Z</time>
      </trkpt>
      <trkpt lat="45.67665587179363" lon="17.727940706536174">
        <ele>169.72</ele>
        <time>2023-10-16T17:07:30.027Z</time>
      </trkpt>
      <trkpt lat="45.6766486633569" lon="17.72793173789978">
        <ele>169.85</ele>
        <time>2023-10-16T17:07:31.976Z</time>
      </trkpt>
      <trkpt lat="45.67664078436792" lon="17.727924110367894">
        <ele>169.98</ele>
        <time>2023-10-16T17:07:33.925Z</time>
      </trkpt>
      <trkpt lat="45.67663257010281" lon="17.727917823940516">
        <ele>170.11</ele>
        <time>2023-10-16T17:07:35.875Z</time>
      </trkpt>
      <trkpt lat="45.67662385292351" lon="17.727912543341517">
        <ele>170.24</ele>
        <time>2023-10-16T17:07:37.825Z</time>
      </trkpt>
      <trkpt lat="45.67661438137293" lon="17.72790784947574">
        <ele>170.37</ele>
        <time>2023-10-16T17:07:39.775Z</time>
      </trkpt>
      <trkpt lat="45.67660415545106" lon="17.727903490886092">
        <ele>170.5</ele>
        <time>2023-10-16T17:07:41.726Z</time>
      </trkpt>
      <trkpt lat="45.67659334279597" lon="17.72789854556322">
        <ele>170.64</ele>
        <time>2023-10-16T17:07:43.677Z</time>
      </trkpt>
      <trkpt lat="45.676581943407655" lon="17.727892510592937">
        <ele>170.77</ele>
        <time>2023-10-16T17:07:45.628Z</time>
      </trkpt>
      <trkpt lat="45.676570208743215" lon="17.72788521833718">
        <ele>170.91</ele>
        <time>2023-10-16T17:07:47.580Z</time>
      </trkpt>
      <trkpt lat="45.67655813880265" lon="17.72787650115788">
        <ele>171.04</ele>
        <time>2023-10-16T17:07:49.532Z</time>
      </trkpt>
      <trkpt lat="45.67654556594789" lon="17.727866359055042">
        <ele>171.17</ele>
        <time>2023-10-16T17:07:51.485Z</time>
      </trkpt>
      <trkpt lat="45.67653274163604" lon="17.727855127304792">
        <ele>171.31</ele>
        <time>2023-10-16T17:07:53.438Z</time>
      </trkpt>
      <trkpt lat="45.676519917324185" lon="17.727843057364225">
        <ele>171.44</ele>
        <time>2023-10-16T17:07:55.392Z</time>
      </trkpt>
      <trkpt lat="45.676506757736206" lon="17.727830316871405">
        <ele>171.58</ele>
        <time>2023-10-16T17:07:57.346Z</time>
      </trkpt>
      <trkpt lat="45.67649343051016" lon="17.72781740874052">
        <ele>171.71</ele>
        <time>2023-10-16T17:07:59.301Z</time>
      </trkpt>
      <trkpt lat="45.67648001946509" lon="17.727804416790605">
        <ele>171.84</ele>
        <time>2023-10-16T17:08:01.256Z</time>
      </trkpt>
      <trkpt lat="45.676466692239046" lon="17.727791592478752">
        <ele>171.97</ele>
        <time>2023-10-16T17:08:03.212Z</time>
      </trkpt>
      <trkpt lat="45.676453448832035" lon="17.727779606357217">
        <ele>172.11</ele>
        <time>2023-10-16T17:08:05.168Z</time>
      </trkpt>
      <trkpt lat="45.67644054070115" lon="17.727768877521157">
        <ele>172.24</ele>
        <time>2023-10-16T17:08:07.125Z</time>
      </trkpt>
      <trkpt lat="45.676427967846394" lon="17.7277597412467">
        <ele>172.37</ele>
        <time>2023-10-16T17:08:09.082Z</time>
      </trkpt>
      <trkpt lat="45.676415814086795" lon="17.727752197533846">
        <ele>172.49</ele>
        <time>2023-10-16T17:08:11.040Z</time>
      </trkpt>
      <trkpt lat="45.676404163241386" lon="17.727746246382594">
        <ele>172.62</ele>
        <time>2023-10-16T17:08:12.998Z</time>
      </trkpt>
      <trkpt lat="45.67639301531017" lon="17.727741803973913">
        <ele>172.75</ele>
        <time>2023-10-16T17:08:14.957Z</time>
      </trkpt>
      <trkpt lat="45.67638237029314" lon="17.727738618850708">
        <ele>172.87</ele>
        <time>2023-10-16T17:08:16.916Z</time>
      </trkpt>
      <trkpt lat="45.6763722281903" lon="17.72773635573685">
        <ele>173.0</ele>
        <time>2023-10-16T17:08:18.875Z</time>
      </trkpt>
      <trkpt lat="45.676362589001656" lon="17.727735014632344">
        <ele>173.12</ele>
        <time>2023-10-16T17:08:20.835Z</time>
      </trkpt>
      <trkpt lat="45.67635353654623" lon="17.727734427899122">
        <ele>173.24</ele>
        <time>2023-10-16T17:08:22.795Z</time>
      </trkpt>
      <trkpt lat="45.676344987004995" lon="17.727734679356217">
        <ele>173.36</ele>
        <time>2023-10-16T17:08:24.755Z</time>
      </trkpt>
      <trkpt lat="45.67633677273989" lon="17.72773576900363">
        <ele>173.48</ele>
        <time>2023-10-16T17:08:26.716Z</time>
      </trkpt>
      <trkpt lat="45.67632864229381" lon="17.727737445384264">
        <ele>173.6</ele>
        <time>2023-10-16T17:08:28.677Z</time>
      </trkpt>
      <trkpt lat="45.676320595666766" lon="17.727739540860057">
        <ele>173.72</ele>
        <time>2023-10-16T17:08:30.638Z</time>
      </trkpt>
      <trkpt lat="45.67631263285875" lon="17.72774213925004">
        <ele>173.83</ele>
        <time>2023-10-16T17:08:32.599Z</time>
      </trkpt>
      <trkpt lat="45.676304837688804" lon="17.727745156735182">
        <ele>173.94</ele>
        <time>2023-10-16T17:08:34.561Z</time>
      </trkpt>
      <trkpt lat="45.676297545433044" lon="17.72774842567742">
        <ele>174.06</ele>
        <time>2023-10-16T17:08:36.523Z</time>
      </trkpt>
      <trkpt lat="45.67629042081535" lon="17.727752029895782">
        <ele>174.17</ele>
        <time>2023-10-16T17:08:38.485Z</time>
      </trkpt>
      <trkpt lat="45.676283380016685" lon="17.72775580175221">
        <ele>174.28</ele>
        <time>2023-10-16T17:08:40.447Z</time>
      </trkpt>
      <trkpt lat="45.67627642303705" lon="17.7277597412467">
        <ele>174.39</ele>
        <time>2023-10-16T17:08:42.410Z</time>
      </trkpt>
      <trkpt lat="45.676269298419356" lon="17.72776368074119">
        <ele>174.5</ele>
        <time>2023-10-16T17:08:44.373Z</time>
      </trkpt>
      <trkpt lat="45.676261838525534" lon="17.727767787873745">
        <ele>174.6</ele>
        <time>2023-10-16T17:08:46.336Z</time>
      </trkpt>
      <trkpt lat="45.676254043355584" lon="17.727771643549204">
        <ele>174.71</ele>
        <time>2023-10-16T17:08:48.299Z</time>
      </trkpt>
      <trkpt lat="45.6762461643666" lon="17.727775499224663">
        <ele>174.81</ele>
        <time>2023-10-16T17:08:50.263Z</time>
      </trkpt>
      <trkpt lat="45.676237950101495" lon="17.727778935804963">
        <ele>174.92</ele>
        <time>2023-10-16T17:08:52.227Z</time>
      </trkpt>
      <trkpt lat="45.67622931674123" lon="17.727781618013978">
        <ele>175.02</ele>
        <time>2023-10-16T17:08:54.191Z</time>
      </trkpt>
      <trkpt lat="45.67622018046677" lon="17.727783294394612">
        <ele>175.12</ele>
        <time>2023-10-16T17:08:56.156Z</time>
      </trkpt>
      <trkpt lat="45.67621037364006" lon="17.727783881127834">
        <ele>175.22</ele>
        <time>2023-10-16T17:08:58.121Z</time>
      </trkpt>
      <trkpt lat="45.676199896261096" lon="17.72778312675655">
        <ele>175.32</ele>
        <time>2023-10-16T17:09:00.086Z</time>
      </trkpt>
      <trkpt lat="45.67618891596794" lon="17.727781366556883">
        <ele>175.42</ele>
        <time>2023-10-16T17:09:02.052Z</time>
      </trkpt>
      <trkpt lat="45.67617726512253" lon="17.72777826525271">
        <ele>175.52</ele>
        <time>2023-10-16T17:09:04.018Z</time>
      </trkpt>
      <trkpt lat="45.67616485990584" lon="17.72777340374887">
        <ele>175.62</ele>
        <time>2023-10-16T17:09:05.984Z</time>
      </trkpt>
      <trkpt lat="45.67615178413689" lon="17.727766782045364">
        <ele>175.72</ele>
        <time>2023-10-16T17:09:07.951Z</time>
      </trkpt>
      <trkpt lat="45.67613820545375" lon="17.727758148685098">
        <ele>175.81</ele>
        <time>2023-10-16T17:09:09.918Z</time>
      </trkpt>
      <trkpt lat="45.676124040037394" lon="17.727747671306133">
        <ele>175.91</ele>
        <time>2023-10-16T17:09:11.886Z</time>
      </trkpt>
      <trkpt lat="45.676109790802" lon="17.727735433727503">
        <ele>176.0</ele>
        <time>2023-10-16T17:09:13.855Z</time>
      </trkpt>
      <trkpt lat="45.67609562538564" lon="17.727722357958555">
        <ele>176.1</ele>
        <time>2023-10-16T17:09:15.824Z</time>
      </trkpt>
      <trkpt lat="45.67608196288347" lon="17.727708611637354">
        <ele>176.19</ele>
        <time>2023-10-16T17:09:17.794Z</time>
      </trkpt>
      <trkpt lat="45.676068887114525" lon="17.72769427858293">
        <ele>176.29</ele>
        <time>2023-10-16T17:09:19.764Z</time>
      </trkpt>
      <trkpt lat="45.676056649535894" lon="17.72767961025238">
        <ele>176.38</ele>
        <time>2023-10-16T17:09:21.735Z</time>
      </trkpt>
      <trkpt lat="45.67604525014758" lon="17.727664606645703">
        <ele>176.47</ele>
        <time>2023-10-16T17:09:23.706Z</time>
      </trkpt>
      <trkpt lat="45.67603502422571" lon="17.727649519219995">
        <ele>176.56</ele>
        <time>2023-10-16T17:09:25.678Z</time>
      </trkpt>
      <trkpt lat="45.67602647468448" lon="17.727634264156222">
        <ele>176.65</ele>
        <time>2023-10-16T17:09:27.650Z</time>
      </trkpt>
      <trkpt lat="45.676019517704844" lon="17.727619679644704">
        <ele>176.74</ele>
        <time>2023-10-16T17:09:29.623Z</time>
      </trkpt>
      <trkpt lat="45.67601398564875" lon="17.727606100961566">
        <ele>176.82</ele>
        <time>2023-10-16T17:09:31.596Z</time>
      </trkpt>
      <trkpt lat="45.67600945942104" lon="17.727593863382936">
        <ele>176.91</ele>
        <time>2023-10-16T17:09:33.569Z</time>
      </trkpt>
      <trkpt lat="45.67600577138364" lon="17.727583050727844">
        <ele>177.0</ele>
        <time>2023-10-16T17:09:35.543Z</time>
      </trkpt>
      <trkpt lat="45.67600233480334" lon="17.72757357917726">
        <ele>177.08</ele>
        <time>2023-10-16T17:09:37.517Z</time>
      </trkpt>
      <trkpt lat="45.675998982042074" lon="17.7275646943599">
        <ele>177.17</ele>
        <time>2023-10-16T17:09:39.491Z</time>
      </trkpt>
      <trkpt lat="45.67599596455693" lon="17.72755639627576">
        <ele>177.25</ele>
        <time>2023-10-16T17:09:41.465Z</time>
      </trkpt>
      <trkpt lat="45.67599303089082" lon="17.727548852562904">
        <ele>177.33</ele>
        <time>2023-10-16T17:09:43.439Z</time>
      </trkpt>
      <trkpt lat="45.675990264862776" lon="17.72754172794521">
        <ele>177.42</ele>
        <time>2023-10-16T17:09:45.414Z</time>
      </trkpt>
      <trkpt lat="45.67598749883473" lon="17.727534770965576">
        <ele>177.5</ele>
        <time>2023-10-16T17:09:47.389Z</time>
      </trkpt>
      <trkpt lat="45.67598448134959" lon="17.727528484538198">
        <ele>177.58</ele>
        <time>2023-10-16T17:09:49.364Z</time>
      </trkpt>
      <trkpt lat="45.67598129622638" lon="17.727522030472755">
        <ele>177.66</ele>
        <time>2023-10-16T17:09:51.339Z</time>
      </trkpt>
      <trkpt lat="45.675977943465114" lon="17.72751498967409">
        <ele>177.75</ele>
        <time>2023-10-16T17:09:53.314Z</time>
      </trkpt>
      <trkpt lat="45.67597467452288" lon="17.727507278323174">
        <ele>177.83</ele>
        <time>2023-10-16T17:09:55.290Z</time>
      </trkpt>
      <trkpt lat="45.67597148939967" lon="17.727498644962907">
        <ele>177.91</ele>
        <time>2023-10-16T17:09:57.266Z</time>
      </trkpt>
      <trkpt lat="45.67596880719066" lon="17.727489173412323">
        <ele>177.99</ele>
        <time>2023-10-16T17:09:59.242Z</time>
      </trkpt>
      <trkpt lat="45.6759665440768" lon="17.72747928276658">
        <ele>178.07</ele>
        <time>2023-10-16T17:10:01.218Z</time>
      </trkpt>
      <trkpt lat="45.67596444860101" lon="17.727469140663743">
        <ele>178.15</ele>
        <time>2023-10-16T17:10:03.195Z</time>
      </trkpt>
      <trkpt lat="45.675962436944246" lon="17.72745874710381">
        <ele>178.24</ele>
        <time>2023-10-16T17:10:05.172Z</time>
      </trkpt>
      <trkpt lat="45.67596017383039" lon="17.727448185905814">
        <ele>178.32</ele>
        <time>2023-10-16T17:10:07.149Z</time>
      </trkpt>
      <trkpt lat="45.6759578268975" lon="17.727437540888786">
        <ele>178.4</ele>
        <time>2023-10-16T17:10:09.126Z</time>
      </trkpt>
      <trkpt lat="45.67595522850752" lon="17.72742697969079">
        <ele>178.48</ele>
        <time>2023-10-16T17:10:11.104Z</time>
      </trkpt>
      <trkpt lat="45.675952546298504" lon="17.727416586130857">
        <ele>178.56</ele>
        <time>2023-10-16T17:10:13.082Z</time>
      </trkpt>
      <trkpt lat="45.67594986408949" lon="17.72740652784705">
        <ele>178.64</ele>
        <time>2023-10-16T17:10:15.060Z</time>
      </trkpt>
      <trkpt lat="45.67594701424241" lon="17.727396553382277">
        <ele>178.73</ele>
        <time>2023-10-16T17:10:17.038Z</time>
      </trkpt>
      <trkpt lat="45.67594399675727" lon="17.72738641127944">
        <ele>178.81</ele>
        <time>2023-10-16T17:10:19.017Z</time>
      </trkpt>
      <trkpt lat="45.67594097927213" lon="17.727375850081444">
        <ele>178.89</ele>
        <time>2023-10-16T17:10:20.996Z</time>
      </trkpt>
      <trkpt lat="45.675937961786985" lon="17.72736486978829">
        <ele>178.97</ele>
        <time>2023-10-16T17:10:22.975Z</time>
      </trkpt>
      <trkpt lat="45.675935028120875" lon="17.72735313512385">
        <ele>179.06</ele>
        <time>2023-10-16T17:10:24.954Z</time>
      </trkpt>
      <trkpt lat="45.67593226209283" lon="17.72734089754522">
        <ele>179.14</ele>
        <time>2023-10-16T17:10:26.934Z</time>
      </trkpt>
      <trkpt lat="45.675929579883814" lon="17.727328073233366">
        <ele>179.23</ele>
        <time>2023-10-16T17:10:28.914Z</time>
      </trkpt>
      <trkpt lat="45.67592698149383" lon="17.727314494550228">
        <ele>179.31</ele>
        <time>2023-10-16T17:10:30.894Z</time>
      </trkpt>
      <trkpt lat="45.67592413164675" lon="17.727299826219678">
        <ele>179.39</ele>
        <time>2023-10-16T17:10:32.875Z</time>
      </trkpt>
      <trkpt lat="45.67592144943774" lon="17.727284403517842">
        <ele>179.48</ele>
        <time>2023-10-16T17:10:34.856Z</time>
      </trkpt>
      <trkpt lat="45.67591859959066" lon="17.727268477901816">
        <ele>179.56</ele>
        <time>2023-10-16T17:10:36.838Z</time>
      </trkpt>
      <trkpt lat="45.67591566592455" lon="17.72725246846676">
        <ele>179.65</ele>
        <time>2023-10-16T17:10:38.820Z</time>
      </trkpt>
      <trkpt lat="45.675912480801344" lon="17.7272364590317">
        <ele>179.74</ele>
        <time>2023-10-16T17:10:40.802Z</time>
      </trkpt>
      <trkpt lat="45.67590887658298" lon="17.72722070105374">
        <ele>179.82</ele>
        <time>2023-10-16T17:10:42.785Z</time>
      </trkpt>
      <trkpt lat="45.67590485326946" lon="17.727205362170935">
        <ele>179.91</ele>
        <time>2023-10-16T17:10:44.768Z</time>
      </trkpt>
      <trkpt lat="45.67590041086078" lon="17.72719094529748">
        <ele>180.0</ele>
        <time>2023-10-16T17:10:46.751Z</time>
      </trkpt>
      <trkpt lat="45.67589563317597" lon="17.72717728279531">
        <ele>180.09</ele>
        <time>2023-10-16T17:10:48.735Z</time>
      </trkpt>
      <trkpt lat="45.675890520215034" lon="17.727164374664426">
        <ele>180.18</ele>
        <time>2023-10-16T17:10:50.719Z</time>
      </trkpt>
      <trkpt lat="45.67588507197797" lon="17.72715238854289">
        <ele>180.27</ele>
        <time>2023-10-16T17:10:52.703Z</time>
      </trkpt>
      <trkpt lat="45.675879372283816" lon="17.72714165970683">
        <ele>180.37</ele>
        <time>2023-10-16T17:10:54.688Z</time>
      </trkpt>
      <trkpt lat="45.67587316967547" lon="17.727131601423025">
        <ele>180.46</ele>
        <time>2023-10-16T17:10:56.673Z</time>
      </trkpt>
      <trkpt lat="45.675866547971964" lon="17.727121962234378">
        <ele>180.55</ele>
        <time>2023-10-16T17:10:58.658Z</time>
      </trkpt>
      <trkpt lat="45.67585959099233" lon="17.72711274214089">
        <ele>180.64</ele>
        <time>2023-10-16T17:11:00.644Z</time>
      </trkpt>
      <trkpt lat="45.67585255019367" lon="17.727103857323527">
        <ele>180.74</ele>
        <time>2023-10-16T17:11:02.630Z</time>
      </trkpt>
      <trkpt lat="45.67584517411888" lon="17.727094804868102">
        <ele>180.83</ele>
        <time>2023-10-16T17:11:04.616Z</time>
      </trkpt>
      <trkpt lat="45.67583721131086" lon="17.72708550095558">
        <ele>180.93</ele>
        <time>2023-10-16T17:11:06.603Z</time>
      </trkpt>
      <trkpt lat="45.67582866176963" lon="17.72707569412887">
        <ele>181.03</ele>
        <time>2023-10-16T17:11:08.590Z</time>
      </trkpt>
      <trkpt lat="45.6758196093142" lon="17.727065552026033">
        <ele>181.13</ele>
        <time>2023-10-16T17:11:10.577Z</time>
      </trkpt>
      <trkpt lat="45.67581005394459" lon="17.727054907009006">
        <ele>181.23</ele>
        <time>2023-10-16T17:11:12.565Z</time>
      </trkpt>
      <trkpt lat="45.67579999566078" lon="17.727043591439724">
        <ele>181.33</ele>
        <time>2023-10-16T17:11:14.553Z</time>
      </trkpt>
      <trkpt lat="45.67578960210085" lon="17.727031353861094">
        <ele>181.43</ele>
        <time>2023-10-16T17:11:16.542Z</time>
      </trkpt>
      <trkpt lat="45.67577895708382" lon="17.727018278092146">
        <ele>181.53</ele>
        <time>2023-10-16T17:11:18.531Z</time>
      </trkpt>
      <trkpt lat="45.67576831206679" lon="17.727004447951913">
        <ele>181.63</ele>
        <time>2023-10-16T17:11:20.521Z</time>
      </trkpt>
      <trkpt lat="45.6757574994117" lon="17.7269896119833">
        <ele>181.74</ele>
        <time>2023-10-16T17:11:22.511Z</time>
      </trkpt>
      <trkpt lat="45.67574660293758" lon="17.726973770186305">
        <ele>181.84</ele>
        <time>2023-10-16T17:11:24.502Z</time>
      </trkpt>
      <trkpt lat="45.675735622644424" lon="17.726957090198994">
        <ele>181.95</ele>
        <time>2023-10-16T17:11:26.493Z</time>
      </trkpt>
      <trkpt lat="45.675724893808365" lon="17.7269394043833">
        <ele>182.06</ele>
        <time>2023-10-16T17:11:28.485Z</time>
      </trkpt>
      <trkpt lat="45.675714584067464" lon="17.726920964196324">
        <ele>182.16</ele>
        <time>2023-10-16T17:11:30.477Z</time>
      </trkpt>
      <trkpt lat="45.67570452578366" lon="17.726901601999998">
        <ele>182.27</ele>
        <time>2023-10-16T17:11:32.470Z</time>
      </trkpt>
      <trkpt lat="45.67569497041404" lon="17.72688215598464">
        <ele>182.38</ele>
        <time>2023-10-16T17:11:34.463Z</time>
      </trkpt>
      <trkpt lat="45.675685750320554" lon="17.72686304524541">
        <ele>182.49</ele>
        <time>2023-10-16T17:11:36.457Z</time>
      </trkpt>
      <trkpt lat="45.67567686550319" lon="17.72684460505843">
        <ele>182.61</ele>
        <time>2023-10-16T17:11:38.452Z</time>
      </trkpt>
      <trkpt lat="45.67566798068583" lon="17.7268273383379">
        <ele>182.72</ele>
        <time>2023-10-16T17:11:40.447Z</time>
      </trkpt>
      <trkpt lat="45.67565909586847" lon="17.726810993626714">
        <ele>182.83</ele>
        <time>2023-10-16T17:11:42.442Z</time>
      </trkpt>
      <trkpt lat="45.67565029487014" lon="17.726795906201005">
        <ele>182.95</ele>
        <time>2023-10-16T17:11:44.438Z</time>
      </trkpt>
      <trkpt lat="45.67564149387181" lon="17.72678199224174">
        <ele>183.06</ele>
        <time>2023-10-16T17:11:46.434Z</time>
      </trkpt>
      <trkpt lat="45.67563294433057" lon="17.726769503206015">
        <ele>183.17</ele>
        <time>2023-10-16T17:11:48.431Z</time>
      </trkpt>
      <trkpt lat="45.6756245624274" lon="17.72675860673189">
        <ele>183.29</ele>
        <time>2023-10-16T17:11:50.428Z</time>
      </trkpt>
      <trkpt lat="45.67561618052423" lon="17.726749135181308">
        <ele>183.41</ele>
        <time>2023-10-16T17:11:52.426Z</time>
      </trkpt>
      <trkpt lat="45.675607630982995" lon="17.7267409209162">
        <ele>183.52</ele>
        <time>2023-10-16T17:11:54.424Z</time>
      </trkpt>
      <trkpt lat="45.6755986623466" lon="17.726733461022377">
        <ele>183.64</ele>
        <time>2023-10-16T17:11:56.422Z</time>
      </trkpt>
      <trkpt lat="45.675589526072145" lon="17.726726587861776">
        <ele>183.76</ele>
        <time>2023-10-16T17:11:58.421Z</time>
      </trkpt>
      <trkpt lat="45.67558064125478" lon="17.72671996615827">
        <ele>183.88</ele>
        <time>2023-10-16T17:12:00.420Z</time>
      </trkpt>
      <trkpt lat="45.675571924075484" lon="17.72671359591186">
        <ele>184.0</ele>
        <time>2023-10-16T17:12:02.419Z</time>
      </trkpt>
      <trkpt lat="45.675563625991344" lon="17.726707393303514">
        <ele>184.12</ele>
        <time>2023-10-16T17:12:04.419Z</time>
      </trkpt>
      <trkpt lat="45.675555830821395" lon="17.726701023057103">
        <ele>184.24</ele>
        <time>2023-10-16T17:12:06.419Z</time>
      </trkpt>
      <trkpt lat="45.675548454746604" lon="17.726694652810693">
        <ele>184.36</ele>
        <time>2023-10-16T17:12:08.419Z</time>
      </trkpt>
      <trkpt lat="45.675541246309876" lon="17.72668819874525">
        <ele>184.49</ele>
        <time>2023-10-16T17:12:10.419Z</time>
      </trkpt>
      <trkpt lat="45.67553370259702" lon="17.726681074127555">
        <ele>184.61</ele>
        <time>2023-10-16T17:12:12.420Z</time>
      </trkpt>
      <trkpt lat="45.675526075065136" lon="17.7266735304147">
        <ele>184.73</ele>
        <time>2023-10-16T17:12:14.421Z</time>
      </trkpt>
      <trkpt lat="45.67551836371422" lon="17.72666565142572">
        <ele>184.85</ele>
        <time>2023-10-16T17:12:16.422Z</time>
      </trkpt>
      <trkpt lat="45.6755106523633" lon="17.726657185703516">
        <ele>184.97</ele>
        <time>2023-10-16T17:12:18.424Z</time>
      </trkpt>
      <trkpt lat="45.67550268955529" lon="17.72664804942906">
        <ele>185.1</ele>
        <time>2023-10-16T17:12:20.426Z</time>
      </trkpt>
      <trkpt lat="45.675494307652116" lon="17.72663824260235">
        <ele>185.22</ele>
        <time>2023-10-16T17:12:22.428Z</time>
      </trkpt>
      <trkpt lat="45.67548559047282" lon="17.72662751376629">
        <ele>185.34</ele>
        <time>2023-10-16T17:12:24.431Z</time>
      </trkpt>
      <trkpt lat="45.6754762865603" lon="17.726615946739912">
        <ele>185.46</ele>
        <time>2023-10-16T17:12:26.434Z</time>
      </trkpt>
      <trkpt lat="45.675466395914555" lon="17.726604295894504">
        <ele>185.58</ele>
        <time>2023-10-16T17:12:28.438Z</time>
      </trkpt>
      <trkpt lat="45.675456169992685" lon="17.72659247741103">
        <ele>185.7</ele>
        <time>2023-10-16T17:12:30.442Z</time>
      </trkpt>
      <trkpt lat="45.67544569261372" lon="17.726580575108528">
        <ele>185.82</ele>
        <time>2023-10-16T17:12:32.446Z</time>
      </trkpt>
      <trkpt lat="45.67543529905379" lon="17.72656900808215">
        <ele>185.94</ele>
        <time>2023-10-16T17:12:34.451Z</time>
      </trkpt>
      <trkpt lat="45.675424821674824" lon="17.726557441055775">
        <ele>186.06</ele>
        <time>2023-10-16T17:12:36.456Z</time>
      </trkpt>
      <trkpt lat="45.67541434429586" lon="17.726545874029398">
        <ele>186.18</ele>
        <time>2023-10-16T17:12:38.462Z</time>
      </trkpt>
      <trkpt lat="45.67540395073593" lon="17.72653422318399">
        <ele>186.3</ele>
        <time>2023-10-16T17:12:40.468Z</time>
      </trkpt>
      <trkpt lat="45.67539380863309" lon="17.726522656157613">
        <ele>186.41</ele>
        <time>2023-10-16T17:12:42.475Z</time>
      </trkpt>
      <trkpt lat="45.67538391798735" lon="17.7265112567693">
        <ele>186.53</ele>
        <time>2023-10-16T17:12:44.482Z</time>
      </trkpt>
      <trkpt lat="45.67537436261773" lon="17.72650052793324">
        <ele>186.64</ele>
        <time>2023-10-16T17:12:46.490Z</time>
      </trkpt>
      <trkpt lat="45.67536514252424" lon="17.72649030201137">
        <ele>186.75</ele>
        <time>2023-10-16T17:12:48.498Z</time>
      </trkpt>
      <trkpt lat="45.67535625770688" lon="17.726480746641755">
        <ele>186.87</ele>
        <time>2023-10-16T17:12:50.506Z</time>
      </trkpt>
      <trkpt lat="45.67534779198468" lon="17.72647211328149">
        <ele>186.97</ele>
        <time>2023-10-16T17:12:52.515Z</time>
      </trkpt>
      <trkpt lat="45.675339912995696" lon="17.726464150473475">
        <ele>187.08</ele>
        <time>2023-10-16T17:12:54.524Z</time>
      </trkpt>
      <trkpt lat="45.675332788378" lon="17.72645660676062">
        <ele>187.19</ele>
        <time>2023-10-16T17:12:56.533Z</time>
      </trkpt>
      <trkpt lat="45.67532633431256" lon="17.726449985057116">
        <ele>187.29</ele>
        <time>2023-10-16T17:12:58.542Z</time>
      </trkpt>
      <trkpt lat="45.67532046698034" lon="17.726444201543927">
        <ele>187.4</ele>
        <time>2023-10-16T17:13:00.552Z</time>
      </trkpt>
      <trkpt lat="45.67531527020037" lon="17.726439256221056">
        <ele>187.5</ele>
        <time>2023-10-16T17:13:02.562Z</time>
      </trkpt>
      <trkpt lat="45.6753103248775" lon="17.726435149088502">
        <ele>187.6</ele>
        <time>2023-10-16T17:13:04.572Z</time>
      </trkpt>
      <trkpt lat="45.67530537955463" lon="17.726431544870138">
        <ele>187.69</ele>
        <time>2023-10-16T17:13:06.582Z</time>
      </trkpt>
      <trkpt lat="45.67530051805079" lon="17.72642819210887">
        <ele>187.79</ele>
        <time>2023-10-16T17:13:08.592Z</time>
      </trkpt>
      <trkpt lat="45.675295824185014" lon="17.726424923166633">
        <ele>187.88</ele>
        <time>2023-10-16T17:13:10.603Z</time>
      </trkpt>
      <trkpt lat="45.675290543586016" lon="17.726421235129237">
        <ele>187.98</ele>
        <time>2023-10-16T17:13:12.614Z</time>
      </trkpt>
      <trkpt lat="45.675284676253796" lon="17.726416625082493">
        <ele>188.07</ele>
        <time>2023-10-16T17:13:14.625Z</time>
      </trkpt>
      <trkpt lat="45.67527838982642" lon="17.72641167975962">
        <ele>188.16</ele>
        <time>2023-10-16T17:13:16.636Z</time>
      </trkpt>
      <trkpt lat="45.67527134902775" lon="17.726406315341592">
        <ele>188.25</ele>
        <time>2023-10-16T17:13:18.648Z</time>
      </trkpt>
      <trkpt lat="45.675263637676835" lon="17.726400531828403">
        <ele>188.33</ele>
        <time>2023-10-16T17:13:20.660Z</time>
      </trkpt>
      <trkpt lat="45.67525542341173" lon="17.726394245401025">
        <ele>188.42</ele>
        <time>2023-10-16T17:13:22.672Z</time>
      </trkpt>
      <trkpt lat="45.67524679005146" lon="17.726387791335583">
        <ele>188.5</ele>
        <time>2023-10-16T17:13:24.685Z</time>
      </trkpt>
      <trkpt lat="45.67523798905313" lon="17.726380918174982">
        <ele>188.59</ele>
        <time>2023-10-16T17:13:26.698Z</time>
      </trkpt>
      <trkpt lat="45.67522910423577" lon="17.72637396119535">
        <ele>188.67</ele>
        <time>2023-10-16T17:13:28.711Z</time>
      </trkpt>
      <trkpt lat="45.67522030323744" lon="17.726366920396686">
        <ele>188.75</ele>
        <time>2023-10-16T17:13:30.725Z</time>
      </trkpt>
      <trkpt lat="45.67521150223911" lon="17.72635987959802">
        <ele>188.83</ele>
        <time>2023-10-16T17:13:32.739Z</time>
      </trkpt>
      <trkpt lat="45.675203036516905" lon="17.72635292261839">
        <ele>188.91</ele>
        <time>2023-10-16T17:13:34.753Z</time>
      </trkpt>
      <trkpt lat="45.67519465461373" lon="17.726346217095852">
        <ele>188.98</ele>
        <time>2023-10-16T17:13:36.768Z</time>
      </trkpt>
      <trkpt lat="45.67518627271056" lon="17.726339679211378">
        <ele>189.06</ele>
        <time>2023-10-16T17:13:38.783Z</time>
      </trkpt>
      <trkpt lat="45.675178142264485" lon="17.726333141326904">
        <ele>189.13</ele>
        <time>2023-10-16T17:13:40.798Z</time>
      </trkpt>
      <trkpt lat="45.675169760361314" lon="17.7263265196234">
        <ele>189.21</ele>
        <time>2023-10-16T17:13:42.813Z</time>
      </trkpt>
      <trkpt lat="45.67516121082008" lon="17.72631981410086">
        <ele>189.28</ele>
        <time>2023-10-16T17:13:44.829Z</time>
      </trkpt>
      <trkpt lat="45.675152745097876" lon="17.726313276216388">
        <ele>189.35</ele>
        <time>2023-10-16T17:13:46.845Z</time>
      </trkpt>
      <trkpt lat="45.67514411173761" lon="17.72630698978901">
        <ele>189.42</ele>
        <time>2023-10-16T17:13:48.861Z</time>
      </trkpt>
      <trkpt lat="45.675135562196374" lon="17.72630112245679">
        <ele>189.49</ele>
        <time>2023-10-16T17:13:50.878Z</time>
      </trkpt>
      <trkpt lat="45.67512701265514" lon="17.72629575803876">
        <ele>189.56</ele>
        <time>2023-10-16T17:13:52.895Z</time>
      </trkpt>
      <trkpt lat="45.675118463113904" lon="17.726291064172983">
        <ele>189.62</ele>
        <time>2023-10-16T17:13:54.912Z</time>
      </trkpt>
      <trkpt lat="45.67511008121073" lon="17.726286873221397">
        <ele>189.69</ele>
        <time>2023-10-16T17:13:56.930Z</time>
      </trkpt>
      <trkpt lat="45.67510203458369" lon="17.72628310136497">
        <ele>189.76</ele>
        <time>2023-10-16T17:13:58.948Z</time>
      </trkpt>
      <trkpt lat="45.675094071775675" lon="17.726279580965638">
        <ele>189.82</ele>
        <time>2023-10-16T17:14:00.966Z</time>
      </trkpt>
      <trkpt lat="45.67508644424379" lon="17.726276479661465">
        <ele>189.89</ele>
        <time>2023-10-16T17:14:02.984Z</time>
      </trkpt>
      <trkpt lat="45.675079068169" lon="17.726273545995355">
        <ele>189.95</ele>
        <time>2023-10-16T17:14:05.003Z</time>
      </trkpt>
      <trkpt lat="45.6750719435513" lon="17.726270779967308">
        <ele>190.01</ele>
        <time>2023-10-16T17:14:07.022Z</time>
      </trkpt>
      <trkpt lat="45.67506490275264" lon="17.726267762482166">
        <ele>190.08</ele>
        <time>2023-10-16T17:14:09.041Z</time>
      </trkpt>
      <trkpt lat="45.675057861953974" lon="17.72626449353993">
        <ele>190.14</ele>
        <time>2023-10-16T17:14:11.060Z</time>
      </trkpt>
      <trkpt lat="45.675050653517246" lon="17.726260805502534">
        <ele>190.2</ele>
        <time>2023-10-16T17:14:13.080Z</time>
      </trkpt>
      <trkpt lat="45.675043277442455" lon="17.726256530731916">
        <ele>190.27</ele>
        <time>2023-10-16T17:14:15.100Z</time>
      </trkpt>
      <trkpt lat="45.675035482272506" lon="17.72625125013292">
        <ele>190.33</ele>
        <time>2023-10-16T17:14:17.120Z</time>
      </trkpt>
      <trkpt lat="45.675027184188366" lon="17.726245298981667">
        <ele>190.4</ele>
        <time>2023-10-16T17:14:19.141Z</time>
      </trkpt>
      <trkpt lat="45.67501846700907" lon="17.72623867727816">
        <ele>190.46</ele>
        <time>2023-10-16T17:14:21.162Z</time>
      </trkpt>
      <trkpt lat="45.67500933073461" lon="17.72623172029853">
        <ele>190.52</ele>
        <time>2023-10-16T17:14:23.183Z</time>
      </trkpt>
      <trkpt lat="45.67499969154596" lon="17.726224679499865">
        <ele>190.59</ele>
        <time>2023-10-16T17:14:25.205Z</time>
      </trkpt>
      <trkpt lat="45.674989549443126" lon="17.726217806339264">
        <ele>190.65</ele>
        <time>2023-10-16T17:14:27.227Z</time>
      </trkpt>
      <trkpt lat="45.67497898824513" lon="17.726211603730917">
        <ele>190.72</ele>
        <time>2023-10-16T17:14:29.249Z</time>
      </trkpt>
      <trkpt lat="45.674968007951975" lon="17.72620632313192">
        <ele>190.79</ele>
        <time>2023-10-16T17:14:31.272Z</time>
      </trkpt>
      <trkpt lat="45.67495694383979" lon="17.726201796904206">
        <ele>190.86</ele>
        <time>2023-10-16T17:14:33.295Z</time>
      </trkpt>
      <trkpt lat="45.67494546063244" lon="17.726198276504874">
        <ele>190.93</ele>
        <time>2023-10-16T17:14:35.319Z</time>
      </trkpt>
      <trkpt lat="45.674933725968" lon="17.726195845752954">
        <ele>191.0</ele>
        <time>2023-10-16T17:14:37.343Z</time>
      </trkpt>
      <trkpt lat="45.67492173984647" lon="17.72619467228651">
        <ele>191.07</ele>
        <time>2023-10-16T17:14:39.367Z</time>
      </trkpt>
      <trkpt lat="45.67490958608687" lon="17.72619458846748">
        <ele>191.14</ele>
        <time>2023-10-16T17:14:41.392Z</time>
      </trkpt>
      <trkpt lat="45.674897180870175" lon="17.72619567811489">
        <ele>191.21</ele>
        <time>2023-10-16T17:14:43.417Z</time>
      </trkpt>
      <trkpt lat="45.674884524196386" lon="17.726197689771652">
        <ele>191.29</ele>
        <time>2023-10-16T17:14:45.443Z</time>
      </trkpt>
      <trkpt lat="45.6748718675226" lon="17.726200791075826">
        <ele>191.37</ele>
        <time>2023-10-16T17:14:47.469Z</time>
      </trkpt>
      <trkpt lat="45.67485912702978" lon="17.726204562932253">
        <ele>191.44</ele>
        <time>2023-10-16T17:14:49.495Z</time>
      </trkpt>
      <trkpt lat="45.67484655417502" lon="17.72620883770287">
        <ele>191.52</ele>
        <time>2023-10-16T17:14:51.522Z</time>
      </trkpt>
      <trkpt lat="45.67483431659639" lon="17.72621319629252">
        <ele>191.61</ele>
        <time>2023-10-16T17:14:53.549Z</time>
      </trkpt>
      <trkpt lat="45.674821911379695" lon="17.72621755488217">
        <ele>191.69</ele>
        <time>2023-10-16T17:14:55.577Z</time>
      </trkpt>
      <trkpt lat="45.674809506163" lon="17.726221662014723">
        <ele>191.78</ele>
        <time>2023-10-16T17:14:57.605Z</time>
      </trkpt>
      <trkpt lat="45.674797017127275" lon="17.726225098595023">
        <ele>191.86</ele>
        <time>2023-10-16T17:14:59.634Z</time>
      </trkpt>
      <trkpt lat="45.67478444427252" lon="17.726228032261133">
        <ele>191.96</ele>
        <time>2023-10-16T17:15:01.663Z</time>
      </trkpt>
      <trkpt lat="45.6747717037797" lon="17.726230463013053">
        <ele>192.05</ele>
        <time>2023-10-16T17:15:03.692Z</time>
      </trkpt>
      <trkpt lat="45.67475896328688" lon="17.72623230703175">
        <ele>192.15</ele>
        <time>2023-10-16T17:15:05.722Z</time>
      </trkpt>
      <trkpt lat="45.67474605515599" lon="17.726233564317226">
        <ele>192.24</ele>
        <time>2023-10-16T17:15:07.752Z</time>
      </trkpt>
      <trkpt lat="45.674732979387045" lon="17.726233899593353">
        <ele>192.35</ele>
        <time>2023-10-16T17:15:09.783Z</time>
      </trkpt>
      <trkpt lat="45.674719819799066" lon="17.726233564317226">
        <ele>192.45</ele>
        <time>2023-10-16T17:15:11.814Z</time>
      </trkpt>
      <trkpt lat="45.67470632493496" lon="17.726232474669814">
        <ele>192.56</ele>
        <time>2023-10-16T17:15:13.846Z</time>
      </trkpt>
      <trkpt lat="45.67469257861376" lon="17.72623088210821">
        <ele>192.67</ele>
        <time>2023-10-16T17:15:15.878Z</time>
      </trkpt>
      <trkpt lat="45.67467883229256" lon="17.726228954270482">
        <ele>192.78</ele>
        <time>2023-10-16T17:15:17.911Z</time>
      </trkpt>
      <trkpt lat="45.674665085971355" lon="17.726226774975657">
        <ele>192.89</ele>
        <time>2023-10-16T17:15:19.944Z</time>
      </trkpt>
      <trkpt lat="45.67465150728822" lon="17.726224344223738">
        <ele>193.01</ele>
        <time>2023-10-16T17:15:21.977Z</time>
      </trkpt>
      <trkpt lat="45.67463792860508" lon="17.726221662014723">
        <ele>193.13</ele>
        <time>2023-10-16T17:15:24.011Z</time>
      </trkpt>
      <trkpt lat="45.67462434992194" lon="17.726218728348613">
        <ele>193.25</ele>
        <time>2023-10-16T17:15:26.045Z</time>
      </trkpt>
      <trkpt lat="45.6746110226959" lon="17.72621562704444">
        <ele>193.37</ele>
        <time>2023-10-16T17:15:28.080Z</time>
      </trkpt>
      <trkpt lat="45.67459794692695" lon="17.726212944835424">
        <ele>193.5</ele>
        <time>2023-10-16T17:15:30.115Z</time>
      </trkpt>
      <trkpt lat="45.674584954977036" lon="17.726210681721568">
        <ele>193.63</ele>
        <time>2023-10-16T17:15:32.151Z</time>
      </trkpt>
      <trkpt lat="45.674571795389056" lon="17.726208921521902">
        <ele>193.76</ele>
        <time>2023-10-16T17:15:34.187Z</time>
      </trkpt>
      <trkpt lat="45.67455888725817" lon="17.726207580417395">
        <ele>193.9</ele>
        <time>2023-10-16T17:15:36.224Z</time>
      </trkpt>
      <trkpt lat="45.674545895308256" lon="17.72620640695095">
        <ele>194.04</ele>
        <time>2023-10-16T17:15:38.261Z</time>
      </trkpt>
      <trkpt lat="45.67453290335834" lon="17.726205233484507">
        <ele>194.18</ele>
        <time>2023-10-16T17:15:40.298Z</time>
      </trkpt>
      <trkpt lat="45.67451982758939" lon="17.726204227656126">
        <ele>194.32</ele>
        <time>2023-10-16T17:15:42.336Z</time>
      </trkpt>
      <trkpt lat="45.67450658418238" lon="17.726203557103872">
        <ele>194.46</ele>
        <time>2023-10-16T17:15:44.374Z</time>
      </trkpt>
      <trkpt lat="45.674493592232466" lon="17.726203305646777">
        <ele>194.61</ele>
        <time>2023-10-16T17:15:46.413Z</time>
      </trkpt>
      <trkpt lat="45.67448060028255" lon="17.726203557103872">
        <ele>194.76</ele>
        <time>2023-10-16T17:15:48.452Z</time>
      </trkpt>
      <trkpt lat="45.6744675245136" lon="17.72620397619903">
        <ele>194.91</ele>
        <time>2023-10-16T17:15:50.492Z</time>
      </trkpt>
      <trkpt lat="45.67445419728756" lon="17.726203808560967">
        <ele>195.07</ele>
        <time>2023-10-16T17:15:52.532Z</time>
      </trkpt>
      <trkpt lat="45.67444087006152" lon="17.726202802732587">
        <ele>195.23</ele>
        <time>2023-10-16T17:15:54.573Z</time>
      </trkpt>
      <trkpt lat="45.674427626654506" lon="17.726200791075826">
        <ele>195.39</ele>
        <time>2023-10-16T17:15:56.614Z</time>
      </trkpt>
      <trkpt lat="45.67441455088556" lon="17.726197857409716">
        <ele>195.56</ele>
        <time>2023-10-16T17:15:58.655Z</time>
      </trkpt>
      <trkpt lat="45.67440147511661" lon="17.726194420829415">
        <ele>195.72</ele>
        <time>2023-10-16T17:16:00.697Z</time>
      </trkpt>
      <trkpt lat="45.674388566985726" lon="17.726190565153956">
        <ele>195.89</ele>
        <time>2023-10-16T17:16:02.739Z</time>
      </trkpt>
      <trkpt lat="45.67437557503581" lon="17.726186206564307">
        <ele>196.07</ele>
        <time>2023-10-16T17:16:04.782Z</time>
      </trkpt>
      <trkpt lat="45.674362583085895" lon="17.726181177422404">
        <ele>196.24</ele>
        <time>2023-10-16T17:16:06.825Z</time>
      </trkpt>
      <trkpt lat="45.674349423497915" lon="17.72617556154728">
        <ele>196.42</ele>
        <time>2023-10-16T17:16:08.869Z</time>
      </trkpt>
      <trkpt lat="45.67433609627187" lon="17.726169107481837">
        <ele>196.6</ele>
        <time>2023-10-16T17:16:10.913Z</time>
      </trkpt>
      <trkpt lat="45.674322517588735" lon="17.726162066683173">
        <ele>196.78</ele>
        <time>2023-10-16T17:16:12.958Z</time>
      </trkpt>
      <trkpt lat="45.67430860362947" lon="17.726154439151287">
        <ele>196.96</ele>
        <time>2023-10-16T17:16:15.003Z</time>
      </trkpt>
      <trkpt lat="45.67429435439408" lon="17.726145889610052">
        <ele>197.15</ele>
        <time>2023-10-16T17:16:17.049Z</time>
      </trkpt>
      <trkpt lat="45.67427985370159" lon="17.72613641805947">
        <ele>197.33</ele>
        <time>2023-10-16T17:16:19.095Z</time>
      </trkpt>
      <trkpt lat="45.67426501773298" lon="17.726126108318567">
        <ele>197.52</ele>
        <time>2023-10-16T17:16:21.142Z</time>
      </trkpt>
      <trkpt lat="45.674249678850174" lon="17.726114289835095">
        <ele>197.72</ele>
        <time>2023-10-16T17:16:23.189Z</time>
      </trkpt>
      <trkpt lat="45.674234088510275" lon="17.72610079497099">
        <ele>197.91</ele>
        <time>2023-10-16T17:16:25.237Z</time>
      </trkpt>
      <trkpt lat="45.67421807907522" lon="17.726085875183344">
        <ele>198.11</ele>
        <time>2023-10-16T17:16:27.286Z</time>
      </trkpt>
      <trkpt lat="45.67420198582113" lon="17.72606961429119">
        <ele>198.3</ele>
        <time>2023-10-16T17:16:29.335Z</time>
      </trkpt>
      <trkpt lat="45.674185724928975" lon="17.726052347570658">
        <ele>198.5</ele>
        <time>2023-10-16T17:16:31.385Z</time>
      </trkpt>
      <trkpt lat="45.67416946403682" lon="17.726034745573997">
        <ele>198.7</ele>
        <time>2023-10-16T17:16:33.436Z</time>
      </trkpt>
      <trkpt lat="45.674153454601765" lon="17.72601722739637">
        <ele>198.9</ele>
        <time>2023-10-16T17:16:35.487Z</time>
      </trkpt>
      <trkpt lat="45.674137780442834" lon="17.726000295951962">
        <ele>199.11</ele>
        <time>2023-10-16T17:16:37.539Z</time>
      </trkpt>
      <trkpt lat="45.674122693017125" lon="17.72598462179303">
        <ele>199.31</ele>
        <time>2023-10-16T17:16:39.591Z</time>
      </trkpt>
      <trkpt lat="45.6741083599627" lon="17.725970624014735">
        <ele>199.51</ele>
        <time>2023-10-16T17:16:41.644Z</time>
      </trkpt>
      <trkpt lat="45.674094362184405" lon="17.725958386436105">
        <ele>199.72</ele>
        <time>2023-10-16T17:16:43.698Z</time>
      </trkpt>
      <trkpt lat="45.67408103495836" lon="17.7259483281523">
        <ele>199.92</ele>
        <time>2023-10-16T17:16:45.752Z</time>
      </trkpt>
      <trkpt lat="45.67406821064651" lon="17.725940449163318">
        <ele>200.13</ele>
        <time>2023-10-16T17:16:47.807Z</time>
      </trkpt>
      <trkpt lat="45.67405597306788" lon="17.725934498012066">
        <ele>200.33</ele>
        <time>2023-10-16T17:16:49.862Z</time>
      </trkpt>
      <trkpt lat="45.6740444060415" lon="17.725930139422417">
        <ele>200.54</ele>
        <time>2023-10-16T17:16:51.917Z</time>
      </trkpt>
      <trkpt lat="45.674033258110285" lon="17.725926619023085">
        <ele>200.75</ele>
        <time>2023-10-16T17:16:53.973Z</time>
      </trkpt>
      <trkpt lat="45.67402244545519" lon="17.72592351771891">
        <ele>200.95</ele>
        <time>2023-10-16T17:16:56.029Z</time>
      </trkpt>
      <trkpt lat="45.674011800438166" lon="17.725920332595706">
        <ele>201.16</ele>
        <time>2023-10-16T17:16:58.086Z</time>
      </trkpt>
      <trkpt lat="45.67400140687823" lon="17.725916728377342">
        <ele>201.36</ele>
        <time>2023-10-16T17:17:00.143Z</time>
      </trkpt>
      <trkpt lat="45.67399084568024" lon="17.725912621244788">
        <ele>201.57</ele>
        <time>2023-10-16T17:17:02.200Z</time>
      </trkpt>
      <trkpt lat="45.67398020066321" lon="17.72590784355998">
        <ele>201.78</ele>
        <time>2023-10-16T17:17:04.258Z</time>
      </trkpt>
      <trkpt lat="45.67396947182715" lon="17.725902227684855">
        <ele>201.99</ele>
        <time>2023-10-16T17:17:06.316Z</time>
      </trkpt>
      <trkpt lat="45.673958575353026" lon="17.725895773619413">
        <ele>202.2</ele>
        <time>2023-10-16T17:17:08.374Z</time>
      </trkpt>
      <trkpt lat="45.67394751124084" lon="17.725888481363654">
        <ele>202.4</ele>
        <time>2023-10-16T17:17:10.433Z</time>
      </trkpt>
      <trkpt lat="45.67393627949059" lon="17.725880686193705">
        <ele>202.61</ele>
        <time>2023-10-16T17:17:12.492Z</time>
      </trkpt>
      <trkpt lat="45.67392488010228" lon="17.725872471928596">
        <ele>202.82</ele>
        <time>2023-10-16T17:17:14.552Z</time>
      </trkpt>
      <trkpt lat="45.67391339689493" lon="17.725864090025425">
        <ele>203.03</ele>
        <time>2023-10-16T17:17:16.612Z</time>
      </trkpt>
      <trkpt lat="45.673901829868555" lon="17.725855791941285">
        <ele>203.24</ele>
        <time>2023-10-16T17:17:18.672Z</time>
      </trkpt>
      <trkpt lat="45.67389017902315" lon="17.72584766149521">
        <ele>203.44</ele>
        <time>2023-10-16T17:17:20.733Z</time>
      </trkpt>
      <trkpt lat="45.67387852817774" lon="17.72583995014429">
        <ele>203.65</ele>
        <time>2023-10-16T17:17:22.794Z</time>
      </trkpt>
      <trkpt lat="45.6738667935133" lon="17.72583265788853">
        <ele>203.86</ele>
        <time>2023-10-16T17:17:24.856Z</time>
      </trkpt>
      <trkpt lat="45.67385505884886" lon="17.7258257009089">
        <ele>204.06</ele>
        <time>2023-10-16T17:17:26.918Z</time>
      </trkpt>
      <trkpt lat="45.67384307272732" lon="17.72581933066249">
        <ele>204.27</ele>
        <time>2023-10-16T17:17:28.981Z</time>
      </trkpt>
      <trkpt lat="45.67383108660579" lon="17.725813295692205">
        <ele>204.48</ele>
        <time>2023-10-16T17:17:31.044Z</time>
      </trkpt>
      <trkpt lat="45.67381884902716" lon="17.725807847455144">
        <ele>204.68</ele>
        <time>2023-10-16T17:17:33.107Z</time>
      </trkpt>
      <trkpt lat="45.673806611448526" lon="17.72580281831324">
        <ele>204.89</ele>
        <time>2023-10-16T17:17:35.171Z</time>
      </trkpt>
      <trkpt lat="45.6737941224128" lon="17.725798040628433">
        <ele>205.1</ele>
        <time>2023-10-16T17:17:37.235Z</time>
      </trkpt>
      <trkpt lat="45.67378154955804" lon="17.725793682038784">
        <ele>205.3</ele>
        <time>2023-10-16T17:17:39.300Z</time>
      </trkpt>
      <trkpt lat="45.67376880906522" lon="17.72578957490623">
        <ele>205.5</ele>
        <time>2023-10-16T17:17:41.365Z</time>
      </trkpt>
      <trkpt lat="45.6737560685724" lon="17.725785551592708">
        <ele>205.71</ele>
        <time>2023-10-16T17:17:43.431Z</time>
      </trkpt>
      <trkpt lat="45.67374324426055" lon="17.72578177973628">
        <ele>205.91</ele>
        <time>2023-10-16T17:17:45.497Z</time>
      </trkpt>
      <trkpt lat="45.67373008467257" lon="17.72577825933695">
        <ele>206.11</ele>
        <time>2023-10-16T17:17:47.564Z</time>
      </trkpt>
      <trkpt lat="45.67371675744653" lon="17.72577490657568">
        <ele>206.32</ele>
        <time>2023-10-16T17:17:49.631Z</time>
      </trkpt>
      <trkpt lat="45.67370334640145" lon="17.725771637633443">
        <ele>206.52</ele>
        <time>2023-10-16T17:17:51.698Z</time>
      </trkpt>
      <trkpt lat="45.67368968389928" lon="17.72576853632927">
        <ele>206.72</ele>
        <time>2023-10-16T17:17:53.766Z</time>
      </trkpt>
      <trkpt lat="45.67367585375905" lon="17.725765267387033">
        <ele>206.92</ele>
        <time>2023-10-16T17:17:55.834Z</time>
      </trkpt>
      <trkpt lat="45.673661939799786" lon="17.725761914625764">
        <ele>207.12</ele>
        <time>2023-10-16T17:17:57.903Z</time>
      </trkpt>
      <trkpt lat="45.67364785820246" lon="17.725758394226432">
        <ele>207.31</ele>
        <time>2023-10-16T17:17:59.972Z</time>
      </trkpt>
      <trkpt lat="45.673633525148034" lon="17.725754538550973">
        <ele>207.51</ele>
        <time>2023-10-16T17:18:02.042Z</time>
      </trkpt>
      <trkpt lat="45.67361919209361" lon="17.725750263780355">
        <ele>207.71</ele>
        <time>2023-10-16T17:18:04.112Z</time>
      </trkpt>
      <trkpt lat="45.673604775220156" lon="17.725745737552643">
        <ele>207.9</ele>
        <time>2023-10-16T17:18:06.183Z</time>
      </trkpt>
      <trkpt lat="45.67359044216573" lon="17.72574079222977">
        <ele>208.1</ele>
        <time>2023-10-16T17:18:08.254Z</time>
      </trkpt>
      <trkpt lat="45.67357627674937" lon="17.725735092535615">
        <ele>208.29</ele>
        <time>2023-10-16T17:18:10.326Z</time>
      </trkpt>
      <trkpt lat="45.673562195152044" lon="17.725728722289205">
        <ele>208.48</ele>
        <time>2023-10-16T17:18:12.398Z</time>
      </trkpt>
      <trkpt lat="45.673548113554716" lon="17.725721513852477">
        <ele>208.67</ele>
        <time>2023-10-16T17:18:14.471Z</time>
      </trkpt>
      <trkpt lat="45.67353411577642" lon="17.725713215768337">
        <ele>208.86</ele>
        <time>2023-10-16T17:18:16.544Z</time>
      </trkpt>
      <trkpt lat="45.67352011799812" lon="17.72570399567485">
        <ele>209.05</ele>
        <time>2023-10-16T17:18:18.618Z</time>
      </trkpt>
      <trkpt lat="45.67350628785789" lon="17.725693518295884">
        <ele>209.24</ele>
        <time>2023-10-16T17:18:20.692Z</time>
      </trkpt>
      <trkpt lat="45.67349254153669" lon="17.725681867450476">
        <ele>209.42</ele>
        <time>2023-10-16T17:18:22.767Z</time>
      </trkpt>
      <trkpt lat="45.67347904667258" lon="17.72566895931959">
        <ele>209.61</ele>
        <time>2023-10-16T17:18:24.842Z</time>
      </trkpt>
      <trkpt lat="45.67346555180848" lon="17.72565479390323">
        <ele>209.79</ele>
        <time>2023-10-16T17:18:26.918Z</time>
      </trkpt>
      <trkpt lat="45.673452224582434" lon="17.725638952106237">
        <ele>209.98</ele>
        <time>2023-10-16T17:18:28.994Z</time>
      </trkpt>
      <trkpt lat="45.67343881353736" lon="17.725621601566672">
        <ele>210.16</ele>
        <time>2023-10-16T17:18:31.071Z</time>
      </trkpt>
      <trkpt lat="45.67342557013035" lon="17.725602826103568">
        <ele>210.33</ele>
        <time>2023-10-16T17:18:33.149Z</time>
      </trkpt>
      <trkpt lat="45.67341232672334" lon="17.72558237425983">
        <ele>210.51</ele>
        <time>2023-10-16T17:18:35.227Z</time>
      </trkpt>
      <trkpt lat="45.673399083316326" lon="17.72556083276868">
        <ele>210.68</ele>
        <time>2023-10-16T17:18:37.306Z</time>
      </trkpt>
      <trkpt lat="45.67338592372835" lon="17.7255389560014">
        <ele>210.86</ele>
        <time>2023-10-16T17:18:39.386Z</time>
      </trkpt>
      <trkpt lat="45.67337293177843" lon="17.72551733069122">
        <ele>211.03</ele>
        <time>2023-10-16T17:18:41.466Z</time>
      </trkpt>
      <trkpt lat="45.67336010746658" lon="17.725497214123607">
        <ele>211.2</ele>
        <time>2023-10-16T17:18:43.547Z</time>
      </trkpt>
      <trkpt lat="45.67334736697376" lon="17.72547885775566">
        <ele>211.37</ele>
        <time>2023-10-16T17:18:45.629Z</time>
      </trkpt>
      <trkpt lat="45.67333471029997" lon="17.72546259686351">
        <ele>211.53</ele>
        <time>2023-10-16T17:18:47.711Z</time>
      </trkpt>
      <trkpt lat="45.67332222126424" lon="17.725448850542307">
        <ele>211.69</ele>
        <time>2023-10-16T17:18:49.794Z</time>
      </trkpt>
      <trkpt lat="45.673310067504644" lon="17.725437954068184">
        <ele>211.85</ele>
        <time>2023-10-16T17:18:51.877Z</time>
      </trkpt>
      <trkpt lat="45.67329808138311" lon="17.72542940452695">
        <ele>212.01</ele>
        <time>2023-10-16T17:18:53.961Z</time>
      </trkpt>
      <trkpt lat="45.67328626289964" lon="17.725423369556665">
        <ele>212.17</ele>
        <time>2023-10-16T17:18:56.045Z</time>
      </trkpt>
      <trkpt lat="45.67327477969229" lon="17.7254197653383">
        <ele>212.32</ele>
        <time>2023-10-16T17:18:58.129Z</time>
      </trkpt>
      <trkpt lat="45.67326379939914" lon="17.7254181727767">
        <ele>212.47</ele>
        <time>2023-10-16T17:19:00.214Z</time>
      </trkpt>
      <trkpt lat="45.673253405839205" lon="17.725417921319604">
        <ele>212.61</ele>
        <time>2023-10-16T17:19:02.299Z</time>
      </trkpt>
      <trkpt lat="45.673243179917336" lon="17.72541867569089">
        <ele>212.76</ele>
        <time>2023-10-16T17:19:04.385Z</time>
      </trkpt>
      <trkpt lat="45.67323320545256" lon="17.725419430062175">
        <ele>212.9</ele>
        <time>2023-10-16T17:19:06.471Z</time>
      </trkpt>
      <trkpt lat="45.673223566263914" lon="17.72542010061443">
        <ele>213.04</ele>
        <time>2023-10-16T17:19:08.557Z</time>
      </trkpt>
      <trkpt lat="45.67321392707527" lon="17.725420519709587">
        <ele>213.17</ele>
        <time>2023-10-16T17:19:10.643Z</time>
      </trkpt>
      <trkpt lat="45.67320445552468" lon="17.725420435890555">
        <ele>213.3</ele>
        <time>2023-10-16T17:19:12.730Z</time>
      </trkpt>
      <trkpt lat="45.6731949839741" lon="17.72541968151927">
        <ele>213.43</ele>
        <time>2023-10-16T17:19:14.817Z</time>
      </trkpt>
      <trkpt lat="45.67318534478545" lon="17.725418340414762">
        <ele>213.55</ele>
        <time>2023-10-16T17:19:16.904Z</time>
      </trkpt>
      <trkpt lat="45.673175705596805" lon="17.72541674785316">
        <ele>213.67</ele>
        <time>2023-10-16T17:19:18.992Z</time>
      </trkpt>
      <trkpt lat="45.67316615022719" lon="17.725415071472526">
        <ele>213.78</ele>
        <time>2023-10-16T17:19:21.080Z</time>
      </trkpt>
      <trkpt lat="45.67315634340048" lon="17.725413478910923">
        <ele>213.89</ele>
        <time>2023-10-16T17:19:23.168Z</time>
      </trkpt>
      <trkpt lat="45.673146368935704" lon="17.72541188634932">
        <ele>214.0</ele>
        <time>2023-10-16T17:19:25.257Z</time>
      </trkpt>
      <trkpt lat="45.6731363106519" lon="17.725410126149654">
        <ele>214.1</ele>
        <time>2023-10-16T17:19:27.346Z</time>
      </trkpt>
      <trkpt lat="45.67312625236809" lon="17.72540803067386">
        <ele>214.2</ele>
        <time>2023-10-16T17:19:29.435Z</time>
      </trkpt>
      <trkpt lat="45.67311636172235" lon="17.725405348464847">
        <ele>214.3</ele>
        <time>2023-10-16T17:19:31.525Z</time>
      </trkpt>
      <trkpt lat="45.67310655489564" lon="17.725401911884546">
        <ele>214.39</ele>
        <time>2023-10-16T17:19:33.615Z</time>
      </trkpt>
      <trkpt lat="45.67309691570699" lon="17.725397888571024">
        <ele>214.47</ele>
        <time>2023-10-16T17:19:35.705Z</time>
      </trkpt>
      <trkpt lat="45.673087276518345" lon="17.725393110886216">
        <ele>214.55</ele>
        <time>2023-10-16T17:19:37.796Z</time>
      </trkpt>
      <trkpt lat="45.67307772114873" lon="17.725387662649155">
        <ele>214.62</ele>
        <time>2023-10-16T17:19:39.887Z</time>
      </trkpt>
      <trkpt lat="45.67306808196008" lon="17.725381376221776">
        <ele>214.69</ele>
        <time>2023-10-16T17:19:41.978Z</time>
      </trkpt>
      <trkpt lat="45.6730583589524" lon="17.725374419242144">
        <ele>214.75</ele>
        <time>2023-10-16T17:19:44.070Z</time>
      </trkpt>
      <trkpt lat="45.673048635944724" lon="17.72536645643413">
        <ele>214.81</ele>
        <time>2023-10-16T17:19:46.162Z</time>
      </trkpt>
      <trkpt lat="45.67303866147995" lon="17.725357487797737">
        <ele>214.86</ele>
        <time>2023-10-16T17:19:48.255Z</time>
      </trkpt>
      <trkpt lat="45.67302835173905" lon="17.725347513332963">
        <ele>214.91</ele>
        <time>2023-10-16T17:19:50.348Z</time>
      </trkpt>
      <trkpt lat="45.67301762290299" lon="17.72533661685884">
        <ele>214.95</ele>
        <time>2023-10-16T17:19:52.441Z</time>
      </trkpt>
      <trkpt lat="45.67300639115274" lon="17.7253248821944">
        <ele>214.98</ele>
        <time>2023-10-16T17:19:54.535Z</time>
      </trkpt>
      <trkpt lat="45.672994488850236" lon="17.725312309339643">
        <ele>215.01</ele>
        <time>2023-10-16T17:19:56.629Z</time>
      </trkpt>
      <trkpt lat="45.67298183217645" lon="17.7252989821136">
        <ele>215.03</ele>
        <time>2023-10-16T17:19:58.724Z</time>
      </trkpt>
      <trkpt lat="45.67296842113137" lon="17.725284732878208">
        <ele>215.05</ele>
        <time>2023-10-16T17:20:00.819Z</time>
      </trkpt>
      <trkpt lat="45.672954423353076" lon="17.725269561633468">
        <ele>215.06</ele>
        <time>2023-10-16T17:20:02.915Z</time>
      </trkpt>
      <trkpt lat="45.672939755022526" lon="17.725253300741315">
        <ele>215.06</ele>
        <time>2023-10-16T17:20:05.012Z</time>
      </trkpt>
      <trkpt lat="45.67292466759682" lon="17.725236285477877">
        <ele>215.06</ele>
        <time>2023-10-16T17:20:07.109Z</time>
      </trkpt>
      <trkpt lat="45.67290882579982" lon="17.725218012928963">
        <ele>215.05</ele>
        <time>2023-10-16T17:20:09.207Z</time>
      </trkpt>
      <trkpt lat="45.672892816364765" lon="17.725198986008763">
        <ele>215.03</ele>
        <time>2023-10-16T17:20:11.306Z</time>
      </trkpt>
      <trkpt lat="45.67287655547261" lon="17.725179037079215">
        <ele>215.01</ele>
        <time>2023-10-16T17:20:13.405Z</time>
      </trkpt>
      <trkpt lat="45.67286021076143" lon="17.725158417597413">
        <ele>214.98</ele>
        <time>2023-10-16T17:20:15.505Z</time>
      </trkpt>
      <trkpt lat="45.67284378223121" lon="17.72513721138239">
        <ele>214.94</ele>
        <time>2023-10-16T17:20:17.606Z</time>
      </trkpt>
      <trkpt lat="45.67282752133906" lon="17.7251158375293">
        <ele>214.9</ele>
        <time>2023-10-16T17:20:19.708Z</time>
      </trkpt>
      <trkpt lat="45.67281159572303" lon="17.725094547495246">
        <ele>214.84</ele>
        <time>2023-10-16T17:20:21.810Z</time>
      </trkpt>
      <trkpt lat="45.672796005383134" lon="17.72507367655635">
        <ele>214.78</ele>
        <time>2023-10-16T17:20:23.913Z</time>
      </trkpt>
      <trkpt lat="45.67278083413839" lon="17.7250537276268">
        <ele>214.71</ele>
        <time>2023-10-16T17:20:26.017Z</time>
      </trkpt>
      <trkpt lat="45.672766249626875" lon="17.725034784525633">
        <ele>214.63</ele>
        <time>2023-10-16T17:20:28.121Z</time>
      </trkpt>
      <trkpt lat="45.672752084210515" lon="17.725016679614782">
        <ele>214.55</ele>
        <time>2023-10-16T17:20:30.226Z</time>
      </trkpt>
      <trkpt lat="45.67273867316544" lon="17.724999664351344">
        <ele>214.46</ele>
        <time>2023-10-16T17:20:32.332Z</time>
      </trkpt>
      <trkpt lat="45.67272584885359" lon="17.724983235821128">
        <ele>214.36</ele>
        <time>2023-10-16T17:20:34.438Z</time>
      </trkpt>
      <trkpt lat="45.67271369509399" lon="17.724966974928975">
        <ele>214.26</ele>
        <time>2023-10-16T17:20:36.545Z</time>
      </trkpt>
      <trkpt lat="45.672702295705676" lon="17.72495063021779">
        <ele>214.15</ele>
        <time>2023-10-16T17:20:38.652Z</time>
      </trkpt>
      <trkpt lat="45.67269190214574" lon="17.724934201687574">
        <ele>214.04</ele>
        <time>2023-10-16T17:20:40.760Z</time>
      </trkpt>
      <trkpt lat="45.67268259823322" lon="17.724917186424136">
        <ele>213.92</ele>
        <time>2023-10-16T17:20:42.868Z</time>
      </trkpt>
      <trkpt lat="45.672674886882305" lon="17.724899081513286">
        <ele>213.79</ele>
        <time>2023-10-16T17:20:44.977Z</time>
      </trkpt>
      <trkpt lat="45.67266918718815" lon="17.72487971931696">
        <ele>213.66</ele>
        <time>2023-10-16T17:20:47.086Z</time>
      </trkpt>
      <trkpt lat="45.67266524769366" lon="17.72485918365419">
        <ele>213.52</ele>
        <time>2023-10-16T17:20:49.196Z</time>
      </trkpt>
      <trkpt lat="45.67266340367496" lon="17.724837390705943">
        <ele>213.37</ele>
        <time>2023-10-16T17:20:51.306Z</time>
      </trkpt>
      <trkpt lat="45.67266382277012" lon="17.724814508110285">
        <ele>213.22</ele>
        <time>2023-10-16T17:20:53.417Z</time>
      </trkpt>
      <trkpt lat="45.672666504979134" lon="17.72479078732431">
        <ele>213.07</ele>
        <time>2023-10-16T17:20:55.528Z</time>
      </trkpt>
      <trkpt lat="45.672671450302005" lon="17.724766479805112">
        <ele>212.91</ele>
        <time>2023-10-16T17:20:57.640Z</time>
      </trkpt>
      <trkpt lat="45.67267916165292" lon="17.724742256104946">
        <ele>212.75</ele>
        <time>2023-10-16T17:20:59.753Z</time>
      </trkpt>
      <trkpt lat="45.672689471393824" lon="17.724718283861876">
        <ele>212.59</ele>
        <time>2023-10-16T17:21:01.866Z</time>
      </trkpt>
      <trkpt lat="45.672702211886644" lon="17.724694730713964">
        <ele>212.41</ele>
        <time>2023-10-16T17:21:03.980Z</time>
      </trkpt>
      <trkpt lat="45.67271721549332" lon="17.724671764299273">
        <ele>212.24</ele>
        <time>2023-10-16T17:21:06.095Z</time>
      </trkpt>
      <trkpt lat="45.67273414693773" lon="17.724649300798774">
        <ele>212.06</ele>
        <time>2023-10-16T17:21:08.211Z</time>
      </trkpt>
      <trkpt lat="45.672752587124705" lon="17.724627340212464">
        <ele>211.88</ele>
        <time>2023-10-16T17:21:10.327Z</time>
      </trkpt>
      <trkpt lat="45.67277245223522" lon="17.72460554726422">
        <ele>211.7</ele>
        <time>2023-10-16T17:21:12.444Z</time>
      </trkpt>
      <trkpt lat="45.67279349081218" lon="17.724584005773067">
        <ele>211.51</ele>
        <time>2023-10-16T17:21:14.562Z</time>
      </trkpt>
      <trkpt lat="45.672815535217524" lon="17.724562464281917">
        <ele>211.32</ele>
        <time>2023-10-16T17:21:16.681Z</time>
      </trkpt>
      <trkpt lat="45.67283866927028" lon="17.724541258066893">
        <ele>211.12</ele>
        <time>2023-10-16T17:21:18.801Z</time>
      </trkpt>
      <trkpt lat="45.672862473875284" lon="17.724520219489932">
        <ele>210.92</ele>
        <time>2023-10-16T17:21:20.922Z</time>
      </trkpt>
      <trkpt lat="45.67288652993739" lon="17.724499683827162">
        <ele>210.72</ele>
        <time>2023-10-16T17:21:23.044Z</time>
      </trkpt>
      <trkpt lat="45.67291058599949" lon="17.724479399621487">
        <ele>210.51</ele>
        <time>2023-10-16T17:21:25.167Z</time>
      </trkpt>
      <trkpt lat="45.67293447442353" lon="17.724459618330002">
        <ele>210.3</ele>
        <time>2023-10-16T17:21:27.291Z</time>
      </trkpt>
      <trkpt lat="45.67295811139047" lon="17.724440256133676">
        <ele>210.1</ele>
        <time>2023-10-16T17:21:29.415Z</time>
      </trkpt>
      <trkpt lat="45.67298116162419" lon="17.724421648308635">
        <ele>209.89</ele>
        <time>2023-10-16T17:21:31.540Z</time>
      </trkpt>
      <trkpt lat="45.673003708943725" lon="17.724403459578753">
        <ele>209.68</ele>
        <time>2023-10-16T17:21:33.666Z</time>
      </trkpt>
      <trkpt lat="45.673025753349066" lon="17.724385606124997">
        <ele>209.47</ele>
        <time>2023-10-16T17:21:35.793Z</time>
      </trkpt>
      <trkpt lat="45.67304746247828" lon="17.72436775267124">
        <ele>209.26</ele>
        <time>2023-10-16T17:21:37.921Z</time>
      </trkpt>
      <trkpt lat="45.67306850105524" lon="17.724349899217486">
        <ele>209.06</ele>
        <time>2023-10-16T17:21:40.050Z</time>
      </trkpt>
      <trkpt lat="45.67308886907995" lon="17.724331794306636">
        <ele>208.85</ele>
        <time>2023-10-16T17:21:42.179Z</time>
      </trkpt>
      <trkpt lat="45.67310865037143" lon="17.72431343793869">
        <ele>208.65</ele>
        <time>2023-10-16T17:21:44.309Z</time>
      </trkpt>
      <trkpt lat="45.673128264024854" lon="17.724294494837523">
        <ele>208.44</ele>
        <time>2023-10-16T17:21:46.440Z</time>
      </trkpt>
      <trkpt lat="45.67314762622118" lon="17.724274965003133">
        <ele>208.24</ele>
        <time>2023-10-16T17:21:48.572Z</time>
      </trkpt>
      <trkpt lat="45.67316682077944" lon="17.72425476461649">
        <ele>208.04</ele>
        <time>2023-10-16T17:21:50.705Z</time>
      </trkpt>
      <trkpt lat="45.673186015337706" lon="17.724234145134687">
        <ele>207.85</ele>
        <time>2023-10-16T17:21:52.838Z</time>
      </trkpt>
      <trkpt lat="45.673205293715" lon="17.724213022738695">
        <ele>207.66</ele>
        <time>2023-10-16T17:21:54.972Z</time>
      </trkpt>
      <trkpt lat="45.67322473973036" lon="17.724191565066576">
        <ele>207.48</ele>
        <time>2023-10-16T17:21:57.107Z</time>
      </trkpt>
      <trkpt lat="45.67324443720281" lon="17.724170023575425">
        <ele>207.3</ele>
        <time>2023-10-16T17:21:59.243Z</time>
      </trkpt>
      <trkpt lat="45.673264218494296" lon="17.7241488173604">
        <ele>207.12</ele>
        <time>2023-10-16T17:22:01.380Z</time>
      </trkpt>
      <trkpt lat="45.673284167423844" lon="17.724128030240536">
        <ele>206.95</ele>
        <time>2023-10-16T17:22:03.518Z</time>
      </trkpt>
      <trkpt lat="45.67330461926758" lon="17.72410766221583">
        <ele>206.79</ele>
        <time>2023-10-16T17:22:05.656Z</time>
      </trkpt>
      <trkpt lat="45.67332540638745" lon="17.724087880924344">
        <ele>206.64</ele>
        <time>2023-10-16T17:22:07.795Z</time>
      </trkpt>
      <trkpt lat="45.67334602586925" lon="17.724068937823176">
        <ele>206.49</ele>
        <time>2023-10-16T17:22:09.935Z</time>
      </trkpt>
      <trkpt lat="45.67336656153202" lon="17.724051168188453">
        <ele>206.34</ele>
        <time>2023-10-16T17:22:12.076Z</time>
      </trkpt>
      <trkpt lat="45.673386761918664" lon="17.724034655839205">
        <ele>206.21</ele>
        <time>2023-10-16T17:22:14.218Z</time>
      </trkpt>
      <trkpt lat="45.67340654321015" lon="17.724018897861242">
        <ele>206.09</ele>
        <time>2023-10-16T17:22:16.360Z</time>
      </trkpt>
      <trkpt lat="45.67342531867325" lon="17.724003810435534">
        <ele>205.98</ele>
        <time>2023-10-16T17:22:18.503Z</time>
      </trkpt>
      <trkpt lat="45.67344266921282" lon="17.723988806828856">
        <ele>205.88</ele>
        <time>2023-10-16T17:22:20.647Z</time>
      </trkpt>
      <trkpt lat="45.67345800809562" lon="17.723973216488957">
        <ele>205.78</ele>
        <time>2023-10-16T17:22:22.791Z</time>
      </trkpt>
      <trkpt lat="45.67347066476941" lon="17.72395670413971">
        <ele>205.7</ele>
        <time>2023-10-16T17:22:24.936Z</time>
      </trkpt>
      <trkpt lat="45.67348047159612" lon="17.72393910214305">
        <ele>205.63</ele>
        <time>2023-10-16T17:22:27.081Z</time>
      </trkpt>
      <trkpt lat="45.67348667420447" lon="17.72392049431801">
        <ele>205.56</ele>
        <time>2023-10-16T17:22:29.227Z</time>
      </trkpt>
      <trkpt lat="45.673488937318325" lon="17.723900629207492">
        <ele>205.5</ele>
        <time>2023-10-16T17:22:31.373Z</time>
      </trkpt>
      <trkpt lat="45.673487009480596" lon="17.723879422992468">
        <ele>205.46</ele>
        <time>2023-10-16T17:22:33.520Z</time>
      </trkpt>
      <trkpt lat="45.67348080687225" lon="17.723856959491968">
        <ele>205.42</ele>
        <time>2023-10-16T17:22:35.668Z</time>
      </trkpt>
      <trkpt lat="45.673470329493284" lon="17.72383315488696">
        <ele>205.39</ele>
        <time>2023-10-16T17:22:37.816Z</time>
      </trkpt>
      <trkpt lat="45.67345549352467" lon="17.723808009177446">
        <ele>205.37</ele>
        <time>2023-10-16T17:22:39.965Z</time>
      </trkpt>
      <trkpt lat="45.6734368018806" lon="17.723781941458583">
        <ele>205.37</ele>
        <time>2023-10-16T17:22:42.115Z</time>
      </trkpt>
      <trkpt lat="45.67341484129429" lon="17.72375545464456">
        <ele>205.37</ele>
        <time>2023-10-16T17:22:44.266Z</time>
      </trkpt>
      <trkpt lat="45.67339053377509" lon="17.72372955456376">
        <ele>205.38</ele>
        <time>2023-10-16T17:22:46.418Z</time>
      </trkpt>
      <trkpt lat="45.67336446605623" lon="17.723704325035214">
        <ele>205.4</ele>
        <time>2023-10-16T17:22:48.571Z</time>
      </trkpt>
      <trkpt lat="45.673337476328015" lon="17.723679933696985">
        <ele>205.44</ele>
        <time>2023-10-16T17:22:50.725Z</time>
      </trkpt>
      <trkpt lat="45.67331031896174" lon="17.723656464368105">
        <ele>205.49</ele>
        <time>2023-10-16T17:22:52.880Z</time>
      </trkpt>
      <trkpt lat="45.673283664509654" lon="17.7236342523247">
        <ele>205.54</ele>
        <time>2023-10-16T17:22:55.036Z</time>
      </trkpt>
      <trkpt lat="45.67325793206692" lon="17.72361271083355">
        <ele>205.6</ele>
        <time>2023-10-16T17:22:57.193Z</time>
      </trkpt>
      <trkpt lat="45.67323395982385" lon="17.72359175607562">
        <ele>205.67</ele>
        <time>2023-10-16T17:22:59.351Z</time>
      </trkpt>
      <trkpt lat="45.67321149632335" lon="17.72357222624123">
        <ele>205.75</ele>
        <time>2023-10-16T17:23:01.510Z</time>
      </trkpt>
      <trkpt lat="45.67319121211767" lon="17.72355412133038">
        <ele>205.83</ele>
        <time>2023-10-16T17:23:03.670Z</time>
      </trkpt>
      <trkpt lat="45.67317302338779" lon="17.723537106066942">
        <ele>205.92</ele>
        <time>2023-10-16T17:23:05.830Z</time>
      </trkpt>
      <trkpt lat="45.67315684631467" lon="17.723521264269948">
        <ele>206.01</ele>
        <time>2023-10-16T17:23:07.991Z</time>
      </trkpt>
      <trkpt lat="45.67314259707928" lon="17.72350626066327">
        <ele>206.11</ele>
        <time>2023-10-16T17:23:10.153Z</time>
      </trkpt>
      <trkpt lat="45.67313010804355" lon="17.723491676151752">
        <ele>206.22</ele>
        <time>2023-10-16T17:23:12.315Z</time>
      </trkpt>
      <trkpt lat="45.67311896011233" lon="17.72347742691636">
        <ele>206.33</ele>
        <time>2023-10-16T17:23:14.478Z</time>
      </trkpt>
      <trkpt lat="45.673108734190464" lon="17.723462842404842">
        <ele>206.44</ele>
        <time>2023-10-16T17:23:16.641Z</time>
      </trkpt>
      <trkpt lat="45.67309959791601" lon="17.723447419703007">
        <ele>206.56</ele>
        <time>2023-10-16T17:23:18.805Z</time>
      </trkpt>
      <trkpt lat="45.67309146746993" lon="17.72343149408698">
        <ele>206.68</ele>
        <time>2023-10-16T17:23:20.969Z</time>
      </trkpt>
      <trkpt lat="45.67308417521417" lon="17.7234148979187">
        <ele>206.8</ele>
        <time>2023-10-16T17:23:23.133Z</time>
      </trkpt>
      <trkpt lat="45.673077972605824" lon="17.723396876826882">
        <ele>206.93</ele>
        <time>2023-10-16T17:23:25.298Z</time>
      </trkpt>
      <trkpt lat="45.67307252436876" lon="17.723377011716366">
        <ele>207.06</ele>
        <time>2023-10-16T17:23:27.463Z</time>
      </trkpt>
      <trkpt lat="45.673067746683955" lon="17.723355889320374">
        <ele>207.19</ele>
        <time>2023-10-16T17:23:29.629Z</time>
      </trkpt>
      <trkpt lat="45.67306355573237" lon="17.723333593457937">
        <ele>207.33</ele>
        <time>2023-10-16T17:23:31.795Z</time>
      </trkpt>
      <trkpt lat="45.67305978387594" lon="17.72331020794809">
        <ele>207.48</ele>
        <time>2023-10-16T17:23:33.962Z</time>
      </trkpt>
      <trkpt lat="45.67305592820048" lon="17.723285984247923">
        <ele>207.62</ele>
        <time>2023-10-16T17:23:36.130Z</time>
      </trkpt>
      <trkpt lat="45.673052156344056" lon="17.723261089995503">
        <ele>207.76</ele>
        <time>2023-10-16T17:23:38.298Z</time>
      </trkpt>
      <trkpt lat="45.673048635944724" lon="17.723236279562116">
        <ele>207.91</ele>
        <time>2023-10-16T17:23:40.467Z</time>
      </trkpt>
      <trkpt lat="45.67304503172636" lon="17.723211720585823">
        <ele>208.06</ele>
        <time>2023-10-16T17:23:42.636Z</time>
      </trkpt>
      <trkpt lat="45.67304125986993" lon="17.72318758070469">
        <ele>208.21</ele>
        <time>2023-10-16T17:23:44.806Z</time>
      </trkpt>
      <trkpt lat="45.67303732037544" lon="17.723164027556777">
        <ele>208.36</ele>
        <time>2023-10-16T17:23:46.977Z</time>
      </trkpt>
      <trkpt lat="45.67303312942386" lon="17.723140977323055">
        <ele>208.51</ele>
        <time>2023-10-16T17:23:49.148Z</time>
      </trkpt>
      <trkpt lat="45.67302885465324" lon="17.723118932917714">
        <ele>208.65</ele>
        <time>2023-10-16T17:23:51.320Z</time>
      </trkpt>
      <trkpt lat="45.67302449606359" lon="17.723097894340754">
        <ele>208.8</ele>
        <time>2023-10-16T17:23:53.492Z</time>
      </trkpt>
      <trkpt lat="45.673020388931036" lon="17.723077777773142">
        <ele>208.94</ele>
        <time>2023-10-16T17:23:55.665Z</time>
      </trkpt>
      <trkpt lat="45.67301661707461" lon="17.723058415576816">
        <ele>209.08</ele>
        <time>2023-10-16T17:23:57.838Z</time>
      </trkpt>
      <trkpt lat="45.673013431951404" lon="17.723039975389838">
        <ele>209.22</ele>
        <time>2023-10-16T17:24:00.012Z</time>
      </trkpt>
      <trkpt lat="45.67301074974239" lon="17.723022289574146">
        <ele>209.36</ele>
        <time>2023-10-16T17:24:02.186Z</time>
      </trkpt>
      <trkpt lat="45.67300831899047" lon="17.723005274310708">
        <ele>209.5</ele>
        <time>2023-10-16T17:24:04.360Z</time>
      </trkpt>
      <trkpt lat="45.67300597205758" lon="17.72298867814243">
        <ele>209.63</ele>
        <time>2023-10-16T17:24:06.535Z</time>
      </trkpt>
      <trkpt lat="45.67300362512469" lon="17.722972501069307">
        <ele>209.76</ele>
        <time>2023-10-16T17:24:08.710Z</time>
      </trkpt>
      <trkpt lat="45.67300102673471" lon="17.722956407815218">
        <ele>209.89</ele>
        <time>2023-10-16T17:24:10.886Z</time>
      </trkpt>
      <trkpt lat="45.67299842834473" lon="17.722940566018224">
        <ele>210.02</ele>
        <time>2023-10-16T17:24:13.062Z</time>
      </trkpt>
      <trkpt lat="45.67299557849765" lon="17.722924388945103">
        <ele>210.14</ele>
        <time>2023-10-16T17:24:15.238Z</time>
      </trkpt>
      <trkpt lat="45.67299256101251" lon="17.72290812805295">
        <ele>210.26</ele>
        <time>2023-10-16T17:24:17.415Z</time>
      </trkpt>
      <trkpt lat="45.67298945970833" lon="17.72289144806564">
        <ele>210.37</ele>
        <time>2023-10-16T17:24:19.592Z</time>
      </trkpt>
      <trkpt lat="45.672986190766096" lon="17.722874265164137">
        <ele>210.49</ele>
        <time>2023-10-16T17:24:21.770Z</time>
      </trkpt>
      <trkpt lat="45.67298258654773" lon="17.722856495529413">
        <ele>210.59</ele>
        <time>2023-10-16T17:24:23.948Z</time>
      </trkpt>
      <trkpt lat="45.67297898232937" lon="17.7228382229805">
        <ele>210.69</ele>
        <time>2023-10-16T17:24:26.126Z</time>
      </trkpt>
      <trkpt lat="45.67297529429197" lon="17.722819447517395">
        <ele>210.79</ele>
        <time>2023-10-16T17:24:28.305Z</time>
      </trkpt>
      <trkpt lat="45.67297160625458" lon="17.722800252959132">
        <ele>210.88</ele>
        <time>2023-10-16T17:24:30.484Z</time>
      </trkpt>
      <trkpt lat="45.67296791821718" lon="17.72278063930571">
        <ele>210.96</ele>
        <time>2023-10-16T17:24:32.664Z</time>
      </trkpt>
      <trkpt lat="45.67296431399882" lon="17.722760774195194">
        <ele>211.04</ele>
        <time>2023-10-16T17:24:34.844Z</time>
      </trkpt>
      <trkpt lat="45.67296062596142" lon="17.722740238532424">
        <ele>211.11</ele>
        <time>2023-10-16T17:24:37.025Z</time>
      </trkpt>
      <trkpt lat="45.672956770285964" lon="17.722719367593527">
        <ele>211.18</ele>
        <time>2023-10-16T17:24:39.206Z</time>
      </trkpt>
      <trkpt lat="45.672952914610505" lon="17.722697742283344">
        <ele>211.24</ele>
        <time>2023-10-16T17:24:41.388Z</time>
      </trkpt>
      <trkpt lat="45.672948975116014" lon="17.722675278782845">
        <ele>211.3</ele>
        <time>2023-10-16T17:24:43.570Z</time>
      </trkpt>
      <trkpt lat="45.6729447003454" lon="17.722651977092028">
        <ele>211.34</ele>
        <time>2023-10-16T17:24:45.753Z</time>
      </trkpt>
      <trkpt lat="45.67294042557478" lon="17.7226275857538">
        <ele>211.39</ele>
        <time>2023-10-16T17:24:47.937Z</time>
      </trkpt>
      <trkpt lat="45.67293589934707" lon="17.722601685673">
        <ele>211.42</ele>
        <time>2023-10-16T17:24:50.121Z</time>
      </trkpt>
      <trkpt lat="45.67293128930032" lon="17.722574193030596">
        <ele>211.46</ele>
        <time>2023-10-16T17:24:52.306Z</time>
      </trkpt>
      <trkpt lat="45.67292676307261" lon="17.722545275464654">
        <ele>211.48</ele>
        <time>2023-10-16T17:24:54.491Z</time>
      </trkpt>
      <trkpt lat="45.67292232066393" lon="17.722515016794205">
        <ele>211.5</ele>
        <time>2023-10-16T17:24:56.677Z</time>
      </trkpt>
      <trkpt lat="45.67291787825525" lon="17.722483752295375">
        <ele>211.51</ele>
        <time>2023-10-16T17:24:58.864Z</time>
      </trkpt>
      <trkpt lat="45.672913352027535" lon="17.72245123051107">
        <ele>211.52</ele>
        <time>2023-10-16T17:25:01.052Z</time>
      </trkpt>
      <trkpt lat="45.672908909618855" lon="17.722417702898383">
        <ele>211.52</ele>
        <time>2023-10-16T17:25:03.241Z</time>
      </trkpt>
      <trkpt lat="45.67290429957211" lon="17.72238342091441">
        <ele>211.51</ele>
        <time>2023-10-16T17:25:05.430Z</time>
      </trkpt>
      <trkpt lat="45.672899689525366" lon="17.722348803654313">
        <ele>211.5</ele>
        <time>2023-10-16T17:25:07.620Z</time>
      </trkpt>
      <trkpt lat="45.672895247116685" lon="17.72231401875615">
        <ele>211.47</ele>
        <time>2023-10-16T17:25:09.811Z</time>
      </trkpt>
      <trkpt lat="45.67289097234607" lon="17.722279150038958">
        <ele>211.44</ele>
        <time>2023-10-16T17:25:12.003Z</time>
      </trkpt>
      <trkpt lat="45.67288678139448" lon="17.722244784235954">
        <ele>211.4</ele>
        <time>2023-10-16T17:25:14.196Z</time>
      </trkpt>
      <trkpt lat="45.67288284189999" lon="17.722210753709078">
        <ele>211.36</ele>
        <time>2023-10-16T17:25:16.389Z</time>
      </trkpt>
      <trkpt lat="45.672879070043564" lon="17.72217705845833">
        <ele>211.32</ele>
        <time>2023-10-16T17:25:18.583Z</time>
      </trkpt>
      <trkpt lat="45.67287353798747" lon="17.722142776474357">
        <ele>211.26</ele>
        <time>2023-10-16T17:25:20.778Z</time>
      </trkpt>
      <trkpt lat="45.6728701852262" lon="17.72210975177586">
        <ele>211.2</ele>
        <time>2023-10-16T17:25:22.974Z</time>
      </trkpt>
      <trkpt lat="45.67286775447428" lon="17.722077313810587">
        <ele>211.13</ele>
        <time>2023-10-16T17:25:25.171Z</time>
      </trkpt>
      <trkpt lat="45.672865910455585" lon="17.72204470820725">
        <ele>211.05</ele>
        <time>2023-10-16T17:25:27.368Z</time>
      </trkpt>
      <trkpt lat="45.67286314442754" lon="17.721976982429624">
        <ele>210.96</ele>
        <time>2023-10-16T17:25:29.567Z</time>
      </trkpt>
      <trkpt lat="45.67286163568497" lon="17.72194253280759">
        <ele>210.87</ele>
        <time>2023-10-16T17:25:31.767Z</time>
      </trkpt>
      <trkpt lat="45.67285995930433" lon="17.72190791554749">
        <ele>210.77</ele>
        <time>2023-10-16T17:25:33.968Z</time>
      </trkpt>
      <trkpt lat="45.67285794764757" lon="17.72187313064933">
        <ele>210.67</ele>
        <time>2023-10-16T17:25:36.169Z</time>
      </trkpt>
      <trkpt lat="45.67285551689565" lon="17.721837842836976">
        <ele>210.56</ele>
        <time>2023-10-16T17:25:38.371Z</time>
      </trkpt>
      <trkpt lat="45.67285166122019" lon="17.7217985317111">
        <ele>210.44</ele>
        <time>2023-10-16T17:25:40.574Z</time>
      </trkpt>
      <trkpt lat="45.672847889363766" lon="17.721762908622622">
        <ele>210.31</ele>
        <time>2023-10-16T17:25:42.778Z</time>
      </trkpt>
      <trkpt lat="45.67284386605024" lon="17.72172720171511">
        <ele>210.18</ele>
        <time>2023-10-16T17:25:44.983Z</time>
      </trkpt>
      <trkpt lat="45.67283967509866" lon="17.72169099189341">
        <ele>210.03</ele>
        <time>2023-10-16T17:25:47.189Z</time>
      </trkpt>
      <trkpt lat="45.67283548414707" lon="17.721654446795583">
        <ele>209.89</ele>
        <time>2023-10-16T17:25:49.396Z</time>
      </trkpt>
      <trkpt lat="45.672831293195486" lon="17.721617566421628">
        <ele>209.73</ele>
        <time>2023-10-16T17:25:51.603Z</time>
      </trkpt>
      <trkpt lat="45.67282651551068" lon="17.72158093750477">
        <ele>209.57</ele>
        <time>2023-10-16T17:25:53.811Z</time>
      </trkpt>
      <trkpt lat="45.672822073102" lon="17.721544476225972">
        <ele>209.4</ele>
        <time>2023-10-16T17:25:56.020Z</time>
      </trkpt>
      <trkpt lat="45.67281771451235" lon="17.72150767967105">
        <ele>209.22</ele>
        <time>2023-10-16T17:25:58.230Z</time>
      </trkpt>
      <trkpt lat="45.672813691198826" lon="17.721470799297094">
        <ele>209.04</ele>
        <time>2023-10-16T17:26:00.441Z</time>
      </trkpt>
      <trkpt lat="45.67281008698046" lon="17.721434338018298">
        <ele>208.85</ele>
        <time>2023-10-16T17:26:02.653Z</time>
      </trkpt>
      <trkpt lat="45.67280690185726" lon="17.721398463472724">
        <ele>208.66</ele>
        <time>2023-10-16T17:26:04.866Z</time>
      </trkpt>
      <trkpt lat="45.67280413582921" lon="17.721363175660372">
        <ele>208.46</ele>
        <time>2023-10-16T17:26:07.079Z</time>
      </trkpt>
      <trkpt lat="45.67280178889632" lon="17.721328558400273">
        <ele>208.25</ele>
        <time>2023-10-16T17:26:09.293Z</time>
      </trkpt>
      <trkpt lat="45.67279986105859" lon="17.72129511460662">
        <ele>208.04</ele>
        <time>2023-10-16T17:26:11.508Z</time>
      </trkpt>
      <trkpt lat="45.67279826849699" lon="17.72126284427941">
        <ele>207.82</ele>
        <time>2023-10-16T17:26:13.724Z</time>
      </trkpt>
      <trkpt lat="45.67279667593539" lon="17.721231412142515">
        <ele>207.6</ele>
        <time>2023-10-16T17:26:15.941Z</time>
      </trkpt>
      <trkpt lat="45.67279499955475" lon="17.72120090201497">
        <ele>207.37</ele>
        <time>2023-10-16T17:26:18.158Z</time>
      </trkpt>
      <trkpt lat="45.672793155536056" lon="17.72117097862065">
        <ele>207.14</ele>
        <time>2023-10-16T17:26:20.376Z</time>
      </trkpt>
      <trkpt lat="45.67279106006026" lon="17.721142061054707">
        <ele>206.91</ele>
        <time>2023-10-16T17:26:22.595Z</time>
      </trkpt>
      <trkpt lat="45.672788713127375" lon="17.72111381404102">
        <ele>206.67</ele>
        <time>2023-10-16T17:26:24.814Z</time>
      </trkpt>
      <trkpt lat="45.67278594709933" lon="17.721085147932172">
        <ele>206.43</ele>
        <time>2023-10-16T17:26:27.034Z</time>
      </trkpt>
      <trkpt lat="45.67278259433806" lon="17.721055895090103">
        <ele>206.18</ele>
        <time>2023-10-16T17:26:29.255Z</time>
      </trkpt>
      <trkpt lat="45.672778403386474" lon="17.721026223152876">
        <ele>205.93</ele>
        <time>2023-10-16T17:26:31.476Z</time>
      </trkpt>
      <trkpt lat="45.672773122787476" lon="17.720995964482427">
        <ele>205.68</ele>
        <time>2023-10-16T17:26:33.698Z</time>
      </trkpt>
      <trkpt lat="45.67276650108397" lon="17.720964616164565">
        <ele>205.43</ele>
        <time>2023-10-16T17:26:35.921Z</time>
      </trkpt>
      <trkpt lat="45.67275828681886" lon="17.720932262018323">
        <ele>205.17</ele>
        <time>2023-10-16T17:26:38.145Z</time>
      </trkpt>
      <trkpt lat="45.672748647630215" lon="17.720899237319827">
        <ele>204.91</ele>
        <time>2023-10-16T17:26:40.370Z</time>
      </trkpt>
      <trkpt lat="45.67273766733706" lon="17.720865458250046">
        <ele>204.65</ele>
        <time>2023-10-16T17:26:42.595Z</time>
      </trkpt>
      <trkpt lat="45.67272492684424" lon="17.720830673351884">
        <ele>204.39</ele>
        <time>2023-10-16T17:26:44.821Z</time>
      </trkpt>
      <trkpt lat="45.67271084524691" lon="17.72079521790147">
        <ele>204.12</ele>
        <time>2023-10-16T17:26:47.048Z</time>
      </trkpt>
      <trkpt lat="45.672695422545075" lon="17.72075917571783">
        <ele>203.86</ele>
        <time>2023-10-16T17:26:49.276Z</time>
      </trkpt>
      <trkpt lat="45.67267849110067" lon="17.720723133534193">
        <ele>203.59</ele>
        <time>2023-10-16T17:26:51.505Z</time>
      </trkpt>
      <trkpt lat="45.67266038618982" lon="17.72068734280765">
        <ele>203.32</ele>
        <time>2023-10-16T17:26:53.735Z</time>
      </trkpt>
      <trkpt lat="45.67264144308865" lon="17.720651887357235">
        <ele>203.06</ele>
        <time>2023-10-16T17:26:55.966Z</time>
      </trkpt>
      <trkpt lat="45.6726217456162" lon="17.720616851001978">
        <ele>202.79</ele>
        <time>2023-10-16T17:26:58.198Z</time>
      </trkpt>
      <trkpt lat="45.672601629048586" lon="17.720582569018006">
        <ele>202.52</ele>
        <time>2023-10-16T17:27:00.431Z</time>
      </trkpt>
      <trkpt lat="45.67258117720485" lon="17.72054853849113">
        <ele>202.26</ele>
        <time>2023-10-16T17:27:02.665Z</time>
      </trkpt>
      <trkpt lat="45.672560473904014" lon="17.720514591783285">
        <ele>202.0</ele>
        <time>2023-10-16T17:27:04.901Z</time>
      </trkpt>
      <trkpt lat="45.67253960296512" lon="17.720480728894472">
        <ele>201.73</ele>
        <time>2023-10-16T17:27:07.138Z</time>
      </trkpt>
      <trkpt lat="45.67251915112138" lon="17.72044745273888">
        <ele>201.47</ele>
        <time>2023-10-16T17:27:09.376Z</time>
      </trkpt>
      <trkpt lat="45.67249878309667" lon="17.720414260402322">
        <ele>201.2</ele>
        <time>2023-10-16T17:27:11.615Z</time>
      </trkpt>
      <trkpt lat="45.67247866652906" lon="17.720380816608667">
        <ele>200.94</ele>
        <time>2023-10-16T17:27:13.855Z</time>
      </trkpt>
      <trkpt lat="45.67245913669467" lon="17.720347456634045">
        <ele>200.68</ele>
        <time>2023-10-16T17:27:16.096Z</time>
      </trkpt>
      <trkpt lat="45.67244002595544" lon="17.720313845202327">
        <ele>200.43</ele>
        <time>2023-10-16T17:27:18.338Z</time>
      </trkpt>
      <trkpt lat="45.6724211666733" lon="17.72027939558029">
        <ele>200.18</ele>
        <time>2023-10-16T17:27:20.581Z</time>
      </trkpt>
      <trkpt lat="45.67240255884826" lon="17.720244443044066">
        <ele>199.94</ele>
        <time>2023-10-16T17:27:22.825Z</time>
      </trkpt>
      <trkpt lat="45.67238437011838" lon="17.720209239050746">
        <ele>199.7</ele>
        <time>2023-10-16T17:27:25.070Z</time>
      </trkpt>
      <trkpt lat="45.672366600483656" lon="17.720174118876457">
        <ele>199.46</ele>
        <time>2023-10-16T17:27:27.316Z</time>
      </trkpt>
      <trkpt lat="45.672349417582154" lon="17.720139250159264">
        <ele>199.23</ele>
        <time>2023-10-16T17:27:29.563Z</time>
      </trkpt>
      <trkpt lat="45.67233265377581" lon="17.720104632899165">
        <ele>199.0</ele>
        <time>2023-10-16T17:27:31.811Z</time>
      </trkpt>
      <trkpt lat="45.67231647670269" lon="17.72007018327713">
        <ele>198.77</ele>
        <time>2023-10-16T17:27:34.060Z</time>
      </trkpt>
      <trkpt lat="45.67230097018182" lon="17.72003640420735">
        <ele>198.56</ele>
        <time>2023-10-16T17:27:36.310Z</time>
      </trkpt>
      <trkpt lat="45.67228605039418" lon="17.72000329568982">
        <ele>198.35</ele>
        <time>2023-10-16T17:27:38.561Z</time>
      </trkpt>
      <trkpt lat="45.67227154970169" lon="17.71997094154358">
        <ele>198.15</ele>
        <time>2023-10-16T17:27:40.812Z</time>
      </trkpt>
      <trkpt lat="45.6722573004663" lon="17.719939341768622">
        <ele>197.95</ele>
        <time>2023-10-16T17:27:43.064Z</time>
      </trkpt>
      <trkpt lat="45.672243386507034" lon="17.71990899927914">
        <ele>197.76</ele>
        <time>2023-10-16T17:27:45.317Z</time>
      </trkpt>
      <trkpt lat="45.67222964018583" lon="17.719879914075136">
        <ele>197.58</ele>
        <time>2023-10-16T17:27:47.571Z</time>
      </trkpt>
      <trkpt lat="45.67221597768366" lon="17.719852002337575">
        <ele>197.39</ele>
        <time>2023-10-16T17:27:49.826Z</time>
      </trkpt>
      <trkpt lat="45.672202399000525" lon="17.719825180247426">
        <ele>197.22</ele>
        <time>2023-10-16T17:27:52.082Z</time>
      </trkpt>
      <trkpt lat="45.67218856886029" lon="17.719799280166626">
        <ele>197.05</ele>
        <time>2023-10-16T17:27:54.338Z</time>
      </trkpt>
      <trkpt lat="45.67217465490103" lon="17.71977413445711">
        <ele>196.88</ele>
        <time>2023-10-16T17:27:56.595Z</time>
      </trkpt>
      <trkpt lat="45.672160405665636" lon="17.719749407842755">
        <ele>196.72</ele>
        <time>2023-10-16T17:27:58.853Z</time>
      </trkpt>
      <trkpt lat="45.672145737335086" lon="17.719724932685494">
        <ele>196.57</ele>
        <time>2023-10-16T17:28:01.112Z</time>
      </trkpt>
      <trkpt lat="45.67213064990938" lon="17.719700625166297">
        <ele>196.42</ele>
        <time>2023-10-16T17:28:03.371Z</time>
      </trkpt>
      <trkpt lat="45.67211522720754" lon="17.719676652923226">
        <ele>196.27</ele>
        <time>2023-10-16T17:28:05.631Z</time>
      </trkpt>
      <trkpt lat="45.67209963686764" lon="17.719653267413378">
        <ele>196.13</ele>
        <time>2023-10-16T17:28:07.892Z</time>
      </trkpt>
      <trkpt lat="45.67208387888968" lon="17.719630300998688">
        <ele>196.0</ele>
        <time>2023-10-16T17:28:10.154Z</time>
      </trkpt>
      <trkpt lat="45.67206778563559" lon="17.71960792131722">
        <ele>195.87</ele>
        <time>2023-10-16T17:28:12.416Z</time>
      </trkpt>
      <trkpt lat="45.672051357105374" lon="17.71958587691188">
        <ele>195.74</ele>
        <time>2023-10-16T17:28:14.679Z</time>
      </trkpt>
      <trkpt lat="45.67203459329903" lon="17.719564167782664">
        <ele>195.62</ele>
        <time>2023-10-16T17:28:16.943Z</time>
      </trkpt>
      <trkpt lat="45.67201757803559" lon="17.71954296156764">
        <ele>195.51</ele>
        <time>2023-10-16T17:28:19.208Z</time>
      </trkpt>
      <trkpt lat="45.67200047895312" lon="17.719522174447775">
        <ele>195.4</ele>
        <time>2023-10-16T17:28:21.473Z</time>
      </trkpt>
      <trkpt lat="45.67198321223259" lon="17.719501638785005">
        <ele>195.3</ele>
        <time>2023-10-16T17:28:23.739Z</time>
      </trkpt>
      <trkpt lat="45.67196602933109" lon="17.71948135457933">
        <ele>195.2</ele>
        <time>2023-10-16T17:28:26.006Z</time>
      </trkpt>
      <trkpt lat="45.67194893024862" lon="17.719460986554623">
        <ele>195.1</ele>
        <time>2023-10-16T17:28:28.274Z</time>
      </trkpt>
      <trkpt lat="45.67193199880421" lon="17.719440199434757">
        <ele>195.01</ele>
        <time>2023-10-16T17:28:30.542Z</time>
      </trkpt>
      <trkpt lat="45.67191523499787" lon="17.719418741762638">
        <ele>194.92</ele>
        <time>2023-10-16T17:28:32.811Z</time>
      </trkpt>
      <trkpt lat="45.671898387372494" lon="17.71939585916698">
        <ele>194.84</ele>
        <time>2023-10-16T17:28:35.081Z</time>
      </trkpt>
      <trkpt lat="45.67188145592809" lon="17.719371551647782">
        <ele>194.76</ele>
        <time>2023-10-16T17:28:37.352Z</time>
      </trkpt>
      <trkpt lat="45.67186460830271" lon="17.71934598684311">
        <ele>194.69</ele>
        <time>2023-10-16T17:28:39.624Z</time>
      </trkpt>
      <trkpt lat="45.671847676858306" lon="17.719319248571992">
        <ele>194.62</ele>
        <time>2023-10-16T17:28:41.896Z</time>
      </trkpt>
      <trkpt lat="45.671830493956804" lon="17.71929083392024">
        <ele>194.56</ele>
        <time>2023-10-16T17:28:44.169Z</time>
      </trkpt>
      <trkpt lat="45.671812975779176" lon="17.719261245802045">
        <ele>194.5</ele>
        <time>2023-10-16T17:28:46.443Z</time>
      </trkpt>
      <trkpt lat="45.67179495468736" lon="17.719230484217405">
        <ele>194.44</ele>
        <time>2023-10-16T17:28:48.718Z</time>
      </trkpt>
      <trkpt lat="45.671776765957475" lon="17.719199052080512">
        <ele>194.39</ele>
        <time>2023-10-16T17:28:50.994Z</time>
      </trkpt>
      <trkpt lat="45.67175799049437" lon="17.71916669793427">
        <ele>194.34</ele>
        <time>2023-10-16T17:28:53.271Z</time>
      </trkpt>
      <trkpt lat="45.671738628298044" lon="17.71913350559771">
        <ele>194.29</ele>
        <time>2023-10-16T17:28:55.549Z</time>
      </trkpt>
      <trkpt lat="45.67171884700656" lon="17.71909981034696">
        <ele>194.25</ele>
        <time>2023-10-16T17:28:57.828Z</time>
      </trkpt>
      <trkpt lat="45.67169889807701" lon="17.719066366553307">
        <ele>194.21</ele>
        <time>2023-10-16T17:29:00.108Z</time>
      </trkpt>
      <trkpt lat="45.67167869769037" lon="17.719033090397716">
        <ele>194.18</ele>
        <time>2023-10-16T17:29:02.389Z</time>
      </trkpt>
      <trkpt lat="45.67165841348469" lon="17.719000400975347">
        <ele>194.15</ele>
        <time>2023-10-16T17:29:04.671Z</time>
      </trkpt>
      <trkpt lat="45.67163821309805" lon="17.718968717381358">
        <ele>194.13</ele>
        <time>2023-10-16T17:29:06.954Z</time>
      </trkpt>
      <trkpt lat="45.671618431806564" lon="17.718938710168004">
        <ele>194.11</ele>
        <time>2023-10-16T17:29:09.238Z</time>
      </trkpt>
      <trkpt lat="45.67159906961024" lon="17.718909960240126">
        <ele>194.09</ele>
        <time>2023-10-16T17:29:11.523Z</time>
      </trkpt>
      <trkpt lat="45.67158004269004" lon="17.718882719054818">
        <ele>194.08</ele>
        <time>2023-10-16T17:29:13.809Z</time>
      </trkpt>
      <trkpt lat="45.67156151868403" lon="17.71885690279305">
        <ele>194.07</ele>
        <time>2023-10-16T17:29:16.096Z</time>
      </trkpt>
      <trkpt lat="45.67154358141124" lon="17.71883301436901">
        <ele>194.06</ele>
        <time>2023-10-16T17:29:18.384Z</time>
      </trkpt>
      <trkpt lat="45.67152597941458" lon="17.718810718506575">
        <ele>194.06</ele>
        <time>2023-10-16T17:29:20.672Z</time>
      </trkpt>
      <trkpt lat="45.67150837741792" lon="17.718790182843804">
        <ele>194.06</ele>
        <time>2023-10-16T17:29:22.961Z</time>
      </trkpt>
      <trkpt lat="45.67149077542126" lon="17.71877098828554">
        <ele>194.06</ele>
        <time>2023-10-16T17:29:25.251Z</time>
      </trkpt>
      <trkpt lat="45.6714731734246" lon="17.718753134831786">
        <ele>194.07</ele>
        <time>2023-10-16T17:29:27.542Z</time>
      </trkpt>
      <trkpt lat="45.67145498469472" lon="17.71873570047319">
        <ele>194.07</ele>
        <time>2023-10-16T17:29:29.833Z</time>
      </trkpt>
      <trkpt lat="45.671436209231615" lon="17.71871860139072">
        <ele>194.08</ele>
        <time>2023-10-16T17:29:32.125Z</time>
      </trkpt>
      <trkpt lat="45.67141642794013" lon="17.718702340498567">
        <ele>194.1</ele>
        <time>2023-10-16T17:29:34.418Z</time>
      </trkpt>
      <trkpt lat="45.67139589227736" lon="17.71868742071092">
        <ele>194.11</ele>
        <time>2023-10-16T17:29:36.712Z</time>
      </trkpt>
      <trkpt lat="45.671374099329114" lon="17.71867367438972">
        <ele>194.13</ele>
        <time>2023-10-16T17:29:39.006Z</time>
      </trkpt>
      <trkpt lat="45.67135130055249" lon="17.718661101534963">
        <ele>194.15</ele>
        <time>2023-10-16T17:29:41.301Z</time>
      </trkpt>
      <trkpt lat="45.67132732830942" lon="17.718650121241808">
        <ele>194.17</ele>
        <time>2023-10-16T17:29:43.597Z</time>
      </trkpt>
      <trkpt lat="45.67130201496184" lon="17.718640146777034">
        <ele>194.2</ele>
        <time>2023-10-16T17:29:45.894Z</time>
      </trkpt>
      <trkpt lat="45.67127527669072" lon="17.71863109432161">
        <ele>194.22</ele>
        <time>2023-10-16T17:29:48.192Z</time>
      </trkpt>
      <trkpt lat="45.67124736495316" lon="17.718623550608754">
        <ele>194.25</ele>
        <time>2023-10-16T17:29:50.491Z</time>
      </trkpt>
      <trkpt lat="45.671217776834965" lon="17.718617683276534">
        <ele>194.28</ele>
        <time>2023-10-16T17:29:52.791Z</time>
      </trkpt>
      <trkpt lat="45.67118709906936" lon="17.718614330515265">
        <ele>194.32</ele>
        <time>2023-10-16T17:29:55.092Z</time>
      </trkpt>
      <trkpt lat="45.67115558311343" lon="17.71861357614398">
        <ele>194.35</ele>
        <time>2023-10-16T17:29:57.394Z</time>
      </trkpt>
      <trkpt lat="45.67112356424332" lon="17.718614917248487">
        <ele>194.38</ele>
        <time>2023-10-16T17:29:59.697Z</time>
      </trkpt>
      <trkpt lat="45.67109095863998" lon="17.71861793473363">
        <ele>194.42</ele>
        <time>2023-10-16T17:30:02.001Z</time>
      </trkpt>
      <trkpt lat="45.671058436855674" lon="17.718622209504247">
        <ele>194.46</ele>
        <time>2023-10-16T17:30:04.306Z</time>
      </trkpt>
      <trkpt lat="45.67102566361427" lon="17.718627406284213">
        <ele>194.49</ele>
        <time>2023-10-16T17:30:06.612Z</time>
      </trkpt>
      <trkpt lat="45.67099314182997" lon="17.71863260306418">
        <ele>194.53</ele>
        <time>2023-10-16T17:30:08.919Z</time>
      </trkpt>
      <trkpt lat="45.67096103914082" lon="17.718638638034463">
        <ele>194.57</ele>
        <time>2023-10-16T17:30:11.227Z</time>
      </trkpt>
      <trkpt lat="45.67092969082296" lon="17.718645427376032">
        <ele>194.61</ele>
        <time>2023-10-16T17:30:13.536Z</time>
      </trkpt>
      <trkpt lat="45.67089934833348" lon="17.71865313872695">
        <ele>194.66</ele>
        <time>2023-10-16T17:30:15.846Z</time>
      </trkpt>
      <trkpt lat="45.67087068222463" lon="17.71866143681109">
        <ele>194.7</ele>
        <time>2023-10-16T17:30:18.157Z</time>
      </trkpt>
      <trkpt lat="45.67084327340126" lon="17.71866973489523">
        <ele>194.74</ele>
        <time>2023-10-16T17:30:20.469Z</time>
      </trkpt>
      <trkpt lat="45.67081703804433" lon="17.71867711097002">
        <ele>194.78</ele>
        <time>2023-10-16T17:30:22.782Z</time>
      </trkpt>
      <trkpt lat="45.67079180851579" lon="17.718683229759336">
        <ele>194.82</ele>
        <time>2023-10-16T17:30:25.096Z</time>
      </trkpt>
      <trkpt lat="45.67076783627272" lon="17.718687588348985">
        <ele>194.86</ele>
        <time>2023-10-16T17:30:27.411Z</time>
      </trkpt>
      <trkpt lat="45.6707445345819" lon="17.71869035437703">
        <ele>194.91</ele>
        <time>2023-10-16T17:30:29.727Z</time>
      </trkpt>
      <trkpt lat="45.67072198726237" lon="17.71869177930057">
        <ele>194.96</ele>
        <time>2023-10-16T17:30:32.043Z</time>
      </trkpt>
      <trkpt lat="45.67070011049509" lon="17.718692366033792">
        <ele>195.01</ele>
        <time>2023-10-16T17:30:34.360Z</time>
      </trkpt>
      <trkpt lat="45.670679323375225" lon="17.718692366033792">
        <ele>195.07</ele>
        <time>2023-10-16T17:30:36.678Z</time>
      </trkpt>
      <trkpt lat="45.67065945826471" lon="17.718691946938634">
        <ele>195.13</ele>
        <time>2023-10-16T17:30:38.997Z</time>
      </trkpt>
      <trkpt lat="45.67064009606838" lon="17.718690270558">
        <ele>195.19</ele>
        <time>2023-10-16T17:30:41.316Z</time>
      </trkpt>
      <trkpt lat="45.670621152967215" lon="17.718687504529953">
        <ele>195.25</ele>
        <time>2023-10-16T17:30:43.636Z</time>
      </trkpt>
      <trkpt lat="45.67060321569443" lon="17.718683648854494">
        <ele>195.32</ele>
        <time>2023-10-16T17:30:45.956Z</time>
      </trkpt>
      <trkpt lat="45.67058628425002" lon="17.71867903880775">
        <ele>195.39</ele>
        <time>2023-10-16T17:30:48.277Z</time>
      </trkpt>
      <trkpt lat="45.67056993953884" lon="17.718674344941974">
        <ele>195.47</ele>
        <time>2023-10-16T17:30:50.599Z</time>
      </trkpt>
      <trkpt lat="45.67055434919894" lon="17.718670992180705">
        <ele>195.55</ele>
        <time>2023-10-16T17:30:52.921Z</time>
      </trkpt>
      <trkpt lat="45.670540016144514" lon="17.71866931580007">
        <ele>195.64</ele>
        <time>2023-10-16T17:30:55.244Z</time>
      </trkpt>
      <trkpt lat="45.6705267727375" lon="17.718669651076198">
        <ele>195.72</ele>
        <time>2023-10-16T17:30:57.567Z</time>
      </trkpt>
      <trkpt lat="45.670514199882746" lon="17.718671998009086">
        <ele>195.82</ele>
        <time>2023-10-16T17:30:59.890Z</time>
      </trkpt>
      <trkpt lat="45.67050212994218" lon="17.718675853684545">
        <ele>195.91</ele>
        <time>2023-10-16T17:31:02.214Z</time>
      </trkpt>
      <trkpt lat="45.67049014382064" lon="17.71868054755032">
        <ele>196.01</ele>
        <time>2023-10-16T17:31:04.538Z</time>
      </trkpt>
      <trkpt lat="45.67047815769911" lon="17.718685576692224">
        <ele>196.11</ele>
        <time>2023-10-16T17:31:06.863Z</time>
      </trkpt>
      <trkpt lat="45.670465752482414" lon="17.718689600005746">
        <ele>196.22</ele>
        <time>2023-10-16T17:31:09.188Z</time>
      </trkpt>
      <trkpt lat="45.67045292817056" lon="17.718692030757666">
        <ele>196.33</ele>
        <time>2023-10-16T17:31:11.514Z</time>
      </trkpt>
      <trkpt lat="45.67043960094452" lon="17.718692449852824">
        <ele>196.44</ele>
        <time>2023-10-16T17:31:13.840Z</time>
      </trkpt>
      <trkpt lat="45.67042593844235" lon="17.718690270558">
        <ele>196.56</ele>
        <time>2023-10-16T17:31:16.166Z</time>
      </trkpt>
      <trkpt lat="45.670411605387926" lon="17.718683816492558">
        <ele>196.69</ele>
        <time>2023-10-16T17:31:18.493Z</time>
      </trkpt>
      <trkpt lat="45.67039651796222" lon="17.71867266856134">
        <ele>196.82</ele>
        <time>2023-10-16T17:31:20.821Z</time>
      </trkpt>
      <trkpt lat="45.67038042470813" lon="17.71865665912628">
        <ele>196.95</ele>
        <time>2023-10-16T17:31:23.149Z</time>
      </trkpt>
      <trkpt lat="45.67036357708275" lon="17.718635704368353">
        <ele>197.09</ele>
        <time>2023-10-16T17:31:25.478Z</time>
      </trkpt>
      <trkpt lat="45.670346058905125" lon="17.718609971925616">
        <ele>197.24</ele>
        <time>2023-10-16T17:31:27.808Z</time>
      </trkpt>
      <trkpt lat="45.670327953994274" lon="17.71858038380742">
        <ele>197.39</ele>
        <time>2023-10-16T17:31:30.139Z</time>
      </trkpt>
      <trkpt lat="45.67030909471214" lon="17.718547275289893">
        <ele>197.54</ele>
        <time>2023-10-16T17:31:32.471Z</time>
      </trkpt>
      <trkpt lat="45.67028998397291" lon="17.718512658029795">
        <ele>197.7</ele>
        <time>2023-10-16T17:31:34.804Z</time>
      </trkpt>
      <trkpt lat="45.670270286500454" lon="17.718477454036474">
        <ele>197.86</ele>
        <time>2023-10-16T17:31:37.138Z</time>
      </trkpt>
      <trkpt lat="45.670250253751874" lon="17.718442250043154">
        <ele>198.02</ele>
        <time>2023-10-16T17:31:39.473Z</time>
      </trkpt>
      <trkpt lat="45.67022963427007" lon="17.718407129868865">
        <ele>198.19</ele>
        <time>2023-10-16T17:31:41.809Z</time>
      </trkpt>
      <trkpt lat="45.67020893096924" lon="17.718372847884893">
        <ele>198.37</ele>
        <time>2023-10-16T17:31:44.146Z</time>
      </trkpt>
      <trkpt lat="45.67018814384937" lon="17.71833940409124">
        <ele>198.54</ele>
        <time>2023-10-16T17:31:46.484Z</time>
      </trkpt>
      <trkpt lat="45.67016735672951" lon="17.71830671466887">
        <ele>198.72</ele>
        <time>2023-10-16T17:31:48.823Z</time>
      </trkpt>
      <trkpt lat="45.67014640197158" lon="17.71827444434166">
        <ele>198.9</ele>
        <time>2023-10-16T17:31:51.163Z</time>
      </trkpt>
      <trkpt lat="45.670125279575586" lon="17.718242509290576">
        <ele>199.09</ele>
        <time>2023-10-16T17:31:53.504Z</time>
      </trkpt>
      <trkpt lat="45.670104240998626" lon="17.718210658058524">
        <ele>199.28</ele>
        <time>2023-10-16T17:31:55.846Z</time>
      </trkpt>
      <trkpt lat="45.670083621516824" lon="17.718179058283567">
        <ele>199.47</ele>
        <time>2023-10-16T17:31:58.189Z</time>
      </trkpt>
      <trkpt lat="45.67006308585405" lon="17.71814687177539">
        <ele>199.66</ele>
        <time>2023-10-16T17:32:00.533Z</time>
      </trkpt>
      <trkpt lat="45.67004271782935" lon="17.718114098533988">
        <ele>199.86</ele>
        <time>2023-10-16T17:32:02.878Z</time>
      </trkpt>
      <trkpt lat="45.6700225174427" lon="17.718080570921302">
        <ele>200.06</ele>
        <time>2023-10-16T17:32:05.224Z</time>
      </trkpt>
      <trkpt lat="45.67000265233219" lon="17.718047043308616">
        <ele>200.27</ele>
        <time>2023-10-16T17:32:07.571Z</time>
      </trkpt>
      <trkpt lat="45.6699828710407" lon="17.718013348057866">
        <ele>200.48</ele>
        <time>2023-10-16T17:32:09.919Z</time>
      </trkpt>
      <trkpt lat="45.66996308974922" lon="17.71797990426421">
        <ele>200.68</ele>
        <time>2023-10-16T17:32:12.268Z</time>
      </trkpt>
      <trkpt lat="45.669943476095796" lon="17.71794713102281">
        <ele>200.89</ele>
        <time>2023-10-16T17:32:14.618Z</time>
      </trkpt>
      <trkpt lat="45.66992403008044" lon="17.717915447428823">
        <ele>201.1</ele>
        <time>2023-10-16T17:32:16.969Z</time>
      </trkpt>
      <trkpt lat="45.669904835522175" lon="17.71788510493934">
        <ele>201.31</ele>
        <time>2023-10-16T17:32:19.321Z</time>
      </trkpt>
      <trkpt lat="45.66988597624004" lon="17.71785627119243">
        <ele>201.52</ele>
        <time>2023-10-16T17:32:21.674Z</time>
      </trkpt>
      <trkpt lat="45.66986753605306" lon="17.717829030007124">
        <ele>201.73</ele>
        <time>2023-10-16T17:32:24.028Z</time>
      </trkpt>
      <trkpt lat="45.6698499340564" lon="17.717803716659546">
        <ele>201.94</ele>
        <time>2023-10-16T17:32:26.383Z</time>
      </trkpt>
      <trkpt lat="45.66983291879296" lon="17.717780247330666">
        <ele>202.15</ele>
        <time>2023-10-16T17:32:28.739Z</time>
      </trkpt>
      <trkpt lat="45.66981649026275" lon="17.717758705839515">
        <ele>202.35</ele>
        <time>2023-10-16T17:32:31.095Z</time>
      </trkpt>
      <trkpt lat="45.669800732284784" lon="17.71773892454803">
        <ele>202.56</ele>
        <time>2023-10-16T17:32:33.452Z</time>
      </trkpt>
      <trkpt lat="45.669785644859076" lon="17.717721154913306">
        <ele>202.76</ele>
        <time>2023-10-16T17:32:35.810Z</time>
      </trkpt>
      <trkpt lat="45.669771479442716" lon="17.71770522929728">
        <ele>202.96</ele>
        <time>2023-10-16T17:32:38.168Z</time>
      </trkpt>
      <trkpt lat="45.66975790075958" lon="17.717691315338016">
        <ele>203.16</ele>
        <time>2023-10-16T17:32:40.527Z</time>
      </trkpt>
      <trkpt lat="45.669745076447725" lon="17.717679413035512">
        <ele>203.36</ele>
        <time>2023-10-16T17:32:42.886Z</time>
      </trkpt>
      <trkpt lat="45.66973275505006" lon="17.717668851837516">
        <ele>203.55</ele>
        <time>2023-10-16T17:32:45.246Z</time>
      </trkpt>
      <trkpt lat="45.669720685109496" lon="17.717659631744027">
        <ele>203.74</ele>
        <time>2023-10-16T17:32:47.606Z</time>
      </trkpt>
      <trkpt lat="45.66970878280699" lon="17.71765141747892">
        <ele>203.92</ele>
        <time>2023-10-16T17:32:49.967Z</time>
      </trkpt>
      <trkpt lat="45.66969696432352" lon="17.717643873766065">
        <ele>204.11</ele>
        <time>2023-10-16T17:32:52.328Z</time>
      </trkpt>
      <trkpt lat="45.66968514584005" lon="17.717636581510305">
        <ele>204.29</ele>
        <time>2023-10-16T17:32:54.690Z</time>
      </trkpt>
      <trkpt lat="45.66967349499464" lon="17.717629708349705">
        <ele>204.47</ele>
        <time>2023-10-16T17:32:57.052Z</time>
      </trkpt>
      <trkpt lat="45.669662011787295" lon="17.71762266755104">
        <ele>204.64</ele>
        <time>2023-10-16T17:32:59.414Z</time>
      </trkpt>
      <trkpt lat="45.66965052857995" lon="17.717615459114313">
        <ele>204.81</ele>
        <time>2023-10-16T17:33:01.777Z</time>
      </trkpt>
      <trkpt lat="45.66963862627745" lon="17.717607831582427">
        <ele>204.97</ele>
        <time>2023-10-16T17:33:04.140Z</time>
      </trkpt>
      <trkpt lat="45.669626388698816" lon="17.71759970113635">
        <ele>205.14</ele>
        <time>2023-10-16T17:33:06.504Z</time>
      </trkpt>
      <trkpt lat="45.66961381584406" lon="17.71759131923318">
        <ele>205.29</ele>
        <time>2023-10-16T17:33:08.868Z</time>
      </trkpt>
      <trkpt lat="45.66960107535124" lon="17.71758310496807">
        <ele>205.45</ele>
        <time>2023-10-16T17:33:11.233Z</time>
      </trkpt>
      <trkpt lat="45.66958850249648" lon="17.717575058341026">
        <ele>205.6</ele>
        <time>2023-10-16T17:33:13.598Z</time>
      </trkpt>
      <trkpt lat="45.669576013460755" lon="17.717567514628172">
        <ele>205.74</ele>
        <time>2023-10-16T17:33:15.964Z</time>
      </trkpt>
      <trkpt lat="45.669563775882125" lon="17.717560725286603">
        <ele>205.88</ele>
        <time>2023-10-16T17:33:18.330Z</time>
      </trkpt>
      <trkpt lat="45.669551622122526" lon="17.71755519323051">
        <ele>206.02</ele>
        <time>2023-10-16T17:33:20.696Z</time>
      </trkpt>
      <trkpt lat="45.66953946836293" lon="17.717550918459892">
        <ele>206.15</ele>
        <time>2023-10-16T17:33:23.063Z</time>
      </trkpt>
      <trkpt lat="45.66952748224139" lon="17.717547984793782">
        <ele>206.27</ele>
        <time>2023-10-16T17:33:25.430Z</time>
      </trkpt>
      <trkpt lat="45.669515915215015" lon="17.717546727508307">
        <ele>206.39</ele>
        <time>2023-10-16T17:33:27.798Z</time>
      </trkpt>
      <trkpt lat="45.6695047672838" lon="17.717547146603465">
        <ele>206.51</ele>
        <time>2023-10-16T17:33:30.166Z</time>
      </trkpt>
      <trkpt lat="45.66949403844774" lon="17.717548990622163">
        <ele>206.62</ele>
        <time>2023-10-16T17:33:32.534Z</time>
      </trkpt>
      <trkpt lat="45.66948381252587" lon="17.717552091926336">
        <ele>206.72</ele>
        <time>2023-10-16T17:33:34.903Z</time>
      </trkpt>
      <trkpt lat="45.669473838061094" lon="17.71755619905889">
        <ele>206.82</ele>
        <time>2023-10-16T17:33:37.272Z</time>
      </trkpt>
      <trkpt lat="45.669463612139225" lon="17.71756147965789">
        <ele>206.91</ele>
        <time>2023-10-16T17:33:39.641Z</time>
      </trkpt>
      <trkpt lat="45.66945313476026" lon="17.717567766085267">
        <ele>207.0</ele>
        <time>2023-10-16T17:33:42.011Z</time>
      </trkpt>
      <trkpt lat="45.669442573562264" lon="17.71757480688393">
        <ele>207.09</ele>
        <time>2023-10-16T17:33:44.381Z</time>
      </trkpt>
      <trkpt lat="45.66943226382136" lon="17.717582182958722">
        <ele>207.16</ele>
        <time>2023-10-16T17:33:46.752Z</time>
      </trkpt>
      <trkpt lat="45.669422121718526" lon="17.717589559033513">
        <ele>207.24</ele>
        <time>2023-10-16T17:33:49.123Z</time>
      </trkpt>
      <trkpt lat="45.66941172815859" lon="17.717597102746367">
        <ele>207.31</ele>
        <time>2023-10-16T17:33:51.494Z</time>
      </trkpt>
      <trkpt lat="45.66940141841769" lon="17.71760447882116">
        <ele>207.37</ele>
        <time>2023-10-16T17:33:53.866Z</time>
      </trkpt>
      <trkpt lat="45.66939102485776" lon="17.717611519619823">
        <ele>207.43</ele>
        <time>2023-10-16T17:33:56.238Z</time>
      </trkpt>
      <trkpt lat="45.66938063129783" lon="17.71761822514236">
        <ele>207.48</ele>
        <time>2023-10-16T17:33:58.611Z</time>
      </trkpt>
      <trkpt lat="45.66937007009983" lon="17.717624427750707">
        <ele>207.53</ele>
        <time>2023-10-16T17:34:00.984Z</time>
      </trkpt>
      <trkpt lat="45.6693594250828" lon="17.7176299598068">
        <ele>207.58</ele>
        <time>2023-10-16T17:34:03.357Z</time>
      </trkpt>
      <trkpt lat="45.66934945061803" lon="17.717634653672576">
        <ele>207.62</ele>
        <time>2023-10-16T17:34:05.731Z</time>
      </trkpt>
      <trkpt lat="45.66934006288648" lon="17.7176386769861">
        <ele>207.65</ele>
        <time>2023-10-16T17:34:08.105Z</time>
      </trkpt>
      <trkpt lat="45.66933109425008" lon="17.7176421135664">
        <ele>207.68</ele>
        <time>2023-10-16T17:34:10.479Z</time>
      </trkpt>
      <trkpt lat="45.669322377070785" lon="17.717645466327667">
        <ele>207.71</ele>
        <time>2023-10-16T17:34:12.854Z</time>
      </trkpt>
      <trkpt lat="45.66931391134858" lon="17.717648902907968">
        <ele>207.73</ele>
        <time>2023-10-16T17:34:15.229Z</time>
      </trkpt>
      <trkpt lat="45.66930611617863" lon="17.717652339488268">
        <ele>207.75</ele>
        <time>2023-10-16T17:34:17.604Z</time>
      </trkpt>
      <trkpt lat="45.66929857246578" lon="17.7176558598876">
        <ele>207.76</ele>
        <time>2023-10-16T17:34:19.979Z</time>
      </trkpt>
      <trkpt lat="45.66929136402905" lon="17.717659547924995">
        <ele>207.77</ele>
        <time>2023-10-16T17:34:22.355Z</time>
      </trkpt>
      <trkpt lat="45.66928457468748" lon="17.717663319781423">
        <ele>207.78</ele>
        <time>2023-10-16T17:34:24.731Z</time>
      </trkpt>
      <trkpt lat="45.66927820444107" lon="17.717667259275913">
        <ele>207.78</ele>
        <time>2023-10-16T17:34:27.107Z</time>
      </trkpt>
      <trkpt lat="45.669272001832724" lon="17.717671282589436">
        <ele>207.78</ele>
        <time>2023-10-16T17:34:29.483Z</time>
      </trkpt>
      <trkpt lat="45.66926563158631" lon="17.717675305902958">
        <ele>207.78</ele>
        <time>2023-10-16T17:34:31.860Z</time>
      </trkpt>
      <trkpt lat="45.66925909370184" lon="17.71767932921648">
        <ele>207.77</ele>
        <time>2023-10-16T17:34:34.237Z</time>
      </trkpt>
      <trkpt lat="45.66925230436027" lon="17.717683017253876">
        <ele>207.76</ele>
        <time>2023-10-16T17:34:36.614Z</time>
      </trkpt>
      <trkpt lat="45.66924492828548" lon="17.71768620237708">
        <ele>207.75</ele>
        <time>2023-10-16T17:34:38.991Z</time>
      </trkpt>
      <trkpt lat="45.6692370492965" lon="17.71768854930997">
        <ele>207.73</ele>
        <time>2023-10-16T17:34:41.369Z</time>
      </trkpt>
      <trkpt lat="45.66922824829817" lon="17.717689890414476">
        <ele>207.72</ele>
        <time>2023-10-16T17:34:43.747Z</time>
      </trkpt>
      <trkpt lat="45.66921869292855" lon="17.71769005805254">
        <ele>207.7</ele>
        <time>2023-10-16T17:34:46.125Z</time>
      </trkpt>
      <trkpt lat="45.66920829936862" lon="17.717688800767064">
        <ele>207.67</ele>
        <time>2023-10-16T17:34:48.504Z</time>
      </trkpt>
      <trkpt lat="45.66919706761837" lon="17.71768611855805">
        <ele>207.65</ele>
        <time>2023-10-16T17:34:50.883Z</time>
      </trkpt>
      <trkpt lat="45.66918516531587" lon="17.717682095244527">
        <ele>207.62</ele>
        <time>2023-10-16T17:34:53.262Z</time>
      </trkpt>
      <trkpt lat="45.66917250864208" lon="17.717676730826497">
        <ele>207.59</ele>
        <time>2023-10-16T17:34:55.642Z</time>
      </trkpt>
      <trkpt lat="45.6691593490541" lon="17.717669941484928">
        <ele>207.56</ele>
        <time>2023-10-16T17:34:58.022Z</time>
      </trkpt>
      <trkpt lat="45.66914568655193" lon="17.71766172721982">
        <ele>207.53</ele>
        <time>2023-10-16T17:35:00.403Z</time>
      </trkpt>
      <trkpt lat="45.66913168877363" lon="17.71765192039311">
        <ele>207.5</ele>
        <time>2023-10-16T17:35:02.784Z</time>
      </trkpt>
      <trkpt lat="45.66911735571921" lon="17.717640604823828">
        <ele>207.46</ele>
        <time>2023-10-16T17:35:05.166Z</time>
      </trkpt>
      <trkpt lat="45.669102938845754" lon="17.717627612873912">
        <ele>207.43</ele>
        <time>2023-10-16T17:35:07.548Z</time>
      </trkpt>
      <trkpt lat="45.6690882705152" lon="17.71761294454336">
        <ele>207.39</ele>
        <time>2023-10-16T17:35:09.931Z</time>
      </trkpt>
      <trkpt lat="45.66907360218465" lon="17.71759676747024">
        <ele>207.36</ele>
        <time>2023-10-16T17:35:12.315Z</time>
      </trkpt>
      <trkpt lat="45.669058514758945" lon="17.717578914016485">
        <ele>207.32</ele>
        <time>2023-10-16T17:35:14.699Z</time>
      </trkpt>
      <trkpt lat="45.669043343514204" lon="17.717559468001127">
        <ele>207.29</ele>
        <time>2023-10-16T17:35:17.084Z</time>
      </trkpt>
      <trkpt lat="45.66902792081237" lon="17.717538848519325">
        <ele>207.25</ele>
        <time>2023-10-16T17:35:19.470Z</time>
      </trkpt>
      <trkpt lat="45.66901233047247" lon="17.717517223209143">
        <ele>207.22</ele>
        <time>2023-10-16T17:35:21.856Z</time>
      </trkpt>
      <trkpt lat="45.668996488675475" lon="17.717494759708643">
        <ele>207.18</ele>
        <time>2023-10-16T17:35:24.243Z</time>
      </trkpt>
      <trkpt lat="45.66898022778332" lon="17.717471541836858">
        <ele>207.15</ele>
        <time>2023-10-16T17:35:26.631Z</time>
      </trkpt>
      <trkpt lat="45.66896346397698" lon="17.71744773723185">
        <ele>207.12</ele>
        <time>2023-10-16T17:35:29.020Z</time>
      </trkpt>
      <trkpt lat="45.66894636489451" lon="17.71742368116975">
        <ele>207.08</ele>
        <time>2023-10-16T17:35:31.409Z</time>
      </trkpt>
      <trkpt lat="45.66892876289785" lon="17.71739928983152">
        <ele>207.05</ele>
        <time>2023-10-16T17:35:33.799Z</time>
      </trkpt>
      <trkpt lat="45.66891074180603" lon="17.71737481467426">
        <ele>207.02</ele>
        <time>2023-10-16T17:35:36.190Z</time>
      </trkpt>
      <trkpt lat="45.668892469257116" lon="17.71735042333603">
        <ele>206.98</ele>
        <time>2023-10-16T17:35:38.582Z</time>
      </trkpt>
      <trkpt lat="45.668874280527234" lon="17.717326367273927">
        <ele>206.95</ele>
        <time>2023-10-16T17:35:40.975Z</time>
      </trkpt>
      <trkpt lat="45.66885609179735" lon="17.71730256266892">
        <ele>206.92</ele>
        <time>2023-10-16T17:35:43.369Z</time>
      </trkpt>
      <trkpt lat="45.668838154524565" lon="17.717278925701976">
        <ele>206.89</ele>
        <time>2023-10-16T17:35:45.763Z</time>
      </trkpt>
      <trkpt lat="45.66882046870887" lon="17.717255540192127">
        <ele>206.86</ele>
        <time>2023-10-16T17:35:48.158Z</time>
      </trkpt>
      <trkpt lat="45.66880311816931" lon="17.71723223850131">
        <ele>206.84</ele>
        <time>2023-10-16T17:35:50.554Z</time>
      </trkpt>
      <trkpt lat="45.66878627054393" lon="17.717209439724684">
        <ele>206.81</ele>
        <time>2023-10-16T17:35:52.951Z</time>
      </trkpt>
      <trkpt lat="45.66877000965178" lon="17.717186892405152">
        <ele>206.79</ele>
        <time>2023-10-16T17:35:55.349Z</time>
      </trkpt>
      <trkpt lat="45.66875400021672" lon="17.717164512723684">
        <ele>206.76</ele>
        <time>2023-10-16T17:35:57.747Z</time>
      </trkpt>
      <trkpt lat="45.66873824223876" lon="17.71714230068028">
        <ele>206.74</ele>
        <time>2023-10-16T17:36:00.146Z</time>
      </trkpt>
      <trkpt lat="45.66872273571789" lon="17.71712034009397">
        <ele>206.73</ele>
        <time>2023-10-16T17:36:02.546Z</time>
      </trkpt>
      <trkpt lat="45.668707145377994" lon="17.717098547145724">
        <ele>206.71</ele>
        <time>2023-10-16T17:36:04.947Z</time>
      </trkpt>
      <trkpt lat="45.66869121976197" lon="17.71707675419748">
        <ele>206.69</ele>
        <time>2023-10-16T17:36:07.348Z</time>
      </trkpt>
      <trkpt lat="45.66867462359369" lon="17.717055128887296">
        <ele>206.68</ele>
        <time>2023-10-16T17:36:09.750Z</time>
      </trkpt>
      <trkpt lat="45.668657440692186" lon="17.717033587396145">
        <ele>206.67</ele>
        <time>2023-10-16T17:36:12.153Z</time>
      </trkpt>
      <trkpt lat="45.66863958723843" lon="17.717012129724026">
        <ele>206.66</ele>
        <time>2023-10-16T17:36:14.557Z</time>
      </trkpt>
      <trkpt lat="45.668620727956295" lon="17.71699033677578">
        <ele>206.66</ele>
        <time>2023-10-16T17:36:16.961Z</time>
      </trkpt>
      <trkpt lat="45.668600695207715" lon="17.71696837618947">
        <ele>206.66</ele>
        <time>2023-10-16T17:36:19.366Z</time>
      </trkpt>
      <trkpt lat="45.668579656630754" lon="17.716946247965097">
        <ele>206.66</ele>
        <time>2023-10-16T17:36:21.772Z</time>
      </trkpt>
      <trkpt lat="45.66855752840638" lon="17.71692386828363">
        <ele>206.66</ele>
        <time>2023-10-16T17:36:24.179Z</time>
      </trkpt>
      <trkpt lat="45.668534226715565" lon="17.716901740059257">
        <ele>206.67</ele>
        <time>2023-10-16T17:36:26.587Z</time>
      </trkpt>
      <trkpt lat="45.6685100030154" lon="17.71687994711101">
        <ele>206.67</ele>
        <time>2023-10-16T17:36:28.996Z</time>
      </trkpt>
      <trkpt lat="45.668484941124916" lon="17.71685848943889">
        <ele>206.68</ele>
        <time>2023-10-16T17:36:31.406Z</time>
      </trkpt>
      <trkpt lat="45.668459543958306" lon="17.716837618499994">
        <ele>206.69</ele>
        <time>2023-10-16T17:36:33.817Z</time>
      </trkpt>
      <trkpt lat="45.668433560058475" lon="17.716816747561097">
        <ele>206.69</ele>
        <time>2023-10-16T17:36:36.229Z</time>
      </trkpt>
      <trkpt lat="45.66840732470155" lon="17.71679545752704">
        <ele>206.7</ele>
        <time>2023-10-16T17:36:38.642Z</time>
      </trkpt>
      <trkpt lat="45.668381256982684" lon="17.716773580759764">
        <ele>206.71</ele>
        <time>2023-10-16T17:36:41.056Z</time>
      </trkpt>
      <trkpt lat="45.668355859816074" lon="17.716751536354423">
        <ele>206.73</ele>
        <time>2023-10-16T17:36:43.471Z</time>
      </trkpt>
      <trkpt lat="45.66833130083978" lon="17.716729156672955">
        <ele>206.74</ele>
        <time>2023-10-16T17:36:45.887Z</time>
      </trkpt>
      <trkpt lat="45.668307999148965" lon="17.71670644171536">
        <ele>206.75</ele>
        <time>2023-10-16T17:36:48.304Z</time>
      </trkpt>
      <trkpt lat="45.66828620620072" lon="17.716683391481638">
        <ele>206.77</ele>
        <time>2023-10-16T17:36:50.722Z</time>
      </trkpt>
      <trkpt lat="45.6682663410902" lon="17.716659754514694">
        <ele>206.78</ele>
        <time>2023-10-16T17:36:53.140Z</time>
      </trkpt>
      <trkpt lat="45.66824831999838" lon="17.7166351955384">
        <ele>206.79</ele>
        <time>2023-10-16T17:36:55.559Z</time>
      </trkpt>
      <trkpt lat="45.668232226744294" lon="17.716609463095665">
        <ele>206.8</ele>
        <time>2023-10-16T17:36:57.979Z</time>
      </trkpt>
      <trkpt lat="45.668218061327934" lon="17.716582641005516">
        <ele>206.82</ele>
        <time>2023-10-16T17:37:00.400Z</time>
      </trkpt>
      <trkpt lat="45.66820573993027" lon="17.716555148363113">
        <ele>206.83</ele>
        <time>2023-10-16T17:37:02.822Z</time>
      </trkpt>
      <trkpt lat="45.66819484345615" lon="17.716526733711362">
        <ele>206.84</ele>
        <time>2023-10-16T17:37:05.244Z</time>
      </trkpt>
      <trkpt lat="45.6681854557246" lon="17.716497648507357">
        <ele>206.85</ele>
        <time>2023-10-16T17:37:07.667Z</time>
      </trkpt>
      <trkpt lat="45.668177576735616" lon="17.71646797657013">
        <ele>206.86</ele>
        <time>2023-10-16T17:37:10.091Z</time>
      </trkpt>
      <trkpt lat="45.668171206489205" lon="17.71643813699484">
        <ele>206.86</ele>
        <time>2023-10-16T17:37:12.516Z</time>
      </trkpt>
      <trkpt lat="45.66816668026149" lon="17.716408548876643">
        <ele>206.87</ele>
        <time>2023-10-16T17:37:14.941Z</time>
      </trkpt>
      <trkpt lat="45.668164417147636" lon="17.716379798948765">
        <ele>206.87</ele>
        <time>2023-10-16T17:37:17.367Z</time>
      </trkpt>
      <trkpt lat="45.66816408187151" lon="17.716352390125394">
        <ele>206.87</ele>
        <time>2023-10-16T17:37:19.794Z</time>
      </trkpt>
      <trkpt lat="45.668165842071176" lon="17.716326573863626">
        <ele>206.87</ele>
        <time>2023-10-16T17:37:22.221Z</time>
      </trkpt>
      <trkpt lat="45.668169781565666" lon="17.71630285307765">
        <ele>206.87</ele>
        <time>2023-10-16T17:37:24.649Z</time>
      </trkpt>
      <trkpt lat="45.66817623563111" lon="17.716281227767467">
        <ele>206.86</ele>
        <time>2023-10-16T17:37:27.077Z</time>
      </trkpt>
      <trkpt lat="45.66818528808653" lon="17.716261697933078">
        <ele>206.85</ele>
        <time>2023-10-16T17:37:29.506Z</time>
      </trkpt>
      <trkpt lat="45.66819677129388" lon="17.71624476648867">
        <ele>206.84</ele>
        <time>2023-10-16T17:37:31.935Z</time>
      </trkpt>
      <trkpt lat="45.66821060143411" lon="17.71623051725328">
        <ele>206.82</ele>
        <time>2023-10-16T17:37:34.365Z</time>
      </trkpt>
      <trkpt lat="45.66822677850723" lon="17.716219034045935">
        <ele>206.79</ele>
        <time>2023-10-16T17:37:36.796Z</time>
      </trkpt>
      <trkpt lat="45.66824488341808" lon="17.716210400685668">
        <ele>206.77</ele>
        <time>2023-10-16T17:37:39.227Z</time>
      </trkpt>
      <trkpt lat="45.6682647485286" lon="17.716204533353448">
        <ele>206.74</ele>
        <time>2023-10-16T17:37:41.659Z</time>
      </trkpt>
      <trkpt lat="45.668285954743624" lon="17.716201012954116">
        <ele>206.7</ele>
        <time>2023-10-16T17:37:44.092Z</time>
      </trkpt>
      <trkpt lat="45.66830841824412" lon="17.71619967184961">
        <ele>206.66</ele>
        <time>2023-10-16T17:37:46.525Z</time>
      </trkpt>
      <trkpt lat="45.66833171993494" lon="17.7162001747638">
        <ele>206.62</ele>
        <time>2023-10-16T17:37:48.959Z</time>
      </trkpt>
      <trkpt lat="45.66835577599704" lon="17.716202102601528">
        <ele>206.57</ele>
        <time>2023-10-16T17:37:51.394Z</time>
      </trkpt>
      <trkpt lat="45.66838041879237" lon="17.71620553918183">
        <ele>206.52</ele>
        <time>2023-10-16T17:37:53.830Z</time>
      </trkpt>
      <trkpt lat="45.668405229225755" lon="17.716210400685668">
        <ele>206.47</ele>
        <time>2023-10-16T17:37:56.267Z</time>
      </trkpt>
      <trkpt lat="45.668430207297206" lon="17.71621635183692">
        <ele>206.4</ele>
        <time>2023-10-16T17:37:58.705Z</time>
      </trkpt>
      <trkpt lat="45.668455101549625" lon="17.71622314117849">
        <ele>206.34</ele>
        <time>2023-10-16T17:38:01.143Z</time>
      </trkpt>
      <trkpt lat="45.66847974434495" lon="17.71623009815812">
        <ele>206.27</ele>
        <time>2023-10-16T17:38:03.582Z</time>
      </trkpt>
      <trkpt lat="45.668503884226084" lon="17.716236552223563">
        <ele>206.19</ele>
        <time>2023-10-16T17:38:06.022Z</time>
      </trkpt>
      <trkpt lat="45.66852701827884" lon="17.716242168098688">
        <ele>206.11</ele>
        <time>2023-10-16T17:38:08.463Z</time>
      </trkpt>
      <trkpt lat="45.66854906268418" lon="17.716246526688337">
        <ele>206.02</ele>
        <time>2023-10-16T17:38:10.905Z</time>
      </trkpt>
      <trkpt lat="45.66857001744211" lon="17.71624962799251">
        <ele>205.93</ele>
        <time>2023-10-16T17:38:13.347Z</time>
      </trkpt>
      <trkpt lat="45.66858979873359" lon="17.716251639649272">
        <ele>205.83</ele>
        <time>2023-10-16T17:38:15.790Z</time>
      </trkpt>
      <trkpt lat="45.668608574196696" lon="17.716252729296684">
        <ele>205.73</ele>
        <time>2023-10-16T17:38:18.234Z</time>
      </trkpt>
      <trkpt lat="45.66862600855529" lon="17.71625306457281">
        <ele>205.62</ele>
        <time>2023-10-16T17:38:20.678Z</time>
      </trkpt>
      <trkpt lat="45.66864260472357" lon="17.716252896934748">
        <ele>205.51</ele>
        <time>2023-10-16T17:38:23.123Z</time>
      </trkpt>
      <trkpt lat="45.66865861415863" lon="17.716252645477653">
        <ele>205.39</ele>
        <time>2023-10-16T17:38:25.568Z</time>
      </trkpt>
      <trkpt lat="45.668674036860466" lon="17.716252394020557">
        <ele>205.26</ele>
        <time>2023-10-16T17:38:28.014Z</time>
      </trkpt>
      <trkpt lat="45.66868887282908" lon="17.716252813115716">
        <ele>205.13</ele>
        <time>2023-10-16T17:38:30.460Z</time>
      </trkpt>
      <trkpt lat="45.6687032058835" lon="17.71625407040119">
        <ele>204.99</ele>
        <time>2023-10-16T17:38:32.907Z</time>
      </trkpt>
      <trkpt lat="45.66871737129986" lon="17.716256165876985">
        <ele>204.85</ele>
        <time>2023-10-16T17:38:35.354Z</time>
      </trkpt>
      <trkpt lat="45.66873128525913" lon="17.71625893190503">
        <ele>204.7</ele>
        <time>2023-10-16T17:38:37.802Z</time>
      </trkpt>
      <trkpt lat="45.66874553449452" lon="17.716262536123395">
        <ele>204.54</ele>
        <time>2023-10-16T17:38:40.250Z</time>
      </trkpt>
      <trkpt lat="45.66876011900604" lon="17.716266559436917">
        <ele>204.38</ele>
        <time>2023-10-16T17:38:42.699Z</time>
      </trkpt>
      <trkpt lat="45.668775122612715" lon="17.716270750388503">
        <ele>204.21</ele>
        <time>2023-10-16T17:38:45.148Z</time>
      </trkpt>
      <trkpt lat="45.668790712952614" lon="17.71627502515912">
        <ele>204.03</ele>
        <time>2023-10-16T17:38:47.598Z</time>
      </trkpt>
      <trkpt lat="45.66880672238767" lon="17.716279048472643">
        <ele>203.85</ele>
        <time>2023-10-16T17:38:50.048Z</time>
      </trkpt>
      <trkpt lat="45.66882323473692" lon="17.716282485052943">
        <ele>203.66</ele>
        <time>2023-10-16T17:38:52.499Z</time>
      </trkpt>
      <trkpt lat="45.66884075291455" lon="17.71628525108099">
        <ele>203.46</ele>
        <time>2023-10-16T17:38:54.950Z</time>
      </trkpt>
      <trkpt lat="45.668859193101525" lon="17.716287011280656">
        <ele>203.25</ele>
        <time>2023-10-16T17:38:57.402Z</time>
      </trkpt>
      <trkpt lat="45.66887847147882" lon="17.716287849470973">
        <ele>203.03</ele>
        <time>2023-10-16T17:38:59.855Z</time>
      </trkpt>
      <trkpt lat="45.66889842040837" lon="17.716287514194846">
        <ele>202.81</ele>
        <time>2023-10-16T17:39:02.308Z</time>
      </trkpt>
      <trkpt lat="45.66891920752823" lon="17.71628625690937">
        <ele>202.58</ele>
        <time>2023-10-16T17:39:04.762Z</time>
      </trkpt>
      <trkpt lat="45.66894066520035" lon="17.716283574700356">
        <ele>202.34</ele>
        <time>2023-10-16T17:39:07.217Z</time>
      </trkpt>
      <trkpt lat="45.66896296106279" lon="17.71627938374877">
        <ele>202.1</ele>
        <time>2023-10-16T17:39:09.672Z</time>
      </trkpt>
      <trkpt lat="45.66898550838232" lon="17.716274186968803">
        <ele>201.84</ele>
        <time>2023-10-16T17:39:12.128Z</time>
      </trkpt>
      <trkpt lat="45.66900839097798" lon="17.71626773290336">
        <ele>201.58</ele>
        <time>2023-10-16T17:39:14.585Z</time>
      </trkpt>
      <trkpt lat="45.66903177648783" lon="17.716259937733412">
        <ele>201.32</ele>
        <time>2023-10-16T17:39:17.043Z</time>
      </trkpt>
      <trkpt lat="45.669055664911866" lon="17.716250885277987">
        <ele>201.04</ele>
        <time>2023-10-16T17:39:19.502Z</time>
      </trkpt>
      <trkpt lat="45.669079972431064" lon="17.716240575537086">
        <ele>200.75</ele>
        <time>2023-10-16T17:39:21.961Z</time>
      </trkpt>
      <trkpt lat="45.66910486668348" lon="17.716228840872645">
        <ele>200.46</ele>
        <time>2023-10-16T17:39:24.421Z</time>
      </trkpt>
      <trkpt lat="45.669130347669125" lon="17.716215597465634">
        <ele>200.15</ele>
        <time>2023-10-16T17:39:26.882Z</time>
      </trkpt>
      <trkpt lat="45.669156750664115" lon="17.71620067767799">
        <ele>199.84</ele>
        <time>2023-10-16T17:39:29.344Z</time>
      </trkpt>
      <trkpt lat="45.66918399184942" lon="17.716184332966805">
        <ele>199.52</ele>
        <time>2023-10-16T17:39:31.807Z</time>
      </trkpt>
      <trkpt lat="45.66921140067279" lon="17.71616698242724">
        <ele>199.19</ele>
        <time>2023-10-16T17:39:34.271Z</time>
      </trkpt>
      <trkpt lat="45.66923906095326" lon="17.716149045154452">
        <ele>198.86</ele>
        <time>2023-10-16T17:39:36.736Z</time>
      </trkpt>
      <trkpt lat="45.66926739178598" lon="17.71613035351038">
        <ele>198.52</ele>
        <time>2023-10-16T17:39:39.202Z</time>
      </trkpt>
      <trkpt lat="45.669296057894826" lon="17.71611132659018">
        <ele>198.17</ele>
        <time>2023-10-16T17:39:41.669Z</time>
      </trkpt>
      <trkpt lat="45.669324891641736" lon="17.716092048212886">
        <ele>197.81</ele>
        <time>2023-10-16T17:39:44.137Z</time>
      </trkpt>
      <trkpt lat="45.66935355775058" lon="17.71607276983559">
        <ele>197.45</ele>
        <time>2023-10-16T17:39:46.606Z</time>
      </trkpt>
      <trkpt lat="45.66938222385943" lon="17.716053491458297">
        <ele>197.08</ele>
        <time>2023-10-16T17:39:49.076Z</time>
      </trkpt>
      <trkpt lat="45.66941055469215" lon="17.716034380719066">
        <ele>196.7</ele>
        <time>2023-10-16T17:39:51.547Z</time>
      </trkpt>
      <trkpt lat="45.669438214972615" lon="17.71601552143693">
        <ele>196.31</ele>
        <time>2023-10-16T17:39:54.019Z</time>
      </trkpt>
      <trkpt lat="45.6694648694247" lon="17.71599750034511">
        <ele>195.91</ele>
        <time>2023-10-16T17:39:56.492Z</time>
      </trkpt>
      <trkpt lat="45.66949060186744" lon="17.715980568900704">
        <ele>195.51</ele>
        <time>2023-10-16T17:39:58.966Z</time>
      </trkpt>
      <trkpt lat="45.66951557993889" lon="17.715964559465647">
        <ele>195.09</ele>
        <time>2023-10-16T17:40:01.441Z</time>
      </trkpt>
      <trkpt lat="45.669539803639054" lon="17.71594955585897">
        <ele>194.67</ele>
        <time>2023-10-16T17:40:03.917Z</time>
      </trkpt>
      <trkpt lat="45.66956293769181" lon="17.715935977175832">
        <ele>194.25</ele>
        <time>2023-10-16T17:40:06.394Z</time>
      </trkpt>
      <trkpt lat="45.66958506591618" lon="17.715923488140106">
        <ele>193.83</ele>
        <time>2023-10-16T17:40:08.872Z</time>
      </trkpt>
      <trkpt lat="45.669606272131205" lon="17.715912172570825">
        <ele>193.39</ele>
        <time>2023-10-16T17:40:11.351Z</time>
      </trkpt>
      <trkpt lat="45.66962689161301" lon="17.715901779010892">
        <ele>192.96</ele>
        <time>2023-10-16T17:40:13.830Z</time>
      </trkpt>
      <trkpt lat="45.66964650526643" lon="17.715892558917403">
        <ele>192.51</ele>
        <time>2023-10-16T17:40:16.310Z</time>
      </trkpt>
      <trkpt lat="45.669665448367596" lon="17.715884260833263">
        <ele>192.06</ele>
        <time>2023-10-16T17:40:18.791Z</time>
      </trkpt>
      <trkpt lat="45.66968372091651" lon="17.715876968577504">
        <ele>191.6</ele>
        <time>2023-10-16T17:40:21.272Z</time>
      </trkpt>
      <trkpt lat="45.66970149055123" lon="17.715870346874">
        <ele>191.14</ele>
        <time>2023-10-16T17:40:23.754Z</time>
      </trkpt>
      <trkpt lat="45.66971934400499" lon="17.71586406044662">
        <ele>190.67</ele>
        <time>2023-10-16T17:40:26.237Z</time>
      </trkpt>
      <trkpt lat="45.66973686218262" lon="17.7158581931144">
        <ele>190.19</ele>
        <time>2023-10-16T17:40:28.720Z</time>
      </trkpt>
      <trkpt lat="45.66975446417928" lon="17.71585240960121">
        <ele>189.71</ele>
        <time>2023-10-16T17:40:31.204Z</time>
      </trkpt>
      <trkpt lat="45.66977231763303" lon="17.71584654226899">
        <ele>189.22</ele>
        <time>2023-10-16T17:40:33.688Z</time>
      </trkpt>
      <trkpt lat="45.66979067400098" lon="17.715840423479676">
        <ele>188.72</ele>
        <time>2023-10-16T17:40:36.173Z</time>
      </trkpt>
      <trkpt lat="45.669809533283114" lon="17.715834053233266">
        <ele>188.22</ele>
        <time>2023-10-16T17:40:38.659Z</time>
      </trkpt>
      <trkpt lat="45.669828560203314" lon="17.715827515348792">
        <ele>187.71</ele>
        <time>2023-10-16T17:40:41.145Z</time>
      </trkpt>
      <trkpt lat="45.66984825767577" lon="17.715820726007223">
        <ele>187.2</ele>
        <time>2023-10-16T17:40:43.632Z</time>
      </trkpt>
      <trkpt lat="45.669868709519506" lon="17.715813517570496">
        <ele>186.68</ele>
        <time>2023-10-16T17:40:46.120Z</time>
      </trkpt>
      <trkpt lat="45.66988991573453" lon="17.71580597385764">
        <ele>186.15</ele>
        <time>2023-10-16T17:40:48.608Z</time>
      </trkpt>
      <trkpt lat="45.6699120439589" lon="17.71579817868769">
        <ele>185.62</ele>
        <time>2023-10-16T17:40:51.097Z</time>
      </trkpt>
      <trkpt lat="45.669934591278434" lon="17.715790132060647">
        <ele>185.09</ele>
        <time>2023-10-16T17:40:53.587Z</time>
      </trkpt>
      <trkpt lat="45.66995772533119" lon="17.715781750157475">
        <ele>184.55</ele>
        <time>2023-10-16T17:40:56.078Z</time>
      </trkpt>
      <trkpt lat="45.6699812784791" lon="17.71577311679721">
        <ele>184.01</ele>
        <time>2023-10-16T17:40:58.570Z</time>
      </trkpt>
      <trkpt lat="45.670005502179265" lon="17.71576381288469">
        <ele>183.46</ele>
        <time>2023-10-16T17:41:01.062Z</time>
      </trkpt>
      <trkpt lat="45.67003006115556" lon="17.71575367078185">
        <ele>182.91</ele>
        <time>2023-10-16T17:41:03.555Z</time>
      </trkpt>
      <trkpt lat="45.670055290684104" lon="17.71574235521257">
        <ele>182.36</ele>
        <time>2023-10-16T17:41:06.049Z</time>
      </trkpt>
      <trkpt lat="45.67008110694587" lon="17.715729949995875">
        <ele>181.8</ele>
        <time>2023-10-16T17:41:08.544Z</time>
      </trkpt>
      <trkpt lat="45.67010725848377" lon="17.715716203674674">
        <ele>181.24</ele>
        <time>2023-10-16T17:41:11.040Z</time>
      </trkpt>
      <trkpt lat="45.67013374529779" lon="17.715701032429934">
        <ele>180.67</ele>
        <time>2023-10-16T17:41:13.537Z</time>
      </trkpt>
      <trkpt lat="45.670160399749875" lon="17.715684100985527">
        <ele>180.1</ele>
        <time>2023-10-16T17:41:16.035Z</time>
      </trkpt>
      <trkpt lat="45.670186718925834" lon="17.715664906427264">
        <ele>179.52</ele>
        <time>2023-10-16T17:41:18.534Z</time>
      </trkpt>
      <trkpt lat="45.67021245136857" lon="17.715643113479018">
        <ele>178.94</ele>
        <time>2023-10-16T17:41:21.034Z</time>
      </trkpt>
      <trkpt lat="45.67023726180196" lon="17.71561880595982">
        <ele>178.36</ele>
        <time>2023-10-16T17:41:23.535Z</time>
      </trkpt>
      <trkpt lat="45.67026073113084" lon="17.71559190005064">
        <ele>177.78</ele>
        <time>2023-10-16T17:41:26.037Z</time>
      </trkpt>
      <trkpt lat="45.67028244026005" lon="17.715562479570508">
        <ele>177.19</ele>
        <time>2023-10-16T17:41:28.540Z</time>
      </trkpt>
      <trkpt lat="45.67030222155154" lon="17.715531047433615">
        <ele>176.61</ele>
        <time>2023-10-16T17:41:31.044Z</time>
      </trkpt>
      <trkpt lat="45.670320158824325" lon="17.71549802273512">
        <ele>176.02</ele>
        <time>2023-10-16T17:41:33.549Z</time>
      </trkpt>
      <trkpt lat="45.67033600062132" lon="17.715463489294052">
        <ele>175.44</ele>
        <time>2023-10-16T17:41:36.055Z</time>
      </trkpt>
      <trkpt lat="45.67034966312349" lon="17.71542778238654">
        <ele>174.85</ele>
        <time>2023-10-16T17:41:38.562Z</time>
      </trkpt>
      <trkpt lat="45.67036139778793" lon="17.715390482917428">
        <ele>174.26</ele>
        <time>2023-10-16T17:41:41.070Z</time>
      </trkpt>
      <trkpt lat="45.67037128843367" lon="17.715352093800902">
        <ele>173.68</ele>
        <time>2023-10-16T17:41:43.579Z</time>
      </trkpt>
      <trkpt lat="45.67037958651781" lon="17.715313201770186">
        <ele>173.09</ele>
        <time>2023-10-16T17:41:46.089Z</time>
      </trkpt>
      <trkpt lat="45.67038687877357" lon="17.715273890644312">
        <ele>172.51</ele>
        <time>2023-10-16T17:41:48.600Z</time>
      </trkpt>
      <trkpt lat="45.67039333283901" lon="17.71523416042328">
        <ele>171.93</ele>
        <time>2023-10-16T17:41:51.111Z</time>
      </trkpt>
      <trkpt lat="45.67039970308542" lon="17.71519409492612">
        <ele>171.35</ele>
        <time>2023-10-16T17:41:53.623Z</time>
      </trkpt>
      <trkpt lat="45.67040632478893" lon="17.715154364705086">
        <ele>170.77</ele>
        <time>2023-10-16T17:41:56.136Z</time>
      </trkpt>
      <trkpt lat="45.67041328176856" lon="17.715114885941148">
        <ele>170.19</ele>
        <time>2023-10-16T17:41:58.650Z</time>
      </trkpt>
      <trkpt lat="45.67042049020529" lon="17.715075658634305">
        <ele>169.62</ele>
        <time>2023-10-16T17:42:01.165Z</time>
      </trkpt>
      <trkpt lat="45.670428201556206" lon="17.71503685042262">
        <ele>169.05</ele>
        <time>2023-10-16T17:42:03.681Z</time>
      </trkpt>
      <trkpt lat="45.67043624818325" lon="17.714998545125127">
        <ele>168.49</ele>
        <time>2023-10-16T17:42:06.198Z</time>
      </trkpt>
      <trkpt lat="45.67044437862933" lon="17.714961329475045">
        <ele>167.94</ele>
        <time>2023-10-16T17:42:08.716Z</time>
      </trkpt>
      <trkpt lat="45.6704525090754" lon="17.71492537111044">
        <ele>167.38</ele>
        <time>2023-10-16T17:42:11.235Z</time>
      </trkpt>
      <trkpt lat="45.67046072334051" lon="17.714890334755182">
        <ele>166.84</ele>
        <time>2023-10-16T17:42:13.755Z</time>
      </trkpt>
      <trkpt lat="45.670468769967556" lon="17.71485647186637">
        <ele>166.29</ele>
        <time>2023-10-16T17:42:16.276Z</time>
      </trkpt>
      <trkpt lat="45.6704768165946" lon="17.71482428535819">
        <ele>165.75</ele>
        <time>2023-10-16T17:42:18.797Z</time>
      </trkpt>
      <trkpt lat="45.67048469558358" lon="17.714793775230646">
        <ele>165.22</ele>
        <time>2023-10-16T17:42:21.319Z</time>
      </trkpt>
      <trkpt lat="45.67049257457256" lon="17.714765025302768">
        <ele>164.7</ele>
        <time>2023-10-16T17:42:23.842Z</time>
      </trkpt>
      <trkpt lat="45.67050078883767" lon="17.714737867936492">
        <ele>164.19</ele>
        <time>2023-10-16T17:42:26.366Z</time>
      </trkpt>
      <trkpt lat="45.670509589836" lon="17.714712638407946">
        <ele>163.68</ele>
        <time>2023-10-16T17:42:28.890Z</time>
      </trkpt>
      <trkpt lat="45.67051897756755" lon="17.71468933671713">
        <ele>163.18</ele>
        <time>2023-10-16T17:42:31.415Z</time>
      </trkpt>
      <trkpt lat="45.67052920348942" lon="17.714668214321136">
        <ele>162.69</ele>
        <time>2023-10-16T17:42:33.941Z</time>
      </trkpt>
      <trkpt lat="45.67054043523967" lon="17.714649355039">
        <ele>162.21</ele>
        <time>2023-10-16T17:42:36.467Z</time>
      </trkpt>
      <trkpt lat="45.670552756637335" lon="17.714632591232657">
        <ele>161.74</ele>
        <time>2023-10-16T17:42:38.994Z</time>
      </trkpt>
      <trkpt lat="45.67056633532047" lon="17.714617839083076">
        <ele>161.27</ele>
        <time>2023-10-16T17:42:41.521Z</time>
      </trkpt>
      <trkpt lat="45.670581087470055" lon="17.714604763314128">
        <ele>160.82</ele>
        <time>2023-10-16T17:42:44.049Z</time>
      </trkpt>
      <trkpt lat="45.67059692926705" lon="17.714592777192593">
        <ele>160.37</ele>
        <time>2023-10-16T17:42:46.577Z</time>
      </trkpt>
      <trkpt lat="45.670613357797265" lon="17.71458146162331">
        <ele>159.93</ele>
        <time>2023-10-16T17:42:49.106Z</time>
      </trkpt>
      <trkpt lat="45.670630037784576" lon="17.714570397511125">
        <ele>159.5</ele>
        <time>2023-10-16T17:42:51.636Z</time>
      </trkpt>
      <trkpt lat="45.67064680159092" lon="17.714559165760875">
        <ele>159.08</ele>
        <time>2023-10-16T17:42:54.166Z</time>
      </trkpt>
      <trkpt lat="45.67066331394017" lon="17.71454717963934">
        <ele>158.67</ele>
        <time>2023-10-16T17:42:56.697Z</time>
      </trkpt>
      <trkpt lat="45.67067923955619" lon="17.714534187689424">
        <ele>158.27</ele>
        <time>2023-10-16T17:42:59.229Z</time>
      </trkpt>
      <trkpt lat="45.670694410800934" lon="17.714519854635">
        <ele>157.88</ele>
        <time>2023-10-16T17:43:01.761Z</time>
      </trkpt>
      <trkpt lat="45.67070882767439" lon="17.714503593742847">
        <ele>157.49</ele>
        <time>2023-10-16T17:43:04.294Z</time>
      </trkpt>
      <trkpt lat="45.67072257399559" lon="17.71448557265103">
        <ele>157.12</ele>
        <time>2023-10-16T17:43:06.827Z</time>
      </trkpt>
      <trkpt lat="45.670735565945506" lon="17.71446612663567">
        <ele>156.77</ele>
        <time>2023-10-16T17:43:09.361Z</time>
      </trkpt>
      <trkpt lat="45.670748222619295" lon="17.714445423334837">
        <ele>156.42</ele>
        <time>2023-10-16T17:43:11.896Z</time>
      </trkpt>
      <trkpt lat="45.67076071165502" lon="17.714423714205623">
        <ele>156.08</ele>
        <time>2023-10-16T17:43:14.431Z</time>
      </trkpt>
      <trkpt lat="45.67077345214784" lon="17.714401250705123">
        <ele>155.76</ele>
        <time>2023-10-16T17:43:16.967Z</time>
      </trkpt>
      <trkpt lat="45.670786360278726" lon="17.714378032833338">
        <ele>155.44</ele>
        <time>2023-10-16T17:43:19.504Z</time>
      </trkpt>
      <trkpt lat="45.67079926840961" lon="17.71435464732349">
        <ele>155.13</ele>
        <time>2023-10-16T17:43:22.041Z</time>
      </trkpt>
      <trkpt lat="45.670812260359526" lon="17.71433126181364">
        <ele>154.83</ele>
        <time>2023-10-16T17:43:24.579Z</time>
      </trkpt>
      <trkpt lat="45.67082609049976" lon="17.71430770866573">
        <ele>154.54</ele>
        <time>2023-10-16T17:43:27.118Z</time>
      </trkpt>
      <trkpt lat="45.67084092646837" lon="17.71428382024169">
        <ele>154.27</ele>
        <time>2023-10-16T17:43:29.657Z</time>
      </trkpt>
      <trkpt lat="45.6708568520844" lon="17.714260099455714">
        <ele>154.0</ele>
        <time>2023-10-16T17:43:32.197Z</time>
      </trkpt>
      <trkpt lat="45.67087369970977" lon="17.714236294850707">
        <ele>153.75</ele>
        <time>2023-10-16T17:43:34.738Z</time>
      </trkpt>
      <trkpt lat="45.670890882611275" lon="17.714212322607636">
        <ele>153.51</ele>
        <time>2023-10-16T17:43:37.280Z</time>
      </trkpt>
      <trkpt lat="45.67090789787471" lon="17.71418801508844">
        <ele>153.28</ele>
        <time>2023-10-16T17:43:39.823Z</time>
      </trkpt>
      <trkpt lat="45.67092441022396" lon="17.714163539931178">
        <ele>153.07</ele>
        <time>2023-10-16T17:43:42.366Z</time>
      </trkpt>
      <trkpt lat="45.67094008438289" lon="17.71413914859295">
        <ele>152.87</ele>
        <time>2023-10-16T17:43:44.910Z</time>
      </trkpt>
      <trkpt lat="45.67095450125635" lon="17.71411484107375">
        <ele>152.68</ele>
        <time>2023-10-16T17:43:47.455Z</time>
      </trkpt>
      <trkpt lat="45.670967660844326" lon="17.714091120287776">
        <ele>152.5</ele>
        <time>2023-10-16T17:43:50.001Z</time>
      </trkpt>
      <trkpt lat="45.670979311689734" lon="17.714067650958896">
        <ele>152.34</ele>
        <time>2023-10-16T17:43:52.547Z</time>
      </trkpt>
      <trkpt lat="45.67098853178322" lon="17.714045103639364">
        <ele>152.19</ele>
        <time>2023-10-16T17:43:55.094Z</time>
      </trkpt>
      <trkpt lat="45.67099523730576" lon="17.71402339451015">
        <ele>152.04</ele>
        <time>2023-10-16T17:43:57.642Z</time>
      </trkpt>
      <trkpt lat="45.67099951207638" lon="17.71400243975222">
        <ele>151.91</ele>
        <time>2023-10-16T17:44:00.190Z</time>
      </trkpt>
      <trkpt lat="45.67100143991411" lon="17.713982239365578">
        <ele>151.79</ele>
        <time>2023-10-16T17:44:02.739Z</time>
      </trkpt>
      <trkpt lat="45.67100118845701" lon="17.713962709531188">
        <ele>151.68</ele>
        <time>2023-10-16T17:44:05.288Z</time>
      </trkpt>
      <trkpt lat="45.670998925343156" lon="17.71394334733486">
        <ele>151.59</ele>
        <time>2023-10-16T17:44:07.837Z</time>
      </trkpt>
      <trkpt lat="45.6709948182106" lon="17.71392423659563">
        <ele>151.51</ele>
        <time>2023-10-16T17:44:10.387Z</time>
      </trkpt>
      <trkpt lat="45.670989118516445" lon="17.7139051258564">
        <ele>151.43</ele>
        <time>2023-10-16T17:44:12.937Z</time>
      </trkpt>
      <trkpt lat="45.67098207771778" lon="17.7138860989362">
        <ele>151.37</ele>
        <time>2023-10-16T17:44:15.488Z</time>
      </trkpt>
      <trkpt lat="45.67097369581461" lon="17.713866150006652">
        <ele>151.32</ele>
        <time>2023-10-16T17:44:18.039Z</time>
      </trkpt>
      <trkpt lat="45.670964643359184" lon="17.713845362886786">
        <ele>151.28</ele>
        <time>2023-10-16T17:44:20.591Z</time>
      </trkpt>
      <trkpt lat="45.67095500417054" lon="17.71382348611951">
        <ele>151.25</ele>
        <time>2023-10-16T17:44:23.144Z</time>
      </trkpt>
      <trkpt lat="45.67094494588673" lon="17.713800435885787">
        <ele>151.23</ele>
        <time>2023-10-16T17:44:25.697Z</time>
      </trkpt>
      <trkpt lat="45.6709343008697" lon="17.71377621218562">
        <ele>151.21</ele>
        <time>2023-10-16T17:44:28.251Z</time>
      </trkpt>
      <trkpt lat="45.67092306911945" lon="17.713751066476107">
        <ele>151.21</ele>
        <time>2023-10-16T17:44:30.806Z</time>
      </trkpt>
      <trkpt lat="45.67091133445501" lon="17.71372525021434">
        <ele>151.21</ele>
        <time>2023-10-16T17:44:33.361Z</time>
      </trkpt>
      <trkpt lat="45.67089934833348" lon="17.71369935013354">
        <ele>151.23</ele>
        <time>2023-10-16T17:44:35.917Z</time>
      </trkpt>
      <trkpt lat="45.670887026935816" lon="17.713672947138548">
        <ele>151.25</ele>
        <time>2023-10-16T17:44:38.474Z</time>
      </trkpt>
      <trkpt lat="45.67087462171912" lon="17.713645789772272">
        <ele>151.28</ele>
        <time>2023-10-16T17:44:41.032Z</time>
      </trkpt>
      <trkpt lat="45.670862048864365" lon="17.713618129491806">
        <ele>151.31</ele>
        <time>2023-10-16T17:44:43.590Z</time>
      </trkpt>
      <trkpt lat="45.67084947600961" lon="17.713589714840055">
        <ele>151.36</ele>
        <time>2023-10-16T17:44:46.149Z</time>
      </trkpt>
      <trkpt lat="45.67083681933582" lon="17.71356062963605">
        <ele>151.41</ele>
        <time>2023-10-16T17:44:48.709Z</time>
      </trkpt>
      <trkpt lat="45.670823995023966" lon="17.713530957698822">
        <ele>151.47</ele>
        <time>2023-10-16T17:44:51.270Z</time>
      </trkpt>
      <trkpt lat="45.67081091925502" lon="17.713500699028373">
        <ele>151.53</ele>
        <time>2023-10-16T17:44:53.832Z</time>
      </trkpt>
      <trkpt lat="45.670797508209944" lon="17.7134698536247">
        <ele>151.6</ele>
        <time>2023-10-16T17:44:56.394Z</time>
      </trkpt>
      <trkpt lat="45.670783929526806" lon="17.713438253849745">
        <ele>151.67</ele>
        <time>2023-10-16T17:44:58.957Z</time>
      </trkpt>
      <trkpt lat="45.670770183205605" lon="17.71340573206544">
        <ele>151.75</ele>
        <time>2023-10-16T17:45:01.521Z</time>
      </trkpt>
      <trkpt lat="45.670756017789245" lon="17.713371785357594">
        <ele>151.83</ele>
        <time>2023-10-16T17:45:04.086Z</time>
      </trkpt>
      <trkpt lat="45.67074176855385" lon="17.713337084278464">
        <ele>151.91</ele>
        <time>2023-10-16T17:45:06.652Z</time>
      </trkpt>
      <trkpt lat="45.67072743549943" lon="17.71330162882805">
        <ele>152.0</ele>
        <time>2023-10-16T17:45:09.219Z</time>
      </trkpt>
      <trkpt lat="45.67071318626404" lon="17.713265419006348">
        <ele>152.09</ele>
        <time>2023-10-16T17:45:11.787Z</time>
      </trkpt>
      <trkpt lat="45.67069910466671" lon="17.713228538632393">
        <ele>152.18</ele>
        <time>2023-10-16T17:45:14.356Z</time>
      </trkpt>
      <trkpt lat="45.670685190707445" lon="17.713191155344248">
        <ele>152.28</ele>
        <time>2023-10-16T17:45:16.926Z</time>
      </trkpt>
      <trkpt lat="45.670671528205276" lon="17.713153520599008">
        <ele>152.38</ele>
        <time>2023-10-16T17:45:19.497Z</time>
      </trkpt>
      <trkpt lat="45.67065820097923" lon="17.713115634396672">
        <ele>152.48</ele>
        <time>2023-10-16T17:45:22.069Z</time>
      </trkpt>
      <trkpt lat="45.67064529284835" lon="17.713077748194337">
        <ele>152.58</ele>
        <time>2023-10-16T17:45:24.642Z</time>
      </trkpt>
      <trkpt lat="45.67063280381262" lon="17.713040113449097">
        <ele>152.68</ele>
        <time>2023-10-16T17:45:27.216Z</time>
      </trkpt>
      <trkpt lat="45.670620733872056" lon="17.713002562522888">
        <ele>152.78</ele>
        <time>2023-10-16T17:45:29.791Z</time>
      </trkpt>
      <trkpt lat="45.67060933448374" lon="17.71296551451087">
        <ele>152.88</ele>
        <time>2023-10-16T17:45:32.367Z</time>
      </trkpt>
      <trkpt lat="45.67059835419059" lon="17.712928550317883">
        <ele>152.98</ele>
        <time>2023-10-16T17:45:34.944Z</time>
      </trkpt>
      <trkpt lat="45.67058762535453" lon="17.712891921401024">
        <ele>153.08</ele>
        <time>2023-10-16T17:45:37.522Z</time>
      </trkpt>
      <trkpt lat="45.67057706415653" lon="17.71285562776029">
        <ele>153.19</ele>
        <time>2023-10-16T17:45:40.101Z</time>
      </trkpt>
      <trkpt lat="45.67056658677757" lon="17.71281983703375">
        <ele>153.29</ele>
        <time>2023-10-16T17:45:42.680Z</time>
      </trkpt>
      <trkpt lat="45.67055594176054" lon="17.712784549221396">
        <ele>153.39</ele>
        <time>2023-10-16T17:45:45.260Z</time>
      </trkpt>
      <trkpt lat="45.67054529674351" lon="17.712749680504203">
        <ele>153.49</ele>
        <time>2023-10-16T17:45:47.841Z</time>
      </trkpt>
      <trkpt lat="45.67053456790745" lon="17.712714979425073">
        <ele>153.59</ele>
        <time>2023-10-16T17:45:50.423Z</time>
      </trkpt>
      <trkpt lat="45.67052383907139" lon="17.71268011070788">
        <ele>153.7</ele>
        <time>2023-10-16T17:45:53.006Z</time>
      </trkpt>
      <trkpt lat="45.67051294259727" lon="17.712645074352622">
        <ele>153.8</ele>
        <time>2023-10-16T17:45:55.590Z</time>
      </trkpt>
      <trkpt lat="45.67050204612315" lon="17.712610037997365">
        <ele>153.9</ele>
        <time>2023-10-16T17:45:58.175Z</time>
      </trkpt>
      <trkpt lat="45.6704908143729" lon="17.712574917823076">
        <ele>153.99</ele>
        <time>2023-10-16T17:46:00.761Z</time>
      </trkpt>
      <trkpt lat="45.670479498803616" lon="17.71253988146782">
        <ele>154.09</ele>
        <time>2023-10-16T17:46:03.348Z</time>
      </trkpt>
      <trkpt lat="45.6704680994153" lon="17.712504845112562">
        <ele>154.19</ele>
        <time>2023-10-16T17:46:05.936Z</time>
      </trkpt>
      <trkpt lat="45.67045670002699" lon="17.71246997639537">
        <ele>154.28</ele>
        <time>2023-10-16T17:46:08.524Z</time>
      </trkpt>
      <trkpt lat="45.67044546827674" lon="17.712435023859143">
        <ele>154.37</ele>
        <time>2023-10-16T17:46:11.113Z</time>
      </trkpt>
      <trkpt lat="45.670434487983584" lon="17.712399987503886">
        <ele>154.46</ele>
        <time>2023-10-16T17:46:13.703Z</time>
      </trkpt>
      <trkpt lat="45.67042359150946" lon="17.71236503496766">
        <ele>154.55</ele>
        <time>2023-10-16T17:46:16.294Z</time>
      </trkpt>
      <trkpt lat="45.67041269503534" lon="17.712330082431436">
        <ele>154.63</ele>
        <time>2023-10-16T17:46:18.886Z</time>
      </trkpt>
      <trkpt lat="45.67040188238025" lon="17.712295213714242">
        <ele>154.71</ele>
        <time>2023-10-16T17:46:21.479Z</time>
      </trkpt>
      <trkpt lat="45.670391069725156" lon="17.712260512635112">
        <ele>154.79</ele>
        <time>2023-10-16T17:46:24.073Z</time>
      </trkpt>
      <trkpt lat="45.67038059234619" lon="17.71222581155598">
        <ele>154.87</ele>
        <time>2023-10-16T17:46:26.668Z</time>
      </trkpt>
      <trkpt lat="45.67037028260529" lon="17.712190691381693">
        <ele>154.94</ele>
        <time>2023-10-16T17:46:29.264Z</time>
      </trkpt>
      <trkpt lat="45.670360308140516" lon="17.712155655026436">
        <ele>155.01</ele>
        <time>2023-10-16T17:46:31.860Z</time>
      </trkpt>
      <trkpt lat="45.67035058513284" lon="17.71212070249021">
        <ele>155.08</ele>
        <time>2023-10-16T17:46:34.457Z</time>
      </trkpt>
      <trkpt lat="45.67034102976322" lon="17.712085749953985">
        <ele>155.14</ele>
        <time>2023-10-16T17:46:37.055Z</time>
      </trkpt>
      <trkpt lat="45.670331474393606" lon="17.71205079741776">
        <ele>155.2</ele>
        <time>2023-10-16T17:46:39.654Z</time>
      </trkpt>
      <trkpt lat="45.67032183520496" lon="17.712015928700566">
        <ele>155.26</ele>
        <time>2023-10-16T17:46:42.254Z</time>
      </trkpt>
      <trkpt lat="45.67031202837825" lon="17.711981059983373">
        <ele>155.31</ele>
        <time>2023-10-16T17:46:44.855Z</time>
      </trkpt>
      <trkpt lat="45.670302137732506" lon="17.711945855990052">
        <ele>155.37</ele>
        <time>2023-10-16T17:46:47.457Z</time>
      </trkpt>
      <trkpt lat="45.670292330905795" lon="17.711910819634795">
        <ele>155.42</ele>
        <time>2023-10-16T17:46:50.060Z</time>
      </trkpt>
      <trkpt lat="45.67028294317424" lon="17.711875783279538">
        <ele>155.46</ele>
        <time>2023-10-16T17:46:52.663Z</time>
      </trkpt>
      <trkpt lat="45.670273723080754" lon="17.711839992552996">
        <ele>155.51</ele>
        <time>2023-10-16T17:46:55.267Z</time>
      </trkpt>
      <trkpt lat="45.670265005901456" lon="17.7118035312742">
        <ele>155.55</ele>
        <time>2023-10-16T17:46:57.872Z</time>
      </trkpt>
      <trkpt lat="45.670256623998284" lon="17.711766231805086">
        <ele>155.59</ele>
        <time>2023-10-16T17:47:00.478Z</time>
      </trkpt>
      <trkpt lat="45.67024866119027" lon="17.71172775886953">
        <ele>155.62</ele>
        <time>2023-10-16T17:47:03.085Z</time>
      </trkpt>
      <trkpt lat="45.670240949839354" lon="17.71168769337237">
        <ele>155.66</ele>
        <time>2023-10-16T17:47:05.693Z</time>
      </trkpt>
      <trkpt lat="45.670233741402626" lon="17.711646370589733">
        <ele>155.69</ele>
        <time>2023-10-16T17:47:08.302Z</time>
      </trkpt>
      <trkpt lat="45.67022711969912" lon="17.71160370670259">
        <ele>155.72</ele>
        <time>2023-10-16T17:47:10.912Z</time>
      </trkpt>
      <trkpt lat="45.67022158764303" lon="17.711559617891908">
        <ele>155.75</ele>
        <time>2023-10-16T17:47:13.523Z</time>
      </trkpt>
      <trkpt lat="45.67021697759628" lon="17.711514523252845">
        <ele>155.78</ele>
        <time>2023-10-16T17:47:16.135Z</time>
      </trkpt>
      <trkpt lat="45.67021345719695" lon="17.711468590423465">
        <ele>155.81</ele>
        <time>2023-10-16T17:47:18.748Z</time>
      </trkpt>
      <trkpt lat="45.670210691168904" lon="17.711422322317958">
        <ele>155.83</ele>
        <time>2023-10-16T17:47:21.362Z</time>
      </trkpt>
      <trkpt lat="45.67020859569311" lon="17.711376221850514">
        <ele>155.86</ele>
        <time>2023-10-16T17:47:23.977Z</time>
      </trkpt>
      <trkpt lat="45.670206751674414" lon="17.711330708116293">
        <ele>155.88</ele>
        <time>2023-10-16T17:47:26.594Z</time>
      </trkpt>
      <trkpt lat="45.670204907655716" lon="17.711286451667547">
        <ele>155.9</ele>
        <time>2023-10-16T17:47:29.212Z</time>
      </trkpt>
      <trkpt lat="45.670202895998955" lon="17.711243703961372">
        <ele>155.92</ele>
        <time>2023-10-16T17:47:31.831Z</time>
      </trkpt>
      <trkpt lat="45.670200968161225" lon="17.7112025488168">
        <ele>155.93</ele>
        <time>2023-10-16T17:47:34.451Z</time>
      </trkpt>
      <trkpt lat="45.67019912414253" lon="17.711163153871894">
        <ele>155.95</ele>
        <time>2023-10-16T17:47:37.071Z</time>
      </trkpt>
      <trkpt lat="45.67019736394286" lon="17.71112526766956">
        <ele>155.97</ele>
        <time>2023-10-16T17:47:39.692Z</time>
      </trkpt>
      <trkpt lat="45.67019568756223" lon="17.711089393123984">
        <ele>155.99</ele>
        <time>2023-10-16T17:47:42.314Z</time>
      </trkpt>
      <trkpt lat="45.67019392736256" lon="17.711054775863886">
        <ele>156.01</ele>
        <time>2023-10-16T17:47:44.937Z</time>
      </trkpt>
      <trkpt lat="45.67019199952483" lon="17.711021415889263">
        <ele>156.03</ele>
        <time>2023-10-16T17:47:47.561Z</time>
      </trkpt>
      <trkpt lat="45.67018998786807" lon="17.71098906174302">
        <ele>156.05</ele>
        <time>2023-10-16T17:47:50.186Z</time>
      </trkpt>
      <trkpt lat="45.67018789239228" lon="17.71095830015838">
        <ele>156.07</ele>
        <time>2023-10-16T17:47:52.811Z</time>
      </trkpt>
      <trkpt lat="45.67018613219261" lon="17.710928712040186">
        <ele>156.09</ele>
        <time>2023-10-16T17:47:55.437Z</time>
      </trkpt>
      <trkpt lat="45.670184874907136" lon="17.710899878293276">
        <ele>156.11</ele>
        <time>2023-10-16T17:47:58.064Z</time>
      </trkpt>
      <trkpt lat="45.67018420435488" lon="17.710871379822493">
        <ele>156.13</ele>
        <time>2023-10-16T17:48:00.691Z</time>
      </trkpt>
      <trkpt lat="45.67018420435488" lon="17.71084288135171">
        <ele>156.15</ele>
        <time>2023-10-16T17:48:03.319Z</time>
      </trkpt>
      <trkpt lat="45.6701850425452" lon="17.710814382880926">
        <ele>156.18</ele>
        <time>2023-10-16T17:48:05.948Z</time>
      </trkpt>
      <trkpt lat="45.670186802744865" lon="17.71078571677208">
        <ele>156.2</ele>
        <time>2023-10-16T17:48:08.577Z</time>
      </trkpt>
      <trkpt lat="45.670189736410975" lon="17.710756799206138">
        <ele>156.22</ele>
        <time>2023-10-16T17:48:11.207Z</time>
      </trkpt>
      <trkpt lat="45.670194095000625" lon="17.710727881640196">
        <ele>156.25</ele>
        <time>2023-10-16T17:48:13.838Z</time>
      </trkpt>
      <trkpt lat="45.67020021378994" lon="17.710698880255222">
        <ele>156.27</ele>
        <time>2023-10-16T17:48:16.469Z</time>
      </trkpt>
      <trkpt lat="45.67020809277892" lon="17.71066987887025">
        <ele>156.3</ele>
        <time>2023-10-16T17:48:19.101Z</time>
      </trkpt>
      <trkpt lat="45.670218067243695" lon="17.710640458390117">
        <ele>156.33</ele>
        <time>2023-10-16T17:48:21.734Z</time>
      </trkpt>
      <trkpt lat="45.67023005336523" lon="17.71061087027192">
        <ele>156.36</ele>
        <time>2023-10-16T17:48:24.368Z</time>
      </trkpt>
      <trkpt lat="45.67024405114353" lon="17.710581365972757">
        <ele>156.39</ele>
        <time>2023-10-16T17:48:27.002Z</time>
      </trkpt>
      <trkpt lat="45.67026022821665" lon="17.710552029311657">
        <ele>156.43</ele>
        <time>2023-10-16T17:48:29.637Z</time>
      </trkpt>
      <trkpt lat="45.670278584584594" lon="17.710523698478937">
        <ele>156.47</ele>
        <time>2023-10-16T17:48:32.273Z</time>
      </trkpt>
      <trkpt lat="45.67029853351414" lon="17.710496289655566">
        <ele>156.51</ele>
        <time>2023-10-16T17:48:34.910Z</time>
      </trkpt>
      <trkpt lat="45.67031990736723" lon="17.710469802841544">
        <ele>156.56</ele>
        <time>2023-10-16T17:48:37.548Z</time>
      </trkpt>
      <trkpt lat="45.670342706143856" lon="17.710443902760744">
        <ele>156.61</ele>
        <time>2023-10-16T17:48:40.187Z</time>
      </trkpt>
      <trkpt lat="45.670366594567895" lon="17.710419176146388">
        <ele>156.66</ele>
        <time>2023-10-16T17:48:42.827Z</time>
      </trkpt>
      <trkpt lat="45.67039132118225" lon="17.710395706817508">
        <ele>156.72</ele>
        <time>2023-10-16T17:48:45.468Z</time>
      </trkpt>
      <trkpt lat="45.67041680216789" lon="17.710373243317008">
        <ele>156.78</ele>
        <time>2023-10-16T17:48:48.110Z</time>
      </trkpt>
      <trkpt lat="45.67044303752482" lon="17.710352120921016">
        <ele>156.84</ele>
        <time>2023-10-16T17:48:50.753Z</time>
      </trkpt>
      <trkpt lat="45.67046985961497" lon="17.710332004353404">
        <ele>156.9</ele>
        <time>2023-10-16T17:48:53.397Z</time>
      </trkpt>
      <trkpt lat="45.67049735225737" lon="17.71031272597611">
        <ele>156.97</ele>
        <time>2023-10-16T17:48:56.042Z</time>
      </trkpt>
      <trkpt lat="45.670524928718805" lon="17.710294369608164">
        <ele>157.04</ele>
        <time>2023-10-16T17:48:58.688Z</time>
      </trkpt>
      <trkpt lat="45.6705529242754" lon="17.71027659997344">
        <ele>157.12</ele>
        <time>2023-10-16T17:49:01.335Z</time>
      </trkpt>
      <trkpt lat="45.67058125510812" lon="17.71025941707194">
        <ele>157.2</ele>
        <time>2023-10-16T17:49:03.983Z</time>
      </trkpt>
      <trkpt lat="45.67060966975987" lon="17.710242737084627">
        <ele>157.28</ele>
        <time>2023-10-16T17:49:06.632Z</time>
      </trkpt>
      <trkpt lat="45.670637832954526" lon="17.71022672764957">
        <ele>157.36</ele>
        <time>2023-10-16T17:49:09.282Z</time>
      </trkpt>
      <trkpt lat="45.67066582851112" lon="17.71021113730967">
        <ele>157.45</ele>
        <time>2023-10-16T17:49:11.933Z</time>
      </trkpt>
      <trkpt lat="45.67069340497255" lon="17.71019546315074">
        <ele>157.54</ele>
        <time>2023-10-16T17:49:14.585Z</time>
      </trkpt>
      <trkpt lat="45.670720394700766" lon="17.710179537534714">
        <ele>157.63</ele>
        <time>2023-10-16T17:49:17.238Z</time>
      </trkpt>
      <trkpt lat="45.67074654623866" lon="17.710163360461593">
        <ele>157.72</ele>
        <time>2023-10-16T17:49:19.892Z</time>
      </trkpt>
      <trkpt lat="45.67077194340527" lon="17.710147015750408">
        <ele>157.81</ele>
        <time>2023-10-16T17:49:22.547Z</time>
      </trkpt>
      <trkpt lat="45.670796586200595" lon="17.71013050340116">
        <ele>157.91</ele>
        <time>2023-10-16T17:49:25.203Z</time>
      </trkpt>
      <trkpt lat="45.67082072608173" lon="17.710114158689976">
        <ele>158.0</ele>
        <time>2023-10-16T17:49:27.860Z</time>
      </trkpt>
      <trkpt lat="45.67084436304867" lon="17.71009831689298">
        <ele>158.1</ele>
        <time>2023-10-16T17:49:30.518Z</time>
      </trkpt>
      <trkpt lat="45.670867916196585" lon="17.710083313286304">
        <ele>158.19</ele>
        <time>2023-10-16T17:49:33.177Z</time>
      </trkpt>
      <trkpt lat="45.6708914693445" lon="17.71006889641285">
        <ele>158.29</ele>
        <time>2023-10-16T17:49:35.836Z</time>
      </trkpt>
      <trkpt lat="45.670915357768536" lon="17.710055401548743">
        <ele>158.4</ele>
        <time>2023-10-16T17:49:38.496Z</time>
      </trkpt>
      <trkpt lat="45.67094000056386" lon="17.710043247789145">
        <ele>158.5</ele>
        <time>2023-10-16T17:49:41.157Z</time>
      </trkpt>
      <trkpt lat="45.6709654815495" lon="17.710032602772117">
        <ele>158.61</ele>
        <time>2023-10-16T17:49:43.819Z</time>
      </trkpt>
      <trkpt lat="45.67099188454449" lon="17.710023801773787">
        <ele>158.72</ele>
        <time>2023-10-16T17:49:46.482Z</time>
      </trkpt>
      <trkpt lat="45.67101904191077" lon="17.71001709625125">
        <ele>158.83</ele>
        <time>2023-10-16T17:49:49.146Z</time>
      </trkpt>
      <trkpt lat="45.671047205105424" lon="17.710012821480632">
        <ele>158.94</ele>
        <time>2023-10-16T17:49:51.811Z</time>
      </trkpt>
      <trkpt lat="45.6710762064904" lon="17.710010558366776">
        <ele>159.05</ele>
        <time>2023-10-16T17:49:54.477Z</time>
      </trkpt>
      <trkpt lat="45.67110562697053" lon="17.710008127614856">
        <ele>159.16</ele>
        <time>2023-10-16T17:49:57.144Z</time>
      </trkpt>
      <trkpt lat="45.671134712174535" lon="17.71000351756811">
        <ele>159.27</ele>
        <time>2023-10-16T17:49:59.812Z</time>
      </trkpt>
      <trkpt lat="45.671162540093064" lon="17.70999513566494">
        <ele>159.37</ele>
        <time>2023-10-16T17:50:02.481Z</time>
      </trkpt>
      <trkpt lat="45.67118869163096" lon="17.70998298190534">
        <ele>159.48</ele>
        <time>2023-10-16T17:50:05.151Z</time>
      </trkpt>
      <trkpt lat="45.671212580055" lon="17.709966218098998">
        <ele>159.59</ele>
        <time>2023-10-16T17:50:07.822Z</time>
      </trkpt>
      <trkpt lat="45.67123412154615" lon="17.70994484424591">
        <ele>159.7</ele>
        <time>2023-10-16T17:50:10.493Z</time>
      </trkpt>
      <trkpt lat="45.67125323228538" lon="17.709919027984142">
        <ele>159.81</ele>
        <time>2023-10-16T17:50:13.165Z</time>
      </trkpt>
      <trkpt lat="45.67127024754882" lon="17.70988910458982">
        <ele>159.92</ele>
        <time>2023-10-16T17:50:15.838Z</time>
      </trkpt>
      <trkpt lat="45.6712849996984" lon="17.70985482260585">
        <ele>160.02</ele>
        <time>2023-10-16T17:50:18.512Z</time>
      </trkpt>
      <trkpt lat="45.67129723727703" lon="17.709816098213196">
        <ele>160.13</ele>
        <time>2023-10-16T17:50:21.187Z</time>
      </trkpt>
      <trkpt lat="45.67130712792277" lon="17.709773182868958">
        <ele>160.23</ele>
        <time>2023-10-16T17:50:23.863Z</time>
      </trkpt>
      <trkpt lat="45.67131483927369" lon="17.70972842350602">
        <ele>160.34</ele>
        <time>2023-10-16T17:50:26.540Z</time>
      </trkpt>
      <trkpt lat="45.6713212095201" lon="17.709683077409863">
        <ele>160.45</ele>
        <time>2023-10-16T17:50:29.218Z</time>
      </trkpt>
      <trkpt lat="45.67132690921426" lon="17.709638653323054">
        <ele>160.56</ele>
        <time>2023-10-16T17:50:31.897Z</time>
      </trkpt>
      <trkpt lat="45.67133244127035" lon="17.70959548652172">
        <ele>160.65</ele>
        <time>2023-10-16T17:50:34.577Z</time>
      </trkpt>
      <trkpt lat="45.671337973326445" lon="17.70955433137715">
        <ele>160.75</ele>
        <time>2023-10-16T17:50:37.258Z</time>
      </trkpt>
      <trkpt lat="45.67134350538254" lon="17.709514684975147">
        <ele>160.85</ele>
        <time>2023-10-16T17:50:39.940Z</time>
      </trkpt>
      <trkpt lat="45.671348702162504" lon="17.70947621203959">
        <ele>160.95</ele>
        <time>2023-10-16T17:50:42.623Z</time>
      </trkpt>
      <trkpt lat="45.671353563666344" lon="17.70943866111338">
        <ele>161.06</ele>
        <time>2023-10-16T17:50:45.307Z</time>
      </trkpt>
      <trkpt lat="45.67135834135115" lon="17.70940186455846">
        <ele>161.16</ele>
        <time>2023-10-16T17:50:47.992Z</time>
      </trkpt>
      <trkpt lat="45.67136303521693" lon="17.70936531946063">
        <ele>161.25</ele>
        <time>2023-10-16T17:50:50.678Z</time>
      </trkpt>
      <trkpt lat="45.671367729082704" lon="17.709329025819898">
        <ele>161.35</ele>
        <time>2023-10-16T17:50:53.365Z</time>
      </trkpt>
      <trkpt lat="45.67137250676751" lon="17.70929298363626">
        <ele>161.44</ele>
        <time>2023-10-16T17:50:56.053Z</time>
      </trkpt>
      <trkpt lat="45.67137736827135" lon="17.709257528185844">
        <ele>161.53</ele>
        <time>2023-10-16T17:50:58.741Z</time>
      </trkpt>
      <trkpt lat="45.67138214595616" lon="17.709222324192524">
        <ele>161.62</ele>
        <time>2023-10-16T17:51:01.430Z</time>
      </trkpt>
      <trkpt lat="45.67138667218387" lon="17.709187287837267">
        <ele>161.71</ele>
        <time>2023-10-16T17:51:04.120Z</time>
      </trkpt>
      <trkpt lat="45.67139094695449" lon="17.709152586758137">
        <ele>161.8</ele>
        <time>2023-10-16T17:51:06.811Z</time>
      </trkpt>
      <trkpt lat="45.67139497026801" lon="17.70911847241223">
        <ele>161.89</ele>
        <time>2023-10-16T17:51:09.503Z</time>
      </trkpt>
      <trkpt lat="45.67139849066734" lon="17.709084609523416">
        <ele>161.97</ele>
        <time>2023-10-16T17:51:12.196Z</time>
      </trkpt>
      <trkpt lat="45.67140167579055" lon="17.709050998091698">
        <ele>162.05</ele>
        <time>2023-10-16T17:51:14.889Z</time>
      </trkpt>
      <trkpt lat="45.67140469327569" lon="17.70901747047901">
        <ele>162.13</ele>
        <time>2023-10-16T17:51:17.583Z</time>
      </trkpt>
      <trkpt lat="45.6714076269418" lon="17.708983942866325">
        <ele>162.21</ele>
        <time>2023-10-16T17:51:20.278Z</time>
      </trkpt>
      <trkpt lat="45.67141064442694" lon="17.70895049907267">
        <ele>162.28</ele>
        <time>2023-10-16T17:51:22.974Z</time>
      </trkpt>
      <trkpt lat="45.671413745731115" lon="17.708917055279016">
        <ele>162.35</ele>
        <time>2023-10-16T17:51:25.670Z</time>
      </trkpt>
      <trkpt lat="45.671417182311416" lon="17.708883611485362">
        <ele>162.41</ele>
        <time>2023-10-16T17:51:28.367Z</time>
      </trkpt>
      <trkpt lat="45.671421037986875" lon="17.708850083872676">
        <ele>162.47</ele>
        <time>2023-10-16T17:51:31.065Z</time>
      </trkpt>
      <trkpt lat="45.671424977481365" lon="17.708816304802895">
        <ele>162.53</ele>
        <time>2023-10-16T17:51:33.764Z</time>
      </trkpt>
      <trkpt lat="45.67142900079489" lon="17.708782274276018">
        <ele>162.59</ele>
        <time>2023-10-16T17:51:36.464Z</time>
      </trkpt>
      <trkpt lat="45.67143294028938" lon="17.70874824374914">
        <ele>162.64</ele>
        <time>2023-10-16T17:51:39.164Z</time>
      </trkpt>
      <trkpt lat="45.67143679596484" lon="17.70871396176517">
        <ele>162.69</ele>
        <time>2023-10-16T17:51:41.865Z</time>
      </trkpt>
      <trkpt lat="45.67144048400223" lon="17.708679428324103">
        <ele>162.74</ele>
        <time>2023-10-16T17:51:44.567Z</time>
      </trkpt>
      <trkpt lat="45.671444004401565" lon="17.708644811064005">
        <ele>162.78</ele>
        <time>2023-10-16T17:51:47.270Z</time>
      </trkpt>
      <trkpt lat="45.6714472733438" lon="17.708610612899065">
        <ele>162.82</ele>
        <time>2023-10-16T17:51:49.974Z</time>
      </trkpt>
      <trkpt lat="45.67145045846701" lon="17.70857624709606">
        <ele>162.85</ele>
        <time>2023-10-16T17:51:52.679Z</time>
      </trkpt>
      <trkpt lat="45.671453308314085" lon="17.70854188129306">
        <ele>162.88</ele>
        <time>2023-10-16T17:51:55.384Z</time>
      </trkpt>
      <trkpt lat="45.67145582288504" lon="17.708507096394897">
        <ele>162.91</ele>
        <time>2023-10-16T17:51:58.090Z</time>
      </trkpt>
      <trkpt lat="45.67145800217986" lon="17.70847264677286">
        <ele>162.94</ele>
        <time>2023-10-16T17:52:00.797Z</time>
      </trkpt>
      <trkpt lat="45.671460181474686" lon="17.708438532426953">
        <ele>162.96</ele>
        <time>2023-10-16T17:52:03.505Z</time>
      </trkpt>
      <trkpt lat="45.671462612226605" lon="17.708404753357172">
        <ele>162.98</ele>
        <time>2023-10-16T17:52:06.214Z</time>
      </trkpt>
      <trkpt lat="45.671465462073684" lon="17.70837097428739">
        <ele>163.0</ele>
        <time>2023-10-16T17:52:08.923Z</time>
      </trkpt>
      <trkpt lat="45.67146906629205" lon="17.708337362855673">
        <ele>163.02</ele>
        <time>2023-10-16T17:52:11.633Z</time>
      </trkpt>
      <trkpt lat="45.67147350870073" lon="17.70830391906202">
        <ele>163.04</ele>
        <time>2023-10-16T17:52:14.344Z</time>
      </trkpt>
      <trkpt lat="45.67147878929973" lon="17.708270559087396">
        <ele>163.05</ele>
        <time>2023-10-16T17:52:17.056Z</time>
      </trkpt>
      <trkpt lat="45.67148490808904" lon="17.708236780017614">
        <ele>163.06</ele>
        <time>2023-10-16T17:52:19.769Z</time>
      </trkpt>
      <trkpt lat="45.671491865068674" lon="17.708203084766865">
        <ele>163.07</ele>
        <time>2023-10-16T17:52:22.482Z</time>
      </trkpt>
      <trkpt lat="45.6714993249625" lon="17.708169305697083">
        <ele>163.08</ele>
        <time>2023-10-16T17:52:25.196Z</time>
      </trkpt>
      <trkpt lat="45.67150745540857" lon="17.708135694265366">
        <ele>163.08</ele>
        <time>2023-10-16T17:52:27.911Z</time>
      </trkpt>
      <trkpt lat="45.67151642404497" lon="17.70810174755752">
        <ele>163.08</ele>
        <time>2023-10-16T17:52:30.627Z</time>
      </trkpt>
      <trkpt lat="45.67152589559555" lon="17.708067381754518">
        <ele>163.08</ele>
        <time>2023-10-16T17:52:33.344Z</time>
      </trkpt>
      <trkpt lat="45.67153578624129" lon="17.70803276449442">
        <ele>163.08</ele>
        <time>2023-10-16T17:52:36.062Z</time>
      </trkpt>
      <trkpt lat="45.6715458445251" lon="17.707998231053352">
        <ele>163.08</ele>
        <time>2023-10-16T17:52:38.781Z</time>
      </trkpt>
      <trkpt lat="45.671555902808905" lon="17.707963613793254">
        <ele>163.07</ele>
        <time>2023-10-16T17:52:41.500Z</time>
      </trkpt>
      <trkpt lat="45.67156579345465" lon="17.707928912714124">
        <ele>163.07</ele>
        <time>2023-10-16T17:52:44.220Z</time>
      </trkpt>
      <trkpt lat="45.67157560028136" lon="17.70789404399693">
        <ele>163.07</ele>
        <time>2023-10-16T17:52:46.941Z</time>
      </trkpt>
      <trkpt lat="45.67158482037485" lon="17.707859510555863">
        <ele>163.06</ele>
        <time>2023-10-16T17:52:49.663Z</time>
      </trkpt>
      <trkpt lat="45.67159345373511" lon="17.70782506093383">
        <ele>163.06</ele>
        <time>2023-10-16T17:52:52.386Z</time>
      </trkpt>
      <trkpt lat="45.67160150036216" lon="17.707790778949857">
        <ele>163.05</ele>
        <time>2023-10-16T17:52:55.110Z</time>
      </trkpt>
      <trkpt lat="45.671608708798885" lon="17.707756580784917">
        <ele>163.04</ele>
        <time>2023-10-16T17:52:57.835Z</time>
      </trkpt>
      <trkpt lat="45.671614995226264" lon="17.7077229693532">
        <ele>163.03</ele>
        <time>2023-10-16T17:53:00.560Z</time>
      </trkpt>
      <trkpt lat="45.67162061110139" lon="17.707689441740513">
        <ele>163.02</ele>
        <time>2023-10-16T17:53:03.286Z</time>
      </trkpt>
      <trkpt lat="45.671625724062324" lon="17.707656165584922">
        <ele>163.01</ele>
        <time>2023-10-16T17:53:06.013Z</time>
      </trkpt>
      <trkpt lat="45.67163075320423" lon="17.707622973248363">
        <ele>163.0</ele>
        <time>2023-10-16T17:53:08.741Z</time>
      </trkpt>
      <trkpt lat="45.671635614708066" lon="17.707590200006962">
        <ele>162.99</ele>
        <time>2023-10-16T17:53:11.470Z</time>
      </trkpt>
      <trkpt lat="45.67164064384997" lon="17.707557259127498">
        <ele>162.98</ele>
        <time>2023-10-16T17:53:14.199Z</time>
      </trkpt>
      <trkpt lat="45.671646008268" lon="17.70752465352416">
        <ele>162.97</ele>
        <time>2023-10-16T17:53:16.929Z</time>
      </trkpt>
      <trkpt lat="45.67165179178119" lon="17.70749229937792">
        <ele>162.96</ele>
        <time>2023-10-16T17:53:19.660Z</time>
      </trkpt>
      <trkpt lat="45.67165832966566" lon="17.707460029050708">
        <ele>162.95</ele>
        <time>2023-10-16T17:53:22.392Z</time>
      </trkpt>
      <trkpt lat="45.67166545428336" lon="17.707427758723497">
        <ele>162.94</ele>
        <time>2023-10-16T17:53:25.124Z</time>
      </trkpt>
      <trkpt lat="45.67167341709137" lon="17.70739557221532">
        <ele>162.93</ele>
        <time>2023-10-16T17:53:27.857Z</time>
      </trkpt>
      <trkpt lat="45.67168213427067" lon="17.707363218069077">
        <ele>162.92</ele>
        <time>2023-10-16T17:53:30.591Z</time>
      </trkpt>
      <trkpt lat="45.67169152200222" lon="17.70733061246574">
        <ele>162.91</ele>
        <time>2023-10-16T17:53:33.326Z</time>
      </trkpt>
      <trkpt lat="45.67170141264796" lon="17.707297671586275">
        <ele>162.91</ele>
        <time>2023-10-16T17:53:36.062Z</time>
      </trkpt>
      <trkpt lat="45.6717115547508" lon="17.707264395430684">
        <ele>162.9</ele>
        <time>2023-10-16T17:53:38.799Z</time>
      </trkpt>
      <trkpt lat="45.67172194831073" lon="17.70723095163703">
        <ele>162.9</ele>
        <time>2023-10-16T17:53:41.536Z</time>
      </trkpt>
      <trkpt lat="45.671732258051634" lon="17.70719767548144">
        <ele>162.9</ele>
        <time>2023-10-16T17:53:44.274Z</time>
      </trkpt>
      <trkpt lat="45.671742148697376" lon="17.707164315506816">
        <ele>162.9</ele>
        <time>2023-10-16T17:53:47.013Z</time>
      </trkpt>
      <trkpt lat="45.6717514526099" lon="17.707131123170257">
        <ele>162.89</ele>
        <time>2023-10-16T17:53:49.753Z</time>
      </trkpt>
      <trkpt lat="45.671759666875005" lon="17.707098182290792">
        <ele>162.89</ele>
        <time>2023-10-16T17:53:52.494Z</time>
      </trkpt>
      <trkpt lat="45.6717667914927" lon="17.707065576687455">
        <ele>162.89</ele>
        <time>2023-10-16T17:53:55.236Z</time>
      </trkpt>
      <trkpt lat="45.67177307792008" lon="17.707033390179276">
        <ele>162.89</ele>
        <time>2023-10-16T17:53:57.978Z</time>
      </trkpt>
      <trkpt lat="45.671778693795204" lon="17.707001538947225">
        <ele>162.88</ele>
        <time>2023-10-16T17:54:00.721Z</time>
      </trkpt>
      <trkpt lat="45.67178372293711" lon="17.706970358267426">
        <ele>162.87</ele>
        <time>2023-10-16T17:54:03.465Z</time>
      </trkpt>
      <trkpt lat="45.67178883589804" lon="17.706939931958914">
        <ele>162.86</ele>
        <time>2023-10-16T17:54:06.210Z</time>
      </trkpt>
      <trkpt lat="45.67179411649704" lon="17.706910260021687">
        <ele>162.85</ele>
        <time>2023-10-16T17:54:08.955Z</time>
      </trkpt>
      <trkpt lat="45.6717995647341" lon="17.70688067190349">
        <ele>162.84</ele>
        <time>2023-10-16T17:54:11.701Z</time>
      </trkpt>
      <trkpt lat="45.67180534824729" lon="17.70685125142336">
        <ele>162.84</ele>
        <time>2023-10-16T17:54:14.448Z</time>
      </trkpt>
      <trkpt lat="45.671811467036605" lon="17.70682199858129">
        <ele>162.83</ele>
        <time>2023-10-16T17:54:17.195Z</time>
      </trkpt>
      <trkpt lat="45.67181808874011" lon="17.70679274573922">
        <ele>162.82</ele>
        <time>2023-10-16T17:54:19.943Z</time>
      </trkpt>
      <trkpt lat="45.6718254648149" lon="17.706763241440058">
        <ele>162.81</ele>
        <time>2023-10-16T17:54:22.692Z</time>
      </trkpt>
      <trkpt lat="45.67183376289904" lon="17.7067334856838">
        <ele>162.8</ele>
        <time>2023-10-16T17:54:25.442Z</time>
      </trkpt>
      <trkpt lat="45.67184315063059" lon="17.706703478470445">
        <ele>162.8</ele>
        <time>2023-10-16T17:54:28.192Z</time>
      </trkpt>
      <trkpt lat="45.671853544190526" lon="17.70667338743806">
        <ele>162.8</ele>
        <time>2023-10-16T17:54:30.943Z</time>
      </trkpt>
      <trkpt lat="45.671864775940776" lon="17.706642961129546">
        <ele>162.79</ele>
        <time>2023-10-16T17:54:33.695Z</time>
      </trkpt>
      <trkpt lat="45.671876510605216" lon="17.706612031906843">
        <ele>162.79</ele>
        <time>2023-10-16T17:54:36.448Z</time>
      </trkpt>
      <trkpt lat="45.67188849672675" lon="17.70658059976995">
        <ele>162.78</ele>
        <time>2023-10-16T17:54:39.202Z</time>
      </trkpt>
      <trkpt lat="45.67190031521022" lon="17.706548999994993">
        <ele>162.76</ele>
        <time>2023-10-16T17:54:41.957Z</time>
      </trkpt>
      <trkpt lat="45.671912133693695" lon="17.706516729667783">
        <ele>162.75</ele>
        <time>2023-10-16T17:54:44.712Z</time>
      </trkpt>
      <trkpt lat="45.67192361690104" lon="17.70648378878832">
        <ele>162.73</ele>
        <time>2023-10-16T17:54:47.468Z</time>
      </trkpt>
      <trkpt lat="45.67193501628935" lon="17.706450344994664">
        <ele>162.72</ele>
        <time>2023-10-16T17:54:50.225Z</time>
      </trkpt>
      <trkpt lat="45.67194666713476" lon="17.70641639828682">
        <ele>162.71</ele>
        <time>2023-10-16T17:54:52.983Z</time>
      </trkpt>
      <trkpt lat="45.6719586532563" lon="17.706382032483816">
        <ele>162.69</ele>
        <time>2023-10-16T17:54:55.742Z</time>
      </trkpt>
      <trkpt lat="45.67197105847299" lon="17.706347415223718">
        <ele>162.67</ele>
        <time>2023-10-16T17:54:58.502Z</time>
      </trkpt>
      <trkpt lat="45.67198405042291" lon="17.706312546506524">
        <ele>162.66</ele>
        <time>2023-10-16T17:55:01.263Z</time>
      </trkpt>
      <trkpt lat="45.67199779674411" lon="17.70627767778933">
        <ele>162.64</ele>
        <time>2023-10-16T17:55:04.025Z</time>
      </trkpt>
      <trkpt lat="45.67201246507466" lon="17.706242641434073">
        <ele>162.63</ele>
        <time>2023-10-16T17:55:06.788Z</time>
      </trkpt>
      <trkpt lat="45.672027971595526" lon="17.706207185983658">
        <ele>162.62</ele>
        <time>2023-10-16T17:55:09.552Z</time>
      </trkpt>
      <trkpt lat="45.67204440012574" lon="17.70617105998099">
        <ele>162.6</ele>
        <time>2023-10-16T17:55:12.317Z</time>
      </trkpt>
      <trkpt lat="45.672061583027244" lon="17.706134347245097">
        <ele>162.6</ele>
        <time>2023-10-16T17:55:15.083Z</time>
      </trkpt>
      <trkpt lat="45.67207960411906" lon="17.706097047775984">
        <ele>162.6</ele>
        <time>2023-10-16T17:55:17.850Z</time>
      </trkpt>
      <trkpt lat="45.67209770902991" lon="17.70605916157365">
        <ele>162.59</ele>
        <time>2023-10-16T17:55:20.618Z</time>
      </trkpt>
      <trkpt lat="45.67211531102657" lon="17.706021359190345">
        <ele>162.59</ele>
        <time>2023-10-16T17:55:23.387Z</time>
      </trkpt>
      <trkpt lat="45.672131991013885" lon="17.70598297007382">
        <ele>162.57</ele>
        <time>2023-10-16T17:55:26.157Z</time>
      </trkpt>
      <trkpt lat="45.67214732989669" lon="17.705944078043103">
        <ele>162.56</ele>
        <time>2023-10-16T17:55:28.928Z</time>
      </trkpt>
      <trkpt lat="45.672160908579826" lon="17.70590476691723">
        <ele>162.54</ele>
        <time>2023-10-16T17:55:31.700Z</time>
      </trkpt>
      <trkpt lat="45.67217239178717" lon="17.705865455791354">
        <ele>162.52</ele>
        <time>2023-10-16T17:55:34.473Z</time>
      </trkpt>
      <trkpt lat="45.67218169569969" lon="17.705826060846448">
        <ele>162.5</ele>
        <time>2023-10-16T17:55:37.247Z</time>
      </trkpt>
      <trkpt lat="45.67218882031739" lon="17.70578700117767">
        <ele>162.49</ele>
        <time>2023-10-16T17:55:40.022Z</time>
      </trkpt>
      <trkpt lat="45.67219384945929" lon="17.70574802532792">
        <ele>162.47</ele>
        <time>2023-10-16T17:55:42.798Z</time>
      </trkpt>
      <trkpt lat="45.67219669930637" lon="17.70570980384946">
        <ele>162.45</ele>
        <time>2023-10-16T17:55:45.575Z</time>
      </trkpt>
      <trkpt lat="45.67219778895378" lon="17.705672504380345">
        <ele>162.43</ele>
        <time>2023-10-16T17:55:48.353Z</time>
      </trkpt>
      <trkpt lat="45.67219762131572" lon="17.70563604310155">
        <ele>162.41</ele>
        <time>2023-10-16T17:55:51.131Z</time>
      </trkpt>
      <trkpt lat="45.672196447849274" lon="17.705599833279848">
        <ele>162.39</ele>
        <time>2023-10-16T17:55:53.910Z</time>
      </trkpt>
      <trkpt lat="45.67219443619251" lon="17.705564545467496">
        <ele>162.37</ele>
        <time>2023-10-16T17:55:56.690Z</time>
      </trkpt>
      <trkpt lat="45.67219192162156" lon="17.70553001202643">
        <ele>162.35</ele>
        <time>2023-10-16T17:55:59.471Z</time>
      </trkpt>
      <trkpt lat="45.67218907177448" lon="17.705496232956648">
        <ele>162.33</ele>
        <time>2023-10-16T17:56:02.253Z</time>
      </trkpt>
      <trkpt lat="45.67218588665128" lon="17.70546270534396">
        <ele>162.31</ele>
        <time>2023-10-16T17:56:05.035Z</time>
      </trkpt>
      <trkpt lat="45.67218245007098" lon="17.705429680645466">
        <ele>162.28</ele>
        <time>2023-10-16T17:56:07.818Z</time>
      </trkpt>
      <trkpt lat="45.67217884585261" lon="17.705397494137287">
        <ele>162.26</ele>
        <time>2023-10-16T17:56:10.602Z</time>
      </trkpt>
      <trkpt lat="45.67217490635812" lon="17.70536639727652">
        <ele>162.24</ele>
        <time>2023-10-16T17:56:13.387Z</time>
      </trkpt>
      <trkpt lat="45.67217079922557" lon="17.705336390063167">
        <ele>162.22</ele>
        <time>2023-10-16T17:56:16.172Z</time>
      </trkpt>
      <trkpt lat="45.67216610535979" lon="17.70530772395432">
        <ele>162.2</ele>
        <time>2023-10-16T17:56:18.958Z</time>
      </trkpt>
      <trkpt lat="45.67216124385595" lon="17.70528039894998">
        <ele>162.19</ele>
        <time>2023-10-16T17:56:21.745Z</time>
      </trkpt>
      <trkpt lat="45.67215587943792" lon="17.70525449886918">
        <ele>162.18</ele>
        <time>2023-10-16T17:56:24.532Z</time>
      </trkpt>
      <trkpt lat="45.672150095924735" lon="17.705229939892888">
        <ele>162.16</ele>
        <time>2023-10-16T17:56:27.320Z</time>
      </trkpt>
      <trkpt lat="45.67214397713542" lon="17.70520663820207">
        <ele>162.15</ele>
        <time>2023-10-16T17:56:30.109Z</time>
      </trkpt>
      <trkpt lat="45.67213760688901" lon="17.705184007063508">
        <ele>162.14</ele>
        <time>2023-10-16T17:56:32.898Z</time>
      </trkpt>
      <trkpt lat="45.672130985185504" lon="17.70516263321042">
        <ele>162.13</ele>
        <time>2023-10-16T17:56:35.688Z</time>
      </trkpt>
      <trkpt lat="45.672124195843935" lon="17.70514209754765">
        <ele>162.12</ele>
        <time>2023-10-16T17:56:38.478Z</time>
      </trkpt>
      <trkpt lat="45.672117322683334" lon="17.705122232437134">
        <ele>162.11</ele>
        <time>2023-10-16T17:56:41.269Z</time>
      </trkpt>
      <trkpt lat="45.67211019806564" lon="17.705102618783712">
        <ele>162.1</ele>
        <time>2023-10-16T17:56:44.060Z</time>
      </trkpt>
      <trkpt lat="45.672102738171816" lon="17.705083172768354">
        <ele>162.1</ele>
        <time>2023-10-16T17:56:46.852Z</time>
      </trkpt>
      <trkpt lat="45.6720950268209" lon="17.705063642933965">
        <ele>162.09</ele>
        <time>2023-10-16T17:56:49.644Z</time>
      </trkpt>
      <trkpt lat="45.67208689637482" lon="17.705043777823448">
        <ele>162.09</ele>
        <time>2023-10-16T17:56:52.437Z</time>
      </trkpt>
      <trkpt lat="45.672078682109714" lon="17.70502290688455">
        <ele>162.09</ele>
        <time>2023-10-16T17:56:55.230Z</time>
      </trkpt>
      <trkpt lat="45.67207063548267" lon="17.705000611022115">
        <ele>162.09</ele>
        <time>2023-10-16T17:56:58.024Z</time>
      </trkpt>
      <trkpt lat="45.672062672674656" lon="17.70497638732195">
        <ele>162.09</ele>
        <time>2023-10-16T17:57:00.819Z</time>
      </trkpt>
      <trkpt lat="45.672054793685675" lon="17.704949649050832">
        <ele>162.09</ele>
        <time>2023-10-16T17:57:03.614Z</time>
      </trkpt>
      <trkpt lat="45.67204716615379" lon="17.704920060932636">
        <ele>162.09</ele>
        <time>2023-10-16T17:57:06.410Z</time>
      </trkpt>
      <trkpt lat="45.672039790079" lon="17.7048874553293">
        <ele>162.1</ele>
        <time>2023-10-16T17:57:09.207Z</time>
      </trkpt>
      <trkpt lat="45.67203300073743" lon="17.704851580783725">
        <ele>162.11</ele>
        <time>2023-10-16T17:57:12.005Z</time>
      </trkpt>
      <trkpt lat="45.67202730104327" lon="17.704812437295914">
        <ele>162.11</ele>
        <time>2023-10-16T17:57:14.804Z</time>
      </trkpt>
      <trkpt lat="45.672023110091686" lon="17.704769941046834">
        <ele>162.12</ele>
        <time>2023-10-16T17:57:17.604Z</time>
      </trkpt>
      <trkpt lat="45.672020595520735" lon="17.704724092036486">
        <ele>162.13</ele>
        <time>2023-10-16T17:57:20.405Z</time>
      </trkpt>
      <trkpt lat="45.67201984114945" lon="17.704675225540996">
        <ele>162.13</ele>
        <time>2023-10-16T17:57:23.207Z</time>
      </trkpt>
      <trkpt lat="45.67202034406364" lon="17.704623928293586">
        <ele>162.14</ele>
        <time>2023-10-16T17:57:26.010Z</time>
      </trkpt>
      <trkpt lat="45.67202168516815" lon="17.704571038484573">
        <ele>162.15</ele>
        <time>2023-10-16T17:57:28.814Z</time>
      </trkpt>
      <trkpt lat="45.67202369682491" lon="17.704517310485244">
        <ele>162.16</ele>
        <time>2023-10-16T17:57:31.620Z</time>
      </trkpt>
      <trkpt lat="45.67202612757683" lon="17.704463498666883">
        <ele>162.18</ele>
        <time>2023-10-16T17:57:34.427Z</time>
      </trkpt>
      <trkpt lat="45.672028893604875" lon="17.704410273581743">
        <ele>162.2</ele>
        <time>2023-10-16T17:57:37.235Z</time>
      </trkpt>
      <trkpt lat="45.67203199490905" lon="17.704358054324985">
        <ele>162.22</ele>
        <time>2023-10-16T17:57:40.044Z</time>
      </trkpt>
      <trkpt lat="45.67203534767032" lon="17.704306840896606">
        <ele>162.24</ele>
        <time>2023-10-16T17:57:42.855Z</time>
      </trkpt>
      <trkpt lat="45.672038616612554" lon="17.704257387667894">
        <ele>162.26</ele>
        <time>2023-10-16T17:57:45.667Z</time>
      </trkpt>
      <trkpt lat="45.672041550278664" lon="17.70420969463885">
        <ele>162.27</ele>
        <time>2023-10-16T17:57:48.480Z</time>
      </trkpt>
      <trkpt lat="45.67204414866865" lon="17.704163677990437">
        <ele>162.28</ele>
        <time>2023-10-16T17:57:51.294Z</time>
      </trkpt>
      <trkpt lat="45.67204616032541" lon="17.704118667170405">
        <ele>162.29</ele>
        <time>2023-10-16T17:57:54.109Z</time>
      </trkpt>
      <trkpt lat="45.67204783670604" lon="17.704075165092945">
        <ele>162.31</ele>
        <time>2023-10-16T17:57:56.925Z</time>
      </trkpt>
      <trkpt lat="45.67204959690571" lon="17.70403292030096">
        <ele>162.32</ele>
        <time>2023-10-16T17:57:59.742Z</time>
      </trkpt>
      <trkpt lat="45.67205152474344" lon="17.70399176515639">
        <ele>162.34</ele>
        <time>2023-10-16T17:58:02.560Z</time>
      </trkpt>
      <trkpt lat="45.67205403931439" lon="17.70395178347826">
        <ele>162.36</ele>
        <time>2023-10-16T17:58:05.379Z</time>
      </trkpt>
      <trkpt lat="45.67205747589469" lon="17.703912975266576">
        <ele>162.39</ele>
        <time>2023-10-16T17:58:08.199Z</time>
      </trkpt>
      <trkpt lat="45.672061666846275" lon="17.70387508906424">
        <ele>162.42</ele>
        <time>2023-10-16T17:58:11.020Z</time>
      </trkpt>
      <trkpt lat="45.67206644453108" lon="17.703838041052222">
        <ele>162.45</ele>
        <time>2023-10-16T17:58:13.842Z</time>
      </trkpt>
      <trkpt lat="45.67207172513008" lon="17.70380174741149">
        <ele>162.48</ele>
        <time>2023-10-16T17:58:16.664Z</time>
      </trkpt>
      <trkpt lat="45.67207717336714" lon="17.703766208142042">
        <ele>162.52</ele>
        <time>2023-10-16T17:58:19.487Z</time>
      </trkpt>
      <trkpt lat="45.672082705423236" lon="17.703731674700975">
        <ele>162.55</ele>
        <time>2023-10-16T17:58:22.311Z</time>
      </trkpt>
      <trkpt lat="45.6720881536603" lon="17.70369873382151">
        <ele>162.59</ele>
        <time>2023-10-16T17:58:25.136Z</time>
      </trkpt>
      <trkpt lat="45.67209360189736" lon="17.70366688258946">
        <ele>162.62</ele>
        <time>2023-10-16T17:58:27.962Z</time>
      </trkpt>
      <trkpt lat="45.67209871485829" lon="17.703636037185788">
        <ele>162.66</ele>
        <time>2023-10-16T17:58:30.788Z</time>
      </trkpt>
      <trkpt lat="45.6721037440002" lon="17.70360628142953">
        <ele>162.71</ele>
        <time>2023-10-16T17:58:33.615Z</time>
      </trkpt>
      <trkpt lat="45.67210835404694" lon="17.703577615320683">
        <ele>162.75</ele>
        <time>2023-10-16T17:58:36.443Z</time>
      </trkpt>
      <trkpt lat="45.67211229354143" lon="17.70354920066893">
        <ele>162.8</ele>
        <time>2023-10-16T17:58:39.271Z</time>
      </trkpt>
      <trkpt lat="45.672115394845605" lon="17.703521456569433">
        <ele>162.84</ele>
        <time>2023-10-16T17:58:42.100Z</time>
      </trkpt>
      <trkpt lat="45.67211774177849" lon="17.703494550660253">
        <ele>162.89</ele>
        <time>2023-10-16T17:58:44.930Z</time>
      </trkpt>
      <trkpt lat="45.67211891524494" lon="17.703468315303326">
        <ele>162.94</ele>
        <time>2023-10-16T17:58:47.760Z</time>
      </trkpt>
      <trkpt lat="45.672118831425905" lon="17.703442834317684">
        <ele>163.0</ele>
        <time>2023-10-16T17:58:50.591Z</time>
      </trkpt>
      <trkpt lat="45.672117825597525" lon="17.703418023884296">
        <ele>163.05</ele>
        <time>2023-10-16T17:58:53.423Z</time>
      </trkpt>
      <trkpt lat="45.67211623303592" lon="17.703393464908004">
        <ele>163.11</ele>
        <time>2023-10-16T17:58:56.255Z</time>
      </trkpt>
      <trkpt lat="45.67211413756013" lon="17.703368989750743">
        <ele>163.17</ele>
        <time>2023-10-16T17:58:59.088Z</time>
      </trkpt>
      <trkpt lat="45.672111539170146" lon="17.70334434695542">
        <ele>163.23</ele>
        <time>2023-10-16T17:59:01.921Z</time>
      </trkpt>
      <trkpt lat="45.67210835404694" lon="17.703319368883967">
        <ele>163.3</ele>
        <time>2023-10-16T17:59:04.755Z</time>
      </trkpt>
      <trkpt lat="45.672104582190514" lon="17.703293720260262">
        <ele>163.37</ele>
        <time>2023-10-16T17:59:07.589Z</time>
      </trkpt>
      <trkpt lat="45.6721000559628" lon="17.703267401084304">
        <ele>163.44</ele>
        <time>2023-10-16T17:59:10.424Z</time>
      </trkpt>
      <trkpt lat="45.672094859182835" lon="17.703240159898996">
        <ele>163.51</ele>
        <time>2023-10-16T17:59:13.260Z</time>
      </trkpt>
      <trkpt lat="45.67208915948868" lon="17.70321191288531">
        <ele>163.58</ele>
        <time>2023-10-16T17:59:16.096Z</time>
      </trkpt>
      <trkpt lat="45.67208379507065" lon="17.703182827681303">
        <ele>163.65</ele>
        <time>2023-10-16T17:59:18.933Z</time>
      </trkpt>
      <trkpt lat="45.672079185023904" lon="17.703152233734727">
        <ele>163.72</ele>
        <time>2023-10-16T17:59:21.771Z</time>
      </trkpt>
      <trkpt lat="45.67207558080554" lon="17.703120047226548">
        <ele>163.79</ele>
        <time>2023-10-16T17:59:24.610Z</time>
      </trkpt>
      <trkpt lat="45.67207281477749" lon="17.703086519613862">
        <ele>163.87</ele>
        <time>2023-10-16T17:59:27.449Z</time>
      </trkpt>
      <trkpt lat="45.67207122221589" lon="17.703051986172795">
        <ele>163.94</ele>
        <time>2023-10-16T17:59:30.289Z</time>
      </trkpt>
      <trkpt lat="45.672070970758796" lon="17.70301653072238">
        <ele>164.01</ele>
        <time>2023-10-16T17:59:33.130Z</time>
      </trkpt>
      <trkpt lat="45.67207180894911" lon="17.70298040471971">
        <ele>164.09</ele>
        <time>2023-10-16T17:59:35.972Z</time>
      </trkpt>
      <trkpt lat="45.672073904424906" lon="17.702943608164787">
        <ele>164.17</ele>
        <time>2023-10-16T17:59:38.815Z</time>
      </trkpt>
      <trkpt lat="45.67207742482424" lon="17.702906392514706">
        <ele>164.24</ele>
        <time>2023-10-16T17:59:41.659Z</time>
      </trkpt>
      <trkpt lat="45.67208228632808" lon="17.702868757769465">
        <ele>164.31</ele>
        <time>2023-10-16T17:59:44.504Z</time>
      </trkpt>
      <trkpt lat="45.672088069841266" lon="17.702830536291003">
        <ele>164.39</ele>
        <time>2023-10-16T17:59:47.349Z</time>
      </trkpt>
      <trkpt lat="45.67209460772574" lon="17.70279172807932">
        <ele>164.46</ele>
        <time>2023-10-16T17:59:50.195Z</time>
      </trkpt>
      <trkpt lat="45.672101229429245" lon="17.702752333134413">
        <ele>164.53</ele>
        <time>2023-10-16T17:59:53.042Z</time>
      </trkpt>
      <trkpt lat="45.67210768349469" lon="17.702712267637253">
        <ele>164.61</ele>
        <time>2023-10-16T17:59:55.890Z</time>
      </trkpt>
      <trkpt lat="45.672113886103034" lon="17.702671699225903">
        <ele>164.68</ele>
        <time>2023-10-16T17:59:58.739Z</time>
      </trkpt>
      <trkpt lat="45.67211958579719" lon="17.70263104699552">
        <ele>164.75</ele>
        <time>2023-10-16T18:00:01.589Z</time>
      </trkpt>
      <trkpt lat="45.67212503403425" lon="17.702589724212885">
        <ele>164.82</ele>
        <time>2023-10-16T18:00:04.440Z</time>
      </trkpt>
      <trkpt lat="45.67213031463325" lon="17.702548149973154">
        <ele>164.89</ele>
        <time>2023-10-16T18:00:07.292Z</time>
      </trkpt>
      <trkpt lat="45.67213517613709" lon="17.702506324276328">
        <ele>164.96</ele>
        <time>2023-10-16T18:00:10.145Z</time>
      </trkpt>
      <trkpt lat="45.672139367088675" lon="17.70246491767466">
        <ele>165.03</ele>
        <time>2023-10-16T18:00:12.999Z</time>
      </trkpt>
      <trkpt lat="45.672142803668976" lon="17.70242342725396">
        <ele>165.1</ele>
        <time>2023-10-16T18:00:15.854Z</time>
      </trkpt>
      <trkpt lat="45.672145150601864" lon="17.70238227210939">
        <ele>165.17</ele>
        <time>2023-10-16T18:00:18.710Z</time>
      </trkpt>
      <trkpt lat="45.6721468269825" lon="17.702341619879007">
        <ele>165.24</ele>
        <time>2023-10-16T18:00:21.567Z</time>
      </trkpt>
      <trkpt lat="45.67214791662991" lon="17.70230214111507">
        <ele>165.31</ele>
        <time>2023-10-16T18:00:24.425Z</time>
      </trkpt>
      <trkpt lat="45.672148671001196" lon="17.702263416722417">
        <ele>165.39</ele>
        <time>2023-10-16T18:00:27.284Z</time>
      </trkpt>
      <trkpt lat="45.67214900627732" lon="17.70222544670105">
        <ele>165.46</ele>
        <time>2023-10-16T18:00:30.144Z</time>
      </trkpt>
      <trkpt lat="45.67214875482023" lon="17.70218831487">
        <ele>165.53</ele>
        <time>2023-10-16T18:00:33.005Z</time>
      </trkpt>
      <trkpt lat="45.67214791662991" lon="17.702151769772172">
        <ele>165.6</ele>
        <time>2023-10-16T18:00:35.867Z</time>
      </trkpt>
      <trkpt lat="45.6721465755254" lon="17.702115727588534">
        <ele>165.68</ele>
        <time>2023-10-16T18:00:38.729Z</time>
      </trkpt>
      <trkpt lat="45.6721449829638" lon="17.702080020681024">
        <ele>165.75</ele>
        <time>2023-10-16T18:00:41.592Z</time>
      </trkpt>
      <trkpt lat="45.67214364185929" lon="17.702044481411576">
        <ele>165.82</ele>
        <time>2023-10-16T18:00:44.456Z</time>
      </trkpt>
      <trkpt lat="45.672142803668976" lon="17.70200902596116">
        <ele>165.9</ele>
        <time>2023-10-16T18:00:47.321Z</time>
      </trkpt>
      <trkpt lat="45.67214288748801" lon="17.701973486691713">
        <ele>165.97</ele>
        <time>2023-10-16T18:00:50.187Z</time>
      </trkpt>
      <trkpt lat="45.672143725678325" lon="17.70193761214614">
        <ele>166.05</ele>
        <time>2023-10-16T18:00:53.054Z</time>
      </trkpt>
      <trkpt lat="45.67214548587799" lon="17.701901318505406">
        <ele>166.12</ele>
        <time>2023-10-16T18:00:55.921Z</time>
      </trkpt>
      <trkpt lat="45.67214825190604" lon="17.701864605769515">
        <ele>166.2</ele>
        <time>2023-10-16T18:00:58.789Z</time>
      </trkpt>
      <trkpt lat="45.67215227521956" lon="17.7018273063004">
        <ele>166.27</ele>
        <time>2023-10-16T18:01:01.658Z</time>
      </trkpt>
      <trkpt lat="45.67215755581856" lon="17.701789420098066">
        <ele>166.35</ele>
        <time>2023-10-16T18:01:04.528Z</time>
      </trkpt>
      <trkpt lat="45.67216392606497" lon="17.701751366257668">
        <ele>166.42</ele>
        <time>2023-10-16T18:01:07.399Z</time>
      </trkpt>
      <trkpt lat="45.672171134501696" lon="17.70171280950308">
        <ele>166.5</ele>
        <time>2023-10-16T18:01:10.271Z</time>
      </trkpt>
      <trkpt lat="45.67217909730971" lon="17.7016737498343">
        <ele>166.58</ele>
        <time>2023-10-16T18:01:13.144Z</time>
      </trkpt>
      <trkpt lat="45.672187646850944" lon="17.70163427107036">
        <ele>166.66</ele>
        <time>2023-10-16T18:01:16.018Z</time>
      </trkpt>
      <trkpt lat="45.67219636403024" lon="17.701594540849328">
        <ele>166.74</ele>
        <time>2023-10-16T18:01:18.893Z</time>
      </trkpt>
      <trkpt lat="45.67220516502857" lon="17.70155464299023">
        <ele>166.83</ele>
        <time>2023-10-16T18:01:21.769Z</time>
      </trkpt>
      <trkpt lat="45.67221430130303" lon="17.701514661312103">
        <ele>166.91</ele>
        <time>2023-10-16T18:01:24.646Z</time>
      </trkpt>
      <trkpt lat="45.67222352139652" lon="17.701474176719785">
        <ele>167.0</ele>
        <time>2023-10-16T18:01:27.524Z</time>
      </trkpt>
      <trkpt lat="45.67223257385194" lon="17.701433692127466">
        <ele>167.08</ele>
        <time>2023-10-16T18:01:30.403Z</time>
      </trkpt>
      <trkpt lat="45.67224154248834" lon="17.70139329135418">
        <ele>167.17</ele>
        <time>2023-10-16T18:01:33.283Z</time>
      </trkpt>
      <trkpt lat="45.672250259667635" lon="17.701352890580893">
        <ele>167.26</ele>
        <time>2023-10-16T18:01:36.164Z</time>
      </trkpt>
      <trkpt lat="45.672259060665965" lon="17.70131215453148">
        <ele>167.36</ele>
        <time>2023-10-16T18:01:39.046Z</time>
      </trkpt>
      <trkpt lat="45.672267861664295" lon="17.701271753758192">
        <ele>167.45</ele>
        <time>2023-10-16T18:01:41.929Z</time>
      </trkpt>
      <trkpt lat="45.672277165576816" lon="17.701231772080064">
        <ele>167.54</ele>
        <time>2023-10-16T18:01:44.813Z</time>
      </trkpt>
      <trkpt lat="45.672287391498685" lon="17.70119204185903">
        <ele>167.64</ele>
        <time>2023-10-16T18:01:47.698Z</time>
      </trkpt>
      <trkpt lat="45.672298623248935" lon="17.701153149828315">
        <ele>167.74</ele>
        <time>2023-10-16T18:01:50.584Z</time>
      </trkpt>
      <trkpt lat="45.6723109446466" lon="17.701115012168884">
        <ele>167.84</ele>
        <time>2023-10-16T18:01:53.471Z</time>
      </trkpt>
      <trkpt lat="45.67232435569167" lon="17.70107771269977">
        <ele>167.94</ele>
        <time>2023-10-16T18:01:56.359Z</time>
      </trkpt>
      <trkpt lat="45.67233885638416" lon="17.701041754335165">
        <ele>168.04</ele>
        <time>2023-10-16T18:01:59.248Z</time>
      </trkpt>
      <trkpt lat="45.67235419526696" lon="17.70100730471313">
        <ele>168.14</ele>
        <time>2023-10-16T18:02:02.138Z</time>
      </trkpt>
      <trkpt lat="45.672370456159115" lon="17.70097453147173">
        <ele>168.24</ele>
        <time>2023-10-16T18:02:05.028Z</time>
      </trkpt>
      <trkpt lat="45.672387555241585" lon="17.700943602249026">
        <ele>168.34</ele>
        <time>2023-10-16T18:02:07.919Z</time>
      </trkpt>
      <trkpt lat="45.672405157238245" lon="17.700915103778243">
        <ele>168.44</ele>
        <time>2023-10-16T18:02:10.811Z</time>
      </trkpt>
      <trkpt lat="45.67242309451103" lon="17.700888784602284">
        <ele>168.55</ele>
        <time>2023-10-16T18:02:13.704Z</time>
      </trkpt>
      <trkpt lat="45.67244094796479" lon="17.700864309445024">
        <ele>168.65</ele>
        <time>2023-10-16T18:02:16.598Z</time>
      </trkpt>
      <trkpt lat="45.67245821468532" lon="17.700841929763556">
        <ele>168.76</ele>
        <time>2023-10-16T18:02:19.493Z</time>
      </trkpt>
      <trkpt lat="45.672474559396505" lon="17.700821226462722">
        <ele>168.86</ele>
        <time>2023-10-16T18:02:22.388Z</time>
      </trkpt>
      <trkpt lat="45.67248998209834" lon="17.700802283361554">
        <ele>168.96</ele>
        <time>2023-10-16T18:02:25.284Z</time>
      </trkpt>
      <trkpt lat="45.67250423133373" lon="17.70078501664102">
        <ele>169.07</ele>
        <time>2023-10-16T18:02:28.181Z</time>
      </trkpt>
      <trkpt lat="45.67251772619784" lon="17.700769677758217">
        <ele>169.17</ele>
        <time>2023-10-16T18:02:31.078Z</time>
      </trkpt>
      <trkpt lat="45.67253046669066" lon="17.700755931437016">
        <ele>169.28</ele>
        <time>2023-10-16T18:02:33.976Z</time>
      </trkpt>
      <trkpt lat="45.672542955726385" lon="17.700743610039353">
        <ele>169.39</ele>
        <time>2023-10-16T18:02:36.874Z</time>
      </trkpt>
      <trkpt lat="45.672555193305016" lon="17.700732462108135">
        <ele>169.5</ele>
        <time>2023-10-16T18:02:39.773Z</time>
      </trkpt>
      <trkpt lat="45.67256709560752" lon="17.70072240382433">
        <ele>169.61</ele>
        <time>2023-10-16T18:02:42.672Z</time>
      </trkpt>
      <trkpt lat="45.67257883027196" lon="17.700713435187936">
        <ele>169.72</ele>
        <time>2023-10-16T18:02:45.572Z</time>
      </trkpt>
      <trkpt lat="45.67259064875543" lon="17.700705556198955">
        <ele>169.84</ele>
        <time>2023-10-16T18:02:48.472Z</time>
      </trkpt>
      <trkpt lat="45.67260263487697" lon="17.700698599219322">
        <ele>169.95</ele>
        <time>2023-10-16T18:02:51.373Z</time>
      </trkpt>
      <trkpt lat="45.6726148724556" lon="17.70069256424904">
        <ele>170.07</ele>
        <time>2023-10-16T18:02:54.274Z</time>
      </trkpt>
      <trkpt lat="45.672627445310354" lon="17.70068728365004">
        <ele>170.19</ele>
        <time>2023-10-16T18:02:57.176Z</time>
      </trkpt>
      <trkpt lat="45.67264035344124" lon="17.7006824221462">
        <ele>170.31</ele>
        <time>2023-10-16T18:03:00.078Z</time>
      </trkpt>
      <trkpt lat="45.67265317775309" lon="17.70067789591849">
        <ele>170.43</ele>
        <time>2023-10-16T18:03:02.980Z</time>
      </trkpt>
      <trkpt lat="45.67266541533172" lon="17.700673788785934">
        <ele>170.55</ele>
        <time>2023-10-16T18:03:05.883Z</time>
      </trkpt>
      <trkpt lat="45.672676898539066" lon="17.70067010074854">
        <ele>170.68</ele>
        <time>2023-10-16T18:03:08.786Z</time>
      </trkpt>
      <trkpt lat="45.672687292099" lon="17.700666496530175">
        <ele>170.8</ele>
        <time>2023-10-16T18:03:11.690Z</time>
      </trkpt>
      <trkpt lat="45.67269701510668" lon="17.700663059949875">
        <ele>170.93</ele>
        <time>2023-10-16T18:03:14.594Z</time>
      </trkpt>
      <trkpt lat="45.67270598374307" lon="17.700659791007638">
        <ele>171.06</ele>
        <time>2023-10-16T18:03:17.498Z</time>
      </trkpt>
      <trkpt lat="45.67271428182721" lon="17.7006565220654">
        <ele>171.19</ele>
        <time>2023-10-16T18:03:20.403Z</time>
      </trkpt>
      <trkpt lat="45.67272207699716" lon="17.700653253123164">
        <ele>171.32</ele>
        <time>2023-10-16T18:03:23.308Z</time>
      </trkpt>
      <trkpt lat="45.67272936925292" lon="17.70065015181899">
        <ele>171.45</ele>
        <time>2023-10-16T18:03:26.213Z</time>
      </trkpt>
      <trkpt lat="45.67273632623255" lon="17.70064713433385">
        <ele>171.59</ele>
        <time>2023-10-16T18:03:29.118Z</time>
      </trkpt>
      <trkpt lat="45.67274303175509" lon="17.700644368305802">
        <ele>171.72</ele>
        <time>2023-10-16T18:03:32.024Z</time>
      </trkpt>
      <trkpt lat="45.67274982109666" lon="17.700641602277756">
        <ele>171.86</ele>
        <time>2023-10-16T18:03:34.930Z</time>
      </trkpt>
      <trkpt lat="45.67275711335242" lon="17.700638752430677">
        <ele>172.01</ele>
        <time>2023-10-16T18:03:37.836Z</time>
      </trkpt>
      <trkpt lat="45.672764740884304" lon="17.700635734945536">
        <ele>172.15</ele>
        <time>2023-10-16T18:03:40.742Z</time>
      </trkpt>
      <trkpt lat="45.672773038968444" lon="17.700632382184267">
        <ele>172.3</ele>
        <time>2023-10-16T18:03:43.649Z</time>
      </trkpt>
      <trkpt lat="45.672781923785806" lon="17.700628777965903">
        <ele>172.44</ele>
        <time>2023-10-16T18:03:46.556Z</time>
      </trkpt>
      <trkpt lat="45.672791227698326" lon="17.700624838471413">
        <ele>172.6</ele>
        <time>2023-10-16T18:03:49.463Z</time>
      </trkpt>
      <trkpt lat="45.672800950706005" lon="17.70062073133886">
        <ele>172.75</ele>
        <time>2023-10-16T18:03:52.371Z</time>
      </trkpt>
      <trkpt lat="45.672810757532716" lon="17.700616624206305">
        <ele>172.9</ele>
        <time>2023-10-16T18:03:55.279Z</time>
      </trkpt>
      <trkpt lat="45.67282089963555" lon="17.700612265616655">
        <ele>173.06</ele>
        <time>2023-10-16T18:03:58.187Z</time>
      </trkpt>
      <trkpt lat="45.672831293195486" lon="17.700607739388943">
        <ele>173.22</ele>
        <time>2023-10-16T18:04:01.096Z</time>
      </trkpt>
      <trkpt lat="45.67284185439348" lon="17.7006031293422">
        <ele>173.39</ele>
        <time>2023-10-16T18:04:04.005Z</time>
      </trkpt>
      <trkpt lat="45.67285249941051" lon="17.700598519295454">
        <ele>173.55</ele>
        <time>2023-10-16T18:04:06.914Z</time>
      </trkpt>
      <trkpt lat="45.672863479703665" lon="17.70059390924871">
        <ele>173.72</ele>
        <time>2023-10-16T18:04:09.824Z</time>
      </trkpt>
      <trkpt lat="45.67287496291101" lon="17.70058896392584">
        <ele>173.89</ele>
        <time>2023-10-16T18:04:12.734Z</time>
      </trkpt>
      <trkpt lat="45.67288669757545" lon="17.700584018602967">
        <ele>174.07</ele>
        <time>2023-10-16T18:04:15.645Z</time>
      </trkpt>
      <trkpt lat="45.67289893515408" lon="17.700578654184937">
        <ele>174.24</ele>
        <time>2023-10-16T18:04:18.556Z</time>
      </trkpt>
      <trkpt lat="45.67291125655174" lon="17.70057295449078">
        <ele>174.42</ele>
        <time>2023-10-16T18:04:21.467Z</time>
      </trkpt>
      <trkpt lat="45.6729238294065" lon="17.70056658424437">
        <ele>174.6</ele>
        <time>2023-10-16T18:04:24.379Z</time>
      </trkpt>
      <trkpt lat="45.67293698899448" lon="17.700559040531516">
        <ele>174.78</ele>
        <time>2023-10-16T18:04:27.291Z</time>
      </trkpt>
      <trkpt lat="45.67295031622052" lon="17.700550239533186">
        <ele>174.97</ele>
        <time>2023-10-16T18:04:30.204Z</time>
      </trkpt>
      <trkpt lat="45.67296389490366" lon="17.700540265068412">
        <ele>175.16</ele>
        <time>2023-10-16T18:04:33.117Z</time>
      </trkpt>
      <trkpt lat="45.67297864705324" lon="17.70052894949913">
        <ele>175.35</ele>
        <time>2023-10-16T18:04:36.031Z</time>
      </trkpt>
      <trkpt lat="45.67299457266927" lon="17.700516460463405">
        <ele>175.54</ele>
        <time>2023-10-16T18:04:38.945Z</time>
      </trkpt>
      <trkpt lat="45.67301142029464" lon="17.700503217056394">
        <ele>175.74</ele>
        <time>2023-10-16T18:04:41.860Z</time>
      </trkpt>
      <trkpt lat="45.673029189929366" lon="17.700489638373256">
        <ele>175.94</ele>
        <time>2023-10-16T18:04:44.776Z</time>
      </trkpt>
      <trkpt lat="45.673047211021185" lon="17.700476059690118">
        <ele>176.14</ele>
        <time>2023-10-16T18:04:47.692Z</time>
      </trkpt>
      <trkpt lat="45.673065315932035" lon="17.700462816283107">
        <ele>176.34</ele>
        <time>2023-10-16T18:04:50.609Z</time>
      </trkpt>
      <trkpt lat="45.67308367229998" lon="17.700449991971254">
        <ele>176.54</ele>
        <time>2023-10-16T18:04:53.527Z</time>
      </trkpt>
      <trkpt lat="45.67310186102986" lon="17.700438257306814">
        <ele>176.75</ele>
        <time>2023-10-16T18:04:56.445Z</time>
      </trkpt>
      <trkpt lat="45.673120049759746" lon="17.70042819902301">
        <ele>176.96</ele>
        <time>2023-10-16T18:04:59.364Z</time>
      </trkpt>
      <trkpt lat="45.67313798703253" lon="17.700420152395964">
        <ele>177.17</ele>
        <time>2023-10-16T18:05:02.284Z</time>
      </trkpt>
      <trkpt lat="45.67315542139113" lon="17.700414201244712">
        <ele>177.39</ele>
        <time>2023-10-16T18:05:05.204Z</time>
      </trkpt>
      <trkpt lat="45.67317151464522" lon="17.700410597026348">
        <ele>177.6</ele>
        <time>2023-10-16T18:05:08.125Z</time>
      </trkpt>
      <trkpt lat="45.673186015337706" lon="17.700408920645714">
        <ele>177.81</ele>
        <time>2023-10-16T18:05:11.046Z</time>
      </trkpt>
      <trkpt lat="45.673198672011495" lon="17.700409088283777">
        <ele>178.03</ele>
        <time>2023-10-16T18:05:13.968Z</time>
      </trkpt>
      <trkpt lat="45.673209484666586" lon="17.700410597026348">
        <ele>178.24</ele>
        <time>2023-10-16T18:05:16.890Z</time>
      </trkpt>
      <trkpt lat="45.673219207674265" lon="17.700412943959236">
        <ele>178.46</ele>
        <time>2023-10-16T18:05:19.812Z</time>
      </trkpt>
      <trkpt lat="45.673228008672595" lon="17.70041554234922">
        <ele>178.68</ele>
        <time>2023-10-16T18:05:22.735Z</time>
      </trkpt>
      <trkpt lat="45.67323613911867" lon="17.70041805692017">
        <ele>178.89</ele>
        <time>2023-10-16T18:05:25.658Z</time>
      </trkpt>
      <trkpt lat="45.673243682831526" lon="17.700420152395964">
        <ele>179.11</ele>
        <time>2023-10-16T18:05:28.581Z</time>
      </trkpt>
      <trkpt lat="45.67325072363019" lon="17.70042149350047">
        <ele>179.33</ele>
        <time>2023-10-16T18:05:31.505Z</time>
      </trkpt>
      <trkpt lat="45.67325751297176" lon="17.700421828776598">
        <ele>179.55</ele>
        <time>2023-10-16T18:05:34.429Z</time>
      </trkpt>
      <trkpt lat="45.673264134675264" lon="17.700421242043376">
        <ele>179.77</ele>
        <time>2023-10-16T18:05:37.353Z</time>
      </trkpt>
      <trkpt lat="45.673271007835865" lon="17.700419733300805">
        <ele>179.99</ele>
        <time>2023-10-16T18:05:40.277Z</time>
      </trkpt>
      <trkpt lat="45.67327813245356" lon="17.700417218729854">
        <ele>180.21</ele>
        <time>2023-10-16T18:05:43.201Z</time>
      </trkpt>
      <trkpt lat="45.67328592762351" lon="17.70041369833052">
        <ele>180.43</ele>
        <time>2023-10-16T18:05:46.126Z</time>
      </trkpt>
      <trkpt lat="45.67329430952668" lon="17.70040925592184">
        <ele>180.65</ele>
        <time>2023-10-16T18:05:49.051Z</time>
      </trkpt>
      <trkpt lat="45.673303194344044" lon="17.700404394418">
        <ele>180.87</ele>
        <time>2023-10-16T18:05:51.976Z</time>
      </trkpt>
      <trkpt lat="45.67331224679947" lon="17.70039953291416">
        <ele>181.09</ele>
        <time>2023-10-16T18:05:54.902Z</time>
      </trkpt>
      <trkpt lat="45.67332163453102" lon="17.70039509050548">
        <ele>181.31</ele>
        <time>2023-10-16T18:05:57.828Z</time>
      </trkpt>
      <trkpt lat="45.67333144135773" lon="17.70039115101099">
        <ele>181.53</ele>
        <time>2023-10-16T18:06:00.754Z</time>
      </trkpt>
      <trkpt lat="45.6733416672796" lon="17.700387882068753">
        <ele>181.76</ele>
        <time>2023-10-16T18:06:03.681Z</time>
      </trkpt>
      <trkpt lat="45.6733522284776" lon="17.700384948402643">
        <ele>181.98</ele>
        <time>2023-10-16T18:06:06.608Z</time>
      </trkpt>
      <trkpt lat="45.67336320877075" lon="17.700382182374597">
        <ele>182.2</ele>
        <time>2023-10-16T18:06:09.535Z</time>
      </trkpt>
      <trkpt lat="45.673374608159065" lon="17.70037941634655">
        <ele>182.42</ele>
        <time>2023-10-16T18:06:12.463Z</time>
      </trkpt>
      <trkpt lat="45.67338651046157" lon="17.700376650318503">
        <ele>182.64</ele>
        <time>2023-10-16T18:06:15.391Z</time>
      </trkpt>
      <trkpt lat="45.6733987480402" lon="17.700373800471425">
        <ele>182.86</ele>
        <time>2023-10-16T18:06:18.320Z</time>
      </trkpt>
      <trkpt lat="45.673411237075925" lon="17.70037103444338">
        <ele>183.08</ele>
        <time>2023-10-16T18:06:21.249Z</time>
      </trkpt>
      <trkpt lat="45.673423893749714" lon="17.700368268415332">
        <ele>183.3</ele>
        <time>2023-10-16T18:06:24.178Z</time>
      </trkpt>
      <trkpt lat="45.67343696951866" lon="17.700365502387285">
        <ele>183.52</ele>
        <time>2023-10-16T18:06:27.108Z</time>
      </trkpt>
      <trkpt lat="45.67345012910664" lon="17.700362568721175">
        <ele>183.74</ele>
        <time>2023-10-16T18:06:30.038Z</time>
      </trkpt>
      <trkpt lat="45.67346320487559" lon="17.70035938359797">
        <ele>183.95</ele>
        <time>2023-10-16T18:06:32.969Z</time>
      </trkpt>
      <trkpt lat="45.673476280644536" lon="17.700356198474765">
        <ele>184.17</ele>
        <time>2023-10-16T18:06:35.900Z</time>
      </trkpt>
      <trkpt lat="45.67348910495639" lon="17.700353180989623">
        <ele>184.38</ele>
        <time>2023-10-16T18:06:38.832Z</time>
      </trkpt>
      <trkpt lat="45.67350184544921" lon="17.700350414961576">
        <ele>184.59</ele>
        <time>2023-10-16T18:06:41.764Z</time>
      </trkpt>
      <trkpt lat="45.673514334484935" lon="17.700347900390625">
        <ele>184.8</ele>
        <time>2023-10-16T18:06:44.697Z</time>
      </trkpt>
      <trkpt lat="45.67352648824453" lon="17.70034563727677">
        <ele>185.01</ele>
        <time>2023-10-16T18:06:47.630Z</time>
      </trkpt>
      <trkpt lat="45.67353847436607" lon="17.700343541800976">
        <ele>185.22</ele>
        <time>2023-10-16T18:06:50.563Z</time>
      </trkpt>
      <trkpt lat="45.673550460487604" lon="17.700341446325183">
        <ele>185.42</ele>
        <time>2023-10-16T18:06:53.497Z</time>
      </trkpt>
      <trkpt lat="45.67356236279011" lon="17.700339015573263">
        <ele>185.63</ele>
        <time>2023-10-16T18:06:56.431Z</time>
      </trkpt>
      <trkpt lat="45.67357384599745" lon="17.70033633336425">
        <ele>185.83</ele>
        <time>2023-10-16T18:06:59.366Z</time>
      </trkpt>
      <trkpt lat="45.67358499392867" lon="17.70033339969814">
        <ele>186.02</ele>
        <time>2023-10-16T18:07:02.301Z</time>
      </trkpt>
      <trkpt lat="45.673595890402794" lon="17.700329879298806">
        <ele>186.22</ele>
        <time>2023-10-16T18:07:05.236Z</time>
      </trkpt>
      <trkpt lat="45.67360636778176" lon="17.70032568834722">
        <ele>186.41</ele>
        <time>2023-10-16T18:07:08.172Z</time>
      </trkpt>
      <trkpt lat="45.673616509884596" lon="17.70032082684338">
        <ele>186.61</ele>
        <time>2023-10-16T18:07:11.108Z</time>
      </trkpt>
      <trkpt lat="45.673626232892275" lon="17.70031546242535">
        <ele>186.79</ele>
        <time>2023-10-16T18:07:14.044Z</time>
      </trkpt>
      <trkpt lat="45.673635536804795" lon="17.700309846550226">
        <ele>186.98</ele>
        <time>2023-10-16T18:07:16.981Z</time>
      </trkpt>
      <trkpt lat="45.67364458926022" lon="17.700304314494133">
        <ele>187.17</ele>
        <time>2023-10-16T18:07:19.918Z</time>
      </trkpt>
      <trkpt lat="45.673653138801455" lon="17.700298950076103">
        <ele>187.35</ele>
        <time>2023-10-16T18:07:22.855Z</time>
      </trkpt>
      <trkpt lat="45.67366152070463" lon="17.700294004753232">
        <ele>187.53</ele>
        <time>2023-10-16T18:07:25.793Z</time>
      </trkpt>
      <trkpt lat="45.6736699026078" lon="17.70028947852552">
        <ele>187.7</ele>
        <time>2023-10-16T18:07:28.731Z</time>
      </trkpt>
      <trkpt lat="45.67367845214903" lon="17.700285455211997">
        <ele>187.87</ele>
        <time>2023-10-16T18:07:31.669Z</time>
      </trkpt>
      <trkpt lat="45.67368700169027" lon="17.70028168335557">
        <ele>188.04</ele>
        <time>2023-10-16T18:07:34.608Z</time>
      </trkpt>
      <trkpt lat="45.6736958026886" lon="17.7002783305943">
        <ele>188.21</ele>
        <time>2023-10-16T18:07:37.547Z</time>
      </trkpt>
      <trkpt lat="45.673704855144024" lon="17.70027539692819">
        <ele>188.38</ele>
        <time>2023-10-16T18:07:40.486Z</time>
      </trkpt>
      <trkpt lat="45.673714159056544" lon="17.700272714719176">
        <ele>188.54</ele>
        <time>2023-10-16T18:07:43.425Z</time>
      </trkpt>
      <trkpt lat="45.67372363060713" lon="17.70027003251016">
        <ele>188.7</ele>
        <time>2023-10-16T18:07:46.365Z</time>
      </trkpt>
      <trkpt lat="45.673733269795775" lon="17.70026709884405">
        <ele>188.86</ele>
        <time>2023-10-16T18:07:49.305Z</time>
      </trkpt>
      <trkpt lat="45.673743076622486" lon="17.70026366226375">
        <ele>189.02</ele>
        <time>2023-10-16T18:07:52.245Z</time>
      </trkpt>
      <trkpt lat="45.673753218725324" lon="17.700259555131197">
        <ele>189.17</ele>
        <time>2023-10-16T18:07:55.186Z</time>
      </trkpt>
      <trkpt lat="45.6737631931901" lon="17.700254945084453">
        <ele>189.32</ele>
        <time>2023-10-16T18:07:58.127Z</time>
      </trkpt>
      <trkpt lat="45.67377300001681" lon="17.700249748304486">
        <ele>189.47</ele>
        <time>2023-10-16T18:08:01.069Z</time>
      </trkpt>
      <trkpt lat="45.67378289066255" lon="17.700243880972266">
        <ele>189.62</ele>
        <time>2023-10-16T18:08:04.011Z</time>
      </trkpt>
      <trkpt lat="45.673792865127325" lon="17.700237426906824">
        <ele>189.77</ele>
        <time>2023-10-16T18:08:06.953Z</time>
      </trkpt>
      <trkpt lat="45.67380300723016" lon="17.70023030228913">
        <ele>189.91</ele>
        <time>2023-10-16T18:08:09.896Z</time>
      </trkpt>
      <trkpt lat="45.673813316971064" lon="17.70022250711918">
        <ele>190.05</ele>
        <time>2023-10-16T18:08:12.839Z</time>
      </trkpt>
      <trkpt lat="45.673823710530996" lon="17.70021429285407">
        <ele>190.19</ele>
        <time>2023-10-16T18:08:15.782Z</time>
      </trkpt>
      <trkpt lat="45.67383427172899" lon="17.700205575674772">
        <ele>190.33</ele>
        <time>2023-10-16T18:08:18.726Z</time>
      </trkpt>
      <trkpt lat="45.673845084384084" lon="17.700196271762252">
        <ele>190.46</ele>
        <time>2023-10-16T18:08:21.670Z</time>
      </trkpt>
      <trkpt lat="45.673855897039175" lon="17.700186716392636">
        <ele>190.6</ele>
        <time>2023-10-16T18:08:24.615Z</time>
      </trkpt>
      <trkpt lat="45.673866625875235" lon="17.700176741927862">
        <ele>190.73</ele>
        <time>2023-10-16T18:08:27.560Z</time>
      </trkpt>
      <trkpt lat="45.67387752234936" lon="17.700166264548898">
        <ele>190.86</ele>
        <time>2023-10-16T18:08:30.506Z</time>
      </trkpt>
      <trkpt lat="45.67388841882348" lon="17.70015520043671">
        <ele>190.98</ele>
        <time>2023-10-16T18:08:33.452Z</time>
      </trkpt>
      <trkpt lat="45.67389923147857" lon="17.700143717229366">
        <ele>191.11</ele>
        <time>2023-10-16T18:08:36.398Z</time>
      </trkpt>
      <trkpt lat="45.6739098764956" lon="17.70013215020299">
        <ele>191.24</ele>
        <time>2023-10-16T18:08:39.345Z</time>
      </trkpt>
      <trkpt lat="45.67392027005553" lon="17.700120583176613">
        <ele>191.36</ele>
        <time>2023-10-16T18:08:42.292Z</time>
      </trkpt>
      <trkpt lat="45.67393024452031" lon="17.700109351426363">
        <ele>191.48</ele>
        <time>2023-10-16T18:08:45.240Z</time>
      </trkpt>
      <trkpt lat="45.67394030280411" lon="17.70009837113321">
        <ele>191.61</ele>
        <time>2023-10-16T18:08:48.188Z</time>
      </trkpt>
      <trkpt lat="45.67395027726889" lon="17.700087809935212">
        <ele>191.73</ele>
        <time>2023-10-16T18:08:51.137Z</time>
      </trkpt>
      <trkpt lat="45.67396025173366" lon="17.70007791928947">
        <ele>191.85</ele>
        <time>2023-10-16T18:08:54.086Z</time>
      </trkpt>
      <trkpt lat="45.673970226198435" lon="17.70006861537695">
        <ele>191.97</ele>
        <time>2023-10-16T18:08:57.035Z</time>
      </trkpt>
      <trkpt lat="45.67398011684418" lon="17.700059730559587">
        <ele>192.09</ele>
        <time>2023-10-16T18:08:59.985Z</time>
      </trkpt>
      <trkpt lat="45.67399000748992" lon="17.700051264837384">
        <ele>192.2</ele>
        <time>2023-10-16T18:09:02.935Z</time>
      </trkpt>
      <trkpt lat="45.67400031723082" lon="17.70004321821034">
        <ele>192.32</ele>
        <time>2023-10-16T18:09:05.886Z</time>
      </trkpt>
      <trkpt lat="45.674010794609785" lon="17.70003550685942">
        <ele>192.44</ele>
        <time>2023-10-16T18:09:08.837Z</time>
      </trkpt>
      <trkpt lat="45.674021607264876" lon="17.700028298422694">
        <ele>192.56</ele>
        <time>2023-10-16T18:09:11.788Z</time>
      </trkpt>
      <trkpt lat="45.67403267137706" lon="17.70002125762403">
        <ele>192.67</ele>
        <time>2023-10-16T18:09:14.740Z</time>
      </trkpt>
      <trkpt lat="45.674044070765376" lon="17.700014300644398">
        <ele>192.79</ele>
        <time>2023-10-16T18:09:17.692Z</time>
      </trkpt>
      <trkpt lat="45.674055805429816" lon="17.700006924569607">
        <ele>192.91</ele>
        <time>2023-10-16T18:09:20.645Z</time>
      </trkpt>
      <trkpt lat="45.67406779155135" lon="17.699999045580626">
        <ele>193.03</ele>
        <time>2023-10-16T18:09:23.598Z</time>
      </trkpt>
      <trkpt lat="45.67407986149192" lon="17.699990663677454">
        <ele>193.14</ele>
        <time>2023-10-16T18:09:26.551Z</time>
      </trkpt>
      <trkpt lat="45.67409226670861" lon="17.69998161122203">
        <ele>193.26</ele>
        <time>2023-10-16T18:09:29.505Z</time>
      </trkpt>
      <trkpt lat="45.67410534247756" lon="17.699972055852413">
        <ele>193.38</ele>
        <time>2023-10-16T18:09:32.459Z</time>
      </trkpt>
      <trkpt lat="45.67411908879876" lon="17.699961997568607">
        <ele>193.5</ele>
        <time>2023-10-16T18:09:35.414Z</time>
      </trkpt>
      <trkpt lat="45.674133002758026" lon="17.699951771646738">
        <ele>193.62</ele>
        <time>2023-10-16T18:09:38.369Z</time>
      </trkpt>
      <trkpt lat="45.67414691671729" lon="17.699941294267774">
        <ele>193.74</ele>
        <time>2023-10-16T18:09:41.325Z</time>
      </trkpt>
      <trkpt lat="45.67416108213365" lon="17.69993039779365">
        <ele>193.86</ele>
        <time>2023-10-16T18:09:44.281Z</time>
      </trkpt>
      <trkpt lat="45.67417533136904" lon="17.699919249862432">
        <ele>193.98</ele>
        <time>2023-10-16T18:09:47.238Z</time>
      </trkpt>
      <trkpt lat="45.674189580604434" lon="17.699907682836056">
        <ele>194.11</ele>
        <time>2023-10-16T18:09:50.196Z</time>
      </trkpt>
      <trkpt lat="45.674203746020794" lon="17.69989611580968">
        <ele>194.23</ele>
        <time>2023-10-16T18:09:53.154Z</time>
      </trkpt>
      <trkpt lat="45.674217492341995" lon="17.69988496787846">
        <ele>194.35</ele>
        <time>2023-10-16T18:09:56.113Z</time>
      </trkpt>
      <trkpt lat="45.674230735749006" lon="17.699874071404338">
        <ele>194.48</ele>
        <time>2023-10-16T18:09:59.072Z</time>
      </trkpt>
      <trkpt lat="45.674243308603764" lon="17.69986351020634">
        <ele>194.6</ele>
        <time>2023-10-16T18:10:02.032Z</time>
      </trkpt>
      <trkpt lat="45.67425495944917" lon="17.699853284284472">
        <ele>194.73</ele>
        <time>2023-10-16T18:10:04.992Z</time>
      </trkpt>
      <trkpt lat="45.67426526919007" lon="17.6998433098197">
        <ele>194.85</ele>
        <time>2023-10-16T18:10:07.953Z</time>
      </trkpt>
      <trkpt lat="45.67427482455969" lon="17.69983308389783">
        <ele>194.98</ele>
        <time>2023-10-16T18:10:10.914Z</time>
      </trkpt>
      <trkpt lat="45.67428370937705" lon="17.6998224388808">
        <ele>195.11</ele>
        <time>2023-10-16T18:10:13.875Z</time>
      </trkpt>
      <trkpt lat="45.67429192364216" lon="17.69981120713055">
        <ele>195.24</ele>
        <time>2023-10-16T18:10:16.837Z</time>
      </trkpt>
      <trkpt lat="45.674299634993076" lon="17.69979938864708">
        <ele>195.37</ele>
        <time>2023-10-16T18:10:19.799Z</time>
      </trkpt>
      <trkpt lat="45.67430726252496" lon="17.699786983430386">
        <ele>195.5</ele>
        <time>2023-10-16T18:10:22.761Z</time>
      </trkpt>
      <trkpt lat="45.67431455478072" lon="17.6997740752995">
        <ele>195.63</ele>
        <time>2023-10-16T18:10:25.724Z</time>
      </trkpt>
      <trkpt lat="45.67432218231261" lon="17.699760496616364">
        <ele>195.77</ele>
        <time>2023-10-16T18:10:28.687Z</time>
      </trkpt>
      <trkpt lat="45.674330312758684" lon="17.699746247380972">
        <ele>195.9</ele>
        <time>2023-10-16T18:10:31.651Z</time>
      </trkpt>
      <trkpt lat="45.67433928139508" lon="17.69973141141236">
        <ele>196.04</ele>
        <time>2023-10-16T18:10:34.615Z</time>
      </trkpt>
      <trkpt lat="45.67434925585985" lon="17.699716072529554">
        <ele>196.18</ele>
        <time>2023-10-16T18:10:37.580Z</time>
      </trkpt>
      <trkpt lat="45.67436031997204" lon="17.699700314551592">
        <ele>196.32</ele>
        <time>2023-10-16T18:10:40.545Z</time>
      </trkpt>
      <trkpt lat="45.67437222227454" lon="17.699684724211693">
        <ele>196.46</ele>
        <time>2023-10-16T18:10:43.511Z</time>
      </trkpt>
      <trkpt lat="45.67438487894833" lon="17.69966946914792">
        <ele>196.61</ele>
        <time>2023-10-16T18:10:46.477Z</time>
      </trkpt>
      <trkpt lat="45.67439812235534" lon="17.69965480081737">
        <ele>196.75</ele>
        <time>2023-10-16T18:10:49.444Z</time>
      </trkpt>
      <trkpt lat="45.674411952495575" lon="17.699640803039074">
        <ele>196.9</ele>
        <time>2023-10-16T18:10:52.411Z</time>
      </trkpt>
      <trkpt lat="45.67442620173097" lon="17.699627643451095">
        <ele>197.05</ele>
        <time>2023-10-16T18:10:55.379Z</time>
      </trkpt>
      <trkpt lat="45.67444087006152" lon="17.69961515441537">
        <ele>197.2</ele>
        <time>2023-10-16T18:10:58.347Z</time>
      </trkpt>
      <trkpt lat="45.67445553839207" lon="17.699603335931897">
        <ele>197.35</ele>
        <time>2023-10-16T18:11:01.316Z</time>
      </trkpt>
      <trkpt lat="45.674470122903585" lon="17.699592104181647">
        <ele>197.51</ele>
        <time>2023-10-16T18:11:04.286Z</time>
      </trkpt>
      <trkpt lat="45.674484204500914" lon="17.699581375345588">
        <ele>197.67</ele>
        <time>2023-10-16T18:11:07.256Z</time>
      </trkpt>
      <trkpt lat="45.674497447907925" lon="17.699571065604687">
        <ele>197.82</ele>
        <time>2023-10-16T18:11:10.227Z</time>
      </trkpt>
      <trkpt lat="45.674509685486555" lon="17.699561174958944">
        <ele>197.98</ele>
        <time>2023-10-16T18:11:13.198Z</time>
      </trkpt>
      <trkpt lat="45.67452108487487" lon="17.699551368132234">
        <ele>198.14</ele>
        <time>2023-10-16T18:11:16.170Z</time>
      </trkpt>
      <trkpt lat="45.6745314784348" lon="17.699541645124555">
        <ele>198.31</ele>
        <time>2023-10-16T18:11:19.142Z</time>
      </trkpt>
      <trkpt lat="45.67454078234732" lon="17.699531838297844">
        <ele>198.47</ele>
        <time>2023-10-16T18:11:22.114Z</time>
      </trkpt>
      <trkpt lat="45.67454899661243" lon="17.6995219476521">
        <ele>198.64</ele>
        <time>2023-10-16T18:11:25.087Z</time>
      </trkpt>
      <trkpt lat="45.67455628886819" lon="17.699511721730232">
        <ele>198.8</ele>
        <time>2023-10-16T18:11:28.060Z</time>
      </trkpt>
      <trkpt lat="45.67456274293363" lon="17.699501160532236">
        <ele>198.97</ele>
        <time>2023-10-16T18:11:31.033Z</time>
      </trkpt>
      <trkpt lat="45.67456852644682" lon="17.699489928781986">
        <ele>199.14</ele>
        <time>2023-10-16T18:11:34.007Z</time>
      </trkpt>
      <trkpt lat="45.674573723226786" lon="17.69947785884142">
        <ele>199.31</ele>
        <time>2023-10-16T18:11:36.981Z</time>
      </trkpt>
      <trkpt lat="45.67457850091159" lon="17.699464615434408">
        <ele>199.48</ele>
        <time>2023-10-16T18:11:39.955Z</time>
      </trkpt>
      <trkpt lat="45.674583027139306" lon="17.69945011474192">
        <ele>199.66</ele>
        <time>2023-10-16T18:11:42.930Z</time>
      </trkpt>
      <trkpt lat="45.67458755336702" lon="17.69943435676396">
        <ele>199.83</ele>
        <time>2023-10-16T18:11:45.905Z</time>
      </trkpt>
      <trkpt lat="45.67459207959473" lon="17.699416922405362">
        <ele>200.01</ele>
        <time>2023-10-16T18:11:48.881Z</time>
      </trkpt>
      <trkpt lat="45.67459685727954" lon="17.699398398399353">
        <ele>200.19</ele>
        <time>2023-10-16T18:11:51.857Z</time>
      </trkpt>
      <trkpt lat="45.674601970240474" lon="17.699378617107868">
        <ele>200.37</ele>
        <time>2023-10-16T18:11:54.834Z</time>
      </trkpt>
      <trkpt lat="45.67460766993463" lon="17.699357578530908">
        <ele>200.56</ele>
        <time>2023-10-16T18:11:57.811Z</time>
      </trkpt>
      <trkpt lat="45.67461395636201" lon="17.699335366487503">
        <ele>200.74</ele>
        <time>2023-10-16T18:12:00.789Z</time>
      </trkpt>
      <trkpt lat="45.674620578065515" lon="17.699312064796686">
        <ele>200.93</ele>
        <time>2023-10-16T18:12:03.767Z</time>
      </trkpt>
      <trkpt lat="45.674627451226115" lon="17.69928826019168">
        <ele>201.12</ele>
        <time>2023-10-16T18:12:06.746Z</time>
      </trkpt>
      <trkpt lat="45.67463457584381" lon="17.699264036491513">
        <ele>201.32</ele>
        <time>2023-10-16T18:12:09.725Z</time>
      </trkpt>
      <trkpt lat="45.67464170046151" lon="17.699239812791348">
        <ele>201.51</ele>
        <time>2023-10-16T18:12:12.705Z</time>
      </trkpt>
      <trkpt lat="45.674648908898234" lon="17.699215756729245">
        <ele>201.71</ele>
        <time>2023-10-16T18:12:15.686Z</time>
      </trkpt>
      <trkpt lat="45.67465611733496" lon="17.699192287400365">
        <ele>201.91</ele>
        <time>2023-10-16T18:12:18.667Z</time>
      </trkpt>
      <trkpt lat="45.67466324195266" lon="17.699169320985675">
        <ele>202.1</ele>
        <time>2023-10-16T18:12:21.649Z</time>
      </trkpt>
      <trkpt lat="45.67467053420842" lon="17.699146773666143">
        <ele>202.3</ele>
        <time>2023-10-16T18:12:24.631Z</time>
      </trkpt>
      <trkpt lat="45.674677826464176" lon="17.699124813079834">
        <ele>202.51</ele>
        <time>2023-10-16T18:12:27.614Z</time>
      </trkpt>
      <trkpt lat="45.674685118719935" lon="17.69910369068384">
        <ele>202.71</ele>
        <time>2023-10-16T18:12:30.598Z</time>
      </trkpt>
      <trkpt lat="45.67469232715666" lon="17.699083406478167">
        <ele>202.91</ele>
        <time>2023-10-16T18:12:33.582Z</time>
      </trkpt>
      <trkpt lat="45.67469945177436" lon="17.69906404428184">
        <ele>203.12</ele>
        <time>2023-10-16T18:12:36.567Z</time>
      </trkpt>
      <trkpt lat="45.674706660211086" lon="17.699045268818736">
        <ele>203.33</ele>
        <time>2023-10-16T18:12:39.552Z</time>
      </trkpt>
      <trkpt lat="45.674713868647814" lon="17.69902733154595">
        <ele>203.53</ele>
        <time>2023-10-16T18:12:42.538Z</time>
      </trkpt>
      <trkpt lat="45.674721244722605" lon="17.699009897187352">
        <ele>203.74</ele>
        <time>2023-10-16T18:12:45.524Z</time>
      </trkpt>
      <trkpt lat="45.67472870461643" lon="17.698993468657136">
        <ele>203.95</ele>
        <time>2023-10-16T18:12:48.511Z</time>
      </trkpt>
      <trkpt lat="45.674736415967345" lon="17.69897745922208">
        <ele>204.16</ele>
        <time>2023-10-16T18:12:51.498Z</time>
      </trkpt>
      <trkpt lat="45.67474412731826" lon="17.698962287977338">
        <ele>204.38</ele>
        <time>2023-10-16T18:12:54.485Z</time>
      </trkpt>
      <trkpt lat="45.67475192248821" lon="17.698947954922915">
        <ele>204.59</ele>
        <time>2023-10-16T18:12:57.473Z</time>
      </trkpt>
      <trkpt lat="45.67475963383913" lon="17.698934376239777">
        <ele>204.8</ele>
        <time>2023-10-16T18:13:00.461Z</time>
      </trkpt>
      <trkpt lat="45.67476700991392" lon="17.69892130047083">
        <ele>205.02</ele>
        <time>2023-10-16T18:13:03.450Z</time>
      </trkpt>
      <trkpt lat="45.67477413453162" lon="17.69890864379704">
        <ele>205.23</ele>
        <time>2023-10-16T18:13:06.439Z</time>
      </trkpt>
      <trkpt lat="45.67478075623512" lon="17.69889649003744">
        <ele>205.44</ele>
        <time>2023-10-16T18:13:09.428Z</time>
      </trkpt>
      <trkpt lat="45.674786707386374" lon="17.698884755373">
        <ele>205.66</ele>
        <time>2023-10-16T18:13:12.418Z</time>
      </trkpt>
      <trkpt lat="45.67479198798537" lon="17.698873104527593">
        <ele>205.87</ele>
        <time>2023-10-16T18:13:15.408Z</time>
      </trkpt>
      <trkpt lat="45.67479659803212" lon="17.698861621320248">
        <ele>206.09</ele>
        <time>2023-10-16T18:13:18.398Z</time>
      </trkpt>
      <trkpt lat="45.674800872802734" lon="17.698849886655807">
        <ele>206.31</ele>
        <time>2023-10-16T18:13:21.389Z</time>
      </trkpt>
      <trkpt lat="45.67480464465916" lon="17.698838068172336">
        <ele>206.52</ele>
        <time>2023-10-16T18:13:24.380Z</time>
      </trkpt>
      <trkpt lat="45.67480808123946" lon="17.698826165869832">
        <ele>206.74</ele>
        <time>2023-10-16T18:13:27.371Z</time>
      </trkpt>
      <trkpt lat="45.67481093108654" lon="17.6988139282912">
        <ele>206.96</ele>
        <time>2023-10-16T18:13:30.363Z</time>
      </trkpt>
      <trkpt lat="45.67481336183846" lon="17.698801523074508">
        <ele>207.18</ele>
        <time>2023-10-16T18:13:33.355Z</time>
      </trkpt>
      <trkpt lat="45.674815541133285" lon="17.69878895021975">
        <ele>207.4</ele>
        <time>2023-10-16T18:13:36.347Z</time>
      </trkpt>
      <trkpt lat="45.67481780424714" lon="17.698776377364993">
        <ele>207.62</ele>
        <time>2023-10-16T18:13:39.339Z</time>
      </trkpt>
      <trkpt lat="45.67482015118003" lon="17.698763217777014">
        <ele>207.84</ele>
        <time>2023-10-16T18:13:42.332Z</time>
      </trkpt>
      <trkpt lat="45.67482316866517" lon="17.698749722912908">
        <ele>208.06</ele>
        <time>2023-10-16T18:13:45.325Z</time>
      </trkpt>
      <trkpt lat="45.6748269405216" lon="17.69873572513461">
        <ele>208.28</ele>
        <time>2023-10-16T18:13:48.318Z</time>
      </trkpt>
      <trkpt lat="45.67483129911125" lon="17.698721140623093">
        <ele>208.5</ele>
        <time>2023-10-16T18:13:51.312Z</time>
      </trkpt>
      <trkpt lat="45.67483632825315" lon="17.69870588555932">
        <ele>208.73</ele>
        <time>2023-10-16T18:13:54.306Z</time>
      </trkpt>
      <trkpt lat="45.67484186030924" lon="17.698689540848136">
        <ele>208.96</ele>
        <time>2023-10-16T18:13:57.301Z</time>
      </trkpt>
      <trkpt lat="45.67484797909856" lon="17.698672441765666">
        <ele>209.19</ele>
        <time>2023-10-16T18:14:00.296Z</time>
      </trkpt>
      <trkpt lat="45.67485451698303" lon="17.698654169216752">
        <ele>209.41</ele>
        <time>2023-10-16T18:14:03.292Z</time>
      </trkpt>
      <trkpt lat="45.67486139014363" lon="17.698634807020426">
        <ele>209.64</ele>
        <time>2023-10-16T18:14:06.288Z</time>
      </trkpt>
      <trkpt lat="45.67486868239939" lon="17.69861443899572">
        <ele>209.87</ele>
        <time>2023-10-16T18:14:09.285Z</time>
      </trkpt>
      <trkpt lat="45.67487647756934" lon="17.698593316599727">
        <ele>210.1</ele>
        <time>2023-10-16T18:14:12.282Z</time>
      </trkpt>
      <trkpt lat="45.67488502711058" lon="17.698571691289544">
        <ele>210.33</ele>
        <time>2023-10-16T18:14:15.280Z</time>
      </trkpt>
      <trkpt lat="45.67489391192794" lon="17.698549730703235">
        <ele>210.56</ele>
        <time>2023-10-16T18:14:18.278Z</time>
      </trkpt>
      <trkpt lat="45.67490321584046" lon="17.698527853935957">
        <ele>210.78</ele>
        <time>2023-10-16T18:14:21.277Z</time>
      </trkpt>
      <trkpt lat="45.67491260357201" lon="17.698506647720933">
        <ele>211.01</ele>
        <time>2023-10-16T18:14:24.277Z</time>
      </trkpt>
      <trkpt lat="45.674921572208405" lon="17.698486112058163">
        <ele>211.24</ele>
        <time>2023-10-16T18:14:27.277Z</time>
      </trkpt>
      <trkpt lat="45.674929954111576" lon="17.698466246947646">
        <ele>211.47</ele>
        <time>2023-10-16T18:14:30.278Z</time>
      </trkpt>
      <trkpt lat="45.674937749281526" lon="17.698447052389383">
        <ele>211.7</ele>
        <time>2023-10-16T18:14:33.279Z</time>
      </trkpt>
      <trkpt lat="45.67494487389922" lon="17.698428612202406">
        <ele>211.92</ele>
        <time>2023-10-16T18:14:36.281Z</time>
      </trkpt>
      <trkpt lat="45.6749511603266" lon="17.698411010205746">
        <ele>212.15</ele>
        <time>2023-10-16T18:14:39.283Z</time>
      </trkpt>
      <trkpt lat="45.674956357106566" lon="17.698393743485212">
        <ele>212.37</ele>
        <time>2023-10-16T18:14:42.286Z</time>
      </trkpt>
      <trkpt lat="45.674960212782025" lon="17.6983770634979">
        <ele>212.59</ele>
        <time>2023-10-16T18:14:45.289Z</time>
      </trkpt>
      <trkpt lat="45.67496255971491" lon="17.698361054062843">
        <ele>212.81</ele>
        <time>2023-10-16T18:14:48.292Z</time>
      </trkpt>
      <trkpt lat="45.67496348172426" lon="17.698345379903913">
        <ele>213.03</ele>
        <time>2023-10-16T18:14:51.296Z</time>
      </trkpt>
      <trkpt lat="45.67496297881007" lon="17.69833012484014">
        <ele>213.25</ele>
        <time>2023-10-16T18:14:54.300Z</time>
      </trkpt>
      <trkpt lat="45.67496138624847" lon="17.698314702138305">
        <ele>213.47</ele>
        <time>2023-10-16T18:14:57.304Z</time>
      </trkpt>
      <trkpt lat="45.674959206953645" lon="17.6982993632555">
        <ele>213.68</ele>
        <time>2023-10-16T18:15:00.309Z</time>
      </trkpt>
      <trkpt lat="45.67495686002076" lon="17.69828419201076">
        <ele>213.9</ele>
        <time>2023-10-16T18:15:03.314Z</time>
      </trkpt>
      <trkpt lat="45.67495468072593" lon="17.69826910458505">
        <ele>214.11</ele>
        <time>2023-10-16T18:15:06.320Z</time>
      </trkpt>
      <trkpt lat="45.674952920526266" lon="17.69825393334031">
        <ele>214.32</ele>
        <time>2023-10-16T18:15:09.326Z</time>
      </trkpt>
      <trkpt lat="45.674951830878854" lon="17.698238594457507">
        <ele>214.53</ele>
        <time>2023-10-16T18:15:12.332Z</time>
      </trkpt>
      <trkpt lat="45.67495166324079" lon="17.698223423212767">
        <ele>214.74</ele>
        <time>2023-10-16T18:15:15.339Z</time>
      </trkpt>
      <trkpt lat="45.674952333793044" lon="17.698208084329963">
        <ele>214.95</ele>
        <time>2023-10-16T18:15:18.346Z</time>
      </trkpt>
      <trkpt lat="45.67495392635465" lon="17.698192577809095">
        <ele>215.15</ele>
        <time>2023-10-16T18:15:21.353Z</time>
      </trkpt>
      <trkpt lat="45.6749564409256" lon="17.698176819831133">
        <ele>215.36</ele>
        <time>2023-10-16T18:15:24.361Z</time>
      </trkpt>
      <trkpt lat="45.6749598775059" lon="17.698160810396075">
        <ele>215.56</ele>
        <time>2023-10-16T18:15:27.369Z</time>
      </trkpt>
      <trkpt lat="45.67496398463845" lon="17.698144717141986">
        <ele>215.76</ele>
        <time>2023-10-16T18:15:30.377Z</time>
      </trkpt>
      <trkpt lat="45.67496884614229" lon="17.6981283724308">
        <ele>215.97</ele>
        <time>2023-10-16T18:15:33.386Z</time>
      </trkpt>
      <trkpt lat="45.67497421056032" lon="17.69811177626252">
        <ele>216.16</ele>
        <time>2023-10-16T18:15:36.395Z</time>
      </trkpt>
      <trkpt lat="45.67497999407351" lon="17.69809501245618">
        <ele>216.36</ele>
        <time>2023-10-16T18:15:39.405Z</time>
      </trkpt>
      <trkpt lat="45.67498619668186" lon="17.69807799719274">
        <ele>216.55</ele>
        <time>2023-10-16T18:15:42.415Z</time>
      </trkpt>
      <trkpt lat="45.67499256692827" lon="17.69806081429124">
        <ele>216.75</ele>
        <time>2023-10-16T18:15:45.426Z</time>
      </trkpt>
      <trkpt lat="45.67499918863177" lon="17.69804329611361">
        <ele>216.94</ele>
        <time>2023-10-16T18:15:48.437Z</time>
      </trkpt>
      <trkpt lat="45.67500622943044" lon="17.698025526478887">
        <ele>217.12</ele>
        <time>2023-10-16T18:15:51.449Z</time>
      </trkpt>
      <trkpt lat="45.675013521686196" lon="17.6980075892061">
        <ele>217.31</ele>
        <time>2023-10-16T18:15:54.461Z</time>
      </trkpt>
      <trkpt lat="45.67502106539905" lon="17.69798948429525">
        <ele>217.49</ele>
        <time>2023-10-16T18:15:57.474Z</time>
      </trkpt>
      <trkpt lat="45.67502894438803" lon="17.69797096028924">
        <ele>217.67</ele>
        <time>2023-10-16T18:16:00.487Z</time>
      </trkpt>
      <trkpt lat="45.6750373262912" lon="17.697952101007104">
        <ele>217.85</ele>
        <time>2023-10-16T18:16:03.501Z</time>
      </trkpt>
      <trkpt lat="45.6750460434705" lon="17.697932990267873">
        <ele>218.02</ele>
        <time>2023-10-16T18:16:06.515Z</time>
      </trkpt>
      <trkpt lat="45.675055012106895" lon="17.697913628071547">
        <ele>218.19</ele>
        <time>2023-10-16T18:16:09.530Z</time>
      </trkpt>
      <trkpt lat="45.67506406456232" lon="17.697894014418125">
        <ele>218.36</ele>
        <time>2023-10-16T18:16:12.545Z</time>
      </trkpt>
      <trkpt lat="45.675073117017746" lon="17.69787423312664">
        <ele>218.52</ele>
        <time>2023-10-16T18:16:15.561Z</time>
      </trkpt>
      <trkpt lat="45.67508200183511" lon="17.697854284197092">
        <ele>218.69</ele>
        <time>2023-10-16T18:16:18.577Z</time>
      </trkpt>
      <trkpt lat="45.67509055137634" lon="17.697834335267544">
        <ele>218.85</ele>
        <time>2023-10-16T18:16:21.594Z</time>
      </trkpt>
      <trkpt lat="45.67509884946048" lon="17.697814386337996">
        <ele>219.0</ele>
        <time>2023-10-16T18:16:24.611Z</time>
      </trkpt>
      <trkpt lat="45.67510689608753" lon="17.69779410213232">
        <ele>219.16</ele>
        <time>2023-10-16T18:16:27.629Z</time>
      </trkpt>
      <trkpt lat="45.675114607438445" lon="17.69777348265052">
        <ele>219.3</ele>
        <time>2023-10-16T18:16:30.648Z</time>
      </trkpt>
      <trkpt lat="45.67512181587517" lon="17.697752863168716">
        <ele>219.45</ele>
        <time>2023-10-16T18:16:33.667Z</time>
      </trkpt>
      <trkpt lat="45.675128269940615" lon="17.697732243686914">
        <ele>219.59</ele>
        <time>2023-10-16T18:16:36.687Z</time>
      </trkpt>
      <trkpt lat="45.67513396963477" lon="17.69771154038608">
        <ele>219.73</ele>
        <time>2023-10-16T18:16:39.707Z</time>
      </trkpt>
      <trkpt lat="45.675139082595706" lon="17.69769100472331">
        <ele>219.86</ele>
        <time>2023-10-16T18:16:42.728Z</time>
      </trkpt>
      <trkpt lat="45.67514369264245" lon="17.697670552879572">
        <ele>219.99</ele>
        <time>2023-10-16T18:16:45.749Z</time>
      </trkpt>
      <trkpt lat="45.675147883594036" lon="17.697650101035833">
        <ele>220.11</ele>
        <time>2023-10-16T18:16:48.771Z</time>
      </trkpt>
      <trkpt lat="45.67515165545046" lon="17.697629565373063">
        <ele>220.23</ele>
        <time>2023-10-16T18:16:51.793Z</time>
      </trkpt>
      <trkpt lat="45.675155175849795" lon="17.69760886207223">
        <ele>220.34</ele>
        <time>2023-10-16T18:16:54.816Z</time>
      </trkpt>
      <trkpt lat="45.675158109515905" lon="17.6975879073143">
        <ele>220.45</ele>
        <time>2023-10-16T18:16:57.839Z</time>
      </trkpt>
      <trkpt lat="45.67516028881073" lon="17.697566617280245">
        <ele>220.55</ele>
        <time>2023-10-16T18:17:00.863Z</time>
      </trkpt>
      <trkpt lat="45.675161965191364" lon="17.697545159608126">
        <ele>220.65</ele>
        <time>2023-10-16T18:17:03.887Z</time>
      </trkpt>
      <trkpt lat="45.67516313865781" lon="17.69752345047891">
        <ele>220.75</ele>
        <time>2023-10-16T18:17:06.912Z</time>
      </trkpt>
      <trkpt lat="45.675163976848125" lon="17.697501741349697">
        <ele>220.83</ele>
        <time>2023-10-16T18:17:09.937Z</time>
      </trkpt>
      <trkpt lat="45.67516456358135" lon="17.697480116039515">
        <ele>220.92</ele>
        <time>2023-10-16T18:17:12.963Z</time>
      </trkpt>
      <trkpt lat="45.675164982676506" lon="17.697458742186427">
        <ele>221.0</ele>
        <time>2023-10-16T18:17:15.989Z</time>
      </trkpt>
      <trkpt lat="45.67516531795263" lon="17.697437703609467">
        <ele>221.08</ele>
        <time>2023-10-16T18:17:19.016Z</time>
      </trkpt>
      <trkpt lat="45.675165485590696" lon="17.69741683267057">
        <ele>221.15</ele>
        <time>2023-10-16T18:17:22.043Z</time>
      </trkpt>
      <trkpt lat="45.67516556940973" lon="17.6973962970078">
        <ele>221.22</ele>
        <time>2023-10-16T18:17:25.071Z</time>
      </trkpt>
      <trkpt lat="45.675165485590696" lon="17.697376096621156">
        <ele>221.28</ele>
        <time>2023-10-16T18:17:28.099Z</time>
      </trkpt>
      <trkpt lat="45.675165401771665" lon="17.697356147691607">
        <ele>221.34</ele>
        <time>2023-10-16T18:17:31.128Z</time>
      </trkpt>
      <trkpt lat="45.675165485590696" lon="17.697336617857218">
        <ele>221.4</ele>
        <time>2023-10-16T18:17:34.157Z</time>
      </trkpt>
      <trkpt lat="45.67516573704779" lon="17.697317339479923">
        <ele>221.45</ele>
        <time>2023-10-16T18:17:37.186Z</time>
      </trkpt>
      <trkpt lat="45.67516598850489" lon="17.697297893464565">
        <ele>221.49</ele>
        <time>2023-10-16T18:17:40.216Z</time>
      </trkpt>
      <trkpt lat="45.675166407600045" lon="17.69727861508727">
        <ele>221.54</ele>
        <time>2023-10-16T18:17:43.246Z</time>
      </trkpt>
      <trkpt lat="45.6751670781523" lon="17.697259252890944">
        <ele>221.58</ele>
        <time>2023-10-16T18:17:46.277Z</time>
      </trkpt>
      <trkpt lat="45.675167832523584" lon="17.697239723056555">
        <ele>221.61</ele>
        <time>2023-10-16T18:17:49.308Z</time>
      </trkpt>
      <trkpt lat="45.675168922171" lon="17.697219774127007">
        <ele>221.65</ele>
        <time>2023-10-16T18:17:52.340Z</time>
      </trkpt>
      <trkpt lat="45.675170347094536" lon="17.69719948992133">
        <ele>221.68</ele>
        <time>2023-10-16T18:17:55.372Z</time>
      </trkpt>
      <trkpt lat="45.675172191113234" lon="17.69717887043953">
        <ele>221.7</ele>
        <time>2023-10-16T18:17:58.405Z</time>
      </trkpt>
      <trkpt lat="45.67517437040806" lon="17.6971579156816">
        <ele>221.72</ele>
        <time>2023-10-16T18:18:01.438Z</time>
      </trkpt>
      <trkpt lat="45.67517696879804" lon="17.69713679328561">
        <ele>221.74</ele>
        <time>2023-10-16T18:18:04.472Z</time>
      </trkpt>
      <trkpt lat="45.67517973482609" lon="17.697115503251553">
        <ele>221.76</ele>
        <time>2023-10-16T18:18:07.506Z</time>
      </trkpt>
      <trkpt lat="45.67518275231123" lon="17.697094213217497">
        <ele>221.77</ele>
        <time>2023-10-16T18:18:10.541Z</time>
      </trkpt>
      <trkpt lat="45.67518602125347" lon="17.697073007002473">
        <ele>221.78</ele>
        <time>2023-10-16T18:18:13.576Z</time>
      </trkpt>
      <trkpt lat="45.6751895416528" lon="17.697051633149385">
        <ele>221.78</ele>
        <time>2023-10-16T18:18:16.612Z</time>
      </trkpt>
      <trkpt lat="45.675193229690194" lon="17.697030175477266">
        <ele>221.78</ele>
        <time>2023-10-16T18:18:19.648Z</time>
      </trkpt>
      <trkpt lat="45.67519700154662" lon="17.69700880162418">
        <ele>221.78</ele>
        <time>2023-10-16T18:18:22.685Z</time>
      </trkpt>
      <trkpt lat="45.67520068958402" lon="17.696987511590123">
        <ele>221.78</ele>
        <time>2023-10-16T18:18:25.722Z</time>
      </trkpt>
      <trkpt lat="45.67520412616432" lon="17.696966221556067">
        <ele>221.78</ele>
        <time>2023-10-16T18:18:28.760Z</time>
      </trkpt>
      <trkpt lat="45.67520714364946" lon="17.69694493152201">
        <ele>221.77</ele>
        <time>2023-10-16T18:18:31.798Z</time>
      </trkpt>
      <trkpt lat="45.675209825858474" lon="17.696923473849893">
        <ele>221.76</ele>
        <time>2023-10-16T18:18:34.837Z</time>
      </trkpt>
      <trkpt lat="45.6752120051533" lon="17.696902016177773">
        <ele>221.75</ele>
        <time>2023-10-16T18:18:37.876Z</time>
      </trkpt>
      <trkpt lat="45.675213765352964" lon="17.696880558505654">
        <ele>221.74</ele>
        <time>2023-10-16T18:18:40.916Z</time>
      </trkpt>
      <trkpt lat="45.67521510645747" lon="17.69685876555741">
        <ele>221.72</ele>
        <time>2023-10-16T18:18:43.956Z</time>
      </trkpt>
      <trkpt lat="45.67521602846682" lon="17.696837056428194">
        <ele>221.7</ele>
        <time>2023-10-16T18:18:46.997Z</time>
      </trkpt>
      <trkpt lat="45.67521644756198" lon="17.696815263479948">
        <ele>221.68</ele>
        <time>2023-10-16T18:18:50.038Z</time>
      </trkpt>
      <trkpt lat="45.67521661520004" lon="17.69679338671267">
        <ele>221.66</ele>
        <time>2023-10-16T18:18:53.080Z</time>
      </trkpt>
      <trkpt lat="45.67521636374295" lon="17.69677134230733">
        <ele>221.63</ele>
        <time>2023-10-16T18:18:56.122Z</time>
      </trkpt>
      <trkpt lat="45.67521602846682" lon="17.696749130263925">
        <ele>221.6</ele>
        <time>2023-10-16T18:18:59.165Z</time>
      </trkpt>
      <trkpt lat="45.67521552555263" lon="17.69672683440149">
        <ele>221.57</ele>
        <time>2023-10-16T18:19:02.208Z</time>
      </trkpt>
      <trkpt lat="45.67521502263844" lon="17.69670445472002">
        <ele>221.55</ele>
        <time>2023-10-16T18:19:05.252Z</time>
      </trkpt>
      <trkpt lat="45.67521443590522" lon="17.69668241031468">
        <ele>221.52</ele>
        <time>2023-10-16T18:19:08.296Z</time>
      </trkpt>
      <trkpt lat="45.67521393299103" lon="17.6966605335474">
        <ele>221.49</ele>
        <time>2023-10-16T18:19:11.341Z</time>
      </trkpt>
      <trkpt lat="45.6752135977149" lon="17.69663899205625">
        <ele>221.45</ele>
        <time>2023-10-16T18:19:14.386Z</time>
      </trkpt>
      <trkpt lat="45.67521351389587" lon="17.696617785841227">
        <ele>221.42</ele>
        <time>2023-10-16T18:19:17.432Z</time>
      </trkpt>
      <trkpt lat="45.67521368153393" lon="17.696596831083298">
        <ele>221.39</ele>
        <time>2023-10-16T18:19:20.478Z</time>
      </trkpt>
      <trkpt lat="45.67521401681006" lon="17.696576127782464">
        <ele>221.36</ele>
        <time>2023-10-16T18:19:23.525Z</time>
      </trkpt>
      <trkpt lat="45.675214352086186" lon="17.696555592119694">
        <ele>221.32</ele>
        <time>2023-10-16T18:19:26.572Z</time>
      </trkpt>
      <trkpt lat="45.67521468736231" lon="17.69653530791402">
        <ele>221.29</ele>
        <time>2023-10-16T18:19:29.620Z</time>
      </trkpt>
      <trkpt lat="45.67521468736231" lon="17.696515191346407">
        <ele>221.25</ele>
        <time>2023-10-16T18:19:32.668Z</time>
      </trkpt>
      <trkpt lat="45.67521460354328" lon="17.696494990959764">
        <ele>221.22</ele>
        <time>2023-10-16T18:19:35.717Z</time>
      </trkpt>
      <trkpt lat="45.67521443590522" lon="17.696474874392152">
        <ele>221.18</ele>
        <time>2023-10-16T18:19:38.766Z</time>
      </trkpt>
      <trkpt lat="45.675214352086186" lon="17.69645475782454">
        <ele>221.14</ele>
        <time>2023-10-16T18:19:41.816Z</time>
      </trkpt>
      <trkpt lat="45.675214268267155" lon="17.696434473618865">
        <ele>221.11</ele>
        <time>2023-10-16T18:19:44.866Z</time>
      </trkpt>
      <trkpt lat="45.675214268267155" lon="17.696414105594158">
        <ele>221.07</ele>
        <time>2023-10-16T18:19:47.917Z</time>
      </trkpt>
      <trkpt lat="45.675214268267155" lon="17.69639373756945">
        <ele>221.04</ele>
        <time>2023-10-16T18:19:50.968Z</time>
      </trkpt>
      <trkpt lat="45.675214268267155" lon="17.69637311808765">
        <ele>221.01</ele>
        <time>2023-10-16T18:19:54.020Z</time>
      </trkpt>
      <trkpt lat="45.675214268267155" lon="17.69635207951069">
        <ele>220.97</ele>
        <time>2023-10-16T18:19:57.072Z</time>
      </trkpt>
      <trkpt lat="45.67521443590522" lon="17.69633062183857">
        <ele>220.94</ele>
        <time>2023-10-16T18:20:00.125Z</time>
      </trkpt>
      <trkpt lat="45.675214771181345" lon="17.69630857743323">
        <ele>220.91</ele>
        <time>2023-10-16T18:20:03.178Z</time>
      </trkpt>
      <trkpt lat="45.67521535791457" lon="17.69628611393273">
        <ele>220.87</ele>
        <time>2023-10-16T18:20:06.232Z</time>
      </trkpt>
      <trkpt lat="45.67521611228585" lon="17.696263818070292">
        <ele>220.84</ele>
        <time>2023-10-16T18:20:09.286Z</time>
      </trkpt>
      <trkpt lat="45.675216782838106" lon="17.69624177366495">
        <ele>220.81</ele>
        <time>2023-10-16T18:20:12.341Z</time>
      </trkpt>
      <trkpt lat="45.675217201933265" lon="17.696220315992832">
        <ele>220.78</ele>
        <time>2023-10-16T18:20:15.396Z</time>
      </trkpt>
      <trkpt lat="45.67521736957133" lon="17.69619969651103">
        <ele>220.75</ele>
        <time>2023-10-16T18:20:18.452Z</time>
      </trkpt>
      <trkpt lat="45.67521711811423" lon="17.69618016667664">
        <ele>220.72</ele>
        <time>2023-10-16T18:20:21.508Z</time>
      </trkpt>
      <trkpt lat="45.675216279923916" lon="17.696161726489663">
        <ele>220.69</ele>
        <time>2023-10-16T18:20:24.565Z</time>
      </trkpt>
      <trkpt lat="45.675215190276504" lon="17.696144375950098">
        <ele>220.66</ele>
        <time>2023-10-16T18:20:27.622Z</time>
      </trkpt>
      <trkpt lat="45.675213849171996" lon="17.69612828269601">
        <ele>220.64</ele>
        <time>2023-10-16T18:20:30.679Z</time>
      </trkpt>
      <trkpt lat="45.67521250806749" lon="17.696113530546427">
        <ele>220.61</ele>
        <time>2023-10-16T18:20:33.737Z</time>
      </trkpt>
      <trkpt lat="45.675211334601045" lon="17.696100203320384">
        <ele>220.59</ele>
        <time>2023-10-16T18:20:36.795Z</time>
      </trkpt>
      <trkpt lat="45.675210412591696" lon="17.69608830101788">
        <ele>220.57</ele>
        <time>2023-10-16T18:20:39.853Z</time>
      </trkpt>
      <trkpt lat="45.67521007731557" lon="17.69607748836279">
        <ele>220.55</ele>
        <time>2023-10-16T18:20:42.912Z</time>
      </trkpt>
      <trkpt lat="45.67521058022976" lon="17.696067597717047">
        <ele>220.53</ele>
        <time>2023-10-16T18:20:45.971Z</time>
      </trkpt>
      <trkpt lat="45.67521208897233" lon="17.69605854526162">
        <ele>220.51</ele>
        <time>2023-10-16T18:20:49.030Z</time>
      </trkpt>
      <trkpt lat="45.67521460354328" lon="17.696049995720387">
        <ele>220.5</ele>
        <time>2023-10-16T18:20:52.089Z</time>
      </trkpt>
      <trkpt lat="45.67521854303777" lon="17.6960423681885">
        <ele>220.48</ele>
        <time>2023-10-16T18:20:55.148Z</time>
      </trkpt>
      <trkpt lat="45.67522373981774" lon="17.69603591412306">
        <ele>220.47</ele>
        <time>2023-10-16T18:20:58.208Z</time>
      </trkpt>
      <trkpt lat="45.67523019388318" lon="17.696031220257282">
        <ele>220.46</ele>
        <time>2023-10-16T18:21:01.268Z</time>
      </trkpt>
      <trkpt lat="45.675237737596035" lon="17.696028538048267">
        <ele>220.45</ele>
        <time>2023-10-16T18:21:04.328Z</time>
      </trkpt>
      <trkpt lat="45.67524620331824" lon="17.696028035134077">
        <ele>220.45</ele>
        <time>2023-10-16T18:21:07.389Z</time>
      </trkpt>
      <trkpt lat="45.67525525577366" lon="17.696029376238585">
        <ele>220.44</ele>
        <time>2023-10-16T18:21:10.450Z</time>
      </trkpt>
      <trkpt lat="45.67526472732425" lon="17.696032393723726">
        <ele>220.44</ele>
        <time>2023-10-16T18:21:13.511Z</time>
      </trkpt>
      <trkpt lat="45.675274450331926" lon="17.696037087589502">
        <ele>220.44</ele>
        <time>2023-10-16T18:21:16.572Z</time>
      </trkpt>
      <trkpt lat="45.67528400570154" lon="17.69604329019785">
        <ele>220.44</ele>
        <time>2023-10-16T18:21:19.634Z</time>
      </trkpt>
      <trkpt lat="45.67529364489019" lon="17.696051001548767">
        <ele>220.45</ele>
        <time>2023-10-16T18:21:22.696Z</time>
      </trkpt>
      <trkpt lat="45.67530286498368" lon="17.696060305461287">
        <ele>220.45</ele>
        <time>2023-10-16T18:21:25.759Z</time>
      </trkpt>
      <trkpt lat="45.67531166598201" lon="17.696071034297347">
        <ele>220.46</ele>
        <time>2023-10-16T18:21:28.822Z</time>
      </trkpt>
      <trkpt lat="45.67531996406615" lon="17.696082768961787">
        <ele>220.48</ele>
        <time>2023-10-16T18:21:31.885Z</time>
      </trkpt>
      <trkpt lat="45.67532784305513" lon="17.696095257997513">
        <ele>220.49</ele>
        <time>2023-10-16T18:21:34.949Z</time>
      </trkpt>
      <trkpt lat="45.67533530294895" lon="17.69610824994743">
        <ele>220.51</ele>
        <time>2023-10-16T18:21:38.013Z</time>
      </trkpt>
      <trkpt lat="45.675342343747616" lon="17.696121744811535">
        <ele>220.52</ele>
        <time>2023-10-16T18:21:41.078Z</time>
      </trkpt>
      <trkpt lat="45.675349133089185" lon="17.69613574258983">
        <ele>220.55</ele>
        <time>2023-10-16T18:21:44.143Z</time>
      </trkpt>
      <trkpt lat="45.67535567097366" lon="17.69615041092038">
        <ele>220.57</ele>
        <time>2023-10-16T18:21:47.208Z</time>
      </trkpt>
      <trkpt lat="45.67536195740104" lon="17.696165833622217">
        <ele>220.6</ele>
        <time>2023-10-16T18:21:50.274Z</time>
      </trkpt>
      <trkpt lat="45.67536799237132" lon="17.69618201069534">
        <ele>220.63</ele>
        <time>2023-10-16T18:21:53.340Z</time>
      </trkpt>
      <trkpt lat="45.67537385970354" lon="17.69619877450168">
        <ele>220.66</ele>
        <time>2023-10-16T18:21:56.407Z</time>
      </trkpt>
      <trkpt lat="45.67537964321673" lon="17.69621587358415">
        <ele>220.7</ele>
        <time>2023-10-16T18:21:59.474Z</time>
      </trkpt>
      <trkpt lat="45.67538551054895" lon="17.69623297266662">
        <ele>220.73</ele>
        <time>2023-10-16T18:22:02.541Z</time>
      </trkpt>
      <trkpt lat="45.67539137788117" lon="17.69624998793006">
        <ele>220.78</ele>
        <time>2023-10-16T18:22:05.609Z</time>
      </trkpt>
      <trkpt lat="45.67539724521339" lon="17.696266919374466">
        <ele>220.82</ele>
        <time>2023-10-16T18:22:08.677Z</time>
      </trkpt>
      <trkpt lat="45.67540319636464" lon="17.696283850818872">
        <ele>220.87</ele>
        <time>2023-10-16T18:22:11.746Z</time>
      </trkpt>
      <trkpt lat="45.67540914751589" lon="17.69630078226328">
        <ele>220.91</ele>
        <time>2023-10-16T18:22:14.815Z</time>
      </trkpt>
      <trkpt lat="45.67541518248618" lon="17.69631796516478">
        <ele>220.97</ele>
        <time>2023-10-16T18:22:17.885Z</time>
      </trkpt>
      <trkpt lat="45.675421468913555" lon="17.696334896609187">
        <ele>221.02</ele>
        <time>2023-10-16T18:22:20.955Z</time>
      </trkpt>
      <trkpt lat="45.67542809061706" lon="17.696351744234562">
        <ele>221.08</ele>
        <time>2023-10-16T18:22:24.026Z</time>
      </trkpt>
      <trkpt lat="45.67543496377766" lon="17.69636834040284">
        <ele>221.14</ele>
        <time>2023-10-16T18:22:27.097Z</time>
      </trkpt>
      <trkpt lat="45.67544217221439" lon="17.696384768933058">
        <ele>221.2</ele>
        <time>2023-10-16T18:22:30.169Z</time>
      </trkpt>
      <trkpt lat="45.67544954828918" lon="17.69640102982521">
        <ele>221.26</ele>
        <time>2023-10-16T18:22:33.241Z</time>
      </trkpt>
      <trkpt lat="45.67545684054494" lon="17.696417458355427">
        <ele>221.33</ele>
        <time>2023-10-16T18:22:36.313Z</time>
      </trkpt>
      <trkpt lat="45.67546421661973" lon="17.696433886885643">
        <ele>221.4</ele>
        <time>2023-10-16T18:22:39.386Z</time>
      </trkpt>
      <trkpt lat="45.67547142505646" lon="17.696450566872954">
        <ele>221.47</ele>
        <time>2023-10-16T18:22:42.459Z</time>
      </trkpt>
      <trkpt lat="45.675478633493185" lon="17.696467330679297">
        <ele>221.55</ele>
        <time>2023-10-16T18:22:45.533Z</time>
      </trkpt>
      <trkpt lat="45.67548584192991" lon="17.69648409448564">
        <ele>221.63</ele>
        <time>2023-10-16T18:22:48.607Z</time>
      </trkpt>
      <trkpt lat="45.67549288272858" lon="17.696501277387142">
        <ele>221.71</ele>
        <time>2023-10-16T18:22:51.682Z</time>
      </trkpt>
      <trkpt lat="45.675499672070146" lon="17.696519047021866">
        <ele>221.8</ele>
        <time>2023-10-16T18:22:54.757Z</time>
      </trkpt>
      <trkpt lat="45.67550629377365" lon="17.696537487208843">
        <ele>221.89</ele>
        <time>2023-10-16T18:22:57.833Z</time>
      </trkpt>
      <trkpt lat="45.67551274783909" lon="17.696556765586138">
        <ele>221.97</ele>
        <time>2023-10-16T18:23:00.909Z</time>
      </trkpt>
      <trkpt lat="45.675519118085504" lon="17.696576546877623">
        <ele>222.07</ele>
        <time>2023-10-16T18:23:03.986Z</time>
      </trkpt>
      <trkpt lat="45.675525572150946" lon="17.696596579626203">
        <ele>222.16</ele>
        <time>2023-10-16T18:23:07.063Z</time>
      </trkpt>
      <trkpt lat="45.67553211003542" lon="17.696616696193814">
        <ele>222.25</ele>
        <time>2023-10-16T18:23:10.141Z</time>
      </trkpt>
      <trkpt lat="45.675538731738925" lon="17.696636645123363">
        <ele>222.35</ele>
        <time>2023-10-16T18:23:13.219Z</time>
      </trkpt>
      <trkpt lat="45.67554543726146" lon="17.696656342595816">
        <ele>222.45</ele>
        <time>2023-10-16T18:23:16.298Z</time>
      </trkpt>
      <trkpt lat="45.675552142784" lon="17.696675788611174">
        <ele>222.55</ele>
        <time>2023-10-16T18:23:19.377Z</time>
      </trkpt>
      <trkpt lat="45.67555893212557" lon="17.696695066988468">
        <ele>222.65</ele>
        <time>2023-10-16T18:23:22.457Z</time>
      </trkpt>
      <trkpt lat="45.675565637648106" lon="17.696714596822858">
        <ele>222.75</ele>
        <time>2023-10-16T18:23:25.537Z</time>
      </trkpt>
      <trkpt lat="45.675572426989675" lon="17.696734378114343">
        <ele>222.85</ele>
        <time>2023-10-16T18:23:28.618Z</time>
      </trkpt>
      <trkpt lat="45.67557921633124" lon="17.69675474613905">
        <ele>222.95</ele>
        <time>2023-10-16T18:23:31.699Z</time>
      </trkpt>
      <trkpt lat="45.67558583803475" lon="17.696775868535042">
        <ele>223.06</ele>
        <time>2023-10-16T18:23:34.781Z</time>
      </trkpt>
      <trkpt lat="45.675592459738255" lon="17.696798415854573">
        <ele>223.16</ele>
        <time>2023-10-16T18:23:37.863Z</time>
      </trkpt>
      <trkpt lat="45.675598829984665" lon="17.696822555735707">
        <ele>223.27</ele>
        <time>2023-10-16T18:23:40.946Z</time>
      </trkpt>
      <trkpt lat="45.67560494877398" lon="17.696848455816507">
        <ele>223.38</ele>
        <time>2023-10-16T18:23:44.030Z</time>
      </trkpt>
      <trkpt lat="45.6756108161062" lon="17.6968764513731">
        <ele>223.49</ele>
        <time>2023-10-16T18:23:47.114Z</time>
      </trkpt>
      <trkpt lat="45.67561626434326" lon="17.696906458586454">
        <ele>223.6</ele>
        <time>2023-10-16T18:23:50.199Z</time>
      </trkpt>
      <trkpt lat="45.675621377304196" lon="17.696938225999475">
        <ele>223.71</ele>
        <time>2023-10-16T18:23:53.285Z</time>
      </trkpt>
      <trkpt lat="45.67562607116997" lon="17.696971502155066">
        <ele>223.81</ele>
        <time>2023-10-16T18:23:56.372Z</time>
      </trkpt>
      <trkpt lat="45.67563034594059" lon="17.69700586795807">
        <ele>223.92</ele>
        <time>2023-10-16T18:23:59.459Z</time>
      </trkpt>
      <trkpt lat="45.67563420161605" lon="17.697041323408484">
        <ele>224.04</ele>
        <time>2023-10-16T18:24:02.547Z</time>
      </trkpt>
      <trkpt lat="45.67563763819635" lon="17.69707770086825">
        <ele>224.15</ele>
        <time>2023-10-16T18:24:05.636Z</time>
      </trkpt>
      <trkpt lat="45.675640823319554" lon="17.69711491651833">
        <ele>224.26</ele>
        <time>2023-10-16T18:24:08.726Z</time>
      </trkpt>
      <trkpt lat="45.675643756985664" lon="17.69715246744454">
        <ele>224.36</ele>
        <time>2023-10-16T18:24:11.817Z</time>
      </trkpt>
      <trkpt lat="45.675646271556616" lon="17.69719018600881">
        <ele>224.47</ele>
        <time>2023-10-16T18:24:14.909Z</time>
      </trkpt>
      <trkpt lat="45.675648618489504" lon="17.697228072211146">
        <ele>224.58</ele>
        <time>2023-10-16T18:24:18.002Z</time>
      </trkpt>
      <trkpt lat="45.6756507139653" lon="17.697265706956387">
        <ele>224.69</ele>
        <time>2023-10-16T18:24:21.096Z</time>
      </trkpt>
      <trkpt lat="45.67565272562206" lon="17.69730309024453">
        <ele>224.79</ele>
        <time>2023-10-16T18:24:24.190Z</time>
      </trkpt>
      <trkpt lat="45.675654485821724" lon="17.69734055735171">
        <ele>224.9</ele>
        <time>2023-10-16T18:24:27.285Z</time>
      </trkpt>
      <trkpt lat="45.67565591074526" lon="17.697378024458885">
        <ele>225.0</ele>
        <time>2023-10-16T18:24:30.381Z</time>
      </trkpt>
      <trkpt lat="45.675657000392675" lon="17.697415575385094">
        <ele>225.1</ele>
        <time>2023-10-16T18:24:33.478Z</time>
      </trkpt>
      <trkpt lat="45.6756575871259" lon="17.69745295867324">
        <ele>225.21</ele>
        <time>2023-10-16T18:24:36.576Z</time>
      </trkpt>
      <trkpt lat="45.675657503306866" lon="17.697490006685257">
        <ele>225.3</ele>
        <time>2023-10-16T18:24:39.675Z</time>
      </trkpt>
      <trkpt lat="45.67565674893558" lon="17.69752671942115">
        <ele>225.4</ele>
        <time>2023-10-16T18:24:42.775Z</time>
      </trkpt>
      <trkpt lat="45.67565532401204" lon="17.697563264518976">
        <ele>225.5</ele>
        <time>2023-10-16T18:24:45.876Z</time>
      </trkpt>
      <trkpt lat="45.675653060898185" lon="17.697599809616804">
        <ele>225.59</ele>
        <time>2023-10-16T18:24:48.977Z</time>
      </trkpt>
      <trkpt lat="45.67564995959401" lon="17.697636606171727">
        <ele>225.68</ele>
        <time>2023-10-16T18:24:52.079Z</time>
      </trkpt>
      <trkpt lat="45.67564593628049" lon="17.69767382182181">
        <ele>225.76</ele>
        <time>2023-10-16T18:24:55.182Z</time>
      </trkpt>
      <trkpt lat="45.67564107477665" lon="17.697711372748017">
        <ele>225.85</ele>
        <time>2023-10-16T18:24:58.286Z</time>
      </trkpt>
      <trkpt lat="45.67563562653959" lon="17.697749007493258">
        <ele>225.93</ele>
        <time>2023-10-16T18:25:01.391Z</time>
      </trkpt>
      <trkpt lat="45.6756298430264" lon="17.697786642238498">
        <ele>226.02</ele>
        <time>2023-10-16T18:25:04.497Z</time>
      </trkpt>
      <trkpt lat="45.675623724237084" lon="17.697824025526643">
        <ele>226.1</ele>
        <time>2023-10-16T18:25:07.604Z</time>
      </trkpt>
      <trkpt lat="45.67561777308583" lon="17.69786149263382">
        <ele>226.17</ele>
        <time>2023-10-16T18:25:10.712Z</time>
      </trkpt>
      <trkpt lat="45.67561215721071" lon="17.697898792102933">
        <ele>226.25</ele>
        <time>2023-10-16T18:25:13.821Z</time>
      </trkpt>
      <trkpt lat="45.67560721188784" lon="17.697935672476888">
        <ele>226.32</ele>
        <time>2023-10-16T18:25:16.930Z</time>
      </trkpt>
      <trkpt lat="45.67560293711722" lon="17.69797188229859">
        <ele>226.39</ele>
        <time>2023-10-16T18:25:20.040Z</time>
      </trkpt>
      <trkpt lat="45.675599835813046" lon="17.6980075892061">
        <ele>226.46</ele>
        <time>2023-10-16T18:25:23.151Z</time>
      </trkpt>
      <trkpt lat="45.67559815943241" lon="17.69804229028523">
        <ele>226.53</ele>
        <time>2023-10-16T18:25:26.263Z</time>
      </trkpt>
      <trkpt lat="45.67559807561338" lon="17.698075901716948">
        <ele>226.6</ele>
        <time>2023-10-16T18:25:29.376Z</time>
      </trkpt>
      <trkpt lat="45.675599751994014" lon="17.698108088225126">
        <ele>226.67</ele>
        <time>2023-10-16T18:25:32.489Z</time>
      </trkpt>
      <trkpt lat="45.67560335621238" lon="17.698139268904924">
        <ele>226.74</ele>
        <time>2023-10-16T18:25:35.603Z</time>
      </trkpt>
      <trkpt lat="45.6756089720875" lon="17.698169192299247">
        <ele>226.8</ele>
        <time>2023-10-16T18:25:38.718Z</time>
      </trkpt>
      <trkpt lat="45.675616431981325" lon="17.698197942227125">
        <ele>226.87</ele>
        <time>2023-10-16T18:25:41.834Z</time>
      </trkpt>
      <trkpt lat="45.67562556825578" lon="17.69822501577437">
        <ele>226.93</ele>
        <time>2023-10-16T18:25:44.950Z</time>
      </trkpt>
      <trkpt lat="45.67563621327281" lon="17.698250580579042">
        <ele>227.0</ele>
        <time>2023-10-16T18:25:48.067Z</time>
      </trkpt>
      <trkpt lat="45.67564836703241" lon="17.698275055736303">
        <ele>227.06</ele>
        <time>2023-10-16T18:25:51.185Z</time>
      </trkpt>
      <trkpt lat="45.675661861896515" lon="17.698298608884215">
        <ele>227.12</ele>
        <time>2023-10-16T18:25:54.303Z</time>
      </trkpt>
      <trkpt lat="45.675676362589" lon="17.69832090474665">
        <ele>227.19</ele>
        <time>2023-10-16T18:25:57.422Z</time>
      </trkpt>
      <trkpt lat="45.6756919529289" lon="17.698342110961676">
        <ele>227.25</ele>
        <time>2023-10-16T18:26:00.542Z</time>
      </trkpt>
      <trkpt lat="45.675708297640085" lon="17.698362562805414">
        <ele>227.31</ele>
        <time>2023-10-16T18:26:03.663Z</time>
      </trkpt>
      <trkpt lat="45.67572556436062" lon="17.698382511734962">
        <ele>227.36</ele>
        <time>2023-10-16T18:26:06.784Z</time>
      </trkpt>
      <trkpt lat="45.67574325017631" lon="17.698401790112257">
        <ele>227.42</ele>
        <time>2023-10-16T18:26:09.906Z</time>
      </trkpt>
      <trkpt lat="45.67576135508716" lon="17.698420733213425">
        <ele>227.48</ele>
        <time>2023-10-16T18:26:13.029Z</time>
      </trkpt>
      <trkpt lat="45.675779627636075" lon="17.69843959249556">
        <ele>227.54</ele>
        <time>2023-10-16T18:26:16.153Z</time>
      </trkpt>
      <trkpt lat="45.67579831928015" lon="17.69845853559673">
        <ele>227.59</ele>
        <time>2023-10-16T18:26:19.277Z</time>
      </trkpt>
      <trkpt lat="45.67581734620035" lon="17.698477813974023">
        <ele>227.64</ele>
        <time>2023-10-16T18:26:22.402Z</time>
      </trkpt>
      <trkpt lat="45.67583645693958" lon="17.69849717617035">
        <ele>227.69</ele>
        <time>2023-10-16T18:26:25.528Z</time>
      </trkpt>
      <trkpt lat="45.67585556767881" lon="17.698516873642802">
        <ele>227.74</ele>
        <time>2023-10-16T18:26:28.655Z</time>
      </trkpt>
      <trkpt lat="45.67587467841804" lon="17.698537074029446">
        <ele>227.79</ele>
        <time>2023-10-16T18:26:31.782Z</time>
      </trkpt>
      <trkpt lat="45.67589378915727" lon="17.69855786114931">
        <ele>227.83</ele>
        <time>2023-10-16T18:26:34.910Z</time>
      </trkpt>
      <trkpt lat="45.67591264843941" lon="17.6985792350024">
        <ele>227.86</ele>
        <time>2023-10-16T18:26:38.039Z</time>
      </trkpt>
      <trkpt lat="45.675931088626385" lon="17.698601111769676">
        <ele>227.89</ele>
        <time>2023-10-16T18:26:41.169Z</time>
      </trkpt>
      <trkpt lat="45.675949193537235" lon="17.69862323999405">
        <ele>227.92</ele>
        <time>2023-10-16T18:26:44.300Z</time>
      </trkpt>
      <trkpt lat="45.67596687935293" lon="17.698645535856485">
        <ele>227.95</ele>
        <time>2023-10-16T18:26:47.431Z</time>
      </trkpt>
      <trkpt lat="45.67598406225443" lon="17.69866825081408">
        <ele>227.97</ele>
        <time>2023-10-16T18:26:50.563Z</time>
      </trkpt>
      <trkpt lat="45.67600057460368" lon="17.69869163632393">
        <ele>227.99</ele>
        <time>2023-10-16T18:26:53.696Z</time>
      </trkpt>
      <trkpt lat="45.67601624876261" lon="17.698716362938285">
        <ele>228.01</ele>
        <time>2023-10-16T18:26:56.830Z</time>
      </trkpt>
      <trkpt lat="45.67603108473122" lon="17.69874243065715">
        <ele>228.03</ele>
        <time>2023-10-16T18:26:59.965Z</time>
      </trkpt>
      <trkpt lat="45.676044998690486" lon="17.698770090937614">
        <ele>228.05</ele>
        <time>2023-10-16T18:27:03.100Z</time>
      </trkpt>
      <trkpt lat="45.67605773918331" lon="17.698798924684525">
        <ele>228.06</ele>
        <time>2023-10-16T18:27:06.236Z</time>
      </trkpt>
      <trkpt lat="45.67606955766678" lon="17.698828764259815">
        <ele>228.07</ele>
        <time>2023-10-16T18:27:09.373Z</time>
      </trkpt>
      <trkpt lat="45.67608028650284" lon="17.698859190568328">
        <ele>228.08</ele>
        <time>2023-10-16T18:27:12.511Z</time>
      </trkpt>
      <trkpt lat="45.676089925691485" lon="17.69889011979103">
        <ele>228.08</ele>
        <time>2023-10-16T18:27:15.650Z</time>
      </trkpt>
      <trkpt lat="45.676098726689816" lon="17.698921468108892">
        <ele>228.08</ele>
        <time>2023-10-16T18:27:18.789Z</time>
      </trkpt>
      <trkpt lat="45.67610668949783" lon="17.698952900245786">
        <ele>228.08</ele>
        <time>2023-10-16T18:27:21.929Z</time>
      </trkpt>
      <trkpt lat="45.676114400848746" lon="17.698983661830425">
        <ele>228.08</ele>
        <time>2023-10-16T18:27:25.070Z</time>
      </trkpt>
      <trkpt lat="45.676121693104506" lon="17.699012914672494">
        <ele>228.08</ele>
        <time>2023-10-16T18:27:28.212Z</time>
      </trkpt>
      <trkpt lat="45.67612890154123" lon="17.699039485305548">
        <ele>228.07</ele>
        <time>2023-10-16T18:27:31.354Z</time>
      </trkpt>
      <trkpt lat="45.67613610997796" lon="17.699062703177333">
        <ele>228.07</ele>
        <time>2023-10-16T18:27:34.497Z</time>
      </trkpt>
      <trkpt lat="45.67614340223372" lon="17.69908265210688">
        <ele>228.06</ele>
        <time>2023-10-16T18:27:37.640Z</time>
      </trkpt>
      <trkpt lat="45.67615086212754" lon="17.69909975118935">
        <ele>228.05</ele>
        <time>2023-10-16T18:27:40.784Z</time>
      </trkpt>
      <trkpt lat="45.67615857347846" lon="17.699114168062806">
        <ele>228.05</ele>
        <time>2023-10-16T18:27:43.928Z</time>
      </trkpt>
      <trkpt lat="45.67616645246744" lon="17.699126321822405">
        <ele>228.04</ele>
        <time>2023-10-16T18:27:47.073Z</time>
      </trkpt>
      <trkpt lat="45.67617466673255" lon="17.699136715382338">
        <ele>228.02</ele>
        <time>2023-10-16T18:27:50.218Z</time>
      </trkpt>
      <trkpt lat="45.67618288099766" lon="17.699145767837763">
        <ele>228.01</ele>
        <time>2023-10-16T18:27:53.363Z</time>
      </trkpt>
      <trkpt lat="45.676191011443734" lon="17.69915398210287">
        <ele>228.0</ele>
        <time>2023-10-16T18:27:56.509Z</time>
      </trkpt>
      <trkpt lat="45.67619872279465" lon="17.699162028729916">
        <ele>227.99</ele>
        <time>2023-10-16T18:27:59.655Z</time>
      </trkpt>
      <trkpt lat="45.676206182688475" lon="17.69917049445212">
        <ele>227.98</ele>
        <time>2023-10-16T18:28:02.801Z</time>
      </trkpt>
      <trkpt lat="45.676212972030044" lon="17.69917979836464">
        <ele>227.96</ele>
        <time>2023-10-16T18:28:05.948Z</time>
      </trkpt>
      <trkpt lat="45.67621917463839" lon="17.69919061101973">
        <ele>227.95</ele>
        <time>2023-10-16T18:28:09.095Z</time>
      </trkpt>
      <trkpt lat="45.676224790513515" lon="17.69920234568417">
        <ele>227.94</ele>
        <time>2023-10-16T18:28:12.242Z</time>
      </trkpt>
      <trkpt lat="45.676229652017355" lon="17.69921500235796">
        <ele>227.93</ele>
        <time>2023-10-16T18:28:15.390Z</time>
      </trkpt>
      <trkpt lat="45.676234094426036" lon="17.699228413403034">
        <ele>227.92</ele>
        <time>2023-10-16T18:28:18.538Z</time>
      </trkpt>
      <trkpt lat="45.67623811773956" lon="17.699242662638426">
        <ele>227.92</ele>
        <time>2023-10-16T18:28:21.686Z</time>
      </trkpt>
      <trkpt lat="45.676241805776954" lon="17.699257414788008">
        <ele>227.91</ele>
        <time>2023-10-16T18:28:24.835Z</time>
      </trkpt>
      <trkpt lat="45.67624549381435" lon="17.69927266985178">
        <ele>227.9</ele>
        <time>2023-10-16T18:28:27.984Z</time>
      </trkpt>
      <trkpt lat="45.67624909803271" lon="17.699288008734584">
        <ele>227.9</ele>
        <time>2023-10-16T18:28:31.133Z</time>
      </trkpt>
      <trkpt lat="45.676252618432045" lon="17.699303599074483">
        <ele>227.9</ele>
        <time>2023-10-16T18:28:34.283Z</time>
      </trkpt>
      <trkpt lat="45.67625630646944" lon="17.699319273233414">
        <ele>227.9</ele>
        <time>2023-10-16T18:28:37.433Z</time>
      </trkpt>
      <trkpt lat="45.67626024596393" lon="17.699335450306535">
        <ele>227.9</ele>
        <time>2023-10-16T18:28:40.584Z</time>
      </trkpt>
      <trkpt lat="45.67626452073455" lon="17.699351627379656">
        <ele>227.91</ele>
        <time>2023-10-16T18:28:43.735Z</time>
      </trkpt>
      <trkpt lat="45.67626913078129" lon="17.699368223547935">
        <ele>227.92</ele>
        <time>2023-10-16T18:28:46.886Z</time>
      </trkpt>
      <trkpt lat="45.67627424374223" lon="17.69938498735428">
        <ele>227.93</ele>
        <time>2023-10-16T18:28:50.038Z</time>
      </trkpt>
      <trkpt lat="45.67627977579832" lon="17.699402002617717">
        <ele>227.94</ele>
        <time>2023-10-16T18:28:53.190Z</time>
      </trkpt>
      <trkpt lat="45.67628564313054" lon="17.69941918551922">
        <ele>227.96</ele>
        <time>2023-10-16T18:28:56.343Z</time>
      </trkpt>
      <trkpt lat="45.676291678100824" lon="17.699436452239752">
        <ele>227.98</ele>
        <time>2023-10-16T18:28:59.496Z</time>
      </trkpt>
      <trkpt lat="45.67629788070917" lon="17.699453802779317">
        <ele>228.0</ele>
        <time>2023-10-16T18:29:02.650Z</time>
      </trkpt>
      <trkpt lat="45.67630433477461" lon="17.699471237137914">
        <ele>228.03</ele>
        <time>2023-10-16T18:29:05.804Z</time>
      </trkpt>
      <trkpt lat="45.67631095647812" lon="17.699488755315542">
        <ele>228.06</ele>
        <time>2023-10-16T18:29:08.959Z</time>
      </trkpt>
      <trkpt lat="45.676317578181624" lon="17.699505854398012">
        <ele>228.1</ele>
        <time>2023-10-16T18:29:12.114Z</time>
      </trkpt>
      <trkpt lat="45.67632403224707" lon="17.699522534385324">
        <ele>228.14</ele>
        <time>2023-10-16T18:29:15.270Z</time>
      </trkpt>
      <trkpt lat="45.67633023485541" lon="17.699538879096508">
        <ele>228.18</ele>
        <time>2023-10-16T18:29:18.426Z</time>
      </trkpt>
      <trkpt lat="45.6763360183686" lon="17.69955505616963">
        <ele>228.23</ele>
        <time>2023-10-16T18:29:21.582Z</time>
      </trkpt>
      <trkpt lat="45.67634163424373" lon="17.69957081414759">
        <ele>228.29</ele>
        <time>2023-10-16T18:29:24.739Z</time>
      </trkpt>
      <trkpt lat="45.67634708248079" lon="17.69958632066846">
        <ele>228.35</ele>
        <time>2023-10-16T18:29:27.896Z</time>
      </trkpt>
      <trkpt lat="45.67635253071785" lon="17.6996014919132">
        <ele>228.41</ele>
        <time>2023-10-16T18:29:31.054Z</time>
      </trkpt>
      <trkpt lat="45.67635789513588" lon="17.699616327881813">
        <ele>228.48</ele>
        <time>2023-10-16T18:29:34.212Z</time>
      </trkpt>
      <trkpt lat="45.67636342719197" lon="17.699630744755268">
        <ele>228.55</ele>
        <time>2023-10-16T18:29:37.370Z</time>
      </trkpt>
      <trkpt lat="45.676368959248066" lon="17.699644910171628">
        <ele>228.63</ele>
        <time>2023-10-16T18:29:40.529Z</time>
      </trkpt>
      <trkpt lat="45.67637465894222" lon="17.69965874031186">
        <ele>228.72</ele>
        <time>2023-10-16T18:29:43.688Z</time>
      </trkpt>
      <trkpt lat="45.67638044245541" lon="17.69967282190919">
        <ele>228.81</ele>
        <time>2023-10-16T18:29:46.848Z</time>
      </trkpt>
      <trkpt lat="45.676386477425694" lon="17.699686903506517">
        <ele>228.9</ele>
        <time>2023-10-16T18:29:50.008Z</time>
      </trkpt>
      <trkpt lat="45.67639268003404" lon="17.69970115274191">
        <ele>229.0</ele>
        <time>2023-10-16T18:29:53.168Z</time>
      </trkpt>
      <trkpt lat="45.67639896646142" lon="17.699715485796332">
        <ele>229.1</ele>
        <time>2023-10-16T18:29:56.329Z</time>
      </trkpt>
      <trkpt lat="45.67640516906977" lon="17.699730237945914">
        <ele>229.21</ele>
        <time>2023-10-16T18:29:59.490Z</time>
      </trkpt>
      <trkpt lat="45.67641128785908" lon="17.69974566064775">
        <ele>229.33</ele>
        <time>2023-10-16T18:30:02.652Z</time>
      </trkpt>
      <trkpt lat="45.676417322829366" lon="17.699762089177966">
        <ele>229.45</ele>
        <time>2023-10-16T18:30:05.814Z</time>
      </trkpt>
      <trkpt lat="45.676423106342554" lon="17.69977943971753">
        <ele>229.58</ele>
        <time>2023-10-16T18:30:08.976Z</time>
      </trkpt>
      <trkpt lat="45.67642863839865" lon="17.69979796372354">
        <ele>229.71</ele>
        <time>2023-10-16T18:30:12.139Z</time>
      </trkpt>
      <trkpt lat="45.67643408663571" lon="17.69981791265309">
        <ele>229.85</ele>
        <time>2023-10-16T18:30:15.302Z</time>
      </trkpt>
      <trkpt lat="45.676439283415675" lon="17.69983945414424">
        <ele>230.0</ele>
        <time>2023-10-16T18:30:18.466Z</time>
      </trkpt>
      <trkpt lat="45.67644456401467" lon="17.699862336739898">
        <ele>230.15</ele>
        <time>2023-10-16T18:30:21.630Z</time>
      </trkpt>
      <trkpt lat="45.67644967697561" lon="17.699886392802">
        <ele>230.3</ele>
        <time>2023-10-16T18:30:24.795Z</time>
      </trkpt>
      <trkpt lat="45.67645478993654" lon="17.699911119416356">
        <ele>230.46</ele>
        <time>2023-10-16T18:30:27.961Z</time>
      </trkpt>
      <trkpt lat="45.67646007053554" lon="17.699936432763934">
        <ele>230.63</ele>
        <time>2023-10-16T18:30:31.127Z</time>
      </trkpt>
      <trkpt lat="45.67646543495357" lon="17.699961829930544">
        <ele>230.8</ele>
        <time>2023-10-16T18:30:34.294Z</time>
      </trkpt>
      <trkpt lat="45.67647088319063" lon="17.69998705945909">
        <ele>230.97</ele>
        <time>2023-10-16T18:30:37.462Z</time>
      </trkpt>
      <trkpt lat="45.67647633142769" lon="17.700011618435383">
        <ele>231.15</ele>
        <time>2023-10-16T18:30:40.630Z</time>
      </trkpt>
      <trkpt lat="45.67648186348379" lon="17.70003550685942">
        <ele>231.34</ele>
        <time>2023-10-16T18:30:43.799Z</time>
      </trkpt>
      <trkpt lat="45.676487227901816" lon="17.70005830563605">
        <ele>231.53</ele>
        <time>2023-10-16T18:30:46.968Z</time>
      </trkpt>
      <trkpt lat="45.67649275995791" lon="17.700079679489136">
        <ele>231.72</ele>
        <time>2023-10-16T18:30:50.138Z</time>
      </trkpt>
      <trkpt lat="45.676498459652066" lon="17.700099628418684">
        <ele>231.91</ele>
        <time>2023-10-16T18:30:53.308Z</time>
      </trkpt>
      <trkpt lat="45.676504243165255" lon="17.70011840388179">
        <ele>232.11</ele>
        <time>2023-10-16T18:30:56.479Z</time>
      </trkpt>
      <trkpt lat="45.67651002667844" lon="17.700136341154575">
        <ele>232.31</ele>
        <time>2023-10-16T18:30:59.650Z</time>
      </trkpt>
      <trkpt lat="45.676515558734536" lon="17.700154278427362">
        <ele>232.51</ele>
        <time>2023-10-16T18:31:02.822Z</time>
      </trkpt>
      <trkpt lat="45.6765207555145" lon="17.700172383338213">
        <ele>232.72</ele>
        <time>2023-10-16T18:31:05.994Z</time>
      </trkpt>
      <trkpt lat="45.67652544938028" lon="17.70019082352519">
        <ele>232.94</ele>
        <time>2023-10-16T18:31:09.167Z</time>
      </trkpt>
      <trkpt lat="45.6765294726938" lon="17.700209682807326">
        <ele>233.15</ele>
        <time>2023-10-16T18:31:12.340Z</time>
      </trkpt>
      <trkpt lat="45.676532657817006" lon="17.70022938027978">
        <ele>233.37</ele>
        <time>2023-10-16T18:31:15.514Z</time>
      </trkpt>
      <trkpt lat="45.67653441801667" lon="17.70024991594255">
        <ele>233.59</ele>
        <time>2023-10-16T18:31:18.688Z</time>
      </trkpt>
      <trkpt lat="45.67653483711183" lon="17.700271541252732">
        <ele>233.82</ele>
        <time>2023-10-16T18:31:21.863Z</time>
      </trkpt>
      <trkpt lat="45.67653341218829" lon="17.700294088572264">
        <ele>234.05</ele>
        <time>2023-10-16T18:31:25.038Z</time>
      </trkpt>
      <trkpt lat="45.67652989178896" lon="17.70031780935824">
        <ele>234.28</ele>
        <time>2023-10-16T18:31:28.214Z</time>
      </trkpt>
      <trkpt lat="45.676524359732866" lon="17.700342535972595">
        <ele>234.51</ele>
        <time>2023-10-16T18:31:31.390Z</time>
      </trkpt>
      <trkpt lat="45.67651723511517" lon="17.70036810077727">
        <ele>234.74</ele>
        <time>2023-10-16T18:31:34.567Z</time>
      </trkpt>
      <trkpt lat="45.67650851793587" lon="17.7003940846771">
        <ele>234.97</ele>
        <time>2023-10-16T18:31:37.745Z</time>
      </trkpt>
      <trkpt lat="45.676498375833035" lon="17.700420822948217">
        <ele>235.21</ele>
        <time>2023-10-16T18:31:40.923Z</time>
      </trkpt>
      <trkpt lat="45.67648706026375" lon="17.700448147952557">
        <ele>235.45</ele>
        <time>2023-10-16T18:31:44.102Z</time>
      </trkpt>
      <trkpt lat="45.67647473886609" lon="17.70047614350915">
        <ele>235.69</ele>
        <time>2023-10-16T18:31:47.282Z</time>
      </trkpt>
      <trkpt lat="45.676461746916175" lon="17.700504306703806">
        <ele>235.94</ele>
        <time>2023-10-16T18:31:50.463Z</time>
      </trkpt>
      <trkpt lat="45.676448000594974" lon="17.700532972812653">
        <ele>236.18</ele>
        <time>2023-10-16T18:31:53.644Z</time>
      </trkpt>
      <trkpt lat="45.676433835178614" lon="17.70056214183569">
        <ele>236.42</ele>
        <time>2023-10-16T18:31:56.826Z</time>
      </trkpt>
      <trkpt lat="45.676419250667095" lon="17.700591729953885">
        <ele>236.66</ele>
        <time>2023-10-16T18:32:00.009Z</time>
      </trkpt>
      <trkpt lat="45.67640449851751" lon="17.700621150434017">
        <ele>236.9</ele>
        <time>2023-10-16T18:32:03.193Z</time>
      </trkpt>
      <trkpt lat="45.676389494910836" lon="17.700650822371244">
        <ele>237.14</ele>
        <time>2023-10-16T18:32:06.378Z</time>
      </trkpt>
      <trkpt lat="45.676374239847064" lon="17.700680745765567">
        <ele>237.38</ele>
        <time>2023-10-16T18:32:09.564Z</time>
      </trkpt>
      <trkpt lat="45.67635881714523" lon="17.700710920616984">
        <ele>237.61</ele>
        <time>2023-10-16T18:32:12.750Z</time>
      </trkpt>
      <trkpt lat="45.676343478262424" lon="17.700741095468402">
        <ele>237.85</ele>
        <time>2023-10-16T18:32:15.937Z</time>
      </trkpt>
      <trkpt lat="45.676328307017684" lon="17.700771521776915">
        <ele>238.08</ele>
        <time>2023-10-16T18:32:19.125Z</time>
      </trkpt>
      <trkpt lat="45.67631330341101" lon="17.700802786275744">
        <ele>238.32</ele>
        <time>2023-10-16T18:32:22.314Z</time>
      </trkpt>
      <trkpt lat="45.67629846744239" lon="17.700834972783923">
        <ele>238.55</ele>
        <time>2023-10-16T18:32:25.504Z</time>
      </trkpt>
      <trkpt lat="45.67628413438797" lon="17.700867913663387">
        <ele>238.79</ele>
        <time>2023-10-16T18:32:28.695Z</time>
      </trkpt>
      <trkpt lat="45.67627038806677" lon="17.70090169273317">
        <ele>239.02</ele>
        <time>2023-10-16T18:32:31.887Z</time>
      </trkpt>
      <trkpt lat="45.67625739611685" lon="17.700936309993267">
        <ele>239.25</ele>
        <time>2023-10-16T18:32:35.080Z</time>
      </trkpt>
      <trkpt lat="45.67624515853822" lon="17.70097168162465">
        <ele>239.48</ele>
        <time>2023-10-16T18:32:38.274Z</time>
      </trkpt>
      <trkpt lat="45.67623375914991" lon="17.7010072208941">
        <ele>239.7</ele>
        <time>2023-10-16T18:32:41.469Z</time>
      </trkpt>
      <trkpt lat="45.67622319795191" lon="17.701042676344514">
        <ele>239.93</ele>
        <time>2023-10-16T18:32:44.664Z</time>
      </trkpt>
      <trkpt lat="45.6762133911252" lon="17.70107771269977">
        <ele>240.15</ele>
        <time>2023-10-16T18:32:47.860Z</time>
      </trkpt>
      <trkpt lat="45.67620400339365" lon="17.701112162321806">
        <ele>240.37</ele>
        <time>2023-10-16T18:32:51.057Z</time>
      </trkpt>
      <trkpt lat="45.67619503475726" lon="17.701145941391587">
        <ele>240.58</ele>
        <time>2023-10-16T18:32:54.255Z</time>
      </trkpt>
      <trkpt lat="45.67618656903505" lon="17.701178463175893">
        <ele>240.8</ele>
        <time>2023-10-16T18:32:57.454Z</time>
      </trkpt>
      <trkpt lat="45.67617860622704" lon="17.70120956003666">
        <ele>241.01</ele>
        <time>2023-10-16T18:33:00.654Z</time>
      </trkpt>
      <trkpt lat="45.67617114633322" lon="17.70123939961195">
        <ele>241.21</ele>
        <time>2023-10-16T18:33:03.854Z</time>
      </trkpt>
      <trkpt lat="45.67616435699165" lon="17.70126773044467">
        <ele>241.41</ele>
        <time>2023-10-16T18:33:07.055Z</time>
      </trkpt>
      <trkpt lat="45.67615823820233" lon="17.701294887810946">
        <ele>241.61</ele>
        <time>2023-10-16T18:33:10.257Z</time>
      </trkpt>
      <trkpt lat="45.67615278996527" lon="17.70132103934884">
        <ele>241.81</ele>
        <time>2023-10-16T18:33:13.459Z</time>
      </trkpt>
      <trkpt lat="45.676148012280464" lon="17.701346520334482">
        <ele>242.0</ele>
        <time>2023-10-16T18:33:16.662Z</time>
      </trkpt>
      <trkpt lat="45.67614398896694" lon="17.70137133076787">
        <ele>242.19</ele>
        <time>2023-10-16T18:33:19.866Z</time>
      </trkpt>
      <trkpt lat="45.67614080384374" lon="17.70139580592513">
        <ele>242.37</ele>
        <time>2023-10-16T18:33:23.070Z</time>
      </trkpt>
      <trkpt lat="45.67613820545375" lon="17.7014197781682">
        <ele>242.55</ele>
        <time>2023-10-16T18:33:26.275Z</time>
      </trkpt>
      <trkpt lat="45.67613644525409" lon="17.701443415135145">
        <ele>242.73</ele>
        <time>2023-10-16T18:33:29.480Z</time>
      </trkpt>
      <trkpt lat="45.67613510414958" lon="17.70146663300693">
        <ele>242.9</ele>
        <time>2023-10-16T18:33:32.686Z</time>
      </trkpt>
      <trkpt lat="45.67613418214023" lon="17.70148959942162">
        <ele>243.07</ele>
        <time>2023-10-16T18:33:35.892Z</time>
      </trkpt>
      <trkpt lat="45.67613359540701" lon="17.70151248201728">
        <ele>243.24</ele>
        <time>2023-10-16T18:33:39.099Z</time>
      </trkpt>
      <trkpt lat="45.67613317631185" lon="17.701535196974874">
        <ele>243.4</ele>
        <time>2023-10-16T18:33:42.306Z</time>
      </trkpt>
      <trkpt lat="45.676132924854755" lon="17.701557744294405">
        <ele>243.55</ele>
        <time>2023-10-16T18:33:45.514Z</time>
      </trkpt>
      <trkpt lat="45.67613309249282" lon="17.701580123975873">
        <ele>243.71</ele>
        <time>2023-10-16T18:33:48.723Z</time>
      </trkpt>
      <trkpt lat="45.67613351158798" lon="17.701602336019278">
        <ele>243.86</ele>
        <time>2023-10-16T18:33:51.932Z</time>
      </trkpt>
      <trkpt lat="45.67613426595926" lon="17.701624548062682">
        <ele>244.0</ele>
        <time>2023-10-16T18:33:55.142Z</time>
      </trkpt>
      <trkpt lat="45.6761356908828" lon="17.701646341010928">
        <ele>244.14</ele>
        <time>2023-10-16T18:33:58.352Z</time>
      </trkpt>
      <trkpt lat="45.67613803781569" lon="17.701667631044984">
        <ele>244.28</ele>
        <time>2023-10-16T18:34:01.563Z</time>
      </trkpt>
      <trkpt lat="45.676141222938895" lon="17.70168841816485">
        <ele>244.42</ele>
        <time>2023-10-16T18:34:04.774Z</time>
      </trkpt>
      <trkpt lat="45.676145581528544" lon="17.70170853473246">
        <ele>244.55</ele>
        <time>2023-10-16T18:34:07.986Z</time>
      </trkpt>
      <trkpt lat="45.6761512812227" lon="17.70172756165266">
        <ele>244.68</ele>
        <time>2023-10-16T18:34:11.198Z</time>
      </trkpt>
      <trkpt lat="45.67615823820233" lon="17.70174558274448">
        <ele>244.8</ele>
        <time>2023-10-16T18:34:14.411Z</time>
      </trkpt>
      <trkpt lat="45.67616645246744" lon="17.70176276564598">
        <ele>244.92</ele>
        <time>2023-10-16T18:34:17.624Z</time>
      </trkpt>
      <trkpt lat="45.676175924018025" lon="17.70177877508104">
        <ele>245.04</ele>
        <time>2023-10-16T18:34:20.838Z</time>
      </trkpt>
      <trkpt lat="45.676186652854085" lon="17.701793611049652">
        <ele>245.15</ele>
        <time>2023-10-16T18:34:24.052Z</time>
      </trkpt>
      <trkpt lat="45.67619847133756" lon="17.701806938275695">
        <ele>245.26</ele>
        <time>2023-10-16T18:34:27.267Z</time>
      </trkpt>
      <trkpt lat="45.676211547106504" lon="17.70181892439723">
        <ele>245.36</ele>
        <time>2023-10-16T18:34:30.482Z</time>
      </trkpt>
      <trkpt lat="45.676225209608674" lon="17.701829569414258">
        <ele>245.46</ele>
        <time>2023-10-16T18:34:33.698Z</time>
      </trkpt>
      <trkpt lat="45.6762395426631" lon="17.70183887332678">
        <ele>245.56</ele>
        <time>2023-10-16T18:34:36.914Z</time>
      </trkpt>
      <trkpt lat="45.67625437863171" lon="17.70184683613479">
        <ele>245.65</ele>
        <time>2023-10-16T18:34:40.131Z</time>
      </trkpt>
      <trkpt lat="45.67626954987645" lon="17.701853793114424">
        <ele>245.74</ele>
        <time>2023-10-16T18:34:43.348Z</time>
      </trkpt>
      <trkpt lat="45.676284804940224" lon="17.701859828084707">
        <ele>245.83</ele>
        <time>2023-10-16T18:34:46.566Z</time>
      </trkpt>
      <trkpt lat="45.676299976184964" lon="17.701865024864674">
        <ele>245.91</ele>
        <time>2023-10-16T18:34:49.784Z</time>
      </trkpt>
      <trkpt lat="45.676315231248736" lon="17.701869467273355">
        <ele>245.99</ele>
        <time>2023-10-16T18:34:53.003Z</time>
      </trkpt>
      <trkpt lat="45.67633023485541" lon="17.701873406767845">
        <ele>246.06</ele>
        <time>2023-10-16T18:34:56.222Z</time>
      </trkpt>
      <trkpt lat="45.676344903185964" lon="17.70187701098621">
        <ele>246.13</ele>
        <time>2023-10-16T18:34:59.442Z</time>
      </trkpt>
      <trkpt lat="45.67635923624039" lon="17.701880279928446">
        <ele>246.19</ele>
        <time>2023-10-16T18:35:02.662Z</time>
      </trkpt>
      <trkpt lat="45.67637298256159" lon="17.70188338123262">
        <ele>246.26</ele>
        <time>2023-10-16T18:35:05.883Z</time>
      </trkpt>
      <trkpt lat="45.676386477425694" lon="17.70188631489873">
        <ele>246.31</ele>
        <time>2023-10-16T18:35:09.104Z</time>
      </trkpt>
      <trkpt lat="45.67639930173755" lon="17.701889164745808">
        <ele>246.36</ele>
        <time>2023-10-16T18:35:12.326Z</time>
      </trkpt>
      <trkpt lat="45.67641153931618" lon="17.701892014592886">
        <ele>246.41</ele>
        <time>2023-10-16T18:35:15.548Z</time>
      </trkpt>
      <trkpt lat="45.67642327398062" lon="17.701894780620933">
        <ele>246.46</ele>
        <time>2023-10-16T18:35:18.770Z</time>
      </trkpt>
      <trkpt lat="45.67643467336893" lon="17.70189754664898">
        <ele>246.5</ele>
        <time>2023-10-16T18:35:21.993Z</time>
      </trkpt>
      <trkpt lat="45.67644590511918" lon="17.701900228857994">
        <ele>246.53</ele>
        <time>2023-10-16T18:35:25.216Z</time>
      </trkpt>
      <trkpt lat="45.6764570530504" lon="17.701902743428946">
        <ele>246.56</ele>
        <time>2023-10-16T18:35:28.439Z</time>
      </trkpt>
      <trkpt lat="45.67646828480065" lon="17.701905090361834">
        <ele>246.58</ele>
        <time>2023-10-16T18:35:31.663Z</time>
      </trkpt>
      <trkpt lat="45.67647968418896" lon="17.701907185837626">
        <ele>246.61</ele>
        <time>2023-10-16T18:35:34.887Z</time>
      </trkpt>
      <trkpt lat="45.6764916703105" lon="17.701909029856324">
        <ele>246.62</ele>
        <time>2023-10-16T18:35:38.112Z</time>
      </trkpt>
      <trkpt lat="45.676504243165255" lon="17.701910622417927">
        <ele>246.63</ele>
        <time>2023-10-16T18:35:41.337Z</time>
      </trkpt>
      <trkpt lat="45.67651765421033" lon="17.701912047341466">
        <ele>246.64</ele>
        <time>2023-10-16T18:35:44.563Z</time>
      </trkpt>
      <trkpt lat="45.676532154902816" lon="17.70191330462694">
        <ele>246.65</ele>
        <time>2023-10-16T18:35:47.789Z</time>
      </trkpt>
      <trkpt lat="45.676547745242715" lon="17.701914478093386">
        <ele>246.65</ele>
        <time>2023-10-16T18:35:51.016Z</time>
      </trkpt>
      <trkpt lat="45.67656476050615" lon="17.701915567740798">
        <ele>246.65</ele>
        <time>2023-10-16T18:35:54.243Z</time>
      </trkpt>
      <trkpt lat="45.67658328451216" lon="17.70191657356918">
        <ele>246.64</ele>
        <time>2023-10-16T18:35:57.471Z</time>
      </trkpt>
      <trkpt lat="45.676602981984615" lon="17.701917495578527">
        <ele>246.63</ele>
        <time>2023-10-16T18:36:00.699Z</time>
      </trkpt>
      <trkpt lat="45.67662418819964" lon="17.701918501406908">
        <ele>246.61</ele>
        <time>2023-10-16T18:36:03.928Z</time>
      </trkpt>
      <trkpt lat="45.67664665170014" lon="17.701919674873352">
        <ele>246.59</ele>
        <time>2023-10-16T18:36:07.158Z</time>
      </trkpt>
      <trkpt lat="45.67667020484805" lon="17.701921183615923">
        <ele>246.57</ele>
        <time>2023-10-16T18:36:10.389Z</time>
      </trkpt>
      <trkpt lat="45.676694344729185" lon="17.701923362910748">
        <ele>246.55</ele>
        <time>2023-10-16T18:36:13.620Z</time>
      </trkpt>
      <trkpt lat="45.67671907134354" lon="17.701926212757826">
        <ele>246.52</ele>
        <time>2023-10-16T18:36:16.852Z</time>
      </trkpt>
      <trkpt lat="45.67674455232918" lon="17.70192981697619">
        <ele>246.48</ele>
        <time>2023-10-16T18:36:20.085Z</time>
      </trkpt>
      <trkpt lat="45.67677070386708" lon="17.70193417556584">
        <ele>246.44</ele>
        <time>2023-10-16T18:36:23.319Z</time>
      </trkpt>
      <trkpt lat="45.67679727450013" lon="17.701939288526773">
        <ele>246.39</ele>
        <time>2023-10-16T18:36:26.554Z</time>
      </trkpt>
      <trkpt lat="45.67682392895222" lon="17.70194540731609">
        <ele>246.34</ele>
        <time>2023-10-16T18:36:29.790Z</time>
      </trkpt>
      <trkpt lat="45.67685091868043" lon="17.70195278339088">
        <ele>246.29</ele>
        <time>2023-10-16T18:36:33.027Z</time>
      </trkpt>
      <trkpt lat="45.67687815986574" lon="17.701961500570178">
        <ele>246.24</ele>
        <time>2023-10-16T18:36:36.265Z</time>
      </trkpt>
      <trkpt lat="45.67690523341298" lon="17.701971558853984">
        <ele>246.18</ele>
        <time>2023-10-16T18:36:39.504Z</time>
      </trkpt>
      <trkpt lat="45.67693222314119" lon="17.701982790604234">
        <ele>246.12</ele>
        <time>2023-10-16T18:36:42.743Z</time>
      </trkpt>
      <trkpt lat="45.67695904523134" lon="17.701995195820928">
        <ele>246.05</ele>
        <time>2023-10-16T18:36:45.983Z</time>
      </trkpt>
      <trkpt lat="45.676985532045364" lon="17.702008355408907">
        <ele>245.98</ele>
        <time>2023-10-16T18:36:49.224Z</time>
      </trkpt>
      <trkpt lat="45.677012018859386" lon="17.702022353187203">
        <ele>245.91</ele>
        <time>2023-10-16T18:36:52.466Z</time>
      </trkpt>
      <trkpt lat="45.67703808657825" lon="17.702037021517754">
        <ele>245.84</ele>
        <time>2023-10-16T18:36:55.709Z</time>
      </trkpt>
      <trkpt lat="45.67706381902099" lon="17.702052192762494">
        <ele>245.77</ele>
        <time>2023-10-16T18:36:58.953Z</time>
      </trkpt>
      <trkpt lat="45.67708930000663" lon="17.702067028731108">
        <ele>245.69</ele>
        <time>2023-10-16T18:37:02.198Z</time>
      </trkpt>
      <trkpt lat="45.677114529535174" lon="17.702081613242626">
        <ele>245.61</ele>
        <time>2023-10-16T18:37:05.444Z</time>
      </trkpt>
      <trkpt lat="45.6771391723305" lon="17.702095191925764">
        <ele>245.53</ele>
        <time>2023-10-16T18:37:08.691Z</time>
      </trkpt>
      <trkpt lat="45.6771632283926" lon="17.702107513323426">
        <ele>245.44</ele>
        <time>2023-10-16T18:37:11.939Z</time>
      </trkpt>
      <trkpt lat="45.67718669772148" lon="17.702118661254644">
        <ele>245.35</ele>
        <time>2023-10-16T18:37:15.188Z</time>
      </trkpt>
      <trkpt lat="45.67720958031714" lon="17.702128887176514">
        <ele>245.26</ele>
        <time>2023-10-16T18:37:18.437Z</time>
      </trkpt>
      <trkpt lat="45.677232379093766" lon="17.70213844254613">
        <ele>245.17</ele>
        <time>2023-10-16T18:37:21.687Z</time>
      </trkpt>
      <trkpt lat="45.67725509405136" lon="17.702147578820586">
        <ele>245.07</ele>
        <time>2023-10-16T18:37:24.938Z</time>
      </trkpt>
      <trkpt lat="45.67727755755186" lon="17.70215663127601">
        <ele>244.97</ele>
        <time>2023-10-16T18:37:28.190Z</time>
      </trkpt>
      <trkpt lat="45.677299769595265" lon="17.70216576755047">
        <ele>244.87</ele>
        <time>2023-10-16T18:37:31.442Z</time>
      </trkpt>
      <trkpt lat="45.67732198163867" lon="17.702175406739116">
        <ele>244.77</ele>
        <time>2023-10-16T18:37:34.695Z</time>
      </trkpt>
      <trkpt lat="45.67734410986304" lon="17.702186219394207">
        <ele>244.67</ele>
        <time>2023-10-16T18:37:37.949Z</time>
      </trkpt>
      <trkpt lat="45.677366154268384" lon="17.702197870239615">
        <ele>244.56</ele>
        <time>2023-10-16T18:37:41.204Z</time>
      </trkpt>
      <trkpt lat="45.67738803103566" lon="17.702210610732436">
        <ele>244.44</ele>
        <time>2023-10-16T18:37:44.460Z</time>
      </trkpt>
      <trkpt lat="45.677410075441" lon="17.702224608510733">
        <ele>244.33</ele>
        <time>2023-10-16T18:37:47.716Z</time>
      </trkpt>
      <trkpt lat="45.677432203665376" lon="17.702239528298378">
        <ele>244.21</ele>
        <time>2023-10-16T18:37:50.973Z</time>
      </trkpt>
      <trkpt lat="45.67745441570878" lon="17.702255034819245">
        <ele>244.09</ele>
        <time>2023-10-16T18:37:54.231Z</time>
      </trkpt>
      <trkpt lat="45.67747629247606" lon="17.702271128073335">
        <ele>243.96</ele>
        <time>2023-10-16T18:37:57.490Z</time>
      </trkpt>
      <trkpt lat="45.677498169243336" lon="17.70228755660355">
        <ele>243.83</ele>
        <time>2023-10-16T18:38:00.750Z</time>
      </trkpt>
      <trkpt lat="45.677520129829645" lon="17.702303985133767">
        <ele>243.7</ele>
        <time>2023-10-16T18:38:04.011Z</time>
      </trkpt>
      <trkpt lat="45.677542174234986" lon="17.702319994568825">
        <ele>243.57</ele>
        <time>2023-10-16T18:38:07.272Z</time>
      </trkpt>
      <trkpt lat="45.677564134821296" lon="17.702335165813565">
        <ele>243.43</ele>
        <time>2023-10-16T18:38:10.534Z</time>
      </trkpt>
      <trkpt lat="45.6775863468647" lon="17.702348828315735">
        <ele>243.29</ele>
        <time>2023-10-16T18:38:13.797Z</time>
      </trkpt>
      <trkpt lat="45.67760872654617" lon="17.702361065894365">
        <ele>243.15</ele>
        <time>2023-10-16T18:38:17.061Z</time>
      </trkpt>
      <trkpt lat="45.6776312738657" lon="17.702371794730425">
        <ele>242.99</ele>
        <time>2023-10-16T18:38:20.326Z</time>
      </trkpt>
      <trkpt lat="45.67765382118523" lon="17.702380511909723">
        <ele>242.84</ele>
        <time>2023-10-16T18:38:23.591Z</time>
      </trkpt>
      <trkpt lat="45.67767628468573" lon="17.702387468889356">
        <ele>242.68</ele>
        <time>2023-10-16T18:38:26.857Z</time>
      </trkpt>
      <trkpt lat="45.677698915824294" lon="17.70239300094545">
        <ele>242.52</ele>
        <time>2023-10-16T18:38:30.124Z</time>
      </trkpt>
      <trkpt lat="45.677721966058016" lon="17.70239702425897">
        <ele>242.35</ele>
        <time>2023-10-16T18:38:33.392Z</time>
      </trkpt>
      <trkpt lat="45.6777451839298" lon="17.702399538829923">
        <ele>242.18</ele>
        <time>2023-10-16T18:38:36.660Z</time>
      </trkpt>
      <trkpt lat="45.67776848562062" lon="17.70240087993443">
        <ele>242.01</ele>
        <time>2023-10-16T18:38:39.929Z</time>
      </trkpt>
      <trkpt lat="45.67779203876853" lon="17.702401466667652">
        <ele>241.83</ele>
        <time>2023-10-16T18:38:43.199Z</time>
      </trkpt>
      <trkpt lat="45.677815675735474" lon="17.702401466667652">
        <ele>241.65</ele>
        <time>2023-10-16T18:38:46.470Z</time>
      </trkpt>
      <trkpt lat="45.67783931270242" lon="17.70240138284862">
        <ele>241.46</ele>
        <time>2023-10-16T18:38:49.742Z</time>
      </trkpt>
      <trkpt lat="45.67786303348839" lon="17.70240138284862">
        <ele>241.27</ele>
        <time>2023-10-16T18:38:53.014Z</time>
      </trkpt>
      <trkpt lat="45.67788700573146" lon="17.702402221038938">
        <ele>241.07</ele>
        <time>2023-10-16T18:38:56.287Z</time>
      </trkpt>
      <trkpt lat="45.67791122943163" lon="17.702404148876667">
        <ele>240.87</ele>
        <time>2023-10-16T18:38:59.561Z</time>
      </trkpt>
      <trkpt lat="45.67793570458889" lon="17.70240775309503">
        <ele>240.67</ele>
        <time>2023-10-16T18:39:02.836Z</time>
      </trkpt>
      <trkpt lat="45.67796059884131" lon="17.702413201332092">
        <ele>240.47</ele>
        <time>2023-10-16T18:39:06.112Z</time>
      </trkpt>
      <trkpt lat="45.67798549309373" lon="17.702420745044947">
        <ele>240.26</ele>
        <time>2023-10-16T18:39:09.388Z</time>
      </trkpt>
      <trkpt lat="45.67801047116518" lon="17.7024301327765">
        <ele>240.05</ele>
        <time>2023-10-16T18:39:12.665Z</time>
      </trkpt>
      <trkpt lat="45.67803528159857" lon="17.70244136452675">
        <ele>239.84</ele>
        <time>2023-10-16T18:39:15.943Z</time>
      </trkpt>
      <trkpt lat="45.678060092031956" lon="17.70245410501957">
        <ele>239.62</ele>
        <time>2023-10-16T18:39:19.222Z</time>
      </trkpt>
      <trkpt lat="45.67808490246534" lon="17.70246827043593">
        <ele>239.41</ele>
        <time>2023-10-16T18:39:22.502Z</time>
      </trkpt>
      <trkpt lat="45.67810979671776" lon="17.70248436369002">
        <ele>239.19</ele>
        <time>2023-10-16T18:39:25.783Z</time>
      </trkpt>
      <trkpt lat="45.67813494242728" lon="17.70250196568668">
        <ele>238.96</ele>
        <time>2023-10-16T18:39:29.065Z</time>
      </trkpt>
      <trkpt lat="45.67815992049873" lon="17.702520741149783">
        <ele>238.74</ele>
        <time>2023-10-16T18:39:32.348Z</time>
      </trkpt>
      <trkpt lat="45.67818498238921" lon="17.7025406062603">
        <ele>238.51</ele>
        <time>2023-10-16T18:39:35.632Z</time>
      </trkpt>
      <trkpt lat="45.67821021191776" lon="17.702560806646943">
        <ele>238.28</ele>
        <time>2023-10-16T18:39:38.917Z</time>
      </trkpt>
      <trkpt lat="45.678235525265336" lon="17.70258075557649">
        <ele>238.05</ele>
        <time>2023-10-16T18:39:42.203Z</time>
      </trkpt>
      <trkpt lat="45.67826109007001" lon="17.70260028541088">
        <ele>237.82</ele>
        <time>2023-10-16T18:39:45.490Z</time>
      </trkpt>
      <trkpt lat="45.678286738693714" lon="17.70261880941689">
        <ele>237.59</ele>
        <time>2023-10-16T18:39:48.778Z</time>
      </trkpt>
      <trkpt lat="45.67831255495548" lon="17.702636243775487">
        <ele>237.36</ele>
        <time>2023-10-16T18:39:52.067Z</time>
      </trkpt>
      <trkpt lat="45.678338622674346" lon="17.702652756124735">
        <ele>237.13</ele>
        <time>2023-10-16T18:39:55.356Z</time>
      </trkpt>
      <trkpt lat="45.67836477421224" lon="17.70266817882657">
        <ele>236.9</ele>
        <time>2023-10-16T18:39:58.646Z</time>
      </trkpt>
      <trkpt lat="45.67839075811207" lon="17.7026822604239">
        <ele>236.67</ele>
        <time>2023-10-16T18:40:01.937Z</time>
      </trkpt>
      <trkpt lat="45.67841657437384" lon="17.70269508473575">
        <ele>236.45</ele>
        <time>2023-10-16T18:40:05.229Z</time>
      </trkpt>
      <trkpt lat="45.67844247445464" lon="17.702706567943096">
        <ele>236.23</ele>
        <time>2023-10-16T18:40:08.522Z</time>
      </trkpt>
      <trkpt lat="45.67846837453544" lon="17.70271696150303">
        <ele>236.01</ele>
        <time>2023-10-16T18:40:11.816Z</time>
      </trkpt>
      <trkpt lat="45.67849435843527" lon="17.702726097777486">
        <ele>235.8</ele>
        <time>2023-10-16T18:40:15.111Z</time>
      </trkpt>
      <trkpt lat="45.67852000705898" lon="17.702733809128404">
        <ele>235.59</ele>
        <time>2023-10-16T18:40:18.407Z</time>
      </trkpt>
      <trkpt lat="45.67854557186365" lon="17.702740095555782">
        <ele>235.38</ele>
        <time>2023-10-16T18:40:21.704Z</time>
      </trkpt>
      <trkpt lat="45.6785705499351" lon="17.70274529233575">
        <ele>235.18</ele>
        <time>2023-10-16T18:40:25.002Z</time>
      </trkpt>
      <trkpt lat="45.67859468981624" lon="17.702749483287334">
        <ele>234.98</ele>
        <time>2023-10-16T18:40:28.300Z</time>
      </trkpt>
      <trkpt lat="45.67861765623093" lon="17.702752333134413">
        <ele>234.78</ele>
        <time>2023-10-16T18:40:31.599Z</time>
      </trkpt>
      <trkpt lat="45.678639616817236" lon="17.70275409333408">
        <ele>234.59</ele>
        <time>2023-10-16T18:40:34.899Z</time>
      </trkpt>
      <trkpt lat="45.6786604039371" lon="17.702754931524396">
        <ele>234.41</ele>
        <time>2023-10-16T18:40:38.200Z</time>
      </trkpt>
      <trkpt lat="45.67867984995246" lon="17.702754847705364">
        <ele>234.23</ele>
        <time>2023-10-16T18:40:41.501Z</time>
      </trkpt>
      <trkpt lat="45.67869795486331" lon="17.70275459624827">
        <ele>234.06</ele>
        <time>2023-10-16T18:40:44.803Z</time>
      </trkpt>
      <trkpt lat="45.67871463485062" lon="17.702754260972142">
        <ele>233.89</ele>
        <time>2023-10-16T18:40:48.105Z</time>
      </trkpt>
      <trkpt lat="45.67873030900955" lon="17.702753925696015">
        <ele>233.73</ele>
        <time>2023-10-16T18:40:51.408Z</time>
      </trkpt>
      <trkpt lat="45.678745061159134" lon="17.702753758057952">
        <ele>233.57</ele>
        <time>2023-10-16T18:40:54.711Z</time>
      </trkpt>
      <trkpt lat="45.678759310394526" lon="17.702753841876984">
        <ele>233.42</ele>
        <time>2023-10-16T18:40:58.015Z</time>
      </trkpt>
      <trkpt lat="45.67877372726798" lon="17.702754260972142">
        <ele>233.28</ele>
        <time>2023-10-16T18:41:01.319Z</time>
      </trkpt>
      <trkpt lat="45.67878889851272" lon="17.702754847705364">
        <ele>233.14</ele>
        <time>2023-10-16T18:41:04.624Z</time>
      </trkpt>
      <trkpt lat="45.67880482412875" lon="17.70275610499084">
        <ele>233.01</ele>
        <time>2023-10-16T18:41:07.929Z</time>
      </trkpt>
      <trkpt lat="45.678821336477995" lon="17.702757781371474">
        <ele>232.88</ele>
        <time>2023-10-16T18:41:11.235Z</time>
      </trkpt>
      <trkpt lat="45.678838435560465" lon="17.702760128304362">
        <ele>232.77</ele>
        <time>2023-10-16T18:41:14.541Z</time>
      </trkpt>
      <trkpt lat="45.678856540471315" lon="17.702763229608536">
        <ele>232.66</ele>
        <time>2023-10-16T18:41:17.848Z</time>
      </trkpt>
      <trkpt lat="45.67887573502958" lon="17.702766750007868">
        <ele>232.55</ele>
        <time>2023-10-16T18:41:21.156Z</time>
      </trkpt>
      <trkpt lat="45.67889585159719" lon="17.702771024778485">
        <ele>232.45</ele>
        <time>2023-10-16T18:41:24.464Z</time>
      </trkpt>
      <trkpt lat="45.67891672253609" lon="17.702776473015547">
        <ele>232.36</ele>
        <time>2023-10-16T18:41:27.773Z</time>
      </trkpt>
      <trkpt lat="45.67893801257014" lon="17.702783346176147">
        <ele>232.28</ele>
        <time>2023-10-16T18:41:31.083Z</time>
      </trkpt>
      <trkpt lat="45.678959637880325" lon="17.70279223099351">
        <ele>232.2</ele>
        <time>2023-10-16T18:41:34.394Z</time>
      </trkpt>
      <trkpt lat="45.678981095552444" lon="17.702803378924727">
        <ele>232.14</ele>
        <time>2023-10-16T18:41:37.705Z</time>
      </trkpt>
      <trkpt lat="45.67900221794844" lon="17.702816873788834">
        <ele>232.08</ele>
        <time>2023-10-16T18:41:41.017Z</time>
      </trkpt>
      <trkpt lat="45.67902283743024" lon="17.70283288322389">
        <ele>232.02</ele>
        <time>2023-10-16T18:41:44.330Z</time>
      </trkpt>
      <trkpt lat="45.679043121635914" lon="17.70285132341087">
        <ele>231.98</ele>
        <time>2023-10-16T18:41:47.644Z</time>
      </trkpt>
      <trkpt lat="45.67906332202256" lon="17.702872110530734">
        <ele>231.94</ele>
        <time>2023-10-16T18:41:50.959Z</time>
      </trkpt>
      <trkpt lat="45.67908310331404" lon="17.702894993126392">
        <ele>231.91</ele>
        <time>2023-10-16T18:41:54.274Z</time>
      </trkpt>
      <trkpt lat="45.67910246551037" lon="17.702919216826558">
        <ele>231.89</ele>
        <time>2023-10-16T18:41:57.590Z</time>
      </trkpt>
      <trkpt lat="45.67912149243057" lon="17.702944446355104">
        <ele>231.88</ele>
        <time>2023-10-16T18:42:00.907Z</time>
      </trkpt>
      <trkpt lat="45.67914018407464" lon="17.702970346435905">
        <ele>231.87</ele>
        <time>2023-10-16T18:42:04.225Z</time>
      </trkpt>
      <trkpt lat="45.67915862426162" lon="17.702996833249927">
        <ele>231.87</ele>
        <time>2023-10-16T18:42:07.544Z</time>
      </trkpt>
      <trkpt lat="45.67917664535344" lon="17.70302340388298">
        <ele>231.88</ele>
        <time>2023-10-16T18:42:10.864Z</time>
      </trkpt>
      <trkpt lat="45.6791942473501" lon="17.703049974516034">
        <ele>231.9</ele>
        <time>2023-10-16T18:42:14.185Z</time>
      </trkpt>
      <trkpt lat="45.67921168170869" lon="17.703076377511024">
        <ele>231.92</ele>
        <time>2023-10-16T18:42:17.506Z</time>
      </trkpt>
      <trkpt lat="45.67922894842923" lon="17.703102445229888">
        <ele>231.95</ele>
        <time>2023-10-16T18:42:20.828Z</time>
      </trkpt>
      <trkpt lat="45.67924629896879" lon="17.703128177672625">
        <ele>231.99</ele>
        <time>2023-10-16T18:42:24.151Z</time>
      </trkpt>
      <trkpt lat="45.679263481870294" lon="17.70315340720117">
        <ele>232.04</ele>
        <time>2023-10-16T18:42:27.475Z</time>
      </trkpt>
      <trkpt lat="45.67928049713373" lon="17.703178049996495">
        <ele>232.09</ele>
        <time>2023-10-16T18:42:30.800Z</time>
      </trkpt>
      <trkpt lat="45.67929717712104" lon="17.703202357515693">
        <ele>232.15</ele>
        <time>2023-10-16T18:42:34.126Z</time>
      </trkpt>
      <trkpt lat="45.67931352183223" lon="17.70322624593973">
        <ele>232.21</ele>
        <time>2023-10-16T18:42:37.452Z</time>
      </trkpt>
      <trkpt lat="45.67932927981019" lon="17.703249715268612">
        <ele>232.28</ele>
        <time>2023-10-16T18:42:40.779Z</time>
      </trkpt>
      <trkpt lat="45.67934453487396" lon="17.70327251404524">
        <ele>232.36</ele>
        <time>2023-10-16T18:42:44.107Z</time>
      </trkpt>
      <trkpt lat="45.67935945466161" lon="17.70329464226961">
        <ele>232.44</ele>
        <time>2023-10-16T18:42:47.436Z</time>
      </trkpt>
      <trkpt lat="45.67937387153506" lon="17.7033160161227">
        <ele>232.52</ele>
        <time>2023-10-16T18:42:50.765Z</time>
      </trkpt>
      <trkpt lat="45.67938786931336" lon="17.7033366356045">
        <ele>232.61</ele>
        <time>2023-10-16T18:42:54.095Z</time>
      </trkpt>
      <trkpt lat="45.679401280358434" lon="17.70335666835308">
        <ele>232.7</ele>
        <time>2023-10-16T18:42:57.426Z</time>
      </trkpt>
      <trkpt lat="45.679414104670286" lon="17.703376030549407">
        <ele>232.79</ele>
        <time>2023-10-16T18:43:00.757Z</time>
      </trkpt>
      <trkpt lat="45.67942609079182" lon="17.70339480601251">
        <ele>232.89</ele>
        <time>2023-10-16T18:43:04.089Z</time>
      </trkpt>
      <trkpt lat="45.679437490180135" lon="17.70341324619949">
        <ele>232.99</ele>
        <time>2023-10-16T18:43:07.421Z</time>
      </trkpt>
      <trkpt lat="45.67944838665426" lon="17.70343143492937">
        <ele>233.09</ele>
        <time>2023-10-16T18:43:10.754Z</time>
      </trkpt>
      <trkpt lat="45.67945861257613" lon="17.70344903692603">
        <ele>233.19</ele>
        <time>2023-10-16T18:43:14.087Z</time>
      </trkpt>
      <trkpt lat="45.679468335583806" lon="17.70346605218947">
        <ele>233.3</ele>
        <time>2023-10-16T18:43:17.421Z</time>
      </trkpt>
      <trkpt lat="45.679477639496326" lon="17.703482564538717">
        <ele>233.41</ele>
        <time>2023-10-16T18:43:20.755Z</time>
      </trkpt>
      <trkpt lat="45.67948618903756" lon="17.703498490154743">
        <ele>233.52</ele>
        <time>2023-10-16T18:43:24.090Z</time>
      </trkpt>
      <trkpt lat="45.679494235664606" lon="17.70351391285658">
        <ele>233.63</ele>
        <time>2023-10-16T18:43:27.425Z</time>
      </trkpt>
      <trkpt lat="45.67950186319649" lon="17.70352908410132">
        <ele>233.74</ele>
        <time>2023-10-16T18:43:30.761Z</time>
      </trkpt>
      <trkpt lat="45.67950923927128" lon="17.703543920069933">
        <ele>233.86</ele>
        <time>2023-10-16T18:43:34.097Z</time>
      </trkpt>
      <trkpt lat="45.67951644770801" lon="17.703558588400483">
        <ele>233.97</ele>
        <time>2023-10-16T18:43:37.434Z</time>
      </trkpt>
      <trkpt lat="45.67952357232571" lon="17.703573172912">
        <ele>234.09</ele>
        <time>2023-10-16T18:43:40.771Z</time>
      </trkpt>
      <trkpt lat="45.67953061312437" lon="17.70358767360449">
        <ele>234.2</ele>
        <time>2023-10-16T18:43:44.108Z</time>
      </trkpt>
      <trkpt lat="45.679537570104" lon="17.703602090477943">
        <ele>234.32</ele>
        <time>2023-10-16T18:43:47.446Z</time>
      </trkpt>
      <trkpt lat="45.679544527083635" lon="17.703616674989462">
        <ele>234.44</ele>
        <time>2023-10-16T18:43:50.784Z</time>
      </trkpt>
      <trkpt lat="45.6795515678823" lon="17.703631427139044">
        <ele>234.55</ele>
        <time>2023-10-16T18:43:54.123Z</time>
      </trkpt>
      <trkpt lat="45.67955894395709" lon="17.703646179288626">
        <ele>234.66</ele>
        <time>2023-10-16T18:43:57.462Z</time>
      </trkpt>
      <trkpt lat="45.67956640385091" lon="17.703660847619176">
        <ele>234.78</ele>
        <time>2023-10-16T18:44:00.802Z</time>
      </trkpt>
      <trkpt lat="45.6795740313828" lon="17.7036751806736">
        <ele>234.89</ele>
        <time>2023-10-16T18:44:04.142Z</time>
      </trkpt>
      <trkpt lat="45.67958174273372" lon="17.7036889269948">
        <ele>235.0</ele>
        <time>2023-10-16T18:44:07.482Z</time>
      </trkpt>
      <trkpt lat="45.6795893702656" lon="17.70370208658278">
        <ele>235.1</ele>
        <time>2023-10-16T18:44:10.823Z</time>
      </trkpt>
      <trkpt lat="45.67959691397846" lon="17.703714659437537">
        <ele>235.21</ele>
        <time>2023-10-16T18:44:14.164Z</time>
      </trkpt>
      <trkpt lat="45.67960437387228" lon="17.703726310282946">
        <ele>235.31</ele>
        <time>2023-10-16T18:44:17.506Z</time>
      </trkpt>
      <trkpt lat="45.679611498489976" lon="17.703737374395132">
        <ele>235.41</ele>
        <time>2023-10-16T18:44:20.848Z</time>
      </trkpt>
      <trkpt lat="45.679618287831545" lon="17.703747851774096">
        <ele>235.51</ele>
        <time>2023-10-16T18:44:24.190Z</time>
      </trkpt>
      <trkpt lat="45.67962482571602" lon="17.70375832915306">
        <ele>235.6</ele>
        <time>2023-10-16T18:44:27.533Z</time>
      </trkpt>
      <trkpt lat="45.6796311121434" lon="17.703768890351057">
        <ele>235.69</ele>
        <time>2023-10-16T18:44:30.876Z</time>
      </trkpt>
      <trkpt lat="45.67963706329465" lon="17.70377987064421">
        <ele>235.77</ele>
        <time>2023-10-16T18:44:34.219Z</time>
      </trkpt>
      <trkpt lat="45.67964293062687" lon="17.703791772946715">
        <ele>235.85</ele>
        <time>2023-10-16T18:44:37.563Z</time>
      </trkpt>
      <trkpt lat="45.67964871414006" lon="17.7038046810776">
        <ele>235.93</ele>
        <time>2023-10-16T18:44:40.907Z</time>
      </trkpt>
      <trkpt lat="45.67965474911034" lon="17.70381884649396">
        <ele>236.0</ele>
        <time>2023-10-16T18:44:44.251Z</time>
      </trkpt>
      <trkpt lat="45.67966111935675" lon="17.703834269195795">
        <ele>236.06</ele>
        <time>2023-10-16T18:44:47.596Z</time>
      </trkpt>
      <trkpt lat="45.67966799251735" lon="17.703851033002138">
        <ele>236.12</ele>
        <time>2023-10-16T18:44:50.941Z</time>
      </trkpt>
      <trkpt lat="45.67967553623021" lon="17.70386913791299">
        <ele>236.18</ele>
        <time>2023-10-16T18:44:54.287Z</time>
      </trkpt>
      <trkpt lat="45.679684253409505" lon="17.703888081014156">
        <ele>236.23</ele>
        <time>2023-10-16T18:44:57.633Z</time>
      </trkpt>
      <trkpt lat="45.67969439551234" lon="17.703908029943705">
        <ele>236.27</ele>
        <time>2023-10-16T18:45:00.980Z</time>
      </trkpt>
      <trkpt lat="45.67970596253872" lon="17.703928146511316">
        <ele>236.31</ele>
        <time>2023-10-16T18:45:04.327Z</time>
      </trkpt>
      <trkpt lat="45.67971920594573" lon="17.703947760164738">
        <ele>236.34</ele>
        <time>2023-10-16T18:45:07.675Z</time>
      </trkpt>
      <trkpt lat="45.67973387427628" lon="17.70396645180881">
        <ele>236.37</ele>
        <time>2023-10-16T18:45:11.024Z</time>
      </trkpt>
      <trkpt lat="45.6797500513494" lon="17.70398355089128">
        <ele>236.39</ele>
        <time>2023-10-16T18:45:14.373Z</time>
      </trkpt>
      <trkpt lat="45.67976756952703" lon="17.703998805955052">
        <ele>236.41</ele>
        <time>2023-10-16T18:45:17.723Z</time>
      </trkpt>
      <trkpt lat="45.67978617735207" lon="17.704011630266905">
        <ele>236.41</ele>
        <time>2023-10-16T18:45:21.074Z</time>
      </trkpt>
      <trkpt lat="45.679805455729365" lon="17.70402168855071">
        <ele>236.4</ele>
        <time>2023-10-16T18:45:24.425Z</time>
      </trkpt>
      <trkpt lat="45.67982506938279" lon="17.704028645530343">
        <ele>236.39</ele>
        <time>2023-10-16T18:45:27.777Z</time>
      </trkpt>
      <trkpt lat="45.67984485067427" lon="17.70403233356774">
        <ele>236.37</ele>
        <time>2023-10-16T18:45:31.130Z</time>
      </trkpt>
      <trkpt lat="45.67986446432769" lon="17.704032752662897">
        <ele>236.34</ele>
        <time>2023-10-16T18:45:34.483Z</time>
      </trkpt>
      <trkpt lat="45.679883658885956" lon="17.704030657187104">
        <ele>236.3</ele>
        <time>2023-10-16T18:45:37.837Z</time>
      </trkpt>
      <trkpt lat="45.67990251816809" lon="17.70402646623552">
        <ele>236.26</ele>
        <time>2023-10-16T18:45:41.192Z</time>
      </trkpt>
      <trkpt lat="45.67992062307894" lon="17.7040205989033">
        <ele>236.21</ele>
        <time>2023-10-16T18:45:44.547Z</time>
      </trkpt>
      <trkpt lat="45.67993805743754" lon="17.704013641923666">
        <ele>236.15</ele>
        <time>2023-10-16T18:45:47.903Z</time>
      </trkpt>
      <trkpt lat="45.67995465360582" lon="17.704005930572748">
        <ele>236.08</ele>
        <time>2023-10-16T18:45:51.259Z</time>
      </trkpt>
      <trkpt lat="45.67997141741216" lon="17.703990088775754">
        <ele>236.01</ele>
        <time>2023-10-16T18:45:54.616Z</time>
      </trkpt>
      <trkpt lat="45.67998759448528" lon="17.703981958329678">
        <ele>235.92</ele>
        <time>2023-10-16T18:45:57.974Z</time>
      </trkpt>
      <trkpt lat="45.68000268191099" lon="17.703975420445204">
        <ele>235.83</ele>
        <time>2023-10-16T18:46:01.332Z</time>
      </trkpt>
      <trkpt lat="45.68001684732735" lon="17.703970642760396">
        <ele>235.73</ele>
        <time>2023-10-16T18:46:04.691Z</time>
      </trkpt>
      <trkpt lat="45.68003050982952" lon="17.703967625275254">
        <ele>235.61</ele>
        <time>2023-10-16T18:46:08.050Z</time>
      </trkpt>
      <trkpt lat="45.68004358559847" lon="17.703966787084937">
        <ele>235.49</ele>
        <time>2023-10-16T18:46:11.410Z</time>
      </trkpt>
      <trkpt lat="45.68005632609129" lon="17.703968295827508">
        <ele>235.36</ele>
        <time>2023-10-16T18:46:14.770Z</time>
      </trkpt>
      <trkpt lat="45.68006839603186" lon="17.70397190004587">
        <ele>235.22</ele>
        <time>2023-10-16T18:46:18.130Z</time>
      </trkpt>
      <trkpt lat="45.680079627782106" lon="17.7039772644639">
        <ele>235.07</ele>
        <time>2023-10-16T18:46:21.491Z</time>
      </trkpt>
      <trkpt lat="45.68008993752301" lon="17.70398447290063">
        <ele>234.92</ele>
        <time>2023-10-16T18:46:24.852Z</time>
      </trkpt>
      <trkpt lat="45.68009639158845" lon="17.703994531184435">
        <ele>234.75</ele>
        <time>2023-10-16T18:46:28.214Z</time>
      </trkpt>
      <trkpt lat="45.68010611459613" lon="17.704001823440194">
        <ele>234.57</ele>
        <time>2023-10-16T18:46:31.576Z</time>
      </trkpt>
      <trkpt lat="45.680115669965744" lon="17.704009786248207">
        <ele>234.39</ele>
        <time>2023-10-16T18:46:34.938Z</time>
      </trkpt>
      <trkpt lat="45.68012539297342" lon="17.704018335789442">
        <ele>234.2</ele>
        <time>2023-10-16T18:46:38.301Z</time>
      </trkpt>
      <trkpt lat="45.68013545125723" lon="17.70402755588293">
        <ele>234.0</ele>
        <time>2023-10-16T18:46:41.664Z</time>
      </trkpt>
      <trkpt lat="45.680146012455225" lon="17.704037195071578">
        <ele>233.79</ele>
        <time>2023-10-16T18:46:45.027Z</time>
      </trkpt>
      <trkpt lat="45.68015707656741" lon="17.704047923907638">
        <ele>233.57</ele>
        <time>2023-10-16T18:46:48.391Z</time>
      </trkpt>
      <trkpt lat="45.68016872741282" lon="17.70405923947692">
        <ele>233.34</ele>
        <time>2023-10-16T18:46:51.755Z</time>
      </trkpt>
      <trkpt lat="45.68018138408661" lon="17.704071393236518">
        <ele>233.11</ele>
        <time>2023-10-16T18:46:55.120Z</time>
      </trkpt>
      <trkpt lat="45.680195298045874" lon="17.704084385186434">
        <ele>232.86</ele>
        <time>2023-10-16T18:46:58.485Z</time>
      </trkpt>
      <trkpt lat="45.68021038547158" lon="17.704098047688603">
        <ele>232.61</ele>
        <time>2023-10-16T18:47:01.851Z</time>
      </trkpt>
      <trkpt lat="45.680226646363735" lon="17.70411246456206">
        <ele>232.35</ele>
        <time>2023-10-16T18:47:05.218Z</time>
      </trkpt>
      <trkpt lat="45.68024382926524" lon="17.704127887263894">
        <ele>232.09</ele>
        <time>2023-10-16T18:47:08.585Z</time>
      </trkpt>
      <trkpt lat="45.680261850357056" lon="17.704144399613142">
        <ele>231.81</ele>
        <time>2023-10-16T18:47:11.953Z</time>
      </trkpt>
      <trkpt lat="45.6802804581821" lon="17.704162085428834">
        <ele>231.53</ele>
        <time>2023-10-16T18:47:15.322Z</time>
      </trkpt>
      <trkpt lat="45.680299485102296" lon="17.704180693253875">
        <ele>231.24</ele>
        <time>2023-10-16T18:47:18.692Z</time>
      </trkpt>
      <trkpt lat="45.68031884729862" lon="17.704200139269233">
        <ele>230.95</ele>
        <time>2023-10-16T18:47:22.062Z</time>
      </trkpt>
      <trkpt lat="45.68033879622817" lon="17.70421958528459">
        <ele>230.65</ele>
        <time>2023-10-16T18:47:25.433Z</time>
      </trkpt>
      <trkpt lat="45.68035933189094" lon="17.704238444566727">
        <ele>230.34</ele>
        <time>2023-10-16T18:47:28.805Z</time>
      </trkpt>
      <trkpt lat="45.68038045428693" lon="17.70425613038242">
        <ele>230.03</ele>
        <time>2023-10-16T18:47:32.178Z</time>
      </trkpt>
      <trkpt lat="45.68040224723518" lon="17.704272475093603">
        <ele>229.72</ele>
        <time>2023-10-16T18:47:35.552Z</time>
      </trkpt>
      <trkpt lat="45.680424543097615" lon="17.704287227243185">
        <ele>229.4</ele>
        <time>2023-10-16T18:47:38.926Z</time>
      </trkpt>
      <trkpt lat="45.68044725805521" lon="17.704300303012133">
        <ele>229.07</ele>
        <time>2023-10-16T18:47:42.301Z</time>
      </trkpt>
      <trkpt lat="45.680470475926995" lon="17.704311618581414">
        <ele>228.74</ele>
        <time>2023-10-16T18:47:45.677Z</time>
      </trkpt>
      <trkpt lat="45.68049419671297" lon="17.704320838674903">
        <ele>228.41</ele>
        <time>2023-10-16T18:47:49.054Z</time>
      </trkpt>
      <trkpt lat="45.6805185880512" lon="17.70432754419744">
        <ele>228.07</ele>
        <time>2023-10-16T18:47:52.432Z</time>
      </trkpt>
      <trkpt lat="45.68054356612265" lon="17.704331651329994">
        <ele>227.72</ele>
        <time>2023-10-16T18:47:55.811Z</time>
      </trkpt>
      <trkpt lat="45.68056896328926" lon="17.70433290861547">
        <ele>227.37</ele>
        <time>2023-10-16T18:47:59.190Z</time>
      </trkpt>
      <trkpt lat="45.680594528093934" lon="17.70433198660612">
        <ele>227.02</ele>
        <time>2023-10-16T18:48:02.570Z</time>
      </trkpt>
      <trkpt lat="45.680620009079576" lon="17.70432905294001">
        <ele>226.67</ele>
        <time>2023-10-16T18:48:05.951Z</time>
      </trkpt>
      <trkpt lat="45.68064515478909" lon="17.704324359074235">
        <ele>226.31</ele>
        <time>2023-10-16T18:48:09.333Z</time>
      </trkpt>
      <trkpt lat="45.680669881403446" lon="17.70431824028492">
        <ele>225.95</ele>
        <time>2023-10-16T18:48:12.716Z</time>
      </trkpt>
      <trkpt lat="45.680694188922644" lon="17.704311283305287">
        <ele>225.59</ele>
        <time>2023-10-16T18:48:16.100Z</time>
      </trkpt>
      <trkpt lat="45.68071841262281" lon="17.704303488135338">
        <ele>225.22</ele>
        <time>2023-10-16T18:48:19.484Z</time>
      </trkpt>
      <trkpt lat="45.68074255250394" lon="17.704295190051198">
        <ele>224.86</ele>
        <time>2023-10-16T18:48:22.869Z</time>
      </trkpt>
      <trkpt lat="45.680766608566046" lon="17.70428697578609">
        <ele>224.49</ele>
        <time>2023-10-16T18:48:26.255Z</time>
      </trkpt>
      <trkpt lat="45.68079041317105" lon="17.704279348254204">
        <ele>224.11</ele>
        <time>2023-10-16T18:48:29.642Z</time>
      </trkpt>
      <trkpt lat="45.68081413395703" lon="17.70427230745554">
        <ele>223.74</ele>
        <time>2023-10-16T18:48:33.030Z</time>
      </trkpt>
      <trkpt lat="45.680837854743004" lon="17.704266104847193">
        <ele>223.37</ele>
        <time>2023-10-16T18:48:36.419Z</time>
      </trkpt>
      <trkpt lat="45.68086157552898" lon="17.704260908067226">
        <ele>222.99</ele>
        <time>2023-10-16T18:48:39.808Z</time>
      </trkpt>
      <trkpt lat="45.68088538013399" lon="17.704256884753704">
        <ele>222.62</ele>
        <time>2023-10-16T18:48:43.198Z</time>
      </trkpt>
      <trkpt lat="45.68090935237706" lon="17.70425378344953">
        <ele>222.24</ele>
        <time>2023-10-16T18:48:46.589Z</time>
      </trkpt>
      <trkpt lat="45.68093357607722" lon="17.704251687973738">
        <ele>221.87</ele>
        <time>2023-10-16T18:48:49.981Z</time>
      </trkpt>
      <trkpt lat="45.68095788359642" lon="17.70425034686923">
        <ele>221.49</ele>
        <time>2023-10-16T18:48:53.374Z</time>
      </trkpt>
      <trkpt lat="45.68098227493465" lon="17.704249173402786">
        <ele>221.12</ele>
        <time>2023-10-16T18:48:56.767Z</time>
      </trkpt>
      <trkpt lat="45.68100666627288" lon="17.70424791611731">
        <ele>220.75</ele>
        <time>2023-10-16T18:49:00.161Z</time>
      </trkpt>
      <trkpt lat="45.6810313090682" lon="17.70424640737474">
        <ele>220.37</ele>
        <time>2023-10-16T18:49:03.556Z</time>
      </trkpt>
      <trkpt lat="45.681056287139654" lon="17.70424447953701">
        <ele>220.0</ele>
        <time>2023-10-16T18:49:06.952Z</time>
      </trkpt>
      <trkpt lat="45.681081265211105" lon="17.704242384061217">
        <ele>219.64</ele>
        <time>2023-10-16T18:49:10.349Z</time>
      </trkpt>
      <trkpt lat="45.68110641092062" lon="17.704240288585424">
        <ele>219.27</ele>
        <time>2023-10-16T18:49:13.747Z</time>
      </trkpt>
      <trkpt lat="45.68113197572529" lon="17.704238025471568">
        <ele>218.91</ele>
        <time>2023-10-16T18:49:17.145Z</time>
      </trkpt>
      <trkpt lat="45.68115779198706" lon="17.704235427081585">
        <ele>218.55</ele>
        <time>2023-10-16T18:49:20.544Z</time>
      </trkpt>
      <trkpt lat="45.68118369206786" lon="17.704232577234507">
        <ele>218.19</ele>
        <time>2023-10-16T18:49:23.944Z</time>
      </trkpt>
      <trkpt lat="45.68120959214866" lon="17.70422930829227">
        <ele>217.83</ele>
        <time>2023-10-16T18:49:27.345Z</time>
      </trkpt>
      <trkpt lat="45.68123549222946" lon="17.704226123169065">
        <ele>217.48</ele>
        <time>2023-10-16T18:49:30.747Z</time>
      </trkpt>
      <trkpt lat="45.6812612246722" lon="17.704223189502954">
        <ele>217.13</ele>
        <time>2023-10-16T18:49:34.150Z</time>
      </trkpt>
      <trkpt lat="45.68128678947687" lon="17.704220423474908">
        <ele>216.79</ele>
        <time>2023-10-16T18:49:37.554Z</time>
      </trkpt>
      <trkpt lat="45.681311935186386" lon="17.70421765744686">
        <ele>216.45</ele>
        <time>2023-10-16T18:49:40.958Z</time>
      </trkpt>
      <trkpt lat="45.68133641034365" lon="17.704214807599783">
        <ele>216.11</ele>
        <time>2023-10-16T18:49:44.363Z</time>
      </trkpt>
      <trkpt lat="45.681360298767686" lon="17.704211454838514">
        <ele>215.79</ele>
        <time>2023-10-16T18:49:47.769Z</time>
      </trkpt>
      <trkpt lat="45.68138334900141" lon="17.704207934439182">
        <ele>215.46</ele>
        <time>2023-10-16T18:49:51.176Z</time>
      </trkpt>
      <trkpt lat="45.68140556104481" lon="17.70420433022082">
        <ele>215.14</ele>
        <time>2023-10-16T18:49:54.584Z</time>
      </trkpt>
      <trkpt lat="45.68142710253596" lon="17.70420106127858">
        <ele>214.83</ele>
        <time>2023-10-16T18:49:57.992Z</time>
      </trkpt>
      <trkpt lat="45.681448141112924" lon="17.70419854670763">
        <ele>214.53</ele>
        <time>2023-10-16T18:50:01.401Z</time>
      </trkpt>
      <trkpt lat="45.68146934732795" lon="17.7041966188699">
        <ele>214.24</ele>
        <time>2023-10-16T18:50:04.811Z</time>
      </trkpt>
      <trkpt lat="45.68149038590491" lon="17.70419511012733">
        <ele>213.95</ele>
        <time>2023-10-16T18:50:08.221Z</time>
      </trkpt>
      <trkpt lat="45.68151159211993" lon="17.70419410429895">
        <ele>213.67</ele>
        <time>2023-10-16T18:50:11.632Z</time>
      </trkpt>
      <trkpt lat="45.68153296597302" lon="17.704193852841854">
        <ele>213.4</ele>
        <time>2023-10-16T18:50:15.044Z</time>
      </trkpt>
      <trkpt lat="45.68155492655933" lon="17.70419418811798">
        <ele>213.14</ele>
        <time>2023-10-16T18:50:18.457Z</time>
      </trkpt>
      <trkpt lat="45.68157755769789" lon="17.70419519394636">
        <ele>212.88</ele>
        <time>2023-10-16T18:50:21.870Z</time>
      </trkpt>
      <trkpt lat="45.68160102702677" lon="17.70419703796506">
        <ele>212.63</ele>
        <time>2023-10-16T18:50:25.284Z</time>
      </trkpt>
      <trkpt lat="45.68162533454597" lon="17.704199133440852">
        <ele>212.38</ele>
        <time>2023-10-16T18:50:28.699Z</time>
      </trkpt>
      <trkpt lat="45.681650480255485" lon="17.704201312735677">
        <ele>212.14</ele>
        <time>2023-10-16T18:50:32.115Z</time>
      </trkpt>
      <trkpt lat="45.68167629651725" lon="17.704203072935343">
        <ele>211.91</ele>
        <time>2023-10-16T18:50:35.532Z</time>
      </trkpt>
      <trkpt lat="45.68170244805515" lon="17.704204497858882">
        <ele>211.69</ele>
        <time>2023-10-16T18:50:38.949Z</time>
      </trkpt>
      <trkpt lat="45.68172893486917" lon="17.704205587506294">
        <ele>211.47</ele>
        <time>2023-10-16T18:50:42.367Z</time>
      </trkpt>
      <trkpt lat="45.68175575695932" lon="17.704206258058548">
        <ele>211.26</ele>
        <time>2023-10-16T18:50:45.786Z</time>
      </trkpt>
      <trkpt lat="45.68178299814463" lon="17.704206509515643">
        <ele>211.06</ele>
        <time>2023-10-16T18:50:49.206Z</time>
      </trkpt>
      <trkpt lat="45.68181049078703" lon="17.704206677153707">
        <ele>210.87</ele>
        <time>2023-10-16T18:50:52.627Z</time>
      </trkpt>
      <trkpt lat="45.681838151067495" lon="17.704206593334675">
        <ele>210.68</ele>
        <time>2023-10-16T18:50:56.049Z</time>
      </trkpt>
      <trkpt lat="45.68186606280506" lon="17.70420634187758">
        <ele>210.51</ele>
        <time>2023-10-16T18:50:59.472Z</time>
      </trkpt>
      <trkpt lat="45.681894309818745" lon="17.704205755144358">
        <ele>210.34</ele>
        <time>2023-10-16T18:51:02.896Z</time>
      </trkpt>
      <trkpt lat="45.68192331120372" lon="17.704205084592104">
        <ele>210.17</ele>
        <time>2023-10-16T18:51:06.321Z</time>
      </trkpt>
      <trkpt lat="45.68195306695998" lon="17.70420441403985">
        <ele>210.02</ele>
        <time>2023-10-16T18:51:09.747Z</time>
      </trkpt>
      <trkpt lat="45.68198349326849" lon="17.704203575849533">
        <ele>209.87</ele>
        <time>2023-10-16T18:51:13.174Z</time>
      </trkpt>
      <trkpt lat="45.682014590129256" lon="17.704202653840184">
        <ele>209.72</ele>
        <time>2023-10-16T18:51:16.602Z</time>
      </trkpt>
      <trkpt lat="45.682046273723245" lon="17.704201731830835">
        <ele>209.58</ele>
        <time>2023-10-16T18:51:20.031Z</time>
      </trkpt>
      <trkpt lat="45.68207837641239" lon="17.704200726002455">
        <ele>209.45</ele>
        <time>2023-10-16T18:51:23.461Z</time>
      </trkpt>
      <trkpt lat="45.68211056292057" lon="17.704199384897947">
        <ele>209.33</ele>
        <time>2023-10-16T18:51:26.892Z</time>
      </trkpt>
      <trkpt lat="45.68214291706681" lon="17.704197708517313">
        <ele>209.21</ele>
        <time>2023-10-16T18:51:30.324Z</time>
      </trkpt>
      <trkpt lat="45.682175355032086" lon="17.70419552922249">
        <ele>209.1</ele>
        <time>2023-10-16T18:51:33.757Z</time>
      </trkpt>
      <trkpt lat="45.6822076253593" lon="17.704192930832505">
        <ele>209.0</ele>
        <time>2023-10-16T18:51:37.191Z</time>
      </trkpt>
      <trkpt lat="45.68223947659135" lon="17.70418982952833">
        <ele>208.9</ele>
        <time>2023-10-16T18:51:40.626Z</time>
      </trkpt>
      <trkpt lat="45.682270573452115" lon="17.704186057671905">
        <ele>208.81</ele>
        <time>2023-10-16T18:51:44.062Z</time>
      </trkpt>
      <trkpt lat="45.6823006644845" lon="17.704182034358382">
        <ele>208.73</ele>
        <time>2023-10-16T18:51:47.499Z</time>
      </trkpt>
      <trkpt lat="45.68233008496463" lon="17.704177759587765">
        <ele>208.66</ele>
        <time>2023-10-16T18:51:50.937Z</time>
      </trkpt>
      <trkpt lat="45.68235875107348" lon="17.704173400998116">
        <ele>208.59</ele>
        <time>2023-10-16T18:51:54.376Z</time>
      </trkpt>
      <trkpt lat="45.68238657899201" lon="17.704168874770403">
        <ele>208.53</ele>
        <time>2023-10-16T18:51:57.816Z</time>
      </trkpt>
      <trkpt lat="45.682413736358285" lon="17.704164180904627">
        <ele>208.48</ele>
        <time>2023-10-16T18:52:01.257Z</time>
      </trkpt>
      <trkpt lat="45.68244022317231" lon="17.70415940321982">
        <ele>208.43</ele>
        <time>2023-10-16T18:52:04.699Z</time>
      </trkpt>
      <trkpt lat="45.68246612325311" lon="17.704154457896948">
        <ele>208.39</ele>
        <time>2023-10-16T18:52:08.142Z</time>
      </trkpt>
      <trkpt lat="45.682491436600685" lon="17.70414968021214">
        <ele>208.35</ele>
        <time>2023-10-16T18:52:11.586Z</time>
      </trkpt>
      <trkpt lat="45.68251616321504" lon="17.704145070165396">
        <ele>208.33</ele>
        <time>2023-10-16T18:52:15.031Z</time>
      </trkpt>
      <trkpt lat="45.68254055455327" lon="17.704141130670905">
        <ele>208.3</ele>
        <time>2023-10-16T18:52:18.476Z</time>
      </trkpt>
      <trkpt lat="45.682564694434404" lon="17.704137694090605">
        <ele>208.29</ele>
        <time>2023-10-16T18:52:21.922Z</time>
      </trkpt>
      <trkpt lat="45.682588666677475" lon="17.704134676605463">
        <ele>208.29</ele>
        <time>2023-10-16T18:52:25.369Z</time>
      </trkpt>
      <trkpt lat="45.68261247128248" lon="17.704131491482258">
        <ele>208.3</ele>
        <time>2023-10-16T18:52:28.817Z</time>
      </trkpt>
      <trkpt lat="45.682636108249426" lon="17.70412813872099">
        <ele>208.31</ele>
        <time>2023-10-16T18:52:32.266Z</time>
      </trkpt>
      <trkpt lat="45.682659577578306" lon="17.7041241992265">
        <ele>208.33</ele>
        <time>2023-10-16T18:52:35.715Z</time>
      </trkpt>
      <trkpt lat="45.682682963088155" lon="17.704119756817818">
        <ele>208.35</ele>
        <time>2023-10-16T18:52:39.165Z</time>
      </trkpt>
      <trkpt lat="45.682706432417035" lon="17.704114811494946">
        <ele>208.38</ele>
        <time>2023-10-16T18:52:42.616Z</time>
      </trkpt>
      <trkpt lat="45.68273006938398" lon="17.704109363257885">
        <ele>208.41</ele>
        <time>2023-10-16T18:52:46.068Z</time>
      </trkpt>
      <trkpt lat="45.682753873988986" lon="17.704103579744697">
        <ele>208.44</ele>
        <time>2023-10-16T18:52:49.521Z</time>
      </trkpt>
      <trkpt lat="45.68277784623206" lon="17.70409737713635">
        <ele>208.48</ele>
        <time>2023-10-16T18:52:52.974Z</time>
      </trkpt>
      <trkpt lat="45.682802153751254" lon="17.704090923070908">
        <ele>208.53</ele>
        <time>2023-10-16T18:52:56.428Z</time>
      </trkpt>
      <trkpt lat="45.68282679654658" lon="17.704084552824497">
        <ele>208.57</ele>
        <time>2023-10-16T18:52:59.883Z</time>
      </trkpt>
      <trkpt lat="45.68285177461803" lon="17.704078685492277">
        <ele>208.63</ele>
        <time>2023-10-16T18:53:03.339Z</time>
      </trkpt>
      <trkpt lat="45.682876920327544" lon="17.70407348871231">
        <ele>208.69</ele>
        <time>2023-10-16T18:53:06.796Z</time>
      </trkpt>
      <trkpt lat="45.68290248513222" lon="17.704069297760725">
        <ele>208.75</ele>
        <time>2023-10-16T18:53:10.254Z</time>
      </trkpt>
      <trkpt lat="45.682928217574954" lon="17.70406611263752">
        <ele>208.82</ele>
        <time>2023-10-16T18:53:13.713Z</time>
      </trkpt>
      <trkpt lat="45.682954201474786" lon="17.704064017161727">
        <ele>208.89</ele>
        <time>2023-10-16T18:53:17.172Z</time>
      </trkpt>
      <trkpt lat="45.68298026919365" lon="17.704063011333346">
        <ele>208.96</ele>
        <time>2023-10-16T18:53:20.632Z</time>
      </trkpt>
      <trkpt lat="45.68300616927445" lon="17.704062927514315">
        <ele>209.04</ele>
        <time>2023-10-16T18:53:24.093Z</time>
      </trkpt>
      <trkpt lat="45.683031901717186" lon="17.7040636818856">
        <ele>209.11</ele>
        <time>2023-10-16T18:53:27.555Z</time>
      </trkpt>
      <trkpt lat="45.68305755034089" lon="17.70406519062817">
        <ele>209.19</ele>
        <time>2023-10-16T18:53:31.018Z</time>
      </trkpt>
      <trkpt lat="45.683082696050406" lon="17.704067286103964">
        <ele>209.27</ele>
        <time>2023-10-16T18:53:34.482Z</time>
      </trkpt>
      <trkpt lat="45.68310750648379" lon="17.704069800674915">
        <ele>209.35</ele>
        <time>2023-10-16T18:53:37.947Z</time>
      </trkpt>
      <trkpt lat="45.68313214927912" lon="17.70407298579812">
        <ele>209.43</ele>
        <time>2023-10-16T18:53:41.412Z</time>
      </trkpt>
      <trkpt lat="45.68315654061735" lon="17.704076673835516">
        <ele>209.5</ele>
        <time>2023-10-16T18:53:44.878Z</time>
      </trkpt>
      <trkpt lat="45.68318068049848" lon="17.704081032425165">
        <ele>209.57</ele>
        <time>2023-10-16T18:53:48.345Z</time>
      </trkpt>
      <trkpt lat="45.683204401284456" lon="17.7040861453861">
        <ele>209.65</ele>
        <time>2023-10-16T18:53:51.813Z</time>
      </trkpt>
      <trkpt lat="45.683227786794305" lon="17.704092347994447">
        <ele>209.72</ele>
        <time>2023-10-16T18:53:55.282Z</time>
      </trkpt>
      <trkpt lat="45.68325100466609" lon="17.7040998917073">
        <ele>209.8</ele>
        <time>2023-10-16T18:53:58.751Z</time>
      </trkpt>
      <trkpt lat="45.68327388726175" lon="17.70410919561982">
        <ele>209.88</ele>
        <time>2023-10-16T18:54:02.221Z</time>
      </trkpt>
      <trkpt lat="45.68329660221934" lon="17.70412042737007">
        <ele>209.95</ele>
        <time>2023-10-16T18:54:05.692Z</time>
      </trkpt>
      <trkpt lat="45.68331898190081" lon="17.704133754596114">
        <ele>210.03</ele>
        <time>2023-10-16T18:54:09.164Z</time>
      </trkpt>
      <trkpt lat="45.683341193944216" lon="17.704149009659886">
        <ele>210.1</ele>
        <time>2023-10-16T18:54:12.637Z</time>
      </trkpt>
      <trkpt lat="45.68336348980665" lon="17.704166444018483">
        <ele>210.17</ele>
        <time>2023-10-16T18:54:16.110Z</time>
      </trkpt>
      <trkpt lat="45.68338578566909" lon="17.70418580621481">
        <ele>210.25</ele>
        <time>2023-10-16T18:54:19.584Z</time>
      </trkpt>
      <trkpt lat="45.683408081531525" lon="17.7042069286108">
        <ele>210.31</ele>
        <time>2023-10-16T18:54:23.059Z</time>
      </trkpt>
      <trkpt lat="45.68343037739396" lon="17.70422981120646">
        <ele>210.37</ele>
        <time>2023-10-16T18:54:26.535Z</time>
      </trkpt>
      <trkpt lat="45.683452505618334" lon="17.70425420254469">
        <ele>210.44</ele>
        <time>2023-10-16T18:54:30.012Z</time>
      </trkpt>
      <trkpt lat="45.68347446620464" lon="17.70428010262549">
        <ele>210.5</ele>
        <time>2023-10-16T18:54:33.490Z</time>
      </trkpt>
      <trkpt lat="45.68349617533386" lon="17.70430700853467">
        <ele>210.55</ele>
        <time>2023-10-16T18:54:36.969Z</time>
      </trkpt>
      <trkpt lat="45.683517549186945" lon="17.704334501177073">
        <ele>210.61</ele>
        <time>2023-10-16T18:54:40.449Z</time>
      </trkpt>
      <trkpt lat="45.683538587763906" lon="17.704362412914634">
        <ele>210.66</ele>
        <time>2023-10-16T18:54:43.930Z</time>
      </trkpt>
      <trkpt lat="45.68355920724571" lon="17.70439049229026">
        <ele>210.71</ele>
        <time>2023-10-16T18:54:47.412Z</time>
      </trkpt>
      <trkpt lat="45.68357923999429" lon="17.704418823122978">
        <ele>210.75</ele>
        <time>2023-10-16T18:54:50.895Z</time>
      </trkpt>
      <trkpt lat="45.68359835073352" lon="17.704446986317635">
        <ele>210.79</ele>
        <time>2023-10-16T18:54:54.379Z</time>
      </trkpt>
      <trkpt lat="45.68361645564437" lon="17.70447514951229">
        <ele>210.83</ele>
        <time>2023-10-16T18:54:57.864Z</time>
      </trkpt>
      <trkpt lat="45.6836337223649" lon="17.704503312706947">
        <ele>210.86</ele>
        <time>2023-10-16T18:55:01.349Z</time>
      </trkpt>
      <trkpt lat="45.68365015089512" lon="17.70453130826354">
        <ele>210.88</ele>
        <time>2023-10-16T18:55:04.835Z</time>
      </trkpt>
      <trkpt lat="45.68366574123502" lon="17.70455913618207">
        <ele>210.9</ele>
        <time>2023-10-16T18:55:08.322Z</time>
      </trkpt>
      <trkpt lat="45.68368057720363" lon="17.70458646118641">
        <ele>210.92</ele>
        <time>2023-10-16T18:55:11.810Z</time>
      </trkpt>
      <trkpt lat="45.68369457498193" lon="17.704613115638494">
        <ele>210.93</ele>
        <time>2023-10-16T18:55:15.299Z</time>
      </trkpt>
      <trkpt lat="45.68370773456991" lon="17.704639015719295">
        <ele>210.94</ele>
        <time>2023-10-16T18:55:18.788Z</time>
      </trkpt>
      <trkpt lat="45.6837201397866" lon="17.704664412885904">
        <ele>210.95</ele>
        <time>2023-10-16T18:55:22.278Z</time>
      </trkpt>
      <trkpt lat="45.68373195827007" lon="17.704689223319292">
        <ele>210.95</ele>
        <time>2023-10-16T18:55:25.769Z</time>
      </trkpt>
      <trkpt lat="45.68374319002032" lon="17.704713279381394">
        <ele>210.94</ele>
        <time>2023-10-16T18:55:29.261Z</time>
      </trkpt>
      <trkpt lat="45.683754002675414" lon="17.70473649725318">
        <ele>210.93</ele>
        <time>2023-10-16T18:55:32.753Z</time>
      </trkpt>
      <trkpt lat="45.68376448005438" lon="17.70475896075368">
        <ele>210.92</ele>
        <time>2023-10-16T18:55:36.246Z</time>
      </trkpt>
      <trkpt lat="45.68377487361431" lon="17.7047804184258">
        <ele>210.9</ele>
        <time>2023-10-16T18:55:39.739Z</time>
      </trkpt>
      <trkpt lat="45.68378518335521" lon="17.70480095408857">
        <ele>210.88</ele>
        <time>2023-10-16T18:55:43.233Z</time>
      </trkpt>
      <trkpt lat="45.68379574455321" lon="17.704820819199085">
        <ele>210.85</ele>
        <time>2023-10-16T18:55:46.728Z</time>
      </trkpt>
      <trkpt lat="45.68380664102733" lon="17.704840432852507">
        <ele>210.82</ele>
        <time>2023-10-16T18:55:50.223Z</time>
      </trkpt>
      <trkpt lat="45.683818040415645" lon="17.704859962686896">
        <ele>210.79</ele>
        <time>2023-10-16T18:55:53.719Z</time>
      </trkpt>
      <trkpt lat="45.683830277994275" lon="17.70488016307354">
        <ele>210.75</ele>
        <time>2023-10-16T18:55:57.215Z</time>
      </trkpt>
      <trkpt lat="45.68384335376322" lon="17.70490078255534">
        <ele>210.7</ele>
        <time>2023-10-16T18:56:00.712Z</time>
      </trkpt>
      <trkpt lat="45.683857183903456" lon="17.704921988770366">
        <ele>210.65</ele>
        <time>2023-10-16T18:56:04.210Z</time>
      </trkpt>
      <trkpt lat="45.68387168459594" lon="17.70494378171861">
        <ele>210.6</ele>
        <time>2023-10-16T18:56:07.708Z</time>
      </trkpt>
      <trkpt lat="45.68388710729778" lon="17.704966329038143">
        <ele>210.54</ele>
        <time>2023-10-16T18:56:11.207Z</time>
      </trkpt>
      <trkpt lat="45.683903116732836" lon="17.70498963072896">
        <ele>210.48</ele>
        <time>2023-10-16T18:56:14.707Z</time>
      </trkpt>
      <trkpt lat="45.683919629082084" lon="17.705013686791062">
        <ele>210.42</ele>
        <time>2023-10-16T18:56:18.208Z</time>
      </trkpt>
      <trkpt lat="45.68393656052649" lon="17.705038581043482">
        <ele>210.35</ele>
        <time>2023-10-16T18:56:21.710Z</time>
      </trkpt>
      <trkpt lat="45.68395357578993" lon="17.705064229667187">
        <ele>210.27</ele>
        <time>2023-10-16T18:56:25.212Z</time>
      </trkpt>
      <trkpt lat="45.68397075869143" lon="17.705090381205082">
        <ele>210.2</ele>
        <time>2023-10-16T18:56:28.715Z</time>
      </trkpt>
      <trkpt lat="45.68398802541196" lon="17.70511670038104">
        <ele>210.12</ele>
        <time>2023-10-16T18:56:32.219Z</time>
      </trkpt>
      <trkpt lat="45.68400512449443" lon="17.705142684280872">
        <ele>210.03</ele>
        <time>2023-10-16T18:56:35.724Z</time>
      </trkpt>
      <trkpt lat="45.68402239121497" lon="17.705168332904577">
        <ele>209.95</ele>
        <time>2023-10-16T18:56:39.230Z</time>
      </trkpt>
      <trkpt lat="45.684039909392595" lon="17.70519339479506">
        <ele>209.86</ele>
        <time>2023-10-16T18:56:42.737Z</time>
      </trkpt>
      <trkpt lat="45.68405784666538" lon="17.705218037590384">
        <ele>209.77</ele>
        <time>2023-10-16T18:56:46.244Z</time>
      </trkpt>
      <trkpt lat="45.684076119214296" lon="17.70524217747152">
        <ele>209.67</ele>
        <time>2023-10-16T18:56:49.752Z</time>
      </trkpt>
      <trkpt lat="45.68409497849643" lon="17.70526573061943">
        <ele>209.57</ele>
        <time>2023-10-16T18:56:53.261Z</time>
      </trkpt>
      <trkpt lat="45.68411442451179" lon="17.705288780853152">
        <ele>209.47</ele>
        <time>2023-10-16T18:56:56.771Z</time>
      </trkpt>
      <trkpt lat="45.684134624898434" lon="17.705311328172684">
        <ele>209.37</ele>
        <time>2023-10-16T18:57:00.282Z</time>
      </trkpt>
      <trkpt lat="45.684155747294426" lon="17.705333456397057">
        <ele>209.26</ele>
        <time>2023-10-16T18:57:03.794Z</time>
      </trkpt>
      <trkpt lat="45.684177624061704" lon="17.70535558462143">
        <ele>209.15</ele>
        <time>2023-10-16T18:57:07.307Z</time>
      </trkpt>
      <trkpt lat="45.6842003390193" lon="17.705377964302897">
        <ele>209.04</ele>
        <time>2023-10-16T18:57:10.820Z</time>
      </trkpt>
      <trkpt lat="45.68422347307205" lon="17.705401265993714">
        <ele>208.93</ele>
        <time>2023-10-16T18:57:14.334Z</time>
      </trkpt>
      <trkpt lat="45.68424719385803" lon="17.705426327884197">
        <ele>208.81</ele>
        <time>2023-10-16T18:57:17.849Z</time>
      </trkpt>
      <trkpt lat="45.684271082282066" lon="17.705453485250473">
        <ele>208.69</ele>
        <time>2023-10-16T18:57:21.365Z</time>
      </trkpt>
      <trkpt lat="45.68429505452514" lon="17.705482905730605">
        <ele>208.57</ele>
        <time>2023-10-16T18:57:24.882Z</time>
      </trkpt>
      <trkpt lat="45.68431869149208" lon="17.705514756962657">
        <ele>208.44</ele>
        <time>2023-10-16T18:57:28.401Z</time>
      </trkpt>
      <trkpt lat="45.684341825544834" lon="17.70554912276566">
        <ele>208.32</ele>
        <time>2023-10-16T18:57:31.921Z</time>
      </trkpt>
      <trkpt lat="45.684364289045334" lon="17.70558625459671">
        <ele>208.19</ele>
        <time>2023-10-16T18:57:35.442Z</time>
      </trkpt>
      <trkpt lat="45.684385830536485" lon="17.705625649541616">
        <ele>208.06</ele>
        <time>2023-10-16T18:57:38.964Z</time>
      </trkpt>
      <trkpt lat="45.68440619856119" lon="17.705666972324252">
        <ele>207.93</ele>
        <time>2023-10-16T18:57:42.487Z</time>
      </trkpt>
      <trkpt lat="45.68442556075752" lon="17.705710139125586">
        <ele>207.8</ele>
        <time>2023-10-16T18:57:46.011Z</time>
      </trkpt>
      <trkpt lat="45.6844437494874" lon="17.705754479393363">
        <ele>207.66</ele>
        <time>2023-10-16T18:57:49.537Z</time>
      </trkpt>
      <trkpt lat="45.684461519122124" lon="17.705798652023077">
        <ele>207.53</ele>
        <time>2023-10-16T18:57:53.064Z</time>
      </trkpt>
      <trkpt lat="45.68447895348072" lon="17.70584081299603">
        <ele>207.39</ele>
        <time>2023-10-16T18:57:56.592Z</time>
      </trkpt>
      <trkpt lat="45.68449663929641" lon="17.705880207940936">
        <ele>207.25</ele>
        <time>2023-10-16T18:58:00.121Z</time>
      </trkpt>
      <trkpt lat="45.684514408931136" lon="17.70591650158167">
        <ele>207.11</ele>
        <time>2023-10-16T18:58:03.651Z</time>
      </trkpt>
      <trkpt lat="45.68453251384199" lon="17.705949191004038">
        <ele>206.96</ele>
        <time>2023-10-16T18:58:07.182Z</time>
      </trkpt>
      <trkpt lat="45.68455087020993" lon="17.70597810856998">
        <ele>206.8</ele>
        <time>2023-10-16T18:58:10.714Z</time>
      </trkpt>
      <trkpt lat="45.684569561854005" lon="17.70600358955562">
        <ele>206.65</ele>
        <time>2023-10-16T18:58:14.247Z</time>
      </trkpt>
      <trkpt lat="45.6845888402313" lon="17.706026136875153">
        <ele>206.49</ele>
        <time>2023-10-16T18:58:17.781Z</time>
      </trkpt>
      <trkpt lat="45.68460895679891" lon="17.706045918166637">
        <ele>206.33</ele>
        <time>2023-10-16T18:58:21.315Z</time>
      </trkpt>
      <trkpt lat="45.68462957628071" lon="17.706062849611044">
        <ele>206.16</ele>
        <time>2023-10-16T18:58:24.850Z</time>
      </trkpt>
      <trkpt lat="45.68465078249574" lon="17.706077517941594">
        <ele>205.99</ele>
        <time>2023-10-16T18:58:28.386Z</time>
      </trkpt>
      <trkpt lat="45.684672156348825" lon="17.706090845167637">
        <ele>205.82</ele>
        <time>2023-10-16T18:58:31.923Z</time>
      </trkpt>
      <trkpt lat="45.68469336256385" lon="17.706103837117553">
        <ele>205.64</ele>
        <time>2023-10-16T18:58:35.460Z</time>
      </trkpt>
      <trkpt lat="45.68471381440759" lon="17.70611682906747">
        <ele>205.46</ele>
        <time>2023-10-16T18:58:38.998Z</time>
      </trkpt>
      <trkpt lat="45.68473351188004" lon="17.706129904836416">
        <ele>205.28</ele>
        <time>2023-10-16T18:58:42.537Z</time>
      </trkpt>
      <trkpt lat="45.68475245498121" lon="17.706143064424396">
        <ele>205.09</ele>
        <time>2023-10-16T18:58:46.077Z</time>
      </trkpt>
      <trkpt lat="45.68477106280625" lon="17.706155637279153">
        <ele>204.9</ele>
        <time>2023-10-16T18:58:49.617Z</time>
      </trkpt>
      <trkpt lat="45.6847891677171" lon="17.70616670139134">
        <ele>204.71</ele>
        <time>2023-10-16T18:58:53.158Z</time>
      </trkpt>
      <trkpt lat="45.68480626679957" lon="17.706175167113543">
        <ele>204.51</ele>
        <time>2023-10-16T18:58:56.700Z</time>
      </trkpt>
      <trkpt lat="45.68482252769172" lon="17.706180782988667">
        <ele>204.31</ele>
        <time>2023-10-16T18:59:00.242Z</time>
      </trkpt>
      <trkpt lat="45.68483769893646" lon="17.70618338137865">
        <ele>204.1</ele>
        <time>2023-10-16T18:59:03.785Z</time>
      </trkpt>
      <trkpt lat="45.684852031990886" lon="17.70618287846446">
        <ele>203.89</ele>
        <time>2023-10-16T18:59:07.328Z</time>
      </trkpt>
      <trkpt lat="45.68486535921693" lon="17.706178603693843">
        <ele>203.67</ele>
        <time>2023-10-16T18:59:10.872Z</time>
      </trkpt>
      <trkpt lat="45.68487776443362" lon="17.706170808523893">
        <ele>203.45</ele>
        <time>2023-10-16T18:59:14.416Z</time>
      </trkpt>
      <trkpt lat="45.68488949909806" lon="17.706159660592675">
        <ele>203.22</ele>
        <time>2023-10-16T18:59:17.961Z</time>
      </trkpt>
      <trkpt lat="45.684900395572186" lon="17.70614566281438">
        <ele>202.99</ele>
        <time>2023-10-16T18:59:21.506Z</time>
      </trkpt>
      <trkpt lat="45.68491070531309" lon="17.706129318103194">
        <ele>202.75</ele>
        <time>2023-10-16T18:59:25.052Z</time>
      </trkpt>
      <trkpt lat="45.684919925406575" lon="17.706111213192344">
        <ele>202.51</ele>
        <time>2023-10-16T18:59:28.598Z</time>
      </trkpt>
      <trkpt lat="45.68492855876684" lon="17.706091850996017">
        <ele>202.26</ele>
        <time>2023-10-16T18:59:32.145Z</time>
      </trkpt>
      <trkpt lat="45.68493668921292" lon="17.70607190206647">
        <ele>202.0</ele>
        <time>2023-10-16T18:59:35.692Z</time>
      </trkpt>
      <trkpt lat="45.684944316744804" lon="17.706051701679826">
        <ele>201.73</ele>
        <time>2023-10-16T18:59:39.240Z</time>
      </trkpt>
      <trkpt lat="45.68495135754347" lon="17.706031752750278">
        <ele>201.46</ele>
        <time>2023-10-16T18:59:42.788Z</time>
      </trkpt>
      <trkpt lat="45.68495764397085" lon="17.706012474372983">
        <ele>201.18</ele>
        <time>2023-10-16T18:59:46.337Z</time>
      </trkpt>
      <trkpt lat="45.684963343665004" lon="17.705994034186006">
        <ele>200.9</ele>
        <time>2023-10-16T18:59:49.886Z</time>
      </trkpt>
      <trkpt lat="45.684968288987875" lon="17.705976264551282">
        <ele>200.6</ele>
        <time>2023-10-16T18:59:53.436Z</time>
      </trkpt>
      <trkpt lat="45.68497247993946" lon="17.70595857873559">
        <ele>200.3</ele>
        <time>2023-10-16T18:59:56.986Z</time>
      </trkpt>
      <trkpt lat="45.68497600033879" lon="17.705940390005708">
        <ele>199.99</ele>
        <time>2023-10-16T19:00:00.536Z</time>
      </trkpt>
      <trkpt lat="45.68497926928103" lon="17.70592136308551">
        <ele>199.68</ele>
        <time>2023-10-16T19:00:04.087Z</time>
      </trkpt>
      <trkpt lat="45.68498228676617" lon="17.705901162698865">
        <ele>199.35</ele>
        <time>2023-10-16T19:00:07.638Z</time>
      </trkpt>
      <trkpt lat="45.68498513661325" lon="17.705880124121904">
        <ele>199.02</ele>
        <time>2023-10-16T19:00:11.190Z</time>
      </trkpt>
      <trkpt lat="45.68498815409839" lon="17.705858163535595">
        <ele>198.68</ele>
        <time>2023-10-16T19:00:14.742Z</time>
      </trkpt>
      <trkpt lat="45.68499142304063" lon="17.705835448578">
        <ele>198.33</ele>
        <time>2023-10-16T19:00:18.295Z</time>
      </trkpt>
      <trkpt lat="45.684995111078024" lon="17.70581105723977">
        <ele>197.97</ele>
        <time>2023-10-16T19:00:21.849Z</time>
      </trkpt>
      <trkpt lat="45.68499946966767" lon="17.705784738063812">
        <ele>197.6</ele>
        <time>2023-10-16T19:00:25.403Z</time>
      </trkpt>
      <trkpt lat="45.685004498809576" lon="17.705756071954966">
        <ele>197.22</ele>
        <time>2023-10-16T19:00:28.958Z</time>
      </trkpt>
      <trkpt lat="45.68501061759889" lon="17.705725226551294">
        <ele>196.83</ele>
        <time>2023-10-16T19:00:32.514Z</time>
      </trkpt>
      <trkpt lat="45.685018077492714" lon="17.70569278858602">
        <ele>196.43</ele>
        <time>2023-10-16T19:00:36.070Z</time>
      </trkpt>
      <trkpt lat="45.68502712994814" lon="17.70565909333527">
        <ele>196.02</ele>
        <time>2023-10-16T19:00:39.627Z</time>
      </trkpt>
      <trkpt lat="45.68503743968904" lon="17.70562388934195">
        <ele>195.61</ele>
        <time>2023-10-16T19:00:43.185Z</time>
      </trkpt>
      <trkpt lat="45.68504900671542" lon="17.705587511882186">
        <ele>195.18</ele>
        <time>2023-10-16T19:00:46.744Z</time>
      </trkpt>
      <trkpt lat="45.685061579570174" lon="17.705550463870168">
        <ele>194.75</ele>
        <time>2023-10-16T19:00:50.304Z</time>
      </trkpt>
      <trkpt lat="45.68507499061525" lon="17.705512577667832">
        <ele>194.31</ele>
        <time>2023-10-16T19:00:53.865Z</time>
      </trkpt>
      <trkpt lat="45.68508907221258" lon="17.705474020913243">
        <ele>193.87</ele>
        <time>2023-10-16T19:00:57.427Z</time>
      </trkpt>
      <trkpt lat="45.685104075819254" lon="17.705435045063496">
        <ele>193.41</ele>
        <time>2023-10-16T19:01:00.990Z</time>
      </trkpt>
      <trkpt lat="45.68511991761625" lon="17.705395901575685">
        <ele>192.95</ele>
        <time>2023-10-16T19:01:04.554Z</time>
      </trkpt>
      <trkpt lat="45.68513651378453" lon="17.705356841906905">
        <ele>192.47</ele>
        <time>2023-10-16T19:01:08.119Z</time>
      </trkpt>
      <trkpt lat="45.68515378050506" lon="17.705318201333284">
        <ele>191.99</ele>
        <time>2023-10-16T19:01:11.685Z</time>
      </trkpt>
      <trkpt lat="45.685171550139785" lon="17.705279979854822">
        <ele>191.5</ele>
        <time>2023-10-16T19:01:15.252Z</time>
      </trkpt>
      <trkpt lat="45.685189571231604" lon="17.705242093652487">
        <ele>191.0</ele>
        <time>2023-10-16T19:01:18.820Z</time>
      </trkpt>
      <trkpt lat="45.68520784378052" lon="17.705204878002405">
        <ele>190.5</ele>
        <time>2023-10-16T19:01:22.390Z</time>
      </trkpt>
      <trkpt lat="45.68522620014846" lon="17.705168165266514">
        <ele>189.98</ele>
        <time>2023-10-16T19:01:25.961Z</time>
      </trkpt>
      <trkpt lat="45.68524464033544" lon="17.705131452530622">
        <ele>189.46</ele>
        <time>2023-10-16T19:01:29.533Z</time>
      </trkpt>
      <trkpt lat="45.68526308052242" lon="17.705094991251826">
        <ele>188.93</ele>
        <time>2023-10-16T19:01:33.106Z</time>
      </trkpt>
      <trkpt lat="45.685281436890364" lon="17.705058362334967">
        <ele>188.4</ele>
        <time>2023-10-16T19:01:36.680Z</time>
      </trkpt>
      <trkpt lat="45.68529945798218" lon="17.705021649599075">
        <ele>187.86</ele>
        <time>2023-10-16T19:01:40.255Z</time>
      </trkpt>
      <trkpt lat="45.68531705997884" lon="17.704984936863184">
        <ele>187.31</ele>
        <time>2023-10-16T19:01:43.831Z</time>
      </trkpt>
      <trkpt lat="45.68533407524228" lon="17.704948475584388">
        <ele>186.76</ele>
        <time>2023-10-16T19:01:47.408Z</time>
      </trkpt>
      <trkpt lat="45.6853505037725" lon="17.704912098124623">
        <ele>186.21</ele>
        <time>2023-10-16T19:01:50.986Z</time>
      </trkpt>
      <trkpt lat="45.685366513207555" lon="17.704875469207764">
        <ele>185.65</ele>
        <time>2023-10-16T19:01:54.565Z</time>
      </trkpt>
      <trkpt lat="45.685382103547454" lon="17.704838840290904">
        <ele>185.09</ele>
        <time>2023-10-16T19:01:58.145Z</time>
      </trkpt>
      <trkpt lat="45.6853970233351" lon="17.704802630469203">
        <ele>184.52</ele>
        <time>2023-10-16T19:02:01.726Z</time>
      </trkpt>
      <trkpt lat="45.685411440208554" lon="17.70476625300944">
        <ele>183.95</ele>
        <time>2023-10-16T19:02:05.308Z</time>
      </trkpt>
      <trkpt lat="45.68542535416782" lon="17.704729959368706">
        <ele>183.38</ele>
        <time>2023-10-16T19:02:08.891Z</time>
      </trkpt>
      <trkpt lat="45.68543893285096" lon="17.704693749547005">
        <ele>182.8</ele>
        <time>2023-10-16T19:02:12.475Z</time>
      </trkpt>
      <trkpt lat="45.68545234389603" lon="17.704657707363367">
        <ele>182.23</ele>
        <time>2023-10-16T19:02:16.060Z</time>
      </trkpt>
      <trkpt lat="45.685465671122074" lon="17.704621832817793">
        <ele>181.64</ele>
        <time>2023-10-16T19:02:19.646Z</time>
      </trkpt>
      <trkpt lat="45.68547899834812" lon="17.70458604209125">
        <ele>181.05</ele>
        <time>2023-10-16T19:02:23.233Z</time>
      </trkpt>
      <trkpt lat="45.68549232557416" lon="17.704550167545676">
        <ele>180.46</ele>
        <time>2023-10-16T19:02:26.821Z</time>
      </trkpt>
      <trkpt lat="45.6855059042573" lon="17.70451412536204">
        <ele>179.86</ele>
        <time>2023-10-16T19:02:30.410Z</time>
      </trkpt>
      <trkpt lat="45.68551931530237" lon="17.704478166997433">
        <ele>179.26</ele>
        <time>2023-10-16T19:02:33.999Z</time>
      </trkpt>
      <trkpt lat="45.685532726347446" lon="17.7044418733567">
        <ele>178.66</ele>
        <time>2023-10-16T19:02:37.589Z</time>
      </trkpt>
      <trkpt lat="45.68554647266865" lon="17.704404992982745">
        <ele>178.06</ele>
        <time>2023-10-16T19:02:41.180Z</time>
      </trkpt>
      <trkpt lat="45.685560470446944" lon="17.70436811260879">
        <ele>177.45</ele>
        <time>2023-10-16T19:02:44.772Z</time>
      </trkpt>
      <trkpt lat="45.685574635863304" lon="17.704331064596772">
        <ele>176.85</ele>
        <time>2023-10-16T19:02:48.365Z</time>
      </trkpt>
      <trkpt lat="45.68558913655579" lon="17.704293597489595">
        <ele>176.24</ele>
        <time>2023-10-16T19:02:51.959Z</time>
      </trkpt>
      <trkpt lat="45.68560363724828" lon="17.70425621420145">
        <ele>175.63</ele>
        <time>2023-10-16T19:02:55.554Z</time>
      </trkpt>
      <trkpt lat="45.685618137940764" lon="17.7042190823704">
        <ele>175.02</ele>
        <time>2023-10-16T19:02:59.150Z</time>
      </trkpt>
      <trkpt lat="45.68563247099519" lon="17.70418236963451">
        <ele>174.4</ele>
        <time>2023-10-16T19:03:02.747Z</time>
      </trkpt>
      <trkpt lat="45.68564680404961" lon="17.704146495088935">
        <ele>173.78</ele>
        <time>2023-10-16T19:03:06.345Z</time>
      </trkpt>
      <trkpt lat="45.68566096946597" lon="17.704111374914646">
        <ele>173.17</ele>
        <time>2023-10-16T19:03:09.944Z</time>
      </trkpt>
      <trkpt lat="45.68567513488233" lon="17.704077260568738">
        <ele>172.55</ele>
        <time>2023-10-16T19:03:13.544Z</time>
      </trkpt>
      <trkpt lat="45.685688965022564" lon="17.704044319689274">
        <ele>171.94</ele>
        <time>2023-10-16T19:03:17.145Z</time>
      </trkpt>
      <trkpt lat="45.685702208429575" lon="17.704012971371412">
        <ele>171.32</ele>
        <time>2023-10-16T19:03:20.747Z</time>
      </trkpt>
      <trkpt lat="45.685714865103364" lon="17.703983215615153">
        <ele>170.71</ele>
        <time>2023-10-16T19:03:24.350Z</time>
      </trkpt>
      <trkpt lat="45.685727102681994" lon="17.70395522005856">
        <ele>170.1</ele>
        <time>2023-10-16T19:03:27.954Z</time>
      </trkpt>
      <trkpt lat="45.6857387535274" lon="17.703929068520665">
        <ele>169.5</ele>
        <time>2023-10-16T19:03:31.558Z</time>
      </trkpt>
      <trkpt lat="45.685749650001526" lon="17.703904593363404">
        <ele>168.9</ele>
        <time>2023-10-16T19:03:35.163Z</time>
      </trkpt>
      <trkpt lat="45.68576004356146" lon="17.703881124034524">
        <ele>168.3</ele>
        <time>2023-10-16T19:03:38.769Z</time>
      </trkpt>
      <trkpt lat="45.685769682750106" lon="17.703858576714993">
        <ele>167.71</ele>
        <time>2023-10-16T19:03:42.375Z</time>
      </trkpt>
      <trkpt lat="45.6857786513865" lon="17.70383653230965">
        <ele>167.13</ele>
        <time>2023-10-16T19:03:45.982Z</time>
      </trkpt>
      <trkpt lat="45.68578694947064" lon="17.703815242275596">
        <ele>166.55</ele>
        <time>2023-10-16T19:03:49.589Z</time>
      </trkpt>
      <trkpt lat="45.68579482845962" lon="17.70379445515573">
        <ele>165.98</ele>
        <time>2023-10-16T19:03:53.197Z</time>
      </trkpt>
      <trkpt lat="45.68580220453441" lon="17.703774087131023">
        <ele>165.41</ele>
        <time>2023-10-16T19:03:56.805Z</time>
      </trkpt>
      <trkpt lat="45.68580932915211" lon="17.70375388674438">
        <ele>164.85</ele>
        <time>2023-10-16T19:04:00.414Z</time>
      </trkpt>
      <trkpt lat="45.68581636995077" lon="17.70373335108161">
        <ele>164.3</ele>
        <time>2023-10-16T19:04:04.023Z</time>
      </trkpt>
      <trkpt lat="45.68582315929234" lon="17.703712228685617">
        <ele>163.75</ele>
        <time>2023-10-16T19:04:07.633Z</time>
      </trkpt>
      <trkpt lat="45.68582986481488" lon="17.703690603375435">
        <ele>163.21</ele>
        <time>2023-10-16T19:04:11.244Z</time>
      </trkpt>
      <trkpt lat="45.68583665415645" lon="17.703668558970094">
        <ele>162.68</ele>
        <time>2023-10-16T19:04:14.855Z</time>
      </trkpt>
      <trkpt lat="45.68584361113608" lon="17.70364643074572">
        <ele>162.15</ele>
        <time>2023-10-16T19:04:18.467Z</time>
      </trkpt>
      <trkpt lat="45.685850735753775" lon="17.703624051064253">
        <ele>161.63</ele>
        <time>2023-10-16T19:04:22.079Z</time>
      </trkpt>
      <trkpt lat="45.685858111828566" lon="17.703601587563753">
        <ele>161.12</ele>
        <time>2023-10-16T19:04:25.692Z</time>
      </trkpt>
      <trkpt lat="45.68586582317948" lon="17.703578369691968">
        <ele>160.62</ele>
        <time>2023-10-16T19:04:29.305Z</time>
      </trkpt>
      <trkpt lat="45.68587361834943" lon="17.70355448126793">
        <ele>160.13</ele>
        <time>2023-10-16T19:04:32.919Z</time>
      </trkpt>
      <trkpt lat="45.68588141351938" lon="17.703530006110668">
        <ele>159.65</ele>
        <time>2023-10-16T19:04:36.534Z</time>
      </trkpt>
      <trkpt lat="45.6858891248703" lon="17.703504944220185">
        <ele>159.17</ele>
        <time>2023-10-16T19:04:40.149Z</time>
      </trkpt>
      <trkpt lat="45.68589650094509" lon="17.703480049967766">
        <ele>158.71</ele>
        <time>2023-10-16T19:04:43.765Z</time>
      </trkpt>
      <trkpt lat="45.68590370938182" lon="17.703455239534378">
        <ele>158.26</ele>
        <time>2023-10-16T19:04:47.382Z</time>
      </trkpt>
      <trkpt lat="45.68591075018048" lon="17.70343084819615">
        <ele>157.81</ele>
        <time>2023-10-16T19:04:50.999Z</time>
      </trkpt>
      <trkpt lat="45.68591804243624" lon="17.703406624495983">
        <ele>157.38</ele>
        <time>2023-10-16T19:04:54.617Z</time>
      </trkpt>
      <trkpt lat="45.68592566996813" lon="17.703382233157754">
        <ele>156.96</ele>
        <time>2023-10-16T19:04:58.235Z</time>
      </trkpt>
      <trkpt lat="45.68593346513808" lon="17.703357925638556">
        <ele>156.55</ele>
        <time>2023-10-16T19:05:01.854Z</time>
      </trkpt>
      <trkpt lat="45.68594142794609" lon="17.70333370193839">
        <ele>156.15</ele>
        <time>2023-10-16T19:05:05.474Z</time>
      </trkpt>
      <trkpt lat="45.68594922311604" lon="17.70331014879048">
        <ele>155.77</ele>
        <time>2023-10-16T19:05:09.094Z</time>
      </trkpt>
      <trkpt lat="45.685956850647926" lon="17.70328676328063">
        <ele>155.39</ele>
        <time>2023-10-16T19:05:12.715Z</time>
      </trkpt>
      <trkpt lat="45.68596439436078" lon="17.70326379686594">
        <ele>155.03</ele>
        <time>2023-10-16T19:05:16.337Z</time>
      </trkpt>
      <trkpt lat="45.685971435159445" lon="17.70324124954641">
        <ele>154.68</ele>
        <time>2023-10-16T19:05:19.959Z</time>
      </trkpt>
      <trkpt lat="45.68597797304392" lon="17.703219121322036">
        <ele>154.34</ele>
        <time>2023-10-16T19:05:23.582Z</time>
      </trkpt>
      <trkpt lat="45.685984091833234" lon="17.703197076916695">
        <ele>154.02</ele>
        <time>2023-10-16T19:05:27.205Z</time>
      </trkpt>
      <trkpt lat="45.68598962388933" lon="17.703175200149417">
        <ele>153.71</ele>
        <time>2023-10-16T19:05:30.829Z</time>
      </trkpt>
      <trkpt lat="45.685994401574135" lon="17.70315391011536">
        <ele>153.4</ele>
        <time>2023-10-16T19:05:34.453Z</time>
      </trkpt>
      <trkpt lat="45.685998341068625" lon="17.70313337445259">
        <ele>153.12</ele>
        <time>2023-10-16T19:05:38.078Z</time>
      </trkpt>
      <trkpt lat="45.68600152619183" lon="17.703113509342074">
        <ele>152.84</ele>
        <time>2023-10-16T19:05:41.703Z</time>
      </trkpt>
      <trkpt lat="45.68600404076278" lon="17.70309381186962">
        <ele>152.58</ele>
        <time>2023-10-16T19:05:45.329Z</time>
      </trkpt>
      <trkpt lat="45.68600596860051" lon="17.703074114397168">
        <ele>152.33</ele>
        <time>2023-10-16T19:05:48.955Z</time>
      </trkpt>
      <trkpt lat="45.686007561162114" lon="17.703054836019874">
        <ele>152.1</ele>
        <time>2023-10-16T19:05:52.582Z</time>
      </trkpt>
      <trkpt lat="45.68600923754275" lon="17.70303555764258">
        <ele>151.88</ele>
        <time>2023-10-16T19:05:56.209Z</time>
      </trkpt>
      <trkpt lat="45.68601116538048" lon="17.703016195446253">
        <ele>151.67</ele>
        <time>2023-10-16T19:05:59.837Z</time>
      </trkpt>
      <trkpt lat="45.686013512313366" lon="17.702996665611863">
        <ele>151.47</ele>
        <time>2023-10-16T19:06:03.465Z</time>
      </trkpt>
      <trkpt lat="45.686016445979476" lon="17.7029774710536">
        <ele>151.28</ele>
        <time>2023-10-16T19:06:07.093Z</time>
      </trkpt>
      <trkpt lat="45.68601996637881" lon="17.702958779409528">
        <ele>151.11</ele>
        <time>2023-10-16T19:06:10.722Z</time>
      </trkpt>
      <trkpt lat="45.68602398969233" lon="17.702940590679646">
        <ele>150.95</ele>
        <time>2023-10-16T19:06:14.351Z</time>
      </trkpt>
      <trkpt lat="45.68602851592004" lon="17.702922988682985">
        <ele>150.8</ele>
        <time>2023-10-16T19:06:17.981Z</time>
      </trkpt>
      <trkpt lat="45.68603337742388" lon="17.702905973419547">
        <ele>150.66</ele>
        <time>2023-10-16T19:06:21.611Z</time>
      </trkpt>
      <trkpt lat="45.68603849038482" lon="17.702889796346426">
        <ele>150.54</ele>
        <time>2023-10-16T19:06:25.242Z</time>
      </trkpt>
      <trkpt lat="45.68604385480285" lon="17.702874457463622">
        <ele>150.42</ele>
        <time>2023-10-16T19:06:28.873Z</time>
      </trkpt>
      <trkpt lat="45.68604921922088" lon="17.702859956771135">
        <ele>150.32</ele>
        <time>2023-10-16T19:06:32.504Z</time>
      </trkpt>
      <trkpt lat="45.68605416454375" lon="17.702846378087997">
        <ele>150.23</ele>
        <time>2023-10-16T19:06:36.136Z</time>
      </trkpt>
      <trkpt lat="45.686058439314365" lon="17.70283380523324">
        <ele>150.15</ele>
        <time>2023-10-16T19:06:39.768Z</time>
      </trkpt>
      <trkpt lat="45.68606221117079" lon="17.70282215438783">
        <ele>150.08</ele>
        <time>2023-10-16T19:06:43.400Z</time>
      </trkpt>
      <trkpt lat="45.68606506101787" lon="17.702811509370804">
        <ele>150.02</ele>
        <time>2023-10-16T19:06:47.033Z</time>
      </trkpt>
      <trkpt lat="45.68606690503657" lon="17.702801702544093">
        <ele>149.96</ele>
        <time>2023-10-16T19:06:50.666Z</time>
      </trkpt>
      <trkpt lat="45.68606799468398" lon="17.702792398631573">
        <ele>149.92</ele>
        <time>2023-10-16T19:06:54.299Z</time>
      </trkpt>
      <trkpt lat="45.686068246141076" lon="17.70278342999518">
        <ele>149.89</ele>
        <time>2023-10-16T19:06:57.932Z</time>
      </trkpt>
      <trkpt lat="45.686067743226886" lon="17.70277471281588">
        <ele>149.87</ele>
        <time>2023-10-16T19:07:01.566Z</time>
      </trkpt>
      <trkpt lat="45.68606648594141" lon="17.70276633091271">
        <ele>149.85</ele>
        <time>2023-10-16T19:07:05.200Z</time>
      </trkpt>
      <trkpt lat="45.68606464192271" lon="17.702758451923728">
        <ele>149.84</ele>
        <time>2023-10-16T19:07:08.834Z</time>
      </trkpt>
      <trkpt lat="45.68606246262789" lon="17.702751075848937">
        <ele>149.85</ele>
        <time>2023-10-16T19:07:12.468Z</time>
      </trkpt>
      <trkpt lat="45.686059948056936" lon="17.7027443703264">
        <ele>149.85</ele>
        <time>2023-10-16T19:07:16.102Z</time>
      </trkpt>
      <trkpt lat="45.68605768494308" lon="17.702738167718053">
        <ele>149.87</ele>
        <time>2023-10-16T19:07:19.736Z</time>
      </trkpt>
      <trkpt lat="45.68605575710535" lon="17.702732384204865">
        <ele>149.89</ele>
        <time>2023-10-16T19:07:23.371Z</time>
      </trkpt>
      <trkpt lat="45.68605424836278" lon="17.70272685214877">
        <ele>149.92</ele>
        <time>2023-10-16T19:07:27.006Z</time>
      </trkpt>
      <trkpt lat="45.686053074896336" lon="17.70272140391171">
        <ele>149.96</ele>
        <time>2023-10-16T19:07:30.641Z</time>
      </trkpt>
      <trkpt lat="45.68605240434408" lon="17.70271612331271">
        <ele>150.0</ele>
        <time>2023-10-16T19:07:34.276Z</time>
      </trkpt>
      <trkpt lat="45.68605215288699" lon="17.70271117798984">
        <ele>150.05</ele>
        <time>2023-10-16T19:07:37.911Z</time>
      </trkpt>
      <trkpt lat="45.68605215288699" lon="17.702706651762128">
        <ele>150.1</ele>
        <time>2023-10-16T19:07:41.546Z</time>
      </trkpt>
      <trkpt lat="45.686052571982145" lon="17.702702460810542">
        <ele>150.16</ele>
        <time>2023-10-16T19:07:45.181Z</time>
      </trkpt>
      <trkpt lat="45.68605315871537" lon="17.702698353677988">
        <ele>150.22</ele>
        <time>2023-10-16T19:07:48.816Z</time>
      </trkpt>
      <trkpt lat="45.68605391308665" lon="17.702694330364466">
        <ele>150.29</ele>
        <time>2023-10-16T19:07:52.452Z</time>
      </trkpt>
      <trkpt lat="45.68605475127697" lon="17.702690726146102">
        <ele>150.36</ele>
        <time>2023-10-16T19:07:56.088Z</time>
      </trkpt>
      <trkpt lat="45.68605558946729" lon="17.7026872895658">
        <ele>150.44</ele>
        <time>2023-10-16T19:07:59.724Z</time>
      </trkpt>
      <trkpt lat="45.68605626001954" lon="17.70268427208066">
        <ele>150.52</ele>
        <time>2023-10-16T19:08:03.360Z</time>
      </trkpt>
      <trkpt lat="45.686056930571795" lon="17.702681589871645">
        <ele>150.6</ele>
        <time>2023-10-16T19:08:06.996Z</time>
      </trkpt>
      <trkpt lat="45.686057433485985" lon="17.702679242938757">
        <ele>150.68</ele>
        <time>2023-10-16T19:08:10.632Z</time>
      </trkpt>
      <trkpt lat="45.68605776876211" lon="17.702677231281996">
        <ele>150.77</ele>
        <time>2023-10-16T19:08:14.268Z</time>
      </trkpt>
      <trkpt lat="45.68605810403824" lon="17.70267547108233">
        <ele>150.86</ele>
        <time>2023-10-16T19:08:17.904Z</time>
      </trkpt>
      <trkpt lat="45.68605818785727" lon="17.702674129977822">
        <ele>150.96</ele>
        <time>2023-10-16T19:08:21.540Z</time>
      </trkpt>
      <trkpt lat="45.686058355495334" lon="17.70267295651138">
        <ele>151.05</ele>
        <time>2023-10-16T19:08:25.176Z</time>
      </trkpt>
      <trkpt lat="45.686058439314365" lon="17.702672285959125">
        <ele>151.15</ele>
        <time>2023-10-16T19:08:28.812Z</time>
      </trkpt>
      <trkpt lat="45.6860585231334" lon="17.70267203450203">
        <ele>151.25</ele>
        <time>2023-10-16T19:08:32.448Z</time>
      </trkpt>
      <trkpt lat="45.68605869077146" lon="17.702671950682998">
        <ele>151.35</ele>
        <time>2023-10-16T19:08:36.084Z</time>
      </trkpt>
      <trkpt lat="45.68605877459049" lon="17.70267203450203">
        <ele>151.45</ele>
        <time>2023-10-16T19:08:39.720Z</time>
      </trkpt>
      <trkpt lat="45.686058858409524" lon="17.702672202140093">
        <ele>151.55</ele>
        <time>2023-10-16T19:08:43.356Z</time>
      </trkpt>
      <trkpt lat="45.686058858409524" lon="17.702672285959125">
        <ele>151.65</ele>
        <time>2023-10-16T19:08:46.992Z</time>
      </trkpt>
      <trkpt lat="45.686058858409524" lon="17.702672369778156">
        <ele>151.75</ele>
        <time>2023-10-16T19:08:50.628Z</time>
      </trkpt>
      <trkpt lat="45.68605877459049" lon="17.702672453597188">
        <ele>151.96</ele>
        <time>2023-10-16T19:08:54.264Z</time>
      </trkpt>
      <trkpt lat="45.68605869077146" lon="17.70267262123525">
        <ele>152.06</ele>
        <time>2023-10-16T19:08:57.900Z</time>
      </trkpt>
      <trkpt lat="45.686058439314365" lon="17.70267304033041">
        <ele>152.17</ele>
        <time>2023-10-16T19:09:01.536Z</time>
      </trkpt>
      <trkpt lat="45.68605802021921" lon="17.702673710882664">
        <ele>152.27</ele>
        <time>2023-10-16T19:09:05.172Z</time>
      </trkpt>
      <trkpt lat="45.68605734966695" lon="17.702674800530076">
        <ele>152.37</ele>
        <time>2023-10-16T19:09:08.808Z</time>
      </trkpt>
      <trkpt lat="45.686056427657604" lon="17.70267647691071">
        <ele>152.47</ele>
        <time>2023-10-16T19:09:12.444Z</time>
      </trkpt>
      <trkpt lat="45.686055505648255" lon="17.702678656205535">
        <ele>152.57</ele>
        <time>2023-10-16T19:09:16.080Z</time>
      </trkpt>
      <trkpt lat="45.68605458363891" lon="17.70268133841455">
        <ele>152.66</ele>
        <time>2023-10-16T19:09:19.716Z</time>
      </trkpt>
      <trkpt lat="45.686053577810526" lon="17.70268477499485">
        <ele>152.76</ele>
        <time>2023-10-16T19:09:23.352Z</time>
      </trkpt>
      <trkpt lat="45.686052488163114" lon="17.702688798308372">
        <ele>152.85</ele>
        <time>2023-10-16T19:09:26.989Z</time>
      </trkpt>
      <trkpt lat="45.686051147058606" lon="17.702693324536085">
        <ele>152.95</ele>
        <time>2023-10-16T19:09:30.626Z</time>
      </trkpt>
      <trkpt lat="45.68604938685894" lon="17.70269801840186">
        <ele>153.04</ele>
        <time>2023-10-16T19:09:34.263Z</time>
      </trkpt>
      <trkpt lat="45.68604745902121" lon="17.7027028799057">
        <ele>153.12</ele>
        <time>2023-10-16T19:09:37.900Z</time>
      </trkpt>
      <trkpt lat="45.68604511208832" lon="17.702707825228572">
        <ele>153.21</ele>
        <time>2023-10-16T19:09:41.537Z</time>
      </trkpt>
      <trkpt lat="45.68604242987931" lon="17.702712854370475">
        <ele>153.3</ele>
        <time>2023-10-16T19:09:45.174Z</time>
      </trkpt>
      <trkpt lat="45.68604016676545" lon="17.70271796733141">
        <ele>153.38</ele>
        <time>2023-10-16T19:09:48.811Z</time>
      </trkpt>
      <trkpt lat="45.68603823892772" lon="17.702722661197186">
        <ele>153.46</ele>
        <time>2023-10-16T19:09:52.448Z</time>
      </trkpt>
      <trkpt lat="45.68603656254709" lon="17.702727019786835">
        <ele>153.54</ele>
        <time>2023-10-16T19:09:56.086Z</time>
      </trkpt>
      <trkpt lat="45.68603488616645" lon="17.70273070782423">
        <ele>153.61</ele>
        <time>2023-10-16T19:09:59.724Z</time>
      </trkpt>
      <trkpt lat="45.68603337742388" lon="17.702733809128404">
        <ele>153.68</ele>
        <time>2023-10-16T19:10:03.362Z</time>
      </trkpt>
      <trkpt lat="45.68603178486228" lon="17.702736239880323">
        <ele>153.75</ele>
        <time>2023-10-16T19:10:07.000Z</time>
      </trkpt>
      <trkpt lat="45.68603035993874" lon="17.70273808389902">
        <ele>153.82</ele>
        <time>2023-10-16T19:10:10.638Z</time>
      </trkpt>
      <trkpt lat="45.68602901883423" lon="17.702739676460624">
        <ele>153.89</ele>
        <time>2023-10-16T19:10:14.276Z</time>
      </trkpt>
      <trkpt lat="45.68602792918682" lon="17.702741101384163">
        <ele>153.95</ele>
        <time>2023-10-16T19:10:17.914Z</time>
      </trkpt>
      <trkpt lat="45.686027090996504" lon="17.702742191031575">
        <ele>154.0</ele>
        <time>2023-10-16T19:10:21.552Z</time>
      </trkpt>
      <trkpt lat="45.68602642044425" lon="17.70274294540286">
        <ele>154.06</ele>
        <time>2023-10-16T19:10:25.190Z</time>
      </trkpt>
      <trkpt lat="45.6860254984349" lon="17.702743280678988">
        <ele>154.11</ele>
        <time>2023-10-16T19:10:28.828Z</time>
      </trkpt>
      <trkpt lat="45.68602407351136" lon="17.70274336449802">
        <ele>154.16</ele>
        <time>2023-10-16T19:10:32.466Z</time>
      </trkpt>
      <trkpt lat="45.68602248094976" lon="17.702743532136083">
        <ele>154.2</ele>
        <time>2023-10-16T19:10:36.104Z</time>
      </trkpt>
      <trkpt lat="45.686020804569125" lon="17.702743532136083">
        <ele>154.25</ele>
        <time>2023-10-16T19:10:39.742Z</time>
      </trkpt>
      <trkpt lat="45.68601896055043" lon="17.702743615955114">
        <ele>154.28</ele>
        <time>2023-10-16T19:10:43.380Z</time>
      </trkpt>
      <trkpt lat="45.68601720035076" lon="17.702743699774146">
        <ele>154.32</ele>
        <time>2023-10-16T19:10:47.018Z</time>
      </trkpt>
      <trkpt lat="45.68601577542722" lon="17.702743783593178">
        <ele>154.35</ele>
        <time>2023-10-16T19:10:50.656Z</time>
      </trkpt>
      <trkpt lat="45.68601476959884" lon="17.702743783593178">
        <ele>154.37</ele>
        <time>2023-10-16T19:10:54.295Z</time>
      </trkpt>
      <trkpt lat="45.68601426668465" lon="17.702743532136083">
        <ele>154.4</ele>
        <time>2023-10-16T19:10:57.934Z</time>
      </trkpt>
      <trkpt lat="45.68601426668465" lon="17.702743113040924">
        <ele>154.41</ele>
        <time>2023-10-16T19:11:01.573Z</time>
      </trkpt>
      <trkpt lat="45.68601510487497" lon="17.702742274850607">
        <ele>154.43</ele>
        <time>2023-10-16T19:11:05.212Z</time>
      </trkpt>
      <trkpt lat="45.686016865074635" lon="17.702740849927068">
        <ele>154.44</ele>
        <time>2023-10-16T19:11:08.851Z</time>
      </trkpt>
      <trkpt lat="45.68601946346462" lon="17.70273900590837">
        <ele>154.45</ele>
        <time>2023-10-16T19:11:12.490Z</time>
      </trkpt>
      <trkpt lat="45.68602256476879" lon="17.70273649133742">
        <ele>154.45</ele>
        <time>2023-10-16T19:11:16.129Z</time>
      </trkpt>
      <trkpt lat="45.68602608516812" lon="17.702733473852277">
        <ele>154.45</ele>
        <time>2023-10-16T19:11:19.768Z</time>
      </trkpt>
      <trkpt lat="45.68602985702455" lon="17.70273020491004">
        <ele>154.44</ele>
        <time>2023-10-16T19:11:23.407Z</time>
      </trkpt>
      <trkpt lat="45.68603362888098" lon="17.702726684510708">
        <ele>154.43</ele>
        <time>2023-10-16T19:11:27.046Z</time>
      </trkpt>
      <trkpt lat="45.68603731691837" lon="17.702722996473312">
        <ele>154.42</ele>
        <time>2023-10-16T19:11:30.685Z</time>
      </trkpt>
      <trkpt lat="45.68604066967964" lon="17.702719308435917">
        <ele>154.4</ele>
        <time>2023-10-16T19:11:34.325Z</time>
      </trkpt>
      <trkpt lat="45.68604360334575" lon="17.70271562039852">
        <ele>154.37</ele>
        <time>2023-10-16T19:11:37.965Z</time>
      </trkpt>
      <trkpt lat="45.68604595027864" lon="17.70271218381822">
        <ele>154.35</ele>
        <time>2023-10-16T19:11:41.605Z</time>
      </trkpt>
      <trkpt lat="45.68604754284024" lon="17.702708998695016">
        <ele>154.31</ele>
        <time>2023-10-16T19:11:45.245Z</time>
      </trkpt>
      <trkpt lat="45.68604846484959" lon="17.70270623266697">
        <ele>154.28</ele>
        <time>2023-10-16T19:11:48.885Z</time>
      </trkpt>
      <trkpt lat="45.686048716306686" lon="17.70270380191505">
        <ele>154.24</ele>
        <time>2023-10-16T19:11:52.525Z</time>
      </trkpt>
      <trkpt lat="45.68604880012572" lon="17.702701706439257">
        <ele>154.19</ele>
        <time>2023-10-16T19:11:56.165Z</time>
      </trkpt>
      <trkpt lat="45.686048632487655" lon="17.70269994623959">
        <ele>154.14</ele>
        <time>2023-10-16T19:11:59.805Z</time>
      </trkpt>
      <trkpt lat="45.68604854866862" lon="17.702698269858956">
        <ele>154.09</ele>
        <time>2023-10-16T19:12:03.445Z</time>
      </trkpt>
      <trkpt lat="45.68604854866862" lon="17.702696677297354">
        <ele>154.03</ele>
        <time>2023-10-16T19:12:07.085Z</time>
      </trkpt>
      <trkpt lat="45.68604880012572" lon="17.70269508473575">
        <ele>153.97</ele>
        <time>2023-10-16T19:12:10.725Z</time>
      </trkpt>
      <trkpt lat="45.68604930303991" lon="17.702693408355117">
        <ele>153.9</ele>
        <time>2023-10-16T19:12:14.365Z</time>
      </trkpt>
      <trkpt lat="45.68605030886829" lon="17.702691312879324">
        <ele>153.83</ele>
        <time>2023-10-16T19:12:18.005Z</time>
      </trkpt>
      <trkpt lat="45.68605181761086" lon="17.702688379213214">
        <ele>153.75</ele>
        <time>2023-10-16T19:12:21.645Z</time>
      </trkpt>
      <trkpt lat="45.686054080724716" lon="17.70268435589969">
        <ele>153.67</ele>
        <time>2023-10-16T19:12:25.286Z</time>
      </trkpt>
      <trkpt lat="45.686056930571795" lon="17.70267890766263">
        <ele>153.59</ele>
        <time>2023-10-16T19:12:28.927Z</time>
      </trkpt>
      <trkpt lat="45.68606028333306" lon="17.702672453597188">
        <ele>153.5</ele>
        <time>2023-10-16T19:12:32.568Z</time>
      </trkpt>
      <trkpt lat="45.68606263026595" lon="17.70266616716981">
        <ele>153.4</ele>
        <time>2023-10-16T19:12:36.209Z</time>
      </trkpt>
      <trkpt lat="45.686063803732395" lon="17.702660132199526">
        <ele>153.31</ele>
        <time>2023-10-16T19:12:39.850Z</time>
      </trkpt>
      <trkpt lat="45.68606371991336" lon="17.70265443250537">
        <ele>153.21</ele>
        <time>2023-10-16T19:12:43.491Z</time>
      </trkpt>
      <trkpt lat="45.686062378808856" lon="17.702649487182498">
        <ele>153.1</ele>
        <time>2023-10-16T19:12:47.132Z</time>
      </trkpt>
      <trkpt lat="45.686059948056936" lon="17.702645296230912">
        <ele>152.99</ele>
        <time>2023-10-16T19:12:50.774Z</time>
      </trkpt>
      <trkpt lat="45.68605659529567" lon="17.702642027288675">
        <ele>152.88</ele>
        <time>2023-10-16T19:12:54.416Z</time>
      </trkpt>
      <trkpt lat="45.686052069067955" lon="17.702640015631914">
        <ele>152.76</ele>
        <time>2023-10-16T19:12:58.058Z</time>
      </trkpt>
      <trkpt lat="45.6860463693738" lon="17.702639512717724">
        <ele>152.64</ele>
        <time>2023-10-16T19:13:01.700Z</time>
      </trkpt>
      <trkpt lat="45.68603958003223" lon="17.70264085382223">
        <ele>152.52</ele>
        <time>2023-10-16T19:13:05.342Z</time>
      </trkpt>
      <trkpt lat="45.68603144958615" lon="17.7026442065835">
        <ele>152.39</ele>
        <time>2023-10-16T19:13:08.985Z</time>
      </trkpt>
      <trkpt lat="45.6860220618546" lon="17.70264915190637">
        <ele>152.26</ele>
        <time>2023-10-16T19:13:12.628Z</time>
      </trkpt>
      <trkpt lat="45.68601259030402" lon="17.702654264867306">
        <ele>152.12</ele>
        <time>2023-10-16T19:13:16.271Z</time>
      </trkpt>
      <trkpt lat="45.686003705486655" lon="17.702659461647272">
        <ele>151.99</ele>
        <time>2023-10-16T19:13:19.915Z</time>
      </trkpt>
      <trkpt lat="45.68599649704993" lon="17.70266465842724">
        <ele>151.85</ele>
        <time>2023-10-16T19:13:23.559Z</time>
      </trkpt>
      <trkpt lat="45.68599079735577" lon="17.70266960375011">
        <ele>151.7</ele>
        <time>2023-10-16T19:13:27.203Z</time>
      </trkpt>
      <trkpt lat="45.68598635494709" lon="17.702674381434917">
        <ele>151.56</ele>
        <time>2023-10-16T19:13:30.847Z</time>
      </trkpt>
      <trkpt lat="45.68598333746195" lon="17.70267890766263">
        <ele>151.42</ele>
        <time>2023-10-16T19:13:34.491Z</time>
      </trkpt>
      <trkpt lat="45.685981661081314" lon="17.702683014795184">
        <ele>151.27</ele>
        <time>2023-10-16T19:13:38.136Z</time>
      </trkpt>
      <trkpt lat="45.68598132580519" lon="17.702686535194516">
        <ele>151.12</ele>
        <time>2023-10-16T19:13:41.781Z</time>
      </trkpt>
      <trkpt lat="45.68598199635744" lon="17.702689301222563">
        <ele>150.97</ele>
        <time>2023-10-16T19:13:45.426Z</time>
      </trkpt>
      <trkpt lat="45.68598392419517" lon="17.702691480517387">
        <ele>150.82</ele>
        <time>2023-10-16T19:13:49.071Z</time>
      </trkpt>
      <trkpt lat="45.685987025499344" lon="17.70269315689802">
        <ele>150.67</ele>
        <time>2023-10-16T19:13:52.716Z</time>
      </trkpt>
      <trkpt lat="45.68599130026996" lon="17.702694414183497">
        <ele>150.51</ele>
        <time>2023-10-16T19:13:56.361Z</time>
      </trkpt>
      <trkpt lat="45.68599649704993" lon="17.702695420011878">
        <ele>150.36</ele>
        <time>2023-10-16T19:14:00.006Z</time>
      </trkpt>
      <trkpt lat="45.686001274734735" lon="17.7026960067451">
        <ele>150.21</ele>
        <time>2023-10-16T19:14:03.651Z</time>
      </trkpt>
      <trkpt lat="45.68600580096245" lon="17.702696761116385">
        <ele>150.06</ele>
        <time>2023-10-16T19:14:07.296Z</time>
      </trkpt>
      <trkpt lat="45.686010075733066" lon="17.70269743166864">
        <ele>149.91</ele>
        <time>2023-10-16T19:14:10.942Z</time>
      </trkpt>
      <trkpt lat="45.6860135961324" lon="17.70269843749702">
        <ele>149.76</ele>
        <time>2023-10-16T19:14:14.588Z</time>
      </trkpt>
      <trkpt lat="45.686016445979476" lon="17.702699610963464">
        <ele>149.61</ele>
        <time>2023-10-16T19:14:18.234Z</time>
      </trkpt>
      <trkpt lat="45.68601870909333" lon="17.702701287344098">
        <ele>149.47</ele>
        <time>2023-10-16T19:14:21.880Z</time>
      </trkpt>
      <trkpt lat="45.686020469293" lon="17.702703718096018">
        <ele>149.33</ele>
        <time>2023-10-16T19:14:25.526Z</time>
      </trkpt>
      <trkpt lat="45.686021810397506" lon="17.70270681940019">
        <ele>149.19</ele>
        <time>2023-10-16T19:14:29.172Z</time>
      </trkpt>
      <trkpt lat="45.686022732406855" lon="17.702710423618555">
        <ele>149.05</ele>
        <time>2023-10-16T19:14:32.818Z</time>
      </trkpt>
      <trkpt lat="45.68602331914008" lon="17.702714446932077">
        <ele>148.91</ele>
        <time>2023-10-16T19:14:36.464Z</time>
      </trkpt>
      <trkpt lat="45.68602357059717" lon="17.70271888934076">
        <ele>148.78</ele>
        <time>2023-10-16T19:14:40.110Z</time>
      </trkpt>
      <trkpt lat="45.68602348677814" lon="17.702723667025566">
        <ele>148.66</ele>
        <time>2023-10-16T19:14:43.757Z</time>
      </trkpt>
      <trkpt lat="45.68602340295911" lon="17.70272819325328">
        <ele>148.54</ele>
        <time>2023-10-16T19:14:47.404Z</time>
      </trkpt>
      <trkpt lat="45.686023235321045" lon="17.70273263566196">
        <ele>148.42</ele>
        <time>2023-10-16T19:14:51.051Z</time>
      </trkpt>
      <trkpt lat="45.68602306768298" lon="17.70273649133742">
        <ele>148.31</ele>
        <time>2023-10-16T19:14:54.698Z</time>
      </trkpt>
      <trkpt lat="45.68602298386395" lon="17.702739844098687">
        <ele>148.21</ele>
        <time>2023-10-16T19:14:58.345Z</time>
      </trkpt>
      <trkpt lat="45.68602298386395" lon="17.702742526307702">
        <ele>148.11</ele>
        <time>2023-10-16T19:15:01.992Z</time>
      </trkpt>
      <trkpt lat="45.68602290004492" lon="17.702744705602527">
        <ele>148.02</ele>
        <time>2023-10-16T19:15:05.639Z</time>
      </trkpt>
      <trkpt lat="45.68602264858782" lon="17.702746130526066">
        <ele>147.94</ele>
        <time>2023-10-16T19:15:09.286Z</time>
      </trkpt>
      <trkpt lat="45.686022229492664" lon="17.702746968716383">
        <ele>147.86</ele>
        <time>2023-10-16T19:15:12.933Z</time>
      </trkpt>
      <trkpt lat="45.686021726578474" lon="17.702747136354446">
        <ele>147.8</ele>
        <time>2023-10-16T19:15:16.580Z</time>
      </trkpt>
      <trkpt lat="45.68602105602622" lon="17.702746717259288">
        <ele>147.74</ele>
        <time>2023-10-16T19:15:20.227Z</time>
      </trkpt>
      <trkpt lat="45.686020301654935" lon="17.702745711430907">
        <ele>147.69</ele>
        <time>2023-10-16T19:15:23.874Z</time>
      </trkpt>
      <trkpt lat="45.68601954728365" lon="17.702744286507368">
        <ele>147.65</ele>
        <time>2023-10-16T19:15:27.521Z</time>
      </trkpt>
      <trkpt lat="45.6860186252743" lon="17.70274235866964">
        <ele>147.63</ele>
        <time>2023-10-16T19:15:31.168Z</time>
      </trkpt>
      <trkpt lat="45.68601761944592" lon="17.702740263193846">
        <ele>147.61</ele>
        <time>2023-10-16T19:15:34.815Z</time>
      </trkpt>
      <trkpt lat="45.68601661361754" lon="17.702737916260958">
        <ele>147.6</ele>
        <time>2023-10-16T19:15:38.462Z</time>
      </trkpt>
      <trkpt lat="45.68601552397013" lon="17.702735485509038">
        <ele>147.61</ele>
        <time>2023-10-16T19:15:42.109Z</time>
      </trkpt>
      <trkpt lat="45.686014434322715" lon="17.70273305475712">
        <ele>147.63</ele>
        <time>2023-10-16T19:15:45.756Z</time>
      </trkpt>
      <trkpt lat="45.686013428494334" lon="17.70273070782423">
        <ele>147.66</ele>
        <time>2023-10-16T19:15:49.404Z</time>
      </trkpt>
      <trkpt lat="45.686012506484985" lon="17.702728612348437">
        <ele>147.7</ele>
        <time>2023-10-16T19:15:53.052Z</time>
      </trkpt>
      <trkpt lat="45.68601166829467" lon="17.702727187424898">
        <ele>147.76</ele>
        <time>2023-10-16T19:15:56.700Z</time>
      </trkpt>
      <trkpt lat="45.68601091392338" lon="17.702726600691676">
        <ele>147.83</ele>
        <time>2023-10-16T19:16:00.348Z</time>
      </trkpt>
      <trkpt lat="45.68601024337113" lon="17.70272685214877">
        <ele>147.92</ele>
        <time>2023-10-16T19:16:03.996Z</time>
      </trkpt>
      <trkpt lat="45.68600982427597" lon="17.702728109434247">
        <ele>148.02</ele>
        <time>2023-10-16T19:16:07.644Z</time>
      </trkpt>
      <trkpt lat="45.68600965663791" lon="17.70273028872907">
        <ele>148.14</ele>
        <time>2023-10-16T19:16:11.292Z</time>
      </trkpt>
      <trkpt lat="45.68600982427597" lon="17.70273313857615">
        <ele>148.27</ele>
        <time>2023-10-16T19:16:14.940Z</time>
      </trkpt>
      <trkpt lat="45.6860101595521" lon="17.70273649133742">
        <ele>148.42</ele>
        <time>2023-10-16T19:16:18.588Z</time>
      </trkpt>
      <trkpt lat="45.68601074628532" lon="17.702740263193846">
        <ele>148.58</ele>
        <time>2023-10-16T19:16:22.236Z</time>
      </trkpt>
      <trkpt lat="45.686011500656605" lon="17.7027443703264">
        <ele>148.76</ele>
        <time>2023-10-16T19:16:25.884Z</time>
      </trkpt>
      <trkpt lat="45.68601233884692" lon="17.702748645097017">
        <ele>148.96</ele>
        <time>2023-10-16T19:16:29.532Z</time>
      </trkpt>
      <trkpt lat="45.68601317703724" lon="17.702753087505698">
        <ele>149.18</ele>
        <time>2023-10-16T19:16:33.180Z</time>
      </trkpt>
      <trkpt lat="45.68601409904659" lon="17.702757362276316">
        <ele>149.42</ele>
        <time>2023-10-16T19:16:36.828Z</time>
      </trkpt>
      <trkpt lat="45.68601502105594" lon="17.702761217951775">
        <ele>149.67</ele>
        <time>2023-10-16T19:16:40.477Z</time>
      </trkpt>
      <trkpt lat="45.686015943065286" lon="17.702764654532075">
        <ele>149.94</ele>
        <time>2023-10-16T19:16:44.126Z</time>
      </trkpt>
      <trkpt lat="45.6860167812556" lon="17.702767504379153">
        <ele>150.24</ele>
        <time>2023-10-16T19:16:47.775Z</time>
      </trkpt>
      <trkpt lat="45.68601745180786" lon="17.70276976749301">
        <ele>150.55</ele>
        <time>2023-10-16T19:16:51.424Z</time>
      </trkpt>
      <trkpt lat="45.68601803854108" lon="17.702771611511707">
        <ele>150.88</ele>
        <time>2023-10-16T19:16:55.073Z</time>
      </trkpt>
      <trkpt lat="45.68601845763624" lon="17.70277320407331">
        <ele>151.23</ele>
        <time>2023-10-16T19:16:58.722Z</time>
      </trkpt>
      <trkpt lat="45.686018792912364" lon="17.702774545177817">
        <ele>151.61</ele>
        <time>2023-10-16T19:17:02.371Z</time>
      </trkpt>
      <trkpt lat="45.68601912818849" lon="17.702775551006198">
        <ele>152.0</ele>
        <time>2023-10-16T19:17:06.020Z</time>
      </trkpt>
      <trkpt lat="45.686019379645586" lon="17.702776389196515">
        <ele>152.41</ele>
        <time>2023-10-16T19:17:09.669Z</time>
      </trkpt>
      <trkpt lat="45.68601954728365" lon="17.70277705974877">
        <ele>152.85</ele>
        <time>2023-10-16T19:17:13.318Z</time>
      </trkpt>
      <trkpt lat="45.686019882559776" lon="17.702777478843927">
        <ele>153.3</ele>
        <time>2023-10-16T19:17:16.967Z</time>
      </trkpt>
      <trkpt lat="45.68602013401687" lon="17.702777897939086">
        <ele>153.78</ele>
        <time>2023-10-16T19:17:20.616Z</time>
      </trkpt>
      <trkpt lat="45.68602072075009" lon="17.702777814120054">
        <ele>154.27</ele>
        <time>2023-10-16T19:17:24.265Z</time>
      </trkpt>
      <trkpt lat="45.68602147512138" lon="17.702777395024896">
        <ele>154.79</ele>
        <time>2023-10-16T19:17:27.914Z</time>
      </trkpt>
      <trkpt lat="45.686022313311696" lon="17.70277655683458">
        <ele>155.33</ele>
        <time>2023-10-16T19:17:31.563Z</time>
      </trkpt>
      <trkpt lat="45.68602340295911" lon="17.702775299549103">
        <ele>155.89</ele>
        <time>2023-10-16T19:17:35.212Z</time>
      </trkpt>
      <trkpt lat="45.68602440878749" lon="17.702773371711373">
        <ele>156.47</ele>
        <time>2023-10-16T19:17:38.861Z</time>
      </trkpt>
      <trkpt lat="45.6860254984349" lon="17.702770940959454">
        <ele>157.07</ele>
        <time>2023-10-16T19:17:42.510Z</time>
      </trkpt>
      <trkpt lat="45.68602650426328" lon="17.70276825875044">
        <ele>157.69</ele>
        <time>2023-10-16T19:17:46.159Z</time>
      </trkpt>
      <trkpt lat="45.68602742627263" lon="17.70276532508433">
        <ele>158.32</ele>
        <time>2023-10-16T19:17:49.808Z</time>
      </trkpt>
      <trkpt lat="45.68602826446295" lon="17.702762223780155">
        <ele>158.98</ele>
        <time>2023-10-16T19:17:53.457Z</time>
      </trkpt>
      <trkpt lat="45.686029102653265" lon="17.702758871018887">
        <ele>159.66</ele>
        <time>2023-10-16T19:17:57.107Z</time>
      </trkpt>
      <trkpt lat="45.68602977320552" lon="17.702755518257618">
        <ele>160.35</ele>
        <time>2023-10-16T19:18:00.757Z</time>
      </trkpt>
      <trkpt lat="45.68603019230068" lon="17.702752333134413">
        <ele>161.07</ele>
        <time>2023-10-16T19:18:04.407Z</time>
      </trkpt>
      <trkpt lat="45.68603027611971" lon="17.702749567106366">
        <ele>161.8</ele>
        <time>2023-10-16T19:18:08.057Z</time>
      </trkpt>
      <trkpt lat="45.686030024662614" lon="17.702747136354446">
        <ele>162.54</ele>
        <time>2023-10-16T19:18:11.707Z</time>
      </trkpt>
      <trkpt lat="45.68602935411036" lon="17.702745124697685">
        <ele>163.31</ele>
        <time>2023-10-16T19:18:15.357Z</time>
      </trkpt>
      <trkpt lat="45.68602851592004" lon="17.702743783593178">
        <ele>164.09</ele>
        <time>2023-10-16T19:18:19.007Z</time>
      </trkpt>
      <trkpt lat="45.68602742627263" lon="17.702743029221892">
        <ele>164.88</ele>
        <time>2023-10-16T19:18:22.657Z</time>
      </trkpt>
      <trkpt lat="45.68602642044425" lon="17.70274244248867">
        <ele>165.68</ele>
        <time>2023-10-16T19:18:26.307Z</time>
      </trkpt>
      <trkpt lat="45.68602541461587" lon="17.70274193957448">
        <ele>166.5</ele>
        <time>2023-10-16T19:18:29.957Z</time>
      </trkpt>
      <trkpt lat="45.68602432496846" lon="17.702741771936417">
        <ele>167.33</ele>
        <time>2023-10-16T19:18:33.607Z</time>
      </trkpt>
      <trkpt lat="45.686023235321045" lon="17.70274152047932">
        <ele>168.17</ele>
        <time>2023-10-16T19:18:37.257Z</time>
      </trkpt>
      <trkpt lat="45.686021307483315" lon="17.70274395123124">
        <ele>169.02</ele>
        <time>2023-10-16T19:18:40.907Z</time>
      </trkpt>
      <trkpt lat="45.6860202178359" lon="17.702743615955114">
        <ele>169.88</ele>
        <time>2023-10-16T19:18:44.557Z</time>
      </trkpt>
      <trkpt lat="45.68601921200752" lon="17.70274294540286">
        <ele>170.75</ele>
        <time>2023-10-16T19:18:48.207Z</time>
      </trkpt>
      <trkpt lat="45.68601778708398" lon="17.702742693945765">
        <ele>171.62</ele>
        <time>2023-10-16T19:18:51.857Z</time>
      </trkpt>
      <trkpt lat="45.68601761944592" lon="17.702739173546433">
        <ele>172.5</ele>
        <time>2023-10-16T19:18:55.507Z</time>
      </trkpt>
      <trkpt lat="45.68379289470613" lon="17.696797912940383">
        <ele>174.23</ele>
        <time>2023-10-16T19:18:59.315Z</time>
      </trkpt>
      <trkpt lat="45.68375626578927" lon="17.69679430872202">
        <ele>175.11</ele>
        <time>2023-10-16T19:19:03.124Z</time>
      </trkpt>
      <trkpt lat="45.68377613089979" lon="17.696796404197812">
        <ele>175.99</ele>
        <time>2023-10-16T19:19:06.934Z</time>
      </trkpt>
      <trkpt lat="45.68376707844436" lon="17.69679673947394">
        <ele>176.86</ele>
        <time>2023-10-16T19:19:10.744Z</time>
      </trkpt>
      <trkpt lat="45.68375760689378" lon="17.696795901283622">
        <ele>177.73</ele>
        <time>2023-10-16T19:19:14.554Z</time>
      </trkpt>
      <trkpt lat="45.683741346001625" lon="17.696781987324357">
        <ele>178.6</ele>
        <time>2023-10-16T19:19:18.365Z</time>
      </trkpt>
      <trkpt lat="45.68373036570847" lon="17.696776371449232">
        <ele>179.45</ele>
        <time>2023-10-16T19:19:22.176Z</time>
      </trkpt>
      <trkpt lat="45.68372156471014" lon="17.69677042029798">
        <ele>180.3</ele>
        <time>2023-10-16T19:19:25.988Z</time>
      </trkpt>
      <trkpt lat="45.68370966240764" lon="17.69676363095641">
        <ele>181.14</ele>
        <time>2023-10-16T19:19:29.800Z</time>
      </trkpt>
      <trkpt lat="45.68369750864804" lon="17.69675625488162">
        <ele>181.97</ele>
        <time>2023-10-16T19:19:33.613Z</time>
      </trkpt>
      <trkpt lat="45.68368527106941" lon="17.69674837589264">
        <ele>182.79</ele>
        <time>2023-10-16T19:19:37.426Z</time>
      </trkpt>
      <trkpt lat="45.683672865852714" lon="17.69674016162753">
        <ele>183.59</ele>
        <time>2023-10-16T19:19:41.239Z</time>
      </trkpt>
      <trkpt lat="45.68366037681699" lon="17.69673186354339">
        <ele>184.38</ele>
        <time>2023-10-16T19:19:45.053Z</time>
      </trkpt>
      <trkpt lat="45.68364763632417" lon="17.69672348164022">
        <ele>185.16</ele>
        <time>2023-10-16T19:19:48.867Z</time>
      </trkpt>
      <trkpt lat="45.68363472819328" lon="17.69671526737511">
        <ele>185.93</ele>
        <time>2023-10-16T19:19:52.682Z</time>
      </trkpt>
      <trkpt lat="45.68362148478627" lon="17.6967073045671">
        <ele>186.68</ele>
        <time>2023-10-16T19:19:56.497Z</time>
      </trkpt>
      <trkpt lat="45.683607906103134" lon="17.696699844673276">
        <ele>187.42</ele>
        <time>2023-10-16T19:20:00.313Z</time>
      </trkpt>
      <trkpt lat="45.683593824505806" lon="17.696692887693644">
        <ele>188.13</ele>
        <time>2023-10-16T19:20:04.129Z</time>
      </trkpt>
      <trkpt lat="45.683579156175256" lon="17.696686265990138">
        <ele>188.84</ele>
        <time>2023-10-16T19:20:07.946Z</time>
      </trkpt>
      <trkpt lat="45.683563984930515" lon="17.69668006338179">
        <ele>189.52</ele>
        <time>2023-10-16T19:20:11.763Z</time>
      </trkpt>
      <trkpt lat="45.68354805931449" lon="17.69667411223054">
        <ele>190.19</ele>
        <time>2023-10-16T19:20:15.581Z</time>
      </trkpt>
      <trkpt lat="45.68353137932718" lon="17.696668161079288">
        <ele>190.84</ele>
        <time>2023-10-16T19:20:19.399Z</time>
      </trkpt>
      <trkpt lat="45.683514112606645" lon="17.696662042289972">
        <ele>191.48</ele>
        <time>2023-10-16T19:20:23.218Z</time>
      </trkpt>
      <trkpt lat="45.683496510609984" lon="17.696655755862594">
        <ele>192.09</ele>
        <time>2023-10-16T19:20:27.038Z</time>
      </trkpt>
      <trkpt lat="45.68347874097526" lon="17.69664921797812">
        <ele>192.69</ele>
        <time>2023-10-16T19:20:30.858Z</time>
      </trkpt>
      <trkpt lat="45.683460887521505" lon="17.696642260998487">
        <ele>193.27</ele>
        <time>2023-10-16T19:20:34.679Z</time>
      </trkpt>
      <trkpt lat="45.68344336934388" lon="17.696634801104665">
        <ele>193.83</ele>
        <time>2023-10-16T19:20:38.500Z</time>
      </trkpt>
      <trkpt lat="45.683426186442375" lon="17.69662667065859">
        <ele>194.37</ele>
        <time>2023-10-16T19:20:42.322Z</time>
      </trkpt>
      <trkpt lat="45.683409590274096" lon="17.6966174505651">
        <ele>194.89</ele>
        <time>2023-10-16T19:20:46.145Z</time>
      </trkpt>
      <trkpt lat="45.683393497020006" lon="17.696607308462262">
        <ele>195.4</ele>
        <time>2023-10-16T19:20:49.968Z</time>
      </trkpt>
      <trkpt lat="45.68337807431817" lon="17.696596160531044">
        <ele>195.89</ele>
        <time>2023-10-16T19:20:53.792Z</time>
      </trkpt>
      <trkpt lat="45.68336340598762" lon="17.696584006771445">
        <ele>196.35</ele>
        <time>2023-10-16T19:20:57.616Z</time>
      </trkpt>
      <trkpt lat="45.68334932439029" lon="17.69657101482153">
        <ele>196.8</ele>
        <time>2023-10-16T19:21:01.441Z</time>
      </trkpt>
      <trkpt lat="45.68333591334522" lon="17.696557603776455">
        <ele>197.24</ele>
        <time>2023-10-16T19:21:05.267Z</time>
      </trkpt>
      <trkpt lat="45.6833229213953" lon="17.696543941274285">
        <ele>197.65</ele>
        <time>2023-10-16T19:21:09.093Z</time>
      </trkpt>
      <trkpt lat="45.683310432359576" lon="17.696530111134052">
        <ele>198.05</ele>
        <time>2023-10-16T19:21:12.920Z</time>
      </trkpt>
      <trkpt lat="45.683298110961914" lon="17.696516532450914">
        <ele>198.43</ele>
        <time>2023-10-16T19:21:16.747Z</time>
      </trkpt>
      <trkpt lat="45.683285957202315" lon="17.696502869948745">
        <ele>198.79</ele>
        <time>2023-10-16T19:21:20.575Z</time>
      </trkpt>
      <trkpt lat="45.68327405489981" lon="17.69648937508464">
        <ele>199.13</ele>
        <time>2023-10-16T19:21:24.403Z</time>
      </trkpt>
      <trkpt lat="45.68326223641634" lon="17.696476131677628">
        <ele>199.46</ele>
        <time>2023-10-16T19:21:28.232Z</time>
      </trkpt>
      <trkpt lat="45.68325058557093" lon="17.69646313972771">
        <ele>199.77</ele>
        <time>2023-10-16T19:21:32.061Z</time>
      </trkpt>
      <trkpt lat="45.68323893472552" lon="17.69645039923489">
        <ele>200.07</ele>
        <time>2023-10-16T19:21:35.891Z</time>
      </trkpt>
      <trkpt lat="45.683227283880115" lon="17.696437910199165">
        <ele>200.35</ele>
        <time>2023-10-16T19:21:39.721Z</time>
      </trkpt>
      <trkpt lat="45.683215549215674" lon="17.696425672620535">
        <ele>200.62</ele>
        <time>2023-10-16T19:21:43.552Z</time>
      </trkpt>
      <trkpt lat="45.683203814551234" lon="17.696413686499">
        <ele>200.87</ele>
        <time>2023-10-16T19:21:47.383Z</time>
      </trkpt>
      <trkpt lat="45.68319199606776" lon="17.69640203565359">
        <ele>201.1</ele>
        <time>2023-10-16T19:21:51.215Z</time>
      </trkpt>
      <trkpt lat="45.68318026140332" lon="17.696390552446246">
        <ele>201.33</ele>
        <time>2023-10-16T19:21:55.047Z</time>
      </trkpt>
      <trkpt lat="45.68316844291985" lon="17.6963790692389">
        <ele>201.53</ele>
        <time>2023-10-16T19:21:58.879Z</time>
      </trkpt>
      <trkpt lat="45.68315670825541" lon="17.69636775366962">
        <ele>201.73</ele>
        <time>2023-10-16T19:22:02.712Z</time>
      </trkpt>
      <trkpt lat="45.68314505741" lon="17.696356354281306">
        <ele>201.91</ele>
        <time>2023-10-16T19:22:06.545Z</time>
      </trkpt>
      <trkpt lat="45.68313340656459" lon="17.696344954892993">
        <ele>202.08</ele>
        <time>2023-10-16T19:22:10.379Z</time>
      </trkpt>
      <trkpt lat="45.68312192335725" lon="17.696333304047585">
        <ele>202.24</ele>
        <time>2023-10-16T19:22:14.213Z</time>
      </trkpt>
      <trkpt lat="45.683110691607" lon="17.696321485564113">
        <ele>202.39</ele>
        <time>2023-10-16T19:22:18.048Z</time>
      </trkpt>
      <trkpt lat="45.68309954367578" lon="17.696309499442577">
        <ele>202.52</ele>
        <time>2023-10-16T19:22:21.883Z</time>
      </trkpt>
      <trkpt lat="45.68308881483972" lon="17.69629734568298">
        <ele>202.65</ele>
        <time>2023-10-16T19:22:25.719Z</time>
      </trkpt>
      <trkpt lat="45.683078337460756" lon="17.69628519192338">
        <ele>202.77</ele>
        <time>2023-10-16T19:22:29.555Z</time>
      </trkpt>
      <trkpt lat="45.68306836299598" lon="17.696273289620876">
        <ele>202.87</ele>
        <time>2023-10-16T19:22:33.392Z</time>
      </trkpt>
      <trkpt lat="45.6830588914454" lon="17.696261638775468">
        <ele>202.97</ele>
        <time>2023-10-16T19:22:37.229Z</time>
      </trkpt>
      <trkpt lat="45.68305000662804" lon="17.696250323206186">
        <ele>203.06</ele>
        <time>2023-10-16T19:22:41.066Z</time>
      </trkpt>
      <trkpt lat="45.683041624724865" lon="17.696239510551095">
        <ele>203.14</ele>
        <time>2023-10-16T19:22:44.904Z</time>
      </trkpt>
      <trkpt lat="45.68303357809782" lon="17.696229200810194">
        <ele>203.21</ele>
        <time>2023-10-16T19:22:48.742Z</time>
      </trkpt>
      <trkpt lat="45.683025950565934" lon="17.696219561621547">
        <ele>203.27</ele>
        <time>2023-10-16T19:22:52.581Z</time>
      </trkpt>
      <trkpt lat="45.68301882594824" lon="17.696210592985153">
        <ele>203.33</ele>
        <time>2023-10-16T19:22:56.420Z</time>
      </trkpt>
      <trkpt lat="45.683012288063765" lon="17.69620263017714">
        <ele>203.38</ele>
        <time>2023-10-16T19:23:00.259Z</time>
      </trkpt>
      <trkpt lat="45.68300658836961" lon="17.696195505559444">
        <ele>203.42</ele>
        <time>2023-10-16T19:23:04.098Z</time>
      </trkpt>
      <trkpt lat="45.6830018106848" lon="17.696189135313034">
        <ele>203.46</ele>
        <time>2023-10-16T19:23:07.938Z</time>
      </trkpt>
      <trkpt lat="45.68299803882837" lon="17.696183267980814">
        <ele>203.49</ele>
        <time>2023-10-16T19:23:11.778Z</time>
      </trkpt>
      <trkpt lat="45.6829949375242" lon="17.696177903562784">
        <ele>203.52</ele>
        <time>2023-10-16T19:23:15.618Z</time>
      </trkpt>
      <trkpt lat="45.68299250677228" lon="17.696172958239913">
        <ele>203.54</ele>
        <time>2023-10-16T19:23:19.458Z</time>
      </trkpt>
      <trkpt lat="45.68299066275358" lon="17.696168515831232">
        <ele>203.55</ele>
        <time>2023-10-16T19:23:23.298Z</time>
      </trkpt>
      <trkpt lat="45.682989405468106" lon="17.696164660155773">
        <ele>203.57</ele>
        <time>2023-10-16T19:23:27.138Z</time>
      </trkpt>
      <trkpt lat="45.682988818734884" lon="17.696161391213536">
        <ele>203.58</ele>
        <time>2023-10-16T19:23:30.978Z</time>
      </trkpt>
      <trkpt lat="45.68298873491585" lon="17.696158541366458">
        <ele>203.58</ele>
        <time>2023-10-16T19:23:34.818Z</time>
      </trkpt>
      <trkpt lat="45.68298898637295" lon="17.696155942976475">
        <ele>203.59</ele>
        <time>2023-10-16T19:23:38.659Z</time>
      </trkpt>
      <trkpt lat="45.682989321649075" lon="17.696153093129396">
        <ele>203.59</ele>
        <time>2023-10-16T19:23:42.500Z</time>
      </trkpt>
      <trkpt lat="45.682989321649075" lon="17.696149991825223">
        <ele>203.58</ele>
        <time>2023-10-16T19:23:46.341Z</time>
      </trkpt>
      <trkpt lat="45.682988818734884" lon="17.69614638760686">
        <ele>203.58</ele>
        <time>2023-10-16T19:23:50.182Z</time>
      </trkpt>
      <trkpt lat="45.68298756144941" lon="17.69614211283624">
        <ele>203.58</ele>
        <time>2023-10-16T19:23:54.023Z</time>
      </trkpt>
      <trkpt lat="45.68298571743071" lon="17.696137335151434">
        <ele>203.57</ele>
        <time>2023-10-16T19:23:57.864Z</time>
      </trkpt>
      <trkpt lat="45.68298320285976" lon="17.696131886914372">
        <ele>203.57</ele>
        <time>2023-10-16T19:24:01.705Z</time>
      </trkpt>
      <trkpt lat="45.68297985009849" lon="17.696125600486994">
        <ele>203.56</ele>
        <time>2023-10-16T19:24:05.546Z</time>
      </trkpt>
      <trkpt lat="45.682975910604" lon="17.696118475869298">
        <ele>203.56</ele>
        <time>2023-10-16T19:24:09.388Z</time>
      </trkpt>
      <trkpt lat="45.68297104910016" lon="17.69611034542322">
        <ele>203.55</ele>
        <time>2023-10-16T19:24:13.230Z</time>
      </trkpt>
      <trkpt lat="45.68296526558697" lon="17.6961010415107">
        <ele>203.55</ele>
        <time>2023-10-16T19:24:17.072Z</time>
      </trkpt>
      <trkpt lat="45.682958979159594" lon="17.696091067045927">
        <ele>203.55</ele>
        <time>2023-10-16T19:24:20.914Z</time>
      </trkpt>
      <trkpt lat="45.68295202217996" lon="17.696080673485994">
        <ele>203.55</ele>
        <time>2023-10-16T19:24:24.757Z</time>
      </trkpt>
      <trkpt lat="45.682944394648075" lon="17.696069944649935">
        <ele>203.54</ele>
        <time>2023-10-16T19:24:28.600Z</time>
      </trkpt>
      <trkpt lat="45.682936264202" lon="17.69605904817581">
        <ele>203.54</ele>
        <time>2023-10-16T19:24:32.443Z</time>
      </trkpt>
      <trkpt lat="45.68292746320367" lon="17.696048319339752">
        <ele>203.55</ele>
        <time>2023-10-16T19:24:36.287Z</time>
      </trkpt>
      <trkpt lat="45.68291807547212" lon="17.69603742286563">
        <ele>203.55</ele>
        <time>2023-10-16T19:24:40.131Z</time>
      </trkpt>
      <trkpt lat="45.68290784955025" lon="17.69602627493441">
        <ele>203.56</ele>
        <time>2023-10-16T19:24:43.976Z</time>
      </trkpt>
      <trkpt lat="45.68289737217128" lon="17.696015127003193">
        <ele>203.56</ele>
        <time>2023-10-16T19:24:47.821Z</time>
      </trkpt>
      <trkpt lat="45.68288614042103" lon="17.696003643795848">
        <ele>203.57</ele>
        <time>2023-10-16T19:24:51.667Z</time>
      </trkpt>
      <trkpt lat="45.68287482485175" lon="17.695992160588503">
        <ele>203.59</ele>
        <time>2023-10-16T19:24:55.513Z</time>
      </trkpt>
      <trkpt lat="45.68286350928247" lon="17.695980677381158">
        <ele>203.6</ele>
        <time>2023-10-16T19:24:59.359Z</time>
      </trkpt>
      <trkpt lat="45.68285210989416" lon="17.695969277992845">
        <ele>203.62</ele>
        <time>2023-10-16T19:25:03.206Z</time>
      </trkpt>
      <trkpt lat="45.682841129601" lon="17.695958213880658">
        <ele>203.64</ele>
        <time>2023-10-16T19:25:07.053Z</time>
      </trkpt>
      <trkpt lat="45.682830568403006" lon="17.69594756886363">
        <ele>203.66</ele>
        <time>2023-10-16T19:25:10.901Z</time>
      </trkpt>
      <trkpt lat="45.68282084539533" lon="17.695937426760793">
        <ele>203.69</ele>
        <time>2023-10-16T19:25:14.749Z</time>
      </trkpt>
      <trkpt lat="45.68281229585409" lon="17.695927871391177">
        <ele>203.72</ele>
        <time>2023-10-16T19:25:18.598Z</time>
      </trkpt>
      <trkpt lat="45.68280500359833" lon="17.695919070392847">
        <ele>203.75</ele>
        <time>2023-10-16T19:25:22.447Z</time>
      </trkpt>
      <trkpt lat="45.682799303904176" lon="17.695911610499024">
        <ele>203.78</ele>
        <time>2023-10-16T19:25:26.296Z</time>
      </trkpt>
      <trkpt lat="45.6827946100384" lon="17.69590507261455">
        <ele>203.82</ele>
        <time>2023-10-16T19:25:30.145Z</time>
      </trkpt>
      <trkpt lat="45.6827911734581" lon="17.69589970819652">
        <ele>203.85</ele>
        <time>2023-10-16T19:25:33.995Z</time>
      </trkpt>
      <trkpt lat="45.68278874270618" lon="17.69589534960687">
        <ele>203.89</ele>
        <time>2023-10-16T19:25:37.845Z</time>
      </trkpt>
      <trkpt lat="45.68278689868748" lon="17.69589191302657">
        <ele>203.94</ele>
        <time>2023-10-16T19:25:41.695Z</time>
      </trkpt>
      <trkpt lat="45.68278522230685" lon="17.695889230817556">
        <ele>203.98</ele>
        <time>2023-10-16T19:25:45.545Z</time>
      </trkpt>
      <trkpt lat="45.68278337828815" lon="17.695886632427573">
        <ele>204.03</ele>
        <time>2023-10-16T19:25:49.395Z</time>
      </trkpt>
      <trkpt lat="45.682781198993325" lon="17.69588411785662">
        <ele>204.08</ele>
        <time>2023-10-16T19:25:53.245Z</time>
      </trkpt>
      <trkpt lat="45.68277834914625" lon="17.69588151946664">
        <ele>204.13</ele>
        <time>2023-10-16T19:25:57.095Z</time>
      </trkpt>
      <trkpt lat="45.68277449347079" lon="17.69587858580053">
        <ele>204.19</ele>
        <time>2023-10-16T19:26:00.945Z</time>
      </trkpt>
      <trkpt lat="45.68276929669082" lon="17.695874981582165">
        <ele>204.25</ele>
        <time>2023-10-16T19:26:04.796Z</time>
      </trkpt>
      <trkpt lat="45.682763094082475" lon="17.695870706811547">
        <ele>204.31</ele>
        <time>2023-10-16T19:26:08.647Z</time>
      </trkpt>
      <trkpt lat="45.68275596946478" lon="17.695865593850613">
        <ele>204.38</ele>
        <time>2023-10-16T19:26:12.498Z</time>
      </trkpt>
      <trkpt lat="45.6827478390187" lon="17.69585964269936">
        <ele>204.44</ele>
        <time>2023-10-16T19:26:16.349Z</time>
      </trkpt>
      <trkpt lat="45.68273887038231" lon="17.695852518081665">
        <ele>204.51</ele>
        <time>2023-10-16T19:26:20.201Z</time>
      </trkpt>
      <trkpt lat="45.68272923119366" lon="17.69584438763559">
        <ele>204.59</ele>
        <time>2023-10-16T19:26:24.053Z</time>
      </trkpt>
      <trkpt lat="45.682719089090824" lon="17.695835502818227">
        <ele>204.66</ele>
        <time>2023-10-16T19:26:27.905Z</time>
      </trkpt>
      <trkpt lat="45.68270861171186" lon="17.695825779810548">
        <ele>204.74</ele>
        <time>2023-10-16T19:26:31.758Z</time>
      </trkpt>
      <trkpt lat="45.6826978828758" lon="17.69581555388868">
        <ele>204.81</ele>
        <time>2023-10-16T19:26:35.611Z</time>
      </trkpt>
      <trkpt lat="45.68268698640168" lon="17.695804741233587">
        <ele>204.89</ele>
        <time>2023-10-16T19:26:39.465Z</time>
      </trkpt>
      <trkpt lat="45.682676173746586" lon="17.6957936771214">
        <ele>204.97</ele>
        <time>2023-10-16T19:26:43.319Z</time>
      </trkpt>
      <trkpt lat="45.682665361091495" lon="17.695782193914056">
        <ele>205.05</ele>
        <time>2023-10-16T19:26:47.174Z</time>
      </trkpt>
      <trkpt lat="45.68265429697931" lon="17.695770291611552">
        <ele>205.14</ele>
        <time>2023-10-16T19:26:51.029Z</time>
      </trkpt>
      <trkpt lat="45.68264298141003" lon="17.695758054032922">
        <ele>205.22</ele>
        <time>2023-10-16T19:26:54.885Z</time>
      </trkpt>
      <trkpt lat="45.68263149820268" lon="17.69574573263526">
        <ele>205.3</ele>
        <time>2023-10-16T19:26:58.741Z</time>
      </trkpt>
      <trkpt lat="45.68261976353824" lon="17.69573349505663">
        <ele>205.39</ele>
        <time>2023-10-16T19:27:02.598Z</time>
      </trkpt>
      <trkpt lat="45.68260786123574" lon="17.695721173658967">
        <ele>205.47</ele>
        <time>2023-10-16T19:27:06.455Z</time>
      </trkpt>
      <trkpt lat="45.6825958751142" lon="17.69570868462324">
        <ele>205.56</ele>
        <time>2023-10-16T19:27:10.312Z</time>
      </trkpt>
      <trkpt lat="45.682583721354604" lon="17.695696111768484">
        <ele>205.64</ele>
        <time>2023-10-16T19:27:14.170Z</time>
      </trkpt>
      <trkpt lat="45.682571567595005" lon="17.695683538913727">
        <ele>205.73</ele>
        <time>2023-10-16T19:27:18.028Z</time>
      </trkpt>
      <trkpt lat="45.68255949765444" lon="17.695670882239938">
        <ele>205.81</ele>
        <time>2023-10-16T19:27:21.887Z</time>
      </trkpt>
      <trkpt lat="45.68254734389484" lon="17.695657974109054">
        <ele>205.9</ele>
        <time>2023-10-16T19:27:25.746Z</time>
      </trkpt>
      <trkpt lat="45.68253527395427" lon="17.69564506597817">
        <ele>205.98</ele>
        <time>2023-10-16T19:27:29.606Z</time>
      </trkpt>
      <trkpt lat="45.68252353928983" lon="17.69563240930438">
        <ele>206.06</ele>
        <time>2023-10-16T19:27:33.466Z</time>
      </trkpt>
      <trkpt lat="45.682512391358614" lon="17.69562008790672">
        <ele>206.14</ele>
        <time>2023-10-16T19:27:37.327Z</time>
      </trkpt>
      <trkpt lat="45.68250183016062" lon="17.69560801796615">
        <ele>206.22</ele>
        <time>2023-10-16T19:27:41.188Z</time>
      </trkpt>
      <trkpt lat="45.682491939514875" lon="17.695596367120743">
        <ele>206.29</ele>
        <time>2023-10-16T19:27:45.050Z</time>
      </trkpt>
      <trkpt lat="45.68248297087848" lon="17.695585303008556">
        <ele>206.36</ele>
        <time>2023-10-16T19:27:48.912Z</time>
      </trkpt>
      <trkpt lat="45.68247500807047" lon="17.695574825629592">
        <ele>206.44</ele>
        <time>2023-10-16T19:27:52.775Z</time>
      </trkpt>
      <trkpt lat="45.68246779963374" lon="17.695564851164818">
        <ele>206.5</ele>
        <time>2023-10-16T19:27:56.638Z</time>
      </trkpt>
      <trkpt lat="45.682461177930236" lon="17.695555379614234">
        <ele>206.57</ele>
        <time>2023-10-16T19:28:00.501Z</time>
      </trkpt>
      <trkpt lat="45.68245497532189" lon="17.695546075701714">
        <ele>206.64</ele>
        <time>2023-10-16T19:28:04.365Z</time>
      </trkpt>
      <trkpt lat="45.682448940351605" lon="17.695536855608225">
        <ele>206.7</ele>
        <time>2023-10-16T19:28:08.229Z</time>
      </trkpt>
      <trkpt lat="45.682442989200354" lon="17.695527719333768">
        <ele>206.76</ele>
        <time>2023-10-16T19:28:12.093Z</time>
      </trkpt>
      <trkpt lat="45.68243687041104" lon="17.695518331602216">
        <ele>206.82</ele>
        <time>2023-10-16T19:28:15.957Z</time>
      </trkpt>
      <trkpt lat="45.68243058398366" lon="17.695508524775505">
        <ele>206.87</ele>
        <time>2023-10-16T19:28:19.822Z</time>
      </trkpt>
      <trkpt lat="45.682424046099186" lon="17.695498131215572">
        <ele>206.92</ele>
        <time>2023-10-16T19:28:23.687Z</time>
      </trkpt>
      <trkpt lat="45.68241700530052" lon="17.69548681564629">
        <ele>206.97</ele>
        <time>2023-10-16T19:28:27.552Z</time>
      </trkpt>
      <trkpt lat="45.68240946158767" lon="17.695474745705724">
        <ele>207.02</ele>
        <time>2023-10-16T19:28:31.418Z</time>
      </trkpt>
      <trkpt lat="45.68240133114159" lon="17.695461586117744">
        <ele>207.07</ele>
        <time>2023-10-16T19:28:35.284Z</time>
      </trkpt>
      <trkpt lat="45.682392697781324" lon="17.695447336882353">
        <ele>207.11</ele>
        <time>2023-10-16T19:28:39.151Z</time>
      </trkpt>
      <trkpt lat="45.68238372914493" lon="17.695432249456644">
        <ele>207.15</ele>
        <time>2023-10-16T19:28:43.018Z</time>
      </trkpt>
      <trkpt lat="45.682374676689506" lon="17.695416323840618">
        <ele>207.19</ele>
        <time>2023-10-16T19:28:46.886Z</time>
      </trkpt>
      <trkpt lat="45.682365791872144" lon="17.69539972767234">
        <ele>207.23</ele>
        <time>2023-10-16T19:28:50.754Z</time>
      </trkpt>
      <trkpt lat="45.682357074692845" lon="17.695382544770837">
        <ele>207.26</ele>
        <time>2023-10-16T19:28:54.623Z</time>
      </trkpt>
      <trkpt lat="45.68234860897064" lon="17.69536460749805">
        <ele>207.29</ele>
        <time>2023-10-16T19:28:58.492Z</time>
      </trkpt>
      <trkpt lat="45.6823403108865" lon="17.69534599967301">
        <ele>207.32</ele>
        <time>2023-10-16T19:29:02.362Z</time>
      </trkpt>
      <trkpt lat="45.68233226425946" lon="17.69532705657184">
        <ele>207.34</ele>
        <time>2023-10-16T19:29:06.232Z</time>
      </trkpt>
      <trkpt lat="45.68232446908951" lon="17.695307694375515">
        <ele>207.36</ele>
        <time>2023-10-16T19:29:10.103Z</time>
      </trkpt>
      <trkpt lat="45.682317009195685" lon="17.695288080722094">
        <ele>207.38</ele>
        <time>2023-10-16T19:29:13.974Z</time>
      </trkpt>
      <trkpt lat="45.68230988457799" lon="17.695268215611577">
        <ele>207.39</ele>
        <time>2023-10-16T19:29:17.846Z</time>
      </trkpt>
      <trkpt lat="45.68230301141739" lon="17.69524826668203">
        <ele>207.4</ele>
        <time>2023-10-16T19:29:21.718Z</time>
      </trkpt>
      <trkpt lat="45.68229638971388" lon="17.69522823393345">
        <ele>207.41</ele>
        <time>2023-10-16T19:29:25.591Z</time>
      </trkpt>
      <trkpt lat="45.682290103286505" lon="17.69520820118487">
        <ele>207.42</ele>
        <time>2023-10-16T19:29:29.464Z</time>
      </trkpt>
      <trkpt lat="45.68228398449719" lon="17.695188084617257">
        <ele>207.42</ele>
        <time>2023-10-16T19:29:33.338Z</time>
      </trkpt>
      <trkpt lat="45.682278200984" lon="17.695168051868677">
        <ele>207.42</ele>
        <time>2023-10-16T19:29:37.212Z</time>
      </trkpt>
      <trkpt lat="45.682272501289845" lon="17.695147935301065">
        <ele>207.42</ele>
        <time>2023-10-16T19:29:41.087Z</time>
      </trkpt>
      <trkpt lat="45.68226696923375" lon="17.695127902552485">
        <ele>207.42</ele>
        <time>2023-10-16T19:29:44.962Z</time>
      </trkpt>
      <trkpt lat="45.68226152099669" lon="17.695107869803905">
        <ele>207.41</ele>
        <time>2023-10-16T19:29:48.838Z</time>
      </trkpt>
      <trkpt lat="45.68225624039769" lon="17.695087920874357">
        <ele>207.41</ele>
        <time>2023-10-16T19:29:52.714Z</time>
      </trkpt>
      <trkpt lat="45.682251043617725" lon="17.695068223401904">
        <ele>207.4</ele>
        <time>2023-10-16T19:29:56.591Z</time>
      </trkpt>
      <trkpt lat="45.68224626593292" lon="17.695049112662673">
        <ele>207.39</ele>
        <time>2023-10-16T19:30:00.468Z</time>
      </trkpt>
      <trkpt lat="45.682241739705205" lon="17.69503084011376">
        <ele>207.38</ele>
        <time>2023-10-16T19:30:04.346Z</time>
      </trkpt>
      <trkpt lat="45.682237800210714" lon="17.695013573393226">
        <ele>207.37</ele>
        <time>2023-10-16T19:30:08.224Z</time>
      </trkpt>
      <trkpt lat="45.68223427981138" lon="17.694997480139136">
        <ele>207.36</ele>
        <time>2023-10-16T19:30:12.102Z</time>
      </trkpt>
      <trkpt lat="45.68223126232624" lon="17.69498256035149">
        <ele>207.34</ele>
        <time>2023-10-16T19:30:15.981Z</time>
      </trkpt>
      <trkpt lat="45.682228496298194" lon="17.69496931694448">
        <ele>207.33</ele>
        <time>2023-10-16T19:30:19.860Z</time>
      </trkpt>
      <trkpt lat="45.682226065546274" lon="17.694957498461008">
        <ele>207.31</ele>
        <time>2023-10-16T19:30:23.739Z</time>
      </trkpt>
      <trkpt lat="45.68222380243242" lon="17.69494685344398">
        <ele>207.3</ele>
        <time>2023-10-16T19:30:27.619Z</time>
      </trkpt>
      <trkpt lat="45.68222187459469" lon="17.6949371304363">
        <ele>207.28</ele>
        <time>2023-10-16T19:30:31.499Z</time>
      </trkpt>
      <trkpt lat="45.68222003057599" lon="17.694927910342813">
        <ele>207.27</ele>
        <time>2023-10-16T19:30:35.379Z</time>
      </trkpt>
      <trkpt lat="45.682218270376325" lon="17.694918774068356">
        <ele>207.25</ele>
        <time>2023-10-16T19:30:39.259Z</time>
      </trkpt>
      <trkpt lat="45.682216342538595" lon="17.694909051060677">
        <ele>207.23</ele>
        <time>2023-10-16T19:30:43.140Z</time>
      </trkpt>
      <trkpt lat="45.68221416324377" lon="17.69489848986268">
        <ele>207.22</ele>
        <time>2023-10-16T19:30:47.021Z</time>
      </trkpt>
      <trkpt lat="45.682211397215724" lon="17.694886839017272">
        <ele>207.2</ele>
        <time>2023-10-16T19:30:50.902Z</time>
      </trkpt>
      <trkpt lat="45.68220812827349" lon="17.694874182343483">
        <ele>207.18</ele>
        <time>2023-10-16T19:30:54.784Z</time>
      </trkpt>
      <trkpt lat="45.68220444023609" lon="17.694860268384218">
        <ele>207.16</ele>
        <time>2023-10-16T19:30:58.666Z</time>
      </trkpt>
      <trkpt lat="45.68220033310354" lon="17.694844929501414">
        <ele>207.15</ele>
        <time>2023-10-16T19:31:02.548Z</time>
      </trkpt>
      <trkpt lat="45.68219597451389" lon="17.69482816569507">
        <ele>207.13</ele>
        <time>2023-10-16T19:31:06.431Z</time>
      </trkpt>
      <trkpt lat="45.682191364467144" lon="17.694810312241316">
        <ele>207.11</ele>
        <time>2023-10-16T19:31:10.314Z</time>
      </trkpt>
      <trkpt lat="45.68218633532524" lon="17.694791704416275">
        <ele>207.09</ele>
        <time>2023-10-16T19:31:14.198Z</time>
      </trkpt>
      <trkpt lat="45.682181138545275" lon="17.694772509858012">
        <ele>207.08</ele>
        <time>2023-10-16T19:31:18.082Z</time>
      </trkpt>
      <trkpt lat="45.68217569030821" lon="17.694753063842654">
        <ele>207.06</ele>
        <time>2023-10-16T19:31:21.967Z</time>
      </trkpt>
      <trkpt lat="45.68217007443309" lon="17.694733701646328">
        <ele>207.05</ele>
        <time>2023-10-16T19:31:25.852Z</time>
      </trkpt>
      <trkpt lat="45.68216445855796" lon="17.694714423269033">
        <ele>207.04</ele>
        <time>2023-10-16T19:31:29.738Z</time>
      </trkpt>
      <trkpt lat="45.682158675044775" lon="17.69469522871077">
        <ele>207.03</ele>
        <time>2023-10-16T19:31:33.624Z</time>
      </trkpt>
      <trkpt lat="45.68215297535062" lon="17.69467611797154">
        <ele>207.02</ele>
        <time>2023-10-16T19:31:37.510Z</time>
      </trkpt>
      <trkpt lat="45.68214719183743" lon="17.694656923413277">
        <ele>207.01</ele>
        <time>2023-10-16T19:31:41.397Z</time>
      </trkpt>
      <trkpt lat="45.68214140832424" lon="17.694637728855014">
        <ele>207.0</ele>
        <time>2023-10-16T19:31:45.284Z</time>
      </trkpt>
      <trkpt lat="45.68213562481105" lon="17.69461845047772">
        <ele>206.99</ele>
        <time>2023-10-16T19:31:49.172Z</time>
      </trkpt>
      <trkpt lat="45.682129841297865" lon="17.694599172100425">
        <ele>206.98</ele>
        <time>2023-10-16T19:31:53.060Z</time>
      </trkpt>
      <trkpt lat="45.68212405778468" lon="17.694579726085067">
        <ele>206.97</ele>
        <time>2023-10-16T19:31:56.949Z</time>
      </trkpt>
      <trkpt lat="45.68211819045246" lon="17.69456028006971">
        <ele>206.96</ele>
        <time>2023-10-16T19:32:00.838Z</time>
      </trkpt>
      <trkpt lat="45.68211240693927" lon="17.69454083405435">
        <ele>206.95</ele>
        <time>2023-10-16T19:32:04.728Z</time>
      </trkpt>
      <trkpt lat="45.68210670724511" lon="17.694521388038993">
        <ele>206.94</ele>
        <time>2023-10-16T19:32:08.618Z</time>
      </trkpt>
      <trkpt lat="45.68210109136999" lon="17.69450177438557">
        <ele>206.93</ele>
        <time>2023-10-16T19:32:12.509Z</time>
      </trkpt>
      <trkpt lat="45.68209547549486" lon="17.69448207691312">
        <ele>206.93</ele>
        <time>2023-10-16T19:32:16.400Z</time>
      </trkpt>
      <trkpt lat="45.682089775800705" lon="17.694462295621634">
        <ele>206.92</ele>
        <time>2023-10-16T19:32:20.292Z</time>
      </trkpt>
      <trkpt lat="45.68208399228752" lon="17.694442346692085">
        <ele>206.92</ele>
        <time>2023-10-16T19:32:24.184Z</time>
      </trkpt>
      <trkpt lat="45.68207820877433" lon="17.694422313943505">
        <ele>206.91</ele>
        <time>2023-10-16T19:32:28.077Z</time>
      </trkpt>
      <trkpt lat="45.68207242526114" lon="17.694402113556862">
        <ele>206.91</ele>
        <time>2023-10-16T19:32:31.970Z</time>
      </trkpt>
      <trkpt lat="45.68206672556698" lon="17.69438191317022">
        <ele>206.91</ele>
        <time>2023-10-16T19:32:35.864Z</time>
      </trkpt>
      <trkpt lat="45.68206110969186" lon="17.694361628964543">
        <ele>206.9</ele>
        <time>2023-10-16T19:32:39.758Z</time>
      </trkpt>
      <trkpt lat="45.682055577635765" lon="17.6943414285779">
        <ele>206.9</ele>
        <time>2023-10-16T19:32:43.653Z</time>
      </trkpt>
      <trkpt lat="45.68204996176064" lon="17.69432131201029">
        <ele>206.9</ele>
        <time>2023-10-16T19:32:47.548Z</time>
      </trkpt>
      <trkpt lat="45.68204426206648" lon="17.69430136308074">
        <ele>206.89</ele>
        <time>2023-10-16T19:32:51.444Z</time>
      </trkpt>
      <trkpt lat="45.68203831091523" lon="17.694281497970223">
        <ele>206.89</ele>
        <time>2023-10-16T19:32:55.340Z</time>
      </trkpt>
      <trkpt lat="45.68203235976398" lon="17.694261968135834">
        <ele>206.89</ele>
        <time>2023-10-16T19:32:59.237Z</time>
      </trkpt>
      <trkpt lat="45.682026240974665" lon="17.694242522120476">
        <ele>206.89</ele>
        <time>2023-10-16T19:33:03.134Z</time>
      </trkpt>
      <trkpt lat="45.68202012218535" lon="17.694223327562213">
        <ele>206.88</ele>
        <time>2023-10-16T19:33:07.032Z</time>
      </trkpt>
      <trkpt lat="45.682013919577" lon="17.694204384461045">
        <ele>206.88</ele>
        <time>2023-10-16T19:33:10.930Z</time>
      </trkpt>
      <trkpt lat="45.682007716968656" lon="17.69418560899794">
        <ele>206.88</ele>
        <time>2023-10-16T19:33:14.829Z</time>
      </trkpt>
      <trkpt lat="45.68200143054128" lon="17.69416691735387">
        <ele>206.87</ele>
        <time>2023-10-16T19:33:18.728Z</time>
      </trkpt>
      <trkpt lat="45.6819951441139" lon="17.69414839334786">
        <ele>206.87</ele>
        <time>2023-10-16T19:33:22.628Z</time>
      </trkpt>
      <trkpt lat="45.68198877386749" lon="17.69412978552282">
        <ele>206.86</ele>
        <time>2023-10-16T19:33:26.528Z</time>
      </trkpt>
      <trkpt lat="45.681982319802046" lon="17.69411134533584">
        <ele>206.86</ele>
        <time>2023-10-16T19:33:30.429Z</time>
      </trkpt>
      <trkpt lat="45.681975865736604" lon="17.694092988967896">
        <ele>206.85</ele>
        <time>2023-10-16T19:33:34.330Z</time>
      </trkpt>
      <trkpt lat="45.68196932785213" lon="17.694074884057045">
        <ele>206.85</ele>
        <time>2023-10-16T19:33:38.232Z</time>
      </trkpt>
      <trkpt lat="45.681962706148624" lon="17.694056779146194">
        <ele>206.84</ele>
        <time>2023-10-16T19:33:42.134Z</time>
      </trkpt>
      <trkpt lat="45.68195600062609" lon="17.69403892569244">
        <ele>206.84</ele>
        <time>2023-10-16T19:33:46.037Z</time>
      </trkpt>
      <trkpt lat="45.68194929510355" lon="17.694021072238684">
        <ele>206.84</ele>
        <time>2023-10-16T19:33:49.940Z</time>
      </trkpt>
      <trkpt lat="45.68194258958101" lon="17.69400338642299">
        <ele>206.83</ele>
        <time>2023-10-16T19:33:53.844Z</time>
      </trkpt>
      <trkpt lat="45.681935800239444" lon="17.693985868245363">
        <ele>206.83</ele>
        <time>2023-10-16T19:33:57.748Z</time>
      </trkpt>
      <trkpt lat="45.68192892707884" lon="17.69396868534386">
        <ele>206.82</ele>
        <time>2023-10-16T19:34:01.653Z</time>
      </trkpt>
      <trkpt lat="45.68192197009921" lon="17.69395200535655">
        <ele>206.82</ele>
        <time>2023-10-16T19:34:05.558Z</time>
      </trkpt>
      <trkpt lat="45.681914845481515" lon="17.693935744464397">
        <ele>206.82</ele>
        <time>2023-10-16T19:34:09.464Z</time>
      </trkpt>
      <trkpt lat="45.68190772086382" lon="17.693919902667403">
        <ele>206.81</ele>
        <time>2023-10-16T19:34:13.370Z</time>
      </trkpt>
      <trkpt lat="45.68190034478903" lon="17.693904479965568">
        <ele>206.81</ele>
        <time>2023-10-16T19:34:17.276Z</time>
      </trkpt>
      <trkpt lat="45.681892884895205" lon="17.69388939253986">
        <ele>206.81</ele>
        <time>2023-10-16T19:34:21.183Z</time>
      </trkpt>
      <trkpt lat="45.68188525736332" lon="17.693874472752213">
        <ele>206.81</ele>
        <time>2023-10-16T19:34:25.090Z</time>
      </trkpt>
      <trkpt lat="45.68187746219337" lon="17.69385972060263">
        <ele>206.81</ele>
        <time>2023-10-16T19:34:28.998Z</time>
      </trkpt>
      <trkpt lat="45.68186958320439" lon="17.693845303729177">
        <ele>206.8</ele>
        <time>2023-10-16T19:34:32.906Z</time>
      </trkpt>
      <trkpt lat="45.68186145275831" lon="17.69383088685572">
        <ele>206.8</ele>
        <time>2023-10-16T19:34:36.815Z</time>
      </trkpt>
      <trkpt lat="45.68185307085514" lon="17.69381672143936">
        <ele>206.81</ele>
        <time>2023-10-16T19:34:40.724Z</time>
      </trkpt>
      <trkpt lat="45.68184426985681" lon="17.693802556023">
        <ele>206.81</ele>
        <time>2023-10-16T19:34:44.633Z</time>
      </trkpt>
      <trkpt lat="45.68183488212526" lon="17.69378830678761">
        <ele>206.81</ele>
        <time>2023-10-16T19:34:48.543Z</time>
      </trkpt>
      <trkpt lat="45.681824991479516" lon="17.693773889914155">
        <ele>206.82</ele>
        <time>2023-10-16T19:34:52.453Z</time>
      </trkpt>
      <trkpt lat="45.68181451410055" lon="17.69375938922167">
        <ele>206.82</ele>
        <time>2023-10-16T19:34:56.364Z</time>
      </trkpt>
      <trkpt lat="45.681803449988365" lon="17.693744720891118">
        <ele>206.83</ele>
        <time>2023-10-16T19:35:00.275Z</time>
      </trkpt>
      <trkpt lat="45.68179196678102" lon="17.693729884922504">
        <ele>206.84</ele>
        <time>2023-10-16T19:35:04.187Z</time>
      </trkpt>
      <trkpt lat="45.68178006447852" lon="17.693714881315827">
        <ele>206.85</ele>
        <time>2023-10-16T19:35:08.099Z</time>
      </trkpt>
      <trkpt lat="45.68176791071892" lon="17.69369979389012">
        <ele>206.86</ele>
        <time>2023-10-16T19:35:12.012Z</time>
      </trkpt>
      <trkpt lat="45.681755589321256" lon="17.693684622645378">
        <ele>206.87</ele>
        <time>2023-10-16T19:35:15.925Z</time>
      </trkpt>
      <trkpt lat="45.68174318410456" lon="17.693669283762574">
        <ele>206.88</ele>
        <time>2023-10-16T19:35:19.839Z</time>
      </trkpt>
      <trkpt lat="45.68173077888787" lon="17.693653693422675">
        <ele>206.9</ele>
        <time>2023-10-16T19:35:23.754Z</time>
      </trkpt>
      <trkpt lat="45.681718457490206" lon="17.693638019263744">
        <ele>206.92</ele>
        <time>2023-10-16T19:35:27.669Z</time>
      </trkpt>
      <trkpt lat="45.681706639006734" lon="17.693622261285782">
        <ele>206.94</ele>
        <time>2023-10-16T19:35:31.585Z</time>
      </trkpt>
      <trkpt lat="45.681694988161325" lon="17.693606251850724">
        <ele>206.97</ele>
        <time>2023-10-16T19:35:35.501Z</time>
      </trkpt>
      <trkpt lat="45.68168392404914" lon="17.693590158596635">
        <ele>207.0</ele>
        <time>2023-10-16T19:35:39.418Z</time>
      </trkpt>
      <trkpt lat="45.68167336285114" lon="17.693573981523514">
        <ele>207.03</ele>
        <time>2023-10-16T19:35:43.335Z</time>
      </trkpt>
      <trkpt lat="45.68166330456734" lon="17.69355772063136">
        <ele>207.06</ele>
        <time>2023-10-16T19:35:47.253Z</time>
      </trkpt>
      <trkpt lat="45.68165374919772" lon="17.693541375920177">
        <ele>207.1</ele>
        <time>2023-10-16T19:35:51.171Z</time>
      </trkpt>
      <trkpt lat="45.68164452910423" lon="17.69352494738996">
        <ele>207.13</ele>
        <time>2023-10-16T19:35:55.090Z</time>
      </trkpt>
      <trkpt lat="45.68163564428687" lon="17.693508602678776">
        <ele>207.17</ele>
        <time>2023-10-16T19:35:59.009Z</time>
      </trkpt>
      <trkpt lat="45.681627010926604" lon="17.69349225796759">
        <ele>207.21</ele>
        <time>2023-10-16T19:36:02.929Z</time>
      </trkpt>
      <trkpt lat="45.68161837756634" lon="17.69347608089447">
        <ele>207.25</ele>
        <time>2023-10-16T19:36:06.849Z</time>
      </trkpt>
      <trkpt lat="45.681609911844134" lon="17.693460071459413">
        <ele>207.3</ele>
        <time>2023-10-16T19:36:10.770Z</time>
      </trkpt>
      <trkpt lat="45.681601613759995" lon="17.693443978205323">
        <ele>207.34</ele>
        <time>2023-10-16T19:36:14.691Z</time>
      </trkpt>
      <trkpt lat="45.681593315675855" lon="17.693428052589297">
        <ele>207.39</ele>
        <time>2023-10-16T19:36:18.613Z</time>
      </trkpt>
      <trkpt lat="45.68158518522978" lon="17.69341212697327">
        <ele>207.44</ele>
        <time>2023-10-16T19:36:22.535Z</time>
      </trkpt>
      <trkpt lat="45.6815773062408" lon="17.693396033719182">
        <ele>207.5</ele>
        <time>2023-10-16T19:36:26.458Z</time>
      </trkpt>
      <trkpt lat="45.68156951107085" lon="17.693379940465093">
        <ele>207.55</ele>
        <time>2023-10-16T19:36:30.381Z</time>
      </trkpt>
      <trkpt lat="45.68156179971993" lon="17.69336367957294">
        <ele>207.61</ele>
        <time>2023-10-16T19:36:34.304Z</time>
      </trkpt>
      <trkpt lat="45.681554172188044" lon="17.693347334861755">
        <ele>207.66</ele>
        <time>2023-10-16T19:36:38.228Z</time>
      </trkpt>
      <trkpt lat="45.68154654465616" lon="17.693330822512507">
        <ele>207.72</ele>
        <time>2023-10-16T19:36:42.152Z</time>
      </trkpt>
      <trkpt lat="45.6815390009433" lon="17.693314142525196">
        <ele>207.79</ele>
        <time>2023-10-16T19:36:46.077Z</time>
      </trkpt>
      <trkpt lat="45.68153145723045" lon="17.69329721108079">
        <ele>207.85</ele>
        <time>2023-10-16T19:36:50.002Z</time>
      </trkpt>
      <trkpt lat="45.68152408115566" lon="17.693280028179288">
        <ele>207.92</ele>
        <time>2023-10-16T19:36:53.928Z</time>
      </trkpt>
      <trkpt lat="45.6815167888999" lon="17.693262677639723">
        <ele>207.98</ele>
        <time>2023-10-16T19:36:57.854Z</time>
      </trkpt>
      <trkpt lat="45.6815096642822" lon="17.693245159462094">
        <ele>208.05</ele>
        <time>2023-10-16T19:37:01.781Z</time>
      </trkpt>
      <trkpt lat="45.68150262348354" lon="17.693227473646402">
        <ele>208.12</ele>
        <time>2023-10-16T19:37:05.708Z</time>
      </trkpt>
      <trkpt lat="45.681495666503906" lon="17.693209871649742">
        <ele>208.19</ele>
        <time>2023-10-16T19:37:09.636Z</time>
      </trkpt>
      <trkpt lat="45.68148862570524" lon="17.693192437291145">
        <ele>208.27</ele>
        <time>2023-10-16T19:37:13.564Z</time>
      </trkpt>
      <trkpt lat="45.68148166872561" lon="17.69317508675158">
        <ele>208.34</ele>
        <time>2023-10-16T19:37:17.493Z</time>
      </trkpt>
      <trkpt lat="45.681474627926946" lon="17.693157820031047">
        <ele>208.42</ele>
        <time>2023-10-16T19:37:21.422Z</time>
      </trkpt>
      <trkpt lat="45.68146767094731" lon="17.69314080476761">
        <ele>208.49</ele>
        <time>2023-10-16T19:37:25.352Z</time>
      </trkpt>
      <trkpt lat="45.68146063014865" lon="17.693124040961266">
        <ele>208.57</ele>
        <time>2023-10-16T19:37:29.282Z</time>
      </trkpt>
      <trkpt lat="45.68145342171192" lon="17.693107528612018">
        <ele>208.65</ele>
        <time>2023-10-16T19:37:33.212Z</time>
      </trkpt>
      <trkpt lat="45.68144604563713" lon="17.693091267719865">
        <ele>208.73</ele>
        <time>2023-10-16T19:37:37.143Z</time>
      </trkpt>
      <trkpt lat="45.68143825046718" lon="17.69307534210384">
        <ele>208.81</ele>
        <time>2023-10-16T19:37:41.074Z</time>
      </trkpt>
      <trkpt lat="45.68143028765917" lon="17.69305975176394">
        <ele>208.89</ele>
        <time>2023-10-16T19:37:45.006Z</time>
      </trkpt>
      <trkpt lat="45.68142198957503" lon="17.693044412881136">
        <ele>208.98</ele>
        <time>2023-10-16T19:37:48.938Z</time>
      </trkpt>
      <trkpt lat="45.68141335621476" lon="17.693029241636395">
        <ele>209.06</ele>
        <time>2023-10-16T19:37:52.871Z</time>
      </trkpt>
      <trkpt lat="45.68140463903546" lon="17.693014154210687">
        <ele>209.14</ele>
        <time>2023-10-16T19:37:56.804Z</time>
      </trkpt>
      <trkpt lat="45.6813957542181" lon="17.69299923442304">
        <ele>209.23</ele>
        <time>2023-10-16T19:38:00.738Z</time>
      </trkpt>
      <trkpt lat="45.681386701762676" lon="17.692984314635396">
        <ele>209.31</ele>
        <time>2023-10-16T19:38:04.672Z</time>
      </trkpt>
      <trkpt lat="45.68137748166919" lon="17.69296931102872">
        <ele>209.4</ele>
        <time>2023-10-16T19:38:08.607Z</time>
      </trkpt>
      <trkpt lat="45.68136817775667" lon="17.692954307422042">
        <ele>209.49</ele>
        <time>2023-10-16T19:38:12.542Z</time>
      </trkpt>
      <trkpt lat="45.681358790025115" lon="17.692939219996333">
        <ele>209.57</ele>
        <time>2023-10-16T19:38:16.477Z</time>
      </trkpt>
      <trkpt lat="45.68134940229356" lon="17.692924048751593">
        <ele>209.66</ele>
        <time>2023-10-16T19:38:20.413Z</time>
      </trkpt>
      <trkpt lat="45.68134001456201" lon="17.69290879368782">
        <ele>209.75</ele>
        <time>2023-10-16T19:38:24.349Z</time>
      </trkpt>
      <trkpt lat="45.68133071064949" lon="17.69289353862405">
        <ele>209.84</ele>
        <time>2023-10-16T19:38:28.286Z</time>
      </trkpt>
      <trkpt lat="45.68132140673697" lon="17.692878199741244">
        <ele>209.93</ele>
        <time>2023-10-16T19:38:32.223Z</time>
      </trkpt>
      <trkpt lat="45.68131227046251" lon="17.69286286085844">
        <ele>210.01</ele>
        <time>2023-10-16T19:38:36.161Z</time>
      </trkpt>
      <trkpt lat="45.681303050369024" lon="17.692847605794668">
        <ele>210.1</ele>
        <time>2023-10-16T19:38:40.099Z</time>
      </trkpt>
      <trkpt lat="45.6812939979136" lon="17.692832350730896">
        <ele>210.19</ele>
        <time>2023-10-16T19:38:44.038Z</time>
      </trkpt>
      <trkpt lat="45.681285029277205" lon="17.692817179486156">
        <ele>210.28</ele>
        <time>2023-10-16T19:38:47.977Z</time>
      </trkpt>
      <trkpt lat="45.681276144459844" lon="17.69280225969851">
        <ele>210.37</ele>
        <time>2023-10-16T19:38:51.917Z</time>
      </trkpt>
      <trkpt lat="45.68126725964248" lon="17.692787423729897">
        <ele>210.46</ele>
        <time>2023-10-16T19:38:55.857Z</time>
      </trkpt>
      <trkpt lat="45.68125854246318" lon="17.692772755399346">
        <ele>210.54</ele>
        <time>2023-10-16T19:38:59.798Z</time>
      </trkpt>
      <trkpt lat="45.681249825283885" lon="17.692758170887828">
        <ele>210.63</ele>
        <time>2023-10-16T19:39:03.739Z</time>
      </trkpt>
      <trkpt lat="45.68124119192362" lon="17.692743502557278">
        <ele>210.72</ele>
        <time>2023-10-16T19:39:07.681Z</time>
      </trkpt>
      <trkpt lat="45.68123264238238" lon="17.692728834226727">
        <ele>210.81</ele>
        <time>2023-10-16T19:39:11.623Z</time>
      </trkpt>
      <trkpt lat="45.68122417666018" lon="17.692714165896177">
        <ele>210.89</ele>
        <time>2023-10-16T19:39:15.565Z</time>
      </trkpt>
      <trkpt lat="45.68121554329991" lon="17.692699329927564">
        <ele>210.98</ele>
        <time>2023-10-16T19:39:19.508Z</time>
      </trkpt>
      <trkpt lat="45.68120690993965" lon="17.69268441013992">
        <ele>211.06</ele>
        <time>2023-10-16T19:39:23.451Z</time>
      </trkpt>
      <trkpt lat="45.68119827657938" lon="17.692669741809368">
        <ele>211.15</ele>
        <time>2023-10-16T19:39:27.395Z</time>
      </trkpt>
      <trkpt lat="45.681189727038145" lon="17.692655492573977">
        <ele>211.23</ele>
        <time>2023-10-16T19:39:31.339Z</time>
      </trkpt>
      <trkpt lat="45.68118151277304" lon="17.69264199770987">
        <ele>211.32</ele>
        <time>2023-10-16T19:39:35.284Z</time>
      </trkpt>
      <trkpt lat="45.681173633784056" lon="17.692629424855113">
        <ele>211.4</ele>
        <time>2023-10-16T19:39:39.229Z</time>
      </trkpt>
      <trkpt lat="45.6811660900712" lon="17.692617857828736">
        <ele>211.48</ele>
        <time>2023-10-16T19:39:43.174Z</time>
      </trkpt>
      <trkpt lat="45.68115904927254" lon="17.692607548087835">
        <ele>211.56</ele>
        <time>2023-10-16T19:39:47.120Z</time>
      </trkpt>
      <trkpt lat="45.68115267902613" lon="17.69259849563241">
        <ele>211.64</ele>
        <time>2023-10-16T19:39:51.066Z</time>
      </trkpt>
      <trkpt lat="45.681147063151" lon="17.69259070046246">
        <ele>211.72</ele>
        <time>2023-10-16T19:39:55.012Z</time>
      </trkpt>
      <trkpt lat="45.68114220164716" lon="17.692584414035082">
        <ele>211.79</ele>
        <time>2023-10-16T19:39:58.958Z</time>
      </trkpt>
      <trkpt lat="45.68113809451461" lon="17.69257946871221">
        <ele>211.87</ele>
        <time>2023-10-16T19:40:02.905Z</time>
      </trkpt>
      <trkpt lat="45.68113474175334" lon="17.692575864493847">
        <ele>211.95</ele>
        <time>2023-10-16T19:40:06.852Z</time>
      </trkpt>
      <trkpt lat="45.68113222718239" lon="17.692573433741927">
        <ele>212.02</ele>
        <time>2023-10-16T19:40:10.799Z</time>
      </trkpt>
      <trkpt lat="45.68113021552563" lon="17.692571757361293">
        <ele>212.09</ele>
        <time>2023-10-16T19:40:14.746Z</time>
      </trkpt>
      <trkpt lat="45.68112879060209" lon="17.69257066771388">
        <ele>212.17</ele>
        <time>2023-10-16T19:40:18.693Z</time>
      </trkpt>
      <trkpt lat="45.681127700954676" lon="17.692569829523563">
        <ele>212.24</ele>
        <time>2023-10-16T19:40:22.640Z</time>
      </trkpt>
      <trkpt lat="45.68112677894533" lon="17.69256873987615">
        <ele>212.31</ele>
        <time>2023-10-16T19:40:26.587Z</time>
      </trkpt>
      <trkpt lat="45.68112594075501" lon="17.692567398771644">
        <ele>212.38</ele>
        <time>2023-10-16T19:40:30.534Z</time>
      </trkpt>
      <trkpt lat="45.68112501874566" lon="17.692565638571978">
        <ele>212.45</ele>
        <time>2023-10-16T19:40:34.481Z</time>
      </trkpt>
      <trkpt lat="45.68112384527922" lon="17.692563124001026">
        <ele>212.52</ele>
        <time>2023-10-16T19:40:38.428Z</time>
      </trkpt>
      <trkpt lat="45.681122336536646" lon="17.69255985505879">
        <ele>212.59</ele>
        <time>2023-10-16T19:40:42.375Z</time>
      </trkpt>
      <trkpt lat="45.68112049251795" lon="17.6925559155643">
        <ele>212.66</ele>
        <time>2023-10-16T19:40:46.322Z</time>
      </trkpt>
      <trkpt lat="45.681118397042155" lon="17.692551221698523">
        <ele>212.73</ele>
        <time>2023-10-16T19:40:50.270Z</time>
      </trkpt>
      <trkpt lat="45.681115966290236" lon="17.69254568964243">
        <ele>212.8</ele>
        <time>2023-10-16T19:40:54.218Z</time>
      </trkpt>
      <trkpt lat="45.68111311644316" lon="17.69253931939602">
        <ele>212.87</ele>
        <time>2023-10-16T19:40:58.166Z</time>
      </trkpt>
      <trkpt lat="45.681110015138984" lon="17.69253211095929">
        <ele>212.93</ele>
        <time>2023-10-16T19:41:02.114Z</time>
      </trkpt>
      <trkpt lat="45.68110649473965" lon="17.69252414815128">
        <ele>213.0</ele>
        <time>2023-10-16T19:41:06.062Z</time>
      </trkpt>
      <trkpt lat="45.681102806702256" lon="17.692515682429075">
        <ele>213.07</ele>
        <time>2023-10-16T19:41:10.011Z</time>
      </trkpt>
      <trkpt lat="45.681098867207766" lon="17.692506294697523">
        <ele>213.14</ele>
        <time>2023-10-16T19:41:13.960Z</time>
      </trkpt>
      <trkpt lat="45.681094508618116" lon="17.692496236413717">
        <ele>213.21</ele>
        <time>2023-10-16T19:41:17.909Z</time>
      </trkpt>
      <trkpt lat="45.681089982390404" lon="17.692485759034753">
        <ele>213.28</ele>
        <time>2023-10-16T19:41:21.858Z</time>
      </trkpt>
      <trkpt lat="45.681085120886564" lon="17.692474694922566">
        <ele>213.35</ele>
        <time>2023-10-16T19:41:25.808Z</time>
      </trkpt>
      <trkpt lat="45.6810799241066" lon="17.692462876439095">
        <ele>213.41</ele>
        <time>2023-10-16T19:41:29.758Z</time>
      </trkpt>
      <trkpt lat="45.68107430823147" lon="17.69245038740337">
        <ele>213.48</ele>
        <time>2023-10-16T19:41:33.708Z</time>
      </trkpt>
      <trkpt lat="45.68106844089925" lon="17.692437646910548">
        <ele>213.55</ele>
        <time>2023-10-16T19:41:37.659Z</time>
      </trkpt>
      <trkpt lat="45.68106232210994" lon="17.69242448732257">
        <ele>213.62</ele>
        <time>2023-10-16T19:41:41.610Z</time>
      </trkpt>
      <trkpt lat="45.681055784225464" lon="17.6924108248204">
        <ele>213.69</ele>
        <time>2023-10-16T19:41:45.561Z</time>
      </trkpt>
      <trkpt lat="45.68104907870293" lon="17.692396827042103">
        <ele>213.76</ele>
        <time>2023-10-16T19:41:49.513Z</time>
      </trkpt>
      <trkpt lat="45.681042121723294" lon="17.692382410168648">
        <ele>213.83</ele>
        <time>2023-10-16T19:41:53.465Z</time>
      </trkpt>
      <trkpt lat="45.6810349971056" lon="17.692367658019066">
        <ele>213.91</ele>
        <time>2023-10-16T19:41:57.418Z</time>
      </trkpt>
      <trkpt lat="45.68102778866887" lon="17.692352570593357">
        <ele>213.98</ele>
        <time>2023-10-16T19:42:01.371Z</time>
      </trkpt>
      <trkpt lat="45.68102032877505" lon="17.69233706407249">
        <ele>214.05</ele>
        <time>2023-10-16T19:42:05.325Z</time>
      </trkpt>
      <trkpt lat="45.681012785062194" lon="17.692321054637432">
        <ele>214.13</ele>
        <time>2023-10-16T19:42:09.279Z</time>
      </trkpt>
      <trkpt lat="45.68100524134934" lon="17.692304961383343">
        <ele>214.2</ele>
        <time>2023-10-16T19:42:13.233Z</time>
      </trkpt>
      <trkpt lat="45.68099761381745" lon="17.69228878431022">
        <ele>214.28</ele>
        <time>2023-10-16T19:42:17.188Z</time>
      </trkpt>
      <trkpt lat="45.68098973482847" lon="17.692272271960974">
        <ele>214.35</ele>
        <time>2023-10-16T19:42:21.143Z</time>
      </trkpt>
      <trkpt lat="45.680981604382396" lon="17.692255759611726">
        <ele>214.43</ele>
        <time>2023-10-16T19:42:25.099Z</time>
      </trkpt>
      <trkpt lat="45.680973306298256" lon="17.692239163443446">
        <ele>214.51</ele>
        <time>2023-10-16T19:42:29.055Z</time>
      </trkpt>
      <trkpt lat="45.680965008214116" lon="17.692222483456135">
        <ele>214.58</ele>
        <time>2023-10-16T19:42:33.012Z</time>
      </trkpt>
      <trkpt lat="45.680956710129976" lon="17.692205971106887">
        <ele>214.66</ele>
        <time>2023-10-16T19:42:36.969Z</time>
      </trkpt>
      <trkpt lat="45.680948328226805" lon="17.69218945875764">
        <ele>214.74</ele>
        <time>2023-10-16T19:42:40.927Z</time>
      </trkpt>
      <trkpt lat="45.6809401139617" lon="17.69217336550355">
        <ele>214.82</ele>
        <time>2023-10-16T19:42:44.885Z</time>
      </trkpt>
      <trkpt lat="45.68093198351562" lon="17.692157523706555">
        <ele>214.91</ele>
        <time>2023-10-16T19:42:48.844Z</time>
      </trkpt>
      <trkpt lat="45.680923936888576" lon="17.692142268642783">
        <ele>214.99</ele>
        <time>2023-10-16T19:42:52.803Z</time>
      </trkpt>
      <trkpt lat="45.68091589026153" lon="17.692127097398043">
        <ele>215.07</ele>
        <time>2023-10-16T19:42:56.763Z</time>
      </trkpt>
      <trkpt lat="45.68090792745352" lon="17.692112177610397">
        <ele>215.16</ele>
        <time>2023-10-16T19:43:00.723Z</time>
      </trkpt>
      <trkpt lat="45.680899964645505" lon="17.692097257822752">
        <ele>215.24</ele>
        <time>2023-10-16T19:43:04.683Z</time>
      </trkpt>
      <trkpt lat="45.68089225329459" lon="17.692082338035107">
        <ele>215.33</ele>
        <time>2023-10-16T19:43:08.644Z</time>
      </trkpt>
      <trkpt lat="45.68088454194367" lon="17.69206741824746">
        <ele>215.42</ele>
        <time>2023-10-16T19:43:12.605Z</time>
      </trkpt>
      <trkpt lat="45.68087691441178" lon="17.692052414640784">
        <ele>215.51</ele>
        <time>2023-10-16T19:43:16.567Z</time>
      </trkpt>
      <trkpt lat="45.68086895160377" lon="17.69203749485314">
        <ele>215.6</ele>
        <time>2023-10-16T19:43:20.529Z</time>
      </trkpt>
      <trkpt lat="45.680860821157694" lon="17.692022658884525">
        <ele>215.69</ele>
        <time>2023-10-16T19:43:24.492Z</time>
      </trkpt>
      <trkpt lat="45.68085243925452" lon="17.692007906734943">
        <ele>215.79</ele>
        <time>2023-10-16T19:43:28.455Z</time>
      </trkpt>
      <trkpt lat="45.68084405735135" lon="17.691993322223425">
        <ele>215.88</ele>
        <time>2023-10-16T19:43:32.419Z</time>
      </trkpt>
      <trkpt lat="45.68083567544818" lon="17.691978653892875">
        <ele>215.98</ele>
        <time>2023-10-16T19:43:36.383Z</time>
      </trkpt>
      <trkpt lat="45.68082746118307" lon="17.691963985562325">
        <ele>216.07</ele>
        <time>2023-10-16T19:43:40.347Z</time>
      </trkpt>
      <trkpt lat="45.68081958219409" lon="17.69194914959371">
        <ele>216.17</ele>
        <time>2023-10-16T19:43:44.312Z</time>
      </trkpt>
      <trkpt lat="45.680811954662204" lon="17.691934313625097">
        <ele>216.27</ele>
        <time>2023-10-16T19:43:48.277Z</time>
      </trkpt>
      <trkpt lat="45.68080457858741" lon="17.691918974742293">
        <ele>216.37</ele>
        <time>2023-10-16T19:43:52.243Z</time>
      </trkpt>
      <trkpt lat="45.68079745396972" lon="17.691903552040458">
        <ele>216.46</ele>
        <time>2023-10-16T19:43:56.209Z</time>
      </trkpt>
      <trkpt lat="45.680790580809116" lon="17.69188804551959">
        <ele>216.56</ele>
        <time>2023-10-16T19:44:00.176Z</time>
      </trkpt>
      <trkpt lat="45.68078404292464" lon="17.69187245517969">
        <ele>216.66</ele>
        <time>2023-10-16T19:44:04.143Z</time>
      </trkpt>
      <trkpt lat="45.68077792413533" lon="17.691856613382697">
        <ele>216.76</ele>
        <time>2023-10-16T19:44:08.110Z</time>
      </trkpt>
      <trkpt lat="45.680772475898266" lon="17.691839346662164">
        <ele>216.86</ele>
        <time>2023-10-16T19:44:12.078Z</time>
      </trkpt>
      <trkpt lat="45.68076686002314" lon="17.69182300195098">
        <ele>216.96</ele>
        <time>2023-10-16T19:44:16.046Z</time>
      </trkpt>
      <trkpt lat="45.680761160328984" lon="17.691806657239795">
        <ele>217.06</ele>
        <time>2023-10-16T19:44:20.015Z</time>
      </trkpt>
      <trkpt lat="45.68075546063483" lon="17.691790396347642">
        <ele>217.16</ele>
        <time>2023-10-16T19:44:23.984Z</time>
      </trkpt>
      <trkpt lat="45.68074976094067" lon="17.69177413545549">
        <ele>217.26</ele>
        <time>2023-10-16T19:44:27.954Z</time>
      </trkpt>
      <trkpt lat="45.680744145065546" lon="17.691757958382368">
        <ele>217.36</ele>
        <time>2023-10-16T19:44:31.924Z</time>
      </trkpt>
      <trkpt lat="45.68073844537139" lon="17.69174194894731">
        <ele>217.46</ele>
        <time>2023-10-16T19:44:35.894Z</time>
      </trkpt>
      <trkpt lat="45.6807326618582" lon="17.691726107150316">
        <ele>217.57</ele>
        <time>2023-10-16T19:44:39.865Z</time>
      </trkpt>
      <trkpt lat="45.68072687834501" lon="17.691710349172354">
        <ele>217.67</ele>
        <time>2023-10-16T19:44:43.836Z</time>
      </trkpt>
      <trkpt lat="45.6807207595557" lon="17.691694842651486">
        <ele>217.77</ele>
        <time>2023-10-16T19:44:47.808Z</time>
      </trkpt>
      <trkpt lat="45.68071497604251" lon="17.691680174320936">
        <ele>217.87</ele>
        <time>2023-10-16T19:44:51.780Z</time>
      </trkpt>
      <trkpt lat="45.68070877343416" lon="17.691664919257164">
        <ele>217.97</ele>
        <time>2023-10-16T19:44:55.752Z</time>
      </trkpt>
      <trkpt lat="45.68070240318775" lon="17.691649748012424">
        <ele>218.07</ele>
        <time>2023-10-16T19:44:59.725Z</time>
      </trkpt>
      <trkpt lat="45.68069561384618" lon="17.69163499586284">
        <ele>218.18</ele>
        <time>2023-10-16T19:45:03.698Z</time>
      </trkpt>
      <trkpt lat="45.68068857304752" lon="17.691620578989387">
        <ele>218.28</ele>
        <time>2023-10-16T19:45:07.672Z</time>
      </trkpt>
      <trkpt lat="45.680681113153696" lon="17.691606413573027">
        <ele>218.38</ele>
        <time>2023-10-16T19:45:11.646Z</time>
      </trkpt>
      <trkpt lat="45.68067348562181" lon="17.69159241579473">
        <ele>218.48</ele>
        <time>2023-10-16T19:45:15.621Z</time>
      </trkpt>
      <trkpt lat="45.6806655228138" lon="17.69157875329256">
        <ele>218.59</ele>
        <time>2023-10-16T19:45:19.596Z</time>
      </trkpt>
      <trkpt lat="45.68065730854869" lon="17.69156550988555">
        <ele>218.69</ele>
        <time>2023-10-16T19:45:23.571Z</time>
      </trkpt>
      <trkpt lat="45.680648759007454" lon="17.691552601754665">
        <ele>218.79</ele>
        <time>2023-10-16T19:45:27.547Z</time>
      </trkpt>
      <trkpt lat="45.68064012564719" lon="17.69154011271894">
        <ele>218.89</ele>
        <time>2023-10-16T19:45:31.523Z</time>
      </trkpt>
      <trkpt lat="45.68063132464886" lon="17.691527791321278">
        <ele>218.99</ele>
        <time>2023-10-16T19:45:35.500Z</time>
      </trkpt>
      <trkpt lat="45.68062269128859" lon="17.69151572138071">
        <ele>219.09</ele>
        <time>2023-10-16T19:45:39.477Z</time>
      </trkpt>
      <trkpt lat="45.680614141747355" lon="17.69150398671627">
        <ele>219.19</ele>
        <time>2023-10-16T19:45:43.454Z</time>
      </trkpt>
      <trkpt lat="45.68060609512031" lon="17.691492503508925">
        <ele>219.29</ele>
        <time>2023-10-16T19:45:47.432Z</time>
      </trkpt>
      <trkpt lat="45.680598467588425" lon="17.691481271758676">
        <ele>219.39</ele>
        <time>2023-10-16T19:45:51.410Z</time>
      </trkpt>
      <trkpt lat="45.680591594427824" lon="17.69147079437971">
        <ele>219.49</ele>
        <time>2023-10-16T19:45:55.388Z</time>
      </trkpt>
      <trkpt lat="45.68058539181948" lon="17.691461155191064">
        <ele>219.58</ele>
        <time>2023-10-16T19:45:59.367Z</time>
      </trkpt>
      <trkpt lat="45.680579943582416" lon="17.69145268946886">
        <ele>219.68</ele>
        <time>2023-10-16T19:46:03.346Z</time>
      </trkpt>
      <trkpt lat="45.6805754173547" lon="17.6914453972131">
        <ele>219.78</ele>
        <time>2023-10-16T19:46:07.325Z</time>
      </trkpt>
      <trkpt lat="45.68057172931731" lon="17.691439362242818">
        <ele>219.87</ele>
        <time>2023-10-16T19:46:11.304Z</time>
      </trkpt>
      <trkpt lat="45.68056896328926" lon="17.69143450073898">
        <ele>219.96</ele>
        <time>2023-10-16T19:46:15.284Z</time>
      </trkpt>
      <trkpt lat="45.68056661635637" lon="17.691430561244488">
        <ele>220.06</ele>
        <time>2023-10-16T19:46:19.264Z</time>
      </trkpt>
      <trkpt lat="45.68056460469961" lon="17.69142729230225">
        <ele>220.15</ele>
        <time>2023-10-16T19:46:23.244Z</time>
      </trkpt>
      <trkpt lat="45.680562760680914" lon="17.691424693912268">
        <ele>220.24</ele>
        <time>2023-10-16T19:46:27.224Z</time>
      </trkpt>
      <trkpt lat="45.68056074902415" lon="17.69142243079841">
        <ele>220.33</ele>
        <time>2023-10-16T19:46:31.204Z</time>
      </trkpt>
      <trkpt lat="45.68055865354836" lon="17.691420502960682">
        <ele>220.43</ele>
        <time>2023-10-16T19:46:35.184Z</time>
      </trkpt>
      <trkpt lat="45.680556390434504" lon="17.69141849130392">
        <ele>220.52</ele>
        <time>2023-10-16T19:46:39.164Z</time>
      </trkpt>
      <trkpt lat="45.68055379204452" lon="17.691416144371033">
        <ele>220.61</ele>
        <time>2023-10-16T19:46:43.144Z</time>
      </trkpt>
      <trkpt lat="45.68055069074035" lon="17.691413294523954">
        <ele>220.7</ele>
        <time>2023-10-16T19:46:47.124Z</time>
      </trkpt>
      <trkpt lat="45.68054691888392" lon="17.69140960648656">
        <ele>220.79</ele>
        <time>2023-10-16T19:46:51.105Z</time>
      </trkpt>
      <trkpt lat="45.68054256029427" lon="17.69140524789691">
        <ele>220.88</ele>
        <time>2023-10-16T19:46:55.086Z</time>
      </trkpt>
      <trkpt lat="45.6805376149714" lon="17.691400051116943">
        <ele>220.97</ele>
        <time>2023-10-16T19:46:59.067Z</time>
      </trkpt>
      <trkpt lat="45.680532585829496" lon="17.691394770517945">
        <ele>221.06</ele>
        <time>2023-10-16T19:47:03.048Z</time>
      </trkpt>
      <trkpt lat="45.680527640506625" lon="17.691389489918947">
        <ele>221.15</ele>
        <time>2023-10-16T19:47:07.029Z</time>
      </trkpt>
      <trkpt lat="45.68052286282182" lon="17.69138429313898">
        <ele>221.24</ele>
        <time>2023-10-16T19:47:11.011Z</time>
      </trkpt>
      <trkpt lat="45.68051825277507" lon="17.69137934781611">
        <ele>221.33</ele>
        <time>2023-10-16T19:47:14.993Z</time>
      </trkpt>
      <trkpt lat="45.680513475090265" lon="17.691374318674207">
        <ele>221.41</ele>
        <time>2023-10-16T19:47:18.975Z</time>
      </trkpt>
      <trkpt lat="45.680508529767394" lon="17.691369205713272">
        <ele>221.5</ele>
        <time>2023-10-16T19:47:22.957Z</time>
      </trkpt>
      <trkpt lat="45.68050341680646" lon="17.691363925114274">
        <ele>221.59</ele>
        <time>2023-10-16T19:47:26.939Z</time>
      </trkpt>
      <trkpt lat="45.6804979685694" lon="17.691358476877213">
        <ele>221.68</ele>
        <time>2023-10-16T19:47:30.922Z</time>
      </trkpt>
      <trkpt lat="45.68049226887524" lon="17.691352609544992">
        <ele>221.77</ele>
        <time>2023-10-16T19:47:34.905Z</time>
      </trkpt>
      <trkpt lat="45.68048598244786" lon="17.691345987841487">
        <ele>221.86</ele>
        <time>2023-10-16T19:47:38.888Z</time>
      </trkpt>
      <trkpt lat="45.680479276925325" lon="17.69133886322379">
        <ele>221.94</ele>
        <time>2023-10-16T19:47:42.871Z</time>
      </trkpt>
      <trkpt lat="45.680471984669566" lon="17.69133098423481">
        <ele>222.03</ele>
        <time>2023-10-16T19:47:46.855Z</time>
      </trkpt>
      <trkpt lat="45.68046427331865" lon="17.69132218323648">
        <ele>222.12</ele>
        <time>2023-10-16T19:47:50.839Z</time>
      </trkpt>
      <trkpt lat="45.68045597523451" lon="17.691312544047832">
        <ele>222.21</ele>
        <time>2023-10-16T19:47:54.823Z</time>
      </trkpt>
      <trkpt lat="45.68044725805521" lon="17.6913021504879">
        <ele>222.3</ele>
        <time>2023-10-16T19:47:58.808Z</time>
      </trkpt>
      <trkpt lat="45.68043837323785" lon="17.69129142165184">
        <ele>222.39</ele>
        <time>2023-10-16T19:48:02.793Z</time>
      </trkpt>
      <trkpt lat="45.68042965605855" lon="17.691280525177717">
        <ele>222.47</ele>
        <time>2023-10-16T19:48:06.779Z</time>
      </trkpt>
      <trkpt lat="45.68042093887925" lon="17.691269544884562">
        <ele>222.56</ele>
        <time>2023-10-16T19:48:10.765Z</time>
      </trkpt>
      <trkpt lat="45.68041247315705" lon="17.691258396953344">
        <ele>222.65</ele>
        <time>2023-10-16T19:48:14.751Z</time>
      </trkpt>
      <trkpt lat="45.68040417507291" lon="17.691247249022126">
        <ele>222.74</ele>
        <time>2023-10-16T19:48:18.738Z</time>
      </trkpt>
      <trkpt lat="45.680396212264895" lon="17.691236352548003">
        <ele>222.83</ele>
        <time>2023-10-16T19:48:22.725Z</time>
      </trkpt>
      <trkpt lat="45.680388333275914" lon="17.69122545607388">
        <ele>222.91</ele>
        <time>2023-10-16T19:48:26.712Z</time>
      </trkpt>
      <trkpt lat="45.68038028664887" lon="17.691214559599757">
        <ele>223.0</ele>
        <time>2023-10-16T19:48:30.700Z</time>
      </trkpt>
      <trkpt lat="45.68037215620279" lon="17.691203830763698">
        <ele>223.09</ele>
        <time>2023-10-16T19:48:34.688Z</time>
      </trkpt>
      <trkpt lat="45.68036369048059" lon="17.69119318574667">
        <ele>223.18</ele>
        <time>2023-10-16T19:48:38.677Z</time>
      </trkpt>
      <trkpt lat="45.68035505712032" lon="17.691182624548674">
        <ele>223.26</ele>
        <time>2023-10-16T19:48:42.666Z</time>
      </trkpt>
      <trkpt lat="45.68034608848393" lon="17.69117223098874">
        <ele>223.35</ele>
        <time>2023-10-16T19:48:46.655Z</time>
      </trkpt>
      <trkpt lat="45.68033670075238" lon="17.69116200506687">
        <ele>223.44</ele>
        <time>2023-10-16T19:48:50.645Z</time>
      </trkpt>
      <trkpt lat="45.68032706156373" lon="17.691151946783066">
        <ele>223.52</ele>
        <time>2023-10-16T19:48:54.635Z</time>
      </trkpt>
      <trkpt lat="45.68031725473702" lon="17.69114230759442">
        <ele>223.61</ele>
        <time>2023-10-16T19:48:58.625Z</time>
      </trkpt>
      <trkpt lat="45.680307699367404" lon="17.691133255138993">
        <ele>223.7</ele>
        <time>2023-10-16T19:49:02.616Z</time>
      </trkpt>
      <trkpt lat="45.680298395454884" lon="17.69112487323582">
        <ele>223.78</ele>
        <time>2023-10-16T19:49:06.607Z</time>
      </trkpt>
      <trkpt lat="45.68028976209462" lon="17.691117245703936">
        <ele>223.87</ele>
        <time>2023-10-16T19:49:10.599Z</time>
      </trkpt>
      <trkpt lat="45.68028171546757" lon="17.69111020490527">
        <ele>223.95</ele>
        <time>2023-10-16T19:49:14.591Z</time>
      </trkpt>
      <trkpt lat="45.680274087935686" lon="17.691103583201766">
        <ele>224.04</ele>
        <time>2023-10-16T19:49:18.583Z</time>
      </trkpt>
      <trkpt lat="45.68026696331799" lon="17.691097296774387">
        <ele>224.12</ele>
        <time>2023-10-16T19:49:22.575Z</time>
      </trkpt>
      <trkpt lat="45.680259922519326" lon="17.69109109416604">
        <ele>224.21</ele>
        <time>2023-10-16T19:49:26.568Z</time>
      </trkpt>
      <trkpt lat="45.680253049358726" lon="17.69108472391963">
        <ele>224.29</ele>
        <time>2023-10-16T19:49:30.561Z</time>
      </trkpt>
      <trkpt lat="45.68024626001716" lon="17.69107835367322">
        <ele>224.37</ele>
        <time>2023-10-16T19:49:34.554Z</time>
      </trkpt>
      <trkpt lat="45.68023955449462" lon="17.691071815788746">
        <ele>224.46</ele>
        <time>2023-10-16T19:49:38.548Z</time>
      </trkpt>
      <trkpt lat="45.680232513695955" lon="17.691064858809114">
        <ele>224.54</ele>
        <time>2023-10-16T19:49:42.542Z</time>
      </trkpt>
      <trkpt lat="45.68022505380213" lon="17.691057734191418">
        <ele>224.62</ele>
        <time>2023-10-16T19:49:46.536Z</time>
      </trkpt>
      <trkpt lat="45.68021700717509" lon="17.69105010665953">
        <ele>224.7</ele>
        <time>2023-10-16T19:49:50.530Z</time>
      </trkpt>
      <trkpt lat="45.68020820617676" lon="17.691042060032487">
        <ele>224.78</ele>
        <time>2023-10-16T19:49:54.525Z</time>
      </trkpt>
      <trkpt lat="45.68019898608327" lon="17.691033761948347">
        <ele>224.86</ele>
        <time>2023-10-16T19:49:58.520Z</time>
      </trkpt>
      <trkpt lat="45.68018934689462" lon="17.691025212407112">
        <ele>224.94</ele>
        <time>2023-10-16T19:50:02.516Z</time>
      </trkpt>
      <trkpt lat="45.68017954006791" lon="17.691016662865877">
        <ele>225.02</ele>
        <time>2023-10-16T19:50:06.512Z</time>
      </trkpt>
      <trkpt lat="45.68016956560314" lon="17.691008113324642">
        <ele>225.1</ele>
        <time>2023-10-16T19:50:10.508Z</time>
      </trkpt>
      <trkpt lat="45.680159758776426" lon="17.69099973142147">
        <ele>225.18</ele>
        <time>2023-10-16T19:50:14.505Z</time>
      </trkpt>
      <trkpt lat="45.68014978431165" lon="17.6909913495183">
        <ele>225.25</ele>
        <time>2023-10-16T19:50:18.502Z</time>
      </trkpt>
      <trkpt lat="45.68013989366591" lon="17.690983219072223">
        <ele>225.33</ele>
        <time>2023-10-16T19:50:22.499Z</time>
      </trkpt>
      <trkpt lat="45.6801300868392" lon="17.690975172445178">
        <ele>225.4</ele>
        <time>2023-10-16T19:50:26.497Z</time>
      </trkpt>
      <trkpt lat="45.68012036383152" lon="17.690967209637165">
        <ele>225.47</ele>
        <time>2023-10-16T19:50:30.495Z</time>
      </trkpt>
      <trkpt lat="45.680110808461905" lon="17.690959246829152">
        <ele>225.55</ele>
        <time>2023-10-16T19:50:34.494Z</time>
      </trkpt>
      <trkpt lat="45.68010142073035" lon="17.69095136784017">
        <ele>225.62</ele>
        <time>2023-10-16T19:50:38.493Z</time>
      </trkpt>
      <trkpt lat="45.68009194917977" lon="17.690943656489253">
        <ele>225.68</ele>
        <time>2023-10-16T19:50:42.492Z</time>
      </trkpt>
      <trkpt lat="45.680082477629185" lon="17.6909361127764">
        <ele>225.75</ele>
        <time>2023-10-16T19:50:46.492Z</time>
      </trkpt>
      <trkpt lat="45.68007292225957" lon="17.69092882052064">
        <ele>225.82</ele>
        <time>2023-10-16T19:50:50.492Z</time>
      </trkpt>
      <trkpt lat="45.680063450708985" lon="17.690921695902944">
        <ele>225.88</ele>
        <time>2023-10-16T19:50:54.492Z</time>
      </trkpt>
      <trkpt lat="45.68005389533937" lon="17.690914906561375">
        <ele>225.95</ele>
        <time>2023-10-16T19:50:58.493Z</time>
      </trkpt>
      <trkpt lat="45.68004425615072" lon="17.6909083686769">
        <ele>226.01</ele>
        <time>2023-10-16T19:51:02.494Z</time>
      </trkpt>
      <trkpt lat="45.68003453314304" lon="17.690902166068554">
        <ele>226.07</ele>
        <time>2023-10-16T19:51:06.495Z</time>
      </trkpt>
      <trkpt lat="45.680024810135365" lon="17.690896298736334">
        <ele>226.12</ele>
        <time>2023-10-16T19:51:10.497Z</time>
      </trkpt>
      <trkpt lat="45.680015003308654" lon="17.690890934318304">
        <ele>226.18</ele>
        <time>2023-10-16T19:51:14.499Z</time>
      </trkpt>
      <trkpt lat="45.68000511266291" lon="17.690885988995433">
        <ele>226.23</ele>
        <time>2023-10-16T19:51:18.501Z</time>
      </trkpt>
      <trkpt lat="45.67999513819814" lon="17.690881546586752">
        <ele>226.28</ele>
        <time>2023-10-16T19:51:22.504Z</time>
      </trkpt>
      <trkpt lat="45.67998516373336" lon="17.69087752327323">
        <ele>226.33</ele>
        <time>2023-10-16T19:51:26.507Z</time>
      </trkpt>
      <trkpt lat="45.679975021630526" lon="17.690873835235834">
        <ele>226.38</ele>
        <time>2023-10-16T19:51:30.511Z</time>
      </trkpt>
      <trkpt lat="45.67996487952769" lon="17.690870482474566">
        <ele>226.42</ele>
        <time>2023-10-16T19:51:34.515Z</time>
      </trkpt>
      <trkpt lat="45.67995456978679" lon="17.69086729735136">
        <ele>226.47</ele>
        <time>2023-10-16T19:51:38.519Z</time>
      </trkpt>
      <trkpt lat="45.679944176226854" lon="17.690864447504282">
        <ele>226.51</ele>
        <time>2023-10-16T19:51:42.524Z</time>
      </trkpt>
      <trkpt lat="45.67993369884789" lon="17.690861597657204">
        <ele>226.55</ele>
        <time>2023-10-16T19:51:46.529Z</time>
      </trkpt>
      <trkpt lat="45.67992297001183" lon="17.690858831629157">
        <ele>226.58</ele>
        <time>2023-10-16T19:51:50.534Z</time>
      </trkpt>
      <trkpt lat="45.679911989718676" lon="17.690856149420142">
        <ele>226.62</ele>
        <time>2023-10-16T19:51:54.540Z</time>
      </trkpt>
      <trkpt lat="45.67990059033036" lon="17.690853467211127">
        <ele>226.65</ele>
        <time>2023-10-16T19:51:58.546Z</time>
      </trkpt>
      <trkpt lat="45.67988877184689" lon="17.690850785002112">
        <ele>226.67</ele>
        <time>2023-10-16T19:52:02.552Z</time>
      </trkpt>
      <trkpt lat="45.67987661808729" lon="17.690848354250193">
        <ele>226.7</ele>
        <time>2023-10-16T19:52:06.559Z</time>
      </trkpt>
      <trkpt lat="45.6798639614135" lon="17.690846174955368">
        <ele>226.72</ele>
        <time>2023-10-16T19:52:10.566Z</time>
      </trkpt>
      <trkpt lat="45.679850885644555" lon="17.690844079479575">
        <ele>226.74</ele>
        <time>2023-10-16T19:52:14.574Z</time>
      </trkpt>
      <trkpt lat="45.67983739078045" lon="17.690842235460877">
        <ele>226.76</ele>
        <time>2023-10-16T19:52:18.582Z</time>
      </trkpt>
      <trkpt lat="45.67982330918312" lon="17.69084047526121">
        <ele>226.78</ele>
        <time>2023-10-16T19:52:22.591Z</time>
      </trkpt>
      <trkpt lat="45.679808892309666" lon="17.690838715061545">
        <ele>226.79</ele>
        <time>2023-10-16T19:52:26.600Z</time>
      </trkpt>
      <trkpt lat="45.67979397252202" lon="17.69083695486188">
        <ele>226.8</ele>
        <time>2023-10-16T19:52:30.610Z</time>
      </trkpt>
      <trkpt lat="45.67977871745825" lon="17.690835194662213">
        <ele>226.81</ele>
        <time>2023-10-16T19:52:34.620Z</time>
      </trkpt>
      <trkpt lat="45.67976329475641" lon="17.690833266824484">
        <ele>226.81</ele>
        <time>2023-10-16T19:52:38.631Z</time>
      </trkpt>
      <trkpt lat="45.67974770441651" lon="17.690831255167723">
        <ele>226.81</ele>
        <time>2023-10-16T19:52:42.642Z</time>
      </trkpt>
      <trkpt lat="45.67973203025758" lon="17.69082915969193">
        <ele>226.8</ele>
        <time>2023-10-16T19:52:46.654Z</time>
      </trkpt>
      <trkpt lat="45.67971635609865" lon="17.690826896578074">
        <ele>226.8</ele>
        <time>2023-10-16T19:52:50.666Z</time>
      </trkpt>
      <trkpt lat="45.67970076575875" lon="17.69082429818809">
        <ele>226.79</ele>
        <time>2023-10-16T19:52:54.679Z</time>
      </trkpt>
      <trkpt lat="45.67968542687595" lon="17.690821532160044">
        <ele>226.77</ele>
        <time>2023-10-16T19:52:58.692Z</time>
      </trkpt>
      <trkpt lat="45.67967025563121" lon="17.69081843085587">
        <ele>226.75</ele>
        <time>2023-10-16T19:53:02.706Z</time>
      </trkpt>
      <trkpt lat="45.67965533584356" lon="17.69081499427557">
        <ele>226.73</ele>
        <time>2023-10-16T19:53:06.720Z</time>
      </trkpt>
      <trkpt lat="45.67964049987495" lon="17.690811390057206">
        <ele>226.7</ele>
        <time>2023-10-16T19:53:10.735Z</time>
      </trkpt>
      <trkpt lat="45.67962574772537" lon="17.69080761820078">
        <ele>226.68</ele>
        <time>2023-10-16T19:53:14.750Z</time>
      </trkpt>
      <trkpt lat="45.67961107939482" lon="17.690803594887257">
        <ele>226.65</ele>
        <time>2023-10-16T19:53:18.766Z</time>
      </trkpt>
      <trkpt lat="45.679596327245235" lon="17.690799487754703">
        <ele>226.61</ele>
        <time>2023-10-16T19:53:22.782Z</time>
      </trkpt>
      <trkpt lat="45.67958149127662" lon="17.690795129165053">
        <ele>226.57</ele>
        <time>2023-10-16T19:53:26.799Z</time>
      </trkpt>
      <trkpt lat="45.67956657148898" lon="17.69079060293734">
        <ele>226.53</ele>
        <time>2023-10-16T19:53:30.816Z</time>
      </trkpt>
      <trkpt lat="45.67955148406327" lon="17.690785909071565">
        <ele>226.49</ele>
        <time>2023-10-16T19:53:34.834Z</time>
      </trkpt>
      <trkpt lat="45.679536145180464" lon="17.690781131386757">
        <ele>226.44</ele>
        <time>2023-10-16T19:53:38.852Z</time>
      </trkpt>
      <trkpt lat="45.67952047102153" lon="17.690776521340013">
        <ele>226.39</ele>
        <time>2023-10-16T19:53:42.871Z</time>
      </trkpt>
      <trkpt lat="45.679504461586475" lon="17.6907719951123">
        <ele>226.34</ele>
        <time>2023-10-16T19:53:46.890Z</time>
      </trkpt>
      <trkpt lat="45.67948820069432" lon="17.690767468884587">
        <ele>226.28</ele>
        <time>2023-10-16T19:53:50.910Z</time>
      </trkpt>
      <trkpt lat="45.67947152070701" lon="17.690763110294938">
        <ele>226.22</ele>
        <time>2023-10-16T19:53:54.931Z</time>
      </trkpt>
      <trkpt lat="45.679454673081636" lon="17.690758584067225">
        <ele>226.16</ele>
        <time>2023-10-16T19:53:58.952Z</time>
      </trkpt>
      <trkpt lat="45.6794376578182" lon="17.69075397402048">
        <ele>226.1</ele>
        <time>2023-10-16T19:54:02.974Z</time>
      </trkpt>
      <trkpt lat="45.67942072637379" lon="17.69074902869761">
        <ele>226.03</ele>
        <time>2023-10-16T19:54:06.996Z</time>
      </trkpt>
      <trkpt lat="45.679403794929385" lon="17.690743748098612">
        <ele>225.96</ele>
        <time>2023-10-16T19:54:11.019Z</time>
      </trkpt>
      <trkpt lat="45.67938703112304" lon="17.69073829986155">
        <ele>225.89</ele>
        <time>2023-10-16T19:54:15.042Z</time>
      </trkpt>
      <trkpt lat="45.679370518773794" lon="17.690732516348362">
        <ele>225.81</ele>
        <time>2023-10-16T19:54:19.066Z</time>
      </trkpt>
      <trkpt lat="45.67935434170067" lon="17.69072648137808">
        <ele>225.73</ele>
        <time>2023-10-16T19:54:23.091Z</time>
      </trkpt>
      <trkpt lat="45.67933858372271" lon="17.690720027312636">
        <ele>225.65</ele>
        <time>2023-10-16T19:54:27.116Z</time>
      </trkpt>
      <trkpt lat="45.679323161020875" lon="17.690713154152036">
        <ele>225.57</ele>
        <time>2023-10-16T19:54:31.142Z</time>
      </trkpt>
      <trkpt lat="45.67930824123323" lon="17.690705778077245">
        <ele>225.48</ele>
        <time>2023-10-16T19:54:35.168Z</time>
      </trkpt>
      <trkpt lat="45.67929365672171" lon="17.690697982907295">
        <ele>225.4</ele>
        <time>2023-10-16T19:54:39.195Z</time>
      </trkpt>
      <trkpt lat="45.67927932366729" lon="17.69068993628025">
        <ele>225.31</ele>
        <time>2023-10-16T19:54:43.222Z</time>
      </trkpt>
      <trkpt lat="45.67926524206996" lon="17.690681722015142">
        <ele>225.21</ele>
        <time>2023-10-16T19:54:47.250Z</time>
      </trkpt>
      <trkpt lat="45.67925141192973" lon="17.690673675388098">
        <ele>225.12</ele>
        <time>2023-10-16T19:54:51.278Z</time>
      </trkpt>
      <trkpt lat="45.679237665608525" lon="17.690665628761053">
        <ele>225.02</ele>
        <time>2023-10-16T19:54:55.307Z</time>
      </trkpt>
      <trkpt lat="45.67922408692539" lon="17.69065766595304">
        <ele>224.92</ele>
        <time>2023-10-16T19:54:59.336Z</time>
      </trkpt>
      <trkpt lat="45.67921059206128" lon="17.690649703145027">
        <ele>224.82</ele>
        <time>2023-10-16T19:55:03.366Z</time>
      </trkpt>
      <trkpt lat="45.67919718101621" lon="17.690641824156046">
        <ele>224.72</ele>
        <time>2023-10-16T19:55:07.396Z</time>
      </trkpt>
      <trkpt lat="45.67918376997113" lon="17.690633861348033">
        <ele>224.62</ele>
        <time>2023-10-16T19:55:11.427Z</time>
      </trkpt>
      <trkpt lat="45.67917044274509" lon="17.69062589854002">
        <ele>224.51</ele>
        <time>2023-10-16T19:55:15.458Z</time>
      </trkpt>
      <trkpt lat="45.679157031700015" lon="17.69061801955104">
        <ele>224.4</ele>
        <time>2023-10-16T19:55:19.490Z</time>
      </trkpt>
      <trkpt lat="45.67914370447397" lon="17.69061030820012">
        <ele>224.29</ele>
        <time>2023-10-16T19:55:23.522Z</time>
      </trkpt>
      <trkpt lat="45.6791302934289" lon="17.690602680668235">
        <ele>224.18</ele>
        <time>2023-10-16T19:55:27.555Z</time>
      </trkpt>
      <trkpt lat="45.67911671474576" lon="17.690595220774412">
        <ele>224.07</ele>
        <time>2023-10-16T19:55:31.588Z</time>
      </trkpt>
      <trkpt lat="45.67910313606262" lon="17.69058784469962">
        <ele>223.95</ele>
        <time>2023-10-16T19:55:35.622Z</time>
      </trkpt>
      <trkpt lat="45.67908930592239" lon="17.69058046862483">
        <ele>223.84</ele>
        <time>2023-10-16T19:55:39.656Z</time>
      </trkpt>
      <trkpt lat="45.67907514050603" lon="17.690573008731008">
        <ele>223.72</ele>
        <time>2023-10-16T19:55:43.691Z</time>
      </trkpt>
      <trkpt lat="45.679060807451606" lon="17.69056529738009">
        <ele>223.6</ele>
        <time>2023-10-16T19:55:47.726Z</time>
      </trkpt>
      <trkpt lat="45.67904622294009" lon="17.690557334572077">
        <ele>223.49</ele>
        <time>2023-10-16T19:55:51.762Z</time>
      </trkpt>
      <trkpt lat="45.679031470790505" lon="17.69054912030697">
        <ele>223.37</ele>
        <time>2023-10-16T19:55:55.798Z</time>
      </trkpt>
      <trkpt lat="45.67901663482189" lon="17.690540738403797">
        <ele>223.24</ele>
        <time>2023-10-16T19:55:59.835Z</time>
      </trkpt>
      <trkpt lat="45.67900179885328" lon="17.6905320212245">
        <ele>223.12</ele>
        <time>2023-10-16T19:56:03.872Z</time>
      </trkpt>
      <trkpt lat="45.67898713052273" lon="17.69052322022617">
        <ele>223.0</ele>
        <time>2023-10-16T19:56:07.910Z</time>
      </trkpt>
      <trkpt lat="45.67897271364927" lon="17.690514251589775">
        <ele>222.88</ele>
        <time>2023-10-16T19:56:11.948Z</time>
      </trkpt>
      <trkpt lat="45.67895854823291" lon="17.690505115315318">
        <ele>222.75</ele>
        <time>2023-10-16T19:56:15.987Z</time>
      </trkpt>
      <trkpt lat="45.678944466635585" lon="17.690496062859893">
        <ele>222.63</ele>
        <time>2023-10-16T19:56:20.026Z</time>
      </trkpt>
      <trkpt lat="45.67893055267632" lon="17.690487010404468">
        <ele>222.5</ele>
        <time>2023-10-16T19:56:24.066Z</time>
      </trkpt>
      <trkpt lat="45.678916638717055" lon="17.690478125587106">
        <ele>222.38</ele>
        <time>2023-10-16T19:56:28.106Z</time>
      </trkpt>
      <trkpt lat="45.67890280857682" lon="17.69046949222684">
        <ele>222.25</ele>
        <time>2023-10-16T19:56:32.147Z</time>
      </trkpt>
      <trkpt lat="45.67888897843659" lon="17.690460942685604">
        <ele>222.13</ele>
        <time>2023-10-16T19:56:36.188Z</time>
      </trkpt>
      <trkpt lat="45.67887523211539" lon="17.6904524769634">
        <ele>222.0</ele>
        <time>2023-10-16T19:56:40.230Z</time>
      </trkpt>
      <trkpt lat="45.67886123433709" lon="17.690444011241198">
        <ele>221.87</ele>
        <time>2023-10-16T19:56:44.272Z</time>
      </trkpt>
      <trkpt lat="45.678847236558795" lon="17.69043537788093">
        <ele>221.75</ele>
        <time>2023-10-16T19:56:48.315Z</time>
      </trkpt>
      <trkpt lat="45.678833071142435" lon="17.690426744520664">
        <ele>221.62</ele>
        <time>2023-10-16T19:56:52.358Z</time>
      </trkpt>
      <trkpt lat="45.67881873808801" lon="17.690417943522334">
        <ele>221.5</ele>
        <time>2023-10-16T19:56:56.402Z</time>
      </trkpt>
      <trkpt lat="45.678804237395525" lon="17.690409226343036">
        <ele>221.37</ele>
        <time>2023-10-16T19:57:00.446Z</time>
      </trkpt>
      <trkpt lat="45.67878973670304" lon="17.690400425344706">
        <ele>221.25</ele>
        <time>2023-10-16T19:57:04.491Z</time>
      </trkpt>
      <trkpt lat="45.67877523601055" lon="17.690391624346375">
        <ele>221.12</ele>
        <time>2023-10-16T19:57:08.536Z</time>
      </trkpt>
      <trkpt lat="45.678760819137096" lon="17.690382907167077">
        <ele>221.0</ele>
        <time>2023-10-16T19:57:12.582Z</time>
      </trkpt>
      <trkpt lat="45.67874648608267" lon="17.69037427380681">
        <ele>220.88</ele>
        <time>2023-10-16T19:57:16.628Z</time>
      </trkpt>
      <trkpt lat="45.67873223684728" lon="17.690365808084607">
        <ele>220.75</ele>
        <time>2023-10-16T19:57:20.675Z</time>
      </trkpt>
      <trkpt lat="45.678717736154795" lon="17.690357510000467">
        <ele>220.63</ele>
        <time>2023-10-16T19:57:24.722Z</time>
      </trkpt>
      <trkpt lat="45.678703151643276" lon="17.69034979864955">
        <ele>220.51</ele>
        <time>2023-10-16T19:57:28.770Z</time>
      </trkpt>
      <trkpt lat="45.67868823185563" lon="17.690342338755727">
        <ele>220.39</ele>
        <time>2023-10-16T19:57:32.819Z</time>
      </trkpt>
      <trkpt lat="45.67867297679186" lon="17.690334962680936">
        <ele>220.27</ele>
        <time>2023-10-16T19:57:36.868Z</time>
      </trkpt>
      <trkpt lat="45.67865747027099" lon="17.690327502787113">
        <ele>220.16</ele>
        <time>2023-10-16T19:57:40.918Z</time>
      </trkpt>
      <trkpt lat="45.678641628474" lon="17.690319875255227">
        <ele>220.04</ele>
        <time>2023-10-16T19:57:44.968Z</time>
      </trkpt>
      <trkpt lat="45.67862553521991" lon="17.690311912447214">
        <ele>219.92</ele>
        <time>2023-10-16T19:57:49.019Z</time>
      </trkpt>
      <trkpt lat="45.678609274327755" lon="17.690303530544043">
        <ele>219.81</ele>
        <time>2023-10-16T19:57:53.070Z</time>
      </trkpt>
      <trkpt lat="45.678592678159475" lon="17.690294729545712">
        <ele>219.7</ele>
        <time>2023-10-16T19:57:57.122Z</time>
      </trkpt>
      <trkpt lat="45.67857574671507" lon="17.690285593271255">
        <ele>219.59</ele>
        <time>2023-10-16T19:58:01.174Z</time>
      </trkpt>
      <trkpt lat="45.67855873145163" lon="17.690276205539703">
        <ele>219.48</ele>
        <time>2023-10-16T19:58:05.227Z</time>
      </trkpt>
      <trkpt lat="45.67854171618819" lon="17.690266482532024">
        <ele>219.37</ele>
        <time>2023-10-16T19:58:09.281Z</time>
      </trkpt>
      <trkpt lat="45.678524700924754" lon="17.690256759524345">
        <ele>219.27</ele>
        <time>2023-10-16T19:58:13.335Z</time>
      </trkpt>
      <trkpt lat="45.67850793711841" lon="17.690246952697635">
        <ele>219.17</ele>
        <time>2023-10-16T19:58:17.390Z</time>
      </trkpt>
      <trkpt lat="45.67849142476916" lon="17.690237313508987">
        <ele>219.07</ele>
        <time>2023-10-16T19:58:21.446Z</time>
      </trkpt>
      <trkpt lat="45.67847516387701" lon="17.690228009596467">
        <ele>218.97</ele>
        <time>2023-10-16T19:58:25.502Z</time>
      </trkpt>
      <trkpt lat="45.678459238260984" lon="17.690219040960073">
        <ele>218.87</ele>
        <time>2023-10-16T19:58:29.559Z</time>
      </trkpt>
      <trkpt lat="45.678443647921085" lon="17.690210323780775">
        <ele>218.78</ele>
        <time>2023-10-16T19:58:33.616Z</time>
      </trkpt>
      <trkpt lat="45.67842839285731" lon="17.690202109515667">
        <ele>218.69</ele>
        <time>2023-10-16T19:58:37.674Z</time>
      </trkpt>
      <trkpt lat="45.67841347306967" lon="17.690194146707654">
        <ele>218.61</ele>
        <time>2023-10-16T19:58:41.732Z</time>
      </trkpt>
      <trkpt lat="45.67839888855815" lon="17.69018668681383">
        <ele>218.52</ele>
        <time>2023-10-16T19:58:45.791Z</time>
      </trkpt>
      <trkpt lat="45.678384555503726" lon="17.690179646015167">
        <ele>218.44</ele>
        <time>2023-10-16T19:58:49.850Z</time>
      </trkpt>
      <trkpt lat="45.678370390087366" lon="17.6901728566736">
        <ele>218.36</ele>
        <time>2023-10-16T19:58:53.910Z</time>
      </trkpt>
      <trkpt lat="45.6783564761281" lon="17.69016615115106">
        <ele>218.29</ele>
        <time>2023-10-16T19:58:57.970Z</time>
      </trkpt>
      <trkpt lat="45.6783427298069" lon="17.690159445628524">
        <ele>218.22</ele>
        <time>2023-10-16T19:59:02.031Z</time>
      </trkpt>
      <trkpt lat="45.67832906730473" lon="17.69015248864889">
        <ele>218.15</ele>
        <time>2023-10-16T19:59:06.092Z</time>
      </trkpt>
      <trkpt lat="45.67831548862159" lon="17.6901451125741">
        <ele>218.08</ele>
        <time>2023-10-16T19:59:10.154Z</time>
      </trkpt>
      <trkpt lat="45.678301993757486" lon="17.69013731740415">
        <ele>218.02</ele>
        <time>2023-10-16T19:59:14.216Z</time>
      </trkpt>
      <trkpt lat="45.67828883416951" lon="17.69012893550098">
        <ele>217.96</ele>
        <time>2023-10-16T19:59:18.279Z</time>
      </trkpt>
      <trkpt lat="45.67827584221959" lon="17.690119966864586">
        <ele>217.91</ele>
        <time>2023-10-16T19:59:22.342Z</time>
      </trkpt>
      <trkpt lat="45.678263269364834" lon="17.690110243856907">
        <ele>217.86</ele>
        <time>2023-10-16T19:59:26.406Z</time>
      </trkpt>
      <trkpt lat="45.678251115605235" lon="17.690099850296974">
        <ele>217.81</ele>
        <time>2023-10-16T19:59:30.470Z</time>
      </trkpt>
      <trkpt lat="45.678239380940795" lon="17.69008887000382">
        <ele>217.76</ele>
        <time>2023-10-16T19:59:34.535Z</time>
      </trkpt>
      <trkpt lat="45.67822806537151" lon="17.69007713533938">
        <ele>217.72</ele>
        <time>2023-10-16T19:59:38.600Z</time>
      </trkpt>
      <trkpt lat="45.67821700125933" lon="17.690064730122685">
        <ele>217.68</ele>
        <time>2023-10-16T19:59:42.666Z</time>
      </trkpt>
      <trkpt lat="45.67820627242327" lon="17.690051654353738">
        <ele>217.64</ele>
        <time>2023-10-16T19:59:46.732Z</time>
      </trkpt>
      <trkpt lat="45.67819562740624" lon="17.690038243308663">
        <ele>217.62</ele>
        <time>2023-10-16T19:59:50.799Z</time>
      </trkpt>
      <trkpt lat="45.67818489857018" lon="17.69002441316843">
        <ele>217.59</ele>
        <time>2023-10-16T19:59:54.866Z</time>
      </trkpt>
      <trkpt lat="45.678173918277025" lon="17.690010499209166">
        <ele>217.57</ele>
        <time>2023-10-16T19:59:58.933Z</time>
      </trkpt>
      <trkpt lat="45.678162602707744" lon="17.689996669068933">
        <ele>217.55</ele>
        <time>2023-10-16T20:00:03.001Z</time>
      </trkpt>
      <trkpt lat="45.67815078422427" lon="17.68998292274773">
        <ele>217.53</ele>
        <time>2023-10-16T20:00:07.069Z</time>
      </trkpt>
      <trkpt lat="45.67813846282661" lon="17.68996917642653">
        <ele>217.52</ele>
        <time>2023-10-16T20:00:11.138Z</time>
      </trkpt>
      <trkpt lat="45.678125554695725" lon="17.68995543010533">
        <ele>217.51</ele>
        <time>2023-10-16T20:00:15.208Z</time>
      </trkpt>
      <trkpt lat="45.67811205983162" lon="17.689941683784127">
        <ele>217.51</ele>
        <time>2023-10-16T20:00:19.278Z</time>
      </trkpt>
      <trkpt lat="45.67809797823429" lon="17.68992818892002">
        <ele>217.51</ele>
        <time>2023-10-16T20:00:23.349Z</time>
      </trkpt>
      <trkpt lat="45.67808330990374" lon="17.68991486169398">
        <ele>217.51</ele>
        <time>2023-10-16T20:00:27.420Z</time>
      </trkpt>
      <trkpt lat="45.67806822247803" lon="17.68990178592503">
        <ele>217.52</ele>
        <time>2023-10-16T20:00:31.492Z</time>
      </trkpt>
      <trkpt lat="45.67805296741426" lon="17.68988912925124">
        <ele>217.53</ele>
        <time>2023-10-16T20:00:35.564Z</time>
      </trkpt>
      <trkpt lat="45.678037544712424" lon="17.689876724034548">
        <ele>217.54</ele>
        <time>2023-10-16T20:00:39.637Z</time>
      </trkpt>
      <trkpt lat="45.67802228964865" lon="17.689864402636886">
        <ele>217.56</ele>
        <time>2023-10-16T20:00:43.711Z</time>
      </trkpt>
      <trkpt lat="45.67800711840391" lon="17.68985191360116">
        <ele>217.58</ele>
        <time>2023-10-16T20:00:47.785Z</time>
      </trkpt>
      <trkpt lat="45.677992198616266" lon="17.689839340746403">
        <ele>217.6</ele>
        <time>2023-10-16T20:00:51.860Z</time>
      </trkpt>
      <trkpt lat="45.67797761410475" lon="17.68982651643455">
        <ele>217.63</ele>
        <time>2023-10-16T20:00:55.935Z</time>
      </trkpt>
      <trkpt lat="45.677963364869356" lon="17.689813440665603">
        <ele>217.66</ele>
        <time>2023-10-16T20:01:00.011Z</time>
      </trkpt>
      <trkpt lat="45.677949618548155" lon="17.689800029620528">
        <ele>217.69</ele>
        <time>2023-10-16T20:01:04.087Z</time>
      </trkpt>
      <trkpt lat="45.67793629132211" lon="17.68978636711836">
        <ele>217.73</ele>
        <time>2023-10-16T20:01:08.164Z</time>
      </trkpt>
      <trkpt lat="45.67792346701026" lon="17.689772453159094">
        <ele>217.77</ele>
        <time>2023-10-16T20:01:12.242Z</time>
      </trkpt>
      <trkpt lat="45.677911061793566" lon="17.689758455380797">
        <ele>217.81</ele>
        <time>2023-10-16T20:01:16.320Z</time>
      </trkpt>
      <trkpt lat="45.67789890803397" lon="17.689744289964437">
        <ele>217.86</ele>
        <time>2023-10-16T20:01:20.399Z</time>
      </trkpt>
      <trkpt lat="45.677887089550495" lon="17.689730124548078">
        <ele>217.9</ele>
        <time>2023-10-16T20:01:24.478Z</time>
      </trkpt>
      <trkpt lat="45.67787552252412" lon="17.68971604295075">
        <ele>217.95</ele>
        <time>2023-10-16T20:01:28.558Z</time>
      </trkpt>
      <trkpt lat="45.67786429077387" lon="17.689702128991485">
        <ele>218.01</ele>
        <time>2023-10-16T20:01:32.638Z</time>
      </trkpt>
      <trkpt lat="45.67785314284265" lon="17.689688466489315">
        <ele>218.06</ele>
        <time>2023-10-16T20:01:36.719Z</time>
      </trkpt>
      <trkpt lat="45.677842162549496" lon="17.689675139263272">
        <ele>218.12</ele>
        <time>2023-10-16T20:01:40.800Z</time>
      </trkpt>
      <trkpt lat="45.67783126607537" lon="17.689662147313356">
        <ele>218.18</ele>
        <time>2023-10-16T20:01:44.882Z</time>
      </trkpt>
      <trkpt lat="45.67782045342028" lon="17.689649323001504">
        <ele>218.25</ele>
        <time>2023-10-16T20:01:48.964Z</time>
      </trkpt>
      <trkpt lat="45.67780964076519" lon="17.689636582508683">
        <ele>218.31</ele>
        <time>2023-10-16T20:01:53.046Z</time>
      </trkpt>
      <trkpt lat="45.67779891192913" lon="17.689623590558767">
        <ele>218.38</ele>
        <time>2023-10-16T20:01:57.129Z</time>
      </trkpt>
      <trkpt lat="45.6777882669121" lon="17.68961059860885">
        <ele>218.45</ele>
        <time>2023-10-16T20:02:01.212Z</time>
      </trkpt>
      <trkpt lat="45.67777770571411" lon="17.68959735520184">
        <ele>218.52</ele>
        <time>2023-10-16T20:02:05.296Z</time>
      </trkpt>
      <trkpt lat="45.67776714451611" lon="17.689583860337734">
        <ele>218.59</ele>
        <time>2023-10-16T20:02:09.380Z</time>
      </trkpt>
      <trkpt lat="45.67775675095618" lon="17.689570197835565">
        <ele>218.67</ele>
        <time>2023-10-16T20:02:13.465Z</time>
      </trkpt>
      <trkpt lat="45.677746357396245" lon="17.68955636769533">
        <ele>218.74</ele>
        <time>2023-10-16T20:02:17.550Z</time>
      </trkpt>
      <trkpt lat="45.67773596383631" lon="17.689542369917035">
        <ele>218.82</ele>
        <time>2023-10-16T20:02:21.636Z</time>
      </trkpt>
      <trkpt lat="45.67772565409541" lon="17.68952837213874">
        <ele>218.9</ele>
        <time>2023-10-16T20:02:25.722Z</time>
      </trkpt>
      <trkpt lat="45.67771517671645" lon="17.689514458179474">
        <ele>218.98</ele>
        <time>2023-10-16T20:02:29.809Z</time>
      </trkpt>
      <trkpt lat="45.67770461551845" lon="17.689500711858273">
        <ele>219.07</ele>
        <time>2023-10-16T20:02:33.896Z</time>
      </trkpt>
      <trkpt lat="45.67769397050142" lon="17.689487216994166">
        <ele>219.15</ele>
        <time>2023-10-16T20:02:37.984Z</time>
      </trkpt>
      <trkpt lat="45.67768324166536" lon="17.68947422504425">
        <ele>219.24</ele>
        <time>2023-10-16T20:02:42.072Z</time>
      </trkpt>
      <trkpt lat="45.67767234519124" lon="17.68946148455143">
        <ele>219.33</ele>
        <time>2023-10-16T20:02:46.161Z</time>
      </trkpt>
      <trkpt lat="45.67766144871712" lon="17.68944882787764">
        <ele>219.42</ele>
        <time>2023-10-16T20:02:50.250Z</time>
      </trkpt>
      <trkpt lat="45.67765046842396" lon="17.689436255022883">
        <ele>219.51</ele>
        <time>2023-10-16T20:02:54.340Z</time>
      </trkpt>
      <trkpt lat="45.67763948813081" lon="17.689423598349094">
        <ele>219.6</ele>
        <time>2023-10-16T20:02:58.430Z</time>
      </trkpt>
      <trkpt lat="45.67762850783765" lon="17.689411025494337">
        <ele>219.69</ele>
        <time>2023-10-16T20:03:02.521Z</time>
      </trkpt>
      <trkpt lat="45.67761744372547" lon="17.68939853645861">
        <ele>219.79</ele>
        <time>2023-10-16T20:03:06.612Z</time>
      </trkpt>
      <trkpt lat="45.67760621197522" lon="17.689386131241918">
        <ele>219.88</ele>
        <time>2023-10-16T20:03:10.703Z</time>
      </trkpt>
      <trkpt lat="45.677595064044" lon="17.68937355838716">
        <ele>219.98</ele>
        <time>2023-10-16T20:03:14.795Z</time>
      </trkpt>
      <trkpt lat="45.67758391611278" lon="17.68936081789434">
        <ele>220.08</ele>
        <time>2023-10-16T20:03:18.887Z</time>
      </trkpt>
      <trkpt lat="45.677572852000594" lon="17.689347909763455">
        <ele>220.17</ele>
        <time>2023-10-16T20:03:22.980Z</time>
      </trkpt>
      <trkpt lat="45.67756195552647" lon="17.689334666356444">
        <ele>220.27</ele>
        <time>2023-10-16T20:03:27.073Z</time>
      </trkpt>
      <trkpt lat="45.677550975233316" lon="17.689321171492338">
        <ele>220.37</ele>
        <time>2023-10-16T20:03:31.167Z</time>
      </trkpt>
      <trkpt lat="45.67753999494016" lon="17.689307676628232">
        <ele>220.47</ele>
        <time>2023-10-16T20:03:35.261Z</time>
      </trkpt>
      <trkpt lat="45.67752901464701" lon="17.68929434940219">
        <ele>220.57</ele>
        <time>2023-10-16T20:03:39.356Z</time>
      </trkpt>
      <trkpt lat="45.67751795053482" lon="17.689281022176147">
        <ele>220.67</ele>
        <time>2023-10-16T20:03:43.451Z</time>
      </trkpt>
      <trkpt lat="45.67750663496554" lon="17.689267694950104">
        <ele>220.77</ele>
        <time>2023-10-16T20:03:47.547Z</time>
      </trkpt>
      <trkpt lat="45.677495235577226" lon="17.68925428390503">
        <ele>220.87</ele>
        <time>2023-10-16T20:03:51.643Z</time>
      </trkpt>
      <trkpt lat="45.67748358473182" lon="17.689240956678987">
        <ele>220.97</ele>
        <time>2023-10-16T20:03:55.740Z</time>
      </trkpt>
      <trkpt lat="45.677471766248345" lon="17.689227629452944">
        <ele>221.07</ele>
        <time>2023-10-16T20:03:59.837Z</time>
      </trkpt>
      <trkpt lat="45.67745969630778" lon="17.689214553683996">
        <ele>221.18</ele>
        <time>2023-10-16T20:04:03.935Z</time>
      </trkpt>
      <trkpt lat="45.677447374910116" lon="17.689201645553112">
        <ele>221.28</ele>
        <time>2023-10-16T20:04:08.033Z</time>
      </trkpt>
      <trkpt lat="45.67743496969342" lon="17.689188988879323">
        <ele>221.38</ele>
        <time>2023-10-16T20:04:12.132Z</time>
      </trkpt>
      <trkpt lat="45.6774224806577" lon="17.689176416024566">
        <ele>221.48</ele>
        <time>2023-10-16T20:04:16.231Z</time>
      </trkpt>
      <trkpt lat="45.67740982398391" lon="17.68916392698884">
        <ele>221.58</ele>
        <time>2023-10-16T20:04:20.331Z</time>
      </trkpt>
      <trkpt lat="45.67739725112915" lon="17.689151354134083">
        <ele>221.69</ele>
        <time>2023-10-16T20:04:24.431Z</time>
      </trkpt>
      <trkpt lat="45.67738459445536" lon="17.689138781279325">
        <ele>221.79</ele>
        <time>2023-10-16T20:04:28.532Z</time>
      </trkpt>
      <trkpt lat="45.677372105419636" lon="17.689126208424568">
        <ele>221.89</ele>
        <time>2023-10-16T20:04:32.633Z</time>
      </trkpt>
      <trkpt lat="45.677359784021974" lon="17.689113719388843">
        <ele>222.0</ele>
        <time>2023-10-16T20:04:36.735Z</time>
      </trkpt>
      <trkpt lat="45.67734779790044" lon="17.689101146534085">
        <ele>222.1</ele>
        <time>2023-10-16T20:04:40.837Z</time>
      </trkpt>
      <trkpt lat="45.67733623087406" lon="17.689088573679328">
        <ele>222.2</ele>
        <time>2023-10-16T20:04:44.940Z</time>
      </trkpt>
      <trkpt lat="45.67732491530478" lon="17.68907591700554">
        <ele>222.3</ele>
        <time>2023-10-16T20:04:49.043Z</time>
      </trkpt>
      <trkpt lat="45.677313851192594" lon="17.68906334415078">
        <ele>222.41</ele>
        <time>2023-10-16T20:04:53.147Z</time>
      </trkpt>
      <trkpt lat="45.67730295471847" lon="17.689050687476993">
        <ele>222.51</ele>
        <time>2023-10-16T20:04:57.251Z</time>
      </trkpt>
      <trkpt lat="45.67729205824435" lon="17.6890382822603">
        <ele>222.61</ele>
        <time>2023-10-16T20:05:01.356Z</time>
      </trkpt>
      <trkpt lat="45.677281245589256" lon="17.689025960862637">
        <ele>222.72</ele>
        <time>2023-10-16T20:05:05.461Z</time>
      </trkpt>
      <trkpt lat="45.677270432934165" lon="17.689013807103038">
        <ele>222.82</ele>
        <time>2023-10-16T20:05:09.567Z</time>
      </trkpt>
      <trkpt lat="45.677259704098105" lon="17.68900173716247">
        <ele>222.92</ele>
        <time>2023-10-16T20:05:13.673Z</time>
      </trkpt>
      <trkpt lat="45.67724905908108" lon="17.688989667221904">
        <ele>223.02</ele>
        <time>2023-10-16T20:05:17.780Z</time>
      </trkpt>
      <trkpt lat="45.67723849788308" lon="17.688977513462305">
        <ele>223.13</ele>
        <time>2023-10-16T20:05:21.887Z</time>
      </trkpt>
      <trkpt lat="45.677227936685085" lon="17.688965192064643">
        <ele>223.23</ele>
        <time>2023-10-16T20:05:25.994Z</time>
      </trkpt>
      <trkpt lat="45.67721745930612" lon="17.688952703028917">
        <ele>223.33</ele>
        <time>2023-10-16T20:05:30.102Z</time>
      </trkpt>
      <trkpt lat="45.677206898108125" lon="17.68894021399319">
        <ele>223.43</ele>
        <time>2023-10-16T20:05:34.210Z</time>
      </trkpt>
      <trkpt lat="45.6771962530911" lon="17.688927557319403">
        <ele>223.53</ele>
        <time>2023-10-16T20:05:38.319Z</time>
      </trkpt>
      <trkpt lat="45.67718560807407" lon="17.688914984464645">
        <ele>223.63</ele>
        <time>2023-10-16T20:05:42.428Z</time>
      </trkpt>
      <trkpt lat="45.67717487923801" lon="17.688902411609888">
        <ele>223.74</ele>
        <time>2023-10-16T20:05:46.538Z</time>
      </trkpt>
      <trkpt lat="45.67716415040195" lon="17.68888983875513">
        <ele>223.84</ele>
        <time>2023-10-16T20:05:50.648Z</time>
      </trkpt>
      <trkpt lat="45.67715342156589" lon="17.688877349719405">
        <ele>223.94</ele>
        <time>2023-10-16T20:05:54.759Z</time>
      </trkpt>
      <trkpt lat="45.67714252509177" lon="17.688865195959806">
        <ele>224.03</ele>
        <time>2023-10-16T20:05:58.870Z</time>
      </trkpt>
      <trkpt lat="45.677131628617644" lon="17.688853293657303">
        <ele>224.13</ele>
        <time>2023-10-16T20:06:02.982Z</time>
      </trkpt>
      <trkpt lat="45.677120480686426" lon="17.688841810449958">
        <ele>224.23</ele>
        <time>2023-10-16T20:06:07.094Z</time>
      </trkpt>
      <trkpt lat="45.677109165117145" lon="17.68883066251874">
        <ele>224.33</ele>
        <time>2023-10-16T20:06:11.207Z</time>
      </trkpt>
      <trkpt lat="45.6770976819098" lon="17.68881984986365">
        <ele>224.42</ele>
        <time>2023-10-16T20:06:15.320Z</time>
      </trkpt>
      <trkpt lat="45.67708636634052" lon="17.688809037208557">
        <ele>224.52</ele>
        <time>2023-10-16T20:06:19.433Z</time>
      </trkpt>
      <trkpt lat="45.6770752184093" lon="17.68879839219153">
        <ele>224.61</ele>
        <time>2023-10-16T20:06:23.547Z</time>
      </trkpt>
      <trkpt lat="45.67706440575421" lon="17.68878808245063">
        <ele>224.71</ele>
        <time>2023-10-16T20:06:27.661Z</time>
      </trkpt>
      <trkpt lat="45.67705417983234" lon="17.688778107985854">
        <ele>224.8</ele>
        <time>2023-10-16T20:06:31.776Z</time>
      </trkpt>
      <trkpt lat="45.677044624462724" lon="17.68876863643527">
        <ele>224.89</ele>
        <time>2023-10-16T20:06:35.891Z</time>
      </trkpt>
      <trkpt lat="45.677035823464394" lon="17.68875983543694">
        <ele>224.98</ele>
        <time>2023-10-16T20:06:40.006Z</time>
      </trkpt>
      <trkpt lat="45.67702786065638" lon="17.688751704990864">
        <ele>225.07</ele>
        <time>2023-10-16T20:06:44.122Z</time>
      </trkpt>
      <trkpt lat="45.67702098749578" lon="17.68874424509704">
        <ele>225.15</ele>
        <time>2023-10-16T20:06:48.238Z</time>
      </trkpt>
      <trkpt lat="45.67701503634453" lon="17.688737539574504">
        <ele>225.24</ele>
        <time>2023-10-16T20:06:52.354Z</time>
      </trkpt>
      <trkpt lat="45.67701009102166" lon="17.688731588423252">
        <ele>225.33</ele>
        <time>2023-10-16T20:06:56.471Z</time>
      </trkpt>
      <trkpt lat="45.677006067708135" lon="17.688726391643286">
        <ele>225.41</ele>
        <time>2023-10-16T20:07:00.588Z</time>
      </trkpt>
      <trkpt lat="45.677002714946866" lon="17.68872178159654">
        <ele>225.49</ele>
        <time>2023-10-16T20:07:04.705Z</time>
      </trkpt>
      <trkpt lat="45.67699961364269" lon="17.688717674463987">
        <ele>225.57</ele>
        <time>2023-10-16T20:07:08.822Z</time>
      </trkpt>
      <trkpt lat="45.676996847614646" lon="17.68871381878853">
        <ele>225.65</ele>
        <time>2023-10-16T20:07:12.939Z</time>
      </trkpt>
      <trkpt lat="45.676993830129504" lon="17.688709795475006">
        <ele>225.73</ele>
        <time>2023-10-16T20:07:17.056Z</time>
      </trkpt>
      <trkpt lat="45.67699056118727" lon="17.688705436885357">
        <ele>225.81</ele>
        <time>2023-10-16T20:07:21.173Z</time>
      </trkpt>
      <trkpt lat="45.67698670551181" lon="17.688700407743454">
        <ele>225.89</ele>
        <time>2023-10-16T20:07:25.291Z</time>
      </trkpt>
      <trkpt lat="45.676982095465064" lon="17.68869479186833">
        <ele>225.96</ele>
        <time>2023-10-16T20:07:29.409Z</time>
      </trkpt>
      <trkpt lat="45.67697656340897" lon="17.688688337802887">
        <ele>226.04</ele>
        <time>2023-10-16T20:07:33.527Z</time>
      </trkpt>
      <trkpt lat="45.67697019316256" lon="17.688680961728096">
        <ele>226.11</ele>
        <time>2023-10-16T20:07:37.645Z</time>
      </trkpt>
      <trkpt lat="45.6769629009068" lon="17.68867283128202">
        <ele>226.19</ele>
        <time>2023-10-16T20:07:41.764Z</time>
      </trkpt>
      <trkpt lat="45.676954770460725" lon="17.688663946464658">
        <ele>226.26</ele>
        <time>2023-10-16T20:07:45.883Z</time>
      </trkpt>
      <trkpt lat="45.676946053281426" lon="17.68865430727601">
        <ele>226.33</ele>
        <time>2023-10-16T20:07:50.002Z</time>
      </trkpt>
      <trkpt lat="45.67693691700697" lon="17.688644332811236">
        <ele>226.4</ele>
        <time>2023-10-16T20:07:54.122Z</time>
      </trkpt>
      <trkpt lat="45.67692727781832" lon="17.688633855432272">
        <ele>226.47</ele>
        <time>2023-10-16T20:07:58.242Z</time>
      </trkpt>
      <trkpt lat="45.67691738717258" lon="17.688623378053308">
        <ele>226.54</ele>
        <time>2023-10-16T20:08:02.363Z</time>
      </trkpt>
      <trkpt lat="45.67690774798393" lon="17.68861315213144">
        <ele>226.6</ele>
        <time>2023-10-16T20:08:06.484Z</time>
      </trkpt>
      <trkpt lat="45.67689844407141" lon="17.688603177666664">
        <ele>226.67</ele>
        <time>2023-10-16T20:08:10.605Z</time>
      </trkpt>
      <trkpt lat="45.676889726892114" lon="17.688593789935112">
        <ele>226.73</ele>
        <time>2023-10-16T20:08:14.727Z</time>
      </trkpt>
      <trkpt lat="45.6768817640841" lon="17.688585156574845">
        <ele>226.79</ele>
        <time>2023-10-16T20:08:18.849Z</time>
      </trkpt>
      <trkpt lat="45.676874639466405" lon="17.688577193766832">
        <ele>226.85</ele>
        <time>2023-10-16T20:08:22.971Z</time>
      </trkpt>
      <trkpt lat="45.67686843685806" lon="17.68857015296817">
        <ele>226.91</ele>
        <time>2023-10-16T20:08:27.094Z</time>
      </trkpt>
      <trkpt lat="45.676862988621" lon="17.688564117997885">
        <ele>226.97</ele>
        <time>2023-10-16T20:08:31.217Z</time>
      </trkpt>
      <trkpt lat="45.67685837857425" lon="17.688559256494045">
        <ele>227.03</ele>
        <time>2023-10-16T20:08:35.340Z</time>
      </trkpt>
      <trkpt lat="45.67685469053686" lon="17.688555484637618">
        <ele>227.08</ele>
        <time>2023-10-16T20:08:39.463Z</time>
      </trkpt>
      <trkpt lat="45.67685192450881" lon="17.68855271860957">
        <ele>227.13</ele>
        <time>2023-10-16T20:08:43.586Z</time>
      </trkpt>
      <trkpt lat="45.67684999667108" lon="17.688550790771842">
        <ele>227.19</ele>
        <time>2023-10-16T20:08:47.709Z</time>
      </trkpt>
      <trkpt lat="45.67684865556657" lon="17.688549533486366">
        <ele>227.24</ele>
        <time>2023-10-16T20:08:51.832Z</time>
      </trkpt>
      <trkpt lat="45.676847817376256" lon="17.688548946753144">
        <ele>227.29</ele>
        <time>2023-10-16T20:08:55.955Z</time>
      </trkpt>
      <trkpt lat="45.676847314462066" lon="17.688548862934113">
        <ele>227.34</ele>
        <time>2023-10-16T20:09:00.078Z</time>
      </trkpt>
      <trkpt lat="45.67684706300497" lon="17.688549114391208">
        <ele>227.38</ele>
        <time>2023-10-16T20:09:04.201Z</time>
      </trkpt>
      <trkpt lat="45.67684689536691" lon="17.688549617305398">
        <ele>227.43</ele>
        <time>2023-10-16T20:09:08.324Z</time>
      </trkpt>
      <trkpt lat="45.676846727728844" lon="17.68855020403862">
        <ele>227.48</ele>
        <time>2023-10-16T20:09:12.448Z</time>
      </trkpt>
      <trkpt lat="45.67684664390981" lon="17.688550958409905">
        <ele>227.52</ele>
        <time>2023-10-16T20:09:16.572Z</time>
      </trkpt>
      <trkpt lat="45.67684656009078" lon="17.68855171278119">
        <ele>227.57</ele>
        <time>2023-10-16T20:09:20.696Z</time>
      </trkpt>
      <trkpt lat="45.67684656009078" lon="17.688552299514413">
        <ele>227.61</ele>
        <time>2023-10-16T20:09:24.820Z</time>
      </trkpt>
      <trkpt lat="45.67684656009078" lon="17.688552886247635">
        <ele>227.66</ele>
        <time>2023-10-16T20:09:28.944Z</time>
      </trkpt>
      <trkpt lat="45.67684656009078" lon="17.688553472980857">
        <ele>227.7</ele>
        <time>2023-10-16T20:09:33.068Z</time>
      </trkpt>
      <trkpt lat="45.67684656009078" lon="17.688553892076015">
        <ele>227.74</ele>
        <time>2023-10-16T20:09:37.192Z</time>
      </trkpt>
      <trkpt lat="45.67684656009078" lon="17.688554394990206">
        <ele>227.79</ele>
        <time>2023-10-16T20:09:41.316Z</time>
      </trkpt>
      <trkpt lat="45.67684656009078" lon="17.688554814085364">
        <ele>227.83</ele>
        <time>2023-10-16T20:09:45.440Z</time>
      </trkpt>
      <trkpt lat="45.67684656009078" lon="17.688555233180523">
        <ele>227.87</ele>
        <time>2023-10-16T20:09:49.564Z</time>
      </trkpt>
      <trkpt lat="45.67684664390981" lon="17.68855556845665">
        <ele>227.92</ele>
        <time>2023-10-16T20:09:53.688Z</time>
      </trkpt>
      <trkpt lat="45.676846811547875" lon="17.68855598755181">
        <ele>227.96</ele>
        <time>2023-10-16T20:09:57.812Z</time>
      </trkpt>
      <trkpt lat="45.67684689536691" lon="17.688556239008904">
        <ele>228.0</ele>
        <time>2023-10-16T20:10:01.936Z</time>
      </trkpt>
      <trkpt lat="45.67684706300497" lon="17.688556406646967">
        <ele>228.04</ele>
        <time>2023-10-16T20:10:06.060Z</time>
      </trkpt>
      <trkpt lat="45.676847146824" lon="17.688556490466">
        <ele>228.09</ele>
        <time>2023-10-16T20:10:10.184Z</time>
      </trkpt>
      <trkpt lat="45.676847146824" lon="17.688556406646967">
        <ele>228.13</ele>
        <time>2023-10-16T20:10:14.308Z</time>
      </trkpt>
      <trkpt lat="45.67684706300497" lon="17.688556239008904">
        <ele>228.18</ele>
        <time>2023-10-16T20:10:18.432Z</time>
      </trkpt>
      <trkpt lat="45.67684697918594" lon="17.688555903732777">
        <ele>228.22</ele>
        <time>2023-10-16T20:10:22.556Z</time>
      </trkpt>
      <trkpt lat="45.676846811547875" lon="17.688555484637618">
        <ele>228.27</ele>
        <time>2023-10-16T20:10:26.680Z</time>
      </trkpt>
      <trkpt lat="45.676846727728844" lon="17.688554981723428">
        <ele>228.31</ele>
        <time>2023-10-16T20:10:30.804Z</time>
      </trkpt>
      <trkpt lat="45.67684656009078" lon="17.688554394990206">
        <ele>228.36</ele>
        <time>2023-10-16T20:10:34.928Z</time>
      </trkpt>
      <trkpt lat="45.67684639245272" lon="17.688553724437952">
        <ele>228.41</ele>
        <time>2023-10-16T20:10:39.052Z</time>
      </trkpt>
      <trkpt lat="45.676846308633685" lon="17.68855313770473">
        <ele>228.46</ele>
        <time>2023-10-16T20:10:43.176Z</time>
      </trkpt>
      <trkpt lat="45.67684622481465" lon="17.688552550971508">
        <ele>228.5</ele>
        <time>2023-10-16T20:10:47.300Z</time>
      </trkpt>
      <trkpt lat="45.67684614099562" lon="17.688552048057318">
        <ele>228.55</ele>
        <time>2023-10-16T20:10:51.424Z</time>
      </trkpt>
      <trkpt lat="45.67684605717659" lon="17.688551545143127">
        <ele>228.6</ele>
        <time>2023-10-16T20:10:55.548Z</time>
      </trkpt>
      <trkpt lat="45.676845805719495" lon="17.688550874590874">
        <ele>228.66</ele>
        <time>2023-10-16T20:10:59.672Z</time>
      </trkpt>
      <trkpt lat="45.676845302805305" lon="17.688549952581525">
        <ele>228.71</ele>
        <time>2023-10-16T20:11:03.796Z</time>
      </trkpt>
      <trkpt lat="45.67684446461499" lon="17.688548611477017">
        <ele>228.76</ele>
        <time>2023-10-16T20:11:07.920Z</time>
      </trkpt>
      <trkpt lat="45.67684303969145" lon="17.688546599820256">
        <ele>228.82</ele>
        <time>2023-10-16T20:11:12.044Z</time>
      </trkpt>
      <trkpt lat="45.676840860396624" lon="17.688543666154146">
        <ele>228.87</ele>
        <time>2023-10-16T20:11:16.168Z</time>
      </trkpt>
      <trkpt lat="45.676837926730514" lon="17.688539810478687">
        <ele>228.93</ele>
        <time>2023-10-16T20:11:20.292Z</time>
      </trkpt>
      <trkpt lat="45.67683398723602" lon="17.688534948974848">
        <ele>228.99</ele>
        <time>2023-10-16T20:11:24.416Z</time>
      </trkpt>
      <trkpt lat="45.67682912573218" lon="17.688529081642628">
        <ele>229.05</ele>
        <time>2023-10-16T20:11:28.541Z</time>
      </trkpt>
      <trkpt lat="45.67682325839996" lon="17.688522124662995">
        <ele>229.11</ele>
        <time>2023-10-16T20:11:32.666Z</time>
      </trkpt>
      <trkpt lat="45.67681638523936" lon="17.68851407803595">
        <ele>229.17</ele>
        <time>2023-10-16T20:11:36.791Z</time>
      </trkpt>
      <trkpt lat="45.676808673888445" lon="17.688504941761494">
        <ele>229.23</ele>
        <time>2023-10-16T20:11:40.916Z</time>
      </trkpt>
      <trkpt lat="45.67680020816624" lon="17.68849505111575">
        <ele>229.3</ele>
        <time>2023-10-16T20:11:45.042Z</time>
      </trkpt>
      <trkpt lat="45.676791155710816" lon="17.68848432227969">
        <ele>229.36</ele>
        <time>2023-10-16T20:11:49.168Z</time>
      </trkpt>
      <trkpt lat="45.6767816003412" lon="17.688473174348474">
        <ele>229.43</ele>
        <time>2023-10-16T20:11:53.295Z</time>
      </trkpt>
      <trkpt lat="45.67677170969546" lon="17.68846169114113">
        <ele>229.5</ele>
        <time>2023-10-16T20:11:57.422Z</time>
      </trkpt>
      <trkpt lat="45.67676156759262" lon="17.68844995647669">
        <ele>229.56</ele>
        <time>2023-10-16T20:12:01.549Z</time>
      </trkpt>
      <trkpt lat="45.67675142548978" lon="17.68843830563128">
        <ele>229.63</ele>
        <time>2023-10-16T20:12:05.677Z</time>
      </trkpt>
      <trkpt lat="45.67674103192985" lon="17.68842665478587">
        <ele>229.7</ele>
        <time>2023-10-16T20:12:09.805Z</time>
      </trkpt>
      <trkpt lat="45.676730470731854" lon="17.688415171578526">
        <ele>229.77</ele>
        <time>2023-10-16T20:12:13.934Z</time>
      </trkpt>
      <trkpt lat="45.676719741895795" lon="17.68840402364731">
        <ele>229.84</ele>
        <time>2023-10-16T20:12:18.063Z</time>
      </trkpt>
      <trkpt lat="45.67670876160264" lon="17.68839329481125">
        <ele>229.91</ele>
        <time>2023-10-16T20:12:22.193Z</time>
      </trkpt>
      <trkpt lat="45.676697697490454" lon="17.68838315270841">
        <ele>229.98</ele>
        <time>2023-10-16T20:12:26.323Z</time>
      </trkpt>
      <trkpt lat="45.6766867171973" lon="17.688373597338796">
        <ele>230.06</ele>
        <time>2023-10-16T20:12:30.454Z</time>
      </trkpt>
      <trkpt lat="45.67667607218027" lon="17.688364880159497">
        <ele>230.13</ele>
        <time>2023-10-16T20:12:34.585Z</time>
      </trkpt>
      <trkpt lat="45.67666567862034" lon="17.688357001170516">
        <ele>230.2</ele>
        <time>2023-10-16T20:12:38.716Z</time>
      </trkpt>
      <trkpt lat="45.676655787974596" lon="17.688350128009915">
        <ele>230.27</ele>
        <time>2023-10-16T20:12:42.848Z</time>
      </trkpt>
      <trkpt lat="45.676646400243044" lon="17.68834442831576">
        <ele>230.34</ele>
        <time>2023-10-16T20:12:46.980Z</time>
      </trkpt>
      <trkpt lat="45.67663726396859" lon="17.688339818269014">
        <ele>230.41</ele>
        <time>2023-10-16T20:12:51.112Z</time>
      </trkpt>
      <trkpt lat="45.67662846297026" lon="17.688336297869682">
        <ele>230.48</ele>
        <time>2023-10-16T20:12:55.245Z</time>
      </trkpt>
      <trkpt lat="45.67661991342902" lon="17.688333867117763">
        <ele>230.55</ele>
        <time>2023-10-16T20:12:59.378Z</time>
      </trkpt>
      <trkpt lat="45.67661153152585" lon="17.68833227455616">
        <ele>230.62</ele>
        <time>2023-10-16T20:13:03.511Z</time>
      </trkpt>
      <trkpt lat="45.67660331726074" lon="17.688331604003906">
        <ele>230.69</ele>
        <time>2023-10-16T20:13:07.645Z</time>
      </trkpt>
      <trkpt lat="45.676595102995634" lon="17.68833177164197">
        <ele>230.76</ele>
        <time>2023-10-16T20:13:11.779Z</time>
      </trkpt>
      <trkpt lat="45.67658672109246" lon="17.68833269365132">
        <ele>230.83</ele>
        <time>2023-10-16T20:13:15.913Z</time>
      </trkpt>
      <trkpt lat="45.67657792009413" lon="17.688334118574858">
        <ele>230.9</ele>
        <time>2023-10-16T20:13:20.047Z</time>
      </trkpt>
      <trkpt lat="45.67656861618161" lon="17.688335962593555">
        <ele>230.97</ele>
        <time>2023-10-16T20:13:24.182Z</time>
      </trkpt>
      <trkpt lat="45.67655872553587" lon="17.68833814188838">
        <ele>231.04</ele>
        <time>2023-10-16T20:13:28.317Z</time>
      </trkpt>
      <trkpt lat="45.676548248156905" lon="17.688340488821268">
        <ele>231.11</ele>
        <time>2023-10-16T20:13:32.452Z</time>
      </trkpt>
      <trkpt lat="45.67653726786375" lon="17.68834300339222">
        <ele>231.18</ele>
        <time>2023-10-16T20:13:36.588Z</time>
      </trkpt>
      <trkpt lat="45.67652586847544" lon="17.68834551796317">
        <ele>231.24</ele>
        <time>2023-10-16T20:13:40.724Z</time>
      </trkpt>
      <trkpt lat="45.67651421763003" lon="17.68834786489606">
        <ele>231.31</ele>
        <time>2023-10-16T20:13:44.861Z</time>
      </trkpt>
      <trkpt lat="45.676502315327525" lon="17.688349960371852">
        <ele>231.38</ele>
        <time>2023-10-16T20:13:48.998Z</time>
      </trkpt>
      <trkpt lat="45.67649024538696" lon="17.68835180439055">
        <ele>231.44</ele>
        <time>2023-10-16T20:13:53.135Z</time>
      </trkpt>
      <trkpt lat="45.67647809162736" lon="17.68835322931409">
        <ele>231.51</ele>
        <time>2023-10-16T20:13:57.273Z</time>
      </trkpt>
      <trkpt lat="45.6764657702297" lon="17.6883543189615">
        <ele>231.58</ele>
        <time>2023-10-16T20:14:01.411Z</time>
      </trkpt>
      <trkpt lat="45.67645319737494" lon="17.688354989513755">
        <ele>231.64</ele>
        <time>2023-10-16T20:14:05.550Z</time>
      </trkpt>
      <trkpt lat="45.67644054070115" lon="17.68835532478988">
        <ele>231.71</ele>
        <time>2023-10-16T20:14:09.689Z</time>
      </trkpt>
      <trkpt lat="45.676427548751235" lon="17.68835515715182">
        <ele>231.77</ele>
        <time>2023-10-16T20:14:13.828Z</time>
      </trkpt>
      <trkpt lat="45.676414389163256" lon="17.688354654237628">
        <ele>231.83</ele>
        <time>2023-10-16T20:14:17.968Z</time>
      </trkpt>
      <trkpt lat="45.67640106193721" lon="17.688353564590216">
        <ele>231.89</ele>
        <time>2023-10-16T20:14:22.108Z</time>
      </trkpt>
      <trkpt lat="45.67638756707311" lon="17.688352139666677">
        <ele>231.96</ele>
        <time>2023-10-16T20:14:26.249Z</time>
      </trkpt>
      <trkpt lat="45.676373820751905" lon="17.688350463286042">
        <ele>232.02</ele>
        <time>2023-10-16T20:14:30.390Z</time>
      </trkpt>
      <trkpt lat="45.67635990679264" lon="17.68834845162928">
        <ele>232.08</ele>
        <time>2023-10-16T20:14:34.532Z</time>
      </trkpt>
      <trkpt lat="45.676345992833376" lon="17.688346356153488">
        <ele>232.14</ele>
        <time>2023-10-16T20:14:38.674Z</time>
      </trkpt>
      <trkpt lat="45.67633191123605" lon="17.688344176858664">
        <ele>232.19</ele>
        <time>2023-10-16T20:14:42.817Z</time>
      </trkpt>
      <trkpt lat="45.67631791345775" lon="17.688341829925776">
        <ele>232.25</ele>
        <time>2023-10-16T20:14:46.960Z</time>
      </trkpt>
      <trkpt lat="45.67630383186042" lon="17.688339399173856">
        <ele>232.31</ele>
        <time>2023-10-16T20:14:51.104Z</time>
      </trkpt>
      <trkpt lat="45.67628983408213" lon="17.68833671696484">
        <ele>232.37</ele>
        <time>2023-10-16T20:14:55.248Z</time>
      </trkpt>
      <trkpt lat="45.67627583630383" lon="17.688334118574858">
        <ele>232.43</ele>
        <time>2023-10-16T20:14:59.393Z</time>
      </trkpt>
      <trkpt lat="45.676261922344565" lon="17.68833177164197">
        <ele>232.48</ele>
        <time>2023-10-16T20:15:03.538Z</time>
      </trkpt>
      <trkpt lat="45.67624809220433" lon="17.68832975998521">
        <ele>232.54</ele>
        <time>2023-10-16T20:15:07.683Z</time>
      </trkpt>
      <trkpt lat="45.676234597340226" lon="17.688328251242638">
        <ele>232.59</ele>
        <time>2023-10-16T20:15:11.829Z</time>
      </trkpt>
      <trkpt lat="45.67622152157128" lon="17.68832741305232">
        <ele>232.65</ele>
        <time>2023-10-16T20:15:15.975Z</time>
      </trkpt>
      <trkpt lat="45.67620886489749" lon="17.688326993957162">
        <ele>232.7</ele>
        <time>2023-10-16T20:15:20.122Z</time>
      </trkpt>
      <trkpt lat="45.67619654349983" lon="17.688326993957162">
        <ele>232.76</ele>
        <time>2023-10-16T20:15:24.269Z</time>
      </trkpt>
      <trkpt lat="45.67618455737829" lon="17.688326993957162">
        <ele>232.81</ele>
        <time>2023-10-16T20:15:28.417Z</time>
      </trkpt>
      <trkpt lat="45.67617265507579" lon="17.688326742500067">
        <ele>232.86</ele>
        <time>2023-10-16T20:15:32.565Z</time>
      </trkpt>
      <trkpt lat="45.67616050131619" lon="17.688326239585876">
        <ele>232.92</ele>
        <time>2023-10-16T20:15:36.713Z</time>
      </trkpt>
      <trkpt lat="45.676148012280464" lon="17.688325233757496">
        <ele>232.97</ele>
        <time>2023-10-16T20:15:40.862Z</time>
      </trkpt>
      <trkpt lat="45.67613543942571" lon="17.68832389265299">
        <ele>233.02</ele>
        <time>2023-10-16T20:15:45.011Z</time>
      </trkpt>
      <trkpt lat="45.676122698932886" lon="17.688321880996227">
        <ele>233.07</ele>
        <time>2023-10-16T20:15:49.161Z</time>
      </trkpt>
      <trkpt lat="45.676109874621034" lon="17.688319282606244">
        <ele>233.12</ele>
        <time>2023-10-16T20:15:53.311Z</time>
      </trkpt>
      <trkpt lat="45.676096798852086" lon="17.688316013664007">
        <ele>233.18</ele>
        <time>2023-10-16T20:15:57.462Z</time>
      </trkpt>
      <trkpt lat="45.67608330398798" lon="17.688311990350485">
        <ele>233.23</ele>
        <time>2023-10-16T20:16:01.613Z</time>
      </trkpt>
      <trkpt lat="45.67606947384775" lon="17.68830738030374">
        <ele>233.28</ele>
        <time>2023-10-16T20:16:05.764Z</time>
      </trkpt>
      <trkpt lat="45.67605505697429" lon="17.688302183523774">
        <ele>233.33</ele>
        <time>2023-10-16T20:16:09.916Z</time>
      </trkpt>
      <trkpt lat="45.67604022100568" lon="17.688296986743808">
        <ele>233.39</ele>
        <time>2023-10-16T20:16:14.068Z</time>
      </trkpt>
      <trkpt lat="45.676024965941906" lon="17.68829178996384">
        <ele>233.44</ele>
        <time>2023-10-16T20:16:18.221Z</time>
      </trkpt>
      <trkpt lat="45.676009710878134" lon="17.688287012279034">
        <ele>233.49</ele>
        <time>2023-10-16T20:16:22.374Z</time>
      </trkpt>
      <trkpt lat="45.67599445581436" lon="17.68828248605132">
        <ele>233.54</ele>
        <time>2023-10-16T20:16:26.528Z</time>
      </trkpt>
      <trkpt lat="45.67597928456962" lon="17.688278295099735">
        <ele>233.6</ele>
        <time>2023-10-16T20:16:30.683Z</time>
      </trkpt>
      <trkpt lat="45.67596411332488" lon="17.688274271786213">
        <ele>233.65</ele>
        <time>2023-10-16T20:16:34.838Z</time>
      </trkpt>
      <trkpt lat="45.67594894208014" lon="17.68827024847269">
        <ele>233.7</ele>
        <time>2023-10-16T20:16:38.994Z</time>
      </trkpt>
      <trkpt lat="45.6759337708354" lon="17.688266057521105">
        <ele>233.75</ele>
        <time>2023-10-16T20:16:43.150Z</time>
      </trkpt>
      <trkpt lat="45.675918431952596" lon="17.688261531293392">
        <ele>233.8</ele>
        <time>2023-10-16T20:16:47.307Z</time>
      </trkpt>
      <trkpt lat="45.67590300925076" lon="17.688256669789553">
        <ele>233.86</ele>
        <time>2023-10-16T20:16:51.464Z</time>
      </trkpt>
      <trkpt lat="45.67588750272989" lon="17.688251473009586">
        <ele>233.91</ele>
        <time>2023-10-16T20:16:55.622Z</time>
      </trkpt>
      <trkpt lat="45.675871996209025" lon="17.68824585713446">
        <ele>233.96</ele>
        <time>2023-10-16T20:16:59.780Z</time>
      </trkpt>
      <trkpt lat="45.67585665732622" lon="17.68823990598321">
        <ele>234.01</ele>
        <time>2023-10-16T20:17:03.939Z</time>
      </trkpt>
      <trkpt lat="45.67584156990051" lon="17.68823361955583">
        <ele>234.06</ele>
        <time>2023-10-16T20:17:08.098Z</time>
      </trkpt>
      <trkpt lat="45.67582681775093" lon="17.688227081671357">
        <ele>234.11</ele>
        <time>2023-10-16T20:17:12.258Z</time>
      </trkpt>
      <trkpt lat="45.67581223323941" lon="17.688220543786883">
        <ele>234.16</ele>
        <time>2023-10-16T20:17:16.418Z</time>
      </trkpt>
      <trkpt lat="45.67579790018499" lon="17.688213838264346">
        <ele>234.21</ele>
        <time>2023-10-16T20:17:20.579Z</time>
      </trkpt>
      <trkpt lat="45.67578373476863" lon="17.68820721656084">
        <ele>234.25</ele>
        <time>2023-10-16T20:17:24.740Z</time>
      </trkpt>
      <trkpt lat="45.6757696531713" lon="17.6882007624954">
        <ele>234.3</ele>
        <time>2023-10-16T20:17:28.902Z</time>
      </trkpt>
      <trkpt lat="45.67575582303107" lon="17.68819447606802">
        <ele>234.35</ele>
        <time>2023-10-16T20:17:33.064Z</time>
      </trkpt>
      <trkpt lat="45.675741992890835" lon="17.688188357278705">
        <ele>234.4</ele>
        <time>2023-10-16T20:17:37.227Z</time>
      </trkpt>
      <trkpt lat="45.6757284142077" lon="17.688182489946485">
        <ele>234.45</ele>
        <time>2023-10-16T20:17:41.390Z</time>
      </trkpt>
      <trkpt lat="45.67571491934359" lon="17.688177041709423">
        <ele>234.49</ele>
        <time>2023-10-16T20:17:45.554Z</time>
      </trkpt>
      <trkpt lat="45.67570134066045" lon="17.68817192874849">
        <ele>234.54</ele>
        <time>2023-10-16T20:17:49.718Z</time>
      </trkpt>
      <trkpt lat="45.67568742670119" lon="17.68816706724465">
        <ele>234.59</ele>
        <time>2023-10-16T20:17:53.883Z</time>
      </trkpt>
      <trkpt lat="45.67567334510386" lon="17.688162457197905">
        <ele>234.63</ele>
        <time>2023-10-16T20:17:58.048Z</time>
      </trkpt>
      <trkpt lat="45.675658928230405" lon="17.68815776333213">
        <ele>234.68</ele>
        <time>2023-10-16T20:18:02.214Z</time>
      </trkpt>
      <trkpt lat="45.67564467899501" lon="17.688153153285384">
        <ele>234.72</ele>
        <time>2023-10-16T20:18:06.380Z</time>
      </trkpt>
      <trkpt lat="45.67563068121672" lon="17.688148375600576">
        <ele>234.77</ele>
        <time>2023-10-16T20:18:10.547Z</time>
      </trkpt>
      <trkpt lat="45.67561727017164" lon="17.6881436817348">
        <ele>234.81</ele>
        <time>2023-10-16T20:18:14.714Z</time>
      </trkpt>
      <trkpt lat="45.675604697316885" lon="17.688138987869024">
        <ele>234.86</ele>
        <time>2023-10-16T20:18:18.881Z</time>
      </trkpt>
      <trkpt lat="45.67559304647148" lon="17.688134629279375">
        <ele>234.9</ele>
        <time>2023-10-16T20:18:23.049Z</time>
      </trkpt>
      <trkpt lat="45.675582233816385" lon="17.68813043832779">
        <ele>234.95</ele>
        <time>2023-10-16T20:18:27.217Z</time>
      </trkpt>
      <trkpt lat="45.67557225935161" lon="17.688126750290394">
        <ele>234.99</ele>
        <time>2023-10-16T20:18:31.386Z</time>
      </trkpt>
      <trkpt lat="45.67556303925812" lon="17.688123397529125">
        <ele>235.03</ele>
        <time>2023-10-16T20:18:35.555Z</time>
      </trkpt>
      <trkpt lat="45.67555474117398" lon="17.688120380043983">
        <ele>235.07</ele>
        <time>2023-10-16T20:18:39.724Z</time>
      </trkpt>
      <trkpt lat="45.67554694600403" lon="17.688117446377873">
        <ele>235.11</ele>
        <time>2023-10-16T20:18:43.893Z</time>
      </trkpt>
      <trkpt lat="45.67553956992924" lon="17.68811476416886">
        <ele>235.15</ele>
        <time>2023-10-16T20:18:48.063Z</time>
      </trkpt>
      <trkpt lat="45.67553211003542" lon="17.688112249597907">
        <ele>235.18</ele>
        <time>2023-10-16T20:18:52.233Z</time>
      </trkpt>
      <trkpt lat="45.67552431486547" lon="17.68810998648405">
        <ele>235.22</ele>
        <time>2023-10-16T20:18:56.403Z</time>
      </trkpt>
      <trkpt lat="45.675515765324235" lon="17.688107891008258">
        <ele>235.26</ele>
        <time>2023-10-16T20:19:00.573Z</time>
      </trkpt>
      <trkpt lat="45.67550637759268" lon="17.68810604698956">
        <ele>235.29</ele>
        <time>2023-10-16T20:19:04.744Z</time>
      </trkpt>
      <trkpt lat="45.67549606785178" lon="17.688104286789894">
        <ele>235.32</ele>
        <time>2023-10-16T20:19:08.915Z</time>
      </trkpt>
      <trkpt lat="45.67548466846347" lon="17.688102526590228">
        <ele>235.35</ele>
        <time>2023-10-16T20:19:13.087Z</time>
      </trkpt>
      <trkpt lat="45.67547243088484" lon="17.688100347295403">
        <ele>235.39</ele>
        <time>2023-10-16T20:19:17.259Z</time>
      </trkpt>
      <trkpt lat="45.675459522753954" lon="17.688098000362515">
        <ele>235.41</ele>
        <time>2023-10-16T20:19:21.431Z</time>
      </trkpt>
      <trkpt lat="45.675445860251784" lon="17.688095401972532">
        <ele>235.44</ele>
        <time>2023-10-16T20:19:25.604Z</time>
      </trkpt>
      <trkpt lat="45.67543161101639" lon="17.688092719763517">
        <ele>235.47</ele>
        <time>2023-10-16T20:19:29.777Z</time>
      </trkpt>
      <trkpt lat="45.675417026504874" lon="17.688090121373534">
        <ele>235.49</ele>
        <time>2023-10-16T20:19:33.951Z</time>
      </trkpt>
      <trkpt lat="45.67540227435529" lon="17.688087690621614">
        <ele>235.52</ele>
        <time>2023-10-16T20:19:38.125Z</time>
      </trkpt>
      <trkpt lat="45.675387270748615" lon="17.688085343688726">
        <ele>235.54</ele>
        <time>2023-10-16T20:19:42.300Z</time>
      </trkpt>
      <trkpt lat="45.67537218332291" lon="17.68808308057487">
        <ele>235.56</ele>
        <time>2023-10-16T20:19:46.475Z</time>
      </trkpt>
      <trkpt lat="45.6753570958972" lon="17.688080901280046">
        <ele>235.58</ele>
        <time>2023-10-16T20:19:50.651Z</time>
      </trkpt>
      <trkpt lat="45.67534192465246" lon="17.68807863816619">
        <ele>235.59</ele>
        <time>2023-10-16T20:19:54.827Z</time>
      </trkpt>
      <trkpt lat="45.67532683722675" lon="17.6880762912333">
        <ele>235.61</ele>
        <time>2023-10-16T20:19:59.004Z</time>
      </trkpt>
      <trkpt lat="45.67531183362007" lon="17.688073609024286">
        <ele>235.62</ele>
        <time>2023-10-16T20:20:03.181Z</time>
      </trkpt>
      <trkpt lat="45.67529699765146" lon="17.688070507720113">
        <ele>235.63</ele>
        <time>2023-10-16T20:20:07.359Z</time>
      </trkpt>
      <trkpt lat="45.67528232932091" lon="17.688066735863686">
        <ele>235.64</ele>
        <time>2023-10-16T20:20:11.537Z</time>
      </trkpt>
      <trkpt lat="45.67526816390455" lon="17.688062293455005">
        <ele>235.64</ele>
        <time>2023-10-16T20:20:15.716Z</time>
      </trkpt>
      <trkpt lat="45.67525416612625" lon="17.688057012856007">
        <ele>235.65</ele>
        <time>2023-10-16T20:20:19.895Z</time>
      </trkpt>
      <trkpt lat="45.67524058744311" lon="17.688051145523787">
        <ele>235.65</ele>
        <time>2023-10-16T20:20:24.075Z</time>
      </trkpt>
      <trkpt lat="45.6752273440361" lon="17.688044691458344">
        <ele>235.65</ele>
        <time>2023-10-16T20:20:28.255Z</time>
      </trkpt>
      <trkpt lat="45.67521443590522" lon="17.688037818297744">
        <ele>235.65</ele>
        <time>2023-10-16T20:20:32.436Z</time>
      </trkpt>
      <trkpt lat="45.67520186305046" lon="17.688030609861016">
        <ele>235.64</ele>
        <time>2023-10-16T20:20:36.617Z</time>
      </trkpt>
      <trkpt lat="45.67518962547183" lon="17.688023066148162">
        <ele>235.64</ele>
        <time>2023-10-16T20:20:40.799Z</time>
      </trkpt>
      <trkpt lat="45.67517797462642" lon="17.688015019521117">
        <ele>235.63</ele>
        <time>2023-10-16T20:20:44.981Z</time>
      </trkpt>
      <trkpt lat="45.67516716197133" lon="17.688006553798914">
        <ele>235.62</ele>
        <time>2023-10-16T20:20:49.163Z</time>
      </trkpt>
      <trkpt lat="45.67515727132559" lon="17.687997836619616">
        <ele>235.6</ele>
        <time>2023-10-16T20:20:53.346Z</time>
      </trkpt>
      <trkpt lat="45.67514821887016" lon="17.687988867983222">
        <ele>235.59</ele>
        <time>2023-10-16T20:20:57.529Z</time>
      </trkpt>
      <trkpt lat="45.67514008842409" lon="17.687980066984892">
        <ele>235.57</ele>
        <time>2023-10-16T20:21:01.713Z</time>
      </trkpt>
      <trkpt lat="45.67513304762542" lon="17.687971433624625">
        <ele>235.56</ele>
        <time>2023-10-16T20:21:05.897Z</time>
      </trkpt>
      <trkpt lat="45.675126761198044" lon="17.687963051721454">
        <ele>235.54</ele>
        <time>2023-10-16T20:21:10.081Z</time>
      </trkpt>
      <trkpt lat="45.675121480599046" lon="17.687954837456346">
        <ele>235.51</ele>
        <time>2023-10-16T20:21:14.265Z</time>
      </trkpt>
      <trkpt lat="45.67511745728552" lon="17.687946539372206">
        <ele>235.49</ele>
        <time>2023-10-16T20:21:18.450Z</time>
      </trkpt>
      <trkpt lat="45.67511452361941" lon="17.68793798983097">
        <ele>235.46</ele>
        <time>2023-10-16T20:21:22.635Z</time>
      </trkpt>
      <trkpt lat="45.67511276341975" lon="17.687929440289736">
        <ele>235.44</ele>
        <time>2023-10-16T20:21:26.820Z</time>
      </trkpt>
      <trkpt lat="45.67511200904846" lon="17.687920974567533">
        <ele>235.41</ele>
        <time>2023-10-16T20:21:31.005Z</time>
      </trkpt>
      <trkpt lat="45.675112092867494" lon="17.687912760302424">
        <ele>235.38</ele>
        <time>2023-10-16T20:21:35.190Z</time>
      </trkpt>
      <trkpt lat="45.67511284723878" lon="17.687904629856348">
        <ele>235.35</ele>
        <time>2023-10-16T20:21:39.376Z</time>
      </trkpt>
      <trkpt lat="45.67511427216232" lon="17.687896750867367">
        <ele>235.31</ele>
        <time>2023-10-16T20:21:43.562Z</time>
      </trkpt>
      <trkpt lat="45.675116116181016" lon="17.687888871878386">
        <ele>235.28</ele>
        <time>2023-10-16T20:21:47.748Z</time>
      </trkpt>
      <trkpt lat="45.67511837929487" lon="17.687881076708436">
        <ele>235.25</ele>
        <time>2023-10-16T20:21:51.934Z</time>
      </trkpt>
      <trkpt lat="45.675120893865824" lon="17.687873281538486">
        <ele>235.21</ele>
        <time>2023-10-16T20:21:56.120Z</time>
      </trkpt>
      <trkpt lat="45.67512365989387" lon="17.687865486368537">
        <ele>235.18</ele>
        <time>2023-10-16T20:22:00.307Z</time>
      </trkpt>
      <trkpt lat="45.67512650974095" lon="17.687857942655683">
        <ele>235.14</ele>
        <time>2023-10-16T20:22:04.494Z</time>
      </trkpt>
      <trkpt lat="45.67512952722609" lon="17.687850734218955">
        <ele>235.11</ele>
        <time>2023-10-16T20:22:08.681Z</time>
      </trkpt>
      <trkpt lat="45.675132628530264" lon="17.68784369342029">
        <ele>235.07</ele>
        <time>2023-10-16T20:22:12.868Z</time>
      </trkpt>
      <trkpt lat="45.6751358974725" lon="17.687836987897754">
        <ele>235.03</ele>
        <time>2023-10-16T20:22:17.055Z</time>
      </trkpt>
      <trkpt lat="45.675139501690865" lon="17.68783045001328">
        <ele>234.99</ele>
        <time>2023-10-16T20:22:21.243Z</time>
      </trkpt>
      <trkpt lat="45.67514335736632" lon="17.687823912128806">
        <ele>234.95</ele>
        <time>2023-10-16T20:22:25.431Z</time>
      </trkpt>
      <trkpt lat="45.67514754831791" lon="17.687817374244332">
        <ele>234.91</ele>
        <time>2023-10-16T20:22:29.619Z</time>
      </trkpt>
      <trkpt lat="45.67515207454562" lon="17.687810668721795">
        <ele>234.87</ele>
        <time>2023-10-16T20:22:33.807Z</time>
      </trkpt>
      <trkpt lat="45.675157103687525" lon="17.687803795561194">
        <ele>234.83</ele>
        <time>2023-10-16T20:22:37.995Z</time>
      </trkpt>
      <trkpt lat="45.675162468105555" lon="17.687796419486403">
        <ele>234.79</ele>
        <time>2023-10-16T20:22:42.184Z</time>
      </trkpt>
      <trkpt lat="45.675168419256806" lon="17.687788121402264">
        <ele>234.74</ele>
        <time>2023-10-16T20:22:46.373Z</time>
      </trkpt>
      <trkpt lat="45.67517478950322" lon="17.687779236584902">
        <ele>234.7</ele>
        <time>2023-10-16T20:22:50.562Z</time>
      </trkpt>
      <trkpt lat="45.67518132738769" lon="17.68776984885335">
        <ele>234.66</ele>
        <time>2023-10-16T20:22:54.752Z</time>
      </trkpt>
      <trkpt lat="45.675187949091196" lon="17.687760293483734">
        <ele>234.62</ele>
        <time>2023-10-16T20:22:58.942Z</time>
      </trkpt>
      <trkpt lat="45.67519440315664" lon="17.687750570476055">
        <ele>234.58</ele>
        <time>2023-10-16T20:23:03.132Z</time>
      </trkpt>
      <trkpt lat="45.675200605764985" lon="17.68774101510644">
        <ele>234.54</ele>
        <time>2023-10-16T20:23:07.323Z</time>
      </trkpt>
      <trkpt lat="45.675206473097205" lon="17.687731878831983">
        <ele>234.5</ele>
        <time>2023-10-16T20:23:11.514Z</time>
      </trkpt>
      <trkpt lat="45.67521208897233" lon="17.687723077833652">
        <ele>234.46</ele>
        <time>2023-10-16T20:23:15.705Z</time>
      </trkpt>
      <trkpt lat="45.67521762102842" lon="17.687714863568544">
        <ele>234.42</ele>
        <time>2023-10-16T20:23:19.896Z</time>
      </trkpt>
      <trkpt lat="45.675223069265485" lon="17.68770731985569">
        <ele>234.38</ele>
        <time>2023-10-16T20:23:24.088Z</time>
      </trkpt>
      <trkpt lat="45.67522860132158" lon="17.68770053051412">
        <ele>234.35</ele>
        <time>2023-10-16T20:23:28.280Z</time>
      </trkpt>
      <trkpt lat="45.67523413337767" lon="17.687694830819964">
        <ele>234.31</ele>
        <time>2023-10-16T20:23:32.472Z</time>
      </trkpt>
      <trkpt lat="45.67523991689086" lon="17.687689885497093">
        <ele>234.28</ele>
        <time>2023-10-16T20:23:36.664Z</time>
      </trkpt>
      <trkpt lat="45.67524620331824" lon="17.68768535926938">
        <ele>234.24</ele>
        <time>2023-10-16T20:23:40.857Z</time>
      </trkpt>
      <trkpt lat="45.67525299265981" lon="17.68768100067973">
        <ele>234.21</ele>
        <time>2023-10-16T20:23:45.050Z</time>
      </trkpt>
      <trkpt lat="45.67526053637266" lon="17.687676809728146">
        <ele>234.18</ele>
        <time>2023-10-16T20:23:49.243Z</time>
      </trkpt>
      <trkpt lat="45.6752688344568" lon="17.687672534957528">
        <ele>234.15</ele>
        <time>2023-10-16T20:23:53.436Z</time>
      </trkpt>
      <trkpt lat="45.675277803093195" lon="17.68766817636788">
        <ele>234.12</ele>
        <time>2023-10-16T20:23:57.630Z</time>
      </trkpt>
      <trkpt lat="45.67528735846281" lon="17.68766381777823">
        <ele>234.1</ele>
        <time>2023-10-16T20:24:01.824Z</time>
      </trkpt>
      <trkpt lat="45.67529716528952" lon="17.687659543007612">
        <ele>234.07</ele>
        <time>2023-10-16T20:24:06.018Z</time>
      </trkpt>
      <trkpt lat="45.67530730739236" lon="17.687655184417963">
        <ele>234.05</ele>
        <time>2023-10-16T20:24:10.213Z</time>
      </trkpt>
      <trkpt lat="45.67531778477132" lon="17.68765065819025">
        <ele>234.02</ele>
        <time>2023-10-16T20:24:14.408Z</time>
      </trkpt>
      <trkpt lat="45.675328681245446" lon="17.687646131962538">
        <ele>234.0</ele>
        <time>2023-10-16T20:24:18.603Z</time>
      </trkpt>
      <trkpt lat="45.675339912995696" lon="17.68764135427773">
        <ele>233.98</ele>
        <time>2023-10-16T20:24:22.799Z</time>
      </trkpt>
      <trkpt lat="45.67535131238401" lon="17.687636576592922">
        <ele>233.95</ele>
        <time>2023-10-16T20:24:26.995Z</time>
      </trkpt>
      <trkpt lat="45.675362795591354" lon="17.687631715089083">
        <ele>233.93</ele>
        <time>2023-10-16T20:24:31.192Z</time>
      </trkpt>
      <trkpt lat="45.67537436261773" lon="17.687626602128148">
        <ele>233.91</ele>
        <time>2023-10-16T20:24:35.389Z</time>
      </trkpt>
      <trkpt lat="45.67538567818701" lon="17.687621153891087">
        <ele>233.89</ele>
        <time>2023-10-16T20:24:39.586Z</time>
      </trkpt>
      <trkpt lat="45.675396993756294" lon="17.687615370377898">
        <ele>233.88</ele>
        <time>2023-10-16T20:24:43.784Z</time>
      </trkpt>
      <trkpt lat="45.67540814168751" lon="17.687608916312456">
        <ele>233.86</ele>
        <time>2023-10-16T20:24:47.982Z</time>
      </trkpt>
      <trkpt lat="45.67541928961873" lon="17.687602043151855">
        <ele>233.85</ele>
        <time>2023-10-16T20:24:52.181Z</time>
      </trkpt>
      <trkpt lat="45.675430269911885" lon="17.687594750896096">
        <ele>233.83</ele>
        <time>2023-10-16T20:24:56.380Z</time>
      </trkpt>
      <trkpt lat="45.675440998747945" lon="17.68758712336421">
        <ele>233.82</ele>
        <time>2023-10-16T20:25:00.579Z</time>
      </trkpt>
      <trkpt lat="45.675451308488846" lon="17.68757924437523">
        <ele>233.81</ele>
        <time>2023-10-16T20:25:04.779Z</time>
      </trkpt>
      <trkpt lat="45.67546111531556" lon="17.687571197748184">
        <ele>233.79</ele>
        <time>2023-10-16T20:25:08.979Z</time>
      </trkpt>
      <trkpt lat="45.67547041922808" lon="17.68756315112114">
        <ele>233.78</ele>
        <time>2023-10-16T20:25:13.180Z</time>
      </trkpt>
      <trkpt lat="45.67547930404544" lon="17.687555020675063">
        <ele>233.77</ele>
        <time>2023-10-16T20:25:17.381Z</time>
      </trkpt>
      <trkpt lat="45.675487937405705" lon="17.68754697404802">
        <ele>233.76</ele>
        <time>2023-10-16T20:25:21.582Z</time>
      </trkpt>
      <trkpt lat="45.67549640312791" lon="17.68753875978291">
        <ele>233.74</ele>
        <time>2023-10-16T20:25:25.784Z</time>
      </trkpt>
      <trkpt lat="45.67550444975495" lon="17.687530713155866">
        <ele>233.73</ele>
        <time>2023-10-16T20:25:29.986Z</time>
      </trkpt>
      <trkpt lat="45.675512412562966" lon="17.68752266652882">
        <ele>233.72</ele>
        <time>2023-10-16T20:25:34.188Z</time>
      </trkpt>
      <trkpt lat="45.675520123913884" lon="17.68751436844468">
        <ele>233.7</ele>
        <time>2023-10-16T20:25:38.391Z</time>
      </trkpt>
      <trkpt lat="45.675527499988675" lon="17.68750598654151">
        <ele>233.69</ele>
        <time>2023-10-16T20:25:42.594Z</time>
      </trkpt>
      <trkpt lat="45.67553454078734" lon="17.68749726936221">
        <ele>233.68</ele>
        <time>2023-10-16T20:25:46.797Z</time>
      </trkpt>
      <trkpt lat="45.675541246309876" lon="17.68748846836388">
        <ele>233.66</ele>
        <time>2023-10-16T20:25:51.001Z</time>
      </trkpt>
      <trkpt lat="45.67554761655629" lon="17.687479332089424">
        <ele>233.65</ele>
        <time>2023-10-16T20:25:55.205Z</time>
      </trkpt>
      <trkpt lat="45.6755537353456" lon="17.687470028176904">
        <ele>233.64</ele>
        <time>2023-10-16T20:25:59.409Z</time>
      </trkpt>
      <trkpt lat="45.67555951885879" lon="17.687460808083415">
        <ele>233.62</ele>
        <time>2023-10-16T20:26:03.613Z</time>
      </trkpt>
      <trkpt lat="45.67556496709585" lon="17.68745183944702">
        <ele>233.61</ele>
        <time>2023-10-16T20:26:07.818Z</time>
      </trkpt>
      <trkpt lat="45.67557008005679" lon="17.68744345754385">
        <ele>233.59</ele>
        <time>2023-10-16T20:26:12.023Z</time>
      </trkpt>
      <trkpt lat="45.675574941560626" lon="17.6874356623739">
        <ele>233.57</ele>
        <time>2023-10-16T20:26:16.228Z</time>
      </trkpt>
      <trkpt lat="45.67557946778834" lon="17.687428621575236">
        <ele>233.55</ele>
        <time>2023-10-16T20:26:20.433Z</time>
      </trkpt>
      <trkpt lat="45.675583658739924" lon="17.687422335147858">
        <ele>233.53</ele>
        <time>2023-10-16T20:26:24.639Z</time>
      </trkpt>
      <trkpt lat="45.67558784969151" lon="17.68741655163467">
        <ele>233.51</ele>
        <time>2023-10-16T20:26:28.845Z</time>
      </trkpt>
      <trkpt lat="45.675592459738255" lon="17.687410851940513">
        <ele>233.49</ele>
        <time>2023-10-16T20:26:33.051Z</time>
      </trkpt>
      <trkpt lat="45.67559765651822" lon="17.687405068427324">
        <ele>233.47</ele>
        <time>2023-10-16T20:26:37.257Z</time>
      </trkpt>
      <trkpt lat="45.67560310475528" lon="17.687399368733168">
        <ele>233.44</ele>
        <time>2023-10-16T20:26:41.463Z</time>
      </trkpt>
      <trkpt lat="45.675609139725566" lon="17.687393501400948">
        <ele>233.41</ele>
        <time>2023-10-16T20:26:45.670Z</time>
      </trkpt>
      <trkpt lat="45.67561576142907" lon="17.6873872987926">
        <ele>233.38</ele>
        <time>2023-10-16T20:26:49.877Z</time>
      </trkpt>
      <trkpt lat="45.67562288604677" lon="17.687380760908127">
        <ele>233.35</ele>
        <time>2023-10-16T20:26:54.084Z</time>
      </trkpt>
      <trkpt lat="45.67563051357865" lon="17.687373887747526">
        <ele>233.32</ele>
        <time>2023-10-16T20:26:58.292Z</time>
      </trkpt>
      <trkpt lat="45.6756385602057" lon="17.6873666793108">
        <ele>233.28</ele>
        <time>2023-10-16T20:27:02.500Z</time>
      </trkpt>
      <trkpt lat="45.675646774470806" lon="17.687359219416976">
        <ele>233.24</ele>
        <time>2023-10-16T20:27:06.708Z</time>
      </trkpt>
      <trkpt lat="45.67565532401204" lon="17.687351340427995">
        <ele>233.2</ele>
        <time>2023-10-16T20:27:10.917Z</time>
      </trkpt>
      <trkpt lat="45.675663789734244" lon="17.687343461439013">
        <ele>233.15</ele>
        <time>2023-10-16T20:27:15.126Z</time>
      </trkpt>
      <trkpt lat="45.67567200399935" lon="17.687335666269064">
        <ele>233.11</ele>
        <time>2023-10-16T20:27:19.335Z</time>
      </trkpt>
      <trkpt lat="45.6756797991693" lon="17.68732820637524">
        <ele>233.06</ele>
        <time>2023-10-16T20:27:23.545Z</time>
      </trkpt>
      <trkpt lat="45.67568751052022" lon="17.68732074648142">
        <ele>233.01</ele>
        <time>2023-10-16T20:27:27.755Z</time>
      </trkpt>
      <trkpt lat="45.67569480277598" lon="17.687313286587596">
        <ele>232.95</ele>
        <time>2023-10-16T20:27:31.965Z</time>
      </trkpt>
      <trkpt lat="45.675701508298516" lon="17.687305826693773">
        <ele>232.9</ele>
        <time>2023-10-16T20:27:36.175Z</time>
      </trkpt>
      <trkpt lat="45.67570771090686" lon="17.687298031523824">
        <ele>232.83</ele>
        <time>2023-10-16T20:27:40.386Z</time>
      </trkpt>
      <trkpt lat="45.675713242962956" lon="17.687289817258716">
        <ele>232.77</ele>
        <time>2023-10-16T20:27:44.597Z</time>
      </trkpt>
      <trkpt lat="45.67571818828583" lon="17.68728118389845">
        <ele>232.7</ele>
        <time>2023-10-16T20:27:48.808Z</time>
      </trkpt>
      <trkpt lat="45.67572237923741" lon="17.687272131443024">
        <ele>232.63</ele>
        <time>2023-10-16T20:27:53.019Z</time>
      </trkpt>
      <trkpt lat="45.675725899636745" lon="17.68726274371147">
        <ele>232.55</ele>
        <time>2023-10-16T20:27:57.231Z</time>
      </trkpt>
      <trkpt lat="45.675728749483824" lon="17.68725293688476">
        <ele>232.46</ele>
        <time>2023-10-16T20:28:01.443Z</time>
      </trkpt>
      <trkpt lat="45.675730761140585" lon="17.68724304623902">
        <ele>232.38</ele>
        <time>2023-10-16T20:28:05.655Z</time>
      </trkpt>
      <trkpt lat="45.67573201842606" lon="17.687233071774244">
        <ele>232.29</ele>
        <time>2023-10-16T20:28:09.867Z</time>
      </trkpt>
      <trkpt lat="45.67573252134025" lon="17.68722309730947">
        <ele>232.19</ele>
        <time>2023-10-16T20:28:14.080Z</time>
      </trkpt>
      <trkpt lat="45.67573210224509" lon="17.68721337430179">
        <ele>232.09</ele>
        <time>2023-10-16T20:28:18.293Z</time>
      </trkpt>
      <trkpt lat="45.67573092877865" lon="17.68720398657024">
        <ele>231.98</ele>
        <time>2023-10-16T20:28:22.506Z</time>
      </trkpt>
      <trkpt lat="45.67572908475995" lon="17.687195017933846">
        <ele>231.87</ele>
        <time>2023-10-16T20:28:26.719Z</time>
      </trkpt>
      <trkpt lat="45.67572648636997" lon="17.68718646839261">
        <ele>231.76</ele>
        <time>2023-10-16T20:28:30.933Z</time>
      </trkpt>
      <trkpt lat="45.6757231336087" lon="17.687178337946534">
        <ele>231.64</ele>
        <time>2023-10-16T20:28:35.147Z</time>
      </trkpt>
      <trkpt lat="45.67571911029518" lon="17.68717079423368">
        <ele>231.52</ele>
        <time>2023-10-16T20:28:39.361Z</time>
      </trkpt>
      <trkpt lat="45.67571450024843" lon="17.68716392107308">
        <ele>231.39</ele>
        <time>2023-10-16T20:28:43.575Z</time>
      </trkpt>
      <trkpt lat="45.675709303468466" lon="17.687157802283764">
        <ele>231.26</ele>
        <time>2023-10-16T20:28:47.789Z</time>
      </trkpt>
      <trkpt lat="45.67570351995528" lon="17.687152437865734">
        <ele>231.12</ele>
        <time>2023-10-16T20:28:52.004Z</time>
      </trkpt>
      <trkpt lat="45.67569740116596" lon="17.687147995457053">
        <ele>230.98</ele>
        <time>2023-10-16T20:28:56.219Z</time>
      </trkpt>
      <trkpt lat="45.67569077946246" lon="17.687144307419658">
        <ele>230.83</ele>
        <time>2023-10-16T20:29:00.434Z</time>
      </trkpt>
      <trkpt lat="45.67568399012089" lon="17.687141289934516">
        <ele>230.68</ele>
        <time>2023-10-16T20:29:04.649Z</time>
      </trkpt>
      <trkpt lat="45.67567686550319" lon="17.687138943001628">
        <ele>230.52</ele>
        <time>2023-10-16T20:29:08.865Z</time>
      </trkpt>
      <trkpt lat="45.675669657066464" lon="17.6871370151639">
        <ele>230.36</ele>
        <time>2023-10-16T20:29:13.081Z</time>
      </trkpt>
      <trkpt lat="45.675662364810705" lon="17.68713567405939">
        <ele>230.19</ele>
        <time>2023-10-16T20:29:17.297Z</time>
      </trkpt>
      <trkpt lat="45.675655072554946" lon="17.687134416773915">
        <ele>230.02</ele>
        <time>2023-10-16T20:29:21.513Z</time>
      </trkpt>
      <trkpt lat="45.67564786411822" lon="17.68713315948844">
        <ele>229.84</ele>
        <time>2023-10-16T20:29:25.730Z</time>
      </trkpt>
      <trkpt lat="45.675640823319554" lon="17.687131399288774">
        <ele>229.66</ele>
        <time>2023-10-16T20:29:29.947Z</time>
      </trkpt>
      <trkpt lat="45.675634033977985" lon="17.687128884717822">
        <ele>229.47</ele>
        <time>2023-10-16T20:29:34.164Z</time>
      </trkpt>
      <trkpt lat="45.67562757991254" lon="17.68712536431849">
        <ele>229.28</ele>
        <time>2023-10-16T20:29:38.381Z</time>
      </trkpt>
      <trkpt lat="45.67562162876129" lon="17.687120251357555">
        <ele>229.08</ele>
        <time>2023-10-16T20:29:42.599Z</time>
      </trkpt>
      <trkpt lat="45.67561618052423" lon="17.687113797292113">
        <ele>228.87</ele>
        <time>2023-10-16T20:29:46.817Z</time>
      </trkpt>
      <trkpt lat="45.675611486658454" lon="17.687106002122164">
        <ele>228.66</ele>
        <time>2023-10-16T20:29:51.035Z</time>
      </trkpt>
      <trkpt lat="45.6756073795259" lon="17.687096865847707">
        <ele>228.45</ele>
        <time>2023-10-16T20:29:55.253Z</time>
      </trkpt>
      <trkpt lat="45.67560402676463" lon="17.687086472287774">
        <ele>228.23</ele>
        <time>2023-10-16T20:29:59.472Z</time>
      </trkpt>
      <trkpt lat="45.675601260736585" lon="17.687074905261397">
        <ele>228.0</ele>
        <time>2023-10-16T20:30:03.691Z</time>
      </trkpt>
      <trkpt lat="45.67559908144176" lon="17.687062500044703">
        <ele>227.77</ele>
        <time>2023-10-16T20:30:07.910Z</time>
      </trkpt>
      <trkpt lat="45.675597405061126" lon="17.68704959191382">
        <ele>227.53</ele>
        <time>2023-10-16T20:30:12.129Z</time>
      </trkpt>
      <trkpt lat="45.675596399232745" lon="17.68703651614487">
        <ele>227.29</ele>
        <time>2023-10-16T20:30:16.349Z</time>
      </trkpt>
      <trkpt lat="45.675595896318555" lon="17.687023524194956">
        <ele>227.05</ele>
        <time>2023-10-16T20:30:20.569Z</time>
      </trkpt>
      <trkpt lat="45.675595896318555" lon="17.687010783702135">
        <ele>226.8</ele>
        <time>2023-10-16T20:30:24.789Z</time>
      </trkpt>
      <trkpt lat="45.67559598013759" lon="17.6869987975806">
        <ele>226.55</ele>
        <time>2023-10-16T20:30:29.010Z</time>
      </trkpt>
      <trkpt lat="45.67559614777565" lon="17.686986979097128">
        <ele>226.29</ele>
        <time>2023-10-16T20:30:33.231Z</time>
      </trkpt>
      <trkpt lat="45.67559581249952" lon="17.686975160613656">
        <ele>226.02</ele>
        <time>2023-10-16T20:30:37.452Z</time>
      </trkpt>
      <trkpt lat="45.6755952257663" lon="17.686963258311152">
        <ele>225.76</ele>
        <time>2023-10-16T20:30:41.673Z</time>
      </trkpt>
      <trkpt lat="45.67559430375695" lon="17.68695143982768">
        <ele>225.49</ele>
        <time>2023-10-16T20:30:45.895Z</time>
      </trkpt>
      <trkpt lat="45.67559321410954" lon="17.68693970516324">
        <ele>225.21</ele>
        <time>2023-10-16T20:30:50.117Z</time>
      </trkpt>
      <trkpt lat="45.67559187300503" lon="17.686927719041705">
        <ele>224.93</ele>
        <time>2023-10-16T20:30:54.339Z</time>
      </trkpt>
      <trkpt lat="45.67559036426246" lon="17.68691523000598">
        <ele>224.65</ele>
        <time>2023-10-16T20:30:58.562Z</time>
      </trkpt>
      <trkpt lat="45.67558843642473" lon="17.686901902779937">
        <ele>224.37</ele>
        <time>2023-10-16T20:31:02.785Z</time>
      </trkpt>
      <trkpt lat="45.675586089491844" lon="17.686887653544545">
        <ele>224.08</ele>
        <time>2023-10-16T20:31:07.008Z</time>
      </trkpt>
      <trkpt lat="45.67558340728283" lon="17.686872398480773">
        <ele>223.79</ele>
        <time>2023-10-16T20:31:11.232Z</time>
      </trkpt>
      <trkpt lat="45.675580725073814" lon="17.68685605376959">
        <ele>223.49</ele>
        <time>2023-10-16T20:31:15.456Z</time>
      </trkpt>
      <trkpt lat="45.675578294321895" lon="17.68683903850615">
        <ele>223.19</ele>
        <time>2023-10-16T20:31:19.680Z</time>
      </trkpt>
      <trkpt lat="45.6755764503032" lon="17.68682143650949">
        <ele>222.9</ele>
        <time>2023-10-16T20:31:23.905Z</time>
      </trkpt>
      <trkpt lat="45.675575360655785" lon="17.686803499236703">
        <ele>222.59</ele>
        <time>2023-10-16T20:31:28.130Z</time>
      </trkpt>
      <trkpt lat="45.67557510919869" lon="17.686785059049726">
        <ele>222.29</ele>
        <time>2023-10-16T20:31:32.356Z</time>
      </trkpt>
      <trkpt lat="45.675575863569975" lon="17.686766115948558">
        <ele>221.99</ele>
        <time>2023-10-16T20:31:36.582Z</time>
      </trkpt>
      <trkpt lat="45.675577791407704" lon="17.686747005209327">
        <ele>221.68</ele>
        <time>2023-10-16T20:31:40.809Z</time>
      </trkpt>
      <trkpt lat="45.67558106034994" lon="17.686727810651064">
        <ele>221.38</ele>
        <time>2023-10-16T20:31:45.036Z</time>
      </trkpt>
      <trkpt lat="45.675585670396686" lon="17.686708783730865">
        <ele>221.07</ele>
        <time>2023-10-16T20:31:49.263Z</time>
      </trkpt>
      <trkpt lat="45.67559170536697" lon="17.68668992444873">
        <ele>220.76</ele>
        <time>2023-10-16T20:31:53.491Z</time>
      </trkpt>
      <trkpt lat="45.6755989138037" lon="17.68667148426175">
        <ele>220.45</ele>
        <time>2023-10-16T20:31:57.719Z</time>
      </trkpt>
      <trkpt lat="45.67560721188784" lon="17.68665329553187">
        <ele>220.15</ele>
        <time>2023-10-16T20:32:01.948Z</time>
      </trkpt>
      <trkpt lat="45.67561651580036" lon="17.686635442078114">
        <ele>219.84</ele>
        <time>2023-10-16T20:32:06.177Z</time>
      </trkpt>
      <trkpt lat="45.67562649026513" lon="17.68661775626242">
        <ele>219.53</ele>
        <time>2023-10-16T20:32:10.407Z</time>
      </trkpt>
      <trkpt lat="45.675636883825064" lon="17.686600405722857">
        <ele>219.23</ele>
        <time>2023-10-16T20:32:14.638Z</time>
      </trkpt>
      <trkpt lat="45.67564761266112" lon="17.686583306640387">
        <ele>218.92</ele>
        <time>2023-10-16T20:32:18.869Z</time>
      </trkpt>
      <trkpt lat="45.67565867677331" lon="17.686566207557917">
        <ele>218.62</ele>
        <time>2023-10-16T20:32:23.101Z</time>
      </trkpt>
      <trkpt lat="45.67566999234259" lon="17.686549024656415">
        <ele>218.32</ele>
        <time>2023-10-16T20:32:27.333Z</time>
      </trkpt>
      <trkpt lat="45.675681391730905" lon="17.68653209321201">
        <ele>218.02</ele>
        <time>2023-10-16T20:32:31.566Z</time>
      </trkpt>
      <trkpt lat="45.675693126395345" lon="17.686515245586634">
        <ele>217.72</ele>
        <time>2023-10-16T20:32:35.799Z</time>
      </trkpt>
      <trkpt lat="45.67570528015494" lon="17.686498649418354">
        <ele>217.42</ele>
        <time>2023-10-16T20:32:40.033Z</time>
      </trkpt>
      <trkpt lat="45.67571768537164" lon="17.686482472345233">
        <ele>217.13</ele>
        <time>2023-10-16T20:32:44.267Z</time>
      </trkpt>
      <trkpt lat="45.67573050968349" lon="17.686466882005334">
        <ele>216.84</ele>
        <time>2023-10-16T20:32:48.502Z</time>
      </trkpt>
      <trkpt lat="45.67574366927147" lon="17.68645204603672">
        <ele>216.56</ele>
        <time>2023-10-16T20:32:52.738Z</time>
      </trkpt>
      <trkpt lat="45.6757574994117" lon="17.68643779680133">
        <ele>216.28</ele>
        <time>2023-10-16T20:32:56.974Z</time>
      </trkpt>
      <trkpt lat="45.675771832466125" lon="17.68642421811819">
        <ele>216.0</ele>
        <time>2023-10-16T20:33:01.211Z</time>
      </trkpt>
      <trkpt lat="45.67578675225377" lon="17.686411226168275">
        <ele>215.72</ele>
        <time>2023-10-16T20:33:05.448Z</time>
      </trkpt>
      <trkpt lat="45.675802091136575" lon="17.686399156227708">
        <ele>215.46</ele>
        <time>2023-10-16T20:33:09.686Z</time>
      </trkpt>
      <trkpt lat="45.675817681476474" lon="17.686387924477458">
        <ele>215.19</ele>
        <time>2023-10-16T20:33:13.924Z</time>
      </trkpt>
      <trkpt lat="45.67583369091153" lon="17.686376944184303">
        <ele>214.93</ele>
        <time>2023-10-16T20:33:18.163Z</time>
      </trkpt>
      <trkpt lat="45.67584986798465" lon="17.686366382986307">
        <ele>214.67</ele>
        <time>2023-10-16T20:33:22.403Z</time>
      </trkpt>
      <trkpt lat="45.6758663803339" lon="17.686355486512184">
        <ele>214.41</ele>
        <time>2023-10-16T20:33:26.643Z</time>
      </trkpt>
      <trkpt lat="45.67588314414024" lon="17.68634408712387">
        <ele>214.16</ele>
        <time>2023-10-16T20:33:30.884Z</time>
      </trkpt>
      <trkpt lat="45.675900327041745" lon="17.686332184821367">
        <ele>213.92</ele>
        <time>2023-10-16T20:33:35.125Z</time>
      </trkpt>
      <trkpt lat="45.67591776140034" lon="17.68631961196661">
        <ele>213.67</ele>
        <time>2023-10-16T20:33:39.367Z</time>
      </trkpt>
      <trkpt lat="45.67593527957797" lon="17.686306703835726">
        <ele>213.44</ele>
        <time>2023-10-16T20:33:43.610Z</time>
      </trkpt>
      <trkpt lat="45.67595288157463" lon="17.686293544247746">
        <ele>213.2</ele>
        <time>2023-10-16T20:33:47.853Z</time>
      </trkpt>
      <trkpt lat="45.67597048357129" lon="17.686280133202672">
        <ele>212.98</ele>
        <time>2023-10-16T20:33:52.097Z</time>
      </trkpt>
      <trkpt lat="45.67598800174892" lon="17.686266470700502">
        <ele>212.76</ele>
        <time>2023-10-16T20:33:56.342Z</time>
      </trkpt>
      <trkpt lat="45.676005352288485" lon="17.686252808198333">
        <ele>212.55</ele>
        <time>2023-10-16T20:34:00.587Z</time>
      </trkpt>
      <trkpt lat="45.67602236755192" lon="17.686239229515195">
        <ele>212.35</ele>
        <time>2023-10-16T20:34:04.833Z</time>
      </trkpt>
      <trkpt lat="45.676039047539234" lon="17.68622581847012">
        <ele>212.15</ele>
        <time>2023-10-16T20:34:09.080Z</time>
      </trkpt>
      <trkpt lat="45.67605539225042" lon="17.68621257506311">
        <ele>211.96</ele>
        <time>2023-10-16T20:34:13.327Z</time>
      </trkpt>
      <trkpt lat="45.67607165314257" lon="17.686199247837067">
        <ele>211.78</ele>
        <time>2023-10-16T20:34:17.575Z</time>
      </trkpt>
      <trkpt lat="45.6760875787586" lon="17.68618566915393">
        <ele>211.6</ele>
        <time>2023-10-16T20:34:21.824Z</time>
      </trkpt>
      <trkpt lat="45.676103169098496" lon="17.6861715875566">
        <ele>211.43</ele>
        <time>2023-10-16T20:34:26.073Z</time>
      </trkpt>
      <trkpt lat="45.676118759438396" lon="17.686156751587987">
        <ele>211.26</ele>
        <time>2023-10-16T20:34:30.323Z</time>
      </trkpt>
      <trkpt lat="45.67613426595926" lon="17.686140909790993">
        <ele>211.11</ele>
        <time>2023-10-16T20:34:34.573Z</time>
      </trkpt>
      <trkpt lat="45.676149521023035" lon="17.68612422980368">
        <ele>210.95</ele>
        <time>2023-10-16T20:34:38.824Z</time>
      </trkpt>
      <trkpt lat="45.676164692267776" lon="17.686106292530894">
        <ele>210.8</ele>
        <time>2023-10-16T20:34:43.076Z</time>
      </trkpt>
      <trkpt lat="45.67617994733155" lon="17.686087181791663">
        <ele>210.66</ele>
        <time>2023-10-16T20:34:47.328Z</time>
      </trkpt>
      <trkpt lat="45.67619520239532" lon="17.686067316681147">
        <ele>210.52</ele>
        <time>2023-10-16T20:34:51.581Z</time>
      </trkpt>
      <trkpt lat="45.67621045745909" lon="17.68604652956128">
        <ele>210.39</ele>
        <time>2023-10-16T20:34:55.835Z</time>
      </trkpt>
      <trkpt lat="45.67622562870383" lon="17.68602540716529">
        <ele>210.27</ele>
        <time>2023-10-16T20:35:00.090Z</time>
      </trkpt>
      <trkpt lat="45.676240464672446" lon="17.686004284769297">
        <ele>210.15</ele>
        <time>2023-10-16T20:35:04.345Z</time>
      </trkpt>
      <trkpt lat="45.67625496536493" lon="17.685983246192336">
        <ele>210.04</ele>
        <time>2023-10-16T20:35:08.601Z</time>
      </trkpt>
      <trkpt lat="45.676269214600325" lon="17.68596245907247">
        <ele>209.95</ele>
        <time>2023-10-16T20:35:12.858Z</time>
      </trkpt>
      <trkpt lat="45.676282877102494" lon="17.685942091047764">
        <ele>209.86</ele>
        <time>2023-10-16T20:35:17.115Z</time>
      </trkpt>
      <trkpt lat="45.67629620432854" lon="17.685922142118216">
        <ele>209.78</ele>
        <time>2023-10-16T20:35:21.373Z</time>
      </trkpt>
      <trkpt lat="45.676309363916516" lon="17.685902612283826">
        <ele>209.71</ele>
        <time>2023-10-16T20:35:25.632Z</time>
      </trkpt>
      <trkpt lat="45.67632235586643" lon="17.685883501544595">
        <ele>209.64</ele>
        <time>2023-10-16T20:35:29.891Z</time>
      </trkpt>
      <trkpt lat="45.67633534781635" lon="17.68586472608149">
        <ele>209.58</ele>
        <time>2023-10-16T20:35:34.151Z</time>
      </trkpt>
      <trkpt lat="45.676348339766264" lon="17.68584611825645">
        <ele>209.53</ele>
        <time>2023-10-16T20:35:38.411Z</time>
      </trkpt>
      <trkpt lat="45.67636141553521" lon="17.685827342793345">
        <ele>209.48</ele>
        <time>2023-10-16T20:35:42.672Z</time>
      </trkpt>
      <trkpt lat="45.67637457512319" lon="17.68580856733024">
        <ele>209.44</ele>
        <time>2023-10-16T20:35:46.934Z</time>
      </trkpt>
      <trkpt lat="45.6763878185302" lon="17.685789540410042">
        <ele>209.41</ele>
        <time>2023-10-16T20:35:51.196Z</time>
      </trkpt>
      <trkpt lat="45.67640131339431" lon="17.68577042967081">
        <ele>209.38</ele>
        <time>2023-10-16T20:35:55.459Z</time>
      </trkpt>
      <trkpt lat="45.67641497589648" lon="17.685751235112548">
        <ele>209.36</ele>
        <time>2023-10-16T20:35:59.723Z</time>
      </trkpt>
      <trkpt lat="45.67642880603671" lon="17.685732040554285">
        <ele>209.34</ele>
        <time>2023-10-16T20:36:03.987Z</time>
      </trkpt>
      <trkpt lat="45.67644280381501" lon="17.685712845996022">
        <ele>209.33</ele>
        <time>2023-10-16T20:36:08.252Z</time>
      </trkpt>
      <trkpt lat="45.676456801593304" lon="17.685693399980664">
        <ele>209.33</ele>
        <time>2023-10-16T20:36:12.517Z</time>
      </trkpt>
      <trkpt lat="45.67647046409547" lon="17.685673870146275">
        <ele>209.33</ele>
        <time>2023-10-16T20:36:16.783Z</time>
      </trkpt>
      <trkpt lat="45.67648387514055" lon="17.685654005035758">
        <ele>209.33</ele>
        <time>2023-10-16T20:36:21.050Z</time>
      </trkpt>
      <trkpt lat="45.67649711854756" lon="17.685633804649115">
        <ele>209.34</ele>
        <time>2023-10-16T20:36:25.317Z</time>
      </trkpt>
      <trkpt lat="45.67651027813554" lon="17.685613688081503">
        <ele>209.36</ele>
        <time>2023-10-16T20:36:29.585Z</time>
      </trkpt>
      <trkpt lat="45.676523270085454" lon="17.685593655332923">
        <ele>209.38</ele>
        <time>2023-10-16T20:36:33.854Z</time>
      </trkpt>
      <trkpt lat="45.67653617821634" lon="17.68557395786047">
        <ele>209.41</ele>
        <time>2023-10-16T20:36:38.123Z</time>
      </trkpt>
      <trkpt lat="45.67654891870916" lon="17.685554595664144">
        <ele>209.43</ele>
        <time>2023-10-16T20:36:42.393Z</time>
      </trkpt>
      <trkpt lat="45.676561491563916" lon="17.685535484924912">
        <ele>209.46</ele>
        <time>2023-10-16T20:36:46.664Z</time>
      </trkpt>
      <trkpt lat="45.67657347768545" lon="17.685516625642776">
        <ele>209.5</ele>
        <time>2023-10-16T20:36:50.935Z</time>
      </trkpt>
      <trkpt lat="45.676584877073765" lon="17.685497850179672">
        <ele>209.53</ele>
        <time>2023-10-16T20:36:55.207Z</time>
      </trkpt>
      <trkpt lat="45.676595689728856" lon="17.685479326173663">
        <ele>209.57</ele>
        <time>2023-10-16T20:36:59.479Z</time>
      </trkpt>
      <trkpt lat="45.67660599946976" lon="17.685460802167654">
        <ele>209.62</ele>
        <time>2023-10-16T20:37:03.752Z</time>
      </trkpt>
      <trkpt lat="45.67661555483937" lon="17.68544252961874">
        <ele>209.66</ele>
        <time>2023-10-16T20:37:08.025Z</time>
      </trkpt>
      <trkpt lat="45.676624523475766" lon="17.68542442470789">
        <ele>209.71</ele>
        <time>2023-10-16T20:37:12.299Z</time>
      </trkpt>
      <trkpt lat="45.67663240246475" lon="17.685406487435102">
        <ele>209.76</ele>
        <time>2023-10-16T20:37:16.573Z</time>
      </trkpt>
      <trkpt lat="45.67663927562535" lon="17.685388466343284">
        <ele>209.81</ele>
        <time>2023-10-16T20:37:20.848Z</time>
      </trkpt>
      <trkpt lat="45.67664505913854" lon="17.68537061288953">
        <ele>209.86</ele>
        <time>2023-10-16T20:37:25.123Z</time>
      </trkpt>
      <trkpt lat="45.676649920642376" lon="17.685352507978678">
        <ele>209.91</ele>
        <time>2023-10-16T20:37:29.399Z</time>
      </trkpt>
      <trkpt lat="45.67665411159396" lon="17.6853340677917">
        <ele>209.96</ele>
        <time>2023-10-16T20:37:33.675Z</time>
      </trkpt>
      <trkpt lat="45.676658134907484" lon="17.68531554378569">
        <ele>210.02</ele>
        <time>2023-10-16T20:37:37.952Z</time>
      </trkpt>
      <trkpt lat="45.67666232585907" lon="17.685296684503555">
        <ele>210.07</ele>
        <time>2023-10-16T20:37:42.229Z</time>
      </trkpt>
      <trkpt lat="45.67666660062969" lon="17.685277573764324">
        <ele>210.13</ele>
        <time>2023-10-16T20:37:46.507Z</time>
      </trkpt>
      <trkpt lat="45.67667079158127" lon="17.68525829538703">
        <ele>210.18</ele>
        <time>2023-10-16T20:37:50.785Z</time>
      </trkpt>
      <trkpt lat="45.67667506635189" lon="17.685238430276513">
        <ele>210.24</ele>
        <time>2023-10-16T20:37:55.064Z</time>
      </trkpt>
      <trkpt lat="45.676679173484445" lon="17.68521822988987">
        <ele>210.29</ele>
        <time>2023-10-16T20:37:59.343Z</time>
      </trkpt>
      <trkpt lat="45.67668336443603" lon="17.68519727513194">
        <ele>210.35</ele>
        <time>2023-10-16T20:38:03.623Z</time>
      </trkpt>
      <trkpt lat="45.676687555387616" lon="17.68517564982176">
        <ele>210.4</ele>
        <time>2023-10-16T20:38:07.903Z</time>
      </trkpt>
      <trkpt lat="45.67669208161533" lon="17.68515285104513">
        <ele>210.46</ele>
        <time>2023-10-16T20:38:12.184Z</time>
      </trkpt>
      <trkpt lat="45.67669660784304" lon="17.685129214078188">
        <ele>210.51</ele>
        <time>2023-10-16T20:38:16.465Z</time>
      </trkpt>
      <trkpt lat="45.67670096643269" lon="17.685104990378022">
        <ele>210.56</ele>
        <time>2023-10-16T20:38:20.747Z</time>
      </trkpt>
      <trkpt lat="45.67670490592718" lon="17.685079677030444">
        <ele>210.61</ele>
        <time>2023-10-16T20:38:25.029Z</time>
      </trkpt>
      <trkpt lat="45.67670825868845" lon="17.68505360931158">
        <ele>210.66</ele>
        <time>2023-10-16T20:38:29.312Z</time>
      </trkpt>
      <trkpt lat="45.676710940897465" lon="17.68502661958337">
        <ele>210.7</ele>
        <time>2023-10-16T20:38:33.596Z</time>
      </trkpt>
      <trkpt lat="45.67671303637326" lon="17.68499887548387">
        <ele>210.75</ele>
        <time>2023-10-16T20:38:37.880Z</time>
      </trkpt>
      <trkpt lat="45.67671462893486" lon="17.68497054465115">
        <ele>210.79</ele>
        <time>2023-10-16T20:38:42.165Z</time>
      </trkpt>
      <trkpt lat="45.676715886220336" lon="17.684941794723272">
        <ele>210.83</ele>
        <time>2023-10-16T20:38:46.451Z</time>
      </trkpt>
      <trkpt lat="45.676716808229685" lon="17.684913212433457">
        <ele>210.87</ele>
        <time>2023-10-16T20:38:50.737Z</time>
      </trkpt>
      <trkpt lat="45.676717311143875" lon="17.684884294867516">
        <ele>210.91</ele>
        <time>2023-10-16T20:38:55.024Z</time>
      </trkpt>
      <trkpt lat="45.67671739496291" lon="17.684855544939637">
        <ele>210.94</ele>
        <time>2023-10-16T20:38:59.312Z</time>
      </trkpt>
      <trkpt lat="45.67671705968678" lon="17.684826543554664">
        <ele>210.97</ele>
        <time>2023-10-16T20:39:03.600Z</time>
      </trkpt>
      <trkpt lat="45.676716305315495" lon="17.684797290712595">
        <ele>211.0</ele>
        <time>2023-10-16T20:39:07.889Z</time>
      </trkpt>
      <trkpt lat="45.676715383306146" lon="17.684768456965685">
        <ele>211.03</ele>
        <time>2023-10-16T20:39:12.179Z</time>
      </trkpt>
      <trkpt lat="45.6767142098397" lon="17.684739539399743">
        <ele>211.06</ele>
        <time>2023-10-16T20:39:16.469Z</time>
      </trkpt>
      <trkpt lat="45.67671278491616" lon="17.684711208567023">
        <ele>211.08</ele>
        <time>2023-10-16T20:39:20.760Z</time>
      </trkpt>
      <trkpt lat="45.67671110853553" lon="17.684682961553335">
        <ele>211.1</ele>
        <time>2023-10-16T20:39:25.052Z</time>
      </trkpt>
      <trkpt lat="45.676709013059735" lon="17.68465530127287">
        <ele>211.12</ele>
        <time>2023-10-16T20:39:29.344Z</time>
      </trkpt>
      <trkpt lat="45.67670633085072" lon="17.684627724811435">
        <ele>211.14</ele>
        <time>2023-10-16T20:39:33.637Z</time>
      </trkpt>
      <trkpt lat="45.67670289427042" lon="17.684600232169032">
        <ele>211.15</ele>
        <time>2023-10-16T20:39:37.931Z</time>
      </trkpt>
      <trkpt lat="45.67669903859496" lon="17.684573074802756">
        <ele>211.16</ele>
        <time>2023-10-16T20:39:42.225Z</time>
      </trkpt>
      <trkpt lat="45.67669459618628" lon="17.684546168893576">
        <ele>211.17</ele>
        <time>2023-10-16T20:39:46.520Z</time>
      </trkpt>
      <trkpt lat="45.67668965086341" lon="17.68452001735568">
        <ele>211.18</ele>
        <time>2023-10-16T20:39:50.816Z</time>
      </trkpt>
      <trkpt lat="45.67668428644538" lon="17.684494284912944">
        <ele>211.18</ele>
        <time>2023-10-16T20:39:55.112Z</time>
      </trkpt>
      <trkpt lat="45.67667850293219" lon="17.684468971565366">
        <ele>211.18</ele>
        <time>2023-10-16T20:39:59.409Z</time>
      </trkpt>
      <trkpt lat="45.67667255178094" lon="17.684444412589073">
        <ele>211.18</ele>
        <time>2023-10-16T20:40:03.706Z</time>
      </trkpt>
      <trkpt lat="45.676666516810656" lon="17.68442077562213">
        <ele>211.18</ele>
        <time>2023-10-16T20:40:08.004Z</time>
      </trkpt>
      <trkpt lat="45.6766608171165" lon="17.684398060664535">
        <ele>211.18</ele>
        <time>2023-10-16T20:40:12.303Z</time>
      </trkpt>
      <trkpt lat="45.6766555365175" lon="17.684376183897257">
        <ele>211.18</ele>
        <time>2023-10-16T20:40:16.602Z</time>
      </trkpt>
      <trkpt lat="45.67665101028979" lon="17.684355480596423">
        <ele>211.17</ele>
        <time>2023-10-16T20:40:20.902Z</time>
      </trkpt>
      <trkpt lat="45.67664723843336" lon="17.684335615485907">
        <ele>211.16</ele>
        <time>2023-10-16T20:40:25.202Z</time>
      </trkpt>
      <trkpt lat="45.67664422094822" lon="17.684316588565707">
        <ele>211.16</ele>
        <time>2023-10-16T20:40:29.503Z</time>
      </trkpt>
      <trkpt lat="45.676642041653395" lon="17.684297980740666">
        <ele>211.15</ele>
        <time>2023-10-16T20:40:33.804Z</time>
      </trkpt>
      <trkpt lat="45.676640532910824" lon="17.68427954055369">
        <ele>211.14</ele>
        <time>2023-10-16T20:40:38.105Z</time>
      </trkpt>
      <trkpt lat="45.67663977853954" lon="17.684261268004775">
        <ele>211.14</ele>
        <time>2023-10-16T20:40:42.407Z</time>
      </trkpt>
      <trkpt lat="45.676639610901475" lon="17.68424291163683">
        <ele>211.13</ele>
        <time>2023-10-16T20:40:46.709Z</time>
      </trkpt>
      <trkpt lat="45.676640113815665" lon="17.684224471449852">
        <ele>211.12</ele>
        <time>2023-10-16T20:40:51.012Z</time>
      </trkpt>
      <trkpt lat="45.676641035825014" lon="17.684205528348684">
        <ele>211.11</ele>
        <time>2023-10-16T20:40:55.315Z</time>
      </trkpt>
      <trkpt lat="45.67664246074855" lon="17.684186417609453">
        <ele>211.1</ele>
        <time>2023-10-16T20:40:59.619Z</time>
      </trkpt>
      <trkpt lat="45.67664413712919" lon="17.684167055413127">
        <ele>211.09</ele>
        <time>2023-10-16T20:41:03.923Z</time>
      </trkpt>
      <trkpt lat="45.67664623260498" lon="17.684147357940674">
        <ele>211.09</ele>
        <time>2023-10-16T20:41:08.228Z</time>
      </trkpt>
      <trkpt lat="45.6766486633569" lon="17.684127409011126">
        <ele>211.08</ele>
        <time>2023-10-16T20:41:12.533Z</time>
      </trkpt>
      <trkpt lat="45.67665159702301" lon="17.684107208624482">
        <ele>211.07</ele>
        <time>2023-10-16T20:41:16.839Z</time>
      </trkpt>
      <trkpt lat="45.676655201241374" lon="17.684087175875902">
        <ele>211.06</ele>
        <time>2023-10-16T20:41:21.145Z</time>
      </trkpt>
      <trkpt lat="45.67665947601199" lon="17.68406747840345">
        <ele>211.06</ele>
        <time>2023-10-16T20:41:25.452Z</time>
      </trkpt>
      <trkpt lat="45.67666416987777" lon="17.684048367664218">
        <ele>211.05</ele>
        <time>2023-10-16T20:41:29.759Z</time>
      </trkpt>
      <trkpt lat="45.6766695342958" lon="17.684030178934336">
        <ele>211.05</ele>
        <time>2023-10-16T20:41:34.066Z</time>
      </trkpt>
      <trkpt lat="45.676675233989954" lon="17.684012576937675">
        <ele>211.04</ele>
        <time>2023-10-16T20:41:38.374Z</time>
      </trkpt>
      <trkpt lat="45.6766814365983" lon="17.6839957293123">
        <ele>211.04</ele>
        <time>2023-10-16T20:41:42.682Z</time>
      </trkpt>
      <trkpt lat="45.67668789066374" lon="17.68397955223918">
        <ele>211.04</ele>
        <time>2023-10-16T20:41:46.991Z</time>
      </trkpt>
      <trkpt lat="45.676694763824344" lon="17.683963626623154">
        <ele>211.04</ele>
        <time>2023-10-16T20:41:51.300Z</time>
      </trkpt>
      <trkpt lat="45.67670197226107" lon="17.683947952464223">
        <ele>211.04</ele>
        <time>2023-10-16T20:41:55.610Z</time>
      </trkpt>
      <trkpt lat="45.67670959979296" lon="17.68393261358142">
        <ele>211.04</ele>
        <time>2023-10-16T20:41:59.920Z</time>
      </trkpt>
      <trkpt lat="45.67671739496291" lon="17.683917609974742">
        <ele>211.04</ele>
        <time>2023-10-16T20:42:04.231Z</time>
      </trkpt>
      <trkpt lat="45.67672544158995" lon="17.68390277400613">
        <ele>211.05</ele>
        <time>2023-10-16T20:42:08.542Z</time>
      </trkpt>
      <trkpt lat="45.67673373967409" lon="17.68388827331364">
        <ele>211.05</ele>
        <time>2023-10-16T20:42:12.853Z</time>
      </trkpt>
      <trkpt lat="45.67674237303436" lon="17.68387352116406">
        <ele>211.06</ele>
        <time>2023-10-16T20:42:17.165Z</time>
      </trkpt>
      <trkpt lat="45.67675117403269" lon="17.683858601376414">
        <ele>211.07</ele>
        <time>2023-10-16T20:42:21.477Z</time>
      </trkpt>
      <trkpt lat="45.67676014266908" lon="17.68384326249361">
        <ele>211.08</ele>
        <time>2023-10-16T20:42:25.790Z</time>
      </trkpt>
      <trkpt lat="45.676769111305475" lon="17.68382716923952">
        <ele>211.09</ele>
        <time>2023-10-16T20:42:30.103Z</time>
      </trkpt>
      <trkpt lat="45.676777912303805" lon="17.683810321614146">
        <ele>211.11</ele>
        <time>2023-10-16T20:42:34.417Z</time>
      </trkpt>
      <trkpt lat="45.67678629420698" lon="17.683792635798454">
        <ele>211.12</ele>
        <time>2023-10-16T20:42:38.731Z</time>
      </trkpt>
      <trkpt lat="45.676794005557895" lon="17.683774027973413">
        <ele>211.14</ele>
        <time>2023-10-16T20:42:43.046Z</time>
      </trkpt>
      <trkpt lat="45.67680096253753" lon="17.683754414319992">
        <ele>211.16</ele>
        <time>2023-10-16T20:42:47.361Z</time>
      </trkpt>
      <trkpt lat="45.67680682986975" lon="17.683734046295285">
        <ele>211.18</ele>
        <time>2023-10-16T20:42:51.677Z</time>
      </trkpt>
      <trkpt lat="45.67681177519262" lon="17.683712923899293">
        <ele>211.19</ele>
        <time>2023-10-16T20:42:55.993Z</time>
      </trkpt>
      <trkpt lat="45.67681588232517" lon="17.683691130951047">
        <ele>211.21</ele>
        <time>2023-10-16T20:43:00.310Z</time>
      </trkpt>
      <trkpt lat="45.676819905638695" lon="17.68366925418377">
        <ele>211.24</ele>
        <time>2023-10-16T20:43:04.627Z</time>
      </trkpt>
      <trkpt lat="45.676824348047376" lon="17.68364980816841">
        <ele>211.26</ele>
        <time>2023-10-16T20:43:08.945Z</time>
      </trkpt>
      <trkpt lat="45.67682879045606" lon="17.68363363109529">
        <ele>211.29</ele>
        <time>2023-10-16T20:43:13.263Z</time>
      </trkpt>
      <trkpt lat="45.676833651959896" lon="17.683620806783438">
        <ele>211.32</ele>
        <time>2023-10-16T20:43:17.582Z</time>
      </trkpt>
      <trkpt lat="45.676838932558894" lon="17.683611754328012">
        <ele>211.36</ele>
        <time>2023-10-16T20:43:21.901Z</time>
      </trkpt>
      <trkpt lat="45.67684496752918" lon="17.683606641367078">
        <ele>211.39</ele>
        <time>2023-10-16T20:43:26.220Z</time>
      </trkpt>
      <trkpt lat="45.67685184068978" lon="17.683605384081602">
        <ele>211.43</ele>
        <time>2023-10-16T20:43:30.539Z</time>
      </trkpt>
      <trkpt lat="45.676859468221664" lon="17.683607395738363">
        <ele>211.47</ele>
        <time>2023-10-16T20:43:34.859Z</time>
      </trkpt>
      <trkpt lat="45.6768680177629" lon="17.683612341061234">
        <ele>211.52</ele>
        <time>2023-10-16T20:43:39.179Z</time>
      </trkpt>
      <trkpt lat="45.676877154037356" lon="17.683620052412152">
        <ele>211.57</ele>
        <time>2023-10-16T20:43:43.499Z</time>
      </trkpt>
      <trkpt lat="45.67688696086407" lon="17.683629523962736">
        <ele>211.62</ele>
        <time>2023-10-16T20:43:47.820Z</time>
      </trkpt>
      <trkpt lat="45.67689651623368" lon="17.683640252798796">
        <ele>211.67</ele>
        <time>2023-10-16T20:43:52.141Z</time>
      </trkpt>
      <trkpt lat="45.676905484870076" lon="17.683650059625506">
        <ele>211.72</ele>
        <time>2023-10-16T20:43:56.462Z</time>
      </trkpt>
      <trkpt lat="45.67691403441131" lon="17.68365802243352">
        <ele>211.78</ele>
        <time>2023-10-16T20:44:00.784Z</time>
      </trkpt>
      <trkpt lat="45.676922081038356" lon="17.68366439267993">
        <ele>211.84</ele>
        <time>2023-10-16T20:44:05.106Z</time>
      </trkpt>
      <trkpt lat="45.67692962475121" lon="17.68366883508861">
        <ele>211.9</ele>
        <time>2023-10-16T20:44:09.428Z</time>
      </trkpt>
      <trkpt lat="45.67693649791181" lon="17.683671601116657">
        <ele>211.96</ele>
        <time>2023-10-16T20:44:13.751Z</time>
      </trkpt>
      <trkpt lat="45.67694286815822" lon="17.683672858402133">
        <ele>212.03</ele>
        <time>2023-10-16T20:44:18.074Z</time>
      </trkpt>
      <trkpt lat="45.676948903128505" lon="17.68367319367826">
        <ele>212.1</ele>
        <time>2023-10-16T20:44:22.397Z</time>
      </trkpt>
      <trkpt lat="45.67695468664169" lon="17.6836727745831">
        <ele>212.17</ele>
        <time>2023-10-16T20:44:26.720Z</time>
      </trkpt>
      <trkpt lat="45.67696030251682" lon="17.683671936392784">
        <ele>212.24</ele>
        <time>2023-10-16T20:44:31.043Z</time>
      </trkpt>
      <trkpt lat="45.676965499296784" lon="17.6836711820215">
        <ele>212.31</ele>
        <time>2023-10-16T20:44:35.367Z</time>
      </trkpt>
      <trkpt lat="45.676970360800624" lon="17.683670595288277">
        <ele>212.39</ele>
        <time>2023-10-16T20:44:39.691Z</time>
      </trkpt>
      <trkpt lat="45.67697471939027" lon="17.68367026001215">
        <ele>212.47</ele>
        <time>2023-10-16T20:44:44.015Z</time>
      </trkpt>
      <trkpt lat="45.67697882652283" lon="17.683669924736023">
        <ele>212.55</ele>
        <time>2023-10-16T20:44:48.339Z</time>
      </trkpt>
      <trkpt lat="45.676982598379254" lon="17.68366975709796">
        <ele>212.63</ele>
        <time>2023-10-16T20:44:52.663Z</time>
      </trkpt>
      <trkpt lat="45.67698620259762" lon="17.683669589459896">
        <ele>212.72</ele>
        <time>2023-10-16T20:44:56.987Z</time>
      </trkpt>
      <trkpt lat="45.67698963917792" lon="17.683669505640864">
        <ele>212.81</ele>
        <time>2023-10-16T20:45:01.311Z</time>
      </trkpt>
      <trkpt lat="45.676992824301124" lon="17.683669421821833">
        <ele>212.9</ele>
        <time>2023-10-16T20:45:05.635Z</time>
      </trkpt>
      <trkpt lat="45.676995757967234" lon="17.68366925418377">
        <ele>213.0</ele>
        <time>2023-10-16T20:45:09.960Z</time>
      </trkpt>
      <trkpt lat="45.67699835635722" lon="17.683669086545706">
        <ele>213.09</ele>
        <time>2023-10-16T20:45:14.285Z</time>
      </trkpt>
      <trkpt lat="45.67700053565204" lon="17.68366883508861">
        <ele>213.19</ele>
        <time>2023-10-16T20:45:18.610Z</time>
      </trkpt>
      <trkpt lat="45.67700246348977" lon="17.683668499812484">
        <ele>213.29</ele>
        <time>2023-10-16T20:45:22.935Z</time>
      </trkpt>
      <trkpt lat="45.67700405605137" lon="17.683667996898293">
        <ele>213.4</ele>
        <time>2023-10-16T20:45:27.260Z</time>
      </trkpt>
      <trkpt lat="45.677005564793944" lon="17.683667242527008">
        <ele>213.51</ele>
        <time>2023-10-16T20:45:31.585Z</time>
      </trkpt>
      <trkpt lat="45.67700673826039" lon="17.68366581760347">
        <ele>213.62</ele>
        <time>2023-10-16T20:45:35.910Z</time>
      </trkpt>
      <trkpt lat="45.6770078279078" lon="17.683663303032517">
        <ele>213.73</ele>
        <time>2023-10-16T20:45:40.235Z</time>
      </trkpt>
      <trkpt lat="45.67700866609812" lon="17.683659363538027">
        <ele>213.84</ele>
        <time>2023-10-16T20:45:44.560Z</time>
      </trkpt>
      <trkpt lat="45.67700925283134" lon="17.683653831481934">
        <ele>213.96</ele>
        <time>2023-10-16T20:45:48.885Z</time>
      </trkpt>
      <trkpt lat="45.67701025865972" lon="17.683647042140365">
        <ele>214.08</ele>
        <time>2023-10-16T20:45:53.210Z</time>
      </trkpt>
      <trkpt lat="45.677011935040355" lon="17.683640085160732">
        <ele>214.2</ele>
        <time>2023-10-16T20:45:57.536Z</time>
      </trkpt>
      <trkpt lat="45.67701428197324" lon="17.683633798733354">
        <ele>214.32</ele>
        <time>2023-10-16T20:46:01.862Z</time>
      </trkpt>
      <trkpt lat="45.67701746709645" lon="17.68362826667726">
        <ele>214.45</ele>
        <time>2023-10-16T20:46:06.188Z</time>
      </trkpt>
      <trkpt lat="45.677021741867065" lon="17.68362332135439">
        <ele>214.58</ele>
        <time>2023-10-16T20:46:10.514Z</time>
      </trkpt>
      <trkpt lat="45.67702702246606" lon="17.68361887894571">
        <ele>214.72</ele>
        <time>2023-10-16T20:46:14.840Z</time>
      </trkpt>
      <trkpt lat="45.67703330889344" lon="17.683615190908313">
        <ele>214.86</ele>
        <time>2023-10-16T20:46:19.167Z</time>
      </trkpt>
      <trkpt lat="45.6770406011492" lon="17.68361267633736">
        <ele>215.0</ele>
        <time>2023-10-16T20:46:23.494Z</time>
      </trkpt>
      <trkpt lat="45.677048647776246" lon="17.68361217342317">
        <ele>215.14</ele>
        <time>2023-10-16T20:46:27.821Z</time>
      </trkpt>
      <trkpt lat="45.67705753259361" lon="17.68361401744187">
        <ele>215.29</ele>
        <time>2023-10-16T20:46:32.148Z</time>
      </trkpt>
      <trkpt lat="45.67706725560129" lon="17.683618376031518">
        <ele>215.44</ele>
        <time>2023-10-16T20:46:36.476Z</time>
      </trkpt>
      <trkpt lat="45.67707773298025" lon="17.68362474627793">
        <ele>215.59</ele>
        <time>2023-10-16T20:46:40.804Z</time>
      </trkpt>
      <trkpt lat="45.677088713273406" lon="17.68363220617175">
        <ele>215.75</ele>
        <time>2023-10-16T20:46:45.132Z</time>
      </trkpt>
      <trkpt lat="45.67710019648075" lon="17.683639666065574">
        <ele>215.91</ele>
        <time>2023-10-16T20:46:49.461Z</time>
      </trkpt>
      <trkpt lat="45.67711226642132" lon="17.683647125959396">
        <ele>216.07</ele>
        <time>2023-10-16T20:46:53.790Z</time>
      </trkpt>
      <trkpt lat="45.677124755457044" lon="17.683655004948378">
        <ele>216.23</ele>
        <time>2023-10-16T20:46:58.120Z</time>
      </trkpt>
      <trkpt lat="45.67713774740696" lon="17.683663303032517">
        <ele>216.39</ele>
        <time>2023-10-16T20:47:02.450Z</time>
      </trkpt>
      <trkpt lat="45.67715140990913" lon="17.683671936392784">
        <ele>216.56</ele>
        <time>2023-10-16T20:47:06.781Z</time>
      </trkpt>
      <trkpt lat="45.677165826782584" lon="17.683680905029178">
        <ele>216.73</ele>
        <time>2023-10-16T20:47:11.112Z</time>
      </trkpt>
      <trkpt lat="45.67718124948442" lon="17.683689957484603">
        <ele>216.9</ele>
        <time>2023-10-16T20:47:15.444Z</time>
      </trkpt>
      <trkpt lat="45.67719792947173" lon="17.683698842301965">
        <ele>217.07</ele>
        <time>2023-10-16T20:47:19.776Z</time>
      </trkpt>
      <trkpt lat="45.677215699106455" lon="17.68370747566223">
        <ele>217.24</ele>
        <time>2023-10-16T20:47:24.109Z</time>
      </trkpt>
      <trkpt lat="45.67723439075053" lon="17.683715606108308">
        <ele>217.42</ele>
        <time>2023-10-16T20:47:28.443Z</time>
      </trkpt>
      <trkpt lat="45.67725392058492" lon="17.683723149821162">
        <ele>217.59</ele>
        <time>2023-10-16T20:47:32.777Z</time>
      </trkpt>
      <trkpt lat="45.677274288609624" lon="17.6837298553437">
        <ele>217.77</ele>
        <time>2023-10-16T20:47:37.112Z</time>
      </trkpt>
      <trkpt lat="45.67729549482465" lon="17.68373572267592">
        <ele>217.94</ele>
        <time>2023-10-16T20:47:41.448Z</time>
      </trkpt>
      <trkpt lat="45.67731745541096" lon="17.683740500360727">
        <ele>218.12</ele>
        <time>2023-10-16T20:47:45.785Z</time>
      </trkpt>
      <trkpt lat="45.67734008654952" lon="17.683744272217155">
        <ele>218.3</ele>
        <time>2023-10-16T20:47:50.122Z</time>
      </trkpt>
      <trkpt lat="45.677363220602274" lon="17.6837470382452">
        <ele>218.47</ele>
        <time>2023-10-16T20:47:54.460Z</time>
      </trkpt>
      <trkpt lat="45.677386689931154" lon="17.683748714625835">
        <ele>218.65</ele>
        <time>2023-10-16T20:47:58.799Z</time>
      </trkpt>
      <trkpt lat="45.67741041071713" lon="17.68374938517809">
        <ele>218.83</ele>
        <time>2023-10-16T20:48:03.139Z</time>
      </trkpt>
      <trkpt lat="45.67743404768407" lon="17.683749301359057">
        <ele>219.0</ele>
        <time>2023-10-16T20:48:07.479Z</time>
      </trkpt>
      <trkpt lat="45.677457600831985" lon="17.683748798444867">
        <ele>219.18</ele>
        <time>2023-10-16T20:48:11.820Z</time>
      </trkpt>
      <trkpt lat="45.67748073488474" lon="17.683748127892613">
        <ele>219.36</ele>
        <time>2023-10-16T20:48:16.162Z</time>
      </trkpt>
      <trkpt lat="45.6775033660233" lon="17.683747373521328">
        <ele>219.53</ele>
        <time>2023-10-16T20:48:20.505Z</time>
      </trkpt>
      <trkpt lat="45.67752524279058" lon="17.683746702969074">
        <ele>219.71</ele>
        <time>2023-10-16T20:48:24.848Z</time>
      </trkpt>
      <trkpt lat="45.67754619754851" lon="17.683746116235852">
        <ele>219.88</ele>
        <time>2023-10-16T20:48:29.192Z</time>
      </trkpt>
      <trkpt lat="45.67756623029709" lon="17.683745697140694">
        <ele>220.05</ele>
        <time>2023-10-16T20:48:33.537Z</time>
      </trkpt>
      <trkpt lat="45.677585173398256" lon="17.683745278045535">
        <ele>220.22</ele>
        <time>2023-10-16T20:48:37.882Z</time>
      </trkpt>
      <trkpt lat="45.677603194490075" lon="17.683744858950377">
        <ele>220.39</ele>
        <time>2023-10-16T20:48:42.228Z</time>
      </trkpt>
      <trkpt lat="45.67762020975351" lon="17.683744356036186">
        <ele>220.56</ele>
        <time>2023-10-16T20:48:46.575Z</time>
      </trkpt>
      <trkpt lat="45.677636386826634" lon="17.683743685483932">
        <ele>220.72</ele>
        <time>2023-10-16T20:48:50.922Z</time>
      </trkpt>
      <trkpt lat="45.67765180952847" lon="17.683742763474584">
        <ele>220.89</ele>
        <time>2023-10-16T20:48:55.270Z</time>
      </trkpt>
      <trkpt lat="45.67766656167805" lon="17.683741422370076">
        <ele>221.06</ele>
        <time>2023-10-16T20:48:59.618Z</time>
      </trkpt>
      <trkpt lat="45.67768064327538" lon="17.683739829808474">
        <ele>221.22</ele>
        <time>2023-10-16T20:49:03.967Z</time>
      </trkpt>
      <trkpt lat="45.677694138139486" lon="17.683737901970744">
        <ele>221.38</ele>
        <time>2023-10-16T20:49:08.316Z</time>
      </trkpt>
      <trkpt lat="45.6777071300894" lon="17.683735638856888">
        <ele>221.55</ele>
        <time>2023-10-16T20:49:12.666Z</time>
      </trkpt>
      <trkpt lat="45.67771970294416" lon="17.683733040466905">
        <ele>221.71</ele>
        <time>2023-10-16T20:49:17.016Z</time>
      </trkpt>
      <trkpt lat="45.67773185670376" lon="17.683730106800795">
        <ele>221.87</ele>
        <time>2023-10-16T20:49:21.366Z</time>
      </trkpt>
      <trkpt lat="45.67774367518723" lon="17.683727089315653">
        <ele>222.03</ele>
        <time>2023-10-16T20:49:25.717Z</time>
      </trkpt>
      <trkpt lat="45.67775524221361" lon="17.683723904192448">
        <ele>222.19</ele>
        <time>2023-10-16T20:49:30.068Z</time>
      </trkpt>
      <trkpt lat="45.67776655778289" lon="17.68372063525021">
        <ele>222.34</ele>
        <time>2023-10-16T20:49:34.420Z</time>
      </trkpt>
      <trkpt lat="45.67777778953314" lon="17.683717282488942">
        <ele>222.5</ele>
        <time>2023-10-16T20:49:38.772Z</time>
      </trkpt>
      <trkpt lat="45.67778876982629" lon="17.68371376208961">
        <ele>222.66</ele>
        <time>2023-10-16T20:49:43.124Z</time>
      </trkpt>
      <trkpt lat="45.677799666300416" lon="17.683710074052215">
        <ele>222.81</ele>
        <time>2023-10-16T20:49:47.477Z</time>
      </trkpt>
      <trkpt lat="45.67781056277454" lon="17.683706134557724">
        <ele>222.96</ele>
        <time>2023-10-16T20:49:51.830Z</time>
      </trkpt>
      <trkpt lat="45.67782145924866" lon="17.68370202742517">
        <ele>223.11</ele>
        <time>2023-10-16T20:49:56.183Z</time>
      </trkpt>
      <trkpt lat="45.67783243954182" lon="17.683697836473584">
        <ele>223.26</ele>
        <time>2023-10-16T20:50:00.537Z</time>
      </trkpt>
      <trkpt lat="45.677843587473035" lon="17.683693561702967">
        <ele>223.41</ele>
        <time>2023-10-16T20:50:04.891Z</time>
      </trkpt>
      <trkpt lat="45.677854903042316" lon="17.683689119294286">
        <ele>223.56</ele>
        <time>2023-10-16T20:50:09.246Z</time>
      </trkpt>
      <trkpt lat="45.67786630243063" lon="17.683684760704637">
        <ele>223.71</ele>
        <time>2023-10-16T20:50:13.601Z</time>
      </trkpt>
      <trkpt lat="45.67787803709507" lon="17.68368048593402">
        <ele>223.86</ele>
        <time>2023-10-16T20:50:17.956Z</time>
      </trkpt>
      <trkpt lat="45.67788993939757" lon="17.683676378801465">
        <ele>224.01</ele>
        <time>2023-10-16T20:50:22.312Z</time>
      </trkpt>
      <trkpt lat="45.67790200933814" lon="17.683672355487943">
        <ele>224.15</ele>
        <time>2023-10-16T20:50:26.668Z</time>
      </trkpt>
      <trkpt lat="45.67791407927871" lon="17.683668499812484">
        <ele>224.3</ele>
        <time>2023-10-16T20:50:31.025Z</time>
      </trkpt>
      <trkpt lat="45.67792631685734" lon="17.68366481177509">
        <ele>224.44</ele>
        <time>2023-10-16T20:50:35.382Z</time>
      </trkpt>
      <trkpt lat="45.677938386797905" lon="17.683661291375756">
        <ele>224.58</ele>
        <time>2023-10-16T20:50:39.739Z</time>
      </trkpt>
      <trkpt lat="45.67795037291944" lon="17.683657854795456">
        <ele>224.72</ele>
        <time>2023-10-16T20:50:44.097Z</time>
      </trkpt>
      <trkpt lat="45.67796210758388" lon="17.683654502034187">
        <ele>224.86</ele>
        <time>2023-10-16T20:50:48.455Z</time>
      </trkpt>
      <trkpt lat="45.67797342315316" lon="17.683651065453887">
        <ele>224.99</ele>
        <time>2023-10-16T20:50:52.814Z</time>
      </trkpt>
      <trkpt lat="45.67798440344632" lon="17.683647545054555">
        <ele>225.13</ele>
        <time>2023-10-16T20:50:57.173Z</time>
      </trkpt>
      <trkpt lat="45.67799496464431" lon="17.683643773198128">
        <ele>225.26</ele>
        <time>2023-10-16T20:51:01.532Z</time>
      </trkpt>
      <trkpt lat="45.67800510674715" lon="17.683639666065574">
        <ele>225.39</ele>
        <time>2023-10-16T20:51:05.892Z</time>
      </trkpt>
      <trkpt lat="45.678014662116766" lon="17.68363513983786">
        <ele>225.52</ele>
        <time>2023-10-16T20:51:10.252Z</time>
      </trkpt>
      <trkpt lat="45.67802371457219" lon="17.68363027833402">
        <ele>225.65</ele>
        <time>2023-10-16T20:51:14.612Z</time>
      </trkpt>
      <trkpt lat="45.67803234793246" lon="17.683624997735023">
        <ele>225.77</ele>
        <time>2023-10-16T20:51:18.973Z</time>
      </trkpt>
      <trkpt lat="45.6780403945595" lon="17.68361946567893">
        <ele>225.9</ele>
        <time>2023-10-16T20:51:23.334Z</time>
      </trkpt>
      <trkpt lat="45.678048273548484" lon="17.683613682165742">
        <ele>226.02</ele>
        <time>2023-10-16T20:51:27.695Z</time>
      </trkpt>
      <trkpt lat="45.67805606871843" lon="17.683607563376427">
        <ele>226.14</ele>
        <time>2023-10-16T20:51:32.057Z</time>
      </trkpt>
      <trkpt lat="45.67806378006935" lon="17.68360144458711">
        <ele>226.25</ele>
        <time>2023-10-16T20:51:36.419Z</time>
      </trkpt>
      <trkpt lat="45.678071826696396" lon="17.68359549343586">
        <ele>226.37</ele>
        <time>2023-10-16T20:51:40.781Z</time>
      </trkpt>
      <trkpt lat="45.67808020859957" lon="17.683589877560735">
        <ele>226.49</ele>
        <time>2023-10-16T20:51:45.144Z</time>
      </trkpt>
      <trkpt lat="45.67808909341693" lon="17.68358468078077">
        <ele>226.6</ele>
        <time>2023-10-16T20:51:49.507Z</time>
      </trkpt>
      <trkpt lat="45.67809848114848" lon="17.683580154553056">
        <ele>226.71</ele>
        <time>2023-10-16T20:51:53.870Z</time>
      </trkpt>
      <trkpt lat="45.678108455613256" lon="17.683576131239533">
        <ele>226.82</ele>
        <time>2023-10-16T20:51:58.234Z</time>
      </trkpt>
      <trkpt lat="45.67811893299222" lon="17.6835726108402">
        <ele>226.92</ele>
        <time>2023-10-16T20:52:02.598Z</time>
      </trkpt>
      <trkpt lat="45.678129913285375" lon="17.68356967717409">
        <ele>227.02</ele>
        <time>2023-10-16T20:52:06.962Z</time>
      </trkpt>
      <trkpt lat="45.678141228854656" lon="17.683566994965076">
        <ele>227.12</ele>
        <time>2023-10-16T20:52:11.327Z</time>
      </trkpt>
      <trkpt lat="45.678152712062" lon="17.683564564213157">
        <ele>227.22</ele>
        <time>2023-10-16T20:52:15.692Z</time>
      </trkpt>
      <trkpt lat="45.678164195269346" lon="17.68356221728027">
        <ele>227.31</ele>
        <time>2023-10-16T20:52:20.057Z</time>
      </trkpt>
      <trkpt lat="45.67817567847669" lon="17.683559702709317">
        <ele>227.4</ele>
        <time>2023-10-16T20:52:24.423Z</time>
      </trkpt>
      <trkpt lat="45.67818691022694" lon="17.68355685286224">
        <ele>227.49</ele>
        <time>2023-10-16T20:52:28.789Z</time>
      </trkpt>
      <trkpt lat="45.678197639063" lon="17.683553332462907">
        <ele>227.57</ele>
        <time>2023-10-16T20:52:33.156Z</time>
      </trkpt>
      <trkpt lat="45.67820786498487" lon="17.68354905769229">
        <ele>227.65</ele>
        <time>2023-10-16T20:52:37.523Z</time>
      </trkpt>
      <trkpt lat="45.678217420354486" lon="17.683543860912323">
        <ele>227.73</ele>
        <time>2023-10-16T20:52:41.890Z</time>
      </trkpt>
      <trkpt lat="45.67822630517185" lon="17.68353782594204">
        <ele>227.8</ele>
        <time>2023-10-16T20:52:46.258Z</time>
      </trkpt>
      <trkpt lat="45.678234519436955" lon="17.68353103660047">
        <ele>227.87</ele>
        <time>2023-10-16T20:52:50.626Z</time>
      </trkpt>
      <trkpt lat="45.67824206314981" lon="17.683523492887616">
        <ele>227.94</ele>
        <time>2023-10-16T20:52:54.994Z</time>
      </trkpt>
      <trkpt lat="45.67824885249138" lon="17.68351536244154">
        <ele>228.0</ele>
        <time>2023-10-16T20:52:59.362Z</time>
      </trkpt>
      <trkpt lat="45.67825513891876" lon="17.683506896719337">
        <ele>228.06</ele>
        <time>2023-10-16T20:53:03.731Z</time>
      </trkpt>
      <trkpt lat="45.67826075479388" lon="17.68349784426391">
        <ele>228.11</ele>
        <time>2023-10-16T20:53:08.100Z</time>
      </trkpt>
      <trkpt lat="45.67826586775482" lon="17.68348845653236">
        <ele>228.16</ele>
        <time>2023-10-16T20:53:12.469Z</time>
      </trkpt>
      <trkpt lat="45.67827056162059" lon="17.683478817343712">
        <ele>228.2</ele>
        <time>2023-10-16T20:53:16.839Z</time>
      </trkpt>
      <trkpt lat="45.67827492021024" lon="17.68346892669797">
        <ele>228.24</ele>
        <time>2023-10-16T20:53:21.209Z</time>
      </trkpt>
      <trkpt lat="45.678278943523765" lon="17.683458868414164">
        <ele>228.27</ele>
        <time>2023-10-16T20:53:25.579Z</time>
      </trkpt>
      <trkpt lat="45.678282883018255" lon="17.683448642492294">
        <ele>228.31</ele>
        <time>2023-10-16T20:53:29.949Z</time>
      </trkpt>
      <trkpt lat="45.678286738693714" lon="17.68343824893236">
        <ele>228.33</ele>
        <time>2023-10-16T20:53:34.320Z</time>
      </trkpt>
      <trkpt lat="45.67829059436917" lon="17.683427603915334">
        <ele>228.36</ele>
        <time>2023-10-16T20:53:38.691Z</time>
      </trkpt>
      <trkpt lat="45.678294533863664" lon="17.683416539803147">
        <ele>228.37</ele>
        <time>2023-10-16T20:53:43.062Z</time>
      </trkpt>
      <trkpt lat="45.67829864099622" lon="17.683405140414834">
        <ele>228.39</ele>
        <time>2023-10-16T20:53:47.434Z</time>
      </trkpt>
      <trkpt lat="45.6783028319478" lon="17.683393405750394">
        <ele>228.4</ele>
        <time>2023-10-16T20:53:51.806Z</time>
      </trkpt>
      <trkpt lat="45.67830710671842" lon="17.683381335809827">
        <ele>228.4</ele>
        <time>2023-10-16T20:53:56.178Z</time>
      </trkpt>
      <trkpt lat="45.67831138148904" lon="17.683369098231196">
        <ele>228.4</ele>
        <time>2023-10-16T20:54:00.551Z</time>
      </trkpt>
      <trkpt lat="45.678315656259656" lon="17.683356693014503">
        <ele>228.4</ele>
        <time>2023-10-16T20:54:04.924Z</time>
      </trkpt>
      <trkpt lat="45.67831976339221" lon="17.68334437161684">
        <ele>228.39</ele>
        <time>2023-10-16T20:54:09.297Z</time>
      </trkpt>
      <trkpt lat="45.6783237028867" lon="17.683332050219178">
        <ele>228.37</ele>
        <time>2023-10-16T20:54:13.670Z</time>
      </trkpt>
      <trkpt lat="45.678327390924096" lon="17.683319812640548">
        <ele>228.36</ele>
        <time>2023-10-16T20:54:18.044Z</time>
      </trkpt>
      <trkpt lat="45.6783305760473" lon="17.68330774269998">
        <ele>228.33</ele>
        <time>2023-10-16T20:54:22.418Z</time>
      </trkpt>
      <trkpt lat="45.678333258256316" lon="17.683295840397477">
        <ele>228.31</ele>
        <time>2023-10-16T20:54:26.792Z</time>
      </trkpt>
      <trkpt lat="45.67833535373211" lon="17.683284105733037">
        <ele>228.27</ele>
        <time>2023-10-16T20:54:31.167Z</time>
      </trkpt>
      <trkpt lat="45.678337113931775" lon="17.68327253870666">
        <ele>228.24</ele>
        <time>2023-10-16T20:54:35.542Z</time>
      </trkpt>
      <trkpt lat="45.678338538855314" lon="17.683261055499315">
        <ele>228.2</ele>
        <time>2023-10-16T20:54:39.917Z</time>
      </trkpt>
      <trkpt lat="45.67833971232176" lon="17.683249656111002">
        <ele>228.15</ele>
        <time>2023-10-16T20:54:44.292Z</time>
      </trkpt>
      <trkpt lat="45.6783408857882" lon="17.683238089084625">
        <ele>228.1</ele>
        <time>2023-10-16T20:54:48.668Z</time>
      </trkpt>
      <trkpt lat="45.678342059254646" lon="17.683226270601153">
        <ele>228.04</ele>
        <time>2023-10-16T20:54:53.044Z</time>
      </trkpt>
      <trkpt lat="45.678343484178185" lon="17.683214033022523">
        <ele>227.98</ele>
        <time>2023-10-16T20:54:57.420Z</time>
      </trkpt>
      <trkpt lat="45.67834516055882" lon="17.68320120871067">
        <ele>227.92</ele>
        <time>2023-10-16T20:55:01.797Z</time>
      </trkpt>
      <trkpt lat="45.67834725603461" lon="17.683187797665596">
        <ele>227.85</ele>
        <time>2023-10-16T20:55:06.174Z</time>
      </trkpt>
      <trkpt lat="45.67834993824363" lon="17.683173632249236">
        <ele>227.78</ele>
        <time>2023-10-16T20:55:10.551Z</time>
      </trkpt>
      <trkpt lat="45.678353207185864" lon="17.68315871246159">
        <ele>227.7</ele>
        <time>2023-10-16T20:55:14.929Z</time>
      </trkpt>
      <trkpt lat="45.67835689522326" lon="17.68314295448363">
        <ele>227.62</ele>
        <time>2023-10-16T20:55:19.307Z</time>
      </trkpt>
      <trkpt lat="45.67836091853678" lon="17.68312635831535">
        <ele>227.53</ele>
        <time>2023-10-16T20:55:23.685Z</time>
      </trkpt>
      <trkpt lat="45.67836510948837" lon="17.683108923956752">
        <ele>227.44</ele>
        <time>2023-10-16T20:55:28.064Z</time>
      </trkpt>
      <trkpt lat="45.678369300439954" lon="17.68309073522687">
        <ele>227.35</ele>
        <time>2023-10-16T20:55:32.443Z</time>
      </trkpt>
      <trkpt lat="45.67837349139154" lon="17.683072043582797">
        <ele>227.25</ele>
        <time>2023-10-16T20:55:36.823Z</time>
      </trkpt>
      <trkpt lat="45.67837751470506" lon="17.683052849024534">
        <ele>227.14</ele>
        <time>2023-10-16T20:55:41.203Z</time>
      </trkpt>
      <trkpt lat="45.67838137038052" lon="17.683033319190145">
        <ele>227.04</ele>
        <time>2023-10-16T20:55:45.584Z</time>
      </trkpt>
      <trkpt lat="45.678385058417916" lon="17.68301353789866">
        <ele>226.92</ele>
        <time>2023-10-16T20:55:49.965Z</time>
      </trkpt>
      <trkpt lat="45.67838849499822" lon="17.682993672788143">
        <ele>226.81</ele>
        <time>2023-10-16T20:55:54.347Z</time>
      </trkpt>
      <trkpt lat="45.67839168012142" lon="17.682974142953753">
        <ele>226.69</ele>
        <time>2023-10-16T20:55:58.729Z</time>
      </trkpt>
      <trkpt lat="45.678394697606564" lon="17.682955032214522">
        <ele>226.56</ele>
        <time>2023-10-16T20:56:03.112Z</time>
      </trkpt>
      <trkpt lat="45.678397631272674" lon="17.682936592027545">
        <ele>226.43</ele>
        <time>2023-10-16T20:56:07.495Z</time>
      </trkpt>
      <trkpt lat="45.67840048111975" lon="17.68291873857379">
        <ele>226.3</ele>
        <time>2023-10-16T20:56:11.878Z</time>
      </trkpt>
      <trkpt lat="45.67840333096683" lon="17.68290122039616">
        <ele>226.16</ele>
        <time>2023-10-16T20:56:16.262Z</time>
      </trkpt>
      <trkpt lat="45.67840626463294" lon="17.68288412131369">
        <ele>226.02</ele>
        <time>2023-10-16T20:56:20.646Z</time>
      </trkpt>
      <trkpt lat="45.67840953357518" lon="17.682867273688316">
        <ele>225.88</ele>
        <time>2023-10-16T20:56:25.031Z</time>
      </trkpt>
      <trkpt lat="45.67841305397451" lon="17.682850677520037">
        <ele>225.73</ele>
        <time>2023-10-16T20:56:29.416Z</time>
      </trkpt>
      <trkpt lat="45.67841707728803" lon="17.682833997532725">
        <ele>225.58</ele>
        <time>2023-10-16T20:56:33.802Z</time>
      </trkpt>
      <trkpt lat="45.67842143587768" lon="17.682817401364446">
        <ele>225.42</ele>
        <time>2023-10-16T20:56:38.188Z</time>
      </trkpt>
      <trkpt lat="45.678426045924425" lon="17.682800889015198">
        <ele>225.26</ele>
        <time>2023-10-16T20:56:42.574Z</time>
      </trkpt>
      <trkpt lat="45.678430907428265" lon="17.682784292846918">
        <ele>225.1</ele>
        <time>2023-10-16T20:56:46.961Z</time>
      </trkpt>
      <trkpt lat="45.678435768932104" lon="17.682767529040575">
        <ele>224.94</ele>
        <time>2023-10-16T20:56:51.348Z</time>
      </trkpt>
      <trkpt lat="45.67844079807401" lon="17.682750513777137">
        <ele>224.77</ele>
        <time>2023-10-16T20:56:55.736Z</time>
      </trkpt>
      <trkpt lat="45.67844582721591" lon="17.682733330875635">
        <ele>224.6</ele>
        <time>2023-10-16T20:57:00.124Z</time>
      </trkpt>
      <trkpt lat="45.67845110781491" lon="17.682716147974133">
        <ele>224.42</ele>
        <time>2023-10-16T20:57:04.513Z</time>
      </trkpt>
      <trkpt lat="45.67845647223294" lon="17.682699048891664">
        <ele>224.24</ele>
        <time>2023-10-16T20:57:08.902Z</time>
      </trkpt>
      <trkpt lat="45.67846192047" lon="17.682681865990162">
        <ele>224.06</ele>
        <time>2023-10-16T20:57:13.291Z</time>
      </trkpt>
      <trkpt lat="45.67846736870706" lon="17.68266468308866">
        <ele>223.87</ele>
        <time>2023-10-16T20:57:17.681Z</time>
      </trkpt>
      <trkpt lat="45.67847273312509" lon="17.68264750018716">
        <ele>223.69</ele>
        <time>2023-10-16T20:57:22.071Z</time>
      </trkpt>
      <trkpt lat="45.67847801372409" lon="17.682630149647593">
        <ele>223.49</ele>
        <time>2023-10-16T20:57:26.462Z</time>
      </trkpt>
      <trkpt lat="45.678483210504055" lon="17.682612631469965">
        <ele>223.3</ele>
        <time>2023-10-16T20:57:30.853Z</time>
      </trkpt>
      <trkpt lat="45.67848849110305" lon="17.682595029473305">
        <ele>223.1</ele>
        <time>2023-10-16T20:57:35.245Z</time>
      </trkpt>
      <trkpt lat="45.67849385552108" lon="17.68257725983858">
        <ele>222.89</ele>
        <time>2023-10-16T20:57:39.637Z</time>
      </trkpt>
      <trkpt lat="45.678499303758144" lon="17.682559406384826">
        <ele>222.69</ele>
        <time>2023-10-16T20:57:44.030Z</time>
      </trkpt>
      <trkpt lat="45.678504668176174" lon="17.68254155293107">
        <ele>222.48</ele>
        <time>2023-10-16T20:57:48.423Z</time>
      </trkpt>
      <trkpt lat="45.67850969731808" lon="17.682523699477315">
        <ele>222.27</ele>
        <time>2023-10-16T20:57:52.816Z</time>
      </trkpt>
      <trkpt lat="45.67851430736482" lon="17.682506013661623">
        <ele>222.06</ele>
        <time>2023-10-16T20:57:57.210Z</time>
      </trkpt>
      <trkpt lat="45.678518330678344" lon="17.682488411664963">
        <ele>221.84</ele>
        <time>2023-10-16T20:58:01.604Z</time>
      </trkpt>
      <trkpt lat="45.678521851077676" lon="17.682470977306366">
        <ele>221.62</ele>
        <time>2023-10-16T20:58:05.999Z</time>
      </trkpt>
      <trkpt lat="45.678524784743786" lon="17.682453962042928">
        <ele>221.41</ele>
        <time>2023-10-16T20:58:10.394Z</time>
      </trkpt>
      <trkpt lat="45.67852755077183" lon="17.682437198236585">
        <ele>221.19</ele>
        <time>2023-10-16T20:58:14.790Z</time>
      </trkpt>
      <trkpt lat="45.678530149161816" lon="17.68242043443024">
        <ele>220.96</ele>
        <time>2023-10-16T20:58:19.186Z</time>
      </trkpt>
      <trkpt lat="45.67853266373277" lon="17.68240375444293">
        <ele>220.74</ele>
        <time>2023-10-16T20:58:23.582Z</time>
      </trkpt>
      <trkpt lat="45.67853534594178" lon="17.68238707445562">
        <ele>220.52</ele>
        <time>2023-10-16T20:58:27.979Z</time>
      </trkpt>
      <trkpt lat="45.67853827960789" lon="17.682370394468307">
        <ele>220.3</ele>
        <time>2023-10-16T20:58:32.376Z</time>
      </trkpt>
      <trkpt lat="45.67854163236916" lon="17.682353546842933">
        <ele>220.07</ele>
        <time>2023-10-16T20:58:36.774Z</time>
      </trkpt>
      <trkpt lat="45.678545320406556" lon="17.682336531579494">
        <ele>219.84</ele>
        <time>2023-10-16T20:58:41.172Z</time>
      </trkpt>
      <trkpt lat="45.678549678996205" lon="17.68231918103993">
        <ele>219.62</ele>
        <time>2023-10-16T20:58:45.570Z</time>
      </trkpt>
      <trkpt lat="45.678554540500045" lon="17.682301411405206">
        <ele>219.39</ele>
        <time>2023-10-16T20:58:49.969Z</time>
      </trkpt>
      <trkpt lat="45.678559988737106" lon="17.682283222675323">
        <ele>219.16</ele>
        <time>2023-10-16T20:58:54.368Z</time>
      </trkpt>
      <trkpt lat="45.67856602370739" lon="17.682264782488346">
        <ele>218.93</ele>
        <time>2023-10-16T20:58:58.768Z</time>
      </trkpt>
      <trkpt lat="45.678572561591864" lon="17.68224634230137">
        <ele>218.7</ele>
        <time>2023-10-16T20:59:03.168Z</time>
      </trkpt>
      <trkpt lat="45.678579434752464" lon="17.682228153571486">
        <ele>218.47</ele>
        <time>2023-10-16T20:59:07.569Z</time>
      </trkpt>
      <trkpt lat="45.67858664318919" lon="17.68221030011773">
        <ele>218.24</ele>
        <time>2023-10-16T20:59:11.970Z</time>
      </trkpt>
      <trkpt lat="45.67859401926398" lon="17.68219311721623">
        <ele>218.0</ele>
        <time>2023-10-16T20:59:16.372Z</time>
      </trkpt>
      <trkpt lat="45.678601479157805" lon="17.682176688686013">
        <ele>217.77</ele>
        <time>2023-10-16T20:59:20.774Z</time>
      </trkpt>
      <trkpt lat="45.67860919050872" lon="17.68216084688902">
        <ele>217.54</ele>
        <time>2023-10-16T20:59:25.177Z</time>
      </trkpt>
      <trkpt lat="45.6786173209548" lon="17.68214567564428">
        <ele>217.31</ele>
        <time>2023-10-16T20:59:29.580Z</time>
      </trkpt>
      <trkpt lat="45.67862570285797" lon="17.68213100731373">
        <ele>217.08</ele>
        <time>2023-10-16T20:59:33.983Z</time>
      </trkpt>
      <trkpt lat="45.67863442003727" lon="17.6821169257164">
        <ele>216.85</ele>
        <time>2023-10-16T20:59:38.387Z</time>
      </trkpt>
      <trkpt lat="45.67864338867366" lon="17.682103347033262">
        <ele>216.62</ele>
        <time>2023-10-16T20:59:42.791Z</time>
      </trkpt>
      <trkpt lat="45.67865252494812" lon="17.682089935988188">
        <ele>216.39</ele>
        <time>2023-10-16T20:59:47.196Z</time>
      </trkpt>
      <trkpt lat="45.67866174504161" lon="17.68207644112408">
        <ele>216.15</ele>
        <time>2023-10-16T20:59:51.601Z</time>
      </trkpt>
      <trkpt lat="45.67867104895413" lon="17.68206261098385">
        <ele>215.92</ele>
        <time>2023-10-16T20:59:56.007Z</time>
      </trkpt>
      <trkpt lat="45.678680185228586" lon="17.68204752355814">
        <ele>215.69</ele>
        <time>2023-10-16T21:00:00.413Z</time>
      </trkpt>
      <trkpt lat="45.67868932150304" lon="17.68203092738986">
        <ele>215.46</ele>
        <time>2023-10-16T21:00:04.820Z</time>
      </trkpt>
      <trkpt lat="45.67869812250137" lon="17.682012571021914">
        <ele>215.23</ele>
        <time>2023-10-16T21:00:09.227Z</time>
      </trkpt>
      <trkpt lat="45.67870658822358" lon="17.68199278973043">
        <ele>214.99</ele>
        <time>2023-10-16T21:00:13.635Z</time>
      </trkpt>
      <trkpt lat="45.67871455103159" lon="17.68197175115347">
        <ele>214.76</ele>
        <time>2023-10-16T21:00:18.043Z</time>
      </trkpt>
      <trkpt lat="45.678722094744444" lon="17.681949203833938">
        <ele>214.53</ele>
        <time>2023-10-16T21:00:22.452Z</time>
      </trkpt>
      <trkpt lat="45.67872930318117" lon="17.6819253154099">
        <ele>214.3</ele>
        <time>2023-10-16T21:00:26.861Z</time>
      </trkpt>
      <trkpt lat="45.67873592488468" lon="17.68190050497651">
        <ele>214.07</ele>
        <time>2023-10-16T21:00:31.271Z</time>
      </trkpt>
      <trkpt lat="45.67874195985496" lon="17.681874940171838">
        <ele>213.84</ele>
        <time>2023-10-16T21:00:35.682Z</time>
      </trkpt>
      <trkpt lat="45.67874724045396" lon="17.681848453357816">
        <ele>213.6</ele>
        <time>2023-10-16T21:00:40.093Z</time>
      </trkpt>
      <trkpt lat="45.67875168286264" lon="17.681821463629603">
        <ele>213.37</ele>
        <time>2023-10-16T21:00:44.505Z</time>
      </trkpt>
      <trkpt lat="45.678755370900035" lon="17.68179489299655">
        <ele>213.14</ele>
        <time>2023-10-16T21:00:48.918Z</time>
      </trkpt>
      <trkpt lat="45.67875822074711" lon="17.68176907673478">
        <ele>212.92</ele>
        <time>2023-10-16T21:00:53.331Z</time>
      </trkpt>
      <trkpt lat="45.67876040004194" lon="17.68174409866333">
        <ele>212.69</ele>
        <time>2023-10-16T21:00:57.745Z</time>
      </trkpt>
      <trkpt lat="45.67876199260354" lon="17.68172021023929">
        <ele>212.46</ele>
        <time>2023-10-16T21:01:02.159Z</time>
      </trkpt>
      <trkpt lat="45.678763249889016" lon="17.681697327643633">
        <ele>212.23</ele>
        <time>2023-10-16T21:01:06.574Z</time>
      </trkpt>
      <trkpt lat="45.678764171898365" lon="17.681675869971514">
        <ele>212.01</ele>
        <time>2023-10-16T21:01:10.989Z</time>
      </trkpt>
      <trkpt lat="45.67876492626965" lon="17.68165558576584">
        <ele>211.78</ele>
        <time>2023-10-16T21:01:15.405Z</time>
      </trkpt>
      <trkpt lat="45.67876576445997" lon="17.681636223569512">
        <ele>211.55</ele>
        <time>2023-10-16T21:01:19.821Z</time>
      </trkpt>
      <trkpt lat="45.67876677028835" lon="17.681617699563503">
        <ele>211.32</ele>
        <time>2023-10-16T21:01:24.238Z</time>
      </trkpt>
      <trkpt lat="45.67876794375479" lon="17.68160001374781">
        <ele>211.1</ele>
        <time>2023-10-16T21:01:28.655Z</time>
      </trkpt>
      <trkpt lat="45.6787692848593" lon="17.681582998484373">
        <ele>210.87</ele>
        <time>2023-10-16T21:01:33.073Z</time>
      </trkpt>
      <trkpt lat="45.67877079360187" lon="17.681566150859">
        <ele>210.64</ele>
        <time>2023-10-16T21:01:37.491Z</time>
      </trkpt>
      <trkpt lat="45.67877238616347" lon="17.681549303233624">
        <ele>210.42</ele>
        <time>2023-10-16T21:01:41.909Z</time>
      </trkpt>
      <trkpt lat="45.67877414636314" lon="17.681532120332122">
        <ele>210.19</ele>
        <time>2023-10-16T21:01:46.328Z</time>
      </trkpt>
      <trkpt lat="45.67877582274377" lon="17.681514350697398">
        <ele>209.96</ele>
        <time>2023-10-16T21:01:50.747Z</time>
      </trkpt>
      <trkpt lat="45.67877724766731" lon="17.681496161967516">
        <ele>209.73</ele>
        <time>2023-10-16T21:01:55.167Z</time>
      </trkpt>
      <trkpt lat="45.67877842113376" lon="17.681477470323443">
        <ele>209.5</ele>
        <time>2023-10-16T21:01:59.587Z</time>
      </trkpt>
      <trkpt lat="45.67877909168601" lon="17.68145819194615">
        <ele>209.27</ele>
        <time>2023-10-16T21:02:04.008Z</time>
      </trkpt>
      <trkpt lat="45.67877917550504" lon="17.681438578292727">
        <ele>209.04</ele>
        <time>2023-10-16T21:02:08.429Z</time>
      </trkpt>
      <trkpt lat="45.67877892404795" lon="17.681418545544147">
        <ele>208.81</ele>
        <time>2023-10-16T21:02:12.850Z</time>
      </trkpt>
      <trkpt lat="45.67877842113376" lon="17.681398261338472">
        <ele>208.57</ele>
        <time>2023-10-16T21:02:17.272Z</time>
      </trkpt>
      <trkpt lat="45.6787777505815" lon="17.681377977132797">
        <ele>208.34</ele>
        <time>2023-10-16T21:02:21.694Z</time>
      </trkpt>
      <trkpt lat="45.67877699621022" lon="17.681357944384217">
        <ele>208.11</ele>
        <time>2023-10-16T21:02:26.117Z</time>
      </trkpt>
      <trkpt lat="45.67877624183893" lon="17.681338246911764">
        <ele>207.87</ele>
        <time>2023-10-16T21:02:30.540Z</time>
      </trkpt>
      <trkpt lat="45.67877565510571" lon="17.681319136172533">
        <ele>207.64</ele>
        <time>2023-10-16T21:02:34.964Z</time>
      </trkpt>
      <trkpt lat="45.67877523601055" lon="17.681300695985556">
        <ele>207.4</ele>
        <time>2023-10-16T21:02:39.388Z</time>
      </trkpt>
      <trkpt lat="45.678774984553456" lon="17.68128275871277">
        <ele>207.16</ele>
        <time>2023-10-16T21:02:43.813Z</time>
      </trkpt>
      <trkpt lat="45.678774984553456" lon="17.68126515671611">
        <ele>206.92</ele>
        <time>2023-10-16T21:02:48.238Z</time>
      </trkpt>
      <trkpt lat="45.67877515219152" lon="17.681247889995575">
        <ele>206.69</ele>
        <time>2023-10-16T21:02:52.663Z</time>
      </trkpt>
      <trkpt lat="45.67877565510571" lon="17.681230371817946">
        <ele>206.45</ele>
        <time>2023-10-16T21:02:57.089Z</time>
      </trkpt>
      <trkpt lat="45.67877624183893" lon="17.681213105097413">
        <ele>206.2</ele>
        <time>2023-10-16T21:03:01.515Z</time>
      </trkpt>
      <trkpt lat="45.678776912391186" lon="17.68119592219591">
        <ele>205.96</ele>
        <time>2023-10-16T21:03:05.942Z</time>
      </trkpt>
      <trkpt lat="45.67877758294344" lon="17.68117873929441">
        <ele>205.72</ele>
        <time>2023-10-16T21:03:10.369Z</time>
      </trkpt>
      <trkpt lat="45.6787780020386" lon="17.681161304935813">
        <ele>205.48</ele>
        <time>2023-10-16T21:03:14.796Z</time>
      </trkpt>
      <trkpt lat="45.678777918219566" lon="17.6811430323869">
        <ele>205.23</ele>
        <time>2023-10-16T21:03:19.224Z</time>
      </trkpt>
      <trkpt lat="45.678777331486344" lon="17.681123837828636">
        <ele>204.98</ele>
        <time>2023-10-16T21:03:23.652Z</time>
      </trkpt>
      <trkpt lat="45.678776325657964" lon="17.68110397271812">
        <ele>204.73</ele>
        <time>2023-10-16T21:03:28.081Z</time>
      </trkpt>
      <trkpt lat="45.678774984553456" lon="17.68108352087438">
        <ele>204.48</ele>
        <time>2023-10-16T21:03:32.510Z</time>
      </trkpt>
      <trkpt lat="45.67877330817282" lon="17.681062566116452">
        <ele>204.23</ele>
        <time>2023-10-16T21:03:36.940Z</time>
      </trkpt>
      <trkpt lat="45.67877121269703" lon="17.68104144372046">
        <ele>203.97</ele>
        <time>2023-10-16T21:03:41.370Z</time>
      </trkpt>
      <trkpt lat="45.67876869812608" lon="17.681020572781563">
        <ele>203.72</ele>
        <time>2023-10-16T21:03:45.801Z</time>
      </trkpt>
      <trkpt lat="45.678765596821904" lon="17.68099986948073">
        <ele>203.46</ele>
        <time>2023-10-16T21:03:50.232Z</time>
      </trkpt>
      <trkpt lat="45.678761741146445" lon="17.680979249998927">
        <ele>203.21</ele>
        <time>2023-10-16T21:03:54.664Z</time>
      </trkpt>
      <trkpt lat="45.678757298737764" lon="17.68095888197422">
        <ele>202.95</ele>
        <time>2023-10-16T21:03:59.096Z</time>
      </trkpt>
      <trkpt lat="45.67875260487199" lon="17.680938933044672">
        <ele>202.69</ele>
        <time>2023-10-16T21:04:03.529Z</time>
      </trkpt>
      <trkpt lat="45.67874774336815" lon="17.68091982230544">
        <ele>202.43</ele>
        <time>2023-10-16T21:04:07.962Z</time>
      </trkpt>
      <trkpt lat="45.678742714226246" lon="17.680901298299432">
        <ele>202.17</ele>
        <time>2023-10-16T21:04:12.396Z</time>
      </trkpt>
      <trkpt lat="45.67873751744628" lon="17.680883025750518">
        <ele>201.91</ele>
        <time>2023-10-16T21:04:16.830Z</time>
      </trkpt>
      <trkpt lat="45.67873215302825" lon="17.68086508847773">
        <ele>201.64</ele>
        <time>2023-10-16T21:04:21.265Z</time>
      </trkpt>
      <trkpt lat="45.678726537153125" lon="17.680847654119134">
        <ele>201.38</ele>
        <time>2023-10-16T21:04:25.700Z</time>
      </trkpt>
      <trkpt lat="45.678720669820905" lon="17.680830219760537">
        <ele>201.11</ele>
        <time>2023-10-16T21:04:30.136Z</time>
      </trkpt>
      <trkpt lat="45.67871471866965" lon="17.680812617763877">
        <ele>200.85</ele>
        <time>2023-10-16T21:04:34.572Z</time>
      </trkpt>
      <trkpt lat="45.6787087675184" lon="17.68079476431012">
        <ele>200.58</ele>
        <time>2023-10-16T21:04:39.008Z</time>
      </trkpt>
      <trkpt lat="45.67870323546231" lon="17.680776743218303">
        <ele>200.31</ele>
        <time>2023-10-16T21:04:43.445Z</time>
      </trkpt>
      <trkpt lat="45.67869803868234" lon="17.680758386850357">
        <ele>200.05</ele>
        <time>2023-10-16T21:04:47.882Z</time>
      </trkpt>
      <trkpt lat="45.678692841902375" lon="17.68073944374919">
        <ele>199.78</ele>
        <time>2023-10-16T21:04:52.320Z</time>
      </trkpt>
      <trkpt lat="45.67868772894144" lon="17.680719830095768">
        <ele>199.51</ele>
        <time>2023-10-16T21:04:56.758Z</time>
      </trkpt>
      <trkpt lat="45.67868269979954" lon="17.68069996498525">
        <ele>199.23</ele>
        <time>2023-10-16T21:05:01.197Z</time>
      </trkpt>
      <trkpt lat="45.678677670657635" lon="17.68067984841764">
        <ele>198.96</ele>
        <time>2023-10-16T21:05:05.636Z</time>
      </trkpt>
      <trkpt lat="45.67867247387767" lon="17.680659145116806">
        <ele>198.69</ele>
        <time>2023-10-16T21:05:10.076Z</time>
      </trkpt>
      <trkpt lat="45.678667444735765" lon="17.680637687444687">
        <ele>198.41</ele>
        <time>2023-10-16T21:05:14.516Z</time>
      </trkpt>
      <trkpt lat="45.678662583231926" lon="17.680615475401282">
        <ele>198.14</ele>
        <time>2023-10-16T21:05:18.957Z</time>
      </trkpt>
      <trkpt lat="45.67865797318518" lon="17.680592676624656">
        <ele>197.86</ele>
        <time>2023-10-16T21:05:23.398Z</time>
      </trkpt>
      <trkpt lat="45.67865361459553" lon="17.68056937493384">
        <ele>197.59</ele>
        <time>2023-10-16T21:05:27.840Z</time>
      </trkpt>
      <trkpt lat="45.67864925600588" lon="17.68054590560496">
        <ele>197.31</ele>
        <time>2023-10-16T21:05:32.283Z</time>
      </trkpt>
      <trkpt lat="45.678644981235266" lon="17.680522268638015">
        <ele>197.03</ele>
        <time>2023-10-16T21:05:36.726Z</time>
      </trkpt>
      <trkpt lat="45.67864062264562" lon="17.680498966947198">
        <ele>196.75</ele>
        <time>2023-10-16T21:05:41.170Z</time>
      </trkpt>
      <trkpt lat="45.678636096417904" lon="17.68047616817057">
        <ele>196.47</ele>
        <time>2023-10-16T21:05:45.614Z</time>
      </trkpt>
      <trkpt lat="45.67863148637116" lon="17.68045370467007">
        <ele>196.2</ele>
        <time>2023-10-16T21:05:50.059Z</time>
      </trkpt>
      <trkpt lat="45.678626876324415" lon="17.680431492626667">
        <ele>195.92</ele>
        <time>2023-10-16T21:05:54.504Z</time>
      </trkpt>
      <trkpt lat="45.6786223500967" lon="17.680410034954548">
        <ele>195.64</ele>
        <time>2023-10-16T21:05:58.950Z</time>
      </trkpt>
      <trkpt lat="45.67861790768802" lon="17.68038908019662">
        <ele>195.36</ele>
        <time>2023-10-16T21:06:03.396Z</time>
      </trkpt>
      <trkpt lat="45.678613632917404" lon="17.680368963629007">
        <ele>195.08</ele>
        <time>2023-10-16T21:06:07.843Z</time>
      </trkpt>
      <trkpt lat="45.67860952578485" lon="17.68034951761365">
        <ele>194.81</ele>
        <time>2023-10-16T21:06:12.290Z</time>
      </trkpt>
      <trkpt lat="45.67860558629036" lon="17.68033049069345">
        <ele>194.53</ele>
        <time>2023-10-16T21:06:16.738Z</time>
      </trkpt>
      <trkpt lat="45.678601898252964" lon="17.680312050506473">
        <ele>194.25</ele>
        <time>2023-10-16T21:06:21.186Z</time>
      </trkpt>
      <trkpt lat="45.67859871312976" lon="17.680294197052717">
        <ele>193.98</ele>
        <time>2023-10-16T21:06:25.635Z</time>
      </trkpt>
      <trkpt lat="45.678596114739776" lon="17.68027676269412">
        <ele>193.7</ele>
        <time>2023-10-16T21:06:30.084Z</time>
      </trkpt>
      <trkpt lat="45.67859435454011" lon="17.68025966361165">
        <ele>193.43</ele>
        <time>2023-10-16T21:06:34.534Z</time>
      </trkpt>
      <trkpt lat="45.67859351634979" lon="17.68024306744337">
        <ele>193.15</ele>
        <time>2023-10-16T21:06:38.984Z</time>
      </trkpt>
      <trkpt lat="45.67859334871173" lon="17.68022689037025">
        <ele>192.88</ele>
        <time>2023-10-16T21:06:43.434Z</time>
      </trkpt>
      <trkpt lat="45.67859393544495" lon="17.68021130003035">
        <ele>192.6</ele>
        <time>2023-10-16T21:06:47.885Z</time>
      </trkpt>
      <trkpt lat="45.67859502509236" lon="17.680196464061737">
        <ele>192.33</ele>
        <time>2023-10-16T21:06:52.336Z</time>
      </trkpt>
      <trkpt lat="45.678596617653966" lon="17.680182214826345">
        <ele>192.06</ele>
        <time>2023-10-16T21:06:56.787Z</time>
      </trkpt>
      <trkpt lat="45.678598545491695" lon="17.68016871996224">
        <ele>191.78</ele>
        <time>2023-10-16T21:07:01.239Z</time>
      </trkpt>
      <trkpt lat="45.67860072478652" lon="17.68015597946942">
        <ele>191.51</ele>
        <time>2023-10-16T21:07:05.691Z</time>
      </trkpt>
      <trkpt lat="45.67860315553844" lon="17.68014340661466">
        <ele>191.24</ele>
        <time>2023-10-16T21:07:10.143Z</time>
      </trkpt>
      <trkpt lat="45.678605837747455" lon="17.68013116903603">
        <ele>190.97</ele>
        <time>2023-10-16T21:07:14.596Z</time>
      </trkpt>
      <trkpt lat="45.6786086037755" lon="17.68011884763837">
        <ele>190.69</ele>
        <time>2023-10-16T21:07:19.049Z</time>
      </trkpt>
      <trkpt lat="45.67861145362258" lon="17.680106526240706">
        <ele>190.42</ele>
        <time>2023-10-16T21:07:23.502Z</time>
      </trkpt>
      <trkpt lat="45.67861430346966" lon="17.680093869566917">
        <ele>190.15</ele>
        <time>2023-10-16T21:07:27.956Z</time>
      </trkpt>
      <trkpt lat="45.67861723713577" lon="17.680080877617">
        <ele>189.88</ele>
        <time>2023-10-16T21:07:32.410Z</time>
      </trkpt>
      <trkpt lat="45.67862033843994" lon="17.680067466571927">
        <ele>189.6</ele>
        <time>2023-10-16T21:07:36.864Z</time>
      </trkpt>
      <trkpt lat="45.67862369120121" lon="17.680053552612662">
        <ele>189.33</ele>
        <time>2023-10-16T21:07:41.319Z</time>
      </trkpt>
      <trkpt lat="45.67862721160054" lon="17.680039554834366">
        <ele>189.06</ele>
        <time>2023-10-16T21:07:45.774Z</time>
      </trkpt>
      <trkpt lat="45.67863089963794" lon="17.680025389418006">
        <ele>188.78</ele>
        <time>2023-10-16T21:07:50.229Z</time>
      </trkpt>
      <trkpt lat="45.6786347553134" lon="17.68001088872552">
        <ele>188.51</ele>
        <time>2023-10-16T21:07:54.685Z</time>
      </trkpt>
      <trkpt lat="45.67863877862692" lon="17.67999622039497">
        <ele>188.23</ele>
        <time>2023-10-16T21:07:59.141Z</time>
      </trkpt>
      <trkpt lat="45.67864271812141" lon="17.679981216788292">
        <ele>187.96</ele>
        <time>2023-10-16T21:08:03.597Z</time>
      </trkpt>
      <trkpt lat="45.6786466576159" lon="17.67996596172452">
        <ele>187.68</ele>
        <time>2023-10-16T21:08:08.054Z</time>
      </trkpt>
      <trkpt lat="45.67865042947233" lon="17.679950455203652">
        <ele>187.4</ele>
        <time>2023-10-16T21:08:12.511Z</time>
      </trkpt>
      <trkpt lat="45.678654285147786" lon="17.67993469722569">
        <ele>187.12</ele>
        <time>2023-10-16T21:08:16.968Z</time>
      </trkpt>
      <trkpt lat="45.67865830846131" lon="17.679918771609664">
        <ele>186.85</ele>
        <time>2023-10-16T21:08:21.426Z</time>
      </trkpt>
      <trkpt lat="45.6786622479558" lon="17.67990251071751">
        <ele>186.57</ele>
        <time>2023-10-16T21:08:25.884Z</time>
      </trkpt>
      <trkpt lat="45.67866618745029" lon="17.67988591454923">
        <ele>186.29</ele>
        <time>2023-10-16T21:08:30.343Z</time>
      </trkpt>
      <trkpt lat="45.67866995930672" lon="17.679868647828698">
        <ele>186.01</ele>
        <time>2023-10-16T21:08:34.802Z</time>
      </trkpt>
      <trkpt lat="45.67867339588702" lon="17.679850962013006">
        <ele>185.73</ele>
        <time>2023-10-16T21:08:39.262Z</time>
      </trkpt>
      <trkpt lat="45.67867641337216" lon="17.679832773283124">
        <ele>185.44</ele>
        <time>2023-10-16T21:08:43.722Z</time>
      </trkpt>
      <trkpt lat="45.67867901176214" lon="17.679814249277115">
        <ele>185.16</ele>
        <time>2023-10-16T21:08:48.182Z</time>
      </trkpt>
      <trkpt lat="45.67868135869503" lon="17.67979547381401">
        <ele>184.88</ele>
        <time>2023-10-16T21:08:52.643Z</time>
      </trkpt>
      <trkpt lat="45.67868337035179" lon="17.67977636307478">
        <ele>184.6</ele>
        <time>2023-10-16T21:08:57.104Z</time>
      </trkpt>
      <trkpt lat="45.67868529818952" lon="17.679757084697485">
        <ele>184.32</ele>
        <time>2023-10-16T21:09:01.566Z</time>
      </trkpt>
      <trkpt lat="45.678686974570155" lon="17.679737471044064">
        <ele>184.04</ele>
        <time>2023-10-16T21:09:06.028Z</time>
      </trkpt>
      <trkpt lat="45.67868823185563" lon="17.67971777357161">
        <ele>183.75</ele>
        <time>2023-10-16T21:09:10.491Z</time>
      </trkpt>
      <trkpt lat="45.678688902407885" lon="17.679698076099157">
        <ele>183.47</ele>
        <time>2023-10-16T21:09:14.954Z</time>
      </trkpt>
      <trkpt lat="45.678688986226916" lon="17.679678462445736">
        <ele>183.19</ele>
        <time>2023-10-16T21:09:19.418Z</time>
      </trkpt>
      <trkpt lat="45.678688483312726" lon="17.679659016430378">
        <ele>182.91</ele>
        <time>2023-10-16T21:09:23.882Z</time>
      </trkpt>
      <trkpt lat="45.67868764512241" lon="17.67963965423405">
        <ele>182.62</ele>
        <time>2023-10-16T21:09:28.347Z</time>
      </trkpt>
      <trkpt lat="45.678686555475" lon="17.679620292037725">
        <ele>182.34</ele>
        <time>2023-10-16T21:09:32.812Z</time>
      </trkpt>
      <trkpt lat="45.67868529818952" lon="17.67960101366043">
        <ele>182.06</ele>
        <time>2023-10-16T21:09:37.277Z</time>
      </trkpt>
      <trkpt lat="45.67868378944695" lon="17.679581819102168">
        <ele>181.77</ele>
        <time>2023-10-16T21:09:41.743Z</time>
      </trkpt>
      <trkpt lat="45.67868186160922" lon="17.67956279218197">
        <ele>181.49</ele>
        <time>2023-10-16T21:09:46.209Z</time>
      </trkpt>
      <trkpt lat="45.6786794308573" lon="17.67954426817596">
        <ele>181.2</ele>
        <time>2023-10-16T21:09:50.676Z</time>
      </trkpt>
      <trkpt lat="45.678676664829254" lon="17.679526079446077">
        <ele>180.91</ele>
        <time>2023-10-16T21:09:55.143Z</time>
      </trkpt>
      <trkpt lat="45.678673731163144" lon="17.67950856126845">
        <ele>180.63</ele>
        <time>2023-10-16T21:09:59.611Z</time>
      </trkpt>
      <trkpt lat="45.678670713678" lon="17.679491629824042">
        <ele>180.34</ele>
        <time>2023-10-16T21:10:04.079Z</time>
      </trkpt>
      <trkpt lat="45.678667863830924" lon="17.679475620388985">
        <ele>180.06</ele>
        <time>2023-10-16T21:10:08.547Z</time>
      </trkpt>
      <trkpt lat="45.67866526544094" lon="17.679460616782308">
        <ele>179.77</ele>
        <time>2023-10-16T21:10:13.016Z</time>
      </trkpt>
      <trkpt lat="45.678662499412894" lon="17.679446870461106">
        <ele>179.48</ele>
        <time>2023-10-16T21:10:17.485Z</time>
      </trkpt>
      <trkpt lat="45.678660152480006" lon="17.679433962330222">
        <ele>179.2</ele>
        <time>2023-10-16T21:10:21.954Z</time>
      </trkpt>
      <trkpt lat="45.67865822464228" lon="17.679421976208687">
        <ele>178.91</ele>
        <time>2023-10-16T21:10:26.424Z</time>
      </trkpt>
      <trkpt lat="45.6786569673568" lon="17.679410576820374">
        <ele>178.62</ele>
        <time>2023-10-16T21:10:30.894Z</time>
      </trkpt>
      <trkpt lat="45.67865654826164" lon="17.679399847984314">
        <ele>178.33</ele>
        <time>2023-10-16T21:10:35.364Z</time>
      </trkpt>
      <trkpt lat="45.6786569673568" lon="17.679389286786318">
        <ele>178.04</ele>
        <time>2023-10-16T21:10:39.834Z</time>
      </trkpt>
      <trkpt lat="45.67865797318518" lon="17.679378809407353">
        <ele>177.75</ele>
        <time>2023-10-16T21:10:44.305Z</time>
      </trkpt>
      <trkpt lat="45.67865939810872" lon="17.679368164390326">
        <ele>177.46</ele>
        <time>2023-10-16T21:10:48.776Z</time>
      </trkpt>
      <trkpt lat="45.67866099067032" lon="17.679357351735234">
        <ele>177.17</ele>
        <time>2023-10-16T21:10:53.247Z</time>
      </trkpt>
      <trkpt lat="45.67866266705096" lon="17.679345533251762">
        <ele>176.87</ele>
        <time>2023-10-16T21:10:57.719Z</time>
      </trkpt>
      <trkpt lat="45.67866425961256" lon="17.67933270893991">
        <ele>176.58</ele>
        <time>2023-10-16T21:11:02.191Z</time>
      </trkpt>
      <trkpt lat="45.67866610363126" lon="17.679318711161613">
        <ele>176.28</ele>
        <time>2023-10-16T21:11:06.663Z</time>
      </trkpt>
      <trkpt lat="45.6786675285548" lon="17.67930395901203">
        <ele>175.98</ele>
        <time>2023-10-16T21:11:11.136Z</time>
      </trkpt>
      <trkpt lat="45.678668450564146" lon="17.679288536310196">
        <ele>175.68</ele>
        <time>2023-10-16T21:11:15.609Z</time>
      </trkpt>
      <trkpt lat="45.67866861820221" lon="17.679272443056107">
        <ele>175.38</ele>
        <time>2023-10-16T21:11:20.082Z</time>
      </trkpt>
      <trkpt lat="45.67866803146899" lon="17.67925593070686">
        <ele>175.07</ele>
        <time>2023-10-16T21:11:24.556Z</time>
      </trkpt>
      <trkpt lat="45.67866669036448" lon="17.679238999262452">
        <ele>174.76</ele>
        <time>2023-10-16T21:11:29.030Z</time>
      </trkpt>
      <trkpt lat="45.67866509780288" lon="17.67922181636095">
        <ele>174.46</ele>
        <time>2023-10-16T21:11:33.504Z</time>
      </trkpt>
      <trkpt lat="45.67866316996515" lon="17.679204465821385">
        <ele>174.15</ele>
        <time>2023-10-16T21:11:37.979Z</time>
      </trkpt>
      <trkpt lat="45.67866115830839" lon="17.679186947643757">
        <ele>173.84</ele>
        <time>2023-10-16T21:11:42.454Z</time>
      </trkpt>
      <trkpt lat="45.67865939810872" lon="17.679169680923223">
        <ele>173.52</ele>
        <time>2023-10-16T21:11:46.930Z</time>
      </trkpt>
      <trkpt lat="45.67865797318518" lon="17.679152581840754">
        <ele>173.21</ele>
        <time>2023-10-16T21:11:51.406Z</time>
      </trkpt>
      <trkpt lat="45.67865679971874" lon="17.67913531512022">
        <ele>172.89</ele>
        <time>2023-10-16T21:11:55.882Z</time>
      </trkpt>
      <trkpt lat="45.678656212985516" lon="17.679117964580655">
        <ele>172.57</ele>
        <time>2023-10-16T21:12:00.359Z</time>
      </trkpt>
      <trkpt lat="45.678656129166484" lon="17.67910053022206">
        <ele>172.25</ele>
        <time>2023-10-16T21:12:04.836Z</time>
      </trkpt>
      <trkpt lat="45.67865646444261" lon="17.679083179682493">
        <ele>171.93</ele>
        <time>2023-10-16T21:12:09.314Z</time>
      </trkpt>
      <trkpt lat="45.678657134994864" lon="17.67906591296196">
        <ele>171.61</ele>
        <time>2023-10-16T21:12:13.792Z</time>
      </trkpt>
      <trkpt lat="45.67865805700421" lon="17.67904881387949">
        <ele>171.28</ele>
        <time>2023-10-16T21:12:18.270Z</time>
      </trkpt>
      <trkpt lat="45.67865897901356" lon="17.679032301530242">
        <ele>170.95</ele>
        <time>2023-10-16T21:12:22.749Z</time>
      </trkpt>
      <trkpt lat="45.67865990102291" lon="17.67901612445712">
        <ele>170.62</ele>
        <time>2023-10-16T21:12:27.228Z</time>
      </trkpt>
      <trkpt lat="45.6786606553942" lon="17.679000282660127">
        <ele>170.29</ele>
        <time>2023-10-16T21:12:31.708Z</time>
      </trkpt>
      <trkpt lat="45.67866124212742" lon="17.678984692320228">
        <ele>169.95</ele>
        <time>2023-10-16T21:12:36.188Z</time>
      </trkpt>
      <trkpt lat="45.67866166122258" lon="17.67896918579936">
        <ele>169.62</ele>
        <time>2023-10-16T21:12:40.668Z</time>
      </trkpt>
      <trkpt lat="45.67866182886064" lon="17.678953930735588">
        <ele>169.28</ele>
        <time>2023-10-16T21:12:45.149Z</time>
      </trkpt>
      <trkpt lat="45.67866174504161" lon="17.678938675671816">
        <ele>168.93</ele>
        <time>2023-10-16T21:12:49.630Z</time>
      </trkpt>
      <trkpt lat="45.678661577403545" lon="17.67892375588417">
        <ele>168.59</ele>
        <time>2023-10-16T21:12:54.111Z</time>
      </trkpt>
      <trkpt lat="45.678661577403545" lon="17.678908919915557">
        <ele>168.24</ele>
        <time>2023-10-16T21:12:58.593Z</time>
      </trkpt>
      <trkpt lat="45.67866182886064" lon="17.678894083946943">
        <ele>167.89</ele>
        <time>2023-10-16T21:13:03.075Z</time>
      </trkpt>
      <trkpt lat="45.67866241559386" lon="17.678878912702203">
        <ele>167.53</ele>
        <time>2023-10-16T21:13:07.557Z</time>
      </trkpt>
      <trkpt lat="45.67866342142224" lon="17.678863322362304">
        <ele>167.18</ele>
        <time>2023-10-16T21:13:12.040Z</time>
      </trkpt>
      <trkpt lat="45.67866467870772" lon="17.678847229108214">
        <ele>166.82</ele>
        <time>2023-10-16T21:13:16.523Z</time>
      </trkpt>
      <trkpt lat="45.67866610363126" lon="17.678830632939935">
        <ele>166.46</ele>
        <time>2023-10-16T21:13:21.007Z</time>
      </trkpt>
      <trkpt lat="45.678667947649956" lon="17.67881378531456">
        <ele>166.1</ele>
        <time>2023-10-16T21:13:25.491Z</time>
      </trkpt>
      <trkpt lat="45.67866995930672" lon="17.67879677005112">
        <ele>165.73</ele>
        <time>2023-10-16T21:13:29.975Z</time>
      </trkpt>
      <trkpt lat="45.67867205478251" lon="17.678779754787683">
        <ele>165.37</ele>
        <time>2023-10-16T21:13:34.460Z</time>
      </trkpt>
      <trkpt lat="45.6786741502583" lon="17.67876240424812">
        <ele>165.0</ele>
        <time>2023-10-16T21:13:38.945Z</time>
      </trkpt>
      <trkpt lat="45.67867607809603" lon="17.678744634613395">
        <ele>164.64</ele>
        <time>2023-10-16T21:13:43.431Z</time>
      </trkpt>
      <trkpt lat="45.6786775868386" lon="17.678726529702544">
        <ele>164.27</ele>
        <time>2023-10-16T21:13:47.917Z</time>
      </trkpt>
      <trkpt lat="45.67867850884795" lon="17.678708340972662">
        <ele>163.9</ele>
        <time>2023-10-16T21:13:52.403Z</time>
      </trkpt>
      <trkpt lat="45.67867876030505" lon="17.678690068423748">
        <ele>163.53</ele>
        <time>2023-10-16T21:13:56.890Z</time>
      </trkpt>
      <trkpt lat="45.67867842502892" lon="17.678671879693866">
        <ele>163.16</ele>
        <time>2023-10-16T21:14:01.377Z</time>
      </trkpt>
      <trkpt lat="45.678677670657635" lon="17.678653690963984">
        <ele>162.8</ele>
        <time>2023-10-16T21:14:05.865Z</time>
      </trkpt>
      <trkpt lat="45.67867641337216" lon="17.678635586053133">
        <ele>162.43</ele>
        <time>2023-10-16T21:14:10.353Z</time>
      </trkpt>
      <trkpt lat="45.678674820810556" lon="17.678617732599378">
        <ele>162.06</ele>
        <time>2023-10-16T21:14:14.842Z</time>
      </trkpt>
      <trkpt lat="45.67867297679186" lon="17.678600130602717">
        <ele>161.69</ele>
        <time>2023-10-16T21:14:19.331Z</time>
      </trkpt>
      <trkpt lat="45.67867113277316" lon="17.678582780063152">
        <ele>161.32</ele>
        <time>2023-10-16T21:14:23.820Z</time>
      </trkpt>
      <trkpt lat="45.6786691211164" lon="17.678566183894873">
        <ele>160.95</ele>
        <time>2023-10-16T21:14:28.310Z</time>
      </trkpt>
      <trkpt lat="45.6786672770977" lon="17.678550258278847">
        <ele>160.59</ele>
        <time>2023-10-16T21:14:32.800Z</time>
      </trkpt>
      <trkpt lat="45.678665516898036" lon="17.678534919396043">
        <ele>160.23</ele>
        <time>2023-10-16T21:14:37.291Z</time>
      </trkpt>
      <trkpt lat="45.67866417579353" lon="17.678519915789366">
        <ele>159.87</ele>
        <time>2023-10-16T21:14:41.782Z</time>
      </trkpt>
      <trkpt lat="45.678663086146116" lon="17.67850491218269">
        <ele>159.51</ele>
        <time>2023-10-16T21:14:46.273Z</time>
      </trkpt>
      <trkpt lat="45.67866216413677" lon="17.67848974093795">
        <ele>159.15</ele>
        <time>2023-10-16T21:14:50.765Z</time>
      </trkpt>
      <trkpt lat="45.67866140976548" lon="17.67847423441708">
        <ele>158.8</ele>
        <time>2023-10-16T21:14:55.257Z</time>
      </trkpt>
      <trkpt lat="45.6786606553942" lon="17.678458224982023">
        <ele>158.45</ele>
        <time>2023-10-16T21:14:59.749Z</time>
      </trkpt>
      <trkpt lat="45.67865981720388" lon="17.678441544994712">
        <ele>158.1</ele>
        <time>2023-10-16T21:15:04.242Z</time>
      </trkpt>
      <trkpt lat="45.678658559918404" lon="17.678424026817083">
        <ele>157.75</ele>
        <time>2023-10-16T21:15:08.735Z</time>
      </trkpt>
      <trkpt lat="45.6786569673568" lon="17.678405502811074">
        <ele>157.41</ele>
        <time>2023-10-16T21:15:13.229Z</time>
      </trkpt>
      <trkpt lat="45.678655207157135" lon="17.67838572151959">
        <ele>157.07</ele>
        <time>2023-10-16T21:15:17.723Z</time>
      </trkpt>
      <trkpt lat="45.6786535307765" lon="17.67836468294263">
        <ele>156.74</ele>
        <time>2023-10-16T21:15:22.218Z</time>
      </trkpt>
      <trkpt lat="45.67865202203393" lon="17.67834221944213">
        <ele>156.4</ele>
        <time>2023-10-16T21:15:26.713Z</time>
      </trkpt>
      <trkpt lat="45.67865110002458" lon="17.67831833101809">
        <ele>156.07</ele>
        <time>2023-10-16T21:15:31.209Z</time>
      </trkpt>
      <trkpt lat="45.678650764748454" lon="17.678293520584702">
        <ele>155.75</ele>
        <time>2023-10-16T21:15:35.705Z</time>
      </trkpt>
      <trkpt lat="45.67865118384361" lon="17.678268291056156">
        <ele>155.43</ele>
        <time>2023-10-16T21:15:40.202Z</time>
      </trkpt>
      <trkpt lat="45.67865235731006" lon="17.678242893889546">
        <ele>155.12</ele>
        <time>2023-10-16T21:15:44.699Z</time>
      </trkpt>
      <trkpt lat="45.678654201328754" lon="17.678217496722937">
        <ele>154.81</ele>
        <time>2023-10-16T21:15:49.197Z</time>
      </trkpt>
      <trkpt lat="45.6786569673568" lon="17.67819268628955">
        <ele>154.51</ele>
        <time>2023-10-16T21:15:53.696Z</time>
      </trkpt>
      <trkpt lat="45.67866048775613" lon="17.67816921696067">
        <ele>154.21</ele>
        <time>2023-10-16T21:15:58.195Z</time>
      </trkpt>
      <trkpt lat="45.67866417579353" lon="17.67814784310758">
        <ele>153.93</ele>
        <time>2023-10-16T21:16:02.695Z</time>
      </trkpt>
      <trkpt lat="45.6786675285548" lon="17.67812873236835">
        <ele>153.65</ele>
        <time>2023-10-16T21:16:07.195Z</time>
      </trkpt>
      <trkpt lat="45.678670294582844" lon="17.678111968562007">
        <ele>153.38</ele>
        <time>2023-10-16T21:16:11.696Z</time>
      </trkpt>
      <trkpt lat="45.678672306239605" lon="17.678097719326615">
        <ele>153.12</ele>
        <time>2023-10-16T21:16:16.197Z</time>
      </trkpt>
      <trkpt lat="45.67867364734411" lon="17.67808564938605">
        <ele>152.87</ele>
        <time>2023-10-16T21:16:20.698Z</time>
      </trkpt>
      <trkpt lat="45.6786744017154" lon="17.678075591102242">
        <ele>152.62</ele>
        <time>2023-10-16T21:16:25.199Z</time>
      </trkpt>
      <trkpt lat="45.67867465317249" lon="17.67806720919907">
        <ele>152.39</ele>
        <time>2023-10-16T21:16:29.701Z</time>
      </trkpt>
      <trkpt lat="45.67867465317249" lon="17.678060671314597">
        <ele>152.16</ele>
        <time>2023-10-16T21:16:34.203Z</time>
      </trkpt>
      <trkpt lat="45.678674234077334" lon="17.67805597744882">
        <ele>151.94</ele>
        <time>2023-10-16T21:16:38.705Z</time>
      </trkpt>
      <trkpt lat="45.67867364734411" lon="17.678052624687552">
        <ele>151.73</ele>
        <time>2023-10-16T21:16:43.207Z</time>
      </trkpt>
      <trkpt lat="45.678672809153795" lon="17.678050277754664">
        <ele>151.53</ele>
        <time>2023-10-16T21:16:47.709Z</time>
      </trkpt>
      <trkpt lat="45.67867222242057" lon="17.67804818227887">
        <ele>151.33</ele>
        <time>2023-10-16T21:16:52.211Z</time>
      </trkpt>
      <trkpt lat="45.67867197096348" lon="17.67804617062211">
        <ele>151.15</ele>
        <time>2023-10-16T21:16:56.713Z</time>
      </trkpt>
      <trkpt lat="45.67867205478251" lon="17.678044578060508">
        <ele>150.97</ele>
        <time>2023-10-16T21:17:01.215Z</time>
      </trkpt>
      <trkpt lat="45.67867247387767" lon="17.678043069317937">
        <ele>150.8</ele>
        <time>2023-10-16T21:17:05.717Z</time>
      </trkpt>
      <trkpt lat="45.67867297679186" lon="17.678042063489556">
        <ele>150.63</ele>
        <time>2023-10-16T21:17:10.219Z</time>
      </trkpt>
      <trkpt lat="45.67867347970605" lon="17.67804181203246">
        <ele>150.48</ele>
        <time>2023-10-16T21:17:14.721Z</time>
      </trkpt>
      <trkpt lat="45.678673814982176" lon="17.678042063489556">
        <ele>150.33</ele>
        <time>2023-10-16T21:17:19.223Z</time>
      </trkpt>
      <trkpt lat="45.678673814982176" lon="17.67804265022278">
        <ele>150.19</ele>
        <time>2023-10-16T21:17:23.725Z</time>
      </trkpt>
      <trkpt lat="45.67867347970605" lon="17.678043488413095">
        <ele>150.06</ele>
        <time>2023-10-16T21:17:28.227Z</time>
      </trkpt>
      <trkpt lat="45.67867239005864" lon="17.678044410422444">
        <ele>149.94</ele>
        <time>2023-10-16T21:17:32.729Z</time>
      </trkpt>
      <trkpt lat="45.678670881316066" lon="17.67804524861276">
        <ele>149.82</ele>
        <time>2023-10-16T21:17:37.231Z</time>
      </trkpt>
      <trkpt lat="45.67866903729737" lon="17.67804566770792">
        <ele>149.71</ele>
        <time>2023-10-16T21:17:41.733Z</time>
      </trkpt>
      <trkpt lat="45.67866702564061" lon="17.67804566770792">
        <ele>149.61</ele>
        <time>2023-10-16T21:17:46.236Z</time>
      </trkpt>
      <trkpt lat="45.67866476252675" lon="17.678045080974698">
        <ele>149.51</ele>
        <time>2023-10-16T21:17:50.739Z</time>
      </trkpt>
      <trkpt lat="45.67866241559386" lon="17.678043907508254">
        <ele>149.42</ele>
        <time>2023-10-16T21:17:55.242Z</time>
      </trkpt>
      <trkpt lat="45.67866023629904" lon="17.67804223112762">
        <ele>149.34</ele>
        <time>2023-10-16T21:17:59.745Z</time>
      </trkpt>
      <trkpt lat="45.67865830846131" lon="17.678040051832795">
        <ele>149.26</ele>
        <time>2023-10-16T21:18:04.248Z</time>
      </trkpt>
      <trkpt lat="45.678656632080674" lon="17.678037537261844">
        <ele>149.19</ele>
        <time>2023-10-16T21:18:08.751Z</time>
      </trkpt>
      <trkpt lat="45.67865529097617" lon="17.678034687414765">
        <ele>149.13</ele>
        <time>2023-10-16T21:18:13.254Z</time>
      </trkpt>
      <trkpt lat="45.67865411750972" lon="17.67803200520575">
        <ele>149.07</ele>
        <time>2023-10-16T21:18:17.757Z</time>
      </trkpt>
      <trkpt lat="45.678653195500374" lon="17.678029825910926">
        <ele>149.02</ele>
        <time>2023-10-16T21:18:22.260Z</time>
      </trkpt>
      <trkpt lat="45.67865260876715" lon="17.67802806571126">
        <ele>148.98</ele>
        <time>2023-10-16T21:18:26.763Z</time>
      </trkpt>
      <trkpt lat="45.67865244112909" lon="17.67802705988288">
        <ele>148.94</ele>
        <time>2023-10-16T21:18:31.266Z</time>
      </trkpt>
      <trkpt lat="45.678652273491025" lon="17.67802664078772">
        <ele>148.91</ele>
        <time>2023-10-16T21:18:35.769Z</time>
      </trkpt>
      <trkpt lat="45.67865210585296" lon="17.678026892244816">
        <ele>148.88</ele>
        <time>2023-10-16T21:18:40.272Z</time>
      </trkpt>
      <trkpt lat="45.67865202203393" lon="17.678027898073196">
        <ele>148.86</ele>
        <time>2023-10-16T21:18:44.775Z</time>
      </trkpt>
      <trkpt lat="45.678651351481676" lon="17.6780294906348">
        <ele>148.85</ele>
        <time>2023-10-16T21:18:49.278Z</time>
      </trkpt>
      <trkpt lat="45.678650261834264" lon="17.678031837567687">
        <ele>148.83</ele>
        <time>2023-10-16T21:18:53.781Z</time>
      </trkpt>
      <trkpt lat="45.67864858545363" lon="17.678034519776702">
        <ele>148.83</ele>
        <time>2023-10-16T21:18:58.284Z</time>
      </trkpt>
      <trkpt lat="45.67864632233977" lon="17.67803778871894">
        <ele>148.83</ele>
        <time>2023-10-16T21:19:02.788Z</time>
      </trkpt>
      <trkpt lat="45.67864372394979" lon="17.678040890023112">
        <ele>148.83</ele>
        <time>2023-10-16T21:19:07.292Z</time>
      </trkpt>
      <trkpt lat="45.67864070646465" lon="17.678043907508254">
        <ele>148.83</ele>
        <time>2023-10-16T21:19:11.796Z</time>
      </trkpt>
      <trkpt lat="45.67863726988435" lon="17.678046841174364">
        <ele>148.84</ele>
        <time>2023-10-16T21:19:16.300Z</time>
      </trkpt>
      <trkpt lat="45.67863333038986" lon="17.67804952338338">
        <ele>148.86</ele>
        <time>2023-10-16T21:19:20.804Z</time>
      </trkpt>
      <trkpt lat="45.678629307076335" lon="17.678052373230457">
        <ele>148.87</ele>
        <time>2023-10-16T21:19:25.308Z</time>
      </trkpt>
      <trkpt lat="45.67862503230572" lon="17.678055223077536">
        <ele>148.89</ele>
        <time>2023-10-16T21:19:29.812Z</time>
      </trkpt>
      <trkpt lat="45.67862058989704" lon="17.67805832438171">
        <ele>148.92</ele>
        <time>2023-10-16T21:19:34.317Z</time>
      </trkpt>
      <trkpt lat="45.678616063669324" lon="17.678061677142978">
        <ele>148.94</ele>
        <time>2023-10-16T21:19:38.822Z</time>
      </trkpt>
      <trkpt lat="45.67861162126064" lon="17.678065365180373">
        <ele>148.97</ele>
        <time>2023-10-16T21:19:43.327Z</time>
      </trkpt>
      <trkpt lat="45.67860743030906" lon="17.678069388493896">
        <ele>149.0</ele>
        <time>2023-10-16T21:19:47.832Z</time>
      </trkpt>
      <trkpt lat="45.67860374227166" lon="17.67807349562645">
        <ele>149.03</ele>
        <time>2023-10-16T21:19:52.337Z</time>
      </trkpt>
      <trkpt lat="45.67860064096749" lon="17.678077686578035">
        <ele>149.07</ele>
        <time>2023-10-16T21:19:56.842Z</time>
      </trkpt>
      <trkpt lat="45.67859821021557" lon="17.67808187752962">
        <ele>149.11</ele>
        <time>2023-10-16T21:20:01.347Z</time>
      </trkpt>
      <trkpt lat="45.67859636619687" lon="17.678085984662175">
        <ele>149.15</ele>
        <time>2023-10-16T21:20:05.853Z</time>
      </trkpt>
      <trkpt lat="45.678595108911395" lon="17.67809009179473">
        <ele>149.19</ele>
        <time>2023-10-16T21:20:10.359Z</time>
      </trkpt>
      <trkpt lat="45.67859401926398" lon="17.678093947470188">
        <ele>149.23</ele>
        <time>2023-10-16T21:20:14.865Z</time>
      </trkpt>
      <trkpt lat="45.678593600168824" lon="17.678097216412425">
        <ele>149.27</ele>
        <time>2023-10-16T21:20:19.371Z</time>
      </trkpt>
      <trkpt lat="45.67859385162592" lon="17.67809998244047">
        <ele>149.32</ele>
        <time>2023-10-16T21:20:23.877Z</time>
      </trkpt>
      <trkpt lat="45.67859435454011" lon="17.678102580830455">
        <ele>149.36</ele>
        <time>2023-10-16T21:20:28.383Z</time>
      </trkpt>
      <trkpt lat="45.67859477363527" lon="17.678105011582375">
        <ele>149.41</ele>
        <time>2023-10-16T21:20:32.889Z</time>
      </trkpt>
      <trkpt lat="45.67859502509236" lon="17.67810727469623">
        <ele>149.45</ele>
        <time>2023-10-16T21:20:37.395Z</time>
      </trkpt>
      <trkpt lat="45.67859443835914" lon="17.678109537810087">
        <ele>149.5</ele>
        <time>2023-10-16T21:20:41.901Z</time>
      </trkpt>
      <trkpt lat="45.6785932648927" lon="17.678111717104912">
        <ele>149.55</ele>
        <time>2023-10-16T21:20:46.407Z</time>
      </trkpt>
      <trkpt lat="45.67859158851206" lon="17.678113812580705">
        <ele>149.59</ele>
        <time>2023-10-16T21:20:50.913Z</time>
      </trkpt>
      <trkpt lat="45.67858949303627" lon="17.67811599187553">
        <ele>149.64</ele>
        <time>2023-10-16T21:20:55.419Z</time>
      </trkpt>
      <trkpt lat="45.67858689464629" lon="17.678118087351322">
        <ele>149.69</ele>
        <time>2023-10-16T21:20:59.925Z</time>
      </trkpt>
      <trkpt lat="45.67858396098018" lon="17.678120099008083">
        <ele>149.73</ele>
        <time>2023-10-16T21:21:04.432Z</time>
      </trkpt>
      <trkpt lat="45.67858018912375" lon="17.678122110664845">
        <ele>149.78</ele>
        <time>2023-10-16T21:21:08.939Z</time>
      </trkpt>
      <trkpt lat="45.67857574671507" lon="17.678124038502574">
        <ele>149.82</ele>
        <time>2023-10-16T21:21:13.446Z</time>
      </trkpt>
      <trkpt lat="45.678570633754134" lon="17.678125463426113">
        <ele>149.86</ele>
        <time>2023-10-16T21:21:17.953Z</time>
      </trkpt>
      <trkpt lat="45.678565269336104" lon="17.6781262177974">
        <ele>149.91</ele>
        <time>2023-10-16T21:21:22.460Z</time>
      </trkpt>
      <trkpt lat="45.67855956964195" lon="17.67812630161643">
        <ele>149.95</ele>
        <time>2023-10-16T21:21:26.967Z</time>
      </trkpt>
      <trkpt lat="45.67855378612876" lon="17.67812579870224">
        <ele>149.99</ele>
        <time>2023-10-16T21:21:31.475Z</time>
      </trkpt>
      <trkpt lat="45.67854783497751" lon="17.67812479287386">
        <ele>150.03</ele>
        <time>2023-10-16T21:21:35.983Z</time>
      </trkpt>
      <trkpt lat="45.67854171618819" lon="17.67812336795032">
        <ele>150.07</ele>
        <time>2023-10-16T21:21:40.491Z</time>
      </trkpt>
      <trkpt lat="45.678535513579845" lon="17.67812144011259">
        <ele>150.1</ele>
        <time>2023-10-16T21:21:44.999Z</time>
      </trkpt>
      <trkpt lat="45.67852922715247" lon="17.678119176998734">
        <ele>150.14</ele>
        <time>2023-10-16T21:21:49.507Z</time>
      </trkpt>
      <trkpt lat="45.67852394655347" lon="17.678117249161005">
        <ele>150.17</ele>
        <time>2023-10-16T21:21:54.016Z</time>
      </trkpt>
      <trkpt lat="45.67851958796382" lon="17.678115824237466">
        <ele>150.21</ele>
        <time>2023-10-16T21:21:58.525Z</time>
      </trkpt>
      <trkpt lat="45.67851623520255" lon="17.67811498604715">
        <ele>150.24</ele>
        <time>2023-10-16T21:22:03.034Z</time>
      </trkpt>
      <trkpt lat="45.67851338535547" lon="17.678113812580705">
        <ele>150.27</ele>
        <time>2023-10-16T21:22:07.543Z</time>
      </trkpt>
      <trkpt lat="45.678511038422585" lon="17.67811255529523">
        <ele>150.3</ele>
        <time>2023-10-16T21:22:12.052Z</time>
      </trkpt>
      <trkpt lat="45.67850927822292" lon="17.678111381828785">
        <ele>150.33</ele>
        <time>2023-10-16T21:22:16.561Z</time>
      </trkpt>
      <trkpt lat="45.678508104756474" lon="17.678110292181373">
        <ele>150.36</ele>
        <time>2023-10-16T21:22:21.070Z</time>
      </trkpt>
      <trkpt lat="45.67850735038519" lon="17.678109286352992">
        <ele>150.39</ele>
        <time>2023-10-16T21:22:25.579Z</time>
      </trkpt>
      <trkpt lat="45.678507098928094" lon="17.678108364343643">
        <ele>150.42</ele>
        <time>2023-10-16T21:22:30.088Z</time>
      </trkpt>
      <trkpt lat="45.678507182747126" lon="17.678107442334294">
        <ele>150.44</ele>
        <time>2023-10-16T21:22:34.597Z</time>
      </trkpt>
      <trkpt lat="45.67850743420422" lon="17.678106520324945">
        <ele>150.47</ele>
        <time>2023-10-16T21:22:39.106Z</time>
      </trkpt>
      <trkpt lat="45.67850735038519" lon="17.67810526303947">
        <ele>150.49</ele>
        <time>2023-10-16T21:22:43.615Z</time>
      </trkpt>
      <trkpt lat="45.67850676365197" lon="17.678103419020772">
        <ele>150.51</ele>
        <time>2023-10-16T21:22:48.124Z</time>
      </trkpt>
      <trkpt lat="45.67850584164262" lon="17.678101155906916">
        <ele>150.53</ele>
        <time>2023-10-16T21:22:52.633Z</time>
      </trkpt>
      <trkpt lat="45.67850491963327" lon="17.678099144250154">
        <ele>150.55</ele>
        <time>2023-10-16T21:22:57.142Z</time>
      </trkpt>
      <trkpt lat="45.67850441671908" lon="17.678097132593393">
        <ele>150.57</ele>
        <time>2023-10-16T21:23:01.652Z</time>
      </trkpt>
      <trkpt lat="45.67850450053811" lon="17.678095204755664">
        <ele>150.58</ele>
        <time>2023-10-16T21:23:06.162Z</time>
      </trkpt>
      <trkpt lat="45.678505171090364" lon="17.678093276917934">
        <ele>150.6</ele>
        <time>2023-10-16T21:23:10.672Z</time>
      </trkpt>
      <trkpt lat="45.67850642837584" lon="17.678091432899237">
        <ele>150.61</ele>
        <time>2023-10-16T21:23:15.182Z</time>
      </trkpt>
      <trkpt lat="45.678508188575506" lon="17.67808958888054">
        <ele>150.62</ele>
        <time>2023-10-16T21:23:19.692Z</time>
      </trkpt>
      <trkpt lat="45.67851045168936" lon="17.678087828680873">
        <ele>150.64</ele>
        <time>2023-10-16T21:23:24.202Z</time>
      </trkpt>
      <trkpt lat="45.67851321771741" lon="17.67808615230024">
        <ele>150.65</ele>
        <time>2023-10-16T21:23:28.712Z</time>
      </trkpt>
      <trkpt lat="45.67851631902158" lon="17.678084559738636">
        <ele>150.66</ele>
        <time>2023-10-16T21:23:33.222Z</time>
      </trkpt>
      <trkpt lat="45.67851975560188" lon="17.678083050996065">
        <ele>150.66</ele>
        <time>2023-10-16T21:23:37.732Z</time>
      </trkpt>
      <trkpt lat="45.67852361127734" lon="17.678081542253494">
        <ele>150.67</ele>
        <time>2023-10-16T21:23:42.242Z</time>
      </trkpt>
      <trkpt lat="45.67852780222893" lon="17.678080201148987">
        <ele>150.68</ele>
        <time>2023-10-16T21:23:46.752Z</time>
      </trkpt>
      <trkpt lat="45.67853199318051" lon="17.678079195320606">
        <ele>150.68</ele>
        <time>2023-10-16T21:23:51.263Z</time>
      </trkpt>
      <trkpt lat="45.67853584885597" lon="17.678078189492226">
        <ele>150.68</ele>
        <time>2023-10-16T21:23:55.774Z</time>
      </trkpt>
      <trkpt lat="45.67853953689337" lon="17.678077267482877">
        <ele>150.69</ele>
        <time>2023-10-16T21:24:00.285Z</time>
      </trkpt>
      <trkpt lat="45.67854297347367" lon="17.67807642929256">
        <ele>150.69</ele>
        <time>2023-10-16T21:24:04.796Z</time>
      </trkpt>
      <trkpt lat="45.678546242415905" lon="17.678075591102242">
        <ele>150.69</ele>
        <time>2023-10-16T21:24:09.307Z</time>
      </trkpt>
      <trkpt lat="45.67854951135814" lon="17.678074669092894">
        <ele>150.68</ele>
        <time>2023-10-16T21:24:13.818Z</time>
      </trkpt>
      <trkpt lat="45.67855194211006" lon="17.67807357944548">
        <ele>150.68</ele>
        <time>2023-10-16T21:24:18.329Z</time>
      </trkpt>
      <trkpt lat="45.678553534671664" lon="17.678072322160006">
        <ele>150.67</ele>
        <time>2023-10-16T21:24:22.840Z</time>
      </trkpt>
      <trkpt lat="45.67855428904295" lon="17.678070981055498">
        <ele>150.67</ele>
        <time>2023-10-16T21:24:27.351Z</time>
      </trkpt>
      <trkpt lat="45.67855437286198" lon="17.678069388493896">
        <ele>150.66</ele>
        <time>2023-10-16T21:24:31.862Z</time>
      </trkpt>
      <trkpt lat="45.67855378612876" lon="17.67806771211326">
        <ele>150.65</ele>
        <time>2023-10-16T21:24:36.373Z</time>
      </trkpt>
      <trkpt lat="45.678552528843284" lon="17.678065868094563">
        <ele>150.64</ele>
        <time>2023-10-16T21:24:40.885Z</time>
      </trkpt>
      <trkpt lat="45.678550601005554" lon="17.678063940256834">
        <ele>150.63</ele>
        <time>2023-10-16T21:24:45.397Z</time>
      </trkpt>
      <trkpt lat="45.6785480864346" lon="17.678061928600073">
        <ele>150.61</ele>
        <time>2023-10-16T21:24:49.909Z</time>
      </trkpt>
      <trkpt lat="45.67854498513043" lon="17.67805983312428">
        <ele>150.6</ele>
        <time>2023-10-16T21:24:54.421Z</time>
      </trkpt>
      <trkpt lat="45.678541297093034" lon="17.678057737648487">
        <ele>150.58</ele>
        <time>2023-10-16T21:24:58.933Z</time>
      </trkpt>
      <trkpt lat="45.678537022322416" lon="17.678055725991726">
        <ele>150.57</ele>
        <time>2023-10-16T21:25:03.445Z</time>
      </trkpt>
      <trkpt lat="45.67853316664696" lon="17.67805396579206">
        <ele>150.55</ele>
        <time>2023-10-16T21:25:07.957Z</time>
      </trkpt>
      <trkpt lat="45.678529562428594" lon="17.678052373230457">
        <ele>150.53</ele>
        <time>2023-10-16T21:25:12.469Z</time>
      </trkpt>
      <trkpt lat="45.67852637730539" lon="17.67805103212595">
        <ele>150.51</ele>
        <time>2023-10-16T21:25:16.981Z</time>
      </trkpt>
      <trkpt lat="45.67852352745831" lon="17.678049774840474">
        <ele>150.49</ele>
        <time>2023-10-16T21:25:21.494Z</time>
      </trkpt>
      <trkpt lat="45.678521264344454" lon="17.678048769012094">
        <ele>150.47</ele>
        <time>2023-10-16T21:25:26.007Z</time>
      </trkpt>
      <trkpt lat="45.67851975560188" lon="17.678047847002745">
        <ele>150.45</ele>
        <time>2023-10-16T21:25:30.520Z</time>
      </trkpt>
      <trkpt lat="45.678518917411566" lon="17.678046924993396">
        <ele>150.42</ele>
        <time>2023-10-16T21:25:35.033Z</time>
      </trkpt>
      <trkpt lat="45.67851866595447" lon="17.67804617062211">
        <ele>150.4</ele>
        <time>2023-10-16T21:25:39.546Z</time>
      </trkpt>
      <trkpt lat="45.67851916886866" lon="17.678045332431793">
        <ele>150.37</ele>
        <time>2023-10-16T21:25:44.059Z</time>
      </trkpt>
      <trkpt lat="45.67852017469704" lon="17.678044410422444">
        <ele>150.35</ele>
        <time>2023-10-16T21:25:48.572Z</time>
      </trkpt>
      <trkpt lat="45.678521767258644" lon="17.678043236956">
        <ele>150.32</ele>
        <time>2023-10-16T21:25:53.085Z</time>
      </trkpt>
      <trkpt lat="45.67852411419153" lon="17.678041560575366">
        <ele>150.29</ele>
        <time>2023-10-16T21:25:57.598Z</time>
      </trkpt>
      <trkpt lat="45.6785274669528" lon="17.67803938128054">
        <ele>150.27</ele>
        <time>2023-10-16T21:26:02.111Z</time>
      </trkpt>
      <trkpt lat="45.67853165790439" lon="17.678036615252495">
        <ele>150.24</ele>
        <time>2023-10-16T21:26:06.624Z</time>
      </trkpt>
      <trkpt lat="45.67853685468435" lon="17.67803343012929">
        <ele>150.21</ele>
        <time>2023-10-16T21:26:11.137Z</time>
      </trkpt>
      <trkpt lat="45.67854272201657" lon="17.678029909729958">
        <ele>150.18</ele>
        <time>2023-10-16T21:26:15.651Z</time>
      </trkpt>
      <trkpt lat="45.67854884080589" lon="17.678026389330626">
        <ele>150.15</ele>
        <time>2023-10-16T21:26:20.165Z</time>
      </trkpt>
      <trkpt lat="45.67855529487133" lon="17.67802270129323">
        <ele>150.11</ele>
        <time>2023-10-16T21:26:24.679Z</time>
      </trkpt>
      <trkpt lat="45.67856216803193" lon="17.678018510341644">
        <ele>150.08</ele>
        <time>2023-10-16T21:26:29.193Z</time>
      </trkpt>
      <trkpt lat="45.67856887355447" lon="17.678014067932963">
        <ele>150.05</ele>
        <time>2023-10-16T21:26:33.708Z</time>
      </trkpt>
      <trkpt lat="45.67857532761991" lon="17.678009374067187">
        <ele>150.01</ele>
        <time>2023-10-16T21:26:38.223Z</time>
      </trkpt>
      <trkpt lat="45.67858153022826" lon="17.67800459638238">
        <ele>149.97</ele>
        <time>2023-10-16T21:26:42.738Z</time>
      </trkpt>
      <trkpt lat="45.67858756519854" lon="17.678000321611762">
        <ele>149.94</ele>
        <time>2023-10-16T21:26:47.253Z</time>
      </trkpt>
      <trkpt lat="45.678593181073666" lon="17.677996549755335">
        <ele>149.9</ele>
        <time>2023-10-16T21:26:51.769Z</time>
      </trkpt>
      <trkpt lat="45.67859821021557" lon="17.67799336463213">
        <ele>149.86</ele>
        <time>2023-10-16T21:26:56.285Z</time>
      </trkpt>
      <trkpt lat="45.67860265262425" lon="17.677990598604083">
        <ele>149.82</ele>
        <time>2023-10-16T21:27:00.801Z</time>
      </trkpt>
      <trkpt lat="45.67860642448068" lon="17.67798808403313">
        <ele>149.78</ele>
        <time>2023-10-16T21:27:05.317Z</time>
      </trkpt>
      <trkpt lat="45.67860960960388" lon="17.677985737100244">
        <ele>149.74</ele>
        <time>2023-10-16T21:27:09.833Z</time>
      </trkpt>
      <trkpt lat="45.67861245945096" lon="17.67798355780542">
        <ele>149.69</ele>
        <time>2023-10-16T21:27:14.349Z</time>
      </trkpt>
      <trkpt lat="45.67861497402191" lon="17.677981462329626">
        <ele>149.65</ele>
        <time>2023-10-16T21:27:18.865Z</time>
      </trkpt>
      <trkpt lat="45.678617572411895" lon="17.67797970212996">
        <ele>149.61</ele>
        <time>2023-10-16T21:27:23.381Z</time>
      </trkpt>
      <trkpt lat="45.67862033843994" lon="17.677978109568357">
        <ele>149.56</ele>
        <time>2023-10-16T21:27:27.898Z</time>
      </trkpt>
      <trkpt lat="45.67862318828702" lon="17.67797685228288">
        <ele>149.52</ele>
        <time>2023-10-16T21:27:32.415Z</time>
      </trkpt>
      <trkpt lat="45.67862561903894" lon="17.677975511178374">
        <ele>149.47</ele>
        <time>2023-10-16T21:27:36.932Z</time>
      </trkpt>
      <trkpt lat="45.67862771451473" lon="17.67797433771193">
        <ele>149.42</ele>
        <time>2023-10-16T21:27:41.449Z</time>
      </trkpt>
      <trkpt lat="45.67862955853343" lon="17.67797341570258">
        <ele>149.38</ele>
        <time>2023-10-16T21:27:45.966Z</time>
      </trkpt>
      <trkpt lat="45.678631067276" lon="17.677972577512264">
        <ele>149.33</ele>
        <time>2023-10-16T21:27:50.483Z</time>
      </trkpt>
      <trkpt lat="45.67863240838051" lon="17.67797182314098">
        <ele>149.28</ele>
        <time>2023-10-16T21:27:55.000Z</time>
      </trkpt>
      <trkpt lat="45.67863358184695" lon="17.677971152588725">
        <ele>149.23</ele>
        <time>2023-10-16T21:27:59.517Z</time>
      </trkpt>
      <trkpt lat="45.67863458767533" lon="17.6779708173126">
        <ele>149.18</ele>
        <time>2023-10-16T21:28:04.034Z</time>
      </trkpt>
      <trkpt lat="45.67863534204662" lon="17.6779708173126">
        <ele>149.13</ele>
        <time>2023-10-16T21:28:08.551Z</time>
      </trkpt>
      <trkpt lat="45.67863576114178" lon="17.677971068769693">
        <ele>149.08</ele>
        <time>2023-10-16T21:28:13.068Z</time>
      </trkpt>
      <trkpt lat="45.678636096417904" lon="17.677971571683884">
        <ele>149.03</ele>
        <time>2023-10-16T21:28:17.585Z</time>
      </trkpt>
      <trkpt lat="45.678636347875" lon="17.677972242236137">
        <ele>148.97</ele>
        <time>2023-10-16T21:28:22.102Z</time>
      </trkpt>
      <trkpt lat="45.67863651551306" lon="17.677972996607423">
        <ele>148.92</ele>
        <time>2023-10-16T21:28:26.619Z</time>
      </trkpt>
      <trkpt lat="45.678636683151126" lon="17.67797375097871">
        <ele>148.87</ele>
        <time>2023-10-16T21:28:31.136Z</time>
      </trkpt>
      <trkpt lat="45.67863701842725" lon="17.67797433771193">
        <ele>148.81</ele>
        <time>2023-10-16T21:28:35.653Z</time>
      </trkpt>
      <trkpt lat="45.67863735370338" lon="17.677974924445152">
        <ele>148.76</ele>
        <time>2023-10-16T21:28:40.170Z</time>
      </trkpt>
      <trkpt lat="45.67863785661757" lon="17.677975511178374">
        <ele>148.71</ele>
        <time>2023-10-16T21:28:44.687Z</time>
      </trkpt>
      <trkpt lat="45.67863835953176" lon="17.677975930273533">
        <ele>148.65</ele>
        <time>2023-10-16T21:28:49.204Z</time>
      </trkpt>
      <trkpt lat="45.67863886244595" lon="17.67797626554966">
        <ele>148.6</ele>
        <time>2023-10-16T21:28:53.721Z</time>
      </trkpt>
      <trkpt lat="45.67863944917917" lon="17.677976517006755">
        <ele>148.54</ele>
        <time>2023-10-16T21:28:58.238Z</time>
      </trkpt>
      <trkpt lat="45.67863986827433" lon="17.677976517006755">
        <ele>148.48</ele>
        <time>2023-10-16T21:29:02.755Z</time>
      </trkpt>
      <trkpt lat="45.678640119731426" lon="17.67797576263547">
        <ele>148.43</ele>
        <time>2023-10-16T21:29:07.272Z</time>
      </trkpt>
      <trkpt lat="45.67864020355046" lon="17.677974086254835">
        <ele>148.37</ele>
        <time>2023-10-16T21:29:11.789Z</time>
      </trkpt>
      <trkpt lat="45.67864020355046" lon="17.677971571683884">
        <ele>148.31</ele>
        <time>2023-10-16T21:29:16.306Z</time>
      </trkpt>
      <trkpt lat="45.67864045500755" lon="17.67796796746552">
        <ele>148.25</ele>
        <time>2023-10-16T21:29:20.823Z</time>
      </trkpt>
      <trkpt lat="45.678641041740775" lon="17.677963357418776">
        <ele>148.2</ele>
        <time>2023-10-16T21:29:25.341Z</time>
      </trkpt>
      <trkpt lat="45.67864213138819" lon="17.677957909181714">
        <ele>148.14</ele>
        <time>2023-10-16T21:29:29.859Z</time>
      </trkpt>
      <trkpt lat="45.67864355631173" lon="17.6779517903924">
        <ele>148.08</ele>
        <time>2023-10-16T21:29:34.377Z</time>
      </trkpt>
      <trkpt lat="45.678645484149456" lon="17.67794500105083">
        <ele>148.02</ele>
        <time>2023-10-16T21:29:38.895Z</time>
      </trkpt>
      <trkpt lat="45.678647831082344" lon="17.677937541157007">
        <ele>147.97</ele>
        <time>2023-10-16T21:29:43.413Z</time>
      </trkpt>
      <trkpt lat="45.67865059711039" lon="17.677929662168026">
        <ele>147.91</ele>
        <time>2023-10-16T21:29:47.931Z</time>
      </trkpt>
      <trkpt lat="45.67865403369069" lon="17.677921866998076">
        <ele>147.85</ele>
        <time>2023-10-16T21:29:52.450Z</time>
      </trkpt>
      <trkpt lat="45.67865788936615" lon="17.677914490923285">
        <ele>147.8</ele>
        <time>2023-10-16T21:29:56.969Z</time>
      </trkpt>
      <trkpt lat="45.678662080317736" lon="17.67790786921978">
        <ele>147.74</ele>
        <time>2023-10-16T21:30:01.488Z</time>
      </trkpt>
      <trkpt lat="45.67866677418351" lon="17.677902253344655">
        <ele>147.69</ele>
        <time>2023-10-16T21:30:06.007Z</time>
      </trkpt>
      <trkpt lat="45.678671384230256" lon="17.677897810935974">
        <ele>147.64</ele>
        <time>2023-10-16T21:30:10.526Z</time>
      </trkpt>
      <trkpt lat="45.678675994277" lon="17.677894458174706">
        <ele>147.59</ele>
        <time>2023-10-16T21:30:15.046Z</time>
      </trkpt>
      <trkpt lat="45.678680185228586" lon="17.677891943603754">
        <ele>147.54</ele>
        <time>2023-10-16T21:30:19.566Z</time>
      </trkpt>
      <trkpt lat="45.678684040904045" lon="17.677890183404088">
        <ele>147.5</ele>
        <time>2023-10-16T21:30:24.086Z</time>
      </trkpt>
      <trkpt lat="45.67868756130338" lon="17.677889093756676">
        <ele>147.45</ele>
        <time>2023-10-16T21:30:28.606Z</time>
      </trkpt>
      <trkpt lat="45.67869057878852" lon="17.677888590842485">
        <ele>147.41</ele>
        <time>2023-10-16T21:30:33.126Z</time>
      </trkpt>
      <trkpt lat="45.67869300954044" lon="17.677888507023454">
        <ele>147.37</ele>
        <time>2023-10-16T21:30:37.646Z</time>
      </trkpt>
      <trkpt lat="45.67869493737817" lon="17.677888590842485">
        <ele>147.33</ele>
        <time>2023-10-16T21:30:42.166Z</time>
      </trkpt>
      <trkpt lat="45.67869644612074" lon="17.677888926118612">
        <ele>147.29</ele>
        <time>2023-10-16T21:30:46.686Z</time>
      </trkpt>
      <trkpt lat="45.678697703406215" lon="17.67788926139474">
        <ele>147.25</ele>
        <time>2023-10-16T21:30:51.206Z</time>
      </trkpt>
      <trkpt lat="45.67869879305363" lon="17.677889429032803">
        <ele>147.22</ele>
        <time>2023-10-16T21:30:55.726Z</time>
      </trkpt>
      <trkpt lat="45.67869937978685" lon="17.677889429032803">
        <ele>147.19</ele>
        <time>2023-10-16T21:31:00.246Z</time>
      </trkpt>
      <trkpt lat="45.678699715062976" lon="17.67788926139474">
        <ele>147.16</ele>
        <time>2023-10-16T21:31:04.766Z</time>
      </trkpt>
      <trkpt lat="45.67869979888201" lon="17.677889009937644">
        <ele>147.13</ele>
        <time>2023-10-16T21:31:09.286Z</time>
      </trkpt>
      <trkpt lat="45.678699631243944" lon="17.67788833938539">
        <ele>147.1</ele>
        <time>2023-10-16T21:31:13.806Z</time>
      </trkpt>
      <trkpt lat="45.67869929596782" lon="17.677887585014105">
        <ele>147.08</ele>
        <time>2023-10-16T21:31:18.326Z</time>
      </trkpt>
      <trkpt lat="45.67869896069169" lon="17.677886579185724">
        <ele>147.06</ele>
        <time>2023-10-16T21:31:22.847Z</time>
      </trkpt>
      <trkpt lat="45.67869854159653" lon="17.677885489538312">
        <ele>147.04</ele>
        <time>2023-10-16T21:31:27.368Z</time>
      </trkpt>
      <trkpt lat="45.678698206320405" lon="17.677884316071868">
        <ele>147.02</ele>
        <time>2023-10-16T21:31:31.889Z</time>
      </trkpt>
      <trkpt lat="45.678697787225246" lon="17.677883142605424">
        <ele>147.01</ele>
        <time>2023-10-16T21:31:36.410Z</time>
      </trkpt>
      <trkpt lat="45.67869753576815" lon="17.677881885319948">
        <ele>147.0</ele>
        <time>2023-10-16T21:31:40.931Z</time>
      </trkpt>
      <trkpt lat="45.67869711667299" lon="17.677880711853504">
        <ele>147.0</ele>
        <time>2023-10-16T21:31:45.452Z</time>
      </trkpt>
      <trkpt lat="45.6786968652159" lon="17.677879370748997">
        <ele>146.99</ele>
        <time>2023-10-16T21:31:49.973Z</time>
      </trkpt>
      <trkpt lat="45.678696697577834" lon="17.67787802964449">
        <ele>146.99</ele>
        <time>2023-10-16T21:31:54.494Z</time>
      </trkpt>
      <trkpt lat="45.67869652993977" lon="17.677876437082887">
        <ele>147.0</ele>
        <time>2023-10-16T21:31:59.015Z</time>
      </trkpt>
      <trkpt lat="45.678696278482676" lon="17.677874760702252">
        <ele>147.01</ele>
        <time>2023-10-16T21:32:03.536Z</time>
      </trkpt>
      <trkpt lat="45.67869569174945" lon="17.67787266522646">
        <ele>147.02</ele>
        <time>2023-10-16T21:32:08.057Z</time>
      </trkpt>
      <trkpt lat="45.678694853559136" lon="17.677870150655508">
        <ele>147.03</ele>
        <time>2023-10-16T21:32:12.578Z</time>
      </trkpt>
      <trkpt lat="45.67869351245463" lon="17.67786738462746">
        <ele>147.05</ele>
        <time>2023-10-16T21:32:17.099Z</time>
      </trkpt>
      <trkpt lat="45.67869124934077" lon="17.67786394804716">
        <ele>147.07</ele>
        <time>2023-10-16T21:32:21.620Z</time>
      </trkpt>
      <trkpt lat="45.6786881480366" lon="17.67786000855267">
        <ele>147.1</ele>
        <time>2023-10-16T21:32:26.141Z</time>
      </trkpt>
      <trkpt lat="45.67868378944695" lon="17.677855398505926">
        <ele>147.13</ele>
        <time>2023-10-16T21:32:30.662Z</time>
      </trkpt>
      <trkpt lat="45.67867808975279" lon="17.677850117906928">
        <ele>147.16</ele>
        <time>2023-10-16T21:32:35.184Z</time>
      </trkpt>
      <trkpt lat="45.6786709651351" lon="17.67784441821277">
        <ele>147.19</ele>
        <time>2023-10-16T21:32:39.706Z</time>
      </trkpt>
      <trkpt lat="45.678661996498704" lon="17.677838718518615">
        <ele>147.24</ele>
        <time>2023-10-16T21:32:44.228Z</time>
      </trkpt>
      <trkpt lat="45.67865151911974" lon="17.67783360555768">
        <ele>147.28</ele>
        <time>2023-10-16T21:32:48.751Z</time>
      </trkpt>
      <trkpt lat="45.67863936536014" lon="17.67782974988222">
        <ele>147.33</ele>
        <time>2023-10-16T21:32:53.274Z</time>
      </trkpt>
      <trkpt lat="45.678625870496035" lon="17.677827570587397">
        <ele>147.39</ele>
        <time>2023-10-16T21:32:57.797Z</time>
      </trkpt>
      <trkpt lat="45.678610783070326" lon="17.6778273191303">
        <ele>147.45</ele>
        <time>2023-10-16T21:33:02.321Z</time>
      </trkpt>
      <trkpt lat="45.67859435454011" lon="17.677829582244158">
        <ele>147.51</ele>
        <time>2023-10-16T21:33:06.846Z</time>
      </trkpt>
      <trkpt lat="45.67857717163861" lon="17.67783452756703">
        <ele>147.59</ele>
        <time>2023-10-16T21:33:11.371Z</time>
      </trkpt>
      <trkpt lat="45.67855923436582" lon="17.677842490375042">
        <ele>147.66</ele>
        <time>2023-10-16T21:33:15.897Z</time>
      </trkpt>
      <trkpt lat="45.678541380912066" lon="17.677853470668197">
        <ele>147.75</ele>
        <time>2023-10-16T21:33:20.423Z</time>
      </trkpt>
      <trkpt lat="45.678523695096374" lon="17.67786780372262">
        <ele>147.83</ele>
        <time>2023-10-16T21:33:24.950Z</time>
      </trkpt>
      <trkpt lat="45.678506176918745" lon="17.67788498662412">
        <ele>147.93</ele>
        <time>2023-10-16T21:33:29.478Z</time>
      </trkpt>
      <trkpt lat="45.67848932929337" lon="17.677904767915606">
        <ele>148.03</ele>
        <time>2023-10-16T21:33:34.007Z</time>
      </trkpt>
      <trkpt lat="45.67847315222025" lon="17.677926560863853">
        <ele>148.13</ele>
        <time>2023-10-16T21:33:38.536Z</time>
      </trkpt>
      <trkpt lat="45.678457813337445" lon="17.677950197830796">
        <ele>148.24</ele>
        <time>2023-10-16T21:33:43.066Z</time>
      </trkpt>
      <trkpt lat="45.67844331264496" lon="17.677975511178374">
        <ele>148.36</ele>
        <time>2023-10-16T21:33:47.597Z</time>
      </trkpt>
      <trkpt lat="45.678429901599884" lon="17.678001997992396">
        <ele>148.47</ele>
        <time>2023-10-16T21:33:52.129Z</time>
      </trkpt>
      <trkpt lat="45.67841749638319" lon="17.678028736263514">
        <ele>148.6</ele>
        <time>2023-10-16T21:33:56.661Z</time>
      </trkpt>
      <trkpt lat="45.67840567789972" lon="17.678056061267853">
        <ele>148.72</ele>
        <time>2023-10-16T21:34:01.194Z</time>
      </trkpt>
      <trkpt lat="45.67839411087334" lon="17.67808330245316">
        <ele>148.85</ele>
        <time>2023-10-16T21:34:05.728Z</time>
      </trkpt>
      <trkpt lat="45.678382124751806" lon="17.678110543638468">
        <ele>148.99</ele>
        <time>2023-10-16T21:34:10.263Z</time>
      </trkpt>
      <trkpt lat="45.678369803354144" lon="17.678137365728617">
        <ele>149.13</ele>
        <time>2023-10-16T21:34:14.798Z</time>
      </trkpt>
      <trkpt lat="45.67835739813745" lon="17.678164523094893">
        <ele>149.27</ele>
        <time>2023-10-16T21:34:19.334Z</time>
      </trkpt>
      <trkpt lat="45.67834524437785" lon="17.67819134518504">
        <ele>149.42</ele>
        <time>2023-10-16T21:34:23.871Z</time>
      </trkpt>
      <trkpt lat="45.678333174437284" lon="17.678218418732285">
        <ele>149.57</ele>
        <time>2023-10-16T21:34:28.409Z</time>
      </trkpt>
      <trkpt lat="45.678321439772844" lon="17.678245240822434">
        <ele>149.72</ele>
        <time>2023-10-16T21:34:32.947Z</time>
      </trkpt>
      <trkpt lat="45.67831004038453" lon="17.678271727636456">
        <ele>149.88</ele>
        <time>2023-10-16T21:34:37.486Z</time>
      </trkpt>
      <trkpt lat="45.67829864099622" lon="17.67829821445048">
        <ele>150.03</ele>
        <time>2023-10-16T21:34:42.026Z</time>
      </trkpt>
      <trkpt lat="45.67828740924597" lon="17.67832461744547">
        <ele>150.19</ele>
        <time>2023-10-16T21:34:46.566Z</time>
      </trkpt>
      <trkpt lat="45.67827676422894" lon="17.678350852802396">
        <ele>150.35</ele>
        <time>2023-10-16T21:34:51.107Z</time>
      </trkpt>
      <trkpt lat="45.67826704122126" lon="17.67837700434029">
        <ele>150.52</ele>
        <time>2023-10-16T21:34:55.649Z</time>
      </trkpt>
      <trkpt lat="45.67825857549906" lon="17.678403072059155">
        <ele>150.69</ele>
        <time>2023-10-16T21:35:00.192Z</time>
      </trkpt>
      <trkpt lat="45.67825086414814" lon="17.678428972139955">
        <ele>150.86</ele>
        <time>2023-10-16T21:35:04.735Z</time>
      </trkpt>
      <trkpt lat="45.67824357189238" lon="17.67845462076366">
        <ele>151.03</ele>
        <time>2023-10-16T21:35:09.279Z</time>
      </trkpt>
      <trkpt lat="45.67823611199856" lon="17.67848001793027">
        <ele>151.21</ele>
        <time>2023-10-16T21:35:13.823Z</time>
      </trkpt>
      <trkpt lat="45.67822823300958" lon="17.678505247458816">
        <ele>151.38</ele>
        <time>2023-10-16T21:35:18.368Z</time>
      </trkpt>
      <trkpt lat="45.67821976728737" lon="17.678530476987362">
        <ele>151.56</ele>
        <time>2023-10-16T21:35:22.914Z</time>
      </trkpt>
      <trkpt lat="45.67821063101292" lon="17.67855587415397">
        <ele>151.73</ele>
        <time>2023-10-16T21:35:27.460Z</time>
      </trkpt>
      <trkpt lat="45.678200824186206" lon="17.67858160659671">
        <ele>151.9</ele>
        <time>2023-10-16T21:35:32.007Z</time>
      </trkpt>
      <trkpt lat="45.67819043062627" lon="17.678607674315572">
        <ele>152.08</ele>
        <time>2023-10-16T21:35:36.555Z</time>
      </trkpt>
      <trkpt lat="45.67817919887602" lon="17.678634077310562">
        <ele>152.25</ele>
        <time>2023-10-16T21:35:41.104Z</time>
      </trkpt>
      <trkpt lat="45.67816687747836" lon="17.678660731762648">
        <ele>152.43</ele>
        <time>2023-10-16T21:35:45.653Z</time>
      </trkpt>
      <trkpt lat="45.67815321497619" lon="17.678687470033765">
        <ele>152.61</ele>
        <time>2023-10-16T21:35:50.203Z</time>
      </trkpt>
      <trkpt lat="45.67813837900758" lon="17.678714292123914">
        <ele>152.79</ele>
        <time>2023-10-16T21:35:54.754Z</time>
      </trkpt>
      <trkpt lat="45.67812245339155" lon="17.678740695118904">
        <ele>152.97</ele>
        <time>2023-10-16T21:35:59.306Z</time>
      </trkpt>
      <trkpt lat="45.67810568958521" lon="17.678766762837768">
        <ele>153.14</ele>
        <time>2023-10-16T21:36:03.858Z</time>
      </trkpt>
      <trkpt lat="45.678088422864676" lon="17.678792160004377">
        <ele>153.32</ele>
        <time>2023-10-16T21:36:08.411Z</time>
      </trkpt>
      <trkpt lat="45.678070737048984" lon="17.678816970437765">
        <ele>153.51</ele>
        <time>2023-10-16T21:36:12.965Z</time>
      </trkpt>
      <trkpt lat="45.678052715957165" lon="17.678840858861804">
        <ele>153.69</ele>
        <time>2023-10-16T21:36:17.520Z</time>
      </trkpt>
      <trkpt lat="45.67803494632244" lon="17.678863909095526">
        <ele>153.87</ele>
        <time>2023-10-16T21:36:22.076Z</time>
      </trkpt>
      <trkpt lat="45.678017092868686" lon="17.678886456415057">
        <ele>154.04</ele>
        <time>2023-10-16T21:36:26.633Z</time>
      </trkpt>
      <trkpt lat="45.67799932323396" lon="17.67890816554427">
        <ele>154.22</ele>
        <time>2023-10-16T21:36:31.190Z</time>
      </trkpt>
      <trkpt lat="45.67798163741827" lon="17.678929790854454">
        <ele>154.4</ele>
        <time>2023-10-16T21:36:35.748Z</time>
      </trkpt>
      <trkpt lat="45.67796437069774" lon="17.67895116470754">
        <ele>154.58</ele>
        <time>2023-10-16T21:36:40.307Z</time>
      </trkpt>
      <trkpt lat="45.67794752307236" lon="17.678972957655787">
        <ele>154.76</ele>
        <time>2023-10-16T21:36:44.867Z</time>
      </trkpt>
      <trkpt lat="45.67793134599924" lon="17.67899508588016">
        <ele>154.95</ele>
        <time>2023-10-16T21:36:49.427Z</time>
      </trkpt>
      <trkpt lat="45.67791575565934" lon="17.679017884656787">
        <ele>155.13</ele>
        <time>2023-10-16T21:36:53.988Z</time>
      </trkpt>
      <trkpt lat="45.6779005844146" lon="17.679041102528572">
        <ele>155.31</ele>
        <time>2023-10-16T21:36:58.550Z</time>
      </trkpt>
      <trkpt lat="45.67788574844599" lon="17.67906499095261">
        <ele>155.49</ele>
        <time>2023-10-16T21:37:03.113Z</time>
      </trkpt>
      <trkpt lat="45.67787116393447" lon="17.679089214652777">
        <ele>155.67</ele>
        <time>2023-10-16T21:37:07.676Z</time>
      </trkpt>
      <trkpt lat="45.67785649560392" lon="17.679113689810038">
        <ele>155.85</ele>
        <time>2023-10-16T21:37:12.240Z</time>
      </trkpt>
      <trkpt lat="45.67784174345434" lon="17.67913824878633">
        <ele>156.04</ele>
        <time>2023-10-16T21:37:16.805Z</time>
      </trkpt>
      <trkpt lat="45.677826991304755" lon="17.679162891581655">
        <ele>156.22</ele>
        <time>2023-10-16T21:37:21.371Z</time>
      </trkpt>
      <trkpt lat="45.67781198769808" lon="17.679187450557947">
        <ele>156.41</ele>
        <time>2023-10-16T21:37:25.937Z</time>
      </trkpt>
      <trkpt lat="45.6777969840914" lon="17.67921159043908">
        <ele>156.6</ele>
        <time>2023-10-16T21:37:30.504Z</time>
      </trkpt>
      <trkpt lat="45.67778189666569" lon="17.67923539504409">
        <ele>156.79</ele>
        <time>2023-10-16T21:37:35.072Z</time>
      </trkpt>
      <trkpt lat="45.67776722833514" lon="17.67925886437297">
        <ele>156.98</ele>
        <time>2023-10-16T21:37:39.641Z</time>
      </trkpt>
      <trkpt lat="45.67775297909975" lon="17.67928233370185">
        <ele>157.18</ele>
        <time>2023-10-16T21:37:44.210Z</time>
      </trkpt>
      <trkpt lat="45.677739484235644" lon="17.679305635392666">
        <ele>157.37</ele>
        <time>2023-10-16T21:37:48.780Z</time>
      </trkpt>
      <trkpt lat="45.67772657610476" lon="17.679329104721546">
        <ele>157.57</ele>
        <time>2023-10-16T21:37:53.351Z</time>
      </trkpt>
      <trkpt lat="45.67771450616419" lon="17.679352490231395">
        <ele>157.77</ele>
        <time>2023-10-16T21:37:57.922Z</time>
      </trkpt>
      <trkpt lat="45.67770360969007" lon="17.679375875741243">
        <ele>157.97</ele>
        <time>2023-10-16T21:38:02.494Z</time>
      </trkpt>
      <trkpt lat="45.67769380286336" lon="17.679398925974965">
        <ele>158.16</ele>
        <time>2023-10-16T21:38:07.067Z</time>
      </trkpt>
      <trkpt lat="45.677684918046" lon="17.67942172475159">
        <ele>158.36</ele>
        <time>2023-10-16T21:38:11.640Z</time>
      </trkpt>
      <trkpt lat="45.67767737433314" lon="17.679444020614028">
        <ele>158.56</ele>
        <time>2023-10-16T21:38:16.214Z</time>
      </trkpt>
      <trkpt lat="45.67767083644867" lon="17.679466400295496">
        <ele>158.76</ele>
        <time>2023-10-16T21:38:20.788Z</time>
      </trkpt>
      <trkpt lat="45.67766555584967" lon="17.6794886123389">
        <ele>158.96</ele>
        <time>2023-10-16T21:38:25.363Z</time>
      </trkpt>
      <trkpt lat="45.677661364898086" lon="17.67951065674424">
        <ele>159.16</ele>
        <time>2023-10-16T21:38:29.939Z</time>
      </trkpt>
      <trkpt lat="45.67765817977488" lon="17.679532282054424">
        <ele>159.37</ele>
        <time>2023-10-16T21:38:34.515Z</time>
      </trkpt>
      <trkpt lat="45.67765566520393" lon="17.67955365590751">
        <ele>159.58</ele>
        <time>2023-10-16T21:38:39.092Z</time>
      </trkpt>
      <trkpt lat="45.67765365354717" lon="17.679574443027377">
        <ele>159.79</ele>
        <time>2023-10-16T21:38:43.669Z</time>
      </trkpt>
      <trkpt lat="45.67765164189041" lon="17.679594811052084">
        <ele>160.0</ele>
        <time>2023-10-16T21:38:48.247Z</time>
      </trkpt>
      <trkpt lat="45.67764921113849" lon="17.679614927619696">
        <ele>160.21</ele>
        <time>2023-10-16T21:38:52.825Z</time>
      </trkpt>
      <trkpt lat="45.67764644511044" lon="17.679635379463434">
        <ele>160.43</ele>
        <time>2023-10-16T21:38:57.404Z</time>
      </trkpt>
      <trkpt lat="45.67764309234917" lon="17.679656082764268">
        <ele>160.64</ele>
        <time>2023-10-16T21:39:01.983Z</time>
      </trkpt>
      <trkpt lat="45.677638817578554" lon="17.679677456617355">
        <ele>160.85</ele>
        <time>2023-10-16T21:39:06.563Z</time>
      </trkpt>
      <trkpt lat="45.67763362079859" lon="17.67969916574657">
        <ele>161.06</ele>
        <time>2023-10-16T21:39:11.143Z</time>
      </trkpt>
      <trkpt lat="45.67762733437121" lon="17.679721377789974">
        <ele>161.27</ele>
        <time>2023-10-16T21:39:15.724Z</time>
      </trkpt>
      <trkpt lat="45.677619790658355" lon="17.679743925109506">
        <ele>161.47</ele>
        <time>2023-10-16T21:39:20.305Z</time>
      </trkpt>
      <trkpt lat="45.67761090584099" lon="17.67976705916226">
        <ele>161.68</ele>
        <time>2023-10-16T21:39:24.887Z</time>
      </trkpt>
      <trkpt lat="45.677601182833314" lon="17.679790360853076">
        <ele>161.88</ele>
        <time>2023-10-16T21:39:29.469Z</time>
      </trkpt>
      <trkpt lat="45.67759070545435" lon="17.67981408163905">
        <ele>162.09</ele>
        <time>2023-10-16T21:39:34.052Z</time>
      </trkpt>
      <trkpt lat="45.67757989279926" lon="17.67983755096793">
        <ele>162.3</ele>
        <time>2023-10-16T21:39:38.636Z</time>
      </trkpt>
      <trkpt lat="45.67756857722998" lon="17.67986093647778">
        <ele>162.5</ele>
        <time>2023-10-16T21:39:43.220Z</time>
      </trkpt>
      <trkpt lat="45.67755717784166" lon="17.67988331615925">
        <ele>162.71</ele>
        <time>2023-10-16T21:39:47.805Z</time>
      </trkpt>
      <trkpt lat="45.67754544317722" lon="17.679904773831367">
        <ele>162.91</ele>
        <time>2023-10-16T21:39:52.391Z</time>
      </trkpt>
      <trkpt lat="45.67753395996988" lon="17.67992489039898">
        <ele>163.11</ele>
        <time>2023-10-16T21:39:56.977Z</time>
      </trkpt>
      <trkpt lat="45.6775226444006" lon="17.679944084957242">
        <ele>163.3</ele>
        <time>2023-10-16T21:40:01.564Z</time>
      </trkpt>
      <trkpt lat="45.677511747926474" lon="17.679961938410997">
        <ele>163.5</ele>
        <time>2023-10-16T21:40:06.151Z</time>
      </trkpt>
      <trkpt lat="45.67750118672848" lon="17.679978953674436">
        <ele>163.69</ele>
        <time>2023-10-16T21:40:10.739Z</time>
      </trkpt>
      <trkpt lat="45.67749096080661" lon="17.67999521456659">
        <ele>163.88</ele>
        <time>2023-10-16T21:40:15.328Z</time>
      </trkpt>
      <trkpt lat="45.67748081870377" lon="17.680010721087456">
        <ele>164.06</ele>
        <time>2023-10-16T21:40:19.917Z</time>
      </trkpt>
      <trkpt lat="45.6774705927819" lon="17.6800256408751">
        <ele>164.24</ele>
        <time>2023-10-16T21:40:24.507Z</time>
      </trkpt>
      <trkpt lat="45.677460450679064" lon="17.68004030920565">
        <ele>164.42</ele>
        <time>2023-10-16T21:40:29.097Z</time>
      </trkpt>
      <trkpt lat="45.677450308576226" lon="17.680054726079106">
        <ele>164.59</ele>
        <time>2023-10-16T21:40:33.687Z</time>
      </trkpt>
      <trkpt lat="45.67743983119726" lon="17.68006956204772">
        <ele>164.77</ele>
        <time>2023-10-16T21:40:38.278Z</time>
      </trkpt>
      <trkpt lat="45.677428767085075" lon="17.680085068568587">
        <ele>164.93</ele>
        <time>2023-10-16T21:40:42.869Z</time>
      </trkpt>
      <trkpt lat="45.67741686478257" lon="17.680101078003645">
        <ele>165.1</ele>
        <time>2023-10-16T21:40:47.461Z</time>
      </trkpt>
      <trkpt lat="45.677403789013624" lon="17.680117338895798">
        <ele>165.26</ele>
        <time>2023-10-16T21:40:52.054Z</time>
      </trkpt>
      <trkpt lat="45.67738937214017" lon="17.68013410270214">
        <ele>165.42</ele>
        <time>2023-10-16T21:40:56.647Z</time>
      </trkpt>
      <trkpt lat="45.677373530343175" lon="17.680151285603642">
        <ele>165.57</ele>
        <time>2023-10-16T21:41:01.241Z</time>
      </trkpt>
      <trkpt lat="45.67735617980361" lon="17.680168552324176">
        <ele>165.72</ele>
        <time>2023-10-16T21:41:05.836Z</time>
      </trkpt>
      <trkpt lat="45.67733715288341" lon="17.6801863219589">
        <ele>165.87</ele>
        <time>2023-10-16T21:41:10.431Z</time>
      </trkpt>
      <trkpt lat="45.677316868677735" lon="17.68020442686975">
        <ele>166.02</ele>
        <time>2023-10-16T21:41:15.027Z</time>
      </trkpt>
      <trkpt lat="45.677294824272394" lon="17.680223118513823">
        <ele>166.16</ele>
        <time>2023-10-16T21:41:19.624Z</time>
      </trkpt>
      <trkpt lat="45.677271438762546" lon="17.68024248071015">
        <ele>166.3</ele>
        <time>2023-10-16T21:41:24.222Z</time>
      </trkpt>
      <trkpt lat="45.67724713124335" lon="17.68026251345873">
        <ele>166.44</ele>
        <time>2023-10-16T21:41:28.821Z</time>
      </trkpt>
      <trkpt lat="45.677222572267056" lon="17.680282797664404">
        <ele>166.57</ele>
        <time>2023-10-16T21:41:33.421Z</time>
      </trkpt>
      <trkpt lat="45.67719776183367" lon="17.680303836241364">
        <ele>166.7</ele>
        <time>2023-10-16T21:41:38.022Z</time>
      </trkpt>
      <trkpt lat="45.67717328667641" lon="17.680325293913484">
        <ele>166.81</ele>
        <time>2023-10-16T21:41:42.624Z</time>
      </trkpt>
      <trkpt lat="45.677149314433336" lon="17.680347338318825">
        <ele>166.93</ele>
        <time>2023-10-16T21:41:47.227Z</time>
      </trkpt>
      <trkpt lat="45.67712609656155" lon="17.680369885638356">
        <ele>167.04</ele>
        <time>2023-10-16T21:41:51.831Z</time>
      </trkpt>
      <trkpt lat="45.67710354924202" lon="17.68039310351014">
        <ele>167.14</ele>
        <time>2023-10-16T21:41:56.436Z</time>
      </trkpt>
      <trkpt lat="45.6770820915699" lon="17.680416656658053">
        <ele>167.25</ele>
        <time>2023-10-16T21:42:01.041Z</time>
      </trkpt>
      <trkpt lat="45.677061304450035" lon="17.680440628901124">
        <ele>167.35</ele>
        <time>2023-10-16T21:42:05.647Z</time>
      </trkpt>
      <trkpt lat="45.67704143933952" lon="17.680464684963226">
        <ele>167.45</ele>
        <time>2023-10-16T21:42:10.254Z</time>
      </trkpt>
      <trkpt lat="45.67702199332416" lon="17.680488657206297">
        <ele>167.55</ele>
        <time>2023-10-16T21:42:14.862Z</time>
      </trkpt>
      <trkpt lat="45.67700296640396" lon="17.68051229417324">
        <ele>167.64</ele>
        <time>2023-10-16T21:42:19.471Z</time>
      </trkpt>
      <trkpt lat="45.676984107121825" lon="17.68053576350212">
        <ele>167.73</ele>
        <time>2023-10-16T21:42:24.081Z</time>
      </trkpt>
      <trkpt lat="45.676965499296784" lon="17.680558813735843">
        <ele>167.81</ele>
        <time>2023-10-16T21:42:28.692Z</time>
      </trkpt>
      <trkpt lat="45.676946891471744" lon="17.6805816963315">
        <ele>167.88</ele>
        <time>2023-10-16T21:42:33.303Z</time>
      </trkpt>
      <trkpt lat="45.6769282836467" lon="17.680604243651032">
        <ele>167.95</ele>
        <time>2023-10-16T21:42:37.915Z</time>
      </trkpt>
      <trkpt lat="45.67690992727876" lon="17.6806266233325">
        <ele>168.01</ele>
        <time>2023-10-16T21:42:42.528Z</time>
      </trkpt>
      <trkpt lat="45.67689199000597" lon="17.68064858391881">
        <ele>168.07</ele>
        <time>2023-10-16T21:42:47.142Z</time>
      </trkpt>
      <trkpt lat="45.67687430419028" lon="17.680670293048024">
        <ele>168.13</ele>
        <time>2023-10-16T21:42:51.757Z</time>
      </trkpt>
      <trkpt lat="45.67685728892684" lon="17.68069166690111">
        <ele>168.18</ele>
        <time>2023-10-16T21:42:56.372Z</time>
      </trkpt>
      <trkpt lat="45.67684102803469" lon="17.68071312457323">
        <ele>168.23</ele>
        <time>2023-10-16T21:43:00.988Z</time>
      </trkpt>
      <trkpt lat="45.67682568915188" lon="17.680734498426318">
        <ele>168.27</ele>
        <time>2023-10-16T21:43:05.605Z</time>
      </trkpt>
      <trkpt lat="45.67681135609746" lon="17.680755956098437">
        <ele>168.32</ele>
        <time>2023-10-16T21:43:10.222Z</time>
      </trkpt>
      <trkpt lat="45.676797945052385" lon="17.680777329951525">
        <ele>168.36</ele>
        <time>2023-10-16T21:43:14.840Z</time>
      </trkpt>
      <trkpt lat="45.67678545601666" lon="17.680798871442676">
        <ele>168.39</ele>
        <time>2023-10-16T21:43:19.459Z</time>
      </trkpt>
      <trkpt lat="45.67677380517125" lon="17.680820245295763">
        <ele>168.42</ele>
        <time>2023-10-16T21:43:24.078Z</time>
      </trkpt>
      <trkpt lat="45.676762741059065" lon="17.680841283872724">
        <ele>168.45</ele>
        <time>2023-10-16T21:43:28.698Z</time>
      </trkpt>
      <trkpt lat="45.67675167694688" lon="17.680861987173557">
        <ele>168.47</ele>
        <time>2023-10-16T21:43:33.319Z</time>
      </trkpt>
      <trkpt lat="45.676740696653724" lon="17.680882355198264">
        <ele>168.49</ele>
        <time>2023-10-16T21:43:37.940Z</time>
      </trkpt>
      <trkpt lat="45.67672929726541" lon="17.68090213648975">
        <ele>168.5</ele>
        <time>2023-10-16T21:43:42.562Z</time>
      </trkpt>
      <trkpt lat="45.67671756260097" lon="17.680921414867043">
        <ele>168.51</ele>
        <time>2023-10-16T21:43:47.184Z</time>
      </trkpt>
      <trkpt lat="45.67670532502234" lon="17.680940022692084">
        <ele>168.52</ele>
        <time>2023-10-16T21:43:51.807Z</time>
      </trkpt>
      <trkpt lat="45.67669258452952" lon="17.680958043783903">
        <ele>168.52</ele>
        <time>2023-10-16T21:43:56.431Z</time>
      </trkpt>
      <trkpt lat="45.67667942494154" lon="17.680975142866373">
        <ele>168.51</ele>
        <time>2023-10-16T21:44:01.055Z</time>
      </trkpt>
      <trkpt lat="45.676666013896465" lon="17.68099157139659">
        <ele>168.5</ele>
        <time>2023-10-16T21:44:05.680Z</time>
      </trkpt>
      <trkpt lat="45.6766520999372" lon="17.68100732937455">
        <ele>168.49</ele>
        <time>2023-10-16T21:44:10.305Z</time>
      </trkpt>
      <trkpt lat="45.67663776688278" lon="17.681022500619292">
        <ele>168.46</ele>
        <time>2023-10-16T21:44:14.931Z</time>
      </trkpt>
      <trkpt lat="45.67662309855223" lon="17.68103750422597">
        <ele>168.44</ele>
        <time>2023-10-16T21:44:19.558Z</time>
      </trkpt>
      <trkpt lat="45.676608346402645" lon="17.681052088737488">
        <ele>168.41</ele>
        <time>2023-10-16T21:44:24.185Z</time>
      </trkpt>
      <trkpt lat="45.67659334279597" lon="17.681066673249006">
        <ele>168.37</ele>
        <time>2023-10-16T21:44:28.813Z</time>
      </trkpt>
      <trkpt lat="45.676578590646386" lon="17.681081173941493">
        <ele>168.33</ele>
        <time>2023-10-16T21:44:33.441Z</time>
      </trkpt>
      <trkpt lat="45.67656358703971" lon="17.68109575845301">
        <ele>168.28</ele>
        <time>2023-10-16T21:44:38.070Z</time>
      </trkpt>
      <trkpt lat="45.67654841579497" lon="17.68111042678356">
        <ele>168.23</ele>
        <time>2023-10-16T21:44:42.700Z</time>
      </trkpt>
      <trkpt lat="45.676533160731196" lon="17.681125262752175">
        <ele>168.18</ele>
        <time>2023-10-16T21:44:47.330Z</time>
      </trkpt>
      <trkpt lat="45.67651773802936" lon="17.681140517815948">
        <ele>168.12</ele>
        <time>2023-10-16T21:44:51.961Z</time>
      </trkpt>
      <trkpt lat="45.67650223150849" lon="17.681156024336815">
        <ele>168.05</ele>
        <time>2023-10-16T21:44:56.592Z</time>
      </trkpt>
      <trkpt lat="45.67648689262569" lon="17.681171782314777">
        <ele>167.99</ele>
        <time>2023-10-16T21:45:01.224Z</time>
      </trkpt>
      <trkpt lat="45.67647188901901" lon="17.681187791749835">
        <ele>167.91</ele>
        <time>2023-10-16T21:45:05.857Z</time>
      </trkpt>
      <trkpt lat="45.67645713686943" lon="17.68120371736586">
        <ele>167.84</ele>
        <time>2023-10-16T21:45:10.490Z</time>
      </trkpt>
      <trkpt lat="45.676442719995975" lon="17.681219559162855">
        <ele>167.77</ele>
        <time>2023-10-16T21:45:15.124Z</time>
      </trkpt>
      <trkpt lat="45.67642863839865" lon="17.681235065683722">
        <ele>167.69</ele>
        <time>2023-10-16T21:45:19.759Z</time>
      </trkpt>
      <trkpt lat="45.676414808258414" lon="17.68125015310943">
        <ele>167.6</ele>
        <time>2023-10-16T21:45:24.394Z</time>
      </trkpt>
      <trkpt lat="45.676401145756245" lon="17.681264905259013">
        <ele>167.52</ele>
        <time>2023-10-16T21:45:29.030Z</time>
      </trkpt>
      <trkpt lat="45.676387902349234" lon="17.681279070675373">
        <ele>167.42</ele>
        <time>2023-10-16T21:45:33.666Z</time>
      </trkpt>
      <trkpt lat="45.67637457512319" lon="17.68129306845367">
        <ele>167.33</ele>
        <time>2023-10-16T21:45:38.303Z</time>
      </trkpt>
      <trkpt lat="45.67636149935424" lon="17.681306563317776">
        <ele>167.23</ele>
        <time>2023-10-16T21:45:42.940Z</time>
      </trkpt>
      <trkpt lat="45.6763481721282" lon="17.681320058181882">
        <ele>167.12</ele>
        <time>2023-10-16T21:45:47.578Z</time>
      </trkpt>
      <trkpt lat="45.67633484490216" lon="17.681333301588893">
        <ele>167.02</ele>
        <time>2023-10-16T21:45:52.216Z</time>
      </trkpt>
      <trkpt lat="45.67632093094289" lon="17.681346461176872">
        <ele>166.9</ele>
        <time>2023-10-16T21:45:56.855Z</time>
      </trkpt>
      <trkpt lat="45.67630676552653" lon="17.68135962076485">
        <ele>166.78</ele>
        <time>2023-10-16T21:46:01.495Z</time>
      </trkpt>
      <trkpt lat="45.67629192955792" lon="17.68137328326702">
        <ele>166.65</ele>
        <time>2023-10-16T21:46:06.135Z</time>
      </trkpt>
      <trkpt lat="45.67627684213221" lon="17.68138736486435">
        <ele>166.52</ele>
        <time>2023-10-16T21:46:10.776Z</time>
      </trkpt>
      <trkpt lat="45.67626100033522" lon="17.681402452290058">
        <ele>166.39</ele>
        <time>2023-10-16T21:46:15.417Z</time>
      </trkpt>
      <trkpt lat="45.67624499090016" lon="17.681418461725116">
        <ele>166.26</ele>
        <time>2023-10-16T21:46:20.059Z</time>
      </trkpt>
      <trkpt lat="45.67622839473188" lon="17.681435644626617">
        <ele>166.12</ele>
        <time>2023-10-16T21:46:24.702Z</time>
      </trkpt>
      <trkpt lat="45.676211547106504" lon="17.6814538333565">
        <ele>165.98</ele>
        <time>2023-10-16T21:46:29.345Z</time>
      </trkpt>
      <trkpt lat="45.676194364205" lon="17.681472776457667">
        <ele>165.84</ele>
        <time>2023-10-16T21:46:33.989Z</time>
      </trkpt>
      <trkpt lat="45.67617709748447" lon="17.68149239011109">
        <ele>165.69</ele>
        <time>2023-10-16T21:46:38.634Z</time>
      </trkpt>
      <trkpt lat="45.676159327849746" lon="17.68151292577386">
        <ele>165.55</ele>
        <time>2023-10-16T21:46:43.280Z</time>
      </trkpt>
      <trkpt lat="45.67614130675793" lon="17.68153404816985">
        <ele>165.4</ele>
        <time>2023-10-16T21:46:47.926Z</time>
      </trkpt>
      <trkpt lat="45.67612278275192" lon="17.681556092575192">
        <ele>165.25</ele>
        <time>2023-10-16T21:46:52.573Z</time>
      </trkpt>
      <trkpt lat="45.676104007288814" lon="17.681578556075692">
        <ele>165.1</ele>
        <time>2023-10-16T21:46:57.221Z</time>
      </trkpt>
      <trkpt lat="45.67608481273055" lon="17.681601606309414">
        <ele>164.95</ele>
        <time>2023-10-16T21:47:01.870Z</time>
      </trkpt>
      <trkpt lat="45.676065450534225" lon="17.681624740362167">
        <ele>164.8</ele>
        <time>2023-10-16T21:47:06.520Z</time>
      </trkpt>
      <trkpt lat="45.67604575306177" lon="17.681648125872016">
        <ele>164.64</ele>
        <time>2023-10-16T21:47:11.171Z</time>
      </trkpt>
      <trkpt lat="45.67602572031319" lon="17.681671679019928">
        <ele>164.47</ele>
        <time>2023-10-16T21:47:15.822Z</time>
      </trkpt>
      <trkpt lat="45.67600560374558" lon="17.681695483624935">
        <ele>164.31</ele>
        <time>2023-10-16T21:47:20.474Z</time>
      </trkpt>
      <trkpt lat="45.675985570997" lon="17.681719958782196">
        <ele>164.14</ele>
        <time>2023-10-16T21:47:25.127Z</time>
      </trkpt>
      <trkpt lat="45.67596587352455" lon="17.681745188310742">
        <ele>163.99</ele>
        <time>2023-10-16T21:47:29.781Z</time>
      </trkpt>
      <trkpt lat="45.67594659514725" lon="17.681771088391542">
        <ele>163.83</ele>
        <time>2023-10-16T21:47:34.436Z</time>
      </trkpt>
      <trkpt lat="45.67592781968415" lon="17.681797659024596">
        <ele>163.67</ele>
        <time>2023-10-16T21:47:39.092Z</time>
      </trkpt>
      <trkpt lat="45.675909630954266" lon="17.681824900209904">
        <ele>163.51</ele>
        <time>2023-10-16T21:47:43.749Z</time>
      </trkpt>
      <trkpt lat="45.675892028957605" lon="17.6818526443094">
        <ele>163.35</ele>
        <time>2023-10-16T21:47:48.407Z</time>
      </trkpt>
      <trkpt lat="45.675874846056104" lon="17.681881058961153">
        <ele>163.19</ele>
        <time>2023-10-16T21:47:53.065Z</time>
      </trkpt>
      <trkpt lat="45.67585816606879" lon="17.681909976527095">
        <ele>163.04</ele>
        <time>2023-10-16T21:47:57.724Z</time>
      </trkpt>
      <trkpt lat="45.67584182135761" lon="17.68193948082626">
        <ele>162.89</ele>
        <time>2023-10-16T21:48:02.384Z</time>
      </trkpt>
      <trkpt lat="45.67582614719868" lon="17.681969152763486">
        <ele>162.74</ele>
        <time>2023-10-16T21:48:07.045Z</time>
      </trkpt>
      <trkpt lat="45.67581072449684" lon="17.68199874088168">
        <ele>162.59</ele>
        <time>2023-10-16T21:48:11.707Z</time>
      </trkpt>
      <trkpt lat="45.67579538561404" lon="17.682028077542782">
        <ele>162.44</ele>
        <time>2023-10-16T21:48:16.370Z</time>
      </trkpt>
      <trkpt lat="45.67577979527414" lon="17.68205674365163">
        <ele>162.3</ele>
        <time>2023-10-16T21:48:21.034Z</time>
      </trkpt>
      <trkpt lat="45.67576361820102" lon="17.682084403932095">
        <ele>162.16</ele>
        <time>2023-10-16T21:48:25.698Z</time>
      </trkpt>
      <trkpt lat="45.67574626766145" lon="17.68211055546999">
        <ele>162.02</ele>
        <time>2023-10-16T21:48:30.363Z</time>
      </trkpt>
      <trkpt lat="45.67572799511254" lon="17.682134192436934">
        <ele>161.89</ele>
        <time>2023-10-16T21:48:35.029Z</time>
      </trkpt>
      <trkpt lat="45.67570821382105" lon="17.682155147194862">
        <ele>161.75</ele>
        <time>2023-10-16T21:48:39.696Z</time>
      </trkpt>
      <trkpt lat="45.67568759433925" lon="17.68217266537249">
        <ele>161.61</ele>
        <time>2023-10-16T21:48:44.364Z</time>
      </trkpt>
      <trkpt lat="45.675665717571974" lon="17.682186495512724">
        <ele>161.48</ele>
        <time>2023-10-16T21:48:49.033Z</time>
      </trkpt>
      <trkpt lat="45.67564317025244" lon="17.68219605088234">
        <ele>161.35</ele>
        <time>2023-10-16T21:48:53.702Z</time>
      </trkpt>
      <trkpt lat="45.6756195332855" lon="17.68220141530037">
        <ele>161.23</ele>
        <time>2023-10-16T21:48:58.372Z</time>
      </trkpt>
      <trkpt lat="45.6755952257663" lon="17.68220292404294">
        <ele>161.11</ele>
        <time>2023-10-16T21:49:03.043Z</time>
      </trkpt>
      <trkpt lat="45.67557016387582" lon="17.682200074195862">
        <ele>161.01</ele>
        <time>2023-10-16T21:49:07.715Z</time>
      </trkpt>
      <trkpt lat="45.67554476670921" lon="17.682193536311388">
        <ele>160.91</ele>
        <time>2023-10-16T21:49:12.388Z</time>
      </trkpt>
      <trkpt lat="45.6755193695426" lon="17.682183226570487">
        <ele>160.82</ele>
        <time>2023-10-16T21:49:17.062Z</time>
      </trkpt>
      <trkpt lat="45.67549455910921" lon="17.68216964788735">
        <ele>160.73</ele>
        <time>2023-10-16T21:49:21.736Z</time>
      </trkpt>
      <trkpt lat="45.67547067068517" lon="17.682153303176165">
        <ele>160.64</ele>
        <time>2023-10-16T21:49:26.411Z</time>
      </trkpt>
      <trkpt lat="45.675447871908545" lon="17.682134779170156">
        <ele>160.57</ele>
        <time>2023-10-16T21:49:31.087Z</time>
      </trkpt>
      <trkpt lat="45.67542649805546" lon="17.682114578783512">
        <ele>160.5</ele>
        <time>2023-10-16T21:49:35.764Z</time>
      </trkpt>
      <trkpt lat="45.675406297668815" lon="17.68209295347333">
        <ele>160.43</ele>
        <time>2023-10-16T21:49:40.442Z</time>
      </trkpt>
      <trkpt lat="45.67538743838668" lon="17.682070238515735">
        <ele>160.38</ele>
        <time>2023-10-16T21:49:45.121Z</time>
      </trkpt>
      <trkpt lat="45.67536992020905" lon="17.68204702064395">
        <ele>160.33</ele>
        <time>2023-10-16T21:49:49.801Z</time>
      </trkpt>
      <trkpt lat="45.675353491678834" lon="17.682022713124752">
        <ele>160.28</ele>
        <time>2023-10-16T21:49:54.481Z</time>
      </trkpt>
      <trkpt lat="45.67533823661506" lon="17.68199765123427">
        <ele>160.25</ele>
        <time>2023-10-16T21:49:59.162Z</time>
      </trkpt>
      <trkpt lat="45.67532390356064" lon="17.681971080601215">
        <ele>160.22</ele>
        <time>2023-10-16T21:50:03.844Z</time>
      </trkpt>
      <trkpt lat="45.67531040869653" lon="17.681943671777844">
        <ele>160.21</ele>
        <time>2023-10-16T21:50:08.527Z</time>
      </trkpt>
      <trkpt lat="45.67529775202274" lon="17.681915760040283">
        <ele>160.2</ele>
        <time>2023-10-16T21:50:13.210Z</time>
      </trkpt>
      <trkpt lat="45.67528551444411" lon="17.681887093931437">
        <ele>160.2</ele>
        <time>2023-10-16T21:50:17.894Z</time>
      </trkpt>
      <trkpt lat="45.67527377977967" lon="17.681858092546463">
        <ele>160.21</ele>
        <time>2023-10-16T21:50:22.579Z</time>
      </trkpt>
      <trkpt lat="45.67526154220104" lon="17.6818285882473">
        <ele>160.23</ele>
        <time>2023-10-16T21:50:27.265Z</time>
      </trkpt>
      <trkpt lat="45.675249891355634" lon="17.68179782666266">
        <ele>160.25</ele>
        <time>2023-10-16T21:50:31.952Z</time>
      </trkpt>
      <trkpt lat="45.675238743424416" lon="17.681767651811242">
        <ele>160.28</ele>
        <time>2023-10-16T21:50:36.639Z</time>
      </trkpt>
      <trkpt lat="45.675227930769324" lon="17.681737141683698">
        <ele>160.32</ele>
        <time>2023-10-16T21:50:41.327Z</time>
      </trkpt>
      <trkpt lat="45.67521736957133" lon="17.68170654773712">
        <ele>160.37</ele>
        <time>2023-10-16T21:50:46.016Z</time>
      </trkpt>
      <trkpt lat="45.67520705983043" lon="17.68167528323829">
        <ele>160.43</ele>
        <time>2023-10-16T21:50:50.706Z</time>
      </trkpt>
      <trkpt lat="45.67519725300372" lon="17.681643767282367">
        <ele>160.5</ele>
        <time>2023-10-16T21:50:55.397Z</time>
      </trkpt>
      <trkpt lat="45.675187865272164" lon="17.68161166459322">
        <ele>160.57</ele>
        <time>2023-10-16T21:51:00.088Z</time>
      </trkpt>
      <trkpt lat="45.67517889663577" lon="17.681579561904073">
        <ele>160.66</ele>
        <time>2023-10-16T21:51:04.780Z</time>
      </trkpt>
      <trkpt lat="45.675170263275504" lon="17.681546956300735">
        <ele>160.74</ele>
        <time>2023-10-16T21:51:09.473Z</time>
      </trkpt>
      <trkpt lat="45.675163976848125" lon="17.68151585943997">
        <ele>160.84</ele>
        <time>2023-10-16T21:51:14.167Z</time>
      </trkpt>
      <trkpt lat="45.67515634931624" lon="17.6814831700176">
        <ele>160.94</ele>
        <time>2023-10-16T21:51:18.862Z</time>
      </trkpt>
      <trkpt lat="45.67514897324145" lon="17.68145048059523">
        <ele>161.05</ele>
        <time>2023-10-16T21:51:23.557Z</time>
      </trkpt>
      <trkpt lat="45.67514176480472" lon="17.6814176235348">
        <ele>161.17</ele>
        <time>2023-10-16T21:51:28.253Z</time>
      </trkpt>
      <trkpt lat="45.67513447254896" lon="17.68138501793146">
        <ele>161.29</ele>
        <time>2023-10-16T21:51:32.950Z</time>
      </trkpt>
      <trkpt lat="45.67512692883611" lon="17.681352496147156">
        <ele>161.42</ele>
        <time>2023-10-16T21:51:37.648Z</time>
      </trkpt>
      <trkpt lat="45.67511938512325" lon="17.681319806724787">
        <ele>161.56</ele>
        <time>2023-10-16T21:51:42.347Z</time>
      </trkpt>
      <trkpt lat="45.67511133849621" lon="17.68128728494048">
        <ele>161.7</ele>
        <time>2023-10-16T21:51:47.046Z</time>
      </trkpt>
      <trkpt lat="45.67510278895497" lon="17.681255685165524">
        <ele>161.85</ele>
        <time>2023-10-16T21:51:51.746Z</time>
      </trkpt>
      <trkpt lat="45.67509340122342" lon="17.681224420666695">
        <ele>162.0</ele>
        <time>2023-10-16T21:51:56.447Z</time>
      </trkpt>
      <trkpt lat="45.67508351057768" lon="17.681193994358182">
        <ele>162.16</ele>
        <time>2023-10-16T21:52:01.149Z</time>
      </trkpt>
      <trkpt lat="45.675073033198714" lon="17.681163735687733">
        <ele>162.31</ele>
        <time>2023-10-16T21:52:05.852Z</time>
      </trkpt>
      <trkpt lat="45.67506213672459" lon="17.68113372847438">
        <ele>162.48</ele>
        <time>2023-10-16T21:52:10.555Z</time>
      </trkpt>
      <trkpt lat="45.675051072612405" lon="17.681103805080056">
        <ele>162.65</ele>
        <time>2023-10-16T21:52:15.259Z</time>
      </trkpt>
      <trkpt lat="45.67504009231925" lon="17.681073881685734">
        <ele>162.82</ele>
        <time>2023-10-16T21:52:19.964Z</time>
      </trkpt>
      <trkpt lat="45.67502927966416" lon="17.681044042110443">
        <ele>163.0</ele>
        <time>2023-10-16T21:52:24.670Z</time>
      </trkpt>
      <trkpt lat="45.675018802285194" lon="17.681014202535152">
        <ele>163.18</ele>
        <time>2023-10-16T21:52:29.377Z</time>
      </trkpt>
      <trkpt lat="45.67500849254429" lon="17.680984446778893">
        <ele>163.36</ele>
        <time>2023-10-16T21:52:34.084Z</time>
      </trkpt>
      <trkpt lat="45.67499860189855" lon="17.680954774841666">
        <ele>163.54</ele>
        <time>2023-10-16T21:52:38.792Z</time>
      </trkpt>
      <trkpt lat="45.674989046528935" lon="17.68092518672347">
        <ele>163.72</ele>
        <time>2023-10-16T21:52:43.501Z</time>
      </trkpt>
      <trkpt lat="45.674980161711574" lon="17.680896185338497">
        <ele>163.91</ele>
        <time>2023-10-16T21:52:48.211Z</time>
      </trkpt>
      <trkpt lat="45.67497161217034" lon="17.680867100134492">
        <ele>164.1</ele>
        <time>2023-10-16T21:52:52.921Z</time>
      </trkpt>
      <trkpt lat="45.67496390081942" lon="17.680838434025645">
        <ele>164.29</ele>
        <time>2023-10-16T21:52:57.632Z</time>
      </trkpt>
      <trkpt lat="45.674957279115915" lon="17.680809935554862">
        <ele>164.48</ele>
        <time>2023-10-16T21:53:02.344Z</time>
      </trkpt>
      <trkpt lat="45.674951830878854" lon="17.680781772360206">
        <ele>164.67</ele>
        <time>2023-10-16T21:53:07.056Z</time>
      </trkpt>
      <trkpt lat="45.67494763992727" lon="17.680753944441676">
        <ele>164.86</ele>
        <time>2023-10-16T21:53:11.769Z</time>
      </trkpt>
      <trkpt lat="45.67494512535632" lon="17.680725948885083">
        <ele>165.04</ele>
        <time>2023-10-16T21:53:16.483Z</time>
      </trkpt>
      <trkpt lat="45.674944287166" lon="17.680698120966554">
        <ele>165.23</ele>
        <time>2023-10-16T21:53:21.197Z</time>
      </trkpt>
      <trkpt lat="45.674945041537285" lon="17.680669873952866">
        <ele>165.41</ele>
        <time>2023-10-16T21:53:25.912Z</time>
      </trkpt>
      <trkpt lat="45.67494730465114" lon="17.680641626939178">
        <ele>165.59</ele>
        <time>2023-10-16T21:53:30.628Z</time>
      </trkpt>
      <trkpt lat="45.6749511603266" lon="17.680612793192267">
        <ele>165.77</ele>
        <time>2023-10-16T21:53:35.344Z</time>
      </trkpt>
      <trkpt lat="45.67495652474463" lon="17.680583456531167">
        <ele>165.95</ele>
        <time>2023-10-16T21:53:40.061Z</time>
      </trkpt>
      <trkpt lat="45.6749633140862" lon="17.68055378459394">
        <ele>166.12</ele>
        <time>2023-10-16T21:53:44.779Z</time>
      </trkpt>
      <trkpt lat="45.67497127689421" lon="17.68052402883768">
        <ele>166.3</ele>
        <time>2023-10-16T21:53:49.498Z</time>
      </trkpt>
      <trkpt lat="45.67497999407351" lon="17.68049418926239">
        <ele>166.47</ele>
        <time>2023-10-16T21:53:54.217Z</time>
      </trkpt>
      <trkpt lat="45.67498913034797" lon="17.680464182049036">
        <ele>166.63</ele>
        <time>2023-10-16T21:53:58.937Z</time>
      </trkpt>
      <trkpt lat="45.67499809898436" lon="17.68043409101665">
        <ele>166.8</ele>
        <time>2023-10-16T21:54:03.658Z</time>
      </trkpt>
      <trkpt lat="45.675006648525596" lon="17.68040425144136">
        <ele>166.96</ele>
        <time>2023-10-16T21:54:08.380Z</time>
      </trkpt>
      <trkpt lat="45.67501477897167" lon="17.680374830961227">
        <ele>167.12</ele>
        <time>2023-10-16T21:54:13.102Z</time>
      </trkpt>
      <trkpt lat="45.67502249032259" lon="17.68034566193819">
        <ele>167.28</ele>
        <time>2023-10-16T21:54:17.825Z</time>
      </trkpt>
      <trkpt lat="45.675030034035444" lon="17.68031674437225">
        <ele>167.43</ele>
        <time>2023-10-16T21:54:22.549Z</time>
      </trkpt>
      <trkpt lat="45.6750373262912" lon="17.680288078263402">
        <ele>167.58</ele>
        <time>2023-10-16T21:54:27.274Z</time>
      </trkpt>
      <trkpt lat="45.67504436708987" lon="17.68025966361165">
        <ele>167.72</ele>
        <time>2023-10-16T21:54:31.999Z</time>
      </trkpt>
      <trkpt lat="45.675051072612405" lon="17.6802312489599">
        <ele>167.86</ele>
        <time>2023-10-16T21:54:36.725Z</time>
      </trkpt>
      <trkpt lat="45.67505761049688" lon="17.68020249903202">
        <ele>168.0</ele>
        <time>2023-10-16T21:54:41.452Z</time>
      </trkpt>
      <trkpt lat="45.67506389692426" lon="17.680173832923174">
        <ele>168.13</ele>
        <time>2023-10-16T21:54:46.179Z</time>
      </trkpt>
      <trkpt lat="45.67507001571357" lon="17.680144915357232">
        <ele>168.26</ele>
        <time>2023-10-16T21:54:50.907Z</time>
      </trkpt>
      <trkpt lat="45.67507613450289" lon="17.680116249248385">
        <ele>168.39</ele>
        <time>2023-10-16T21:54:55.636Z</time>
      </trkpt>
      <trkpt lat="45.675082337111235" lon="17.680087247863412">
        <ele>168.51</ele>
        <time>2023-10-16T21:55:00.365Z</time>
      </trkpt>
      <trkpt lat="45.67508887499571" lon="17.680058078840375">
        <ele>168.64</ele>
        <time>2023-10-16T21:55:05.095Z</time>
      </trkpt>
      <trkpt lat="45.675095580518246" lon="17.680028825998306">
        <ele>168.76</ele>
        <time>2023-10-16T21:55:09.826Z</time>
      </trkpt>
      <trkpt lat="45.67510262131691" lon="17.67999965697527">
        <ele>168.88</ele>
        <time>2023-10-16T21:55:14.558Z</time>
      </trkpt>
      <trkpt lat="45.67511008121073" lon="17.679970571771264">
        <ele>169.0</ele>
        <time>2023-10-16T21:55:19.290Z</time>
      </trkpt>
      <trkpt lat="45.67511787638068" lon="17.679941654205322">
        <ele>169.11</ele>
        <time>2023-10-16T21:55:24.023Z</time>
      </trkpt>
      <trkpt lat="45.67512600682676" lon="17.679912820458412">
        <ele>169.22</ele>
        <time>2023-10-16T21:55:28.757Z</time>
      </trkpt>
      <trkpt lat="45.67513422109187" lon="17.679884657263756">
        <ele>169.33</ele>
        <time>2023-10-16T21:55:33.491Z</time>
      </trkpt>
      <trkpt lat="45.67514260299504" lon="17.6798564940691">
        <ele>169.43</ele>
        <time>2023-10-16T21:55:38.226Z</time>
      </trkpt>
      <trkpt lat="45.675151320174336" lon="17.679828330874443">
        <ele>169.52</ele>
        <time>2023-10-16T21:55:42.962Z</time>
      </trkpt>
      <trkpt lat="45.67516012117267" lon="17.67980025149882">
        <ele>169.61</ele>
        <time>2023-10-16T21:55:47.699Z</time>
      </trkpt>
      <trkpt lat="45.67516908980906" lon="17.679772255942225">
        <ele>169.69</ele>
        <time>2023-10-16T21:55:52.436Z</time>
      </trkpt>
      <trkpt lat="45.675178058445454" lon="17.6797441765666">
        <ele>169.78</ele>
        <time>2023-10-16T21:55:57.174Z</time>
      </trkpt>
      <trkpt lat="45.675186943262815" lon="17.679716013371944">
        <ele>169.86</ele>
        <time>2023-10-16T21:56:01.913Z</time>
      </trkpt>
      <trkpt lat="45.67519557662308" lon="17.679687682539225">
        <ele>169.94</ele>
        <time>2023-10-16T21:56:06.653Z</time>
      </trkpt>
      <trkpt lat="45.675203958526254" lon="17.679658932611346">
        <ele>170.02</ele>
        <time>2023-10-16T21:56:11.393Z</time>
      </trkpt>
      <trkpt lat="45.67521217279136" lon="17.67962926067412">
        <ele>170.09</ele>
        <time>2023-10-16T21:56:16.134Z</time>
      </trkpt>
      <trkpt lat="45.67522005178034" lon="17.67959942109883">
        <ele>170.16</ele>
        <time>2023-10-16T21:56:20.876Z</time>
      </trkpt>
      <trkpt lat="45.67522784695029" lon="17.679568827152252">
        <ele>170.22</ele>
        <time>2023-10-16T21:56:25.619Z</time>
      </trkpt>
      <trkpt lat="45.67523547448218" lon="17.679538149386644">
        <ele>170.29</ele>
        <time>2023-10-16T21:56:30.362Z</time>
      </trkpt>
      <trkpt lat="45.67524301819503" lon="17.679507387802005">
        <ele>170.35</ele>
        <time>2023-10-16T21:56:35.106Z</time>
      </trkpt>
      <trkpt lat="45.675250478088856" lon="17.679476542398334">
        <ele>170.41</ele>
        <time>2023-10-16T21:56:39.851Z</time>
      </trkpt>
      <trkpt lat="45.67525802180171" lon="17.679445780813694">
        <ele>170.47</ele>
        <time>2023-10-16T21:56:44.597Z</time>
      </trkpt>
      <trkpt lat="45.675265565514565" lon="17.679415103048086">
        <ele>170.53</ele>
        <time>2023-10-16T21:56:49.343Z</time>
      </trkpt>
      <trkpt lat="45.67527327686548" lon="17.679384760558605">
        <ele>170.58</ele>
        <time>2023-10-16T21:56:54.090Z</time>
      </trkpt>
      <trkpt lat="45.675281239673495" lon="17.67935475334525">
        <ele>170.63</ele>
        <time>2023-10-16T21:56:58.838Z</time>
      </trkpt>
      <trkpt lat="45.67528937011957" lon="17.679325249046087">
        <ele>170.68</ele>
        <time>2023-10-16T21:57:03.587Z</time>
      </trkpt>
      <trkpt lat="45.67529766820371" lon="17.679296918213367">
        <ele>170.72</ele>
        <time>2023-10-16T21:57:08.336Z</time>
      </trkpt>
      <trkpt lat="45.675306133925915" lon="17.679269006475806">
        <ele>170.76</ele>
        <time>2023-10-16T21:57:13.086Z</time>
      </trkpt>
      <trkpt lat="45.67531476728618" lon="17.679242016747594">
        <ele>170.8</ele>
        <time>2023-10-16T21:57:17.837Z</time>
      </trkpt>
      <trkpt lat="45.67532365210354" lon="17.67921544611454">
        <ele>170.84</ele>
        <time>2023-10-16T21:57:22.588Z</time>
      </trkpt>
      <trkpt lat="45.675332536920905" lon="17.679189713671803">
        <ele>170.88</ele>
        <time>2023-10-16T21:57:27.340Z</time>
      </trkpt>
      <trkpt lat="45.675341757014394" lon="17.67916414886713">
        <ele>170.91</ele>
        <time>2023-10-16T21:57:32.093Z</time>
      </trkpt>
      <trkpt lat="45.67535097710788" lon="17.67913925461471">
        <ele>170.95</ele>
        <time>2023-10-16T21:57:36.846Z</time>
      </trkpt>
      <trkpt lat="45.675360448658466" lon="17.679114444181323">
        <ele>170.98</ele>
        <time>2023-10-16T21:57:41.600Z</time>
      </trkpt>
      <trkpt lat="45.67537000402808" lon="17.679090136662126">
        <ele>171.01</ele>
        <time>2023-10-16T21:57:46.355Z</time>
      </trkpt>
      <trkpt lat="45.675379894673824" lon="17.679065577685833">
        <ele>171.03</ele>
        <time>2023-10-16T21:57:51.110Z</time>
      </trkpt>
      <trkpt lat="45.67538978531957" lon="17.679041353985667">
        <ele>171.06</ele>
        <time>2023-10-16T21:57:55.866Z</time>
      </trkpt>
      <trkpt lat="45.67540009506047" lon="17.679016711190343">
        <ele>171.08</ele>
        <time>2023-10-16T21:58:00.623Z</time>
      </trkpt>
      <trkpt lat="45.67541057243943" lon="17.678992236033082">
        <ele>171.1</ele>
        <time>2023-10-16T21:58:05.380Z</time>
      </trkpt>
      <trkpt lat="45.67542138509452" lon="17.678967425599694">
        <ele>171.12</ele>
        <time>2023-10-16T21:58:10.138Z</time>
      </trkpt>
      <trkpt lat="45.67543244920671" lon="17.67894278280437">
        <ele>171.14</ele>
        <time>2023-10-16T21:58:14.897Z</time>
      </trkpt>
      <trkpt lat="45.67544384859502" lon="17.67891780473292">
        <ele>171.15</ele>
        <time>2023-10-16T21:58:19.656Z</time>
      </trkpt>
      <trkpt lat="45.67545549944043" lon="17.678893078118563">
        <ele>171.16</ele>
        <time>2023-10-16T21:58:24.416Z</time>
      </trkpt>
      <trkpt lat="45.675467401742935" lon="17.678867932409048">
        <ele>171.18</ele>
        <time>2023-10-16T21:58:29.177Z</time>
      </trkpt>
      <trkpt lat="45.67547938786447" lon="17.678842954337597">
        <ele>171.19</ele>
        <time>2023-10-16T21:58:33.939Z</time>
      </trkpt>
      <trkpt lat="45.6754916254431" lon="17.678817808628082">
        <ele>171.19</ele>
        <time>2023-10-16T21:58:38.701Z</time>
      </trkpt>
      <trkpt lat="45.6755037792027" lon="17.678792914375663">
        <ele>171.2</ele>
        <time>2023-10-16T21:58:43.464Z</time>
      </trkpt>
      <trkpt lat="45.67551610060036" lon="17.678767684847116">
        <ele>171.2</ele>
        <time>2023-10-16T21:58:48.228Z</time>
      </trkpt>
      <trkpt lat="45.67552825435996" lon="17.67874287441373">
        <ele>171.2</ele>
        <time>2023-10-16T21:58:52.992Z</time>
      </trkpt>
      <trkpt lat="45.67554040811956" lon="17.678717812523246">
        <ele>171.2</ele>
        <time>2023-10-16T21:58:57.757Z</time>
      </trkpt>
      <trkpt lat="45.67555222660303" lon="17.67869316972792">
        <ele>171.2</ele>
        <time>2023-10-16T21:59:02.523Z</time>
      </trkpt>
      <trkpt lat="45.675564128905535" lon="17.678668443113565">
        <ele>171.19</ele>
        <time>2023-10-16T21:59:07.289Z</time>
      </trkpt>
      <trkpt lat="45.67557577975094" lon="17.67864430323243">
        <ele>171.18</ele>
        <time>2023-10-16T21:59:12.056Z</time>
      </trkpt>
      <trkpt lat="45.675587598234415" lon="17.678620414808393">
        <ele>171.18</ele>
        <time>2023-10-16T21:59:16.824Z</time>
      </trkpt>
      <trkpt lat="45.675599332898855" lon="17.67859736457467">
        <ele>171.17</ele>
        <time>2023-10-16T21:59:21.593Z</time>
      </trkpt>
      <trkpt lat="45.67561115138233" lon="17.678574733436108">
        <ele>171.16</ele>
        <time>2023-10-16T21:59:26.362Z</time>
      </trkpt>
      <trkpt lat="45.67562305368483" lon="17.678552689030766">
        <ele>171.15</ele>
        <time>2023-10-16T21:59:31.132Z</time>
      </trkpt>
      <trkpt lat="45.6756348721683" lon="17.67853139899671">
        <ele>171.13</ele>
        <time>2023-10-16T21:59:35.902Z</time>
      </trkpt>
      <trkpt lat="45.67564660683274" lon="17.67851136624813">
        <ele>171.12</ele>
        <time>2023-10-16T21:59:40.673Z</time>
      </trkpt>
      <trkpt lat="45.675658425316215" lon="17.678492506965995">
        <ele>171.1</ele>
        <time>2023-10-16T21:59:45.445Z</time>
      </trkpt>
      <trkpt lat="45.67566990852356" lon="17.67847524024546">
        <ele>171.09</ele>
        <time>2023-10-16T21:59:50.217Z</time>
      </trkpt>
      <trkpt lat="45.67568130791187" lon="17.678459649905562">
        <ele>171.07</ele>
        <time>2023-10-16T21:59:54.990Z</time>
      </trkpt>
      <trkpt lat="45.67569237202406" lon="17.67844590358436">
        <ele>171.05</ele>
        <time>2023-10-16T21:59:59.763Z</time>
      </trkpt>
      <trkpt lat="45.67570326849818" lon="17.678433749824762">
        <ele>171.03</ele>
        <time>2023-10-16T22:00:04.537Z</time>
      </trkpt>
      <trkpt lat="45.67571382969618" lon="17.678423188626766">
        <ele>171.01</ele>
        <time>2023-10-16T22:00:09.311Z</time>
      </trkpt>
      <trkpt lat="45.67572422325611" lon="17.67841405235231">
        <ele>170.99</ele>
        <time>2023-10-16T22:00:14.086Z</time>
      </trkpt>
      <trkpt lat="45.675734616816044" lon="17.678406424820423">
        <ele>170.97</ele>
        <time>2023-10-16T22:00:18.861Z</time>
      </trkpt>
      <trkpt lat="45.67574501037598" lon="17.678400138393044">
        <ele>170.95</ele>
        <time>2023-10-16T22:00:23.636Z</time>
      </trkpt>
      <trkpt lat="45.67575548775494" lon="17.678394773975015">
        <ele>170.93</ele>
        <time>2023-10-16T22:00:28.412Z</time>
      </trkpt>
      <trkpt lat="45.675765881314874" lon="17.678389912471175">
        <ele>170.91</ele>
        <time>2023-10-16T22:00:33.188Z</time>
      </trkpt>
      <trkpt lat="45.67577644251287" lon="17.678385386243463">
        <ele>170.89</ele>
        <time>2023-10-16T22:00:37.964Z</time>
      </trkpt>
      <trkpt lat="45.67578725516796" lon="17.67838086001575">
        <ele>170.87</ele>
        <time>2023-10-16T22:00:42.741Z</time>
      </trkpt>
      <trkpt lat="45.67579840309918" lon="17.678375747054815">
        <ele>170.85</ele>
        <time>2023-10-16T22:00:47.518Z</time>
      </trkpt>
      <trkpt lat="45.675809970125556" lon="17.67837004736066">
        <ele>170.83</ele>
        <time>2023-10-16T22:00:52.296Z</time>
      </trkpt>
      <trkpt lat="45.67582195624709" lon="17.67836376093328">
        <ele>170.81</ele>
        <time>2023-10-16T22:00:57.074Z</time>
      </trkpt>
      <trkpt lat="45.67583452910185" lon="17.678356552496552">
        <ele>170.8</ele>
        <time>2023-10-16T22:01:01.852Z</time>
      </trkpt>
      <trkpt lat="45.67584743723273" lon="17.678348338231444">
        <ele>170.78</ele>
        <time>2023-10-16T22:01:06.631Z</time>
      </trkpt>
      <trkpt lat="45.67586042918265" lon="17.67833878286183">
        <ele>170.77</ele>
        <time>2023-10-16T22:01:11.410Z</time>
      </trkpt>
      <trkpt lat="45.67587400786579" lon="17.67832763493061">
        <ele>170.76</ele>
        <time>2023-10-16T22:01:16.190Z</time>
      </trkpt>
      <trkpt lat="45.67588783800602" lon="17.67831497825682">
        <ele>170.75</ele>
        <time>2023-10-16T22:01:20.970Z</time>
      </trkpt>
      <trkpt lat="45.67590242251754" lon="17.678300561383367">
        <ele>170.74</ele>
        <time>2023-10-16T22:01:25.751Z</time>
      </trkpt>
      <trkpt lat="45.67591759376228" lon="17.67828455194831">
        <ele>170.74</ele>
        <time>2023-10-16T22:01:30.533Z</time>
      </trkpt>
      <trkpt lat="45.675933519378304" lon="17.67826703377068">
        <ele>170.74</ele>
        <time>2023-10-16T22:01:35.315Z</time>
      </trkpt>
      <trkpt lat="45.675950115546584" lon="17.678248258307576">
        <ele>170.74</ele>
        <time>2023-10-16T22:01:40.098Z</time>
      </trkpt>
      <trkpt lat="45.67596746608615" lon="17.678228225558996">
        <ele>170.74</ele>
        <time>2023-10-16T22:01:44.882Z</time>
      </trkpt>
      <trkpt lat="45.675985403358936" lon="17.678207522258162">
        <ele>170.75</ele>
        <time>2023-10-16T22:01:49.667Z</time>
      </trkpt>
      <trkpt lat="45.676003843545914" lon="17.678186064586043">
        <ele>170.75</ele>
        <time>2023-10-16T22:01:54.452Z</time>
      </trkpt>
      <trkpt lat="45.67602261900902" lon="17.678164187818766">
        <ele>170.77</ele>
        <time>2023-10-16T22:01:59.238Z</time>
      </trkpt>
      <trkpt lat="45.67604189738631" lon="17.678141808137298">
        <ele>170.78</ele>
        <time>2023-10-16T22:02:04.025Z</time>
      </trkpt>
      <trkpt lat="45.676061091944575" lon="17.67811942845583">
        <ele>170.8</ele>
        <time>2023-10-16T22:02:08.813Z</time>
      </trkpt>
      <trkpt lat="45.6760804541409" lon="17.678096629679203">
        <ele>170.81</ele>
        <time>2023-10-16T22:02:13.602Z</time>
      </trkpt>
      <trkpt lat="45.67609956488013" lon="17.678073830902576">
        <ele>170.83</ele>
        <time>2023-10-16T22:02:18.392Z</time>
      </trkpt>
      <trkpt lat="45.67611834034324" lon="17.67805103212595">
        <ele>170.85</ele>
        <time>2023-10-16T22:02:23.182Z</time>
      </trkpt>
      <trkpt lat="45.67613694816828" lon="17.678027898073196">
        <ele>170.88</ele>
        <time>2023-10-16T22:02:27.973Z</time>
      </trkpt>
      <trkpt lat="45.67615513689816" lon="17.678004261106253">
        <ele>170.91</ele>
        <time>2023-10-16T22:02:32.765Z</time>
      </trkpt>
      <trkpt lat="45.676172990351915" lon="17.677979869768023">
        <ele>170.93</ele>
        <time>2023-10-16T22:02:37.558Z</time>
      </trkpt>
      <trkpt lat="45.67619067616761" lon="17.67795388586819">
        <ele>170.96</ele>
        <time>2023-10-16T22:02:42.352Z</time>
      </trkpt>
      <trkpt lat="45.676207691431046" lon="17.677926644682884">
        <ele>171.0</ele>
        <time>2023-10-16T22:02:47.147Z</time>
      </trkpt>
      <trkpt lat="45.67622403614223" lon="17.677898230031133">
        <ele>171.04</ele>
        <time>2023-10-16T22:02:51.942Z</time>
      </trkpt>
      <trkpt lat="45.67623912356794" lon="17.677868390455842">
        <ele>171.08</ele>
        <time>2023-10-16T22:02:56.738Z</time>
      </trkpt>
      <trkpt lat="45.67625286988914" lon="17.677837628871202">
        <ele>171.13</ele>
        <time>2023-10-16T22:03:01.535Z</time>
      </trkpt>
      <trkpt lat="45.67626502364874" lon="17.67780628055334">
        <ele>171.18</ele>
        <time>2023-10-16T22:03:06.333Z</time>
      </trkpt>
      <trkpt lat="45.67627566866577" lon="17.67777451314032">
        <ele>171.24</ele>
        <time>2023-10-16T22:03:11.132Z</time>
      </trkpt>
      <trkpt lat="45.676284888759255" lon="17.67774215899408">
        <ele>171.3</ele>
        <time>2023-10-16T22:03:15.932Z</time>
      </trkpt>
      <trkpt lat="45.67629243247211" lon="17.6777099724859">
        <ele>171.36</ele>
        <time>2023-10-16T22:03:20.732Z</time>
      </trkpt>
      <trkpt lat="45.67629838362336" lon="17.677677618339658">
        <ele>171.43</ele>
        <time>2023-10-16T22:03:25.533Z</time>
      </trkpt>
      <trkpt lat="45.67630257457495" lon="17.677645599469543">
        <ele>171.51</ele>
        <time>2023-10-16T22:03:30.335Z</time>
      </trkpt>
      <trkpt lat="45.676304921507835" lon="17.677613915875554">
        <ele>171.58</ele>
        <time>2023-10-16T22:03:35.138Z</time>
      </trkpt>
      <trkpt lat="45.67630567587912" lon="17.677582735195756">
        <ele>171.67</ele>
        <time>2023-10-16T22:03:39.941Z</time>
      </trkpt>
      <trkpt lat="45.67630500532687" lon="17.677551554515958">
        <ele>171.75</ele>
        <time>2023-10-16T22:03:44.745Z</time>
      </trkpt>
      <trkpt lat="45.67630332894623" lon="17.67752087675035">
        <ele>171.84</ele>
        <time>2023-10-16T22:03:49.550Z</time>
      </trkpt>
      <trkpt lat="45.67630089819431" lon="17.677490198984742">
        <ele>171.94</ele>
        <time>2023-10-16T22:03:54.356Z</time>
      </trkpt>
      <trkpt lat="45.676298132166266" lon="17.677459940314293">
        <ele>172.03</ele>
        <time>2023-10-16T22:03:59.162Z</time>
      </trkpt>
      <trkpt lat="45.67629503086209" lon="17.67742943018675">
        <ele>172.14</ele>
        <time>2023-10-16T22:04:03.969Z</time>
      </trkpt>
      <trkpt lat="45.67629184573889" lon="17.67739925533533">
        <ele>172.24</ele>
        <time>2023-10-16T22:04:08.777Z</time>
      </trkpt>
      <trkpt lat="45.67628866061568" lon="17.67736882902682">
        <ele>172.35</ele>
        <time>2023-10-16T22:04:13.585Z</time>
      </trkpt>
      <trkpt lat="45.67628564313054" lon="17.677338821813464">
        <ele>172.46</ele>
        <time>2023-10-16T22:04:18.394Z</time>
      </trkpt>
      <trkpt lat="45.67628270946443" lon="17.67730873078108">
        <ele>172.58</ele>
        <time>2023-10-16T22:04:23.204Z</time>
      </trkpt>
      <trkpt lat="45.67628019489348" lon="17.67727905884385">
        <ele>172.7</ele>
        <time>2023-10-16T22:04:28.015Z</time>
      </trkpt>
      <trkpt lat="45.67627843469381" lon="17.677249470725656">
        <ele>172.82</ele>
        <time>2023-10-16T22:04:32.826Z</time>
      </trkpt>
      <trkpt lat="45.676277596503496" lon="17.677220636978745">
        <ele>172.94</ele>
        <time>2023-10-16T22:04:37.638Z</time>
      </trkpt>
      <trkpt lat="45.67627784796059" lon="17.677191803231835">
        <ele>173.06</ele>
        <time>2023-10-16T22:04:42.451Z</time>
      </trkpt>
      <trkpt lat="45.676279440522194" lon="17.677163807675242">
        <ele>173.19</ele>
        <time>2023-10-16T22:04:47.264Z</time>
      </trkpt>
      <trkpt lat="45.676282374188304" lon="17.677135979756713">
        <ele>173.32</ele>
        <time>2023-10-16T22:04:52.078Z</time>
      </trkpt>
      <trkpt lat="45.676286397501826" lon="17.67710890620947">
        <ele>173.45</ele>
        <time>2023-10-16T22:04:56.893Z</time>
      </trkpt>
      <trkpt lat="45.67629151046276" lon="17.677081916481256">
        <ele>173.58</ele>
        <time>2023-10-16T22:05:01.708Z</time>
      </trkpt>
      <trkpt lat="45.676297629252076" lon="17.67705576494336">
        <ele>173.71</ele>
        <time>2023-10-16T22:05:06.524Z</time>
      </trkpt>
      <trkpt lat="45.67630467005074" lon="17.677029697224498">
        <ele>173.84</ele>
        <time>2023-10-16T22:05:11.340Z</time>
      </trkpt>
      <trkpt lat="45.67631263285875" lon="17.677004300057888">
        <ele>173.97</ele>
        <time>2023-10-16T22:05:16.157Z</time>
      </trkpt>
      <trkpt lat="45.67632135003805" lon="17.676979154348373">
        <ele>174.11</ele>
        <time>2023-10-16T22:05:20.975Z</time>
      </trkpt>
      <trkpt lat="45.67633065395057" lon="17.676954679191113">
        <ele>174.25</ele>
        <time>2023-10-16T22:05:25.793Z</time>
      </trkpt>
      <trkpt lat="45.67634046077728" lon="17.67693053930998">
        <ele>174.39</ele>
        <time>2023-10-16T22:05:30.612Z</time>
      </trkpt>
      <trkpt lat="45.67635060288012" lon="17.67690715380013">
        <ele>174.53</ele>
        <time>2023-10-16T22:05:35.432Z</time>
      </trkpt>
      <trkpt lat="45.67636124789715" lon="17.67688418738544">
        <ele>174.66</ele>
        <time>2023-10-16T22:05:40.252Z</time>
      </trkpt>
      <trkpt lat="45.67637214437127" lon="17.676861891523004">
        <ele>174.8</ele>
        <time>2023-10-16T22:05:45.073Z</time>
      </trkpt>
      <trkpt lat="45.676383627578616" lon="17.67683976329863">
        <ele>174.93</ele>
        <time>2023-10-16T22:05:49.895Z</time>
      </trkpt>
      <trkpt lat="45.67639552988112" lon="17.676818137988448">
        <ele>175.07</ele>
        <time>2023-10-16T22:05:54.717Z</time>
      </trkpt>
      <trkpt lat="45.676407935097814" lon="17.676796512678266">
        <ele>175.2</ele>
        <time>2023-10-16T22:05:59.540Z</time>
      </trkpt>
      <trkpt lat="45.67642092704773" lon="17.67677471973002">
        <ele>175.33</ele>
        <time>2023-10-16T22:06:04.364Z</time>
      </trkpt>
      <trkpt lat="45.676434338092804" lon="17.676752842962742">
        <ele>175.46</ele>
        <time>2023-10-16T22:06:09.188Z</time>
      </trkpt>
      <trkpt lat="45.676448084414005" lon="17.676730630919337">
        <ele>175.59</ele>
        <time>2023-10-16T22:06:14.013Z</time>
      </trkpt>
      <trkpt lat="45.67646199837327" lon="17.676708083599806">
        <ele>175.72</ele>
        <time>2023-10-16T22:06:18.839Z</time>
      </trkpt>
      <trkpt lat="45.6764760799706" lon="17.676685117185116">
        <ele>175.85</ele>
        <time>2023-10-16T22:06:23.665Z</time>
      </trkpt>
      <trkpt lat="45.67649024538696" lon="17.676661564037204">
        <ele>175.98</ele>
        <time>2023-10-16T22:06:28.492Z</time>
      </trkpt>
      <trkpt lat="45.67650415934622" lon="17.676637340337038">
        <ele>176.1</ele>
        <time>2023-10-16T22:06:33.320Z</time>
      </trkpt>
      <trkpt lat="45.676517989486456" lon="17.676612613722682">
        <ele>176.23</ele>
        <time>2023-10-16T22:06:38.149Z</time>
      </trkpt>
      <trkpt lat="45.67653148435056" lon="17.676587216556072">
        <ele>176.35</ele>
        <time>2023-10-16T22:06:42.978Z</time>
      </trkpt>
      <trkpt lat="45.676544811576605" lon="17.676561484113336">
        <ele>176.47</ele>
        <time>2023-10-16T22:06:47.808Z</time>
      </trkpt>
      <trkpt lat="45.67655788734555" lon="17.676535500213504">
        <ele>176.59</ele>
        <time>2023-10-16T22:06:52.639Z</time>
      </trkpt>
      <trkpt lat="45.676570711657405" lon="17.676509600132704">
        <ele>176.7</ele>
        <time>2023-10-16T22:06:57.471Z</time>
      </trkpt>
      <trkpt lat="45.676583368331194" lon="17.67648344859481">
        <ele>176.81</ele>
        <time>2023-10-16T22:07:02.303Z</time>
      </trkpt>
      <trkpt lat="45.67659585736692" lon="17.67645754851401">
        <ele>176.91</ele>
        <time>2023-10-16T22:07:07.136Z</time>
      </trkpt>
      <trkpt lat="45.67660826258361" lon="17.676431564614177">
        <ele>177.02</ele>
        <time>2023-10-16T22:07:11.970Z</time>
      </trkpt>
      <trkpt lat="45.676620583981276" lon="17.67640532925725">
        <ele>177.12</ele>
        <time>2023-10-16T22:07:16.805Z</time>
      </trkpt>
      <trkpt lat="45.676632737740874" lon="17.676379177719355">
        <ele>177.21</ele>
        <time>2023-10-16T22:07:21.640Z</time>
      </trkpt>
      <trkpt lat="45.676644472405314" lon="17.676353277638555">
        <ele>177.3</ele>
        <time>2023-10-16T22:07:26.476Z</time>
      </trkpt>
      <trkpt lat="45.67665587179363" lon="17.676327293738723">
        <ele>177.39</ele>
        <time>2023-10-16T22:07:31.313Z</time>
      </trkpt>
      <trkpt lat="45.67666668444872" lon="17.67630172893405">
        <ele>177.47</ele>
        <time>2023-10-16T22:07:36.150Z</time>
      </trkpt>
      <trkpt lat="45.67667682655156" lon="17.67627641558647">
        <ele>177.55</ele>
        <time>2023-10-16T22:07:40.988Z</time>
      </trkpt>
      <trkpt lat="45.67668621428311" lon="17.676251772791147">
        <ele>177.62</ele>
        <time>2023-10-16T22:07:45.827Z</time>
      </trkpt>
      <trkpt lat="45.67669493146241" lon="17.67622754909098">
        <ele>177.69</ele>
        <time>2023-10-16T22:07:50.666Z</time>
      </trkpt>
      <trkpt lat="45.67670289427042" lon="17.676203912124038">
        <ele>177.75</ele>
        <time>2023-10-16T22:07:55.506Z</time>
      </trkpt>
      <trkpt lat="45.67671018652618" lon="17.676180778071284">
        <ele>177.81</ele>
        <time>2023-10-16T22:08:00.347Z</time>
      </trkpt>
      <trkpt lat="45.67671672441065" lon="17.676158314570785">
        <ele>177.87</ele>
        <time>2023-10-16T22:08:05.188Z</time>
      </trkpt>
      <trkpt lat="45.67672259174287" lon="17.676136689260602">
        <ele>177.91</ele>
        <time>2023-10-16T22:08:10.030Z</time>
      </trkpt>
      <trkpt lat="45.6767279561609" lon="17.67611565068364">
        <ele>177.96</ele>
        <time>2023-10-16T22:08:14.872Z</time>
      </trkpt>
      <trkpt lat="45.67673281766474" lon="17.676094947382808">
        <ele>177.99</ele>
        <time>2023-10-16T22:08:19.715Z</time>
      </trkpt>
      <trkpt lat="45.67673726007342" lon="17.676074830815196">
        <ele>178.02</ele>
        <time>2023-10-16T22:08:24.558Z</time>
      </trkpt>
      <trkpt lat="45.676741283386946" lon="17.676055133342743">
        <ele>178.05</ele>
        <time>2023-10-16T22:08:29.402Z</time>
      </trkpt>
      <trkpt lat="45.67674480378628" lon="17.67603551968932">
        <ele>178.06</ele>
        <time>2023-10-16T22:08:34.246Z</time>
      </trkpt>
      <trkpt lat="45.67674798890948" lon="17.676015989854932">
        <ele>178.08</ele>
        <time>2023-10-16T22:08:39.091Z</time>
      </trkpt>
      <trkpt lat="45.6767506711185" lon="17.675996460020542">
        <ele>178.08</ele>
        <time>2023-10-16T22:08:43.936Z</time>
      </trkpt>
      <trkpt lat="45.67675310187042" lon="17.67597684636712">
        <ele>178.08</ele>
        <time>2023-10-16T22:08:48.782Z</time>
      </trkpt>
      <trkpt lat="45.676755364984274" lon="17.6759572327137">
        <ele>178.07</ele>
        <time>2023-10-16T22:08:53.628Z</time>
      </trkpt>
      <trkpt lat="45.6767575442791" lon="17.675937619060278">
        <ele>178.05</ele>
        <time>2023-10-16T22:08:58.475Z</time>
      </trkpt>
      <trkpt lat="45.67675989121199" lon="17.675917586311698">
        <ele>178.03</ele>
        <time>2023-10-16T22:09:03.322Z</time>
      </trkpt>
      <trkpt lat="45.67676215432584" lon="17.67589721828699">
        <ele>178.0</ele>
        <time>2023-10-16T22:09:08.169Z</time>
      </trkpt>
      <trkpt lat="45.6767644174397" lon="17.67587659880519">
        <ele>177.95</ele>
        <time>2023-10-16T22:09:13.017Z</time>
      </trkpt>
      <trkpt lat="45.676766596734524" lon="17.675855811685324">
        <ele>177.9</ele>
        <time>2023-10-16T22:09:17.865Z</time>
      </trkpt>
      <trkpt lat="45.67676844075322" lon="17.675834773108363">
        <ele>177.84</ele>
        <time>2023-10-16T22:09:22.714Z</time>
      </trkpt>
      <trkpt lat="45.676770033314824" lon="17.67581365071237">
        <ele>177.78</ele>
        <time>2023-10-16T22:09:27.563Z</time>
      </trkpt>
      <trkpt lat="45.676771039143205" lon="17.675791773945093">
        <ele>177.7</ele>
        <time>2023-10-16T22:09:32.413Z</time>
      </trkpt>
      <trkpt lat="45.6767712906003" lon="17.675769478082657">
        <ele>177.62</ele>
        <time>2023-10-16T22:09:37.263Z</time>
      </trkpt>
      <trkpt lat="45.67677045240998" lon="17.675746511667967">
        <ele>177.53</ele>
        <time>2023-10-16T22:09:42.114Z</time>
      </trkpt>
      <trkpt lat="45.67676852457225" lon="17.675722958520055">
        <ele>177.43</ele>
        <time>2023-10-16T22:09:46.966Z</time>
      </trkpt>
      <trkpt lat="45.67676500417292" lon="17.67569881863892">
        <ele>177.32</ele>
        <time>2023-10-16T22:09:51.818Z</time>
      </trkpt>
      <trkpt lat="45.67675989121199" lon="17.675674678757787">
        <ele>177.2</ele>
        <time>2023-10-16T22:09:56.671Z</time>
      </trkpt>
      <trkpt lat="45.67675318568945" lon="17.67565037123859">
        <ele>177.08</ele>
        <time>2023-10-16T22:10:01.524Z</time>
      </trkpt>
      <trkpt lat="45.67674480378628" lon="17.675626147538424">
        <ele>176.94</ele>
        <time>2023-10-16T22:10:06.378Z</time>
      </trkpt>
      <trkpt lat="45.67673516459763" lon="17.67560200765729">
        <ele>176.8</ele>
        <time>2023-10-16T22:10:11.233Z</time>
      </trkpt>
      <trkpt lat="45.67672401666641" lon="17.675577867776155">
        <ele>176.65</ele>
        <time>2023-10-16T22:10:16.088Z</time>
      </trkpt>
      <trkpt lat="45.676711862906814" lon="17.675553979352117">
        <ele>176.48</ele>
        <time>2023-10-16T22:10:20.944Z</time>
      </trkpt>
      <trkpt lat="45.676698787137866" lon="17.675530593842268">
        <ele>176.31</ele>
        <time>2023-10-16T22:10:25.801Z</time>
      </trkpt>
      <trkpt lat="45.676685040816665" lon="17.675507459789515">
        <ele>176.12</ele>
        <time>2023-10-16T22:10:30.658Z</time>
      </trkpt>
      <trkpt lat="45.67667095921934" lon="17.675484661012888">
        <ele>175.93</ele>
        <time>2023-10-16T22:10:35.516Z</time>
      </trkpt>
      <trkpt lat="45.676656709983945" lon="17.675462029874325">
        <ele>175.72</ele>
        <time>2023-10-16T22:10:40.375Z</time>
      </trkpt>
      <trkpt lat="45.67664262838662" lon="17.67543931491673">
        <ele>175.51</ele>
        <time>2023-10-16T22:10:45.235Z</time>
      </trkpt>
      <trkpt lat="45.67662913352251" lon="17.675416516140103">
        <ele>175.28</ele>
        <time>2023-10-16T22:10:50.095Z</time>
      </trkpt>
      <trkpt lat="45.67661647684872" lon="17.67539346590638">
        <ele>175.04</ele>
        <time>2023-10-16T22:10:54.956Z</time>
      </trkpt>
      <trkpt lat="45.67660507746041" lon="17.67536991275847">
        <ele>174.8</ele>
        <time>2023-10-16T22:10:59.818Z</time>
      </trkpt>
      <trkpt lat="45.676595186814666" lon="17.675345605239272">
        <ele>174.54</ele>
        <time>2023-10-16T22:11:04.680Z</time>
      </trkpt>
      <trkpt lat="45.67658764310181" lon="17.675320962443948">
        <ele>174.26</ele>
        <time>2023-10-16T22:11:09.543Z</time>
      </trkpt>
      <trkpt lat="45.67658278159797" lon="17.675295984372497">
        <ele>173.98</ele>
        <time>2023-10-16T22:11:14.406Z</time>
      </trkpt>
      <trkpt lat="45.676580937579274" lon="17.67527117393911">
        <ele>173.69</ele>
        <time>2023-10-16T22:11:19.270Z</time>
      </trkpt>
      <trkpt lat="45.67658185958862" lon="17.675247453153133">
        <ele>173.38</ele>
        <time>2023-10-16T22:11:24.135Z</time>
      </trkpt>
      <trkpt lat="45.67658605054021" lon="17.675225408747792">
        <ele>173.06</ele>
        <time>2023-10-16T22:11:29.000Z</time>
      </trkpt>
      <trkpt lat="45.67659359425306" lon="17.675205459818244">
        <ele>172.73</ele>
        <time>2023-10-16T22:11:33.866Z</time>
      </trkpt>
      <trkpt lat="45.67660407163203" lon="17.67518861219287">
        <ele>172.39</ele>
        <time>2023-10-16T22:11:38.732Z</time>
      </trkpt>
      <trkpt lat="45.67661731503904" lon="17.675174698233604">
        <ele>172.04</ele>
        <time>2023-10-16T22:11:43.599Z</time>
      </trkpt>
      <trkpt lat="45.67663298919797" lon="17.67516422085464">
        <ele>171.68</ele>
        <time>2023-10-16T22:11:48.466Z</time>
      </trkpt>
      <trkpt lat="45.676650842651725" lon="17.675157096236944">
        <ele>171.31</ele>
        <time>2023-10-16T22:11:53.334Z</time>
      </trkpt>
      <trkpt lat="45.67667020484805" lon="17.675153575837612">
        <ele>170.93</ele>
        <time>2023-10-16T22:11:58.203Z</time>
      </trkpt>
      <trkpt lat="45.67669074051082" lon="17.675153072923422">
        <ele>170.54</ele>
        <time>2023-10-16T22:12:03.072Z</time>
      </trkpt>
      <trkpt lat="45.67671169526875" lon="17.67515541985631">
        <ele>170.15</ele>
        <time>2023-10-16T22:12:07.942Z</time>
      </trkpt>
      <trkpt lat="45.6767332367599" lon="17.675160029903054">
        <ele>169.75</ele>
        <time>2023-10-16T22:12:12.813Z</time>
      </trkpt>
      <trkpt lat="45.67675519734621" lon="17.675166400149465">
        <ele>169.34</ele>
        <time>2023-10-16T22:12:17.684Z</time>
      </trkpt>
      <trkpt lat="45.67677707411349" lon="17.675173692405224">
        <ele>168.92</ele>
        <time>2023-10-16T22:12:22.556Z</time>
      </trkpt>
      <trkpt lat="45.67679853178561" lon="17.67518131993711">
        <ele>168.49</ele>
        <time>2023-10-16T22:12:27.429Z</time>
      </trkpt>
      <trkpt lat="45.67681998945773" lon="17.675188863649964">
        <ele>168.06</ele>
        <time>2023-10-16T22:12:32.303Z</time>
      </trkpt>
      <trkpt lat="45.67684111185372" lon="17.675196239724755">
        <ele>167.62</ele>
        <time>2023-10-16T22:12:37.177Z</time>
      </trkpt>
      <trkpt lat="45.67686223424971" lon="17.675203112885356">
        <ele>167.18</ele>
        <time>2023-10-16T22:12:42.052Z</time>
      </trkpt>
      <trkpt lat="45.676883440464735" lon="17.675209566950798">
        <ele>166.73</ele>
        <time>2023-10-16T22:12:46.928Z</time>
      </trkpt>
      <trkpt lat="45.67690481431782" lon="17.67521560192108">
        <ele>166.28</ele>
        <time>2023-10-16T22:12:51.805Z</time>
      </trkpt>
      <trkpt lat="45.676926439628005" lon="17.675221217796206">
        <ele>165.82</ele>
        <time>2023-10-16T22:12:56.682Z</time>
      </trkpt>
      <trkpt lat="45.67694814875722" lon="17.675226582214236">
        <ele>165.36</ele>
        <time>2023-10-16T22:13:01.560Z</time>
      </trkpt>
      <trkpt lat="45.67697010934353" lon="17.67523169517517">
        <ele>164.9</ele>
        <time>2023-10-16T22:13:06.439Z</time>
      </trkpt>
      <trkpt lat="45.676991902291775" lon="17.67523647285998">
        <ele>164.43</ele>
        <time>2023-10-16T22:13:11.319Z</time>
      </trkpt>
      <trkpt lat="45.67701403051615" lon="17.675241082906723">
        <ele>163.95</ele>
        <time>2023-10-16T22:13:16.199Z</time>
      </trkpt>
      <trkpt lat="45.67703624255955" lon="17.675245525315404">
        <ele>163.48</ele>
        <time>2023-10-16T22:13:21.080Z</time>
      </trkpt>
      <trkpt lat="45.67705862224102" lon="17.67524971626699">
        <ele>163.0</ele>
        <time>2023-10-16T22:13:25.962Z</time>
      </trkpt>
      <trkpt lat="45.67708100192249" lon="17.675253739580512">
        <ele>162.52</ele>
        <time>2023-10-16T22:13:30.845Z</time>
      </trkpt>
      <trkpt lat="45.67710371688008" lon="17.67525751143694">
        <ele>162.03</ele>
        <time>2023-10-16T22:13:35.728Z</time>
      </trkpt>
      <trkpt lat="45.67712618038058" lon="17.67526103183627">
        <ele>161.55</ele>
        <time>2023-10-16T22:13:40.612Z</time>
      </trkpt>
      <trkpt lat="45.677148811519146" lon="17.675264300778508">
        <ele>161.07</ele>
        <time>2023-10-16T22:13:45.497Z</time>
      </trkpt>
      <trkpt lat="45.67717102356255" lon="17.67526731826365">
        <ele>160.58</ele>
        <time>2023-10-16T22:13:50.383Z</time>
      </trkpt>
      <trkpt lat="45.67719315178692" lon="17.675270000472665">
        <ele>160.1</ele>
        <time>2023-10-16T22:13:55.269Z</time>
      </trkpt>
      <trkpt lat="45.67721494473517" lon="17.675272515043616">
        <ele>159.62</ele>
        <time>2023-10-16T22:14:00.156Z</time>
      </trkpt>
      <trkpt lat="45.67723657004535" lon="17.675274945795536">
        <ele>159.14</ele>
        <time>2023-10-16T22:14:05.044Z</time>
      </trkpt>
      <trkpt lat="45.67725786007941" lon="17.675277208909392">
        <ele>158.66</ele>
        <time>2023-10-16T22:14:09.932Z</time>
      </trkpt>
      <trkpt lat="45.6772789824754" lon="17.67527955584228">
        <ele>158.18</ele>
        <time>2023-10-16T22:14:14.821Z</time>
      </trkpt>
      <trkpt lat="45.6772996019572" lon="17.675281818956137">
        <ele>157.7</ele>
        <time>2023-10-16T22:14:19.711Z</time>
      </trkpt>
      <trkpt lat="45.67732005380094" lon="17.675284249708056">
        <ele>157.23</ele>
        <time>2023-10-16T22:14:24.602Z</time>
      </trkpt>
      <trkpt lat="45.67733991891146" lon="17.675286512821913">
        <ele>156.75</ele>
        <time>2023-10-16T22:14:29.493Z</time>
      </trkpt>
      <trkpt lat="45.67735902965069" lon="17.67528877593577">
        <ele>156.29</ele>
        <time>2023-10-16T22:14:34.385Z</time>
      </trkpt>
      <trkpt lat="45.677377386018634" lon="17.67529078759253">
        <ele>155.83</ele>
        <time>2023-10-16T22:14:39.277Z</time>
      </trkpt>
      <trkpt lat="45.67739490419626" lon="17.67529279924929">
        <ele>155.37</ele>
        <time>2023-10-16T22:14:44.170Z</time>
      </trkpt>
      <trkpt lat="45.67741175182164" lon="17.67529464326799">
        <ele>154.92</ele>
        <time>2023-10-16T22:14:49.064Z</time>
      </trkpt>
      <trkpt lat="45.67742784507573" lon="17.67529657110572">
        <ele>154.48</ele>
        <time>2023-10-16T22:14:53.958Z</time>
      </trkpt>
      <trkpt lat="45.67744326777756" lon="17.675298331305385">
        <ele>154.04</ele>
        <time>2023-10-16T22:14:58.853Z</time>
      </trkpt>
      <trkpt lat="45.677458019927144" lon="17.67530000768602">
        <ele>153.61</ele>
        <time>2023-10-16T22:15:03.748Z</time>
      </trkpt>
      <trkpt lat="45.67747193388641" lon="17.675301264971495">
        <ele>153.19</ele>
        <time>2023-10-16T22:15:08.644Z</time>
      </trkpt>
      <trkpt lat="45.67748517729342" lon="17.67530201934278">
        <ele>152.78</ele>
        <time>2023-10-16T22:15:13.540Z</time>
      </trkpt>
      <trkpt lat="45.67749741487205" lon="17.675301851704717">
        <ele>152.37</ele>
        <time>2023-10-16T22:15:18.436Z</time>
      </trkpt>
      <trkpt lat="45.677508898079395" lon="17.675300762057304">
        <ele>151.97</ele>
        <time>2023-10-16T22:15:23.333Z</time>
      </trkpt>
      <trkpt lat="45.67751979455352" lon="17.675298750400543">
        <ele>151.58</ele>
        <time>2023-10-16T22:15:28.230Z</time>
      </trkpt>
      <trkpt lat="45.677529936656356" lon="17.6752957329154">
        <ele>151.2</ele>
        <time>2023-10-16T22:15:33.128Z</time>
      </trkpt>
      <trkpt lat="45.677539575845" lon="17.67529170960188">
        <ele>150.83</ele>
        <time>2023-10-16T22:15:38.026Z</time>
      </trkpt>
      <trkpt lat="45.67754871211946" lon="17.67528642900288">
        <ele>150.47</ele>
        <time>2023-10-16T22:15:42.924Z</time>
      </trkpt>
      <trkpt lat="45.677557261660695" lon="17.675279807299376">
        <ele>150.12</ele>
        <time>2023-10-16T22:15:47.823Z</time>
      </trkpt>
      <trkpt lat="45.67756539210677" lon="17.675271928310394">
        <ele>149.78</ele>
        <time>2023-10-16T22:15:52.722Z</time>
      </trkpt>
      <trkpt lat="45.67757301963866" lon="17.675262792035937">
        <ele>149.45</ele>
        <time>2023-10-16T22:15:57.621Z</time>
      </trkpt>
      <trkpt lat="45.67758039571345" lon="17.6752526499331">
        <ele>149.13</ele>
        <time>2023-10-16T22:16:02.521Z</time>
      </trkpt>
      <trkpt lat="45.677587520331144" lon="17.67524183727801">
        <ele>148.82</ele>
        <time>2023-10-16T22:16:07.421Z</time>
      </trkpt>
      <trkpt lat="45.67759456112981" lon="17.675230773165822">
        <ele>148.52</ele>
        <time>2023-10-16T22:16:12.321Z</time>
      </trkpt>
      <trkpt lat="45.67760151810944" lon="17.67521945759654">
        <ele>148.23</ele>
        <time>2023-10-16T22:16:17.222Z</time>
      </trkpt>
      <trkpt lat="45.67760864272714" lon="17.67520822584629">
        <ele>147.95</ele>
        <time>2023-10-16T22:16:22.123Z</time>
      </trkpt>
      <trkpt lat="45.677615851163864" lon="17.67519691027701">
        <ele>147.68</ele>
        <time>2023-10-16T22:16:27.024Z</time>
      </trkpt>
      <trkpt lat="45.67762331105769" lon="17.675185594707727">
        <ele>147.42</ele>
        <time>2023-10-16T22:16:31.926Z</time>
      </trkpt>
      <trkpt lat="45.67763093858957" lon="17.675174195319414">
        <ele>147.17</ele>
        <time>2023-10-16T22:16:36.828Z</time>
      </trkpt>
      <trkpt lat="45.67763873375952" lon="17.675162963569164">
        <ele>146.93</ele>
        <time>2023-10-16T22:16:41.730Z</time>
      </trkpt>
      <trkpt lat="45.67764678038657" lon="17.67515198327601">
        <ele>146.71</ele>
        <time>2023-10-16T22:16:46.633Z</time>
      </trkpt>
      <trkpt lat="45.67765491083264" lon="17.67514125443995">
        <ele>146.49</ele>
        <time>2023-10-16T22:16:51.536Z</time>
      </trkpt>
      <trkpt lat="45.677663292735815" lon="17.675130609422922">
        <ele>146.28</ele>
        <time>2023-10-16T22:16:56.439Z</time>
      </trkpt>
      <trkpt lat="45.67767175845802" lon="17.675120132043958">
        <ele>146.09</ele>
        <time>2023-10-16T22:17:01.343Z</time>
      </trkpt>
      <trkpt lat="45.677680391818285" lon="17.67510957084596">
        <ele>145.9</ele>
        <time>2023-10-16T22:17:06.247Z</time>
      </trkpt>
      <trkpt lat="45.677689192816615" lon="17.675098842009902">
        <ele>145.73</ele>
        <time>2023-10-16T22:17:11.152Z</time>
      </trkpt>
      <trkpt lat="45.67769824527204" lon="17.675087861716747">
        <ele>145.56</ele>
        <time>2023-10-16T22:17:16.057Z</time>
      </trkpt>
      <trkpt lat="45.6777073815465" lon="17.67507679760456">
        <ele>145.41</ele>
        <time>2023-10-16T22:17:20.962Z</time>
      </trkpt>
      <trkpt lat="45.67771668545902" lon="17.675065649673343">
        <ele>145.26</ele>
        <time>2023-10-16T22:17:25.868Z</time>
      </trkpt>
      <trkpt lat="45.67772598937154" lon="17.675054585561156">
        <ele>145.13</ele>
        <time>2023-10-16T22:17:30.774Z</time>
      </trkpt>
      <trkpt lat="45.67773546092212" lon="17.67504352144897">
        <ele>145.01</ele>
        <time>2023-10-16T22:17:35.681Z</time>
      </trkpt>
      <trkpt lat="45.67774501629174" lon="17.67503237351775">
        <ele>144.9</ele>
        <time>2023-10-16T22:17:40.588Z</time>
      </trkpt>
      <trkpt lat="45.67775457166135" lon="17.675021225586534">
        <ele>144.79</ele>
        <time>2023-10-16T22:17:45.495Z</time>
      </trkpt>
      <trkpt lat="45.67776412703097" lon="17.675009993836284">
        <ele>144.7</ele>
        <time>2023-10-16T22:17:50.403Z</time>
      </trkpt>
      <trkpt lat="45.67777359858155" lon="17.67499859444797">
        <ele>144.62</ele>
        <time>2023-10-16T22:17:55.311Z</time>
      </trkpt>
      <trkpt lat="45.677782986313105" lon="17.674987195059657">
        <ele>144.55</ele>
        <time>2023-10-16T22:18:00.220Z</time>
      </trkpt>
      <trkpt lat="45.677792290225625" lon="17.674975795671344">
        <ele>144.48</ele>
        <time>2023-10-16T22:18:05.129Z</time>
      </trkpt>
      <trkpt lat="45.677801510319114" lon="17.674964312464">
        <ele>144.43</ele>
        <time>2023-10-16T22:18:10.039Z</time>
      </trkpt>
      <trkpt lat="45.6778107304126" lon="17.674952913075686">
        <ele>144.38</ele>
        <time>2023-10-16T22:18:14.949Z</time>
      </trkpt>
      <trkpt lat="45.677820118144155" lon="17.674941681325436">
        <ele>144.35</ele>
        <time>2023-10-16T22:18:19.859Z</time>
      </trkpt>
      <trkpt lat="45.6778297573328" lon="17.674930449575186">
        <ele>144.32</ele>
        <time>2023-10-16T22:18:24.770Z</time>
      </trkpt>
      <trkpt lat="45.67783956415951" lon="17.674919301643968">
        <ele>144.3</ele>
        <time>2023-10-16T22:18:29.681Z</time>
      </trkpt>
      <trkpt lat="45.677849454805255" lon="17.67490823753178">
        <ele>144.29</ele>
        <time>2023-10-16T22:18:34.593Z</time>
      </trkpt>
      <trkpt lat="45.677859680727124" lon="17.674897257238626">
        <ele>144.29</ele>
        <time>2023-10-16T22:18:39.505Z</time>
      </trkpt>
      <trkpt lat="45.67787007428706" lon="17.674886528402567">
        <ele>144.29</ele>
        <time>2023-10-16T22:18:44.417Z</time>
      </trkpt>
      <trkpt lat="45.677880719304085" lon="17.67487588338554">
        <ele>144.31</ele>
        <time>2023-10-16T22:18:49.330Z</time>
      </trkpt>
      <trkpt lat="45.67789169959724" lon="17.67486523836851">
        <ele>144.32</ele>
        <time>2023-10-16T22:18:54.243Z</time>
      </trkpt>
      <trkpt lat="45.67790309898555" lon="17.67485450953245">
        <ele>144.35</ele>
        <time>2023-10-16T22:18:59.157Z</time>
      </trkpt>
      <trkpt lat="45.6779145821929" lon="17.674844032153487">
        <ele>144.38</ele>
        <time>2023-10-16T22:19:04.071Z</time>
      </trkpt>
      <trkpt lat="45.677926233038306" lon="17.674833554774523">
        <ele>144.42</ele>
        <time>2023-10-16T22:19:08.986Z</time>
      </trkpt>
      <trkpt lat="45.67793813534081" lon="17.674823245033622">
        <ele>144.46</ele>
        <time>2023-10-16T22:19:13.901Z</time>
      </trkpt>
      <trkpt lat="45.67795020528138" lon="17.674813102930784">
        <ele>144.5</ele>
        <time>2023-10-16T22:19:18.817Z</time>
      </trkpt>
      <trkpt lat="45.677962275221944" lon="17.67480304464698">
        <ele>144.56</ele>
        <time>2023-10-16T22:19:23.733Z</time>
      </trkpt>
      <trkpt lat="45.67797442898154" lon="17.67479290254414">
        <ele>144.61</ele>
        <time>2023-10-16T22:19:28.650Z</time>
      </trkpt>
      <trkpt lat="45.67798658274114" lon="17.674782760441303">
        <ele>144.67</ele>
        <time>2023-10-16T22:19:33.567Z</time>
      </trkpt>
      <trkpt lat="45.67799882031977" lon="17.674772534519434">
        <ele>144.74</ele>
        <time>2023-10-16T22:19:38.485Z</time>
      </trkpt>
      <trkpt lat="45.678011225536466" lon="17.674762308597565">
        <ele>144.81</ele>
        <time>2023-10-16T22:19:43.403Z</time>
      </trkpt>
      <trkpt lat="45.67802371457219" lon="17.674752166494727">
        <ele>144.88</ele>
        <time>2023-10-16T22:19:48.321Z</time>
      </trkpt>
      <trkpt lat="45.67803628742695" lon="17.67474210821092">
        <ele>144.96</ele>
        <time>2023-10-16T22:19:53.240Z</time>
      </trkpt>
      <trkpt lat="45.67804902791977" lon="17.674731882289052">
        <ele>145.04</ele>
        <time>2023-10-16T22:19:58.159Z</time>
      </trkpt>
      <trkpt lat="45.67806176841259" lon="17.674721740186214">
        <ele>145.12</ele>
        <time>2023-10-16T22:20:03.079Z</time>
      </trkpt>
      <trkpt lat="45.67807434126735" lon="17.674711598083377">
        <ele>145.21</ele>
        <time>2023-10-16T22:20:07.999Z</time>
      </trkpt>
      <trkpt lat="45.678086495026946" lon="17.67470145598054">
        <ele>145.3</ele>
        <time>2023-10-16T22:20:12.920Z</time>
      </trkpt>
      <trkpt lat="45.67809856496751" lon="17.674691062420607">
        <ele>145.39</ele>
        <time>2023-10-16T22:20:17.841Z</time>
      </trkpt>
      <trkpt lat="45.67811004817486" lon="17.674680836498737">
        <ele>145.48</ele>
        <time>2023-10-16T22:20:22.763Z</time>
      </trkpt>
      <trkpt lat="45.67812136374414" lon="17.67467077821493">
        <ele>145.57</ele>
        <time>2023-10-16T22:20:27.685Z</time>
      </trkpt>
      <trkpt lat="45.67813226021826" lon="17.674661139026284">
        <ele>145.67</ele>
        <time>2023-10-16T22:20:32.608Z</time>
      </trkpt>
      <trkpt lat="45.67814273759723" lon="17.674651918932796">
        <ele>145.76</ele>
        <time>2023-10-16T22:20:37.531Z</time>
      </trkpt>
      <trkpt lat="45.678152712062" lon="17.674643453210592">
        <ele>145.85</ele>
        <time>2023-10-16T22:20:42.454Z</time>
      </trkpt>
      <trkpt lat="45.678162183612585" lon="17.67463557422161">
        <ele>145.95</ele>
        <time>2023-10-16T22:20:47.378Z</time>
      </trkpt>
      <trkpt lat="45.67817106842995" lon="17.67462819814682">
        <ele>146.04</ele>
        <time>2023-10-16T22:20:52.302Z</time>
      </trkpt>
      <trkpt lat="45.67817961797118" lon="17.674620989710093">
        <ele>146.14</ele>
        <time>2023-10-16T22:20:57.226Z</time>
      </trkpt>
      <trkpt lat="45.67818791605532" lon="17.67461394891143">
        <ele>146.23</ele>
        <time>2023-10-16T22:21:02.151Z</time>
      </trkpt>
      <trkpt lat="45.67819629795849" lon="17.674606991931796">
        <ele>146.32</ele>
        <time>2023-10-16T22:21:07.076Z</time>
      </trkpt>
      <trkpt lat="45.6782047636807" lon="17.67460028640926">
        <ele>146.41</ele>
        <time>2023-10-16T22:21:12.001Z</time>
      </trkpt>
      <trkpt lat="45.67821356467903" lon="17.67459358088672">
        <ele>146.5</ele>
        <time>2023-10-16T22:21:16.927Z</time>
      </trkpt>
      <trkpt lat="45.67822261713445" lon="17.674586959183216">
        <ele>146.59</ele>
        <time>2023-10-16T22:21:21.853Z</time>
      </trkpt>
      <trkpt lat="45.678232004866004" lon="17.674580086022615">
        <ele>146.67</ele>
        <time>2023-10-16T22:21:26.779Z</time>
      </trkpt>
      <trkpt lat="45.67824172787368" lon="17.67457304522395">
        <ele>146.76</ele>
        <time>2023-10-16T22:21:31.706Z</time>
      </trkpt>
      <trkpt lat="45.67825178615749" lon="17.674565752968192">
        <ele>146.84</ele>
        <time>2023-10-16T22:21:36.633Z</time>
      </trkpt>
      <trkpt lat="45.67826243117452" lon="17.674558125436306">
        <ele>146.92</ele>
        <time>2023-10-16T22:21:41.561Z</time>
      </trkpt>
      <trkpt lat="45.678273579105735" lon="17.674550833180547">
        <ele>146.99</ele>
        <time>2023-10-16T22:21:46.489Z</time>
      </trkpt>
      <trkpt lat="45.678285313770175" lon="17.67454421147704">
        <ele>147.07</ele>
        <time>2023-10-16T22:21:51.417Z</time>
      </trkpt>
      <trkpt lat="45.67829729989171" lon="17.674538511782885">
        <ele>147.14</ele>
        <time>2023-10-16T22:21:56.346Z</time>
      </trkpt>
      <trkpt lat="45.67830936983228" lon="17.674534488469362">
        <ele>147.2</ele>
        <time>2023-10-16T22:22:01.275Z</time>
      </trkpt>
      <trkpt lat="45.678321439772844" lon="17.674532560631633">
        <ele>147.27</ele>
        <time>2023-10-16T22:22:06.205Z</time>
      </trkpt>
      <trkpt lat="45.678333174437284" lon="17.67453297972679">
        <ele>147.32</ele>
        <time>2023-10-16T22:22:11.135Z</time>
      </trkpt>
      <trkpt lat="45.6783445738256" lon="17.67453582957387">
        <ele>147.38</ele>
        <time>2023-10-16T22:22:16.065Z</time>
      </trkpt>
      <trkpt lat="45.678355135023594" lon="17.6745411939919">
        <ele>147.43</ele>
        <time>2023-10-16T22:22:20.996Z</time>
      </trkpt>
      <trkpt lat="45.6783651933074" lon="17.674549156799912">
        <ele>147.47</ele>
        <time>2023-10-16T22:22:25.927Z</time>
      </trkpt>
      <trkpt lat="45.678374245762825" lon="17.674559550359845">
        <ele>147.51</ele>
        <time>2023-10-16T22:22:30.859Z</time>
      </trkpt>
      <trkpt lat="45.6783823762089" lon="17.674572374671698">
        <ele>147.54</ele>
        <time>2023-10-16T22:22:35.791Z</time>
      </trkpt>
      <trkpt lat="45.678389417007565" lon="17.674587294459343">
        <ele>147.57</ele>
        <time>2023-10-16T22:22:40.723Z</time>
      </trkpt>
      <trkpt lat="45.67839536815882" lon="17.674603974446654">
        <ele>147.6</ele>
        <time>2023-10-16T22:22:45.656Z</time>
      </trkpt>
      <trkpt lat="45.678400564938784" lon="17.674622163176537">
        <ele>147.62</ele>
        <time>2023-10-16T22:22:50.589Z</time>
      </trkpt>
      <trkpt lat="45.678405091166496" lon="17.674641190096736">
        <ele>147.64</ele>
        <time>2023-10-16T22:22:55.523Z</time>
      </trkpt>
      <trkpt lat="45.67840903066099" lon="17.674660636112094">
        <ele>147.65</ele>
        <time>2023-10-16T22:23:00.457Z</time>
      </trkpt>
      <trkpt lat="45.67841263487935" lon="17.67467991448939">
        <ele>147.66</ele>
        <time>2023-10-16T22:23:05.392Z</time>
      </trkpt>
      <trkpt lat="45.678415820002556" lon="17.67469910904765">
        <ele>147.67</ele>
        <time>2023-10-16T22:23:10.327Z</time>
      </trkpt>
      <trkpt lat="45.67841900512576" lon="17.67471805214882">
        <ele>147.67</ele>
        <time>2023-10-16T22:23:15.263Z</time>
      </trkpt>
      <trkpt lat="45.678422106429935" lon="17.67473674379289">
        <ele>147.67</ele>
        <time>2023-10-16T22:23:20.199Z</time>
      </trkpt>
      <trkpt lat="45.67842520773411" lon="17.67475518397987">
        <ele>147.67</ele>
        <time>2023-10-16T22:23:25.136Z</time>
      </trkpt>
      <trkpt lat="45.678428476676345" lon="17.67477328889072">
        <ele>147.66</ele>
        <time>2023-10-16T22:23:30.073Z</time>
      </trkpt>
      <trkpt lat="45.67843199707568" lon="17.674791226163507">
        <ele>147.66</ele>
        <time>2023-10-16T22:23:35.010Z</time>
      </trkpt>
      <trkpt lat="45.678435852751136" lon="17.67480899579823">
        <ele>147.65</ele>
        <time>2023-10-16T22:23:39.948Z</time>
      </trkpt>
      <trkpt lat="45.67844012752175" lon="17.67482659779489">
        <ele>147.63</ele>
        <time>2023-10-16T22:23:44.886Z</time>
      </trkpt>
      <trkpt lat="45.6784447375685" lon="17.674843864515424">
        <ele>147.62</ele>
        <time>2023-10-16T22:23:49.825Z</time>
      </trkpt>
      <trkpt lat="45.67844968289137" lon="17.674860963597894">
        <ele>147.6</ele>
        <time>2023-10-16T22:23:54.764Z</time>
      </trkpt>
      <trkpt lat="45.678454879671335" lon="17.6748778950423">
        <ele>147.58</ele>
        <time>2023-10-16T22:23:59.704Z</time>
      </trkpt>
      <trkpt lat="45.67846057936549" lon="17.674894658848643">
        <ele>147.56</ele>
        <time>2023-10-16T22:24:04.644Z</time>
      </trkpt>
      <trkpt lat="45.67846669815481" lon="17.674911422654986">
        <ele>147.53</ele>
        <time>2023-10-16T22:24:09.584Z</time>
      </trkpt>
      <trkpt lat="45.67847331985831" lon="17.674928018823266">
        <ele>147.51</ele>
        <time>2023-10-16T22:24:14.525Z</time>
      </trkpt>
      <trkpt lat="45.678480695933104" lon="17.67494478262961">
        <ele>147.48</ele>
        <time>2023-10-16T22:24:19.466Z</time>
      </trkpt>
      <trkpt lat="45.67848891019821" lon="17.674961546435952">
        <ele>147.45</ele>
        <time>2023-10-16T22:24:24.408Z</time>
      </trkpt>
      <trkpt lat="45.67849796265364" lon="17.67497847788036">
        <ele>147.42</ele>
        <time>2023-10-16T22:24:29.350Z</time>
      </trkpt>
      <trkpt lat="45.678507601842284" lon="17.674995409324765">
        <ele>147.38</ele>
        <time>2023-10-16T22:24:34.293Z</time>
      </trkpt>
      <trkpt lat="45.67851782776415" lon="17.675012424588203">
        <ele>147.35</ele>
        <time>2023-10-16T22:24:39.236Z</time>
      </trkpt>
      <trkpt lat="45.67852855660021" lon="17.675029607489705">
        <ele>147.31</ele>
        <time>2023-10-16T22:24:44.180Z</time>
      </trkpt>
      <trkpt lat="45.67853978835046" lon="17.67504695802927">
        <ele>147.28</ele>
        <time>2023-10-16T22:24:49.124Z</time>
      </trkpt>
      <trkpt lat="45.67855169065297" lon="17.6750644762069">
        <ele>147.24</ele>
        <time>2023-10-16T22:24:54.069Z</time>
      </trkpt>
      <trkpt lat="45.678564347326756" lon="17.675081910565495">
        <ele>147.2</ele>
        <time>2023-10-16T22:24:59.015Z</time>
      </trkpt>
      <trkpt lat="45.6785776745528" lon="17.675099344924092">
        <ele>147.16</ele>
        <time>2023-10-16T22:25:03.961Z</time>
      </trkpt>
      <trkpt lat="45.67859183996916" lon="17.675117114558816">
        <ele>147.12</ele>
        <time>2023-10-16T22:25:08.908Z</time>
      </trkpt>
      <trkpt lat="45.678606340661645" lon="17.67513488419354">
        <ele>147.08</ele>
        <time>2023-10-16T22:25:13.856Z</time>
      </trkpt>
      <trkpt lat="45.67862117663026" lon="17.675153240561485">
        <ele>147.04</ele>
        <time>2023-10-16T22:25:18.804Z</time>
      </trkpt>
      <trkpt lat="45.67863601259887" lon="17.675171848386526">
        <ele>147.0</ele>
        <time>2023-10-16T22:25:23.753Z</time>
      </trkpt>
      <trkpt lat="45.67865101620555" lon="17.675190959125757">
        <ele>146.96</ele>
        <time>2023-10-16T22:25:28.702Z</time>
      </trkpt>
      <trkpt lat="45.678665935993195" lon="17.675210488960147">
        <ele>146.92</ele>
        <time>2023-10-16T22:25:33.652Z</time>
      </trkpt>
      <trkpt lat="45.67868077196181" lon="17.675230354070663">
        <ele>146.88</ele>
        <time>2023-10-16T22:25:38.603Z</time>
      </trkpt>
      <trkpt lat="45.67869535647333" lon="17.675250470638275">
        <ele>146.84</ele>
        <time>2023-10-16T22:25:43.555Z</time>
      </trkpt>
      <trkpt lat="45.67870952188969" lon="17.67527075484395">
        <ele>146.8</ele>
        <time>2023-10-16T22:25:48.507Z</time>
      </trkpt>
      <trkpt lat="45.67872293293476" lon="17.675290871411562">
        <ele>146.76</ele>
        <time>2023-10-16T22:25:53.460Z</time>
      </trkpt>
      <trkpt lat="45.67873575724661" lon="17.67531073652208">
        <ele>146.72</ele>
        <time>2023-10-16T22:25:58.413Z</time>
      </trkpt>
      <trkpt lat="45.67874791100621" lon="17.675330182537436">
        <ele>146.68</ele>
        <time>2023-10-16T22:26:03.367Z</time>
      </trkpt>
      <trkpt lat="45.67875964567065" lon="17.675349041819572">
        <ele>146.64</ele>
        <time>2023-10-16T22:26:08.322Z</time>
      </trkpt>
      <trkpt lat="45.678770961239934" lon="17.675367146730423">
        <ele>146.6</ele>
        <time>2023-10-16T22:26:13.277Z</time>
      </trkpt>
      <trkpt lat="45.678782276809216" lon="17.67538508400321">
        <ele>146.56</ele>
        <time>2023-10-16T22:26:18.233Z</time>
      </trkpt>
      <trkpt lat="45.67879325710237" lon="17.675402769818902">
        <ele>146.52</ele>
        <time>2023-10-16T22:26:23.189Z</time>
      </trkpt>
      <trkpt lat="45.67880432121456" lon="17.675420874729753">
        <ele>146.48</ele>
        <time>2023-10-16T22:26:28.146Z</time>
      </trkpt>
      <trkpt lat="45.678815469145775" lon="17.67543939873576">
        <ele>146.45</ele>
        <time>2023-10-16T22:26:33.103Z</time>
      </trkpt>
      <trkpt lat="45.678826784715056" lon="17.675458677113056">
        <ele>146.42</ele>
        <time>2023-10-16T22:26:38.061Z</time>
      </trkpt>
      <trkpt lat="45.67883818410337" lon="17.6754788774997">
        <ele>146.38</ele>
        <time>2023-10-16T22:26:43.020Z</time>
      </trkpt>
      <trkpt lat="45.67885000258684" lon="17.675500502809882">
        <ele>146.35</ele>
        <time>2023-10-16T22:26:47.979Z</time>
      </trkpt>
      <trkpt lat="45.67886182107031" lon="17.67552338540554">
        <ele>146.33</ele>
        <time>2023-10-16T22:26:52.939Z</time>
      </trkpt>
      <trkpt lat="45.67887347191572" lon="17.67554735764861">
        <ele>146.3</ele>
        <time>2023-10-16T22:26:57.900Z</time>
      </trkpt>
      <trkpt lat="45.67888520658016" lon="17.67557275481522">
        <ele>146.28</ele>
        <time>2023-10-16T22:27:02.861Z</time>
      </trkpt>
      <trkpt lat="45.67889677360654" lon="17.67559907399118">
        <ele>146.25</ele>
        <time>2023-10-16T22:27:07.823Z</time>
      </trkpt>
      <trkpt lat="45.67890842445195" lon="17.675625644624233">
        <ele>146.23</ele>
        <time>2023-10-16T22:27:12.786Z</time>
      </trkpt>
      <trkpt lat="45.67892032675445" lon="17.67565187998116">
        <ele>146.22</ele>
        <time>2023-10-16T22:27:17.750Z</time>
      </trkpt>
      <trkpt lat="45.67893239669502" lon="17.675676941871643">
        <ele>146.2</ele>
        <time>2023-10-16T22:27:22.714Z</time>
      </trkpt>
      <trkpt lat="45.678944969549775" lon="17.67570066265762">
        <ele>146.19</ele>
        <time>2023-10-16T22:27:27.679Z</time>
      </trkpt>
      <trkpt lat="45.67895804531872" lon="17.675722120329738">
        <ele>146.18</ele>
        <time>2023-10-16T22:27:32.645Z</time>
      </trkpt>
      <trkpt lat="45.67897195927799" lon="17.675741398707032">
        <ele>146.17</ele>
        <time>2023-10-16T22:27:37.611Z</time>
      </trkpt>
      <trkpt lat="45.67898671142757" lon="17.67575782723725">
        <ele>146.17</ele>
        <time>2023-10-16T22:27:42.578Z</time>
      </trkpt>
      <trkpt lat="45.67900230176747" lon="17.67577157355845">
        <ele>146.17</ele>
        <time>2023-10-16T22:27:47.546Z</time>
      </trkpt>
      <trkpt lat="45.67901889793575" lon="17.675782553851604">
        <ele>146.18</ele>
        <time>2023-10-16T22:27:52.514Z</time>
      </trkpt>
      <trkpt lat="45.67903624847531" lon="17.675790349021554">
        <ele>146.18</ele>
        <time>2023-10-16T22:27:57.483Z</time>
      </trkpt>
      <trkpt lat="45.679054437205195" lon="17.67579512670636">
        <ele>146.19</ele>
        <time>2023-10-16T22:28:02.452Z</time>
      </trkpt>
      <trkpt lat="45.679073045030236" lon="17.675796886906028">
        <ele>146.21</ele>
        <time>2023-10-16T22:28:07.422Z</time>
      </trkpt>
      <trkpt lat="45.679091988131404" lon="17.675795713439584">
        <ele>146.23</ele>
        <time>2023-10-16T22:28:12.393Z</time>
      </trkpt>
      <trkpt lat="45.6791110150516" lon="17.67579202540219">
        <ele>146.25</ele>
        <time>2023-10-16T22:28:17.364Z</time>
      </trkpt>
      <trkpt lat="45.67912979051471" lon="17.675785906612873">
        <ele>146.28</ele>
        <time>2023-10-16T22:28:22.336Z</time>
      </trkpt>
      <trkpt lat="45.67914831452072" lon="17.6757775247097">
        <ele>146.3</ele>
        <time>2023-10-16T22:28:27.309Z</time>
      </trkpt>
      <trkpt lat="45.679166335612535" lon="17.6757672149688">
        <ele>146.34</ele>
        <time>2023-10-16T22:28:32.282Z</time>
      </trkpt>
      <trkpt lat="45.67918402142823" lon="17.67575497739017">
        <ele>146.37</ele>
        <time>2023-10-16T22:28:37.256Z</time>
      </trkpt>
      <trkpt lat="45.67920120432973" lon="17.675741147249937">
        <ele>146.41</ele>
        <time>2023-10-16T22:28:42.230Z</time>
      </trkpt>
      <trkpt lat="45.679218051955104" lon="17.6757257245481">
        <ele>146.45</ele>
        <time>2023-10-16T22:28:47.205Z</time>
      </trkpt>
      <trkpt lat="45.67923448048532" lon="17.67570904456079">
        <ele>146.49</ele>
        <time>2023-10-16T22:28:52.181Z</time>
      </trkpt>
      <trkpt lat="45.67925057373941" lon="17.675691191107035">
        <ele>146.54</ele>
        <time>2023-10-16T22:28:57.158Z</time>
      </trkpt>
      <trkpt lat="45.67926633171737" lon="17.675672248005867">
        <ele>146.58</ele>
        <time>2023-10-16T22:29:02.135Z</time>
      </trkpt>
      <trkpt lat="45.679281586781144" lon="17.675652466714382">
        <ele>146.63</ele>
        <time>2023-10-16T22:29:07.113Z</time>
      </trkpt>
      <trkpt lat="45.67929642274976" lon="17.67563176341355">
        <ele>146.68</ele>
        <time>2023-10-16T22:29:12.092Z</time>
      </trkpt>
      <trkpt lat="45.67931083962321" lon="17.67561038956046">
        <ele>146.73</ele>
        <time>2023-10-16T22:29:17.071Z</time>
      </trkpt>
      <trkpt lat="45.679325088858604" lon="17.675588596612215">
        <ele>146.78</ele>
        <time>2023-10-16T22:29:22.051Z</time>
      </trkpt>
      <trkpt lat="45.67933900281787" lon="17.675566468387842">
        <ele>146.84</ele>
        <time>2023-10-16T22:29:27.032Z</time>
      </trkpt>
      <trkpt lat="45.67935258150101" lon="17.675544088706374">
        <ele>146.9</ele>
        <time>2023-10-16T22:29:32.013Z</time>
      </trkpt>
      <trkpt lat="45.67936607636511" lon="17.67552137374878">
        <ele>146.95</ele>
        <time>2023-10-16T22:29:36.995Z</time>
      </trkpt>
      <trkpt lat="45.67937948741019" lon="17.67549840733409">
        <ele>147.01</ele>
        <time>2023-10-16T22:29:41.978Z</time>
      </trkpt>
      <trkpt lat="45.67939289845526" lon="17.675475105643272">
        <ele>147.07</ele>
        <time>2023-10-16T22:29:46.961Z</time>
      </trkpt>
      <trkpt lat="45.67940664477646" lon="17.675451636314392">
        <ele>147.14</ele>
        <time>2023-10-16T22:29:51.945Z</time>
      </trkpt>
      <trkpt lat="45.67942072637379" lon="17.67542799934745">
        <ele>147.2</ele>
        <time>2023-10-16T22:29:56.930Z</time>
      </trkpt>
      <trkpt lat="45.67943539470434" lon="17.675404530018568">
        <ele>147.26</ele>
        <time>2023-10-16T22:30:01.916Z</time>
      </trkpt>
      <trkpt lat="45.67945056594908" lon="17.675381395965815">
        <ele>147.31</ele>
        <time>2023-10-16T22:30:06.902Z</time>
      </trkpt>
      <trkpt lat="45.67946640774608" lon="17.675358513370156">
        <ele>147.37</ele>
        <time>2023-10-16T22:30:11.889Z</time>
      </trkpt>
      <trkpt lat="45.67948283627629" lon="17.675335882231593">
        <ele>147.43</ele>
        <time>2023-10-16T22:30:16.877Z</time>
      </trkpt>
      <trkpt lat="45.67949985153973" lon="17.67531367018819">
        <ele>147.49</ele>
        <time>2023-10-16T22:30:21.866Z</time>
      </trkpt>
      <trkpt lat="45.67951745353639" lon="17.67529179342091">
        <ele>147.54</ele>
        <time>2023-10-16T22:30:26.855Z</time>
      </trkpt>
      <trkpt lat="45.67953547462821" lon="17.675270503386855">
        <ele>147.6</ele>
        <time>2023-10-16T22:30:31.845Z</time>
      </trkpt>
      <trkpt lat="45.67955391481519" lon="17.67524971626699">
        <ele>147.65</ele>
        <time>2023-10-16T22:30:36.836Z</time>
      </trkpt>
      <trkpt lat="45.67957269027829" lon="17.675229599699378">
        <ele>147.7</ele>
        <time>2023-10-16T22:30:41.828Z</time>
      </trkpt>
      <trkpt lat="45.679591465741396" lon="17.67521015368402">
        <ele>147.74</ele>
        <time>2023-10-16T22:30:46.821Z</time>
      </trkpt>
      <trkpt lat="45.679610492661595" lon="17.675191294401884">
        <ele>147.78</ele>
        <time>2023-10-16T22:30:51.814Z</time>
      </trkpt>
      <trkpt lat="45.67962943576276" lon="17.67517260275781">
        <ele>147.82</ele>
        <time>2023-10-16T22:30:56.808Z</time>
      </trkpt>
      <trkpt lat="45.679648546501994" lon="17.67515399493277">
        <ele>147.86</ele>
        <time>2023-10-16T22:31:01.803Z</time>
      </trkpt>
      <trkpt lat="45.67966740578413" lon="17.675135303288698">
        <ele>147.89</ele>
        <time>2023-10-16T22:31:06.799Z</time>
      </trkpt>
      <trkpt lat="45.67968643270433" lon="17.675116444006562">
        <ele>147.92</ele>
        <time>2023-10-16T22:31:11.795Z</time>
      </trkpt>
      <trkpt lat="45.679705291986465" lon="17.675097417086363">
        <ele>147.95</ele>
        <time>2023-10-16T22:31:16.792Z</time>
      </trkpt>
      <trkpt lat="45.679724318906665" lon="17.675078473985195">
        <ele>147.97</ele>
        <time>2023-10-16T22:31:21.790Z</time>
      </trkpt>
      <trkpt lat="45.679743429645896" lon="17.675060033798218">
        <ele>147.99</ele>
        <time>2023-10-16T22:31:26.789Z</time>
      </trkpt>
      <trkpt lat="45.679762875661254" lon="17.67504251562059">
        <ele>148.01</ele>
        <time>2023-10-16T22:31:31.788Z</time>
      </trkpt>
      <trkpt lat="45.679782489314675" lon="17.67502600327134">
        <ele>148.02</ele>
        <time>2023-10-16T22:31:36.788Z</time>
      </trkpt>
      <trkpt lat="45.679802522063255" lon="17.675010915845633">
        <ele>148.03</ele>
        <time>2023-10-16T22:31:41.789Z</time>
      </trkpt>
      <trkpt lat="45.6798227224499" lon="17.674997337162495">
        <ele>148.04</ele>
        <time>2023-10-16T22:31:46.791Z</time>
      </trkpt>
      <trkpt lat="45.67984342575073" lon="17.674985686317086">
        <ele>148.04</ele>
        <time>2023-10-16T22:31:51.793Z</time>
      </trkpt>
      <trkpt lat="45.67986429668963" lon="17.67497604712844">
        <ele>148.04</ele>
        <time>2023-10-16T22:31:56.796Z</time>
      </trkpt>
      <trkpt lat="45.67988592199981" lon="17.674968587234616">
        <ele>148.03</ele>
        <time>2023-10-16T22:32:01.800Z</time>
      </trkpt>
      <trkpt lat="45.67990779876709" lon="17.674963725730777">
        <ele>148.01</ele>
        <time>2023-10-16T22:32:06.805Z</time>
      </trkpt>
      <trkpt lat="45.67993034608662" lon="17.674961211159825">
        <ele>147.99</ele>
        <time>2023-10-16T22:32:11.810Z</time>
      </trkpt>
      <trkpt lat="45.679953061044216" lon="17.6749608758837">
        <ele>147.97</ele>
        <time>2023-10-16T22:32:16.816Z</time>
      </trkpt>
      <trkpt lat="45.679976027458906" lon="17.674962300807238">
        <ele>147.94</ele>
        <time>2023-10-16T22:32:21.823Z</time>
      </trkpt>
      <trkpt lat="45.67999916151166" lon="17.67496489919722">
        <ele>147.91</ele>
        <time>2023-10-16T22:32:26.831Z</time>
      </trkpt>
      <trkpt lat="45.68002246320248" lon="17.674968168139458">
        <ele>147.88</ele>
        <time>2023-10-16T22:32:31.840Z</time>
      </trkpt>
      <trkpt lat="45.680045848712325" lon="17.674971939995885">
        <ele>147.84</ele>
        <time>2023-10-16T22:32:36.849Z</time>
      </trkpt>
      <trkpt lat="45.680069318041205" lon="17.674975795671344">
        <ele>147.8</ele>
        <time>2023-10-16T22:32:41.859Z</time>
      </trkpt>
      <trkpt lat="45.68009261973202" lon="17.67497948370874">
        <ele>147.75</ele>
        <time>2023-10-16T22:32:46.870Z</time>
      </trkpt>
      <trkpt lat="45.680115753784776" lon="17.67498292028904">
        <ele>147.7</ele>
        <time>2023-10-16T22:32:51.882Z</time>
      </trkpt>
      <trkpt lat="45.68013888783753" lon="17.674985686317086">
        <ele>147.65</ele>
        <time>2023-10-16T22:32:56.894Z</time>
      </trkpt>
      <trkpt lat="45.68016202189028" lon="17.674987530335784">
        <ele>147.6</ele>
        <time>2023-10-16T22:33:01.907Z</time>
      </trkpt>
      <trkpt lat="45.680185155943036" lon="17.674988117069006">
        <ele>147.55</ele>
        <time>2023-10-16T22:33:06.921Z</time>
      </trkpt>
      <trkpt lat="45.680208122357726" lon="17.674987111240625">
        <ele>147.5</ele>
        <time>2023-10-16T22:33:11.936Z</time>
      </trkpt>
      <trkpt lat="45.68023092113435" lon="17.674984680488706">
        <ele>147.45</ele>
        <time>2023-10-16T22:33:16.952Z</time>
      </trkpt>
      <trkpt lat="45.68025338463485" lon="17.674980405718088">
        <ele>147.39</ele>
        <time>2023-10-16T22:33:21.968Z</time>
      </trkpt>
      <trkpt lat="45.68027559667826" lon="17.6749746222049">
        <ele>147.34</ele>
        <time>2023-10-16T22:33:26.985Z</time>
      </trkpt>
      <trkpt lat="45.680297557264566" lon="17.674967162311077">
        <ele>147.28</ele>
        <time>2023-10-16T22:33:32.003Z</time>
      </trkpt>
      <trkpt lat="45.68031926639378" lon="17.674958361312747">
        <ele>147.22</ele>
        <time>2023-10-16T22:33:37.022Z</time>
      </trkpt>
      <trkpt lat="45.68034089170396" lon="17.67494821920991">
        <ele>147.17</ele>
        <time>2023-10-16T22:33:42.041Z</time>
      </trkpt>
      <trkpt lat="45.680362433195114" lon="17.67493698745966">
        <ele>147.11</ele>
        <time>2023-10-16T22:33:47.061Z</time>
      </trkpt>
      <trkpt lat="45.68038372322917" lon="17.674924666061997">
        <ele>147.06</ele>
        <time>2023-10-16T22:33:52.082Z</time>
      </trkpt>
      <trkpt lat="45.680404510349035" lon="17.674911422654986">
        <ele>147.01</ele>
        <time>2023-10-16T22:33:57.104Z</time>
      </trkpt>
      <trkpt lat="45.680424962192774" lon="17.67489742487669">
        <ele>146.95</ele>
        <time>2023-10-16T22:34:02.126Z</time>
      </trkpt>
      <trkpt lat="45.68044516257942" lon="17.674883091822267">
        <ele>146.89</ele>
        <time>2023-10-16T22:34:07.149Z</time>
      </trkpt>
      <trkpt lat="45.68046544678509" lon="17.674868507310748">
        <ele>146.83</ele>
        <time>2023-10-16T22:34:12.173Z</time>
      </trkpt>
      <trkpt lat="45.68048547953367" lon="17.674854174256325">
        <ele>146.77</ele>
        <time>2023-10-16T22:34:17.198Z</time>
      </trkpt>
      <trkpt lat="45.68050576373935" lon="17.674840092658997">
        <ele>146.7</ele>
        <time>2023-10-16T22:34:22.223Z</time>
      </trkpt>
      <trkpt lat="45.68052588030696" lon="17.674826681613922">
        <ele>146.64</ele>
        <time>2023-10-16T22:34:27.249Z</time>
      </trkpt>
      <trkpt lat="45.680546164512634" lon="17.6748139411211">
        <ele>146.57</ele>
        <time>2023-10-16T22:34:32.276Z</time>
      </trkpt>
      <trkpt lat="45.680566281080246" lon="17.674801871180534">
        <ele>146.51</ele>
        <time>2023-10-16T22:34:37.304Z</time>
      </trkpt>
      <trkpt lat="45.68058664910495" lon="17.67479047179222">
        <ele>146.44</ele>
        <time>2023-10-16T22:34:42.332Z</time>
      </trkpt>
      <trkpt lat="45.68060693331063" lon="17.674779826775193">
        <ele>146.37</ele>
        <time>2023-10-16T22:34:47.361Z</time>
      </trkpt>
      <trkpt lat="45.68062755279243" lon="17.67476985231042">
        <ele>146.31</ele>
        <time>2023-10-16T22:34:52.391Z</time>
      </trkpt>
      <trkpt lat="45.6806480884552" lon="17.67476063221693">
        <ele>146.24</ele>
        <time>2023-10-16T22:34:57.421Z</time>
      </trkpt>
      <trkpt lat="45.680668875575066" lon="17.674751915037632">
        <ele>146.17</ele>
        <time>2023-10-16T22:35:02.452Z</time>
      </trkpt>
      <trkpt lat="45.68068949505687" lon="17.674743700772524">
        <ele>146.11</ele>
        <time>2023-10-16T22:35:07.484Z</time>
      </trkpt>
      <trkpt lat="45.68071028217673" lon="17.67473573796451">
        <ele>146.04</ele>
        <time>2023-10-16T22:35:12.517Z</time>
      </trkpt>
      <trkpt lat="45.6807308178395" lon="17.674728026613593">
        <ele>145.97</ele>
        <time>2023-10-16T22:35:17.550Z</time>
      </trkpt>
      <trkpt lat="45.68075152114034" lon="17.674720399081707">
        <ele>145.91</ele>
        <time>2023-10-16T22:35:22.584Z</time>
      </trkpt>
      <trkpt lat="45.68077180534601" lon="17.674712939187884">
        <ele>145.84</ele>
        <time>2023-10-16T22:35:27.619Z</time>
      </trkpt>
      <trkpt lat="45.68079217337072" lon="17.674705646932125">
        <ele>145.77</ele>
        <time>2023-10-16T22:35:32.654Z</time>
      </trkpt>
      <trkpt lat="45.6808122061193" lon="17.67469860613346">
        <ele>145.71</ele>
        <time>2023-10-16T22:35:37.690Z</time>
      </trkpt>
      <trkpt lat="45.68083223886788" lon="17.674691900610924">
        <ele>145.64</ele>
        <time>2023-10-16T22:35:42.727Z</time>
      </trkpt>
      <trkpt lat="45.68085168488324" lon="17.67468578182161">
        <ele>145.56</ele>
        <time>2023-10-16T22:35:47.764Z</time>
      </trkpt>
      <trkpt lat="45.680870711803436" lon="17.674680249765515">
        <ele>145.49</ele>
        <time>2023-10-16T22:35:52.802Z</time>
      </trkpt>
      <trkpt lat="45.68088890053332" lon="17.674675388261676">
        <ele>145.42</ele>
        <time>2023-10-16T22:35:57.841Z</time>
      </trkpt>
      <trkpt lat="45.68090641871095" lon="17.67467119731009">
        <ele>145.36</ele>
        <time>2023-10-16T22:36:02.880Z</time>
      </trkpt>
      <trkpt lat="45.68092309869826" lon="17.674667593091726">
        <ele>145.29</ele>
        <time>2023-10-16T22:36:07.920Z</time>
      </trkpt>
      <trkpt lat="45.680939108133316" lon="17.67466440796852">
        <ele>145.22</ele>
        <time>2023-10-16T22:36:12.960Z</time>
      </trkpt>
      <trkpt lat="45.68095436319709" lon="17.674661641940475">
        <ele>145.16</ele>
        <time>2023-10-16T22:36:18.001Z</time>
      </trkpt>
      <trkpt lat="45.68096903152764" lon="17.674659211188555">
        <ele>145.09</ele>
        <time>2023-10-16T22:36:23.042Z</time>
      </trkpt>
      <trkpt lat="45.68098286166787" lon="17.674657115712762">
        <ele>145.03</ele>
        <time>2023-10-16T22:36:28.084Z</time>
      </trkpt>
      <trkpt lat="45.68099602125585" lon="17.674655355513096">
        <ele>144.96</ele>
        <time>2023-10-16T22:36:33.126Z</time>
      </trkpt>
      <trkpt lat="45.68100809119642" lon="17.67465409822762">
        <ele>144.9</ele>
        <time>2023-10-16T22:36:38.169Z</time>
      </trkpt>
      <trkpt lat="45.681019239127636" lon="17.67465309239924">
        <ele>144.84</ele>
        <time>2023-10-16T22:36:43.212Z</time>
      </trkpt>
      <trkpt lat="45.681029465049505" lon="17.67465267330408">
        <ele>144.78</ele>
        <time>2023-10-16T22:36:48.255Z</time>
      </trkpt>
      <trkpt lat="45.681038768962026" lon="17.67465258948505">
        <ele>144.72</ele>
        <time>2023-10-16T22:36:53.299Z</time>
      </trkpt>
      <trkpt lat="45.681047067046165" lon="17.674652757123113">
        <ele>144.66</ele>
        <time>2023-10-16T22:36:58.343Z</time>
      </trkpt>
      <trkpt lat="45.68105427548289" lon="17.674653260037303">
        <ele>144.6</ele>
        <time>2023-10-16T22:37:03.387Z</time>
      </trkpt>
      <trkpt lat="45.68106056191027" lon="17.674653846770525">
        <ele>144.54</ele>
        <time>2023-10-16T22:37:08.431Z</time>
      </trkpt>
      <trkpt lat="45.6810659263283" lon="17.674654349684715">
        <ele>144.49</ele>
        <time>2023-10-16T22:37:13.476Z</time>
      </trkpt>
      <trkpt lat="45.68107020109892" lon="17.674654852598906">
        <ele>144.44</ele>
        <time>2023-10-16T22:37:18.521Z</time>
      </trkpt>
      <trkpt lat="45.68107372149825" lon="17.674655355513096">
        <ele>144.38</ele>
        <time>2023-10-16T22:37:23.566Z</time>
      </trkpt>
      <trkpt lat="45.68107657134533" lon="17.674655858427286">
        <ele>144.34</ele>
        <time>2023-10-16T22:37:28.611Z</time>
      </trkpt>
      <trkpt lat="45.681078834459186" lon="17.674656193703413">
        <ele>144.29</ele>
        <time>2023-10-16T22:37:33.656Z</time>
      </trkpt>
      <trkpt lat="45.68108067847788" lon="17.67465652897954">
        <ele>144.24</ele>
        <time>2023-10-16T22:37:38.701Z</time>
      </trkpt>
      <trkpt lat="45.681082271039486" lon="17.67465661279857">
        <ele>144.2</ele>
        <time>2023-10-16T22:37:43.746Z</time>
      </trkpt>
      <trkpt lat="45.681083695963025" lon="17.674656445160508">
        <ele>144.16</ele>
        <time>2023-10-16T22:37:48.791Z</time>
      </trkpt>
      <trkpt lat="45.681085120886564" lon="17.674656193703413">
        <ele>144.12</ele>
        <time>2023-10-16T22:37:53.836Z</time>
      </trkpt>
      <trkpt lat="45.68108646199107" lon="17.674655774608254">
        <ele>144.08</ele>
        <time>2023-10-16T22:37:58.881Z</time>
      </trkpt>
      <trkpt lat="45.68108780309558" lon="17.674655439332128">
        <ele>144.04</ele>
        <time>2023-10-16T22:38:03.926Z</time>
      </trkpt>
      <trkpt lat="45.68108897656202" lon="17.674655355513096">
        <ele>144.0</ele>
        <time>2023-10-16T22:38:08.971Z</time>
      </trkpt>
      <trkpt lat="45.68109015002847" lon="17.67465560697019">
        <ele>143.97</ele>
        <time>2023-10-16T22:38:14.016Z</time>
      </trkpt>
      <trkpt lat="45.681090988218784" lon="17.674655942246318">
        <ele>143.94</ele>
        <time>2023-10-16T22:38:19.061Z</time>
      </trkpt>
      <trkpt lat="45.68109174259007" lon="17.674656445160508">
        <ele>143.91</ele>
        <time>2023-10-16T22:38:24.107Z</time>
      </trkpt>
      <trkpt lat="45.68109266459942" lon="17.674656780436635">
        <ele>143.88</ele>
        <time>2023-10-16T22:38:29.153Z</time>
      </trkpt>
      <trkpt lat="45.68109375424683" lon="17.6746569480747">
        <ele>143.85</ele>
        <time>2023-10-16T22:38:34.199Z</time>
      </trkpt>
      <trkpt lat="45.68109534680843" lon="17.674656864255667">
        <ele>143.82</ele>
        <time>2023-10-16T22:38:39.245Z</time>
      </trkpt>
      <trkpt lat="45.68109760992229" lon="17.674656277522445">
        <ele>143.8</ele>
        <time>2023-10-16T22:38:44.291Z</time>
      </trkpt>
      <trkpt lat="45.68110096268356" lon="17.674655104056">
        <ele>143.78</ele>
        <time>2023-10-16T22:38:49.337Z</time>
      </trkpt>
      <trkpt lat="45.68110540509224" lon="17.674653260037303">
        <ele>143.76</ele>
        <time>2023-10-16T22:38:54.383Z</time>
      </trkpt>
      <trkpt lat="45.68111118860543" lon="17.674650577828288">
        <ele>143.74</ele>
        <time>2023-10-16T22:38:59.429Z</time>
      </trkpt>
      <trkpt lat="45.681118397042155" lon="17.674646973609924">
        <ele>143.72</ele>
        <time>2023-10-16T22:39:04.475Z</time>
      </trkpt>
      <trkpt lat="45.68112703040242" lon="17.674642195925117">
        <ele>143.7</ele>
        <time>2023-10-16T22:39:09.522Z</time>
      </trkpt>
      <trkpt lat="45.68113759160042" lon="17.674635825678706">
        <ele>143.68</ele>
        <time>2023-10-16T22:39:14.569Z</time>
      </trkpt>
      <trkpt lat="45.6811504997313" lon="17.674627443775535">
        <ele>143.67</ele>
        <time>2023-10-16T22:39:19.617Z</time>
      </trkpt>
      <trkpt lat="45.68116508424282" lon="17.674617301672697">
        <ele>143.65</ele>
        <time>2023-10-16T22:39:24.665Z</time>
      </trkpt>
      <trkpt lat="45.68118134513497" lon="17.674605399370193">
        <ele>143.65</ele>
        <time>2023-10-16T22:39:29.714Z</time>
      </trkpt>
      <trkpt lat="45.681198947131634" lon="17.67459198832512">
        <ele>143.64</ele>
        <time>2023-10-16T22:39:34.763Z</time>
      </trkpt>
      <trkpt lat="45.68121738731861" lon="17.674577068537474">
        <ele>143.64</ele>
        <time>2023-10-16T22:39:39.813Z</time>
      </trkpt>
      <trkpt lat="45.68123641423881" lon="17.67456080764532">
        <ele>143.64</ele>
        <time>2023-10-16T22:39:44.864Z</time>
      </trkpt>
      <trkpt lat="45.681255692616105" lon="17.67454312182963">
        <ele>143.63</ele>
        <time>2023-10-16T22:39:49.916Z</time>
      </trkpt>
      <trkpt lat="45.681274803355336" lon="17.674524011090398">
        <ele>143.62</ele>
        <time>2023-10-16T22:39:54.968Z</time>
      </trkpt>
      <trkpt lat="45.68129357881844" lon="17.674503307789564">
        <ele>143.61</ele>
        <time>2023-10-16T22:40:00.021Z</time>
      </trkpt>
      <trkpt lat="45.68131159991026" lon="17.67448109574616">
        <ele>143.61</ele>
        <time>2023-10-16T22:40:05.075Z</time>
      </trkpt>
      <trkpt lat="45.68132819607854" lon="17.67445762641728">
        <ele>143.61</ele>
        <time>2023-10-16T22:40:10.130Z</time>
      </trkpt>
      <trkpt lat="45.68134286440909" lon="17.674433318898082">
        <ele>143.61</ele>
        <time>2023-10-16T22:40:15.186Z</time>
      </trkpt>
      <trkpt lat="45.68135568872094" lon="17.674407921731472">
        <ele>143.61</ele>
        <time>2023-10-16T22:40:20.242Z</time>
      </trkpt>
      <trkpt lat="45.681366669014096" lon="17.67438143491745">
        <ele>143.61</ele>
        <time>2023-10-16T22:40:25.299Z</time>
      </trkpt>
      <trkpt lat="45.68137580528855" lon="17.674353774636984">
        <ele>143.61</ele>
        <time>2023-10-16T22:40:30.357Z</time>
      </trkpt>
      <trkpt lat="45.68138334900141" lon="17.674325024709105">
        <ele>143.6</ele>
        <time>2023-10-16T22:40:35.415Z</time>
      </trkpt>
      <trkpt lat="45.68138946779072" lon="17.674295268952847">
        <ele>143.6</ele>
        <time>2023-10-16T22:40:40.474Z</time>
      </trkpt>
      <trkpt lat="45.68139424547553" lon="17.674264758825302">
        <ele>143.6</ele>
        <time>2023-10-16T22:40:45.534Z</time>
      </trkpt>
      <trkpt lat="45.68139801733196" lon="17.674233661964536">
        <ele>143.61</ele>
        <time>2023-10-16T22:40:50.595Z</time>
      </trkpt>
      <trkpt lat="45.6814010348171" lon="17.67420214600861">
        <ele>143.61</ele>
        <time>2023-10-16T22:40:55.656Z</time>
      </trkpt>
      <trkpt lat="45.681403717026114" lon="17.67417037859559">
        <ele>143.61</ele>
        <time>2023-10-16T22:41:00.718Z</time>
      </trkpt>
      <trkpt lat="45.68140648305416" lon="17.67413852736354">
        <ele>143.61</ele>
        <time>2023-10-16T22:41:05.781Z</time>
      </trkpt>
      <trkpt lat="45.6814097519964" lon="17.67410675995052">
        <ele>143.6</ele>
        <time>2023-10-16T22:41:10.845Z</time>
      </trkpt>
      <trkpt lat="45.68141385912895" lon="17.6740749925375">
        <ele>143.59</ele>
        <time>2023-10-16T22:41:15.909Z</time>
      </trkpt>
      <trkpt lat="45.681418888270855" lon="17.674043476581573">
        <ele>143.58</ele>
        <time>2023-10-16T22:41:20.974Z</time>
      </trkpt>
      <trkpt lat="45.68142492324114" lon="17.674012128263712">
        <ele>143.57</ele>
        <time>2023-10-16T22:41:26.040Z</time>
      </trkpt>
      <trkpt lat="45.68143179640174" lon="17.673980947583914">
        <ele>143.56</ele>
        <time>2023-10-16T22:41:31.107Z</time>
      </trkpt>
      <trkpt lat="45.68143959157169" lon="17.67394993454218">
        <ele>143.55</ele>
        <time>2023-10-16T22:41:36.174Z</time>
      </trkpt>
      <trkpt lat="45.681448224931955" lon="17.673919005319476">
        <ele>143.55</ele>
        <time>2023-10-16T22:41:41.242Z</time>
      </trkpt>
      <trkpt lat="45.68145769648254" lon="17.67388832755387">
        <ele>143.54</ele>
        <time>2023-10-16T22:41:46.311Z</time>
      </trkpt>
      <trkpt lat="45.68146800622344" lon="17.673857817426324">
        <ele>143.53</ele>
        <time>2023-10-16T22:41:51.381Z</time>
      </trkpt>
      <trkpt lat="45.68147915415466" lon="17.673827642574906">
        <ele>143.53</ele>
        <time>2023-10-16T22:41:56.452Z</time>
      </trkpt>
      <trkpt lat="45.6814908888191" lon="17.673797719180584">
        <ele>143.52</ele>
        <time>2023-10-16T22:42:01.523Z</time>
      </trkpt>
      <trkpt lat="45.6815030425787" lon="17.67376821488142">
        <ele>143.51</ele>
        <time>2023-10-16T22:42:06.595Z</time>
      </trkpt>
      <trkpt lat="45.681515615433455" lon="17.673739129677415">
        <ele>143.5</ele>
        <time>2023-10-16T22:42:11.668Z</time>
      </trkpt>
      <trkpt lat="45.68152843974531" lon="17.6737105473876">
        <ele>143.49</ele>
        <time>2023-10-16T22:42:16.742Z</time>
      </trkpt>
      <trkpt lat="45.68154168315232" lon="17.673682551831007">
        <ele>143.48</ele>
        <time>2023-10-16T22:42:21.817Z</time>
      </trkpt>
      <trkpt lat="45.681555261835456" lon="17.673655226826668">
        <ele>143.46</ele>
        <time>2023-10-16T22:42:26.892Z</time>
      </trkpt>
      <trkpt lat="45.68156951107085" lon="17.673628740012646">
        <ele>143.45</ele>
        <time>2023-10-16T22:42:31.968Z</time>
      </trkpt>
      <trkpt lat="45.6815841794014" lon="17.67360300756991">
        <ele>143.43</ele>
        <time>2023-10-16T22:42:37.045Z</time>
      </trkpt>
      <trkpt lat="45.68159943446517" lon="17.67357819713652">
        <ele>143.42</ele>
        <time>2023-10-16T22:42:42.123Z</time>
      </trkpt>
      <trkpt lat="45.68161519244313" lon="17.673554392531514">
        <ele>143.4</ele>
        <time>2023-10-16T22:42:47.201Z</time>
      </trkpt>
      <trkpt lat="45.68163136951625" lon="17.673531593754888">
        <ele>143.37</ele>
        <time>2023-10-16T22:42:52.280Z</time>
      </trkpt>
      <trkpt lat="45.681648049503565" lon="17.673509884625673">
        <ele>143.35</ele>
        <time>2023-10-16T22:42:57.360Z</time>
      </trkpt>
      <trkpt lat="45.6816653162241" lon="17.673489432781935">
        <ele>143.32</ele>
        <time>2023-10-16T22:43:02.441Z</time>
      </trkpt>
      <trkpt lat="45.681683169677854" lon="17.67347007058561">
        <ele>143.3</ele>
        <time>2023-10-16T22:43:07.522Z</time>
      </trkpt>
      <trkpt lat="45.68170160986483" lon="17.673451798036695">
        <ele>143.27</ele>
        <time>2023-10-16T22:43:12.604Z</time>
      </trkpt>
      <trkpt lat="45.68172063678503" lon="17.673434615135193">
        <ele>143.24</ele>
        <time>2023-10-16T22:43:17.687Z</time>
      </trkpt>
      <trkpt lat="45.68174016661942" lon="17.67341835424304">
        <ele>143.22</ele>
        <time>2023-10-16T22:43:22.771Z</time>
      </trkpt>
      <trkpt lat="45.68175986409187" lon="17.673403099179268">
        <ele>143.2</ele>
        <time>2023-10-16T22:43:27.855Z</time>
      </trkpt>
      <trkpt lat="45.68177964538336" lon="17.673388766124845">
        <ele>143.17</ele>
        <time>2023-10-16T22:43:32.940Z</time>
      </trkpt>
      <trkpt lat="45.681799091398716" lon="17.673375690355897">
        <ele>143.15</ele>
        <time>2023-10-16T22:43:38.026Z</time>
      </trkpt>
      <trkpt lat="45.681818118318915" lon="17.673363871872425">
        <ele>143.13</ele>
        <time>2023-10-16T22:43:43.113Z</time>
      </trkpt>
      <trkpt lat="45.68183647468686" lon="17.673352975398302">
        <ele>143.11</ele>
        <time>2023-10-16T22:43:48.200Z</time>
      </trkpt>
      <trkpt lat="45.681853741407394" lon="17.67334316857159">
        <ele>143.09</ele>
        <time>2023-10-16T22:43:53.288Z</time>
      </trkpt>
      <trkpt lat="45.68186958320439" lon="17.67333386465907">
        <ele>143.07</ele>
        <time>2023-10-16T22:43:58.376Z</time>
      </trkpt>
      <trkpt lat="45.681884083896875" lon="17.673324812203646">
        <ele>143.05</ele>
        <time>2023-10-16T22:44:03.465Z</time>
      </trkpt>
      <trkpt lat="45.681897243484855" lon="17.673315592110157">
        <ele>143.02</ele>
        <time>2023-10-16T22:44:08.554Z</time>
      </trkpt>
      <trkpt lat="45.68190906196833" lon="17.673306120559573">
        <ele>143.0</ele>
        <time>2023-10-16T22:44:13.644Z</time>
      </trkpt>
      <trkpt lat="45.681919790804386" lon="17.673295391723514">
        <ele>142.98</ele>
        <time>2023-10-16T22:44:18.734Z</time>
      </trkpt>
      <trkpt lat="45.6819295976311" lon="17.67328340560198">
        <ele>142.96</ele>
        <time>2023-10-16T22:44:23.825Z</time>
      </trkpt>
      <trkpt lat="45.681938733905554" lon="17.67326924018562">
        <ele>142.94</ele>
        <time>2023-10-16T22:44:28.916Z</time>
      </trkpt>
      <trkpt lat="45.68194736726582" lon="17.673252895474434">
        <ele>142.93</ele>
        <time>2023-10-16T22:44:34.008Z</time>
      </trkpt>
      <trkpt lat="45.681955832988024" lon="17.673233952373266">
        <ele>142.91</ele>
        <time>2023-10-16T22:44:39.100Z</time>
      </trkpt>
      <trkpt lat="45.68196429871023" lon="17.67321266233921">
        <ele>142.89</ele>
        <time>2023-10-16T22:44:44.193Z</time>
      </trkpt>
      <trkpt lat="45.681972932070494" lon="17.673188522458076">
        <ele>142.87</ele>
        <time>2023-10-16T22:44:49.286Z</time>
      </trkpt>
      <trkpt lat="45.68198198452592" lon="17.67316237092018">
        <ele>142.85</ele>
        <time>2023-10-16T22:44:54.380Z</time>
      </trkpt>
      <trkpt lat="45.6819914560765" lon="17.673134123906493">
        <ele>142.84</ele>
        <time>2023-10-16T22:44:59.475Z</time>
      </trkpt>
      <trkpt lat="45.68200117908418" lon="17.673104032874107">
        <ele>142.82</ele>
        <time>2023-10-16T22:45:04.571Z</time>
      </trkpt>
      <trkpt lat="45.682011069729924" lon="17.67307243309915">
        <ele>142.81</ele>
        <time>2023-10-16T22:45:09.667Z</time>
      </trkpt>
      <trkpt lat="45.68202096037567" lon="17.67304007895291">
        <ele>142.79</ele>
        <time>2023-10-16T22:45:14.764Z</time>
      </trkpt>
      <trkpt lat="45.68203085102141" lon="17.673007054254413">
        <ele>142.78</ele>
        <time>2023-10-16T22:45:19.862Z</time>
      </trkpt>
      <trkpt lat="45.68204074166715" lon="17.672973945736885">
        <ele>142.77</ele>
        <time>2023-10-16T22:45:24.961Z</time>
      </trkpt>
      <trkpt lat="45.682050716131926" lon="17.672940585762262">
        <ele>142.76</ele>
        <time>2023-10-16T22:45:30.061Z</time>
      </trkpt>
      <trkpt lat="45.68206060677767" lon="17.672907477244735">
        <ele>142.74</ele>
        <time>2023-10-16T22:45:35.162Z</time>
      </trkpt>
      <trkpt lat="45.68207058124244" lon="17.672874284908175">
        <ele>142.73</ele>
        <time>2023-10-16T22:45:40.263Z</time>
      </trkpt>
      <trkpt lat="45.68208063952625" lon="17.672841427847743">
        <ele>142.72</ele>
        <time>2023-10-16T22:45:45.365Z</time>
      </trkpt>
      <trkpt lat="45.682090781629086" lon="17.672808738425374">
        <ele>142.71</ele>
        <time>2023-10-16T22:45:50.468Z</time>
      </trkpt>
      <trkpt lat="45.68210117518902" lon="17.672776384279132">
        <ele>142.7</ele>
        <time>2023-10-16T22:45:55.572Z</time>
      </trkpt>
      <trkpt lat="45.68211165256798" lon="17.67274461686611">
        <ele>142.69</ele>
        <time>2023-10-16T22:46:00.677Z</time>
      </trkpt>
      <trkpt lat="45.682122465223074" lon="17.67271326854825">
        <ele>142.68</ele>
        <time>2023-10-16T22:46:05.783Z</time>
      </trkpt>
      <trkpt lat="45.68213352933526" lon="17.672682339325547">
        <ele>142.67</ele>
        <time>2023-10-16T22:46:10.889Z</time>
      </trkpt>
      <trkpt lat="45.68214484490454" lon="17.672651913017035">
        <ele>142.66</ele>
        <time>2023-10-16T22:46:15.996Z</time>
      </trkpt>
      <trkpt lat="45.68215632811189" lon="17.67262182198465">
        <ele>142.64</ele>
        <time>2023-10-16T22:46:21.104Z</time>
      </trkpt>
      <trkpt lat="45.682167978957295" lon="17.672591982409358">
        <ele>142.62</ele>
        <time>2023-10-16T22:46:26.213Z</time>
      </trkpt>
      <trkpt lat="45.68217954598367" lon="17.672562394291162">
        <ele>142.61</ele>
        <time>2023-10-16T22:46:31.323Z</time>
      </trkpt>
      <trkpt lat="45.68219102919102" lon="17.672532806172967">
        <ele>142.59</ele>
        <time>2023-10-16T22:46:36.433Z</time>
      </trkpt>
      <trkpt lat="45.68220226094127" lon="17.672503301873803">
        <ele>142.58</ele>
        <time>2023-10-16T22:46:41.544Z</time>
      </trkpt>
      <trkpt lat="45.68221332505345" lon="17.67247379757464">
        <ele>142.57</ele>
        <time>2023-10-16T22:46:46.656Z</time>
      </trkpt>
      <trkpt lat="45.68222405388951" lon="17.672444377094507">
        <ele>142.56</ele>
        <time>2023-10-16T22:46:51.769Z</time>
      </trkpt>
      <trkpt lat="45.682234447449446" lon="17.67241478897631">
        <ele>142.55</ele>
        <time>2023-10-16T22:46:56.883Z</time>
      </trkpt>
      <trkpt lat="45.68224442191422" lon="17.672385200858116">
        <ele>142.54</ele>
        <time>2023-10-16T22:47:01.997Z</time>
      </trkpt>
      <trkpt lat="45.682253893464804" lon="17.672355445101857">
        <ele>142.53</ele>
        <time>2023-10-16T22:47:07.112Z</time>
      </trkpt>
      <trkpt lat="45.6822628621012" lon="17.672325689345598">
        <ele>142.52</ele>
        <time>2023-10-16T22:47:12.228Z</time>
      </trkpt>
      <trkpt lat="45.68227124400437" lon="17.672295765951276">
        <ele>142.51</ele>
        <time>2023-10-16T22:47:17.345Z</time>
      </trkpt>
      <trkpt lat="45.68227895535529" lon="17.672265842556953">
        <ele>142.49</ele>
        <time>2023-10-16T22:47:22.462Z</time>
      </trkpt>
      <trkpt lat="45.68228599615395" lon="17.67223591916263">
        <ele>142.48</ele>
        <time>2023-10-16T22:47:27.580Z</time>
      </trkpt>
      <trkpt lat="45.68229236640036" lon="17.672205911949277">
        <ele>142.47</ele>
        <time>2023-10-16T22:47:32.699Z</time>
      </trkpt>
      <trkpt lat="45.68229806609452" lon="17.672175653278828">
        <ele>142.45</ele>
        <time>2023-10-16T22:47:37.818Z</time>
      </trkpt>
      <trkpt lat="45.68230309523642" lon="17.67214505933225">
        <ele>142.44</ele>
        <time>2023-10-16T22:47:42.938Z</time>
      </trkpt>
      <trkpt lat="45.68230762146413" lon="17.67211421392858">
        <ele>142.42</ele>
        <time>2023-10-16T22:47:48.059Z</time>
      </trkpt>
      <trkpt lat="45.682311644777656" lon="17.672083033248782">
        <ele>142.41</ele>
        <time>2023-10-16T22:47:53.181Z</time>
      </trkpt>
      <trkpt lat="45.68231533281505" lon="17.672051517292857">
        <ele>142.39</ele>
        <time>2023-10-16T22:47:58.303Z</time>
      </trkpt>
      <trkpt lat="45.68231860175729" lon="17.6720199175179">
        <ele>142.38</ele>
        <time>2023-10-16T22:48:03.426Z</time>
      </trkpt>
      <trkpt lat="45.6823215354234" lon="17.67198806628585">
        <ele>142.36</ele>
        <time>2023-10-16T22:48:08.550Z</time>
      </trkpt>
      <trkpt lat="45.68232421763241" lon="17.6719559635967">
        <ele>142.34</ele>
        <time>2023-10-16T22:48:13.675Z</time>
      </trkpt>
      <trkpt lat="45.68232664838433" lon="17.67192360945046">
        <ele>142.32</ele>
        <time>2023-10-16T22:48:18.800Z</time>
      </trkpt>
      <trkpt lat="45.68232907913625" lon="17.671891171485186">
        <ele>142.3</ele>
        <time>2023-10-16T22:48:23.926Z</time>
      </trkpt>
      <trkpt lat="45.682331593707204" lon="17.67185873351991">
        <ele>142.28</ele>
        <time>2023-10-16T22:48:29.053Z</time>
      </trkpt>
      <trkpt lat="45.68233435973525" lon="17.671826295554638">
        <ele>142.26</ele>
        <time>2023-10-16T22:48:34.181Z</time>
      </trkpt>
      <trkpt lat="45.68233737722039" lon="17.67179419286549">
        <ele>142.23</ele>
        <time>2023-10-16T22:48:39.310Z</time>
      </trkpt>
      <trkpt lat="45.68234072998166" lon="17.671762257814407">
        <ele>142.21</ele>
        <time>2023-10-16T22:48:44.439Z</time>
      </trkpt>
      <trkpt lat="45.68234416656196" lon="17.671730322763324">
        <ele>142.19</ele>
        <time>2023-10-16T22:48:49.569Z</time>
      </trkpt>
      <trkpt lat="45.682347770780325" lon="17.671698639169335">
        <ele>142.17</ele>
        <time>2023-10-16T22:48:54.700Z</time>
      </trkpt>
      <trkpt lat="45.682351207360625" lon="17.67166703939438">
        <ele>142.14</ele>
        <time>2023-10-16T22:48:59.832Z</time>
      </trkpt>
      <trkpt lat="45.68235447630286" lon="17.671635691076517">
        <ele>142.11</ele>
        <time>2023-10-16T22:49:04.964Z</time>
      </trkpt>
      <trkpt lat="45.68235724233091" lon="17.67160451039672">
        <ele>142.09</ele>
        <time>2023-10-16T22:49:10.097Z</time>
      </trkpt>
      <trkpt lat="45.6823593378067" lon="17.671573497354984">
        <ele>142.06</ele>
        <time>2023-10-16T22:49:15.231Z</time>
      </trkpt>
      <trkpt lat="45.68236025981605" lon="17.671542316675186">
        <ele>142.03</ele>
        <time>2023-10-16T22:49:20.365Z</time>
      </trkpt>
      <trkpt lat="45.682359924539924" lon="17.67151071690023">
        <ele>142.01</ele>
        <time>2023-10-16T22:49:25.500Z</time>
      </trkpt>
      <trkpt lat="45.682357996702194" lon="17.67147894948721">
        <ele>141.98</ele>
        <time>2023-10-16T22:49:30.636Z</time>
      </trkpt>
      <trkpt lat="45.68235447630286" lon="17.671446427702904">
        <ele>141.95</ele>
        <time>2023-10-16T22:49:35.773Z</time>
      </trkpt>
      <trkpt lat="45.68234953097999" lon="17.671413654461503">
        <ele>141.93</ele>
        <time>2023-10-16T22:49:40.910Z</time>
      </trkpt>
      <trkpt lat="45.682343412190676" lon="17.671380545943975">
        <ele>141.9</ele>
        <time>2023-10-16T22:49:46.048Z</time>
      </trkpt>
      <trkpt lat="45.68233670666814" lon="17.671347269788384">
        <ele>141.87</ele>
        <time>2023-10-16T22:49:51.187Z</time>
      </trkpt>
      <trkpt lat="45.68232958205044" lon="17.67131424508989">
        <ele>141.85</ele>
        <time>2023-10-16T22:49:56.327Z</time>
      </trkpt>
      <trkpt lat="45.68232262507081" lon="17.671280968934298">
        <ele>141.82</ele>
        <time>2023-10-16T22:50:01.468Z</time>
      </trkpt>
      <trkpt lat="45.68231591954827" lon="17.671247608959675">
        <ele>141.8</ele>
        <time>2023-10-16T22:50:06.610Z</time>
      </trkpt>
      <trkpt lat="45.682309716939926" lon="17.671214332804084">
        <ele>141.78</ele>
        <time>2023-10-16T22:50:11.752Z</time>
      </trkpt>
      <trkpt lat="45.68230443634093" lon="17.67118181101978">
        <ele>141.75</ele>
        <time>2023-10-16T22:50:16.895Z</time>
      </trkpt>
      <trkpt lat="45.68230024538934" lon="17.67114970833063">
        <ele>141.73</ele>
        <time>2023-10-16T22:50:22.039Z</time>
      </trkpt>
      <trkpt lat="45.6822972279042" lon="17.671118108555675">
        <ele>141.7</ele>
        <time>2023-10-16T22:50:27.184Z</time>
      </trkpt>
      <trkpt lat="45.682295551523566" lon="17.671086760237813">
        <ele>141.68</ele>
        <time>2023-10-16T22:50:32.329Z</time>
      </trkpt>
      <trkpt lat="45.68229479715228" lon="17.671054992824793">
        <ele>141.66</ele>
        <time>2023-10-16T22:50:37.475Z</time>
      </trkpt>
      <trkpt lat="45.68229462951422" lon="17.67102305777371">
        <ele>141.63</ele>
        <time>2023-10-16T22:50:42.622Z</time>
      </trkpt>
      <trkpt lat="45.682294461876154" lon="17.6709907874465">
        <ele>141.61</ele>
        <time>2023-10-16T22:50:47.770Z</time>
      </trkpt>
      <trkpt lat="45.68229387514293" lon="17.670957930386066">
        <ele>141.59</ele>
        <time>2023-10-16T22:50:52.918Z</time>
      </trkpt>
      <trkpt lat="45.68229270167649" lon="17.670924654230475">
        <ele>141.57</ele>
        <time>2023-10-16T22:50:58.067Z</time>
      </trkpt>
      <trkpt lat="45.68229069001973" lon="17.67089121043682">
        <ele>141.55</ele>
        <time>2023-10-16T22:51:03.217Z</time>
      </trkpt>
      <trkpt lat="45.682288175448775" lon="17.670857347548008">
        <ele>141.54</ele>
        <time>2023-10-16T22:51:08.368Z</time>
      </trkpt>
      <trkpt lat="45.68228515796363" lon="17.67082273028791">
        <ele>141.54</ele>
        <time>2023-10-16T22:51:13.520Z</time>
      </trkpt>
      <trkpt lat="45.6822818890214" lon="17.670787693932652">
        <ele>141.53</ele>
        <time>2023-10-16T22:51:18.672Z</time>
      </trkpt>
      <trkpt lat="45.68227853626013" lon="17.670752489939332">
        <ele>141.52</ele>
        <time>2023-10-16T22:51:23.825Z</time>
      </trkpt>
      <trkpt lat="45.68227509967983" lon="17.670717369765043">
        <ele>141.52</ele>
        <time>2023-10-16T22:51:28.979Z</time>
      </trkpt>
      <trkpt lat="45.68227183073759" lon="17.670682836323977">
        <ele>141.52</ele>
        <time>2023-10-16T22:51:34.134Z</time>
      </trkpt>
      <trkpt lat="45.68226889707148" lon="17.670648638159037">
        <ele>141.51</ele>
        <time>2023-10-16T22:51:39.290Z</time>
      </trkpt>
      <trkpt lat="45.682266633957624" lon="17.670614859089255">
        <ele>141.51</ele>
        <time>2023-10-16T22:51:44.446Z</time>
      </trkpt>
      <trkpt lat="45.68226504139602" lon="17.6705814152956">
        <ele>141.52</ele>
        <time>2023-10-16T22:51:49.603Z</time>
      </trkpt>
      <trkpt lat="45.68226453848183" lon="17.67054813914001">
        <ele>141.52</ele>
        <time>2023-10-16T22:51:54.761Z</time>
      </trkpt>
      <trkpt lat="45.68226504139602" lon="17.670515030622482">
        <ele>141.52</ele>
        <time>2023-10-16T22:51:59.920Z</time>
      </trkpt>
      <trkpt lat="45.68226655013859" lon="17.670482089743018">
        <ele>141.52</ele>
        <time>2023-10-16T22:52:05.080Z</time>
      </trkpt>
      <trkpt lat="45.68226889707148" lon="17.670449065044522">
        <ele>141.53</ele>
        <time>2023-10-16T22:52:10.240Z</time>
      </trkpt>
      <trkpt lat="45.68227183073759" lon="17.67041629180312">
        <ele>141.53</ele>
        <time>2023-10-16T22:52:15.401Z</time>
      </trkpt>
      <trkpt lat="45.68227526731789" lon="17.670383267104626">
        <ele>141.54</ele>
        <time>2023-10-16T22:52:20.563Z</time>
      </trkpt>
      <trkpt lat="45.68227903917432" lon="17.670350410044193">
        <ele>141.55</ele>
        <time>2023-10-16T22:52:25.726Z</time>
      </trkpt>
      <trkpt lat="45.68228297866881" lon="17.670317217707634">
        <ele>141.56</ele>
        <time>2023-10-16T22:52:30.889Z</time>
      </trkpt>
      <trkpt lat="45.68228700198233" lon="17.67028385773301">
        <ele>141.57</ele>
        <time>2023-10-16T22:52:36.053Z</time>
      </trkpt>
      <trkpt lat="45.68229094147682" lon="17.670250330120325">
        <ele>141.58</ele>
        <time>2023-10-16T22:52:41.218Z</time>
      </trkpt>
      <trkpt lat="45.68229471333325" lon="17.670216551050544">
        <ele>141.59</ele>
        <time>2023-10-16T22:52:46.384Z</time>
      </trkpt>
      <trkpt lat="45.68229823373258" lon="17.670182520523667">
        <ele>141.6</ele>
        <time>2023-10-16T22:52:51.551Z</time>
      </trkpt>
      <trkpt lat="45.68230150267482" lon="17.67014848999679">
        <ele>141.61</ele>
        <time>2023-10-16T22:52:56.718Z</time>
      </trkpt>
      <trkpt lat="45.682304352521896" lon="17.67011420801282">
        <ele>141.62</ele>
        <time>2023-10-16T22:53:01.886Z</time>
      </trkpt>
      <trkpt lat="45.682306783273816" lon="17.67008009366691">
        <ele>141.63</ele>
        <time>2023-10-16T22:53:07.055Z</time>
      </trkpt>
      <trkpt lat="45.68230879493058" lon="17.670045727863908">
        <ele>141.65</ele>
        <time>2023-10-16T22:53:12.225Z</time>
      </trkpt>
      <trkpt lat="45.682310219854116" lon="17.670011445879936">
        <ele>141.66</ele>
        <time>2023-10-16T22:53:17.396Z</time>
      </trkpt>
      <trkpt lat="45.68231089040637" lon="17.669976744800806">
        <ele>141.68</ele>
        <time>2023-10-16T22:53:22.567Z</time>
      </trkpt>
      <trkpt lat="45.68231080658734" lon="17.669941876083612">
        <ele>141.69</ele>
        <time>2023-10-16T22:53:27.739Z</time>
      </trkpt>
      <trkpt lat="45.682309716939926" lon="17.66990650445223">
        <ele>141.71</ele>
        <time>2023-10-16T22:53:32.912Z</time>
      </trkpt>
      <trkpt lat="45.6823077891022" lon="17.669870713725686">
        <ele>141.73</ele>
        <time>2023-10-16T22:53:38.086Z</time>
      </trkpt>
      <trkpt lat="45.68230502307415" lon="17.669834587723017">
        <ele>141.75</ele>
        <time>2023-10-16T22:53:43.261Z</time>
      </trkpt>
      <trkpt lat="45.68230175413191" lon="17.669798461720347">
        <ele>141.77</ele>
        <time>2023-10-16T22:53:48.437Z</time>
      </trkpt>
      <trkpt lat="45.682297898456454" lon="17.669762335717678">
        <ele>141.79</ele>
        <time>2023-10-16T22:53:53.613Z</time>
      </trkpt>
      <trkpt lat="45.68229370750487" lon="17.669726461172104">
        <ele>141.81</ele>
        <time>2023-10-16T22:53:58.790Z</time>
      </trkpt>
      <trkpt lat="45.682289181277156" lon="17.669690838083625">
        <ele>141.83</ele>
        <time>2023-10-16T22:54:03.968Z</time>
      </trkpt>
      <trkpt lat="45.68228440359235" lon="17.669655801728368">
        <ele>141.85</ele>
        <time>2023-10-16T22:54:09.147Z</time>
      </trkpt>
      <trkpt lat="45.682279374450445" lon="17.66962118446827">
        <ele>141.87</ele>
        <time>2023-10-16T22:54:14.327Z</time>
      </trkpt>
      <trkpt lat="45.68227426148951" lon="17.66958748921752">
        <ele>141.89</ele>
        <time>2023-10-16T22:54:19.508Z</time>
      </trkpt>
      <trkpt lat="45.682269064709544" lon="17.669554548338056">
        <ele>141.92</ele>
        <time>2023-10-16T22:54:24.689Z</time>
      </trkpt>
      <trkpt lat="45.68226411938667" lon="17.669522697106004">
        <ele>141.94</ele>
        <time>2023-10-16T22:54:29.871Z</time>
      </trkpt>
      <trkpt lat="45.6822591740638" lon="17.669491432607174">
        <ele>141.96</ele>
        <time>2023-10-16T22:54:35.054Z</time>
      </trkpt>
      <trkpt lat="45.682254396378994" lon="17.66946092247963">
        <ele>141.99</ele>
        <time>2023-10-16T22:54:40.238Z</time>
      </trkpt>
      <trkpt lat="45.682249534875154" lon="17.66943024471402">
        <ele>142.01</ele>
        <time>2023-10-16T22:54:45.422Z</time>
      </trkpt>
      <trkpt lat="45.68224458955228" lon="17.66939939931035">
        <ele>142.03</ele>
        <time>2023-10-16T22:54:50.607Z</time>
      </trkpt>
      <trkpt lat="45.68223922513425" lon="17.66936805099249">
        <ele>142.06</ele>
        <time>2023-10-16T22:54:55.793Z</time>
      </trkpt>
      <trkpt lat="45.68223335780203" lon="17.669336535036564">
        <ele>142.08</ele>
        <time>2023-10-16T22:55:00.980Z</time>
      </trkpt>
      <trkpt lat="45.68222690373659" lon="17.66930459998548">
        <ele>142.1</ele>
        <time>2023-10-16T22:55:06.167Z</time>
      </trkpt>
      <trkpt lat="45.68221986293793" lon="17.66927274875343">
        <ele>142.13</ele>
        <time>2023-10-16T22:55:11.355Z</time>
      </trkpt>
      <trkpt lat="45.68221206776798" lon="17.66924056224525">
        <ele>142.15</ele>
        <time>2023-10-16T22:55:16.544Z</time>
      </trkpt>
      <trkpt lat="45.682203685864806" lon="17.669208543375134">
        <ele>142.17</ele>
        <time>2023-10-16T22:55:21.734Z</time>
      </trkpt>
      <trkpt lat="45.68219454959035" lon="17.66917652450502">
        <ele>142.19</ele>
        <time>2023-10-16T22:55:26.925Z</time>
      </trkpt>
      <trkpt lat="45.68218482658267" lon="17.669144924730062">
        <ele>142.21</ele>
        <time>2023-10-16T22:55:32.116Z</time>
      </trkpt>
      <trkpt lat="45.68217443302274" lon="17.6691135764122">
        <ele>142.23</ele>
        <time>2023-10-16T22:55:37.308Z</time>
      </trkpt>
      <trkpt lat="45.682163536548615" lon="17.66908323392272">
        <ele>142.25</ele>
        <time>2023-10-16T22:55:42.501Z</time>
      </trkpt>
      <trkpt lat="45.6821521371603" lon="17.669053645804524">
        <ele>142.26</ele>
        <time>2023-10-16T22:55:47.695Z</time>
      </trkpt>
      <trkpt lat="45.68214040249586" lon="17.66902514733374">
        <ele>142.28</ele>
        <time>2023-10-16T22:55:52.890Z</time>
      </trkpt>
      <trkpt lat="45.682128416374326" lon="17.668997403234243">
        <ele>142.3</ele>
        <time>2023-10-16T22:55:58.085Z</time>
      </trkpt>
      <trkpt lat="45.682116178795695" lon="17.668970162048936">
        <ele>142.32</ele>
        <time>2023-10-16T22:56:03.281Z</time>
      </trkpt>
      <trkpt lat="45.682103941217065" lon="17.668943256139755">
        <ele>142.33</ele>
        <time>2023-10-16T22:56:08.478Z</time>
      </trkpt>
      <trkpt lat="45.682091703638434" lon="17.668916517868638">
        <ele>142.35</ele>
        <time>2023-10-16T22:56:13.676Z</time>
      </trkpt>
      <trkpt lat="45.68207963369787" lon="17.668890031054616">
        <ele>142.37</ele>
        <time>2023-10-16T22:56:18.874Z</time>
      </trkpt>
      <trkpt lat="45.68206764757633" lon="17.668863711878657">
        <ele>142.38</ele>
        <time>2023-10-16T22:56:24.073Z</time>
      </trkpt>
      <trkpt lat="45.68205582909286" lon="17.668837727978826">
        <ele>142.4</ele>
        <time>2023-10-16T22:56:29.273Z</time>
      </trkpt>
      <trkpt lat="45.68204409442842" lon="17.668812163174152">
        <ele>142.41</ele>
        <time>2023-10-16T22:56:34.474Z</time>
      </trkpt>
      <trkpt lat="45.68203219212592" lon="17.668787017464638">
        <ele>142.43</ele>
        <time>2023-10-16T22:56:39.675Z</time>
      </trkpt>
      <trkpt lat="45.68202012218535" lon="17.66876229085028">
        <ele>142.44</ele>
        <time>2023-10-16T22:56:44.877Z</time>
      </trkpt>
      <trkpt lat="45.682007716968656" lon="17.668737899512053">
        <ele>142.46</ele>
        <time>2023-10-16T22:56:50.080Z</time>
      </trkpt>
      <trkpt lat="45.681994976475835" lon="17.66871384344995">
        <ele>142.47</ele>
        <time>2023-10-16T22:56:55.283Z</time>
      </trkpt>
      <trkpt lat="45.68198198452592" lon="17.66868995502591">
        <ele>142.48</ele>
        <time>2023-10-16T22:57:00.487Z</time>
      </trkpt>
      <trkpt lat="45.68196874111891" lon="17.668666234239936">
        <ele>142.5</ele>
        <time>2023-10-16T22:57:05.692Z</time>
      </trkpt>
      <trkpt lat="45.681955413892865" lon="17.668642345815897">
        <ele>142.51</ele>
        <time>2023-10-16T22:57:10.897Z</time>
      </trkpt>
      <trkpt lat="45.68194208666682" lon="17.668618205934763">
        <ele>142.53</ele>
        <time>2023-10-16T22:57:16.103Z</time>
      </trkpt>
      <trkpt lat="45.68192909471691" lon="17.66859356313944">
        <ele>142.54</ele>
        <time>2023-10-16T22:57:21.310Z</time>
      </trkpt>
      <trkpt lat="45.68191668950021" lon="17.668568082153797">
        <ele>142.55</ele>
        <time>2023-10-16T22:57:26.518Z</time>
      </trkpt>
      <trkpt lat="45.681905122473836" lon="17.668541595339775">
        <ele>142.57</ele>
        <time>2023-10-16T22:57:31.726Z</time>
      </trkpt>
      <trkpt lat="45.68189489655197" lon="17.66851401887834">
        <ele>142.58</ele>
        <time>2023-10-16T22:57:36.935Z</time>
      </trkpt>
      <trkpt lat="45.68188617937267" lon="17.668485352769494">
        <ele>142.59</ele>
        <time>2023-10-16T22:57:42.145Z</time>
      </trkpt>
      <trkpt lat="45.6818793900311" lon="17.668455597013235">
        <ele>142.6</ele>
        <time>2023-10-16T22:57:47.356Z</time>
      </trkpt>
      <trkpt lat="45.68187444470823" lon="17.66842500306666">
        <ele>142.6</ele>
        <time>2023-10-16T22:57:52.567Z</time>
      </trkpt>
      <trkpt lat="45.681871343404055" lon="17.66839331947267">
        <ele>142.61</ele>
        <time>2023-10-16T22:57:57.779Z</time>
      </trkpt>
      <trkpt lat="45.68187008611858" lon="17.66836096532643">
        <ele>142.62</ele>
        <time>2023-10-16T22:58:02.992Z</time>
      </trkpt>
      <trkpt lat="45.68187050521374" lon="17.6683278568089">
        <ele>142.62</ele>
        <time>2023-10-16T22:58:08.206Z</time>
      </trkpt>
      <trkpt lat="45.681872349232435" lon="17.668294329196215">
        <ele>142.63</ele>
        <time>2023-10-16T22:58:13.420Z</time>
      </trkpt>
      <trkpt lat="45.68187536671758" lon="17.668260131031275">
        <ele>142.64</ele>
        <time>2023-10-16T22:58:18.635Z</time>
      </trkpt>
      <trkpt lat="45.68187930621207" lon="17.668225849047303">
        <ele>142.64</ele>
        <time>2023-10-16T22:58:23.851Z</time>
      </trkpt>
      <trkpt lat="45.681884000077844" lon="17.66819106414914">
        <ele>142.65</ele>
        <time>2023-10-16T22:58:29.068Z</time>
      </trkpt>
      <trkpt lat="45.68188919685781" lon="17.668156027793884">
        <ele>142.66</ele>
        <time>2023-10-16T22:58:34.286Z</time>
      </trkpt>
      <trkpt lat="45.6818947289139" lon="17.66812057234347">
        <ele>142.66</ele>
        <time>2023-10-16T22:58:39.505Z</time>
      </trkpt>
      <trkpt lat="45.68190042860806" lon="17.668084865435958">
        <ele>142.67</ele>
        <time>2023-10-16T22:58:44.724Z</time>
      </trkpt>
      <trkpt lat="45.681906547397375" lon="17.668048655614257">
        <ele>142.67</ele>
        <time>2023-10-16T22:58:49.944Z</time>
      </trkpt>
      <trkpt lat="45.68191308528185" lon="17.668012361973524">
        <ele>142.67</ele>
        <time>2023-10-16T22:58:55.165Z</time>
      </trkpt>
      <trkpt lat="45.681920293718576" lon="17.66797598451376">
        <ele>142.68</ele>
        <time>2023-10-16T22:59:00.387Z</time>
      </trkpt>
      <trkpt lat="45.68192834034562" lon="17.66793985851109">
        <ele>142.68</ele>
        <time>2023-10-16T22:59:05.610Z</time>
      </trkpt>
      <trkpt lat="45.68193722516298" lon="17.667903983965516">
        <ele>142.68</ele>
        <time>2023-10-16T22:59:10.834Z</time>
      </trkpt>
      <trkpt lat="45.681947031989694" lon="17.667868863791227">
        <ele>142.68</ele>
        <time>2023-10-16T22:59:16.059Z</time>
      </trkpt>
      <trkpt lat="45.681957844644785" lon="17.66783424653113">
        <ele>142.69</ele>
        <time>2023-10-16T22:59:21.285Z</time>
      </trkpt>
      <trkpt lat="45.68196949549019" lon="17.66780063509941">
        <ele>142.69</ele>
        <time>2023-10-16T22:59:26.511Z</time>
      </trkpt>
      <trkpt lat="45.68198215216398" lon="17.66776786185801">
        <ele>142.69</ele>
        <time>2023-10-16T22:59:31.738Z</time>
      </trkpt>
      <trkpt lat="45.68199556320906" lon="17.66773651354015">
        <ele>142.69</ele>
        <time>2023-10-16T22:59:36.966Z</time>
      </trkpt>
      <trkpt lat="45.68200981244445" lon="17.667706171050668">
        <ele>142.7</ele>
        <time>2023-10-16T22:59:42.195Z</time>
      </trkpt>
      <trkpt lat="45.682024313136935" lon="17.667677085846663">
        <ele>142.71</ele>
        <time>2023-10-16T22:59:47.425Z</time>
      </trkpt>
      <trkpt lat="45.68203906528652" lon="17.667648755013943">
        <ele>142.71</ele>
        <time>2023-10-16T22:59:52.656Z</time>
      </trkpt>
      <trkpt lat="45.682053565979004" lon="17.667621094733477">
        <ele>142.72</ele>
        <time>2023-10-16T22:59:57.887Z</time>
      </trkpt>
      <trkpt lat="45.682067731395364" lon="17.667593685910106">
        <ele>142.73</ele>
        <time>2023-10-16T23:00:03.119Z</time>
      </trkpt>
      <trkpt lat="45.682081477716565" lon="17.66756661236286">
        <ele>142.74</ele>
        <time>2023-10-16T23:00:08.352Z</time>
      </trkpt>
      <trkpt lat="45.6820950563997" lon="17.667539454996586">
        <ele>142.75</ele>
        <time>2023-10-16T23:00:13.586Z</time>
      </trkpt>
      <trkpt lat="45.682108299806714" lon="17.66751238144934">
        <ele>142.76</ele>
        <time>2023-10-16T23:00:18.821Z</time>
      </trkpt>
      <trkpt lat="45.682121543213725" lon="17.667485224083066">
        <ele>142.77</ele>
        <time>2023-10-16T23:00:24.056Z</time>
      </trkpt>
      <trkpt lat="45.68213461898267" lon="17.667457899078727">
        <ele>142.79</ele>
        <time>2023-10-16T23:00:29.292Z</time>
      </trkpt>
      <trkpt lat="45.68214769475162" lon="17.667430406436324">
        <ele>142.8</ele>
        <time>2023-10-16T23:00:34.529Z</time>
      </trkpt>
      <trkpt lat="45.68216077052057" lon="17.667402746155858">
        <ele>142.81</ele>
        <time>2023-10-16T23:00:39.767Z</time>
      </trkpt>
      <trkpt lat="45.68217401392758" lon="17.667375085875392">
        <ele>142.83</ele>
        <time>2023-10-16T23:00:45.005Z</time>
      </trkpt>
      <trkpt lat="45.68218767642975" lon="17.66734759323299">
        <ele>142.84</ele>
        <time>2023-10-16T23:00:50.244Z</time>
      </trkpt>
      <trkpt lat="45.68220184184611" lon="17.66732026822865">
        <ele>142.86</ele>
        <time>2023-10-16T23:00:55.484Z</time>
      </trkpt>
      <trkpt lat="45.68221667781472" lon="17.667293613776565">
        <ele>142.88</ele>
        <time>2023-10-16T23:01:00.725Z</time>
      </trkpt>
      <trkpt lat="45.68223226815462" lon="17.667267629876733">
        <ele>142.9</ele>
        <time>2023-10-16T23:01:05.967Z</time>
      </trkpt>
      <trkpt lat="45.682248529046774" lon="17.66724256798625">
        <ele>142.91</ele>
        <time>2023-10-16T23:01:11.209Z</time>
      </trkpt>
      <trkpt lat="45.68226529285312" lon="17.667218428105116">
        <ele>142.94</ele>
        <time>2023-10-16T23:01:16.452Z</time>
      </trkpt>
      <trkpt lat="45.68228264339268" lon="17.667195294052362">
        <ele>142.96</ele>
        <time>2023-10-16T23:01:21.696Z</time>
      </trkpt>
      <trkpt lat="45.68230049684644" lon="17.66717316582799">
        <ele>142.98</ele>
        <time>2023-10-16T23:01:26.941Z</time>
      </trkpt>
      <trkpt lat="45.68231876939535" lon="17.667151959612966">
        <ele>143.01</ele>
        <time>2023-10-16T23:01:32.187Z</time>
      </trkpt>
      <trkpt lat="45.682337461039424" lon="17.667131759226322">
        <ele>143.04</ele>
        <time>2023-10-16T23:01:37.433Z</time>
      </trkpt>
      <trkpt lat="45.68235665559769" lon="17.667112480849028">
        <ele>143.06</ele>
        <time>2023-10-16T23:01:42.680Z</time>
      </trkpt>
      <trkpt lat="45.68237618543208" lon="17.667094124481082">
        <ele>143.09</ele>
        <time>2023-10-16T23:01:47.928Z</time>
      </trkpt>
      <trkpt lat="45.68239588290453" lon="17.667076606303453">
        <ele>143.11</ele>
        <time>2023-10-16T23:01:53.177Z</time>
      </trkpt>
      <trkpt lat="45.682415748015046" lon="17.667059674859047">
        <ele>143.14</ele>
        <time>2023-10-16T23:01:58.427Z</time>
      </trkpt>
      <trkpt lat="45.682435696944594" lon="17.66704324632883">
        <ele>143.17</ele>
        <time>2023-10-16T23:02:03.677Z</time>
      </trkpt>
      <trkpt lat="45.68245547823608" lon="17.667026985436678">
        <ele>143.19</ele>
        <time>2023-10-16T23:02:08.928Z</time>
      </trkpt>
      <trkpt lat="45.682475259527564" lon="17.667011059820652">
        <ele>143.22</ele>
        <time>2023-10-16T23:02:14.180Z</time>
      </trkpt>
      <trkpt lat="45.68249512463808" lon="17.666995469480753">
        <ele>143.24</ele>
        <time>2023-10-16T23:02:19.433Z</time>
      </trkpt>
      <trkpt lat="45.6825149897486" lon="17.66698013059795">
        <ele>143.26</ele>
        <time>2023-10-16T23:02:24.686Z</time>
      </trkpt>
      <trkpt lat="45.68253502249718" lon="17.666965378448367">
        <ele>143.29</ele>
        <time>2023-10-16T23:02:29.940Z</time>
      </trkpt>
      <trkpt lat="45.68255513906479" lon="17.666951129212976">
        <ele>143.31</ele>
        <time>2023-10-16T23:02:35.195Z</time>
      </trkpt>
      <trkpt lat="45.682575507089496" lon="17.6669377181679">
        <ele>143.33</ele>
        <time>2023-10-16T23:02:40.451Z</time>
      </trkpt>
      <trkpt lat="45.682595958933234" lon="17.666925229132175">
        <ele>143.35</ele>
        <time>2023-10-16T23:02:45.707Z</time>
      </trkpt>
      <trkpt lat="45.682616578415036" lon="17.66691424883902">
        <ele>143.36</ele>
        <time>2023-10-16T23:02:50.964Z</time>
      </trkpt>
      <trkpt lat="45.6826373655349" lon="17.666905028745532">
        <ele>143.38</ele>
        <time>2023-10-16T23:02:56.222Z</time>
      </trkpt>
      <trkpt lat="45.682658068835735" lon="17.666898407042027">
        <ele>143.39</ele>
        <time>2023-10-16T23:03:01.480Z</time>
      </trkpt>
      <trkpt lat="45.68267868831754" lon="17.666894886642694">
        <ele>143.41</ele>
        <time>2023-10-16T23:03:06.739Z</time>
      </trkpt>
      <trkpt lat="45.68269888870418" lon="17.666894970461726">
        <ele>143.42</ele>
        <time>2023-10-16T23:03:11.999Z</time>
      </trkpt>
      <trkpt lat="45.68271808326244" lon="17.66689899377525">
        <ele>143.43</ele>
        <time>2023-10-16T23:03:17.259Z</time>
      </trkpt>
      <trkpt lat="45.6827359367162" lon="17.66690687276423">
        <ele>143.44</ele>
        <time>2023-10-16T23:03:22.520Z</time>
      </trkpt>
      <trkpt lat="45.68275211378932" lon="17.666918858885765">
        <ele>143.45</ele>
        <time>2023-10-16T23:03:27.782Z</time>
      </trkpt>
      <trkpt lat="45.68276636302471" lon="17.666934616863728">
        <ele>143.46</ele>
        <time>2023-10-16T23:03:33.044Z</time>
      </trkpt>
      <trkpt lat="45.68277851678431" lon="17.666954062879086">
        <ele>143.46</ele>
        <time>2023-10-16T23:03:38.307Z</time>
      </trkpt>
      <trkpt lat="45.68278865888715" lon="17.666976861655712">
        <ele>143.47</ele>
        <time>2023-10-16T23:03:43.571Z</time>
      </trkpt>
      <trkpt lat="45.682796873152256" lon="17.667002929374576">
        <ele>143.47</ele>
        <time>2023-10-16T23:03:48.835Z</time>
      </trkpt>
      <trkpt lat="45.6828030757606" lon="17.667031763121486">
        <ele>143.47</ele>
        <time>2023-10-16T23:03:54.100Z</time>
      </trkpt>
      <trkpt lat="45.682807518169284" lon="17.66706269234419">
        <ele>143.47</ele>
        <time>2023-10-16T23:03:59.366Z</time>
      </trkpt>
      <trkpt lat="45.68281036801636" lon="17.667095381766558">
        <ele>143.46</ele>
        <time>2023-10-16T23:04:04.632Z</time>
      </trkpt>
      <trkpt lat="45.68281187675893" lon="17.667129077017307">
        <ele>143.46</ele>
        <time>2023-10-16T23:04:09.899Z</time>
      </trkpt>
      <trkpt lat="45.68281229585409" lon="17.667163610458374">
        <ele>143.45</ele>
        <time>2023-10-16T23:04:15.167Z</time>
      </trkpt>
      <trkpt lat="45.68281212821603" lon="17.6671985629946">
        <ele>143.44</ele>
        <time>2023-10-16T23:04:20.436Z</time>
      </trkpt>
      <trkpt lat="45.682811541482806" lon="17.667233934625983">
        <ele>143.44</ele>
        <time>2023-10-16T23:04:25.706Z</time>
      </trkpt>
      <trkpt lat="45.68281087093055" lon="17.667269641533494">
        <ele>143.42</ele>
        <time>2023-10-16T23:04:30.976Z</time>
      </trkpt>
      <trkpt lat="45.6828102003783" lon="17.6673055998981">
        <ele>143.41</ele>
        <time>2023-10-16T23:04:36.247Z</time>
      </trkpt>
      <trkpt lat="45.68280961364508" lon="17.66734172590077">
        <ele>143.4</ele>
        <time>2023-10-16T23:04:41.519Z</time>
      </trkpt>
      <trkpt lat="45.68280919454992" lon="17.667378019541502">
        <ele>143.38</ele>
        <time>2023-10-16T23:04:46.792Z</time>
      </trkpt>
      <trkpt lat="45.68280894309282" lon="17.667414229363203">
        <ele>143.36</ele>
        <time>2023-10-16T23:04:52.066Z</time>
      </trkpt>
      <trkpt lat="45.68280894309282" lon="17.667450355365872">
        <ele>143.34</ele>
        <time>2023-10-16T23:04:57.341Z</time>
      </trkpt>
      <trkpt lat="45.68280919454992" lon="17.66748631373048">
        <ele>143.32</ele>
        <time>2023-10-16T23:05:02.617Z</time>
      </trkpt>
      <trkpt lat="45.682809948921204" lon="17.66752210445702">
        <ele>143.31</ele>
        <time>2023-10-16T23:05:07.893Z</time>
      </trkpt>
      <trkpt lat="45.68281112238765" lon="17.667557476088405">
        <ele>143.29</ele>
        <time>2023-10-16T23:05:13.170Z</time>
      </trkpt>
      <trkpt lat="45.68281279876828" lon="17.667592763900757">
        <ele>143.26</ele>
        <time>2023-10-16T23:05:18.448Z</time>
      </trkpt>
      <trkpt lat="45.68281497806311" lon="17.667627716436982">
        <ele>143.24</ele>
        <time>2023-10-16T23:05:23.727Z</time>
      </trkpt>
      <trkpt lat="45.68281766027212" lon="17.667662585154176">
        <ele>143.22</ele>
        <time>2023-10-16T23:05:29.007Z</time>
      </trkpt>
      <trkpt lat="45.68282092921436" lon="17.66769703477621">
        <ele>143.2</ele>
        <time>2023-10-16T23:05:34.288Z</time>
      </trkpt>
      <trkpt lat="45.68282478488982" lon="17.667731400579214">
        <ele>143.18</ele>
        <time>2023-10-16T23:05:39.569Z</time>
      </trkpt>
      <trkpt lat="45.6828292272985" lon="17.66776543110609">
        <ele>143.16</ele>
        <time>2023-10-16T23:05:44.851Z</time>
      </trkpt>
      <trkpt lat="45.6828342564404" lon="17.667799210175872">
        <ele>143.14</ele>
        <time>2023-10-16T23:05:50.134Z</time>
      </trkpt>
      <trkpt lat="45.682839872315526" lon="17.667832653969526">
        <ele>143.12</ele>
        <time>2023-10-16T23:05:55.418Z</time>
      </trkpt>
      <trkpt lat="45.68284590728581" lon="17.667865846306086">
        <ele>143.1</ele>
        <time>2023-10-16T23:06:00.703Z</time>
      </trkpt>
      <trkpt lat="45.68285236135125" lon="17.66789887100458">
        <ele>143.08</ele>
        <time>2023-10-16T23:06:05.988Z</time>
      </trkpt>
      <trkpt lat="45.68285906687379" lon="17.667931644245982">
        <ele>143.06</ele>
        <time>2023-10-16T23:06:11.274Z</time>
      </trkpt>
      <trkpt lat="45.68286602385342" lon="17.66796424984932">
        <ele>143.05</ele>
        <time>2023-10-16T23:06:16.561Z</time>
      </trkpt>
      <trkpt lat="45.68287331610918" lon="17.66799660399556">
        <ele>143.03</ele>
        <time>2023-10-16T23:06:21.849Z</time>
      </trkpt>
      <trkpt lat="45.682880776003" lon="17.668028874322772">
        <ele>143.01</ele>
        <time>2023-10-16T23:06:27.138Z</time>
      </trkpt>
      <trkpt lat="45.68288848735392" lon="17.668060893192887">
        <ele>143.0</ele>
        <time>2023-10-16T23:06:32.427Z</time>
      </trkpt>
      <trkpt lat="45.6828963663429" lon="17.668092912063003">
        <ele>142.99</ele>
        <time>2023-10-16T23:06:37.717Z</time>
      </trkpt>
      <trkpt lat="45.68290441296995" lon="17.668124763295054">
        <ele>142.98</ele>
        <time>2023-10-16T23:06:43.008Z</time>
      </trkpt>
      <trkpt lat="45.682912627235055" lon="17.668156530708075">
        <ele>142.97</ele>
        <time>2023-10-16T23:06:48.300Z</time>
      </trkpt>
      <trkpt lat="45.68292100913823" lon="17.668188298121095">
        <ele>142.96</ele>
        <time>2023-10-16T23:06:53.592Z</time>
      </trkpt>
      <trkpt lat="45.68292955867946" lon="17.668219981715083">
        <ele>142.95</ele>
        <time>2023-10-16T23:06:58.885Z</time>
      </trkpt>
      <trkpt lat="45.68293844349682" lon="17.668251497671008">
        <ele>142.95</ele>
        <time>2023-10-16T23:07:04.179Z</time>
      </trkpt>
      <trkpt lat="45.68294757977128" lon="17.66828284598887">
        <ele>142.95</ele>
        <time>2023-10-16T23:07:09.474Z</time>
      </trkpt>
      <trkpt lat="45.682957051321864" lon="17.668314026668668">
        <ele>142.95</ele>
        <time>2023-10-16T23:07:14.770Z</time>
      </trkpt>
      <trkpt lat="45.68296694196761" lon="17.66834487207234">
        <ele>142.95</ele>
        <time>2023-10-16T23:07:20.066Z</time>
      </trkpt>
      <trkpt lat="45.682977167889476" lon="17.668375382199883">
        <ele>142.95</ele>
        <time>2023-10-16T23:07:25.363Z</time>
      </trkpt>
      <trkpt lat="45.68298772908747" lon="17.6684055570513">
        <ele>142.96</ele>
        <time>2023-10-16T23:07:30.661Z</time>
      </trkpt>
      <trkpt lat="45.68299870938063" lon="17.66843531280756">
        <ele>142.96</ele>
        <time>2023-10-16T23:07:35.960Z</time>
      </trkpt>
      <trkpt lat="45.68301002494991" lon="17.66846464946866">
        <ele>142.97</ele>
        <time>2023-10-16T23:07:41.260Z</time>
      </trkpt>
      <trkpt lat="45.68302150815725" lon="17.668493734672666">
        <ele>142.98</ele>
        <time>2023-10-16T23:07:46.560Z</time>
      </trkpt>
      <trkpt lat="45.68303324282169" lon="17.668522568419576">
        <ele>142.99</ele>
        <time>2023-10-16T23:07:51.861Z</time>
      </trkpt>
      <trkpt lat="45.68304522894323" lon="17.66855115070939">
        <ele>143.0</ele>
        <time>2023-10-16T23:07:57.163Z</time>
      </trkpt>
      <trkpt lat="45.68305738270283" lon="17.66857939772308">
        <ele>143.02</ele>
        <time>2023-10-16T23:08:02.466Z</time>
      </trkpt>
      <trkpt lat="45.68306970410049" lon="17.66860739327967">
        <ele>143.04</ele>
        <time>2023-10-16T23:08:07.769Z</time>
      </trkpt>
      <trkpt lat="45.683082193136215" lon="17.66863513737917">
        <ele>143.06</ele>
        <time>2023-10-16T23:08:13.073Z</time>
      </trkpt>
      <trkpt lat="45.683094849810004" lon="17.668662630021572">
        <ele>143.08</ele>
        <time>2023-10-16T23:08:18.378Z</time>
      </trkpt>
      <trkpt lat="45.68310767412186" lon="17.66868995502591">
        <ele>143.11</ele>
        <time>2023-10-16T23:08:23.684Z</time>
      </trkpt>
      <trkpt lat="45.68312058225274" lon="17.66871728003025">
        <ele>143.14</ele>
        <time>2023-10-16T23:08:28.991Z</time>
      </trkpt>
      <trkpt lat="45.68313357420266" lon="17.668744521215558">
        <ele>143.17</ele>
        <time>2023-10-16T23:08:34.298Z</time>
      </trkpt>
      <trkpt lat="45.683146649971604" lon="17.668771762400866">
        <ele>143.2</ele>
        <time>2023-10-16T23:08:39.606Z</time>
      </trkpt>
      <trkpt lat="45.68315972574055" lon="17.66879891976714">
        <ele>143.24</ele>
        <time>2023-10-16T23:08:44.915Z</time>
      </trkpt>
      <trkpt lat="45.6831728015095" lon="17.668825993314385">
        <ele>143.28</ele>
        <time>2023-10-16T23:08:50.225Z</time>
      </trkpt>
      <trkpt lat="45.68318587727845" lon="17.66885306686163">
        <ele>143.32</ele>
        <time>2023-10-16T23:08:55.535Z</time>
      </trkpt>
      <trkpt lat="45.683198953047395" lon="17.668880224227905">
        <ele>143.36</ele>
        <time>2023-10-16T23:09:00.846Z</time>
      </trkpt>
      <trkpt lat="45.683212112635374" lon="17.66890738159418">
        <ele>143.41</ele>
        <time>2023-10-16T23:09:06.158Z</time>
      </trkpt>
      <trkpt lat="45.68322560749948" lon="17.66893462277949">
        <ele>143.46</ele>
        <time>2023-10-16T23:09:11.471Z</time>
      </trkpt>
      <trkpt lat="45.68323943763971" lon="17.668961696326733">
        <ele>143.52</ele>
        <time>2023-10-16T23:09:16.785Z</time>
      </trkpt>
      <trkpt lat="45.683253686875105" lon="17.66898885369301">
        <ele>143.57</ele>
        <time>2023-10-16T23:09:22.099Z</time>
      </trkpt>
      <trkpt lat="45.683268355205655" lon="17.66901575960219">
        <ele>143.63</ele>
        <time>2023-10-16T23:09:27.414Z</time>
      </trkpt>
      <trkpt lat="45.683283526450396" lon="17.669042581692338">
        <ele>143.7</ele>
        <time>2023-10-16T23:09:32.730Z</time>
      </trkpt>
      <trkpt lat="45.68329894915223" lon="17.669069319963455">
        <ele>143.76</ele>
        <time>2023-10-16T23:09:38.047Z</time>
      </trkpt>
      <trkpt lat="45.683314790949225" lon="17.669096142053604">
        <ele>143.83</ele>
        <time>2023-10-16T23:09:43.365Z</time>
      </trkpt>
      <trkpt lat="45.68333096802235" lon="17.66912288032472">
        <ele>143.91</ele>
        <time>2023-10-16T23:09:48.683Z</time>
      </trkpt>
      <trkpt lat="45.683347564190626" lon="17.66914970241487">
        <ele>143.98</ele>
        <time>2023-10-16T23:09:54.002Z</time>
      </trkpt>
      <trkpt lat="45.683364579454064" lon="17.669176356866956">
        <ele>144.06</ele>
        <time>2023-10-16T23:09:59.322Z</time>
      </trkpt>
      <trkpt lat="45.683381762355566" lon="17.66920292750001">
        <ele>144.15</ele>
        <time>2023-10-16T23:10:04.643Z</time>
      </trkpt>
      <trkpt lat="45.6833990290761" lon="17.66922941431403">
        <ele>144.24</ele>
        <time>2023-10-16T23:10:09.965Z</time>
      </trkpt>
      <trkpt lat="45.68341612815857" lon="17.669255817309022">
        <ele>144.33</ele>
        <time>2023-10-16T23:10:15.288Z</time>
      </trkpt>
      <trkpt lat="45.683432975783944" lon="17.669282220304012">
        <ele>144.42</ele>
        <time>2023-10-16T23:10:20.611Z</time>
      </trkpt>
      <trkpt lat="45.68344940431416" lon="17.669308623299003">
        <ele>144.52</ele>
        <time>2023-10-16T23:10:25.935Z</time>
      </trkpt>
      <trkpt lat="45.68346566520631" lon="17.66933485865593">
        <ele>144.62</ele>
        <time>2023-10-16T23:10:31.260Z</time>
      </trkpt>
      <trkpt lat="45.6834817584604" lon="17.669360926374793">
        <ele>144.73</ele>
        <time>2023-10-16T23:10:36.586Z</time>
      </trkpt>
      <trkpt lat="45.68349768407643" lon="17.669386826455593">
        <ele>144.84</ele>
        <time>2023-10-16T23:10:41.913Z</time>
      </trkpt>
      <trkpt lat="45.68351352587342" lon="17.669412223622203">
        <ele>144.95</ele>
        <time>2023-10-16T23:10:47.240Z</time>
      </trkpt>
      <trkpt lat="45.68352920003235" lon="17.669437369331717">
        <ele>145.06</ele>
        <time>2023-10-16T23:10:52.568Z</time>
      </trkpt>
      <trkpt lat="45.68354470655322" lon="17.669462095946074">
        <ele>145.18</ele>
        <time>2023-10-16T23:10:57.897Z</time>
      </trkpt>
      <trkpt lat="45.683560129255056" lon="17.66948640346527">
        <ele>145.29</ele>
        <time>2023-10-16T23:11:03.227Z</time>
      </trkpt>
      <trkpt lat="45.68357555195689" lon="17.66951029188931">
        <ele>145.41</ele>
        <time>2023-10-16T23:11:08.558Z</time>
      </trkpt>
      <trkpt lat="45.68359114229679" lon="17.66953376121819">
        <ele>145.53</ele>
        <time>2023-10-16T23:11:13.889Z</time>
      </trkpt>
      <trkpt lat="45.68360673263669" lon="17.669556811451912">
        <ele>145.65</ele>
        <time>2023-10-16T23:11:19.221Z</time>
      </trkpt>
      <trkpt lat="45.683622574433684" lon="17.669579358771443">
        <ele>145.78</ele>
        <time>2023-10-16T23:11:24.554Z</time>
      </trkpt>
      <trkpt lat="45.68363850004971" lon="17.669601403176785">
        <ele>145.91</ele>
        <time>2023-10-16T23:11:29.888Z</time>
      </trkpt>
      <trkpt lat="45.6836545933038" lon="17.669623279944062">
        <ele>146.04</ele>
        <time>2023-10-16T23:11:35.222Z</time>
      </trkpt>
      <trkpt lat="45.68367077037692" lon="17.669644821435213">
        <ele>146.17</ele>
        <time>2023-10-16T23:11:40.557Z</time>
      </trkpt>
      <trkpt lat="45.683687115088105" lon="17.669666362926364">
        <ele>146.3</ele>
        <time>2023-10-16T23:11:45.893Z</time>
      </trkpt>
      <trkpt lat="45.68370354361832" lon="17.66968773677945">
        <ele>146.44</ele>
        <time>2023-10-16T23:11:51.230Z</time>
      </trkpt>
      <trkpt lat="45.68372022360563" lon="17.669709278270602">
        <ele>146.58</ele>
        <time>2023-10-16T23:11:56.567Z</time>
      </trkpt>
      <trkpt lat="45.68373707123101" lon="17.669730819761753">
        <ele>146.72</ele>
        <time>2023-10-16T23:12:01.905Z</time>
      </trkpt>
      <trkpt lat="45.68375417031348" lon="17.669752361252904">
        <ele>146.86</ele>
        <time>2023-10-16T23:12:07.244Z</time>
      </trkpt>
      <trkpt lat="45.683771604672074" lon="17.669773986563087">
        <ele>147.01</ele>
        <time>2023-10-16T23:12:12.584Z</time>
      </trkpt>
      <trkpt lat="45.6837893743068" lon="17.6697956956923">
        <ele>147.15</ele>
        <time>2023-10-16T23:12:17.924Z</time>
      </trkpt>
      <trkpt lat="45.68380739539862" lon="17.66981757245958">
        <ele>147.3</ele>
        <time>2023-10-16T23:12:23.265Z</time>
      </trkpt>
      <trkpt lat="45.68382575176656" lon="17.669839449226856">
        <ele>147.45</ele>
        <time>2023-10-16T23:12:28.607Z</time>
      </trkpt>
      <trkpt lat="45.683844443410635" lon="17.669861409813166">
        <ele>147.6</ele>
        <time>2023-10-16T23:12:33.950Z</time>
      </trkpt>
      <trkpt lat="45.6838633865118" lon="17.669883454218507">
        <ele>147.75</ele>
        <time>2023-10-16T23:12:39.294Z</time>
      </trkpt>
      <trkpt lat="45.683882497251034" lon="17.669905498623848">
        <ele>147.91</ele>
        <time>2023-10-16T23:12:44.638Z</time>
      </trkpt>
      <trkpt lat="45.68390177562833" lon="17.669927459210157">
        <ele>148.06</ele>
        <time>2023-10-16T23:12:49.983Z</time>
      </trkpt>
      <trkpt lat="45.683921137824655" lon="17.669949335977435">
        <ele>148.22</ele>
        <time>2023-10-16T23:12:55.329Z</time>
      </trkpt>
      <trkpt lat="45.68394033238292" lon="17.669971296563745">
        <ele>148.38</ele>
        <time>2023-10-16T23:13:00.676Z</time>
      </trkpt>
      <trkpt lat="45.683959275484085" lon="17.669993340969086">
        <ele>148.53</ele>
        <time>2023-10-16T23:13:06.024Z</time>
      </trkpt>
      <trkpt lat="45.683977799490094" lon="17.670015720650554">
        <ele>148.69</ele>
        <time>2023-10-16T23:13:11.372Z</time>
      </trkpt>
      <trkpt lat="45.683995904400945" lon="17.67003843560815">
        <ele>148.85</ele>
        <time>2023-10-16T23:13:16.721Z</time>
      </trkpt>
      <trkpt lat="45.684013506397605" lon="17.670061569660902">
        <ele>149.01</ele>
        <time>2023-10-16T23:13:22.071Z</time>
      </trkpt>
      <trkpt lat="45.684030605480075" lon="17.670085290446877">
        <ele>149.17</ele>
        <time>2023-10-16T23:13:27.422Z</time>
      </trkpt>
      <trkpt lat="45.684047201648355" lon="17.670109597966075">
        <ele>149.33</ele>
        <time>2023-10-16T23:13:32.774Z</time>
      </trkpt>
      <trkpt lat="45.68406312726438" lon="17.670134408399463">
        <ele>149.49</ele>
        <time>2023-10-16T23:13:38.126Z</time>
      </trkpt>
      <trkpt lat="45.68407829850912" lon="17.670159805566072">
        <ele>149.65</ele>
        <time>2023-10-16T23:13:43.479Z</time>
      </trkpt>
      <trkpt lat="45.68409254774451" lon="17.670185957103968">
        <ele>149.81</ele>
        <time>2023-10-16T23:13:48.833Z</time>
      </trkpt>
      <trkpt lat="45.684105791151524" lon="17.67021286301315">
        <ele>149.97</ele>
        <time>2023-10-16T23:13:54.188Z</time>
      </trkpt>
      <trkpt lat="45.684118112549186" lon="17.670240523293614">
        <ele>150.12</ele>
        <time>2023-10-16T23:13:59.544Z</time>
      </trkpt>
      <trkpt lat="45.68412942811847" lon="17.67026910558343">
        <ele>150.28</ele>
        <time>2023-10-16T23:14:04.900Z</time>
      </trkpt>
      <trkpt lat="45.684139570221305" lon="17.67029852606356">
        <ele>150.43</ele>
        <time>2023-10-16T23:14:10.257Z</time>
      </trkpt>
      <trkpt lat="45.68414862267673" lon="17.67032878473401">
        <ele>150.59</ele>
        <time>2023-10-16T23:14:15.615Z</time>
      </trkpt>
      <trkpt lat="45.68415641784668" lon="17.670359713956714">
        <ele>150.74</ele>
        <time>2023-10-16T23:14:20.974Z</time>
      </trkpt>
      <trkpt lat="45.68416287191212" lon="17.670391565188766">
        <ele>150.9</ele>
        <time>2023-10-16T23:14:26.333Z</time>
      </trkpt>
      <trkpt lat="45.68416781723499" lon="17.67042400315404">
        <ele>151.05</ele>
        <time>2023-10-16T23:14:31.693Z</time>
      </trkpt>
      <trkpt lat="45.68417116999626" lon="17.670457111671567">
        <ele>151.21</ele>
        <time>2023-10-16T23:14:37.054Z</time>
      </trkpt>
      <trkpt lat="45.68417309783399" lon="17.670490723103285">
        <ele>151.36</ele>
        <time>2023-10-16T23:14:42.416Z</time>
      </trkpt>
      <trkpt lat="45.68417343311012" lon="17.67052466981113">
        <ele>151.5</ele>
        <time>2023-10-16T23:14:47.778Z</time>
      </trkpt>
      <trkpt lat="45.684172259643674" lon="17.67055886797607">
        <ele>151.65</ele>
        <time>2023-10-16T23:14:53.141Z</time>
      </trkpt>
      <trkpt lat="45.68416957743466" lon="17.670592982321978">
        <ele>151.78</ele>
        <time>2023-10-16T23:14:58.505Z</time>
      </trkpt>
      <trkpt lat="45.68416555412114" lon="17.67062684521079">
        <ele>151.92</ele>
        <time>2023-10-16T23:15:03.870Z</time>
      </trkpt>
      <trkpt lat="45.68416027352214" lon="17.670660372823477">
        <ele>152.06</ele>
        <time>2023-10-16T23:15:09.236Z</time>
      </trkpt>
      <trkpt lat="45.68415365181863" lon="17.67069322988391">
        <ele>152.2</ele>
        <time>2023-10-16T23:15:14.602Z</time>
      </trkpt>
      <trkpt lat="45.68414602428675" lon="17.67072550021112">
        <ele>152.33</ele>
        <time>2023-10-16T23:15:19.969Z</time>
      </trkpt>
      <trkpt lat="45.68413730710745" lon="17.670757099986076">
        <ele>152.46</ele>
        <time>2023-10-16T23:15:25.337Z</time>
      </trkpt>
      <trkpt lat="45.68412775173783" lon="17.67078811302781">
        <ele>152.59</ele>
        <time>2023-10-16T23:15:30.706Z</time>
      </trkpt>
      <trkpt lat="45.684117525815964" lon="17.670818623155355">
        <ele>152.71</ele>
        <time>2023-10-16T23:15:36.076Z</time>
      </trkpt>
      <trkpt lat="45.68410671316087" lon="17.67084871418774">
        <ele>152.83</ele>
        <time>2023-10-16T23:15:41.446Z</time>
      </trkpt>
      <trkpt lat="45.68409548141062" lon="17.670878553763032">
        <ele>152.94</ele>
        <time>2023-10-16T23:15:46.817Z</time>
      </trkpt>
      <trkpt lat="45.68408399820328" lon="17.670908141881227">
        <ele>153.05</ele>
        <time>2023-10-16T23:15:52.189Z</time>
      </trkpt>
      <trkpt lat="45.684072179719806" lon="17.67093764618039">
        <ele>153.16</ele>
        <time>2023-10-16T23:15:57.562Z</time>
      </trkpt>
      <trkpt lat="45.68406010977924" lon="17.670967150479555">
        <ele>153.26</ele>
        <time>2023-10-16T23:16:02.936Z</time>
      </trkpt>
      <trkpt lat="45.68404778838158" lon="17.67099673859775">
        <ele>153.36</ele>
        <time>2023-10-16T23:16:08.310Z</time>
      </trkpt>
      <trkpt lat="45.68403521552682" lon="17.67102649435401">
        <ele>153.45</ele>
        <time>2023-10-16T23:16:13.685Z</time>
      </trkpt>
      <trkpt lat="45.684022307395935" lon="17.671056417748332">
        <ele>153.54</ele>
        <time>2023-10-16T23:16:19.061Z</time>
      </trkpt>
      <trkpt lat="45.684009147807956" lon="17.671086341142654">
        <ele>153.63</ele>
        <time>2023-10-16T23:16:24.438Z</time>
      </trkpt>
      <trkpt lat="45.68399573676288" lon="17.67111634835601">
        <ele>153.71</ele>
        <time>2023-10-16T23:16:29.816Z</time>
      </trkpt>
      <trkpt lat="45.68398207426071" lon="17.67114627175033">
        <ele>153.79</ele>
        <time>2023-10-16T23:16:35.195Z</time>
      </trkpt>
      <trkpt lat="45.68396816030145" lon="17.67117602750659">
        <ele>153.87</ele>
        <time>2023-10-16T23:16:40.574Z</time>
      </trkpt>
      <trkpt lat="45.68395416252315" lon="17.671205615624785">
        <ele>153.94</ele>
        <time>2023-10-16T23:16:45.954Z</time>
      </trkpt>
      <trkpt lat="45.68393991328776" lon="17.671235036104918">
        <ele>154.01</ele>
        <time>2023-10-16T23:16:51.335Z</time>
      </trkpt>
      <trkpt lat="45.6839257478714" lon="17.671264121308923">
        <ele>154.08</ele>
        <time>2023-10-16T23:16:56.717Z</time>
      </trkpt>
      <trkpt lat="45.68391149863601" lon="17.671293122693896">
        <ele>154.14</ele>
        <time>2023-10-16T23:17:02.100Z</time>
      </trkpt>
      <trkpt lat="45.68389733321965" lon="17.671321788802743">
        <ele>154.2</ele>
        <time>2023-10-16T23:17:07.484Z</time>
      </trkpt>
      <trkpt lat="45.68388316780329" lon="17.67135045491159">
        <ele>154.26</ele>
        <time>2023-10-16T23:17:12.868Z</time>
      </trkpt>
      <trkpt lat="45.68386917002499" lon="17.671378953382373">
        <ele>154.31</ele>
        <time>2023-10-16T23:17:18.253Z</time>
      </trkpt>
      <trkpt lat="45.68385533988476" lon="17.671407368034124">
        <ele>154.36</ele>
        <time>2023-10-16T23:17:23.639Z</time>
      </trkpt>
      <trkpt lat="45.68384192883968" lon="17.67143595032394">
        <ele>154.41</ele>
        <time>2023-10-16T23:17:29.026Z</time>
      </trkpt>
      <trkpt lat="45.683828769251704" lon="17.671464532613754">
        <ele>154.46</ele>
        <time>2023-10-16T23:17:34.414Z</time>
      </trkpt>
      <trkpt lat="45.68381619639695" lon="17.671493282541633">
        <ele>154.5</ele>
        <time>2023-10-16T23:17:39.802Z</time>
      </trkpt>
      <trkpt lat="45.68380404263735" lon="17.67152245156467">
        <ele>154.54</ele>
        <time>2023-10-16T23:17:45.191Z</time>
      </trkpt>
      <trkpt lat="45.68379247561097" lon="17.6715518720448">
        <ele>154.58</ele>
        <time>2023-10-16T23:17:50.581Z</time>
      </trkpt>
      <trkpt lat="45.68378132767975" lon="17.671581879258156">
        <ele>154.61</ele>
        <time>2023-10-16T23:17:55.972Z</time>
      </trkpt>
      <trkpt lat="45.683770682662725" lon="17.671612221747637">
        <ele>154.64</ele>
        <time>2023-10-16T23:18:01.364Z</time>
      </trkpt>
      <trkpt lat="45.68376054055989" lon="17.671642983332276">
        <ele>154.66</ele>
        <time>2023-10-16T23:18:06.756Z</time>
      </trkpt>
      <trkpt lat="45.68375090137124" lon="17.671674247831106">
        <ele>154.69</ele>
        <time>2023-10-16T23:18:12.149Z</time>
      </trkpt>
      <trkpt lat="45.683741848915815" lon="17.671705847606063">
        <ele>154.71</ele>
        <time>2023-10-16T23:18:17.543Z</time>
      </trkpt>
      <trkpt lat="45.683733467012644" lon="17.67173795029521">
        <ele>154.73</ele>
        <time>2023-10-16T23:18:22.938Z</time>
      </trkpt>
      <trkpt lat="45.68372583948076" lon="17.671770388260484">
        <ele>154.75</ele>
        <time>2023-10-16T23:18:28.334Z</time>
      </trkpt>
      <trkpt lat="45.68371913395822" lon="17.671803329139948">
        <ele>154.76</ele>
        <time>2023-10-16T23:18:33.730Z</time>
      </trkpt>
      <trkpt lat="45.68371309898794" lon="17.67183668911457">
        <ele>154.77</ele>
        <time>2023-10-16T23:18:39.127Z</time>
      </trkpt>
      <trkpt lat="45.683707986027" lon="17.671870468184352">
        <ele>154.78</ele>
        <time>2023-10-16T23:18:44.525Z</time>
      </trkpt>
      <trkpt lat="45.683703711256385" lon="17.671904750168324">
        <ele>154.78</ele>
        <time>2023-10-16T23:18:49.924Z</time>
      </trkpt>
      <trkpt lat="45.683700274676085" lon="17.671939367428422">
        <ele>154.79</ele>
        <time>2023-10-16T23:18:55.324Z</time>
      </trkpt>
      <trkpt lat="45.68369759246707" lon="17.67197448760271">
        <ele>154.79</ele>
        <time>2023-10-16T23:19:00.724Z</time>
      </trkpt>
      <trkpt lat="45.683695916086435" lon="17.672009943053126">
        <ele>154.8</ele>
        <time>2023-10-16T23:19:06.125Z</time>
      </trkpt>
      <trkpt lat="45.68369507789612" lon="17.67204573377967">
        <ele>154.8</ele>
        <time>2023-10-16T23:19:11.527Z</time>
      </trkpt>
      <trkpt lat="45.683694910258055" lon="17.672081775963306">
        <ele>154.8</ele>
        <time>2023-10-16T23:19:16.930Z</time>
      </trkpt>
      <trkpt lat="45.68369532935321" lon="17.672117901965976">
        <ele>154.8</ele>
        <time>2023-10-16T23:19:22.334Z</time>
      </trkpt>
      <trkpt lat="45.683696335181594" lon="17.672154027968645">
        <ele>154.8</ele>
        <time>2023-10-16T23:19:27.739Z</time>
      </trkpt>
      <trkpt lat="45.68369759246707" lon="17.672190153971314">
        <ele>154.8</ele>
        <time>2023-10-16T23:19:33.144Z</time>
      </trkpt>
      <trkpt lat="45.68369910120964" lon="17.67222602851689">
        <ele>154.8</ele>
        <time>2023-10-16T23:19:38.550Z</time>
      </trkpt>
      <trkpt lat="45.68370069377124" lon="17.67226181924343">
        <ele>154.8</ele>
        <time>2023-10-16T23:19:43.957Z</time>
      </trkpt>
      <trkpt lat="45.68370237015188" lon="17.672297274693847">
        <ele>154.79</ele>
        <time>2023-10-16T23:19:49.365Z</time>
      </trkpt>
      <trkpt lat="45.68370396271348" lon="17.6723325625062">
        <ele>154.79</ele>
        <time>2023-10-16T23:19:54.774Z</time>
      </trkpt>
      <trkpt lat="45.68370555527508" lon="17.672367598861456">
        <ele>154.78</ele>
        <time>2023-10-16T23:20:00.184Z</time>
      </trkpt>
      <trkpt lat="45.68370731547475" lon="17.67240246757865">
        <ele>154.78</ele>
        <time>2023-10-16T23:20:05.594Z</time>
      </trkpt>
      <trkpt lat="45.683709159493446" lon="17.672437084838748">
        <ele>154.78</ele>
        <time>2023-10-16T23:20:11.005Z</time>
      </trkpt>
      <trkpt lat="45.68371133878827" lon="17.672471618279815">
        <ele>154.78</ele>
        <time>2023-10-16T23:20:16.417Z</time>
      </trkpt>
      <trkpt lat="45.68371385335922" lon="17.67250615172088">
        <ele>154.77</ele>
        <time>2023-10-16T23:20:21.830Z</time>
      </trkpt>
      <trkpt lat="45.68371678702533" lon="17.67254076898098">
        <ele>154.77</ele>
        <time>2023-10-16T23:20:27.244Z</time>
      </trkpt>
      <trkpt lat="45.68372005596757" lon="17.67257538624108">
        <ele>154.77</ele>
        <time>2023-10-16T23:20:32.658Z</time>
      </trkpt>
      <trkpt lat="45.68372366018593" lon="17.672610254958272">
        <ele>154.76</ele>
        <time>2023-10-16T23:20:38.073Z</time>
      </trkpt>
      <trkpt lat="45.683727683499455" lon="17.672645039856434">
        <ele>154.76</ele>
        <time>2023-10-16T23:20:43.489Z</time>
      </trkpt>
      <trkpt lat="45.68373195827007" lon="17.672679824754596">
        <ele>154.76</ele>
        <time>2023-10-16T23:20:48.906Z</time>
      </trkpt>
      <trkpt lat="45.68373665213585" lon="17.672714525833726">
        <ele>154.76</ele>
        <time>2023-10-16T23:20:54.324Z</time>
      </trkpt>
      <trkpt lat="45.683741346001625" lon="17.672749059274793">
        <ele>154.76</ele>
        <time>2023-10-16T23:20:59.743Z</time>
      </trkpt>
      <trkpt lat="45.68374595604837" lon="17.67278359271586">
        <ele>154.76</ele>
        <time>2023-10-16T23:21:05.162Z</time>
      </trkpt>
      <trkpt lat="45.683750146999955" lon="17.672818209975958">
        <ele>154.76</ele>
        <time>2023-10-16T23:21:10.582Z</time>
      </trkpt>
      <trkpt lat="45.68375391885638" lon="17.672852659597993">
        <ele>154.76</ele>
        <time>2023-10-16T23:21:16.003Z</time>
      </trkpt>
      <trkpt lat="45.683756936341524" lon="17.672887109220028">
        <ele>154.77</ele>
        <time>2023-10-16T23:21:21.425Z</time>
      </trkpt>
      <trkpt lat="45.68375919945538" lon="17.672921391204">
        <ele>154.77</ele>
        <time>2023-10-16T23:21:26.848Z</time>
      </trkpt>
      <trkpt lat="45.68376070819795" lon="17.672955505549908">
        <ele>154.78</ele>
        <time>2023-10-16T23:21:32.271Z</time>
      </trkpt>
      <trkpt lat="45.683761378750205" lon="17.67298936843872">
        <ele>154.78</ele>
        <time>2023-10-16T23:21:37.695Z</time>
      </trkpt>
      <trkpt lat="45.68376129493117" lon="17.67302297987044">
        <ele>154.79</ele>
        <time>2023-10-16T23:21:43.120Z</time>
      </trkpt>
      <trkpt lat="45.683760372921824" lon="17.673056507483125">
        <ele>154.8</ele>
        <time>2023-10-16T23:21:48.546Z</time>
      </trkpt>
      <trkpt lat="45.68375878036022" lon="17.673089867457747">
        <ele>154.81</ele>
        <time>2023-10-16T23:21:53.973Z</time>
      </trkpt>
      <trkpt lat="45.68375668488443" lon="17.673123059794307">
        <ele>154.82</ele>
        <time>2023-10-16T23:21:59.400Z</time>
      </trkpt>
      <trkpt lat="45.68375425413251" lon="17.673156168311834">
        <ele>154.83</ele>
        <time>2023-10-16T23:22:04.828Z</time>
      </trkpt>
      <trkpt lat="45.68375140428543" lon="17.6731891091913">
        <ele>154.85</ele>
        <time>2023-10-16T23:22:10.257Z</time>
      </trkpt>
      <trkpt lat="45.68374838680029" lon="17.6732218824327">
        <ele>154.87</ele>
        <time>2023-10-16T23:22:15.687Z</time>
      </trkpt>
      <trkpt lat="45.683745201677084" lon="17.67325473949313">
        <ele>154.89</ele>
        <time>2023-10-16T23:22:21.118Z</time>
      </trkpt>
      <trkpt lat="45.683741848915815" lon="17.673287512734532">
        <ele>154.92</ele>
        <time>2023-10-16T23:22:26.549Z</time>
      </trkpt>
      <trkpt lat="45.68373849615455" lon="17.673320453613997">
        <ele>154.94</ele>
        <time>2023-10-16T23:22:31.981Z</time>
      </trkpt>
      <trkpt lat="45.68373514339328" lon="17.67335339449346">
        <ele>154.97</ele>
        <time>2023-10-16T23:22:37.414Z</time>
      </trkpt>
      <trkpt lat="45.68373187445104" lon="17.67338667064905">
        <ele>155.0</ele>
        <time>2023-10-16T23:22:42.848Z</time>
      </trkpt>
      <trkpt lat="45.683728689327836" lon="17.673420030623674">
        <ele>155.03</ele>
        <time>2023-10-16T23:22:48.282Z</time>
      </trkpt>
      <trkpt lat="45.68372550420463" lon="17.673453642055392">
        <ele>155.06</ele>
        <time>2023-10-16T23:22:53.717Z</time>
      </trkpt>
      <trkpt lat="45.683722319081426" lon="17.673487421125174">
        <ele>155.09</ele>
        <time>2023-10-16T23:22:59.153Z</time>
      </trkpt>
      <trkpt lat="45.68371913395822" lon="17.673521116375923">
        <ele>155.12</ele>
        <time>2023-10-16T23:23:04.590Z</time>
      </trkpt>
      <trkpt lat="45.68371603265405" lon="17.673555063083768">
        <ele>155.16</ele>
        <time>2023-10-16T23:23:10.028Z</time>
      </trkpt>
      <trkpt lat="45.68371293134987" lon="17.67358942888677">
        <ele>155.19</ele>
        <time>2023-10-16T23:23:15.466Z</time>
      </trkpt>
      <trkpt lat="45.683710081502795" lon="17.673623459413648">
        <ele>155.23</ele>
        <time>2023-10-16T23:23:20.905Z</time>
      </trkpt>
      <trkpt lat="45.68370672874153" lon="17.67365824431181">
        <ele>155.26</ele>
        <time>2023-10-16T23:23:26.345Z</time>
      </trkpt>
      <trkpt lat="45.68370387889445" lon="17.67369059845805">
        <ele>155.3</ele>
        <time>2023-10-16T23:23:31.786Z</time>
      </trkpt>
      <trkpt lat="45.6837011128664" lon="17.673725550994277">
        <ele>155.35</ele>
        <time>2023-10-16T23:23:37.228Z</time>
      </trkpt>
      <trkpt lat="45.68369700573385" lon="17.67376335337758">
        <ele>155.39</ele>
        <time>2023-10-16T23:23:42.671Z</time>
      </trkpt>
      <trkpt lat="45.683685187250376" lon="17.673890171572566">
        <ele>155.45</ele>
        <time>2023-10-16T23:23:48.116Z</time>
      </trkpt>
      <trkpt lat="45.68368015810847" lon="17.673902241513133">
        <ele>155.49</ele>
        <time>2023-10-16T23:23:53.562Z</time>
      </trkpt>
      <trkpt lat="45.683674877509475" lon="17.67392168752849">
        <ele>155.52</ele>
        <time>2023-10-16T23:23:59.008Z</time>
      </trkpt>
      <trkpt lat="45.68366976454854" lon="17.67395429313183">
        <ele>155.57</ele>
        <time>2023-10-16T23:24:04.455Z</time>
      </trkpt>
      <trkpt lat="45.68366448394954" lon="17.673984384164214">
        <ele>155.6</ele>
        <time>2023-10-16T23:24:09.903Z</time>
      </trkpt>
      <trkpt lat="45.68365710787475" lon="17.67401933670044">
        <ele>155.64</ele>
        <time>2023-10-16T23:24:15.352Z</time>
      </trkpt>
      <trkpt lat="45.68365082144737" lon="17.674047080799937">
        <ele>155.67</ele>
        <time>2023-10-16T23:24:20.801Z</time>
      </trkpt>
      <trkpt lat="45.6836442835629" lon="17.674076166003942">
        <ele>155.71</ele>
        <time>2023-10-16T23:24:26.251Z</time>
      </trkpt>
      <trkpt lat="45.6836374104023" lon="17.674105754122138">
        <ele>155.74</ele>
        <time>2023-10-16T23:24:31.702Z</time>
      </trkpt>
      <trkpt lat="45.683630369603634" lon="17.674134504050016">
        <ele>155.78</ele>
        <time>2023-10-16T23:24:37.154Z</time>
      </trkpt>
      <trkpt lat="45.683623161166906" lon="17.674162331968546">
        <ele>155.81</ele>
        <time>2023-10-16T23:24:42.606Z</time>
      </trkpt>
      <trkpt lat="45.68361603654921" lon="17.6741889026016">
        <ele>155.84</ele>
        <time>2023-10-16T23:24:48.059Z</time>
      </trkpt>
      <trkpt lat="45.683608911931515" lon="17.674214467406273">
        <ele>155.87</ele>
        <time>2023-10-16T23:24:53.513Z</time>
      </trkpt>
      <trkpt lat="45.683602038770914" lon="17.674238942563534">
        <ele>155.9</ele>
        <time>2023-10-16T23:24:58.967Z</time>
      </trkpt>
      <trkpt lat="45.68359550088644" lon="17.674262328073382">
        <ele>155.92</ele>
        <time>2023-10-16T23:25:04.422Z</time>
      </trkpt>
      <trkpt lat="45.68358921445906" lon="17.67428470775485">
        <ele>155.95</ele>
        <time>2023-10-16T23:25:09.877Z</time>
      </trkpt>
      <trkpt lat="45.68358326330781" lon="17.674306249246">
        <ele>155.98</ele>
        <time>2023-10-16T23:25:15.333Z</time>
      </trkpt>
      <trkpt lat="45.68357773125172" lon="17.674326868727803">
        <ele>156.0</ele>
        <time>2023-10-16T23:25:20.789Z</time>
      </trkpt>
      <trkpt lat="45.68357245065272" lon="17.67434681765735">
        <ele>156.02</ele>
        <time>2023-10-16T23:25:26.246Z</time>
      </trkpt>
      <trkpt lat="45.683567337691784" lon="17.674366012215614">
        <ele>156.05</ele>
        <time>2023-10-16T23:25:31.703Z</time>
      </trkpt>
      <trkpt lat="45.68356222473085" lon="17.674384703859687">
        <ele>156.06</ele>
        <time>2023-10-16T23:25:37.161Z</time>
      </trkpt>
      <trkpt lat="45.683557111769915" lon="17.674403060227633">
        <ele>156.08</ele>
        <time>2023-10-16T23:25:42.619Z</time>
      </trkpt>
      <trkpt lat="45.68355183117092" lon="17.67442108131945">
        <ele>156.09</ele>
        <time>2023-10-16T23:25:48.078Z</time>
      </trkpt>
      <trkpt lat="45.68354629911482" lon="17.674438934773207">
        <ele>156.11</ele>
        <time>2023-10-16T23:25:53.537Z</time>
      </trkpt>
      <trkpt lat="45.68354034796357" lon="17.6744566205889">
        <ele>156.12</ele>
        <time>2023-10-16T23:25:58.997Z</time>
      </trkpt>
      <trkpt lat="45.68353389389813" lon="17.674473971128464">
        <ele>156.12</ele>
        <time>2023-10-16T23:26:04.457Z</time>
      </trkpt>
      <trkpt lat="45.68352710455656" lon="17.674491237848997">
        <ele>156.13</ele>
        <time>2023-10-16T23:26:09.918Z</time>
      </trkpt>
      <trkpt lat="45.683520063757896" lon="17.674508085474372">
        <ele>156.13</ele>
        <time>2023-10-16T23:26:15.379Z</time>
      </trkpt>
      <trkpt lat="45.683512603864074" lon="17.674524765461683">
        <ele>156.13</ele>
        <time>2023-10-16T23:26:20.840Z</time>
      </trkpt>
      <trkpt lat="45.68350506015122" lon="17.6745411939919">
        <ele>156.13</ele>
        <time>2023-10-16T23:26:26.302Z</time>
      </trkpt>
      <trkpt lat="45.6834973488003" lon="17.674557454884052">
        <ele>156.13</ele>
        <time>2023-10-16T23:26:31.764Z</time>
      </trkpt>
      <trkpt lat="45.68348955363035" lon="17.67457346431911">
        <ele>156.12</ele>
        <time>2023-10-16T23:26:37.227Z</time>
      </trkpt>
      <trkpt lat="45.6834817584604" lon="17.674589306116104">
        <ele>156.12</ele>
        <time>2023-10-16T23:26:42.690Z</time>
      </trkpt>
      <trkpt lat="45.68347396329045" lon="17.674605064094067">
        <ele>156.11</ele>
        <time>2023-10-16T23:26:48.154Z</time>
      </trkpt>
      <trkpt lat="45.68346633575857" lon="17.674620570614934">
        <ele>156.1</ele>
        <time>2023-10-16T23:26:53.618Z</time>
      </trkpt>
      <trkpt lat="45.683458875864744" lon="17.674635909497738">
        <ele>156.09</ele>
        <time>2023-10-16T23:26:59.083Z</time>
      </trkpt>
      <trkpt lat="45.68345166742802" lon="17.67465108074248">
        <ele>156.08</ele>
        <time>2023-10-16T23:27:04.548Z</time>
      </trkpt>
      <trkpt lat="45.68344454281032" lon="17.674665916711092">
        <ele>156.07</ele>
        <time>2023-10-16T23:27:10.013Z</time>
      </trkpt>
      <trkpt lat="45.68343766964972" lon="17.67468041740358">
        <ele>156.05</ele>
        <time>2023-10-16T23:27:15.479Z</time>
      </trkpt>
      <trkpt lat="45.683431131765246" lon="17.674694499000907">
        <ele>156.03</ele>
        <time>2023-10-16T23:27:20.945Z</time>
      </trkpt>
      <trkpt lat="45.6834249291569" lon="17.674708077684045">
        <ele>156.02</ele>
        <time>2023-10-16T23:27:26.412Z</time>
      </trkpt>
      <trkpt lat="45.68341922946274" lon="17.67472098581493">
        <ele>156.0</ele>
        <time>2023-10-16T23:27:31.879Z</time>
      </trkpt>
      <trkpt lat="45.683413948863745" lon="17.67473330721259">
        <ele>155.98</ele>
        <time>2023-10-16T23:27:37.346Z</time>
      </trkpt>
      <trkpt lat="45.68340917117894" lon="17.67474504187703">
        <ele>155.95</ele>
        <time>2023-10-16T23:27:42.814Z</time>
      </trkpt>
      <trkpt lat="45.683404728770256" lon="17.674756441265345">
        <ele>155.93</ele>
        <time>2023-10-16T23:27:48.282Z</time>
      </trkpt>
      <trkpt lat="45.6834006216377" lon="17.6747674215585">
        <ele>155.9</ele>
        <time>2023-10-16T23:27:53.750Z</time>
      </trkpt>
      <trkpt lat="45.68339676596224" lon="17.674777982756495">
        <ele>155.88</ele>
        <time>2023-10-16T23:27:59.219Z</time>
      </trkpt>
      <trkpt lat="45.68339316174388" lon="17.6747880410403">
        <ele>155.85</ele>
        <time>2023-10-16T23:28:04.688Z</time>
      </trkpt>
      <trkpt lat="45.68338980898261" lon="17.67479768022895">
        <ele>155.82</ele>
        <time>2023-10-16T23:28:10.157Z</time>
      </trkpt>
      <trkpt lat="45.68338645622134" lon="17.674806732684374">
        <ele>155.79</ele>
        <time>2023-10-16T23:28:15.626Z</time>
      </trkpt>
      <trkpt lat="45.68338285200298" lon="17.674815533682704">
        <ele>155.76</ele>
        <time>2023-10-16T23:28:21.096Z</time>
      </trkpt>
      <trkpt lat="45.68337908014655" lon="17.674823915585876">
        <ele>155.72</ele>
        <time>2023-10-16T23:28:26.566Z</time>
      </trkpt>
      <trkpt lat="45.6833747215569" lon="17.674832213670015">
        <ele>155.69</ele>
        <time>2023-10-16T23:28:32.036Z</time>
      </trkpt>
      <trkpt lat="45.68336986005306" lon="17.67484034411609">
        <ele>155.65</ele>
        <time>2023-10-16T23:28:37.506Z</time>
      </trkpt>
      <trkpt lat="45.683364663273096" lon="17.674848474562168">
        <ele>155.62</ele>
        <time>2023-10-16T23:28:42.977Z</time>
      </trkpt>
      <trkpt lat="45.68335887975991" lon="17.674856521189213">
        <ele>155.58</ele>
        <time>2023-10-16T23:28:48.448Z</time>
      </trkpt>
      <trkpt lat="45.68335267715156" lon="17.674863981083035">
        <ele>155.54</ele>
        <time>2023-10-16T23:28:53.919Z</time>
      </trkpt>
      <trkpt lat="45.683346055448055" lon="17.674870351329446">
        <ele>155.49</ele>
        <time>2023-10-16T23:28:59.390Z</time>
      </trkpt>
      <trkpt lat="45.68333934992552" lon="17.67487496137619">
        <ele>155.45</ele>
        <time>2023-10-16T23:29:04.862Z</time>
      </trkpt>
      <trkpt lat="45.68333297967911" lon="17.674877727404237">
        <ele>155.41</ele>
        <time>2023-10-16T23:29:10.334Z</time>
      </trkpt>
      <trkpt lat="45.68332761526108" lon="17.674878649413586">
        <ele>155.36</ele>
        <time>2023-10-16T23:29:15.806Z</time>
      </trkpt>
      <trkpt lat="45.68332384340465" lon="17.674877978861332">
        <ele>155.32</ele>
        <time>2023-10-16T23:29:21.278Z</time>
      </trkpt>
      <trkpt lat="45.68332149647176" lon="17.67487596720457">
        <ele>155.27</ele>
        <time>2023-10-16T23:29:26.750Z</time>
      </trkpt>
      <trkpt lat="45.68332099355757" lon="17.674873284995556">
        <ele>155.22</ele>
        <time>2023-10-16T23:29:32.222Z</time>
      </trkpt>
      <trkpt lat="45.68332199938595" lon="17.674870183691382">
        <ele>155.18</ele>
        <time>2023-10-16T23:29:37.694Z</time>
      </trkpt>
      <trkpt lat="45.68332434631884" lon="17.674866411834955">
        <ele>155.13</ele>
        <time>2023-10-16T23:29:43.166Z</time>
      </trkpt>
      <trkpt lat="45.68332811817527" lon="17.6748623047024">
        <ele>155.08</ele>
        <time>2023-10-16T23:29:48.639Z</time>
      </trkpt>
      <trkpt lat="45.68333314731717" lon="17.674858029931784">
        <ele>155.04</ele>
        <time>2023-10-16T23:29:54.112Z</time>
      </trkpt>
      <trkpt lat="45.683339266106486" lon="17.674854258075356">
        <ele>154.99</ele>
        <time>2023-10-16T23:29:59.585Z</time>
      </trkpt>
      <trkpt lat="45.68334580399096" lon="17.674851659685373">
        <ele>154.94</ele>
        <time>2023-10-16T23:30:05.058Z</time>
      </trkpt>
      <trkpt lat="45.683352425694466" lon="17.674850234761834">
        <ele>154.9</ele>
        <time>2023-10-16T23:30:10.531Z</time>
      </trkpt>
      <trkpt lat="45.68335854448378" lon="17.674850150942802">
        <ele>154.85</ele>
        <time>2023-10-16T23:30:16.005Z</time>
      </trkpt>
      <trkpt lat="45.683363657444715" lon="17.67485107295215">
        <ele>154.8</ele>
        <time>2023-10-16T23:30:21.479Z</time>
      </trkpt>
      <trkpt lat="45.6833678483963" lon="17.674852749332786">
        <ele>154.75</ele>
        <time>2023-10-16T23:30:26.953Z</time>
      </trkpt>
      <trkpt lat="45.68337103351951" lon="17.674854593351483">
        <ele>154.7</ele>
        <time>2023-10-16T23:30:32.427Z</time>
      </trkpt>
      <trkpt lat="45.6833731289953" lon="17.674856269732118">
        <ele>154.65</ele>
        <time>2023-10-16T23:30:37.901Z</time>
      </trkpt>
      <trkpt lat="45.68337447009981" lon="17.674857946112752">
        <ele>154.6</ele>
        <time>2023-10-16T23:30:43.375Z</time>
      </trkpt>
      <trkpt lat="45.683374889194965" lon="17.67485937103629">
        <ele>154.55</ele>
        <time>2023-10-16T23:30:48.849Z</time>
      </trkpt>
      <trkpt lat="45.68337421864271" lon="17.67486037686467">
        <ele>154.5</ele>
        <time>2023-10-16T23:30:54.323Z</time>
      </trkpt>
      <trkpt lat="45.68337254226208" lon="17.674860963597894">
        <ele>154.45</ele>
        <time>2023-10-16T23:30:59.797Z</time>
      </trkpt>
      <trkpt lat="45.68337036296725" lon="17.674860963597894">
        <ele>154.4</ele>
        <time>2023-10-16T23:31:05.271Z</time>
      </trkpt>
      <trkpt lat="45.683367596939206" lon="17.67486037686467">
        <ele>154.34</ele>
        <time>2023-10-16T23:31:10.746Z</time>
      </trkpt>
      <trkpt lat="45.68336432799697" lon="17.6748588681221">
        <ele>154.29</ele>
        <time>2023-10-16T23:31:16.221Z</time>
      </trkpt>
      <trkpt lat="45.68336055614054" lon="17.67485643737018">
        <ele>154.24</ele>
        <time>2023-10-16T23:31:21.696Z</time>
      </trkpt>
      <trkpt lat="45.683356365188956" lon="17.674853252246976">
        <ele>154.18</ele>
        <time>2023-10-16T23:31:27.171Z</time>
      </trkpt>
      <trkpt lat="45.68335167132318" lon="17.67484906129539">
        <ele>154.13</ele>
        <time>2023-10-16T23:31:32.646Z</time>
      </trkpt>
      <trkpt lat="45.68334664218128" lon="17.674843864515424">
        <ele>154.08</ele>
        <time>2023-10-16T23:31:38.121Z</time>
      </trkpt>
      <trkpt lat="45.683341110125184" lon="17.674837578088045">
        <ele>154.03</ele>
        <time>2023-10-16T23:31:43.597Z</time>
      </trkpt>
      <trkpt lat="45.68333549425006" lon="17.674830202013254">
        <ele>153.98</ele>
        <time>2023-10-16T23:31:49.073Z</time>
      </trkpt>
      <trkpt lat="45.6833297945559" lon="17.674821987748146">
        <ele>153.93</ele>
        <time>2023-10-16T23:31:54.549Z</time>
      </trkpt>
      <trkpt lat="45.68332434631884" lon="17.67481343820691">
        <ele>153.88</ele>
        <time>2023-10-16T23:32:00.025Z</time>
      </trkpt>
      <trkpt lat="45.683319233357906" lon="17.674804972484708">
        <ele>153.83</ele>
        <time>2023-10-16T23:32:05.502Z</time>
      </trkpt>
      <trkpt lat="45.6833144556731" lon="17.674796925857663">
        <ele>153.78</ele>
        <time>2023-10-16T23:32:10.979Z</time>
      </trkpt>
      <trkpt lat="45.68331026472151" lon="17.674789717420936">
        <ele>153.74</ele>
        <time>2023-10-16T23:32:16.456Z</time>
      </trkpt>
      <trkpt lat="45.68330674432218" lon="17.67478351481259">
        <ele>153.69</ele>
        <time>2023-10-16T23:32:21.933Z</time>
      </trkpt>
      <trkpt lat="45.68330372683704" lon="17.67477823421359">
        <ele>153.65</ele>
        <time>2023-10-16T23:32:27.410Z</time>
      </trkpt>
      <trkpt lat="45.68330137990415" lon="17.674773959442973">
        <ele>153.61</ele>
        <time>2023-10-16T23:32:32.888Z</time>
      </trkpt>
      <trkpt lat="45.683299619704485" lon="17.674770774319768">
        <ele>153.58</ele>
        <time>2023-10-16T23:32:38.366Z</time>
      </trkpt>
      <trkpt lat="45.68329853005707" lon="17.67476884648204">
        <ele>153.54</ele>
        <time>2023-10-16T23:32:43.844Z</time>
      </trkpt>
      <trkpt lat="45.68329844623804" lon="17.67476893030107">
        <ele>153.51</ele>
        <time>2023-10-16T23:32:49.322Z</time>
      </trkpt>
      <trkpt lat="45.683299200609326" lon="17.674770690500736">
        <ele>153.48</ele>
        <time>2023-10-16T23:32:54.800Z</time>
      </trkpt>
      <trkpt lat="45.683300541713834" lon="17.674774043262005">
        <ele>153.46</ele>
        <time>2023-10-16T23:33:00.278Z</time>
      </trkpt>
      <trkpt lat="45.68330221809447" lon="17.674778904765844">
        <ele>153.44</ele>
        <time>2023-10-16T23:33:05.756Z</time>
      </trkpt>
      <trkpt lat="45.6833041459322" lon="17.67478460446">
        <ele>153.42</ele>
        <time>2023-10-16T23:33:11.234Z</time>
      </trkpt>
      <trkpt lat="45.68330607376993" lon="17.674791142344475">
        <ele>153.4</ele>
        <time>2023-10-16T23:33:16.712Z</time>
      </trkpt>
      <trkpt lat="45.68330800160766" lon="17.674797931686044">
        <ele>153.38</ele>
        <time>2023-10-16T23:33:22.190Z</time>
      </trkpt>
      <trkpt lat="45.68330976180732" lon="17.674804972484708">
        <ele>153.37</ele>
        <time>2023-10-16T23:33:27.669Z</time>
      </trkpt>
      <trkpt lat="45.68331143818796" lon="17.674812013283372">
        <ele>153.36</ele>
        <time>2023-10-16T23:33:33.148Z</time>
      </trkpt>
      <trkpt lat="45.68331303074956" lon="17.674819054082036">
        <ele>153.35</ele>
        <time>2023-10-16T23:33:38.627Z</time>
      </trkpt>
      <trkpt lat="45.6833144556731" lon="17.674825927242637">
        <ele>153.34</ele>
        <time>2023-10-16T23:33:44.106Z</time>
      </trkpt>
      <trkpt lat="45.68331562913954" lon="17.67483196221292">
        <ele>153.34</ele>
        <time>2023-10-16T23:33:49.585Z</time>
      </trkpt>
      <trkpt lat="45.68331646732986" lon="17.674837158992887">
        <ele>153.34</ele>
        <time>2023-10-16T23:33:55.064Z</time>
      </trkpt>
      <trkpt lat="45.68331705406308" lon="17.674841433763504">
        <ele>153.34</ele>
        <time>2023-10-16T23:34:00.544Z</time>
      </trkpt>
      <trkpt lat="45.68331755697727" lon="17.674844535067677">
        <ele>153.34</ele>
        <time>2023-10-16T23:34:06.024Z</time>
      </trkpt>
      <trkpt lat="45.68331780843437" lon="17.674846965819597">
        <ele>153.35</ele>
        <time>2023-10-16T23:34:11.504Z</time>
      </trkpt>
      <trkpt lat="45.68331780843437" lon="17.67484864220023">
        <ele>153.36</ele>
        <time>2023-10-16T23:34:16.984Z</time>
      </trkpt>
      <trkpt lat="45.68331780843437" lon="17.674849899485707">
        <ele>153.37</ele>
        <time>2023-10-16T23:34:22.464Z</time>
      </trkpt>
      <trkpt lat="45.683317724615335" lon="17.674850905314088">
        <ele>153.38</ele>
        <time>2023-10-16T23:34:27.944Z</time>
      </trkpt>
      <trkpt lat="45.68331755697727" lon="17.67485157586634">
        <ele>153.39</ele>
        <time>2023-10-16T23:34:33.424Z</time>
      </trkpt>
      <trkpt lat="45.68331738933921" lon="17.674852162599564">
        <ele>153.41</ele>
        <time>2023-10-16T23:34:38.904Z</time>
      </trkpt>
      <trkpt lat="45.68331705406308" lon="17.674852581694722">
        <ele>153.43</ele>
        <time>2023-10-16T23:34:44.384Z</time>
      </trkpt>
      <trkpt lat="45.683316718786955" lon="17.674852833151817">
        <ele>153.46</ele>
        <time>2023-10-16T23:34:49.864Z</time>
      </trkpt>
      <trkpt lat="45.683316299691796" lon="17.674853084608912">
        <ele>153.48</ele>
        <time>2023-10-16T23:34:55.344Z</time>
      </trkpt>
      <trkpt lat="45.683315796777606" lon="17.674853252246976">
        <ele>153.51</ele>
        <time>2023-10-16T23:35:00.824Z</time>
      </trkpt>
      <trkpt lat="45.683315293863416" lon="17.674853252246976">
        <ele>153.54</ele>
        <time>2023-10-16T23:35:06.304Z</time>
      </trkpt>
      <trkpt lat="45.68331487476826" lon="17.674853336066008">
        <ele>153.58</ele>
        <time>2023-10-16T23:35:11.784Z</time>
      </trkpt>
      <trkpt lat="45.68331453949213" lon="17.674853252246976">
        <ele>153.61</ele>
        <time>2023-10-16T23:35:17.264Z</time>
      </trkpt>
      <trkpt lat="45.683314288035035" lon="17.674853252246976">
        <ele>153.65</ele>
        <time>2023-10-16T23:35:22.744Z</time>
      </trkpt>
      <trkpt lat="45.68331412039697" lon="17.674853168427944">
        <ele>153.7</ele>
        <time>2023-10-16T23:35:28.224Z</time>
      </trkpt>
      <trkpt lat="45.68331412039697" lon="17.674853084608912">
        <ele>153.74</ele>
        <time>2023-10-16T23:35:33.704Z</time>
      </trkpt>
      <trkpt lat="45.68331412039697" lon="17.67485300078988">
        <ele>153.79</ele>
        <time>2023-10-16T23:35:39.184Z</time>
      </trkpt>
      <trkpt lat="45.683314288035035" lon="17.67485300078988">
        <ele>153.85</ele>
        <time>2023-10-16T23:35:44.664Z</time>
      </trkpt>
      <trkpt lat="45.6833144556731" lon="17.674853084608912">
        <ele>153.9</ele>
        <time>2023-10-16T23:35:50.144Z</time>
      </trkpt>
      <trkpt lat="45.68331462331116" lon="17.674853252246976">
        <ele>153.96</ele>
        <time>2023-10-16T23:35:55.624Z</time>
      </trkpt>
      <trkpt lat="45.68331487476826" lon="17.67485350370407">
        <ele>154.02</ele>
        <time>2023-10-16T23:36:01.104Z</time>
      </trkpt>
      <trkpt lat="45.68331512622535" lon="17.674853755161166">
        <ele>154.08</ele>
        <time>2023-10-16T23:36:06.584Z</time>
      </trkpt>
      <trkpt lat="45.68331537768245" lon="17.674854090437293">
        <ele>154.15</ele>
        <time>2023-10-16T23:36:12.064Z</time>
      </trkpt>
      <trkpt lat="45.68331562913954" lon="17.674854341894388">
        <ele>154.22</ele>
        <time>2023-10-16T23:36:17.544Z</time>
      </trkpt>
      <trkpt lat="45.68331588059664" lon="17.674854677170515">
        <ele>154.29</ele>
        <time>2023-10-16T23:36:23.024Z</time>
      </trkpt>
      <trkpt lat="45.68331613205373" lon="17.67485492862761">
        <ele>154.37</ele>
        <time>2023-10-16T23:36:28.504Z</time>
      </trkpt>
      <trkpt lat="45.68331638351083" lon="17.674855263903737">
        <ele>154.45</ele>
        <time>2023-10-16T23:36:33.984Z</time>
      </trkpt>
      <trkpt lat="45.68331663496792" lon="17.674855599179864">
        <ele>154.53</ele>
        <time>2023-10-16T23:36:39.464Z</time>
      </trkpt>
      <trkpt lat="45.68331705406308" lon="17.674856185913086">
        <ele>154.61</ele>
        <time>2023-10-16T23:36:44.944Z</time>
      </trkpt>
      <trkpt lat="45.6833178922534" lon="17.674857191741467">
        <ele>154.7</ele>
        <time>2023-10-16T23:36:50.424Z</time>
      </trkpt>
      <trkpt lat="45.68331931717694" lon="17.67485878430307">
        <ele>154.79</ele>
        <time>2023-10-16T23:36:55.904Z</time>
      </trkpt>
      <trkpt lat="45.683321161195636" lon="17.674860879778862">
        <ele>154.88</ele>
        <time>2023-10-16T23:37:01.384Z</time>
      </trkpt>
      <trkpt lat="45.68332375958562" lon="17.674863561987877">
        <ele>154.97</ele>
        <time>2023-10-16T23:37:06.864Z</time>
      </trkpt>
      <trkpt lat="45.68332711234689" lon="17.674866914749146">
        <ele>155.07</ele>
        <time>2023-10-16T23:37:12.344Z</time>
      </trkpt>
      <trkpt lat="45.68333121947944" lon="17.6748710218817">
        <ele>155.17</ele>
        <time>2023-10-16T23:37:17.825Z</time>
      </trkpt>
      <trkpt lat="45.68333608098328" lon="17.674875799566507">
        <ele>155.27</ele>
        <time>2023-10-16T23:37:23.306Z</time>
      </trkpt>
      <trkpt lat="45.68334144540131" lon="17.674880996346474">
        <ele>155.38</ele>
        <time>2023-10-16T23:37:28.787Z</time>
      </trkpt>
      <trkpt lat="45.6833472289145" lon="17.674886444583535">
        <ele>155.49</ele>
        <time>2023-10-16T23:37:34.268Z</time>
      </trkpt>
      <trkpt lat="45.68335318006575" lon="17.67489197663963">
        <ele>155.6</ele>
        <time>2023-10-16T23:37:39.749Z</time>
      </trkpt>
      <trkpt lat="45.68335946649313" lon="17.674897341057658">
        <ele>155.71</ele>
        <time>2023-10-16T23:37:45.231Z</time>
      </trkpt>
      <trkpt lat="45.683365585282445" lon="17.67490228638053">
        <ele>155.83</ele>
        <time>2023-10-16T23:37:50.713Z</time>
      </trkpt>
      <trkpt lat="45.683371452614665" lon="17.67490664497018">
        <ele>155.94</ele>
        <time>2023-10-16T23:37:56.195Z</time>
      </trkpt>
      <trkpt lat="45.68337698467076" lon="17.674910500645638">
        <ele>156.06</ele>
        <time>2023-10-16T23:38:01.677Z</time>
      </trkpt>
      <trkpt lat="45.68338209763169" lon="17.674913853406906">
        <ele>156.17</ele>
        <time>2023-10-16T23:38:07.160Z</time>
      </trkpt>
      <trkpt lat="45.683386623859406" lon="17.674916703253984">
        <ele>156.29</ele>
        <time>2023-10-16T23:38:12.643Z</time>
      </trkpt>
      <trkpt lat="45.683390563353896" lon="17.67491896636784">
        <ele>156.41</ele>
        <time>2023-10-16T23:38:18.126Z</time>
      </trkpt>
      <trkpt lat="45.6833939999342" lon="17.674920978024602">
        <ele>156.53</ele>
        <time>2023-10-16T23:38:23.609Z</time>
      </trkpt>
      <trkpt lat="45.68339701741934" lon="17.67492290586233">
        <ele>156.65</ele>
        <time>2023-10-16T23:38:29.092Z</time>
      </trkpt>
      <trkpt lat="45.68339995108545" lon="17.674925001338124">
        <ele>156.78</ele>
        <time>2023-10-16T23:38:34.575Z</time>
      </trkpt>
      <trkpt lat="45.68340280093253" lon="17.674927515909076">
        <ele>156.9</ele>
        <time>2023-10-16T23:38:40.058Z</time>
      </trkpt>
      <trkpt lat="45.68340573459864" lon="17.67493070103228">
        <ele>157.02</ele>
        <time>2023-10-16T23:38:45.541Z</time>
      </trkpt>
      <trkpt lat="45.683408584445715" lon="17.674934472888708">
        <ele>157.15</ele>
        <time>2023-10-16T23:38:51.025Z</time>
      </trkpt>
      <trkpt lat="45.683411518111825" lon="17.67493891529739">
        <ele>157.27</ele>
        <time>2023-10-16T23:38:56.509Z</time>
      </trkpt>
      <trkpt lat="45.68341453559697" lon="17.674944195896387">
        <ele>157.4</ele>
        <time>2023-10-16T23:39:01.993Z</time>
      </trkpt>
      <trkpt lat="45.68341772072017" lon="17.674950314685702">
        <ele>157.52</ele>
        <time>2023-10-16T23:39:07.477Z</time>
      </trkpt>
      <trkpt lat="45.68342098966241" lon="17.674957187846303">
        <ele>157.65</ele>
        <time>2023-10-16T23:39:12.961Z</time>
      </trkpt>
      <trkpt lat="45.683424258604646" lon="17.674964563921094">
        <ele>157.77</ele>
        <time>2023-10-16T23:39:18.445Z</time>
      </trkpt>
      <trkpt lat="45.68342752754688" lon="17.674972442910075">
        <ele>157.9</ele>
        <time>2023-10-16T23:39:23.930Z</time>
      </trkpt>
      <trkpt lat="45.68343096412718" lon="17.674980740994215">
        <ele>158.02</ele>
        <time>2023-10-16T23:39:29.415Z</time>
      </trkpt>
      <trkpt lat="45.68343423306942" lon="17.67498937435448">
        <ele>158.15</ele>
        <time>2023-10-16T23:39:34.900Z</time>
      </trkpt>
      <trkpt lat="45.68343750201166" lon="17.674997756257653">
        <ele>158.27</ele>
        <time>2023-10-16T23:39:40.385Z</time>
      </trkpt>
      <trkpt lat="45.68344060331583" lon="17.67500588670373">
        <ele>158.4</ele>
        <time>2023-10-16T23:39:45.871Z</time>
      </trkpt>
      <trkpt lat="45.68344353698194" lon="17.67501376569271">
        <ele>158.52</ele>
        <time>2023-10-16T23:39:51.357Z</time>
      </trkpt>
      <trkpt lat="45.68344630300999" lon="17.675021225586534">
        <ele>158.64</ele>
        <time>2023-10-16T23:39:56.843Z</time>
      </trkpt>
      <trkpt lat="45.68344873376191" lon="17.675028182566166">
        <ele>158.77</ele>
        <time>2023-10-16T23:40:02.329Z</time>
      </trkpt>
      <trkpt lat="45.6834508292377" lon="17.675034888088703">
        <ele>158.89</ele>
        <time>2023-10-16T23:40:07.815Z</time>
      </trkpt>
      <trkpt lat="45.683452589437366" lon="17.675041425973177">
        <ele>159.0</ele>
        <time>2023-10-16T23:40:13.302Z</time>
      </trkpt>
      <trkpt lat="45.68345418199897" lon="17.675048131495714">
        <ele>159.12</ele>
        <time>2023-10-16T23:40:18.789Z</time>
      </trkpt>
      <trkpt lat="45.683455523103476" lon="17.67505483701825">
        <ele>159.24</ele>
        <time>2023-10-16T23:40:24.276Z</time>
      </trkpt>
      <trkpt lat="45.68345678038895" lon="17.67506162635982">
        <ele>159.35</ele>
        <time>2023-10-16T23:40:29.763Z</time>
      </trkpt>
      <trkpt lat="45.68345803767443" lon="17.675068667158484">
        <ele>159.46</ele>
        <time>2023-10-16T23:40:35.250Z</time>
      </trkpt>
      <trkpt lat="45.683459378778934" lon="17.67507629469037">
        <ele>159.57</ele>
        <time>2023-10-16T23:40:40.737Z</time>
      </trkpt>
      <trkpt lat="45.683460803702474" lon="17.675084425136447">
        <ele>159.68</ele>
        <time>2023-10-16T23:40:46.225Z</time>
      </trkpt>
      <trkpt lat="45.68346248008311" lon="17.67509330995381">
        <ele>159.79</ele>
        <time>2023-10-16T23:40:51.713Z</time>
      </trkpt>
      <trkpt lat="45.68346449173987" lon="17.67510261386633">
        <ele>159.9</ele>
        <time>2023-10-16T23:40:57.201Z</time>
      </trkpt>
      <trkpt lat="45.683466754853725" lon="17.67511242069304">
        <ele>160.0</ele>
        <time>2023-10-16T23:41:02.689Z</time>
      </trkpt>
      <trkpt lat="45.68346935324371" lon="17.675122562795877">
        <ele>160.11</ele>
        <time>2023-10-16T23:41:08.177Z</time>
      </trkpt>
      <trkpt lat="45.68347228690982" lon="17.67513295635581">
        <ele>160.21</ele>
        <time>2023-10-16T23:41:13.666Z</time>
      </trkpt>
      <trkpt lat="45.683475472033024" lon="17.675143433734775">
        <ele>160.31</ele>
        <time>2023-10-16T23:41:19.155Z</time>
      </trkpt>
      <trkpt lat="45.68347882479429" lon="17.67515399493277">
        <ele>160.41</ele>
        <time>2023-10-16T23:41:24.644Z</time>
      </trkpt>
      <trkpt lat="45.68348217755556" lon="17.6751646399498">
        <ele>160.5</ele>
        <time>2023-10-16T23:41:30.134Z</time>
      </trkpt>
      <trkpt lat="45.68348553031683" lon="17.675175201147795">
        <ele>160.6</ele>
        <time>2023-10-16T23:41:35.624Z</time>
      </trkpt>
      <trkpt lat="45.683488631621" lon="17.67518567852676">
        <ele>160.69</ele>
        <time>2023-10-16T23:41:41.114Z</time>
      </trkpt>
      <trkpt lat="45.68349148146808" lon="17.675196155905724">
        <ele>160.78</ele>
        <time>2023-10-16T23:41:46.604Z</time>
      </trkpt>
      <trkpt lat="45.683494079858065" lon="17.675206381827593">
        <ele>160.87</ele>
        <time>2023-10-16T23:41:52.095Z</time>
      </trkpt>
      <trkpt lat="45.683496594429016" lon="17.675216691568494">
        <ele>160.95</ele>
        <time>2023-10-16T23:41:57.586Z</time>
      </trkpt>
      <trkpt lat="45.683498941361904" lon="17.67522683367133">
        <ele>161.03</ele>
        <time>2023-10-16T23:42:03.077Z</time>
      </trkpt>
      <trkpt lat="45.68350120447576" lon="17.675236724317074">
        <ele>161.11</ele>
        <time>2023-10-16T23:42:08.568Z</time>
      </trkpt>
      <trkpt lat="45.68350329995155" lon="17.675246028229594">
        <ele>161.19</ele>
        <time>2023-10-16T23:42:14.060Z</time>
      </trkpt>
      <trkpt lat="45.68350522778928" lon="17.67525457777083">
        <ele>161.27</ele>
        <time>2023-10-16T23:42:19.552Z</time>
      </trkpt>
      <trkpt lat="45.68350707180798" lon="17.675262540578842">
        <ele>161.34</ele>
        <time>2023-10-16T23:42:25.044Z</time>
      </trkpt>
      <trkpt lat="45.683508748188615" lon="17.67526974901557">
        <ele>161.41</ele>
        <time>2023-10-16T23:42:30.536Z</time>
      </trkpt>
      <trkpt lat="45.68351034075022" lon="17.67527611926198">
        <ele>161.48</ele>
        <time>2023-10-16T23:42:36.028Z</time>
      </trkpt>
      <trkpt lat="45.68351184949279" lon="17.67528156749904">
        <ele>161.55</ele>
        <time>2023-10-16T23:42:41.520Z</time>
      </trkpt>
      <trkpt lat="45.683513190597296" lon="17.675286177545786">
        <ele>161.61</ele>
        <time>2023-10-16T23:42:47.013Z</time>
      </trkpt>
      <trkpt lat="45.6835145317018" lon="17.67528986558318">
        <ele>161.67</ele>
        <time>2023-10-16T23:42:52.506Z</time>
      </trkpt>
      <trkpt lat="45.683515537530184" lon="17.67529271543026">
        <ele>161.73</ele>
        <time>2023-10-16T23:42:57.999Z</time>
      </trkpt>
      <trkpt lat="45.6835163757205" lon="17.67529472708702">
        <ele>161.79</ele>
        <time>2023-10-16T23:43:03.492Z</time>
      </trkpt>
      <trkpt lat="45.68351696245372" lon="17.67529615201056">
        <ele>161.84</ele>
        <time>2023-10-16T23:43:08.985Z</time>
      </trkpt>
      <trkpt lat="45.68351746536791" lon="17.675296990200877">
        <ele>161.9</ele>
        <time>2023-10-16T23:43:14.478Z</time>
      </trkpt>
      <trkpt lat="45.68351788446307" lon="17.675297409296036">
        <ele>161.95</ele>
        <time>2023-10-16T23:43:19.971Z</time>
      </trkpt>
      <trkpt lat="45.68351838737726" lon="17.6752975769341">
        <ele>162.0</ele>
        <time>2023-10-16T23:43:25.464Z</time>
      </trkpt>
      <trkpt lat="45.68351889029145" lon="17.6752975769341">
        <ele>162.05</ele>
        <time>2023-10-16T23:43:30.957Z</time>
      </trkpt>
      <trkpt lat="45.68351939320564" lon="17.675297409296036">
        <ele>162.1</ele>
        <time>2023-10-16T23:43:36.450Z</time>
      </trkpt>
      <trkpt lat="45.68351989611983" lon="17.675297241657972">
        <ele>162.14</ele>
        <time>2023-10-16T23:43:41.943Z</time>
      </trkpt>
      <trkpt lat="45.68352039903402" lon="17.67529707401991">
        <ele>162.19</ele>
        <time>2023-10-16T23:43:47.436Z</time>
      </trkpt>
      <trkpt lat="45.683520901948214" lon="17.675296990200877">
        <ele>162.23</ele>
        <time>2023-10-16T23:43:52.929Z</time>
      </trkpt>
      <trkpt lat="45.68352132104337" lon="17.675296906381845">
        <ele>162.28</ele>
        <time>2023-10-16T23:43:58.422Z</time>
      </trkpt>
      <trkpt lat="45.68352174013853" lon="17.675296990200877">
        <ele>162.32</ele>
        <time>2023-10-16T23:44:03.915Z</time>
      </trkpt>
      <trkpt lat="45.68352215923369" lon="17.67529766075313">
        <ele>162.36</ele>
        <time>2023-10-16T23:44:09.408Z</time>
      </trkpt>
      <trkpt lat="45.683522494509816" lon="17.675299169495702">
        <ele>162.4</ele>
        <time>2023-10-16T23:44:14.901Z</time>
      </trkpt>
      <trkpt lat="45.68352266214788" lon="17.675301684066653">
        <ele>162.44</ele>
        <time>2023-10-16T23:44:20.394Z</time>
      </trkpt>
      <trkpt lat="45.68352282978594" lon="17.675304701551795">
        <ele>162.48</ele>
        <time>2023-10-16T23:44:25.887Z</time>
      </trkpt>
      <trkpt lat="45.683522913604975" lon="17.67530838958919">
        <ele>162.52</ele>
        <time>2023-10-16T23:44:31.380Z</time>
      </trkpt>
      <trkpt lat="45.68352282978594" lon="17.675312496721745">
        <ele>162.56</ele>
        <time>2023-10-16T23:44:36.873Z</time>
      </trkpt>
      <trkpt lat="45.68352274596691" lon="17.675316855311394">
        <ele>162.61</ele>
        <time>2023-10-16T23:44:42.367Z</time>
      </trkpt>
      <trkpt lat="45.68352266214788" lon="17.675321381539106">
        <ele>162.65</ele>
        <time>2023-10-16T23:44:47.861Z</time>
      </trkpt>
      <trkpt lat="45.683522494509816" lon="17.675326075404882">
        <ele>162.69</ele>
        <time>2023-10-16T23:44:53.355Z</time>
      </trkpt>
      <trkpt lat="45.683522410690784" lon="17.675330936908722">
        <ele>162.73</ele>
        <time>2023-10-16T23:44:58.849Z</time>
      </trkpt>
      <trkpt lat="45.68352232687175" lon="17.67533579841256">
        <ele>162.77</ele>
        <time>2023-10-16T23:45:04.343Z</time>
      </trkpt>
      <trkpt lat="45.68352215923369" lon="17.67534015700221">
        <ele>162.81</ele>
        <time>2023-10-16T23:45:09.837Z</time>
      </trkpt>
      <trkpt lat="45.68352207541466" lon="17.675343761220574">
        <ele>162.86</ele>
        <time>2023-10-16T23:45:15.331Z</time>
      </trkpt>
      <trkpt lat="45.683521991595626" lon="17.67534652724862">
        <ele>162.9</ele>
        <time>2023-10-16T23:45:20.825Z</time>
      </trkpt>
      <trkpt lat="45.683521907776594" lon="17.675348790362477">
        <ele>162.95</ele>
        <time>2023-10-16T23:45:26.319Z</time>
      </trkpt>
      <trkpt lat="45.68352182395756" lon="17.67535046674311">
        <ele>163.0</ele>
        <time>2023-10-16T23:45:31.813Z</time>
      </trkpt>
      <trkpt lat="45.68352182395756" lon="17.67535189166665">
        <ele>163.04</ele>
        <time>2023-10-16T23:45:37.307Z</time>
      </trkpt>
      <trkpt lat="45.68352182395756" lon="17.67535331659019">
        <ele>163.09</ele>
        <time>2023-10-16T23:45:42.801Z</time>
      </trkpt>
      <trkpt lat="45.68352207541466" lon="17.67535524442792">
        <ele>163.15</ele>
        <time>2023-10-16T23:45:48.295Z</time>
      </trkpt>
      <trkpt lat="45.683522410690784" lon="17.67535775899887">
        <ele>163.2</ele>
        <time>2023-10-16T23:45:53.789Z</time>
      </trkpt>
      <trkpt lat="45.683522913604975" lon="17.675361279398203">
        <ele>163.26</ele>
        <time>2023-10-16T23:45:59.284Z</time>
      </trkpt>
      <trkpt lat="45.68352358415723" lon="17.67536547034979">
        <ele>163.31</ele>
        <time>2023-10-16T23:46:04.779Z</time>
      </trkpt>
      <trkpt lat="45.68352450616658" lon="17.675370667129755">
        <ele>163.37</ele>
        <time>2023-10-16T23:46:10.274Z</time>
      </trkpt>
      <trkpt lat="45.68352567963302" lon="17.675376869738102">
        <ele>163.44</ele>
        <time>2023-10-16T23:46:15.769Z</time>
      </trkpt>
      <trkpt lat="45.68352718837559" lon="17.675383994355798">
        <ele>163.5</ele>
        <time>2023-10-16T23:46:21.264Z</time>
      </trkpt>
      <trkpt lat="45.68352911621332" lon="17.675392040982842">
        <ele>163.57</ele>
        <time>2023-10-16T23:46:26.759Z</time>
      </trkpt>
      <trkpt lat="45.683531295508146" lon="17.675400925800204">
        <ele>163.64</ele>
        <time>2023-10-16T23:46:32.255Z</time>
      </trkpt>
      <trkpt lat="45.6835338100791" lon="17.67541056498885">
        <ele>163.72</ele>
        <time>2023-10-16T23:46:37.751Z</time>
      </trkpt>
      <trkpt lat="45.68353640846908" lon="17.675420455634594">
        <ele>163.79</ele>
        <time>2023-10-16T23:46:43.247Z</time>
      </trkpt>
      <trkpt lat="45.68353917449713" lon="17.675430262461305">
        <ele>163.87</ele>
        <time>2023-10-16T23:46:48.743Z</time>
      </trkpt>
      <trkpt lat="45.683541940525174" lon="17.67543973401189">
        <ele>163.95</ele>
        <time>2023-10-16T23:46:54.239Z</time>
      </trkpt>
      <trkpt lat="45.68354479037225" lon="17.675448786467314">
        <ele>164.04</ele>
        <time>2023-10-16T23:46:59.736Z</time>
      </trkpt>
      <trkpt lat="45.683547891676426" lon="17.675457587465644">
        <ele>164.13</ele>
        <time>2023-10-16T23:47:05.233Z</time>
      </trkpt>
      <trkpt lat="45.683551328256726" lon="17.675465969368815">
        <ele>164.22</ele>
        <time>2023-10-16T23:47:10.730Z</time>
      </trkpt>
      <trkpt lat="45.683555183932185" lon="17.67547393217683">
        <ele>164.31</ele>
        <time>2023-10-16T23:47:16.227Z</time>
      </trkpt>
      <trkpt lat="45.683559626340866" lon="17.675481727346778">
        <ele>164.41</ele>
        <time>2023-10-16T23:47:21.725Z</time>
      </trkpt>
      <trkpt lat="45.6835647393018" lon="17.675489271059632">
        <ele>164.51</ele>
        <time>2023-10-16T23:47:27.223Z</time>
      </trkpt>
      <trkpt lat="45.68357060663402" lon="17.675496647134423">
        <ele>164.61</ele>
        <time>2023-10-16T23:47:32.721Z</time>
      </trkpt>
      <trkpt lat="45.683577228337526" lon="17.675503939390182">
        <ele>164.72</ele>
        <time>2023-10-16T23:47:38.219Z</time>
      </trkpt>
      <trkpt lat="45.68358477205038" lon="17.675511315464973">
        <ele>164.83</ele>
        <time>2023-10-16T23:47:43.718Z</time>
      </trkpt>
      <trkpt lat="45.68359340541065" lon="17.67551894299686">
        <ele>164.95</ele>
        <time>2023-10-16T23:47:49.217Z</time>
      </trkpt>
      <trkpt lat="45.68360270932317" lon="17.675526570528746">
        <ele>165.07</ele>
        <time>2023-10-16T23:47:54.716Z</time>
      </trkpt>
      <trkpt lat="45.683612851426005" lon="17.67553419806063">
        <ele>165.19</ele>
        <time>2023-10-16T23:48:00.216Z</time>
      </trkpt>
      <trkpt lat="45.6836236640811" lon="17.675541741773486">
        <ele>165.32</ele>
        <time>2023-10-16T23:48:05.716Z</time>
      </trkpt>
      <trkpt lat="45.68363489583135" lon="17.675549034029245">
        <ele>165.44</ele>
        <time>2023-10-16T23:48:11.217Z</time>
      </trkpt>
      <trkpt lat="45.68364629521966" lon="17.675555907189846">
        <ele>165.58</ele>
        <time>2023-10-16T23:48:16.718Z</time>
      </trkpt>
      <trkpt lat="45.68365786224604" lon="17.675562109798193">
        <ele>165.71</ele>
        <time>2023-10-16T23:48:22.219Z</time>
      </trkpt>
      <trkpt lat="45.68366942927241" lon="17.675567725673318">
        <ele>165.85</ele>
        <time>2023-10-16T23:48:27.721Z</time>
      </trkpt>
      <trkpt lat="45.68368099629879" lon="17.67557267099619">
        <ele>165.99</ele>
        <time>2023-10-16T23:48:33.223Z</time>
      </trkpt>
      <trkpt lat="45.683692479506135" lon="17.67557702958584">
        <ele>166.13</ele>
        <time>2023-10-16T23:48:38.726Z</time>
      </trkpt>
      <trkpt lat="45.68370404653251" lon="17.675580633804202">
        <ele>166.28</ele>
        <time>2023-10-16T23:48:44.229Z</time>
      </trkpt>
      <trkpt lat="45.68371561355889" lon="17.675583735108376">
        <ele>166.43</ele>
        <time>2023-10-16T23:48:49.732Z</time>
      </trkpt>
      <trkpt lat="45.68372734822333" lon="17.67558641731739">
        <ele>166.58</ele>
        <time>2023-10-16T23:48:55.236Z</time>
      </trkpt>
      <trkpt lat="45.6837391667068" lon="17.67558884806931">
        <ele>166.73</ele>
        <time>2023-10-16T23:49:00.740Z</time>
      </trkpt>
      <trkpt lat="45.68375098519027" lon="17.675591027364135">
        <ele>166.89</ele>
        <time>2023-10-16T23:49:06.245Z</time>
      </trkpt>
      <trkpt lat="45.68376305513084" lon="17.67559329047799">
        <ele>167.05</ele>
        <time>2023-10-16T23:49:11.750Z</time>
      </trkpt>
      <trkpt lat="45.68377520889044" lon="17.67559563741088">
        <ele>167.22</ele>
        <time>2023-10-16T23:49:17.255Z</time>
      </trkpt>
      <trkpt lat="45.6837875302881" lon="17.67559815198183">
        <ele>167.38</ele>
        <time>2023-10-16T23:49:22.761Z</time>
      </trkpt>
      <trkpt lat="45.68379985168576" lon="17.675600834190845">
        <ele>167.55</ele>
        <time>2023-10-16T23:49:28.267Z</time>
      </trkpt>
      <trkpt lat="45.68381234072149" lon="17.67560351639986">
        <ele>167.73</ele>
        <time>2023-10-16T23:49:33.774Z</time>
      </trkpt>
      <trkpt lat="45.68382457830012" lon="17.675606030970812">
        <ele>167.9</ele>
        <time>2023-10-16T23:49:39.281Z</time>
      </trkpt>
      <trkpt lat="45.683836648240685" lon="17.675608294084668">
        <ele>168.08</ele>
        <time>2023-10-16T23:49:44.789Z</time>
      </trkpt>
      <trkpt lat="45.683848299086094" lon="17.675610054284334">
        <ele>168.26</ele>
        <time>2023-10-16T23:49:50.297Z</time>
      </trkpt>
      <trkpt lat="45.683859614655375" lon="17.675611227750778">
        <ele>168.44</ele>
        <time>2023-10-16T23:49:55.805Z</time>
      </trkpt>
      <trkpt lat="45.6838705111295" lon="17.675611646845937">
        <ele>168.63</ele>
        <time>2023-10-16T23:50:01.314Z</time>
      </trkpt>
      <trkpt lat="45.683881072327495" lon="17.675611060112715">
        <ele>168.81</ele>
        <time>2023-10-16T23:50:06.823Z</time>
      </trkpt>
      <trkpt lat="45.6838911306113" lon="17.67560938373208">
        <ele>169.01</ele>
        <time>2023-10-16T23:50:12.332Z</time>
      </trkpt>
      <trkpt lat="45.68390093743801" lon="17.67560645006597">
        <ele>169.2</ele>
        <time>2023-10-16T23:50:17.842Z</time>
      </trkpt>
      <trkpt lat="45.68391032516956" lon="17.675602426752448">
        <ele>169.4</ele>
        <time>2023-10-16T23:50:23.352Z</time>
      </trkpt>
      <trkpt lat="45.683919209986925" lon="17.675597481429577">
        <ele>169.59</ele>
        <time>2023-10-16T23:50:28.862Z</time>
      </trkpt>
      <trkpt lat="45.68392775952816" lon="17.67559169791639">
        <ele>169.79</ele>
        <time>2023-10-16T23:50:34.373Z</time>
      </trkpt>
      <trkpt lat="45.68393597379327" lon="17.675585160031915">
        <ele>170.0</ele>
        <time>2023-10-16T23:50:39.884Z</time>
      </trkpt>
      <trkpt lat="45.68394385278225" lon="17.67557811923325">
        <ele>170.21</ele>
        <time>2023-10-16T23:50:45.395Z</time>
      </trkpt>
      <trkpt lat="45.683951480314136" lon="17.675570491701365">
        <ele>170.42</ele>
        <time>2023-10-16T23:50:50.907Z</time>
      </trkpt>
      <trkpt lat="45.683958772569895" lon="17.67556252889335">
        <ele>170.63</ele>
        <time>2023-10-16T23:50:56.419Z</time>
      </trkpt>
      <trkpt lat="45.683965561911464" lon="17.675554482266307">
        <ele>170.84</ele>
        <time>2023-10-16T23:51:01.931Z</time>
      </trkpt>
      <trkpt lat="45.683972015976906" lon="17.675546519458294">
        <ele>171.06</ele>
        <time>2023-10-16T23:51:07.443Z</time>
      </trkpt>
      <trkpt lat="45.683977883309126" lon="17.67553897574544">
        <ele>171.28</ele>
        <time>2023-10-16T23:51:12.956Z</time>
      </trkpt>
      <trkpt lat="45.683983247727156" lon="17.675531851127744">
        <ele>171.5</ele>
        <time>2023-10-16T23:51:18.469Z</time>
      </trkpt>
      <trkpt lat="45.68398794159293" lon="17.6755253970623">
        <ele>171.72</ele>
        <time>2023-10-16T23:51:23.982Z</time>
      </trkpt>
      <trkpt lat="45.683992048725486" lon="17.675519613549113">
        <ele>171.95</ele>
        <time>2023-10-16T23:51:29.495Z</time>
      </trkpt>
      <trkpt lat="45.683995485305786" lon="17.67551450058818">
        <ele>172.17</ele>
        <time>2023-10-16T23:51:35.009Z</time>
      </trkpt>
      <trkpt lat="45.6839981675148" lon="17.67551014199853">
        <ele>172.4</ele>
        <time>2023-10-16T23:51:40.523Z</time>
      </trkpt>
      <trkpt lat="45.684000346809626" lon="17.675506370142102">
        <ele>172.63</ele>
        <time>2023-10-16T23:51:46.037Z</time>
      </trkpt>
      <trkpt lat="45.6840018555522" lon="17.675503436475992">
        <ele>172.86</ele>
        <time>2023-10-16T23:51:51.551Z</time>
      </trkpt>
      <trkpt lat="45.68400302901864" lon="17.675501089543104">
        <ele>173.09</ele>
        <time>2023-10-16T23:51:57.065Z</time>
      </trkpt>
      <trkpt lat="45.684003783389926" lon="17.675499329343438">
        <ele>173.33</ele>
        <time>2023-10-16T23:52:02.579Z</time>
      </trkpt>
      <trkpt lat="45.68400445394218" lon="17.675497820600867">
        <ele>173.56</ele>
        <time>2023-10-16T23:52:08.093Z</time>
      </trkpt>
      <trkpt lat="45.68400495685637" lon="17.67549647949636">
        <ele>173.8</ele>
        <time>2023-10-16T23:52:13.607Z</time>
      </trkpt>
      <trkpt lat="45.68400579504669" lon="17.67549497075379">
        <ele>174.04</ele>
        <time>2023-10-16T23:52:19.121Z</time>
      </trkpt>
      <trkpt lat="45.68400705233216" lon="17.675493210554123">
        <ele>174.28</ele>
        <time>2023-10-16T23:52:24.635Z</time>
      </trkpt>
      <trkpt lat="45.68400898016989" lon="17.67549111507833">
        <ele>174.53</ele>
        <time>2023-10-16T23:52:30.149Z</time>
      </trkpt>
      <trkpt lat="45.684011578559875" lon="17.67548860050738">
        <ele>174.78</ele>
        <time>2023-10-16T23:52:35.663Z</time>
      </trkpt>
      <trkpt lat="45.68401476368308" lon="17.675485834479332">
        <ele>175.02</ele>
        <time>2023-10-16T23:52:41.177Z</time>
      </trkpt>
      <trkpt lat="45.684018870815635" lon="17.675482481718063">
        <ele>175.27</ele>
        <time>2023-10-16T23:52:46.692Z</time>
      </trkpt>
      <trkpt lat="45.684023732319474" lon="17.67547845840454">
        <ele>175.53</ele>
        <time>2023-10-16T23:52:52.207Z</time>
      </trkpt>
      <trkpt lat="45.68402943201363" lon="17.675473764538765">
        <ele>175.78</ele>
        <time>2023-10-16T23:52:57.722Z</time>
      </trkpt>
      <trkpt lat="45.68403588607907" lon="17.675468400120735">
        <ele>176.04</ele>
        <time>2023-10-16T23:53:03.237Z</time>
      </trkpt>
      <trkpt lat="45.684042843058705" lon="17.675462616607547">
        <ele>176.3</ele>
        <time>2023-10-16T23:53:08.753Z</time>
      </trkpt>
      <trkpt lat="45.68405038677156" lon="17.675456330180168">
        <ele>176.56</ele>
        <time>2023-10-16T23:53:14.269Z</time>
      </trkpt>
      <trkpt lat="45.68405834957957" lon="17.67544962465763">
        <ele>176.82</ele>
        <time>2023-10-16T23:53:19.785Z</time>
      </trkpt>
      <trkpt lat="45.68406656384468" lon="17.675442416220903">
        <ele>177.08</ele>
        <time>2023-10-16T23:53:25.301Z</time>
      </trkpt>
      <trkpt lat="45.68407486192882" lon="17.67543445341289">
        <ele>177.34</ele>
        <time>2023-10-16T23:53:30.818Z</time>
      </trkpt>
      <trkpt lat="45.68408324383199" lon="17.67542565241456">
        <ele>177.61</ele>
        <time>2023-10-16T23:53:36.335Z</time>
      </trkpt>
      <trkpt lat="45.684091625735164" lon="17.67541592940688">
        <ele>177.87</ele>
        <time>2023-10-16T23:53:41.853Z</time>
      </trkpt>
      <trkpt lat="45.68409975618124" lon="17.67540511675179">
        <ele>178.14</ele>
        <time>2023-10-16T23:53:47.371Z</time>
      </trkpt>
      <trkpt lat="45.68410755135119" lon="17.675393214449286">
        <ele>178.4</ele>
        <time>2023-10-16T23:53:52.889Z</time>
      </trkpt>
      <trkpt lat="45.68411492742598" lon="17.67537971958518">
        <ele>178.67</ele>
        <time>2023-10-16T23:53:58.408Z</time>
      </trkpt>
      <trkpt lat="45.684121968224645" lon="17.675364715978503">
        <ele>178.93</ele>
        <time>2023-10-16T23:54:03.927Z</time>
      </trkpt>
      <trkpt lat="45.684128841385245" lon="17.67534845508635">
        <ele>179.2</ele>
        <time>2023-10-16T23:54:09.447Z</time>
      </trkpt>
      <trkpt lat="45.68413588218391" lon="17.67533135600388">
        <ele>179.46</ele>
        <time>2023-10-16T23:54:14.967Z</time>
      </trkpt>
      <trkpt lat="45.6841432582587" lon="17.675313921645284">
        <ele>179.73</ele>
        <time>2023-10-16T23:54:20.487Z</time>
      </trkpt>
      <trkpt lat="45.68415071815252" lon="17.67529657110572">
        <ele>179.99</ele>
        <time>2023-10-16T23:54:26.008Z</time>
      </trkpt>
      <trkpt lat="45.684158680960536" lon="17.675280394032598">
        <ele>180.25</ele>
        <time>2023-10-16T23:54:31.529Z</time>
      </trkpt>
      <trkpt lat="45.68416714668274" lon="17.675265558063984">
        <ele>180.5</ele>
        <time>2023-10-16T23:54:37.051Z</time>
      </trkpt>
      <trkpt lat="45.68417636677623" lon="17.675252063199878">
        <ele>180.76</ele>
        <time>2023-10-16T23:54:42.573Z</time>
      </trkpt>
      <trkpt lat="45.684186508879066" lon="17.67523999325931">
        <ele>181.02</ele>
        <time>2023-10-16T23:54:48.096Z</time>
      </trkpt>
      <trkpt lat="45.68419757299125" lon="17.67522926442325">
        <ele>181.27</ele>
        <time>2023-10-16T23:54:53.619Z</time>
      </trkpt>
      <trkpt lat="45.68420964293182" lon="17.675220128148794">
        <ele>181.52</ele>
        <time>2023-10-16T23:54:59.143Z</time>
      </trkpt>
      <trkpt lat="45.68422271870077" lon="17.675211913883686">
        <ele>181.77</ele>
        <time>2023-10-16T23:55:04.667Z</time>
      </trkpt>
      <trkpt lat="45.68423646502197" lon="17.67520470544696">
        <ele>182.02</ele>
        <time>2023-10-16T23:55:10.192Z</time>
      </trkpt>
      <trkpt lat="45.684250546619296" lon="17.675197832286358">
        <ele>182.26</ele>
        <time>2023-10-16T23:55:15.717Z</time>
      </trkpt>
      <trkpt lat="45.684264712035656" lon="17.675191294401884">
        <ele>182.51</ele>
        <time>2023-10-16T23:55:21.243Z</time>
      </trkpt>
      <trkpt lat="45.68427896127105" lon="17.675184924155474">
        <ele>182.75</ele>
        <time>2023-10-16T23:55:26.769Z</time>
      </trkpt>
      <trkpt lat="45.68429312668741" lon="17.675178302451968">
        <ele>182.98</ele>
        <time>2023-10-16T23:55:32.296Z</time>
      </trkpt>
      <trkpt lat="45.68430695682764" lon="17.675171177834272">
        <ele>183.21</ele>
        <time>2023-10-16T23:55:37.823Z</time>
      </trkpt>
      <trkpt lat="45.68432045169175" lon="17.675163885578513">
        <ele>183.44</ele>
        <time>2023-10-16T23:55:43.351Z</time>
      </trkpt>
      <trkpt lat="45.684333527460694" lon="17.67515642568469">
        <ele>183.67</ele>
        <time>2023-10-16T23:55:48.879Z</time>
      </trkpt>
      <trkpt lat="45.68434610031545" lon="17.675149217247963">
        <ele>183.89</ele>
        <time>2023-10-16T23:55:54.407Z</time>
      </trkpt>
      <trkpt lat="45.68435808643699" lon="17.675142511725426">
        <ele>184.1</ele>
        <time>2023-10-16T23:55:59.936Z</time>
      </trkpt>
      <trkpt lat="45.684369234368205" lon="17.675136728212237">
        <ele>184.31</ele>
        <time>2023-10-16T23:56:05.465Z</time>
      </trkpt>
      <trkpt lat="45.68437962792814" lon="17.675132118165493">
        <ele>184.52</ele>
        <time>2023-10-16T23:56:10.995Z</time>
      </trkpt>
      <trkpt lat="45.68438935093582" lon="17.67512851394713">
        <ele>184.72</ele>
        <time>2023-10-16T23:56:16.525Z</time>
      </trkpt>
      <trkpt lat="45.68439815193415" lon="17.675125831738114">
        <ele>184.92</ele>
        <time>2023-10-16T23:56:22.055Z</time>
      </trkpt>
      <trkpt lat="45.684406366199255" lon="17.675123820081353">
        <ele>185.11</ele>
        <time>2023-10-16T23:56:27.586Z</time>
      </trkpt>
      <trkpt lat="45.684413658455014" lon="17.67512214370072">
        <ele>185.3</ele>
        <time>2023-10-16T23:56:33.117Z</time>
      </trkpt>
      <trkpt lat="45.684420028701425" lon="17.67512080259621">
        <ele>185.48</ele>
        <time>2023-10-16T23:56:38.648Z</time>
      </trkpt>
      <trkpt lat="45.68442556075752" lon="17.675119629129767">
        <ele>185.66</ele>
        <time>2023-10-16T23:56:44.179Z</time>
      </trkpt>
      <trkpt lat="45.68443017080426" lon="17.675118874758482">
        <ele>185.83</ele>
        <time>2023-10-16T23:56:49.710Z</time>
      </trkpt>
      <trkpt lat="45.68443385884166" lon="17.675118455663323">
        <ele>186.0</ele>
        <time>2023-10-16T23:56:55.242Z</time>
      </trkpt>
      <trkpt lat="45.684436708688736" lon="17.67511837184429">
        <ele>186.16</ele>
        <time>2023-10-16T23:57:00.774Z</time>
      </trkpt>
      <trkpt lat="45.68443897180259" lon="17.675118539482355">
        <ele>186.32</ele>
        <time>2023-10-16T23:57:06.306Z</time>
      </trkpt>
      <trkpt lat="45.68444073200226" lon="17.67511879093945">
        <ele>186.47</ele>
        <time>2023-10-16T23:57:11.838Z</time>
      </trkpt>
      <trkpt lat="45.684441989287734" lon="17.675119042396545">
        <ele>186.62</ele>
        <time>2023-10-16T23:57:17.370Z</time>
      </trkpt>
      <trkpt lat="45.684442995116115" lon="17.675119377672672">
        <ele>186.77</ele>
        <time>2023-10-16T23:57:22.902Z</time>
      </trkpt>
      <trkpt lat="45.68444358184934" lon="17.6751197129488">
        <ele>186.91</ele>
        <time>2023-10-16T23:57:28.434Z</time>
      </trkpt>
      <trkpt lat="45.684444000944495" lon="17.675120132043958">
        <ele>187.04</ele>
        <time>2023-10-16T23:57:33.966Z</time>
      </trkpt>
      <trkpt lat="45.68444433622062" lon="17.675120634958148">
        <ele>187.17</ele>
        <time>2023-10-16T23:57:39.498Z</time>
      </trkpt>
      <trkpt lat="45.684445006772876" lon="17.6751213055104">
        <ele>187.3</ele>
        <time>2023-10-16T23:57:45.030Z</time>
      </trkpt>
      <trkpt lat="45.68444609642029" lon="17.675122059881687">
        <ele>187.42</ele>
        <time>2023-10-16T23:57:50.562Z</time>
      </trkpt>
      <trkpt lat="45.684447856619954" lon="17.675122898072004">
        <ele>187.54</ele>
        <time>2023-10-16T23:57:56.094Z</time>
      </trkpt>
      <trkpt lat="45.68445020355284" lon="17.67512373626232">
        <ele>187.66</ele>
        <time>2023-10-16T23:58:01.626Z</time>
      </trkpt>
      <trkpt lat="45.684453304857016" lon="17.675124322995543">
        <ele>187.78</ele>
        <time>2023-10-16T23:58:07.158Z</time>
      </trkpt>
      <trkpt lat="45.684457244351506" lon="17.675124742090702">
        <ele>187.89</ele>
        <time>2023-10-16T23:58:12.690Z</time>
      </trkpt>
      <trkpt lat="45.684462022036314" lon="17.675124742090702">
        <ele>188.0</ele>
        <time>2023-10-16T23:58:18.222Z</time>
      </trkpt>
      <trkpt lat="45.68446755409241" lon="17.67512423917651">
        <ele>188.1</ele>
        <time>2023-10-16T23:58:23.755Z</time>
      </trkpt>
      <trkpt lat="45.68447392433882" lon="17.6751231495291">
        <ele>188.2</ele>
        <time>2023-10-16T23:58:29.288Z</time>
      </trkpt>
      <trkpt lat="45.68448088131845" lon="17.675121389329433">
        <ele>188.31</ele>
        <time>2023-10-16T23:58:34.821Z</time>
      </trkpt>
      <trkpt lat="45.684488425031304" lon="17.675118874758482">
        <ele>188.4</ele>
        <time>2023-10-16T23:58:40.354Z</time>
      </trkpt>
      <trkpt lat="45.684496304020286" lon="17.67511535435915">
        <ele>188.5</ele>
        <time>2023-10-16T23:58:45.888Z</time>
      </trkpt>
      <trkpt lat="45.684504518285394" lon="17.675110828131437">
        <ele>188.59</ele>
        <time>2023-10-16T23:58:51.422Z</time>
      </trkpt>
      <trkpt lat="45.68451281636953" lon="17.67510512843728">
        <ele>188.68</ele>
        <time>2023-10-16T23:58:56.956Z</time>
      </trkpt>
      <trkpt lat="45.6845214497298" lon="17.675098422914743">
        <ele>188.77</ele>
        <time>2023-10-16T23:59:02.491Z</time>
      </trkpt>
      <trkpt lat="45.684529999271035" lon="17.675090795382857">
        <ele>188.86</ele>
        <time>2023-10-16T23:59:08.026Z</time>
      </trkpt>
      <trkpt lat="45.68453846499324" lon="17.67508207820356">
        <ele>188.94</ele>
        <time>2023-10-16T23:59:13.561Z</time>
      </trkpt>
      <trkpt lat="45.68454693071544" lon="17.675072606652975">
        <ele>189.02</ele>
        <time>2023-10-16T23:59:19.097Z</time>
      </trkpt>
      <trkpt lat="45.68455531261861" lon="17.675062464550138">
        <ele>189.1</ele>
        <time>2023-10-16T23:59:24.633Z</time>
      </trkpt>
      <trkpt lat="45.68456377834082" lon="17.67505181953311">
        <ele>189.18</ele>
        <time>2023-10-16T23:59:30.169Z</time>
      </trkpt>
      <trkpt lat="45.68457232788205" lon="17.67504058778286">
        <ele>189.26</ele>
        <time>2023-10-16T23:59:35.706Z</time>
      </trkpt>
      <trkpt lat="45.68458096124232" lon="17.67502893693745">
        <ele>189.34</ele>
        <time>2023-10-16T23:59:41.243Z</time>
      </trkpt>
      <trkpt lat="45.684589594602585" lon="17.675017034634948">
        <ele>189.41</ele>
        <time>2023-10-16T23:59:46.781Z</time>
      </trkpt>
      <trkpt lat="45.68459822796285" lon="17.67500488087535">
        <ele>189.49</ele>
        <time>2023-10-16T23:59:52.319Z</time>
      </trkpt>
      <trkpt lat="45.68460686132312" lon="17.674992810934782">
        <ele>189.56</ele>
        <time>2023-10-16T23:59:57.857Z</time>
      </trkpt>
      <trkpt lat="45.68461532704532" lon="17.674980824813247">
        <ele>189.64</ele>
        <time>2023-10-17T00:00:03.396Z</time>
      </trkpt>
      <trkpt lat="45.684623876586556" lon="17.67496917396784">
        <ele>189.72</ele>
        <time>2023-10-17T00:00:08.935Z</time>
      </trkpt>
      <trkpt lat="45.68463234230876" lon="17.67495802603662">
        <ele>189.79</ele>
        <time>2023-10-17T00:00:14.475Z</time>
      </trkpt>
      <trkpt lat="45.684640891849995" lon="17.674947381019592">
        <ele>189.87</ele>
        <time>2023-10-17T00:00:20.015Z</time>
      </trkpt>
      <trkpt lat="45.6846493575722" lon="17.674937238916755">
        <ele>189.95</ele>
        <time>2023-10-17T00:00:25.555Z</time>
      </trkpt>
      <trkpt lat="45.68465790711343" lon="17.674927515909076">
        <ele>190.03</ele>
        <time>2023-10-17T00:00:31.096Z</time>
      </trkpt>
      <trkpt lat="45.684666372835636" lon="17.67491837963462">
        <ele>190.11</ele>
        <time>2023-10-17T00:00:36.637Z</time>
      </trkpt>
      <trkpt lat="45.68467492237687" lon="17.67490966245532">
        <ele>190.2</ele>
        <time>2023-10-17T00:00:42.178Z</time>
      </trkpt>
      <trkpt lat="45.68468355573714" lon="17.674901615828276">
        <ele>190.29</ele>
        <time>2023-10-17T00:00:47.720Z</time>
      </trkpt>
      <trkpt lat="45.684692272916436" lon="17.67489407211542">
        <ele>190.37</ele>
        <time>2023-10-17T00:00:53.262Z</time>
      </trkpt>
      <trkpt lat="45.68470124155283" lon="17.67488719895482">
        <ele>190.46</ele>
        <time>2023-10-17T00:00:58.804Z</time>
      </trkpt>
      <trkpt lat="45.684710294008255" lon="17.67488082870841">
        <ele>190.56</ele>
        <time>2023-10-17T00:01:04.347Z</time>
      </trkpt>
      <trkpt lat="45.68471943028271" lon="17.674874709919095">
        <ele>190.65</ele>
        <time>2023-10-17T00:01:09.890Z</time>
      </trkpt>
      <trkpt lat="45.68472873419523" lon="17.67486901022494">
        <ele>190.75</ele>
        <time>2023-10-17T00:01:15.433Z</time>
      </trkpt>
      <trkpt lat="45.684738121926785" lon="17.674863394349813">
        <ele>190.85</ele>
        <time>2023-10-17T00:01:20.977Z</time>
      </trkpt>
      <trkpt lat="45.68474759347737" lon="17.674857946112752">
        <ele>190.96</ele>
        <time>2023-10-17T00:01:26.521Z</time>
      </trkpt>
      <trkpt lat="45.68475706502795" lon="17.674852581694722">
        <ele>191.06</ele>
        <time>2023-10-17T00:01:32.065Z</time>
      </trkpt>
      <trkpt lat="45.68476678803563" lon="17.674847384914756">
        <ele>191.17</ele>
        <time>2023-10-17T00:01:37.610Z</time>
      </trkpt>
      <trkpt lat="45.684776762500405" lon="17.67484227195382">
        <ele>191.28</ele>
        <time>2023-10-17T00:01:43.155Z</time>
      </trkpt>
      <trkpt lat="45.684786988422275" lon="17.674837158992887">
        <ele>191.4</ele>
        <time>2023-10-17T00:01:48.700Z</time>
      </trkpt>
      <trkpt lat="45.68479754962027" lon="17.67483187839389">
        <ele>191.52</ele>
        <time>2023-10-17T00:01:54.246Z</time>
      </trkpt>
      <trkpt lat="45.68480836227536" lon="17.674826346337795">
        <ele>191.64</ele>
        <time>2023-10-17T00:01:59.792Z</time>
      </trkpt>
      <trkpt lat="45.68481951020658" lon="17.674820479005575">
        <ele>191.77</ele>
        <time>2023-10-17T00:02:05.339Z</time>
      </trkpt>
      <trkpt lat="45.68483082577586" lon="17.67481427639723">
        <ele>191.9</ele>
        <time>2023-10-17T00:02:10.886Z</time>
      </trkpt>
      <trkpt lat="45.6848425604403" lon="17.674807906150818">
        <ele>192.03</ele>
        <time>2023-10-17T00:02:16.433Z</time>
      </trkpt>
      <trkpt lat="45.6848547141999" lon="17.674801535904408">
        <ele>192.17</ele>
        <time>2023-10-17T00:02:21.981Z</time>
      </trkpt>
      <trkpt lat="45.68486737087369" lon="17.674794998019934">
        <ele>192.32</ele>
        <time>2023-10-17T00:02:27.529Z</time>
      </trkpt>
      <trkpt lat="45.68488044664264" lon="17.674788376316428">
        <ele>192.46</ele>
        <time>2023-10-17T00:02:33.078Z</time>
      </trkpt>
      <trkpt lat="45.68489385768771" lon="17.674781503155828">
        <ele>192.61</ele>
        <time>2023-10-17T00:02:38.627Z</time>
      </trkpt>
      <trkpt lat="45.68490743637085" lon="17.674774629995227">
        <ele>192.77</ele>
        <time>2023-10-17T00:02:44.177Z</time>
      </trkpt>
      <trkpt lat="45.684921350330114" lon="17.674767589196563">
        <ele>192.93</ele>
        <time>2023-10-17T00:02:49.727Z</time>
      </trkpt>
      <trkpt lat="45.684935599565506" lon="17.674760380759835">
        <ele>193.09</ele>
        <time>2023-10-17T00:02:55.278Z</time>
      </trkpt>
      <trkpt lat="45.68494993261993" lon="17.674753172323108">
        <ele>193.25</ele>
        <time>2023-10-17T00:03:00.829Z</time>
      </trkpt>
      <trkpt lat="45.68496451713145" lon="17.67474596388638">
        <ele>193.42</ele>
        <time>2023-10-17T00:03:06.381Z</time>
      </trkpt>
      <trkpt lat="45.684979101642966" lon="17.674738755449653">
        <ele>193.59</ele>
        <time>2023-10-17T00:03:11.933Z</time>
      </trkpt>
      <trkpt lat="45.684993686154485" lon="17.67473129555583">
        <ele>193.76</ele>
        <time>2023-10-17T00:03:17.486Z</time>
      </trkpt>
      <trkpt lat="45.685008270666" lon="17.674723668023944">
        <ele>193.94</ele>
        <time>2023-10-17T00:03:23.039Z</time>
      </trkpt>
      <trkpt lat="45.68502268753946" lon="17.67471612431109">
        <ele>194.12</ele>
        <time>2023-10-17T00:03:28.593Z</time>
      </trkpt>
      <trkpt lat="45.68503685295582" lon="17.674708580598235">
        <ele>194.31</ele>
        <time>2023-10-17T00:03:34.147Z</time>
      </trkpt>
      <trkpt lat="45.685050850734115" lon="17.67470103688538">
        <ele>194.5</ele>
        <time>2023-10-17T00:03:39.702Z</time>
      </trkpt>
      <trkpt lat="45.68506468087435" lon="17.674693409353495">
        <ele>194.69</ele>
        <time>2023-10-17T00:03:45.257Z</time>
      </trkpt>
      <trkpt lat="45.68507834337652" lon="17.674685949459672">
        <ele>194.89</ele>
        <time>2023-10-17T00:03:50.813Z</time>
      </trkpt>
      <trkpt lat="45.68509183824062" lon="17.674678657203913">
        <ele>195.09</ele>
        <time>2023-10-17T00:03:56.369Z</time>
      </trkpt>
      <trkpt lat="45.68510533310473" lon="17.674671867862344">
        <ele>195.29</ele>
        <time>2023-10-17T00:04:01.926Z</time>
      </trkpt>
      <trkpt lat="45.6851189956069" lon="17.674665665253997">
        <ele>195.49</ele>
        <time>2023-10-17T00:04:07.483Z</time>
      </trkpt>
      <trkpt lat="45.685132993385196" lon="17.674660217016935">
        <ele>195.7</ele>
        <time>2023-10-17T00:04:13.041Z</time>
      </trkpt>
      <trkpt lat="45.68514724262059" lon="17.674655439332128">
        <ele>195.91</ele>
        <time>2023-10-17T00:04:18.599Z</time>
      </trkpt>
      <trkpt lat="45.68516191095114" lon="17.674651248380542">
        <ele>196.12</ele>
        <time>2023-10-17T00:04:24.158Z</time>
      </trkpt>
      <trkpt lat="45.68517666310072" lon="17.674647392705083">
        <ele>196.33</ele>
        <time>2023-10-17T00:04:29.717Z</time>
      </trkpt>
      <trkpt lat="45.6851916667074" lon="17.674643620848656">
        <ele>196.55</ele>
        <time>2023-10-17T00:04:35.277Z</time>
      </trkpt>
      <trkpt lat="45.685206754133105" lon="17.674639597535133">
        <ele>196.76</ele>
        <time>2023-10-17T00:04:40.837Z</time>
      </trkpt>
      <trkpt lat="45.685221841558814" lon="17.674635155126452">
        <ele>196.98</ele>
        <time>2023-10-17T00:04:46.398Z</time>
      </trkpt>
      <trkpt lat="45.68523642607033" lon="17.674630377441645">
        <ele>197.2</ele>
        <time>2023-10-17T00:04:51.959Z</time>
      </trkpt>
      <trkpt lat="45.68525092676282" lon="17.674625432118773">
        <ele>197.42</ele>
        <time>2023-10-17T00:04:57.521Z</time>
      </trkpt>
      <trkpt lat="45.68526500836015" lon="17.674620235338807">
        <ele>197.64</ele>
        <time>2023-10-17T00:05:03.083Z</time>
      </trkpt>
      <trkpt lat="45.68527867086232" lon="17.674614870920777">
        <ele>197.86</ele>
        <time>2023-10-17T00:05:08.646Z</time>
      </trkpt>
      <trkpt lat="45.68529199808836" lon="17.67460967414081">
        <ele>198.08</ele>
        <time>2023-10-17T00:05:14.209Z</time>
      </trkpt>
      <trkpt lat="45.68530524149537" lon="17.674604561179876">
        <ele>198.3</ele>
        <time>2023-10-17T00:05:19.773Z</time>
      </trkpt>
      <trkpt lat="45.685318149626255" lon="17.674599699676037">
        <ele>198.52</ele>
        <time>2023-10-17T00:05:25.337Z</time>
      </trkpt>
      <trkpt lat="45.6853312253952" lon="17.674595257267356">
        <ele>198.74</ele>
        <time>2023-10-17T00:05:30.902Z</time>
      </trkpt>
      <trkpt lat="45.68534430116415" lon="17.67459156922996">
        <ele>198.96</ele>
        <time>2023-10-17T00:05:36.467Z</time>
      </trkpt>
      <trkpt lat="45.68535754457116" lon="17.674589222297072">
        <ele>199.18</ele>
        <time>2023-10-17T00:05:42.032Z</time>
      </trkpt>
      <trkpt lat="45.685370871797204" lon="17.674588216468692">
        <ele>199.4</ele>
        <time>2023-10-17T00:05:47.598Z</time>
      </trkpt>
      <trkpt lat="45.685384618118405" lon="17.674588216468692">
        <ele>199.62</ele>
        <time>2023-10-17T00:05:53.164Z</time>
      </trkpt>
      <trkpt lat="45.68539853207767" lon="17.674589222297072">
        <ele>199.84</ele>
        <time>2023-10-17T00:05:58.731Z</time>
      </trkpt>
      <trkpt lat="45.68541278131306" lon="17.674591150134802">
        <ele>200.05</ele>
        <time>2023-10-17T00:06:04.298Z</time>
      </trkpt>
      <trkpt lat="45.68542728200555" lon="17.674593329429626">
        <ele>200.27</ele>
        <time>2023-10-17T00:06:09.866Z</time>
      </trkpt>
      <trkpt lat="45.6854419503361" lon="17.674595592543483">
        <ele>200.49</ele>
        <time>2023-10-17T00:06:15.434Z</time>
      </trkpt>
      <trkpt lat="45.68545628339052" lon="17.674598023295403">
        <ele>200.7</ele>
        <time>2023-10-17T00:06:21.003Z</time>
      </trkpt>
      <trkpt lat="45.685470532625914" lon="17.674600621685386">
        <ele>200.91</ele>
        <time>2023-10-17T00:06:26.572Z</time>
      </trkpt>
      <trkpt lat="45.68548453040421" lon="17.6746033038944">
        <ele>201.12</ele>
        <time>2023-10-17T00:06:32.142Z</time>
      </trkpt>
      <trkpt lat="45.68549819290638" lon="17.674605818465352">
        <ele>201.33</ele>
        <time>2023-10-17T00:06:37.712Z</time>
      </trkpt>
      <trkpt lat="45.68551185540855" lon="17.67460816539824">
        <ele>201.54</ele>
        <time>2023-10-17T00:06:43.283Z</time>
      </trkpt>
      <trkpt lat="45.68552560172975" lon="17.674610344693065">
        <ele>201.74</ele>
        <time>2023-10-17T00:06:48.854Z</time>
      </trkpt>
      <trkpt lat="45.68553934805095" lon="17.674612691625953">
        <ele>201.94</ele>
        <time>2023-10-17T00:06:54.425Z</time>
      </trkpt>
      <trkpt lat="45.68555301055312" lon="17.67461495473981">
        <ele>202.14</ele>
        <time>2023-10-17T00:06:59.997Z</time>
      </trkpt>
      <trkpt lat="45.68556658923626" lon="17.674617217853665">
        <ele>202.34</ele>
        <time>2023-10-17T00:07:05.569Z</time>
      </trkpt>
      <trkpt lat="45.685580000281334" lon="17.674619564786553">
        <ele>202.54</ele>
        <time>2023-10-17T00:07:11.142Z</time>
      </trkpt>
      <trkpt lat="45.68559299223125" lon="17.67462191171944">
        <ele>202.73</ele>
        <time>2023-10-17T00:07:16.715Z</time>
      </trkpt>
      <trkpt lat="45.6856058165431" lon="17.674624007195234">
        <ele>202.92</ele>
        <time>2023-10-17T00:07:22.289Z</time>
      </trkpt>
      <trkpt lat="45.68561830557883" lon="17.674625935032964">
        <ele>203.11</ele>
        <time>2023-10-17T00:07:27.863Z</time>
      </trkpt>
      <trkpt lat="45.68563062697649" lon="17.674627611413598">
        <ele>203.29</ele>
        <time>2023-10-17T00:07:33.438Z</time>
      </trkpt>
      <trkpt lat="45.685642529278994" lon="17.6746292039752">
        <ele>203.47</ele>
        <time>2023-10-17T00:07:39.013Z</time>
      </trkpt>
      <trkpt lat="45.6856541801244" lon="17.67463062889874">
        <ele>203.65</ele>
        <time>2023-10-17T00:07:44.588Z</time>
      </trkpt>
      <trkpt lat="45.68566541187465" lon="17.674631886184216">
        <ele>203.82</ele>
        <time>2023-10-17T00:07:50.164Z</time>
      </trkpt>
      <trkpt lat="45.68567622452974" lon="17.674632892012596">
        <ele>203.99</ele>
        <time>2023-10-17T00:07:55.740Z</time>
      </trkpt>
      <trkpt lat="45.68568670190871" lon="17.67463364638388">
        <ele>204.16</ele>
        <time>2023-10-17T00:08:01.316Z</time>
      </trkpt>
      <trkpt lat="45.685696844011545" lon="17.67463406547904">
        <ele>204.32</ele>
        <time>2023-10-17T00:08:06.893Z</time>
      </trkpt>
      <trkpt lat="45.685706567019224" lon="17.674634400755167">
        <ele>204.49</ele>
        <time>2023-10-17T00:08:12.470Z</time>
      </trkpt>
      <trkpt lat="45.685715954750776" lon="17.674634652212262">
        <ele>204.64</ele>
        <time>2023-10-17T00:08:18.047Z</time>
      </trkpt>
      <trkpt lat="45.68572492338717" lon="17.67463507130742">
        <ele>204.8</ele>
        <time>2023-10-17T00:08:23.625Z</time>
      </trkpt>
      <trkpt lat="45.68573338910937" lon="17.674635825678706">
        <ele>204.95</ele>
        <time>2023-10-17T00:08:29.203Z</time>
      </trkpt>
      <trkpt lat="45.685741351917386" lon="17.674636747688055">
        <ele>205.1</ele>
        <time>2023-10-17T00:08:34.781Z</time>
      </trkpt>
      <trkpt lat="45.68574897944927" lon="17.674637669697404">
        <ele>205.25</ele>
        <time>2023-10-17T00:08:40.360Z</time>
      </trkpt>
      <trkpt lat="45.68575610406697" lon="17.67463850788772">
        <ele>205.39</ele>
        <time>2023-10-17T00:08:45.939Z</time>
      </trkpt>
      <trkpt lat="45.685762809589505" lon="17.674639262259007">
        <ele>205.53</ele>
        <time>2023-10-17T00:08:51.518Z</time>
      </trkpt>
      <trkpt lat="45.68576926365495" lon="17.67463984899223">
        <ele>205.67</ele>
        <time>2023-10-17T00:08:57.097Z</time>
      </trkpt>
      <trkpt lat="45.68577563390136" lon="17.67464043572545">
        <ele>205.8</ele>
        <time>2023-10-17T00:09:02.676Z</time>
      </trkpt>
      <trkpt lat="45.685781920328736" lon="17.67464085482061">
        <ele>205.93</ele>
        <time>2023-10-17T00:09:08.256Z</time>
      </trkpt>
      <trkpt lat="45.68578829057515" lon="17.674641190096736">
        <ele>206.06</ele>
        <time>2023-10-17T00:09:13.836Z</time>
      </trkpt>
      <trkpt lat="45.68579474464059" lon="17.674641273915768">
        <ele>206.19</ele>
        <time>2023-10-17T00:09:19.416Z</time>
      </trkpt>
      <trkpt lat="45.68580178543925" lon="17.67464093863964">
        <ele>206.31</ele>
        <time>2023-10-17T00:09:24.996Z</time>
      </trkpt>
      <trkpt lat="45.685809245333076" lon="17.674640184268355">
        <ele>206.43</ele>
        <time>2023-10-17T00:09:30.577Z</time>
      </trkpt>
      <trkpt lat="45.68581720814109" lon="17.67463901080191">
        <ele>206.54</ele>
        <time>2023-10-17T00:09:36.158Z</time>
      </trkpt>
      <trkpt lat="45.685825841501355" lon="17.674637585878372">
        <ele>206.66</ele>
        <time>2023-10-17T00:09:41.739Z</time>
      </trkpt>
      <trkpt lat="45.685835061594844" lon="17.674635909497738">
        <ele>206.77</ele>
        <time>2023-10-17T00:09:47.320Z</time>
      </trkpt>
      <trkpt lat="45.685844868421555" lon="17.67463398166001">
        <ele>206.88</ele>
        <time>2023-10-17T00:09:52.902Z</time>
      </trkpt>
      <trkpt lat="45.685855094343424" lon="17.67463155090809">
        <ele>206.98</ele>
        <time>2023-10-17T00:09:58.484Z</time>
      </trkpt>
      <trkpt lat="45.68586557172239" lon="17.67462870106101">
        <ele>207.08</ele>
        <time>2023-10-17T00:10:04.066Z</time>
      </trkpt>
      <trkpt lat="45.68587638437748" lon="17.67462534829974">
        <ele>207.18</ele>
        <time>2023-10-17T00:10:09.649Z</time>
      </trkpt>
      <trkpt lat="45.68588711321354" lon="17.674621576443315">
        <ele>207.28</ele>
        <time>2023-10-17T00:10:15.232Z</time>
      </trkpt>
      <trkpt lat="45.68589800968766" lon="17.674617636948824">
        <ele>207.37</ele>
        <time>2023-10-17T00:10:20.816Z</time>
      </trkpt>
      <trkpt lat="45.68590873852372" lon="17.674613445997238">
        <ele>207.46</ele>
        <time>2023-10-17T00:10:26.400Z</time>
      </trkpt>
      <trkpt lat="45.68591929972172" lon="17.674609003588557">
        <ele>207.55</ele>
        <time>2023-10-17T00:10:31.984Z</time>
      </trkpt>
      <trkpt lat="45.685929358005524" lon="17.674604393541813">
        <ele>207.64</ele>
        <time>2023-10-17T00:10:37.569Z</time>
      </trkpt>
      <trkpt lat="45.68593891337514" lon="17.674599699676037">
        <ele>207.72</ele>
        <time>2023-10-17T00:10:43.154Z</time>
      </trkpt>
      <trkpt lat="45.68594763055444" lon="17.674595089629292">
        <ele>207.8</ele>
        <time>2023-10-17T00:10:48.739Z</time>
      </trkpt>
      <trkpt lat="45.68595550954342" lon="17.674590731039643">
        <ele>207.87</ele>
        <time>2023-10-17T00:10:54.325Z</time>
      </trkpt>
      <trkpt lat="45.685962634161115" lon="17.674586875364184">
        <ele>207.95</ele>
        <time>2023-10-17T00:10:59.911Z</time>
      </trkpt>
      <trkpt lat="45.685969004407525" lon="17.674583522602916">
        <ele>208.02</ele>
        <time>2023-10-17T00:11:05.497Z</time>
      </trkpt>
      <trkpt lat="45.68597445264459" lon="17.674580672755837">
        <ele>208.08</ele>
        <time>2023-10-17T00:11:11.083Z</time>
      </trkpt>
      <trkpt lat="45.685979314148426" lon="17.67457832582295">
        <ele>208.15</ele>
        <time>2023-10-17T00:11:16.669Z</time>
      </trkpt>
      <trkpt lat="45.68598358891904" lon="17.674576230347157">
        <ele>208.21</ele>
        <time>2023-10-17T00:11:22.256Z</time>
      </trkpt>
      <trkpt lat="45.685987528413534" lon="17.67457438632846">
        <ele>208.27</ele>
        <time>2023-10-17T00:11:27.843Z</time>
      </trkpt>
      <trkpt lat="45.685991048812866" lon="17.674572793766856">
        <ele>208.33</ele>
        <time>2023-10-17T00:11:33.430Z</time>
      </trkpt>
      <trkpt lat="45.68599473685026" lon="17.674571368843317">
        <ele>208.38</ele>
        <time>2023-10-17T00:11:39.017Z</time>
      </trkpt>
      <trkpt lat="45.68599859252572" lon="17.67457002773881">
        <ele>208.43</ele>
        <time>2023-10-17T00:11:44.604Z</time>
      </trkpt>
      <trkpt lat="45.68600286729634" lon="17.67456860281527">
        <ele>208.48</ele>
        <time>2023-10-17T00:11:50.191Z</time>
      </trkpt>
      <trkpt lat="45.68600789643824" lon="17.674567010253668">
        <ele>208.53</ele>
        <time>2023-10-17T00:11:55.778Z</time>
      </trkpt>
      <trkpt lat="45.68601326085627" lon="17.67456508241594">
        <ele>208.57</ele>
        <time>2023-10-17T00:12:01.366Z</time>
      </trkpt>
      <trkpt lat="45.686019379645586" lon="17.674562484025955">
        <ele>208.62</ele>
        <time>2023-10-17T00:12:06.954Z</time>
      </trkpt>
      <trkpt lat="45.68602633662522" lon="17.674559047445655">
        <ele>208.66</ele>
        <time>2023-10-17T00:12:12.542Z</time>
      </trkpt>
      <trkpt lat="45.68603388033807" lon="17.674555024132133">
        <ele>208.69</ele>
        <time>2023-10-17T00:12:18.130Z</time>
      </trkpt>
      <trkpt lat="45.68604192696512" lon="17.674550246447325">
        <ele>208.73</ele>
        <time>2023-10-17T00:12:23.719Z</time>
      </trkpt>
      <trkpt lat="45.686050644144416" lon="17.674544462934136">
        <ele>208.76</ele>
        <time>2023-10-17T00:12:29.308Z</time>
      </trkpt>
      <trkpt lat="45.686059864237905" lon="17.674537673592567">
        <ele>208.8</ele>
        <time>2023-10-17T00:12:34.897Z</time>
      </trkpt>
      <trkpt lat="45.68606933578849" lon="17.67452996224165">
        <ele>208.83</ele>
        <time>2023-10-17T00:12:40.487Z</time>
      </trkpt>
      <trkpt lat="45.6860791426152" lon="17.67452116124332">
        <ele>208.85</ele>
        <time>2023-10-17T00:12:46.077Z</time>
      </trkpt>
      <trkpt lat="45.686088697984815" lon="17.6745118573308">
        <ele>208.88</ele>
        <time>2023-10-17T00:12:51.667Z</time>
      </trkpt>
      <trkpt lat="45.68609808571637" lon="17.674501882866025">
        <ele>208.9</ele>
        <time>2023-10-17T00:12:57.258Z</time>
      </trkpt>
      <trkpt lat="45.68610713817179" lon="17.674491489306092">
        <ele>208.93</ele>
        <time>2023-10-17T00:13:02.849Z</time>
      </trkpt>
      <trkpt lat="45.686115603893995" lon="17.674481011927128">
        <ele>208.94</ele>
        <time>2023-10-17T00:13:08.441Z</time>
      </trkpt>
      <trkpt lat="45.68612331524491" lon="17.67447078600526">
        <ele>208.96</ele>
        <time>2023-10-17T00:13:14.033Z</time>
      </trkpt>
      <trkpt lat="45.68613043986261" lon="17.674460476264358">
        <ele>208.97</ele>
        <time>2023-10-17T00:13:19.625Z</time>
      </trkpt>
      <trkpt lat="45.68613689392805" lon="17.67445041798055">
        <ele>208.98</ele>
        <time>2023-10-17T00:13:25.218Z</time>
      </trkpt>
      <trkpt lat="45.686142509803176" lon="17.674441030249">
        <ele>209.0</ele>
        <time>2023-10-17T00:13:30.811Z</time>
      </trkpt>
      <trkpt lat="45.68614720366895" lon="17.67443222925067">
        <ele>209.01</ele>
        <time>2023-10-17T00:13:36.404Z</time>
      </trkpt>
      <trkpt lat="45.68615114316344" lon="17.674424098804593">
        <ele>209.01</ele>
        <time>2023-10-17T00:13:41.997Z</time>
      </trkpt>
      <trkpt lat="45.68615432828665" lon="17.67441655509174">
        <ele>209.02</ele>
        <time>2023-10-17T00:13:47.591Z</time>
      </trkpt>
      <trkpt lat="45.68615701049566" lon="17.674409430474043">
        <ele>209.02</ele>
        <time>2023-10-17T00:13:53.185Z</time>
      </trkpt>
      <trkpt lat="45.68615893833339" lon="17.674403060227633">
        <ele>209.02</ele>
        <time>2023-10-17T00:13:58.779Z</time>
      </trkpt>
      <trkpt lat="45.68616036325693" lon="17.67439710907638">
        <ele>209.02</ele>
        <time>2023-10-17T00:14:04.373Z</time>
      </trkpt>
      <trkpt lat="45.68616128526628" lon="17.674391828477383">
        <ele>209.02</ele>
        <time>2023-10-17T00:14:09.967Z</time>
      </trkpt>
      <trkpt lat="45.6861618719995" lon="17.674387134611607">
        <ele>209.02</ele>
        <time>2023-10-17T00:14:15.561Z</time>
      </trkpt>
      <trkpt lat="45.68616229109466" lon="17.674383111298084">
        <ele>209.02</ele>
        <time>2023-10-17T00:14:21.155Z</time>
      </trkpt>
      <trkpt lat="45.686162458732724" lon="17.674379674717784">
        <ele>209.01</ele>
        <time>2023-10-17T00:14:26.749Z</time>
      </trkpt>
      <trkpt lat="45.68616237491369" lon="17.674376741051674">
        <ele>209.0</ele>
        <time>2023-10-17T00:14:32.344Z</time>
      </trkpt>
      <trkpt lat="45.68616229109466" lon="17.674374477937818">
        <ele>209.0</ele>
        <time>2023-10-17T00:14:37.939Z</time>
      </trkpt>
      <trkpt lat="45.686161955818534" lon="17.674372885376215">
        <ele>208.99</ele>
        <time>2023-10-17T00:14:43.534Z</time>
      </trkpt>
      <trkpt lat="45.686161536723375" lon="17.67437221482396">
        <ele>208.98</ele>
        <time>2023-10-17T00:14:49.129Z</time>
      </trkpt>
      <trkpt lat="45.68616086617112" lon="17.674372466281056">
        <ele>208.97</ele>
        <time>2023-10-17T00:14:54.724Z</time>
      </trkpt>
      <trkpt lat="45.686160111799836" lon="17.67437355592847">
        <ele>208.95</ele>
        <time>2023-10-17T00:15:00.319Z</time>
      </trkpt>
      <trkpt lat="45.68615935742855" lon="17.674375316128135">
        <ele>208.94</ele>
        <time>2023-10-17T00:15:05.914Z</time>
      </trkpt>
      <trkpt lat="45.6861586868763" lon="17.674377663061023">
        <ele>208.93</ele>
        <time>2023-10-17T00:15:11.509Z</time>
      </trkpt>
      <trkpt lat="45.68615818396211" lon="17.674380345270038">
        <ele>208.91</ele>
        <time>2023-10-17T00:15:17.104Z</time>
      </trkpt>
      <trkpt lat="45.686157681047916" lon="17.674383278936148">
        <ele>208.9</ele>
        <time>2023-10-17T00:15:22.699Z</time>
      </trkpt>
      <trkpt lat="45.68615734577179" lon="17.67438638024032">
        <ele>208.88</ele>
        <time>2023-10-17T00:15:28.294Z</time>
      </trkpt>
      <trkpt lat="45.68615701049566" lon="17.674389481544495">
        <ele>208.87</ele>
        <time>2023-10-17T00:15:33.889Z</time>
      </trkpt>
      <trkpt lat="45.68615675903857" lon="17.674392415210605">
        <ele>208.85</ele>
        <time>2023-10-17T00:15:39.484Z</time>
      </trkpt>
      <trkpt lat="45.68615675903857" lon="17.67439509741962">
        <ele>208.83</ele>
        <time>2023-10-17T00:15:45.079Z</time>
      </trkpt>
      <trkpt lat="45.68615726195276" lon="17.67439710907638">
        <ele>208.82</ele>
        <time>2023-10-17T00:15:50.674Z</time>
      </trkpt>
      <trkpt lat="45.68615826778114" lon="17.674398366361856">
        <ele>208.8</ele>
        <time>2023-10-17T00:15:56.269Z</time>
      </trkpt>
      <trkpt lat="45.68615969270468" lon="17.67439895309508">
        <ele>208.78</ele>
        <time>2023-10-17T00:16:01.864Z</time>
      </trkpt>
      <trkpt lat="45.68616178818047" lon="17.67439853399992">
        <ele>208.76</ele>
        <time>2023-10-17T00:16:07.459Z</time>
      </trkpt>
      <trkpt lat="45.68616430275142" lon="17.674397276714444">
        <ele>208.74</ele>
        <time>2023-10-17T00:16:13.055Z</time>
      </trkpt>
      <trkpt lat="45.68616723641753" lon="17.674395348876715">
        <ele>208.73</ele>
        <time>2023-10-17T00:16:18.651Z</time>
      </trkpt>
      <trkpt lat="45.686170337721705" lon="17.67439316958189">
        <ele>208.71</ele>
        <time>2023-10-17T00:16:24.247Z</time>
      </trkpt>
      <trkpt lat="45.68617352284491" lon="17.674390990287066">
        <ele>208.69</ele>
        <time>2023-10-17T00:16:29.843Z</time>
      </trkpt>
      <trkpt lat="45.68617645651102" lon="17.674388978630304">
        <ele>208.67</ele>
        <time>2023-10-17T00:16:35.439Z</time>
      </trkpt>
      <trkpt lat="45.68617922253907" lon="17.67438730224967">
        <ele>208.65</ele>
        <time>2023-10-17T00:16:41.035Z</time>
      </trkpt>
      <trkpt lat="45.68618140183389" lon="17.674386044964194">
        <ele>208.63</ele>
        <time>2023-10-17T00:16:46.631Z</time>
      </trkpt>
      <trkpt lat="45.68618316203356" lon="17.67438529059291">
        <ele>208.61</ele>
        <time>2023-10-17T00:16:52.227Z</time>
      </trkpt>
      <trkpt lat="45.686184419319034" lon="17.674384955316782">
        <ele>208.6</ele>
        <time>2023-10-17T00:16:57.823Z</time>
      </trkpt>
      <trkpt lat="45.68618525750935" lon="17.674385039135814">
        <ele>208.58</ele>
        <time>2023-10-17T00:17:03.419Z</time>
      </trkpt>
      <trkpt lat="45.686185508966446" lon="17.674385625869036">
        <ele>208.56</ele>
        <time>2023-10-17T00:17:09.015Z</time>
      </trkpt>
      <trkpt lat="45.68618534132838" lon="17.674386715516448">
        <ele>208.54</ele>
        <time>2023-10-17T00:17:14.611Z</time>
      </trkpt>
      <trkpt lat="45.6861845869571" lon="17.674388140439987">
        <ele>208.53</ele>
        <time>2023-10-17T00:17:20.207Z</time>
      </trkpt>
      <trkpt lat="45.68618374876678" lon="17.674389649182558">
        <ele>208.51</ele>
        <time>2023-10-17T00:17:25.803Z</time>
      </trkpt>
      <trkpt lat="45.68618282675743" lon="17.674390990287066">
        <ele>208.5</ele>
        <time>2023-10-17T00:17:31.399Z</time>
      </trkpt>
      <trkpt lat="45.68618215620518" lon="17.674391996115446">
        <ele>208.48</ele>
        <time>2023-10-17T00:17:36.995Z</time>
      </trkpt>
      <trkpt lat="45.686181569471955" lon="17.67439275048673">
        <ele>208.47</ele>
        <time>2023-10-17T00:17:42.592Z</time>
      </trkpt>
      <trkpt lat="45.68618131801486" lon="17.674393253400922">
        <ele>208.46</ele>
        <time>2023-10-17T00:17:48.189Z</time>
      </trkpt>
      <trkpt lat="45.68618123419583" lon="17.674393504858017">
        <ele>208.44</ele>
        <time>2023-10-17T00:17:53.786Z</time>
      </trkpt>
      <trkpt lat="45.68618140183389" lon="17.67439367249608">
        <ele>208.43</ele>
        <time>2023-10-17T00:17:59.383Z</time>
      </trkpt>
      <trkpt lat="45.68618182092905" lon="17.674393840134144">
        <ele>208.42</ele>
        <time>2023-10-17T00:18:04.980Z</time>
      </trkpt>
      <trkpt lat="45.68618265911937" lon="17.674393923953176">
        <ele>208.41</ele>
        <time>2023-10-17T00:18:10.577Z</time>
      </trkpt>
      <trkpt lat="45.68618374876678" lon="17.674394007772207">
        <ele>208.4</ele>
        <time>2023-10-17T00:18:16.174Z</time>
      </trkpt>
      <trkpt lat="45.68618508987129" lon="17.674393923953176">
        <ele>208.4</ele>
        <time>2023-10-17T00:18:21.771Z</time>
      </trkpt>
      <trkpt lat="45.68618651479483" lon="17.674393840134144">
        <ele>208.39</ele>
        <time>2023-10-17T00:18:27.368Z</time>
      </trkpt>
      <trkpt lat="45.6861880235374" lon="17.67439358867705">
        <ele>208.39</ele>
        <time>2023-10-17T00:18:32.965Z</time>
      </trkpt>
      <trkpt lat="45.686189616099" lon="17.674393337219954">
        <ele>208.38</ele>
        <time>2023-10-17T00:18:38.562Z</time>
      </trkpt>
      <trkpt lat="45.6861912086606" lon="17.674393001943827">
        <ele>208.38</ele>
        <time>2023-10-17T00:18:44.159Z</time>
      </trkpt>
      <trkpt lat="45.686192801222205" lon="17.674392582848668">
        <ele>208.38</ele>
        <time>2023-10-17T00:18:49.756Z</time>
      </trkpt>
      <trkpt lat="45.68619439378381" lon="17.67439216375351">
        <ele>208.38</ele>
        <time>2023-10-17T00:18:55.353Z</time>
      </trkpt>
      <trkpt lat="45.68619581870735" lon="17.674391577020288">
        <ele>208.38</ele>
        <time>2023-10-17T00:19:00.950Z</time>
      </trkpt>
      <trkpt lat="45.68619707599282" lon="17.674390990287066">
        <ele>208.38</ele>
        <time>2023-10-17T00:19:06.547Z</time>
      </trkpt>
      <trkpt lat="45.68619799800217" lon="17.674390319734812">
        <ele>208.39</ele>
        <time>2023-10-17T00:19:12.144Z</time>
      </trkpt>
      <trkpt lat="45.68619858473539" lon="17.67438973300159">
        <ele>208.39</ele>
        <time>2023-10-17T00:19:17.741Z</time>
      </trkpt>
      <trkpt lat="45.68619883619249" lon="17.6743892300874">
        <ele>208.4</ele>
        <time>2023-10-17T00:19:23.338Z</time>
      </trkpt>
      <trkpt lat="45.68619900383055" lon="17.674388894811273">
        <ele>208.41</ele>
        <time>2023-10-17T00:19:28.935Z</time>
      </trkpt>
      <trkpt lat="45.68619900383055" lon="17.674388643354177">
        <ele>208.42</ele>
        <time>2023-10-17T00:19:34.532Z</time>
      </trkpt>
      <trkpt lat="45.68619900383055" lon="17.674388559535146">
        <ele>208.43</ele>
        <time>2023-10-17T00:19:40.129Z</time>
      </trkpt>
      <trkpt lat="45.68619883619249" lon="17.674388475716114">
        <ele>208.45</ele>
        <time>2023-10-17T00:19:45.726Z</time>
      </trkpt>
      <trkpt lat="45.686198668554425" lon="17.674388391897082">
        <ele>208.46</ele>
        <time>2023-10-17T00:19:51.323Z</time>
      </trkpt>
      <trkpt lat="45.68619850091636" lon="17.674388475716114">
        <ele>208.48</ele>
        <time>2023-10-17T00:19:56.920Z</time>
      </trkpt>
      <trkpt lat="45.68619824945927" lon="17.674388559535146">
        <ele>208.5</ele>
        <time>2023-10-17T00:20:02.517Z</time>
      </trkpt>
      <trkpt lat="45.686198165640235" lon="17.674388391897082">
        <ele>208.52</ele>
        <time>2023-10-17T00:20:08.114Z</time>
      </trkpt>
      <trkpt lat="45.686198165640235" lon="17.674388140439987">
        <ele>208.54</ele>
        <time>2023-10-17T00:20:13.711Z</time>
      </trkpt>
      <trkpt lat="45.68619850091636" lon="17.67438730224967">
        <ele>208.57</ele>
        <time>2023-10-17T00:20:19.308Z</time>
      </trkpt>
      <trkpt lat="45.68619942292571" lon="17.674385961145163">
        <ele>208.59</ele>
        <time>2023-10-17T00:20:24.905Z</time>
      </trkpt>
      <trkpt lat="45.68620093166828" lon="17.674383781850338">
        <ele>208.62</ele>
        <time>2023-10-17T00:20:30.502Z</time>
      </trkpt>
      <trkpt lat="45.68620319478214" lon="17.674380764365196">
        <ele>208.65</ele>
        <time>2023-10-17T00:20:36.099Z</time>
      </trkpt>
      <trkpt lat="45.68620621226728" lon="17.674376741051674">
        <ele>208.68</ele>
        <time>2023-10-17T00:20:41.697Z</time>
      </trkpt>
      <trkpt lat="45.68621006794274" lon="17.674371795728803">
        <ele>208.72</ele>
        <time>2023-10-17T00:20:47.295Z</time>
      </trkpt>
      <trkpt lat="45.68621467798948" lon="17.674365676939487">
        <ele>208.75</ele>
        <time>2023-10-17T00:20:52.893Z</time>
      </trkpt>
      <trkpt lat="45.68622004240751" lon="17.674358384683728">
        <ele>208.79</ele>
        <time>2023-10-17T00:20:58.491Z</time>
      </trkpt>
      <trkpt lat="45.68622616119683" lon="17.674349835142493">
        <ele>208.83</ele>
        <time>2023-10-17T00:21:04.089Z</time>
      </trkpt>
      <trkpt lat="45.6862329505384" lon="17.674340028315783">
        <ele>208.87</ele>
        <time>2023-10-17T00:21:09.688Z</time>
      </trkpt>
      <trkpt lat="45.686240158975124" lon="17.67432921566069">
        <ele>208.91</ele>
        <time>2023-10-17T00:21:15.287Z</time>
      </trkpt>
      <trkpt lat="45.68624787032604" lon="17.67431697808206">
        <ele>208.96</ele>
        <time>2023-10-17T00:21:20.887Z</time>
      </trkpt>
      <trkpt lat="45.68625558167696" lon="17.67430381849408">
        <ele>209.01</ele>
        <time>2023-10-17T00:21:26.487Z</time>
      </trkpt>
      <trkpt lat="45.68626329302788" lon="17.674289736896753">
        <ele>209.06</ele>
        <time>2023-10-17T00:21:32.087Z</time>
      </trkpt>
      <trkpt lat="45.686270920559764" lon="17.674274649471045">
        <ele>209.11</ele>
        <time>2023-10-17T00:21:37.688Z</time>
      </trkpt>
      <trkpt lat="45.68627846427262" lon="17.67425872385502">
        <ele>209.17</ele>
        <time>2023-10-17T00:21:43.289Z</time>
      </trkpt>
      <trkpt lat="45.68628575652838" lon="17.674241876229644">
        <ele>209.22</ele>
        <time>2023-10-17T00:21:48.891Z</time>
      </trkpt>
      <trkpt lat="45.68629288114607" lon="17.674224190413952">
        <ele>209.28</ele>
        <time>2023-10-17T00:21:54.493Z</time>
      </trkpt>
      <trkpt lat="45.686299838125706" lon="17.674205750226974">
        <ele>209.34</ele>
        <time>2023-10-17T00:22:00.096Z</time>
      </trkpt>
      <trkpt lat="45.68630687892437" lon="17.674186807125807">
        <ele>209.4</ele>
        <time>2023-10-17T00:22:05.699Z</time>
      </trkpt>
      <trkpt lat="45.686313919723034" lon="17.674167612567544">
        <ele>209.46</ele>
        <time>2023-10-17T00:22:11.303Z</time>
      </trkpt>
      <trkpt lat="45.68632104434073" lon="17.674147998914123">
        <ele>209.52</ele>
        <time>2023-10-17T00:22:16.907Z</time>
      </trkpt>
      <trkpt lat="45.68632825277746" lon="17.67412830144167">
        <ele>209.59</ele>
        <time>2023-10-17T00:22:22.512Z</time>
      </trkpt>
      <trkpt lat="45.68633537739515" lon="17.67410835251212">
        <ele>209.65</ele>
        <time>2023-10-17T00:22:28.117Z</time>
      </trkpt>
      <trkpt lat="45.68634241819382" lon="17.674086894840002">
        <ele>209.72</ele>
        <time>2023-10-17T00:22:33.723Z</time>
      </trkpt>
      <trkpt lat="45.68635054863989" lon="17.67406778410077">
        <ele>209.79</ele>
        <time>2023-10-17T00:22:39.329Z</time>
      </trkpt>
      <trkpt lat="45.68635825999081" lon="17.674048421904445">
        <ele>209.86</ele>
        <time>2023-10-17T00:22:44.936Z</time>
      </trkpt>
      <trkpt lat="45.686365803703666" lon="17.674028556793928">
        <ele>209.93</ele>
        <time>2023-10-17T00:22:50.543Z</time>
      </trkpt>
      <trkpt lat="45.68637292832136" lon="17.67400818876922">
        <ele>210.0</ele>
        <time>2023-10-17T00:22:56.151Z</time>
      </trkpt>
      <trkpt lat="45.68637955002487" lon="17.673987317830324">
        <ele>210.08</ele>
        <time>2023-10-17T00:23:01.759Z</time>
      </trkpt>
      <trkpt lat="45.68638600409031" lon="17.67396602779627">
        <ele>210.15</ele>
        <time>2023-10-17T00:23:07.368Z</time>
      </trkpt>
      <trkpt lat="45.68639203906059" lon="17.67394465394318">
        <ele>210.23</ele>
        <time>2023-10-17T00:23:12.978Z</time>
      </trkpt>
      <trkpt lat="45.686397990211844" lon="17.673923363909125">
        <ele>210.3</ele>
        <time>2023-10-17T00:23:18.588Z</time>
      </trkpt>
      <trkpt lat="45.686403941363096" lon="17.673902325332165">
        <ele>210.37</ele>
        <time>2023-10-17T00:23:24.199Z</time>
      </trkpt>
      <trkpt lat="45.68640804849565" lon="17.673878772184253">
        <ele>210.45</ele>
        <time>2023-10-17T00:23:29.810Z</time>
      </trkpt>
      <trkpt lat="45.686414670199156" lon="17.673858404159546">
        <ele>210.53</ele>
        <time>2023-10-17T00:23:35.422Z</time>
      </trkpt>
      <trkpt lat="45.68642171099782" lon="17.673838706687093">
        <ele>210.61</ele>
        <time>2023-10-17T00:23:41.034Z</time>
      </trkpt>
      <trkpt lat="45.68642917089164" lon="17.673819847404957">
        <ele>210.69</ele>
        <time>2023-10-17T00:23:46.647Z</time>
      </trkpt>
      <trkpt lat="45.68643721751869" lon="17.673802161589265">
        <ele>210.77</ele>
        <time>2023-10-17T00:23:52.260Z</time>
      </trkpt>
      <trkpt lat="45.68644559942186" lon="17.673785397782922">
        <ele>210.85</ele>
        <time>2023-10-17T00:23:57.874Z</time>
      </trkpt>
      <trkpt lat="45.686454651877284" lon="17.67377014271915">
        <ele>210.93</ele>
        <time>2023-10-17T00:24:03.488Z</time>
      </trkpt>
      <trkpt lat="45.686463955789804" lon="17.673756815493107">
        <ele>211.01</ele>
        <time>2023-10-17T00:24:09.103Z</time>
      </trkpt>
      <trkpt lat="45.68647351115942" lon="17.67374474555254">
        <ele>211.08</ele>
        <time>2023-10-17T00:24:14.718Z</time>
      </trkpt>
      <trkpt lat="45.686483066529036" lon="17.67373359762132">
        <ele>211.16</ele>
        <time>2023-10-17T00:24:20.333Z</time>
      </trkpt>
      <trkpt lat="45.68649262189865" lon="17.673723539337516">
        <ele>211.24</ele>
        <time>2023-10-17T00:24:25.949Z</time>
      </trkpt>
      <trkpt lat="45.686501674354076" lon="17.67371440306306">
        <ele>211.32</ele>
        <time>2023-10-17T00:24:31.565Z</time>
      </trkpt>
      <trkpt lat="45.68651047535241" lon="17.673706272616982">
        <ele>211.4</ele>
        <time>2023-10-17T00:24:37.182Z</time>
      </trkpt>
      <trkpt lat="45.686518773436546" lon="17.673699064180255">
        <ele>211.48</ele>
        <time>2023-10-17T00:24:42.799Z</time>
      </trkpt>
      <trkpt lat="45.68652665242553" lon="17.673692777752876">
        <ele>211.56</ele>
        <time>2023-10-17T00:24:48.416Z</time>
      </trkpt>
      <trkpt lat="45.686533860862255" lon="17.67368716187775">
        <ele>211.63</ele>
        <time>2023-10-17T00:24:54.033Z</time>
      </trkpt>
      <trkpt lat="45.68654056638479" lon="17.673682384192944">
        <ele>211.71</ele>
        <time>2023-10-17T00:24:59.651Z</time>
      </trkpt>
      <trkpt lat="45.686546517536044" lon="17.673678193241358">
        <ele>211.78</ele>
        <time>2023-10-17T00:25:05.269Z</time>
      </trkpt>
      <trkpt lat="45.68655204959214" lon="17.67367442138493">
        <ele>211.86</ele>
        <time>2023-10-17T00:25:10.887Z</time>
      </trkpt>
      <trkpt lat="45.68655699491501" lon="17.673671068623662">
        <ele>211.93</ele>
        <time>2023-10-17T00:25:16.505Z</time>
      </trkpt>
      <trkpt lat="45.68656135350466" lon="17.673668302595615">
        <ele>212.0</ele>
        <time>2023-10-17T00:25:22.123Z</time>
      </trkpt>
      <trkpt lat="45.68656495772302" lon="17.673666290938854">
        <ele>212.07</ele>
        <time>2023-10-17T00:25:27.742Z</time>
      </trkpt>
      <trkpt lat="45.68656814284623" lon="17.67366469837725">
        <ele>212.14</ele>
        <time>2023-10-17T00:25:33.361Z</time>
      </trkpt>
      <trkpt lat="45.68657065741718" lon="17.67366360872984">
        <ele>212.21</ele>
        <time>2023-10-17T00:25:38.980Z</time>
      </trkpt>
      <trkpt lat="45.68657266907394" lon="17.673662854358554">
        <ele>212.28</ele>
        <time>2023-10-17T00:25:44.599Z</time>
      </trkpt>
      <trkpt lat="45.68657409399748" lon="17.673662351444364">
        <ele>212.34</ele>
        <time>2023-10-17T00:25:50.218Z</time>
      </trkpt>
      <trkpt lat="45.68657509982586" lon="17.673662016168237">
        <ele>212.41</ele>
        <time>2023-10-17T00:25:55.837Z</time>
      </trkpt>
      <trkpt lat="45.68657577037811" lon="17.673662016168237">
        <ele>212.47</ele>
        <time>2023-10-17T00:26:01.456Z</time>
      </trkpt>
      <trkpt lat="45.686575938016176" lon="17.673662435263395">
        <ele>212.53</ele>
        <time>2023-10-17T00:26:07.075Z</time>
      </trkpt>
      <trkpt lat="45.686575854197145" lon="17.673663273453712">
        <ele>212.59</ele>
        <time>2023-10-17T00:26:12.694Z</time>
      </trkpt>
      <trkpt lat="45.68657602183521" lon="17.673663860186934">
        <ele>212.65</ele>
        <time>2023-10-17T00:26:18.313Z</time>
      </trkpt>
      <trkpt lat="45.68657602183521" lon="17.67366503365338">
        <ele>212.7</ele>
        <time>2023-10-17T00:26:23.932Z</time>
      </trkpt>
      <trkpt lat="45.686575938016176" lon="17.67366603948176">
        <ele>212.76</ele>
        <time>2023-10-17T00:26:29.551Z</time>
      </trkpt>
      <trkpt lat="45.68657568655908" lon="17.673668302595615">
        <ele>212.81</ele>
        <time>2023-10-17T00:26:35.170Z</time>
      </trkpt>
      <trkpt lat="45.68657560274005" lon="17.673670314252377">
        <ele>212.87</ele>
        <time>2023-10-17T00:26:40.789Z</time>
      </trkpt>
      <trkpt lat="45.68657560274005" lon="17.673672242090106">
        <ele>212.92</ele>
        <time>2023-10-17T00:26:46.408Z</time>
      </trkpt>
      <trkpt lat="45.686575854197145" lon="17.673673583194613">
        <ele>212.97</ele>
        <time>2023-10-17T00:26:52.027Z</time>
      </trkpt>
      <trkpt lat="45.68657644093037" lon="17.673674002289772">
        <ele>213.02</ele>
        <time>2023-10-17T00:26:57.646Z</time>
      </trkpt>
      <trkpt lat="45.68657744675875" lon="17.673673164099455">
        <ele>213.07</ele>
        <time>2023-10-17T00:27:03.265Z</time>
      </trkpt>
      <trkpt lat="45.68657912313938" lon="17.673671236261725">
        <ele>213.11</ele>
        <time>2023-10-17T00:27:08.884Z</time>
      </trkpt>
      <trkpt lat="45.68658138625324" lon="17.673667883500457">
        <ele>213.16</ele>
        <time>2023-10-17T00:27:14.503Z</time>
      </trkpt>
      <trkpt lat="45.686583649367094" lon="17.673664279282093">
        <ele>213.21</ele>
        <time>2023-10-17T00:27:20.123Z</time>
      </trkpt>
      <trkpt lat="45.68658649921417" lon="17.673659417778254">
        <ele>213.25</ele>
        <time>2023-10-17T00:27:25.743Z</time>
      </trkpt>
      <trkpt lat="45.686589516699314" lon="17.673654220998287">
        <ele>213.29</ele>
        <time>2023-10-17T00:27:31.363Z</time>
      </trkpt>
      <trkpt lat="45.68659278564155" lon="17.67364743165672">
        <ele>213.33</ele>
        <time>2023-10-17T00:27:36.983Z</time>
      </trkpt>
      <trkpt lat="45.686595970764756" lon="17.67364064231515">
        <ele>213.37</ele>
        <time>2023-10-17T00:27:42.603Z</time>
      </trkpt>
      <trkpt lat="45.68659923970699" lon="17.67363385297358">
        <ele>213.41</ele>
        <time>2023-10-17T00:27:48.223Z</time>
      </trkpt>
      <trkpt lat="45.68660234101117" lon="17.6736275665462">
        <ele>213.45</ele>
        <time>2023-10-17T00:27:53.844Z</time>
      </trkpt>
      <trkpt lat="45.686605190858245" lon="17.673622202128172">
        <ele>213.49</ele>
        <time>2023-10-17T00:27:59.465Z</time>
      </trkpt>
      <trkpt lat="45.686607705429196" lon="17.67361775971949">
        <ele>213.52</ele>
        <time>2023-10-17T00:28:05.086Z</time>
      </trkpt>
      <trkpt lat="45.68660980090499" lon="17.673614490777254">
        <ele>213.56</ele>
        <time>2023-10-17T00:28:10.707Z</time>
      </trkpt>
      <trkpt lat="45.68661147728562" lon="17.673612143844366">
        <ele>213.59</ele>
        <time>2023-10-17T00:28:16.328Z</time>
      </trkpt>
      <trkpt lat="45.68661281839013" lon="17.673610718920827">
        <ele>213.62</ele>
        <time>2023-10-17T00:28:21.949Z</time>
      </trkpt>
      <trkpt lat="45.68661382421851" lon="17.673610132187605">
        <ele>213.65</ele>
        <time>2023-10-17T00:28:27.570Z</time>
      </trkpt>
      <trkpt lat="45.6866145785898" lon="17.67360988073051">
        <ele>213.68</ele>
        <time>2023-10-17T00:28:33.191Z</time>
      </trkpt>
      <trkpt lat="45.68661516532302" lon="17.673610132187605">
        <ele>213.71</ele>
        <time>2023-10-17T00:28:38.812Z</time>
      </trkpt>
      <trkpt lat="45.68661558441818" lon="17.673610718920827">
        <ele>213.73</ele>
        <time>2023-10-17T00:28:44.433Z</time>
      </trkpt>
      <trkpt lat="45.68661608733237" lon="17.67361130565405">
        <ele>213.76</ele>
        <time>2023-10-17T00:28:50.054Z</time>
      </trkpt>
      <trkpt lat="45.68661633878946" lon="17.673612143844366">
        <ele>213.79</ele>
        <time>2023-10-17T00:28:55.675Z</time>
      </trkpt>
      <trkpt lat="45.68661684170365" lon="17.673613149672747">
        <ele>213.81</ele>
        <time>2023-10-17T00:29:01.296Z</time>
      </trkpt>
      <trkpt lat="45.68661700934172" lon="17.673614071682096">
        <ele>213.83</ele>
        <time>2023-10-17T00:29:06.917Z</time>
      </trkpt>
      <trkpt lat="45.68661751225591" lon="17.673614993691444">
        <ele>213.86</ele>
        <time>2023-10-17T00:29:12.538Z</time>
      </trkpt>
      <trkpt lat="45.686617931351066" lon="17.67361583188176">
        <ele>213.88</ele>
        <time>2023-10-17T00:29:18.159Z</time>
      </trkpt>
      <trkpt lat="45.686618350446224" lon="17.673616586253047">
        <ele>213.9</ele>
        <time>2023-10-17T00:29:23.780Z</time>
      </trkpt>
      <trkpt lat="45.686618853360415" lon="17.67361667007208">
        <ele>213.92</ele>
        <time>2023-10-17T00:29:29.401Z</time>
      </trkpt>
      <trkpt lat="45.686619356274605" lon="17.67361625097692">
        <ele>213.94</ele>
        <time>2023-10-17T00:29:35.022Z</time>
      </trkpt>
      <trkpt lat="45.68661994300783" lon="17.673615161329508">
        <ele>213.96</ele>
        <time>2023-10-17T00:29:40.643Z</time>
      </trkpt>
      <trkpt lat="45.68662052974105" lon="17.673613484948874">
        <ele>213.98</ele>
        <time>2023-10-17T00:29:46.265Z</time>
      </trkpt>
      <trkpt lat="45.68662103265524" lon="17.673611221835017">
        <ele>214.0</ele>
        <time>2023-10-17T00:29:51.887Z</time>
      </trkpt>
      <trkpt lat="45.686621367931366" lon="17.673608120530844">
        <ele>214.01</ele>
        <time>2023-10-17T00:29:57.509Z</time>
      </trkpt>
      <trkpt lat="45.686621284112334" lon="17.673604348674417">
        <ele>214.03</ele>
        <time>2023-10-17T00:30:03.131Z</time>
      </trkpt>
      <trkpt lat="45.686621367931366" lon="17.6736000739038">
        <ele>214.05</ele>
        <time>2023-10-17T00:30:08.753Z</time>
      </trkpt>
      <trkpt lat="45.68662103265524" lon="17.673595380038023">
        <ele>214.07</ele>
        <time>2023-10-17T00:30:14.375Z</time>
      </trkpt>
      <trkpt lat="45.68662052974105" lon="17.673590434715152">
        <ele>214.08</ele>
        <time>2023-10-17T00:30:19.997Z</time>
      </trkpt>
      <trkpt lat="45.68661994300783" lon="17.673585154116154">
        <ele>214.1</ele>
        <time>2023-10-17T00:30:25.619Z</time>
      </trkpt>
      <trkpt lat="45.68661927245557" lon="17.673580376431346">
        <ele>214.11</ele>
        <time>2023-10-17T00:30:31.241Z</time>
      </trkpt>
      <trkpt lat="45.68661860190332" lon="17.6735757663846">
        <ele>214.13</ele>
        <time>2023-10-17T00:30:36.863Z</time>
      </trkpt>
      <trkpt lat="45.6866180151701" lon="17.673571659252048">
        <ele>214.14</ele>
        <time>2023-10-17T00:30:42.486Z</time>
      </trkpt>
      <trkpt lat="45.686617428436875" lon="17.673567971214652">
        <ele>214.16</ele>
        <time>2023-10-17T00:30:48.109Z</time>
      </trkpt>
      <trkpt lat="45.686616925522685" lon="17.67356486991048">
        <ele>214.17</ele>
        <time>2023-10-17T00:30:53.732Z</time>
      </trkpt>
      <trkpt lat="45.68661659024656" lon="17.67356252297759">
        <ele>214.19</ele>
        <time>2023-10-17T00:30:59.355Z</time>
      </trkpt>
      <trkpt lat="45.68661633878946" lon="17.673560762777925">
        <ele>214.2</ele>
        <time>2023-10-17T00:31:04.978Z</time>
      </trkpt>
      <trkpt lat="45.6866161711514" lon="17.673559421673417">
        <ele>214.21</ele>
        <time>2023-10-17T00:31:10.601Z</time>
      </trkpt>
      <trkpt lat="45.6866161711514" lon="17.673558332026005">
        <ele>214.23</ele>
        <time>2023-10-17T00:31:16.224Z</time>
      </trkpt>
      <trkpt lat="45.6866161711514" lon="17.67355766147375">
        <ele>214.24</ele>
        <time>2023-10-17T00:31:21.847Z</time>
      </trkpt>
      <trkpt lat="45.68661625497043" lon="17.67355715855956">
        <ele>214.26</ele>
        <time>2023-10-17T00:31:27.470Z</time>
      </trkpt>
      <trkpt lat="45.68661633878946" lon="17.673556907102466">
        <ele>214.27</ele>
        <time>2023-10-17T00:31:33.093Z</time>
      </trkpt>
      <trkpt lat="45.68661650642753" lon="17.673556236550212">
        <ele>214.29</ele>
        <time>2023-10-17T00:31:38.716Z</time>
      </trkpt>
      <trkpt lat="45.68661675788462" lon="17.673555063083768">
        <ele>214.3</ele>
        <time>2023-10-17T00:31:44.339Z</time>
      </trkpt>
      <trkpt lat="45.68661700934172" lon="17.673553051427007">
        <ele>214.31</ele>
        <time>2023-10-17T00:31:49.962Z</time>
      </trkpt>
      <trkpt lat="45.68661726079881" lon="17.67355020157993">
        <ele>214.33</ele>
        <time>2023-10-17T00:31:55.585Z</time>
      </trkpt>
      <trkpt lat="45.68661759607494" lon="17.673546513542533">
        <ele>214.34</ele>
        <time>2023-10-17T00:32:01.208Z</time>
      </trkpt>
      <trkpt lat="45.6866180151701" lon="17.673542071133852">
        <ele>214.36</ele>
        <time>2023-10-17T00:32:06.831Z</time>
      </trkpt>
      <trkpt lat="45.686618434265256" lon="17.67353662289679">
        <ele>214.37</ele>
        <time>2023-10-17T00:32:12.454Z</time>
      </trkpt>
      <trkpt lat="45.68661902099848" lon="17.673530085012317">
        <ele>214.38</ele>
        <time>2023-10-17T00:32:18.078Z</time>
      </trkpt>
      <trkpt lat="45.6866196077317" lon="17.6735223736614">
        <ele>214.4</ele>
        <time>2023-10-17T00:32:23.702Z</time>
      </trkpt>
      <trkpt lat="45.686620278283954" lon="17.673513488844037">
        <ele>214.41</ele>
        <time>2023-10-17T00:32:29.326Z</time>
      </trkpt>
      <trkpt lat="45.68662111647427" lon="17.6735033467412">
        <ele>214.43</ele>
        <time>2023-10-17T00:32:34.950Z</time>
      </trkpt>
      <trkpt lat="45.68662195466459" lon="17.673492450267076">
        <ele>214.44</ele>
        <time>2023-10-17T00:32:40.574Z</time>
      </trkpt>
      <trkpt lat="45.686622792854905" lon="17.673481218516827">
        <ele>214.46</ele>
        <time>2023-10-17T00:32:46.199Z</time>
      </trkpt>
      <trkpt lat="45.686623714864254" lon="17.673469819128513">
        <ele>214.47</ele>
        <time>2023-10-17T00:32:51.824Z</time>
      </trkpt>
      <trkpt lat="45.68662455305457" lon="17.67345850355923">
        <ele>214.48</ele>
        <time>2023-10-17T00:32:57.449Z</time>
      </trkpt>
      <trkpt lat="45.68662547506392" lon="17.67344710417092">
        <ele>214.5</ele>
        <time>2023-10-17T00:33:03.074Z</time>
      </trkpt>
      <trkpt lat="45.68662631325424" lon="17.673435788601637">
        <ele>214.51</ele>
        <time>2023-10-17T00:33:08.700Z</time>
      </trkpt>
      <trkpt lat="45.68662706762552" lon="17.67342472448945">
        <ele>214.52</ele>
        <time>2023-10-17T00:33:14.326Z</time>
      </trkpt>
      <trkpt lat="45.686627738177776" lon="17.673414079472423">
        <ele>214.54</ele>
        <time>2023-10-17T00:33:19.952Z</time>
      </trkpt>
      <trkpt lat="45.68662824109197" lon="17.673403853550553">
        <ele>214.55</ele>
        <time>2023-10-17T00:33:25.578Z</time>
      </trkpt>
      <trkpt lat="45.686628660187125" lon="17.673394046723843">
        <ele>214.56</ele>
        <time>2023-10-17T00:33:31.205Z</time>
      </trkpt>
      <trkpt lat="45.68662891164422" lon="17.673384826630354">
        <ele>214.57</ele>
        <time>2023-10-17T00:33:36.832Z</time>
      </trkpt>
      <trkpt lat="45.686629163101315" lon="17.673375690355897">
        <ele>214.58</ele>
        <time>2023-10-17T00:33:42.459Z</time>
      </trkpt>
      <trkpt lat="45.68662924692035" lon="17.67336663790047">
        <ele>214.59</ele>
        <time>2023-10-17T00:33:48.086Z</time>
      </trkpt>
      <trkpt lat="45.68662941455841" lon="17.673357417806983">
        <ele>214.6</ele>
        <time>2023-10-17T00:33:53.714Z</time>
      </trkpt>
      <trkpt lat="45.68662949837744" lon="17.673348113894463">
        <ele>214.61</ele>
        <time>2023-10-17T00:33:59.342Z</time>
      </trkpt>
      <trkpt lat="45.686629666015506" lon="17.673338474705815">
        <ele>214.62</ele>
        <time>2023-10-17T00:34:04.970Z</time>
      </trkpt>
      <trkpt lat="45.68662983365357" lon="17.673328584060073">
        <ele>214.63</ele>
        <time>2023-10-17T00:34:10.598Z</time>
      </trkpt>
      <trkpt lat="45.68663000129163" lon="17.673318274319172">
        <ele>214.64</ele>
        <time>2023-10-17T00:34:16.226Z</time>
      </trkpt>
      <trkpt lat="45.68663000129163" lon="17.673307545483112">
        <ele>214.64</ele>
        <time>2023-10-17T00:34:21.855Z</time>
      </trkpt>
      <trkpt lat="45.6866299174726" lon="17.67329664900899">
        <ele>214.65</ele>
        <time>2023-10-17T00:34:27.484Z</time>
      </trkpt>
      <trkpt lat="45.686629582196474" lon="17.67328541725874">
        <ele>214.65</ele>
        <time>2023-10-17T00:34:33.113Z</time>
      </trkpt>
      <trkpt lat="45.68662891164422" lon="17.673274017870426">
        <ele>214.66</ele>
        <time>2023-10-17T00:34:38.743Z</time>
      </trkpt>
      <trkpt lat="45.68662782199681" lon="17.67326253466308">
        <ele>214.66</ele>
        <time>2023-10-17T00:34:44.373Z</time>
      </trkpt>
      <trkpt lat="45.68662631325424" lon="17.673250883817673">
        <ele>214.67</ele>
        <time>2023-10-17T00:34:50.003Z</time>
      </trkpt>
      <trkpt lat="45.686624217778444" lon="17.673239232972264">
        <ele>214.67</ele>
        <time>2023-10-17T00:34:55.633Z</time>
      </trkpt>
      <trkpt lat="45.68662153556943" lon="17.673227498307824">
        <ele>214.67</ele>
        <time>2023-10-17T00:35:01.264Z</time>
      </trkpt>
      <trkpt lat="45.686618350446224" lon="17.673215763643384">
        <ele>214.67</ele>
        <time>2023-10-17T00:35:06.895Z</time>
      </trkpt>
      <trkpt lat="45.68661466240883" lon="17.673203945159912">
        <ele>214.67</ele>
        <time>2023-10-17T00:35:12.526Z</time>
      </trkpt>
      <trkpt lat="45.68661072291434" lon="17.67319204285741">
        <ele>214.66</ele>
        <time>2023-10-17T00:35:18.158Z</time>
      </trkpt>
      <trkpt lat="45.68660644814372" lon="17.673180140554905">
        <ele>214.66</ele>
        <time>2023-10-17T00:35:23.790Z</time>
      </trkpt>
      <trkpt lat="45.686601838096976" lon="17.673167902976274">
        <ele>214.66</ele>
        <time>2023-10-17T00:35:29.422Z</time>
      </trkpt>
      <trkpt lat="45.68659722805023" lon="17.673155246302485">
        <ele>214.65</ele>
        <time>2023-10-17T00:35:35.055Z</time>
      </trkpt>
      <trkpt lat="45.686592450365424" lon="17.673142421990633">
        <ele>214.65</ele>
        <time>2023-10-17T00:35:40.688Z</time>
      </trkpt>
      <trkpt lat="45.68658784031868" lon="17.673129178583622">
        <ele>214.64</ele>
        <time>2023-10-17T00:35:46.321Z</time>
      </trkpt>
      <trkpt lat="45.68658331409097" lon="17.673115599900484">
        <ele>214.63</ele>
        <time>2023-10-17T00:35:51.955Z</time>
      </trkpt>
      <trkpt lat="45.68657912313938" lon="17.673101602122188">
        <ele>214.63</ele>
        <time>2023-10-17T00:35:57.589Z</time>
      </trkpt>
      <trkpt lat="45.686575351282954" lon="17.673087269067764">
        <ele>214.61</ele>
        <time>2023-10-17T00:36:03.223Z</time>
      </trkpt>
      <trkpt lat="45.68657183088362" lon="17.673072684556246">
        <ele>214.6</ele>
        <time>2023-10-17T00:36:08.858Z</time>
      </trkpt>
      <trkpt lat="45.68656881339848" lon="17.67305768094957">
        <ele>214.59</ele>
        <time>2023-10-17T00:36:14.493Z</time>
      </trkpt>
      <trkpt lat="45.686566131189466" lon="17.673042425885797">
        <ele>214.58</ele>
        <time>2023-10-17T00:36:20.128Z</time>
      </trkpt>
      <trkpt lat="45.68656395189464" lon="17.673026835545897">
        <ele>214.57</ele>
        <time>2023-10-17T00:36:25.764Z</time>
      </trkpt>
      <trkpt lat="45.686562191694975" lon="17.673011077567935">
        <ele>214.55</ele>
        <time>2023-10-17T00:36:31.400Z</time>
      </trkpt>
      <trkpt lat="45.6865609344095" lon="17.67299515195191">
        <ele>214.54</ele>
        <time>2023-10-17T00:36:37.036Z</time>
      </trkpt>
      <trkpt lat="45.686560180038214" lon="17.67297914251685">
        <ele>214.52</ele>
        <time>2023-10-17T00:36:42.673Z</time>
      </trkpt>
      <trkpt lat="45.68655992858112" lon="17.672963216900826">
        <ele>214.51</ele>
        <time>2023-10-17T00:36:48.310Z</time>
      </trkpt>
      <trkpt lat="45.68656001240015" lon="17.67294737510383">
        <ele>214.49</ele>
        <time>2023-10-17T00:36:53.948Z</time>
      </trkpt>
      <trkpt lat="45.68656051531434" lon="17.672931533306837">
        <ele>214.47</ele>
        <time>2023-10-17T00:36:59.586Z</time>
      </trkpt>
      <trkpt lat="45.686561269685626" lon="17.672915775328875">
        <ele>214.45</ele>
        <time>2023-10-17T00:37:05.224Z</time>
      </trkpt>
      <trkpt lat="45.686562191694975" lon="17.672900017350912">
        <ele>214.44</ele>
        <time>2023-10-17T00:37:10.863Z</time>
      </trkpt>
      <trkpt lat="45.68656328134239" lon="17.672884427011013">
        <ele>214.42</ele>
        <time>2023-10-17T00:37:16.502Z</time>
      </trkpt>
      <trkpt lat="45.68656445480883" lon="17.672869004309177">
        <ele>214.4</ele>
        <time>2023-10-17T00:37:22.141Z</time>
      </trkpt>
      <trkpt lat="45.68656579591334" lon="17.67285391688347">
        <ele>214.38</ele>
        <time>2023-10-17T00:37:27.781Z</time>
      </trkpt>
      <trkpt lat="45.68656747229397" lon="17.672839080914855">
        <ele>214.35</ele>
        <time>2023-10-17T00:37:33.421Z</time>
      </trkpt>
      <trkpt lat="45.686569483950734" lon="17.6728246640414">
        <ele>214.33</ele>
        <time>2023-10-17T00:37:39.061Z</time>
      </trkpt>
      <trkpt lat="45.68657166324556" lon="17.67281041480601">
        <ele>214.31</ele>
        <time>2023-10-17T00:37:44.702Z</time>
      </trkpt>
      <trkpt lat="45.68657417781651" lon="17.672796165570617">
        <ele>214.28</ele>
        <time>2023-10-17T00:37:50.343Z</time>
      </trkpt>
      <trkpt lat="45.68657702766359" lon="17.67278174869716">
        <ele>214.25</ele>
        <time>2023-10-17T00:37:55.985Z</time>
      </trkpt>
      <trkpt lat="45.686580212786794" lon="17.67276699654758">
        <ele>214.23</ele>
        <time>2023-10-17T00:38:01.627Z</time>
      </trkpt>
      <trkpt lat="45.686583733186126" lon="17.67275182530284">
        <ele>214.2</ele>
        <time>2023-10-17T00:38:07.269Z</time>
      </trkpt>
      <trkpt lat="45.686587588861585" lon="17.672736067324877">
        <ele>214.17</ele>
        <time>2023-10-17T00:38:12.912Z</time>
      </trkpt>
      <trkpt lat="45.68659177981317" lon="17.672719471156597">
        <ele>214.14</ele>
        <time>2023-10-17T00:38:18.555Z</time>
      </trkpt>
      <trkpt lat="45.68659630604088" lon="17.672701869159937">
        <ele>214.11</ele>
        <time>2023-10-17T00:38:24.198Z</time>
      </trkpt>
      <trkpt lat="45.68660099990666" lon="17.672683177515864">
        <ele>214.08</ele>
        <time>2023-10-17T00:38:29.842Z</time>
      </trkpt>
      <trkpt lat="45.6866058614105" lon="17.672663144767284">
        <ele>214.05</ele>
        <time>2023-10-17T00:38:35.486Z</time>
      </trkpt>
      <trkpt lat="45.68661080673337" lon="17.67264185473323">
        <ele>214.02</ele>
        <time>2023-10-17T00:38:41.131Z</time>
      </trkpt>
      <trkpt lat="45.686616003513336" lon="17.672619307413697">
        <ele>213.98</ele>
        <time>2023-10-17T00:38:46.777Z</time>
      </trkpt>
      <trkpt lat="45.686621284112334" lon="17.672595754265785">
        <ele>213.95</ele>
        <time>2023-10-17T00:38:52.423Z</time>
      </trkpt>
      <trkpt lat="45.686626732349396" lon="17.672571446746588">
        <ele>213.91</ele>
        <time>2023-10-17T00:38:58.070Z</time>
      </trkpt>
      <trkpt lat="45.68663234822452" lon="17.672546468675137">
        <ele>213.88</ele>
        <time>2023-10-17T00:39:03.717Z</time>
      </trkpt>
      <trkpt lat="45.68663821555674" lon="17.67252115532756">
        <ele>213.84</ele>
        <time>2023-10-17T00:39:09.365Z</time>
      </trkpt>
      <trkpt lat="45.686644334346056" lon="17.672495506703854">
        <ele>213.8</ele>
        <time>2023-10-17T00:39:15.014Z</time>
      </trkpt>
      <trkpt lat="45.686650620773435" lon="17.67246994189918">
        <ele>213.76</ele>
        <time>2023-10-17T00:39:20.663Z</time>
      </trkpt>
      <trkpt lat="45.68665724247694" lon="17.672444628551602">
        <ele>213.71</ele>
        <time>2023-10-17T00:39:26.313Z</time>
      </trkpt>
      <trkpt lat="45.68666419945657" lon="17.672419734299183">
        <ele>213.66</ele>
        <time>2023-10-17T00:39:31.963Z</time>
      </trkpt>
      <trkpt lat="45.6866714078933" lon="17.672395342960954">
        <ele>213.62</ele>
        <time>2023-10-17T00:39:37.614Z</time>
      </trkpt>
      <trkpt lat="45.68667878396809" lon="17.672371538355947">
        <ele>213.57</ele>
        <time>2023-10-17T00:39:43.266Z</time>
      </trkpt>
      <trkpt lat="45.68668616004288" lon="17.67234823666513">
        <ele>213.51</ele>
        <time>2023-10-17T00:39:48.918Z</time>
      </trkpt>
      <trkpt lat="45.68669336847961" lon="17.672325437888503">
        <ele>213.46</ele>
        <time>2023-10-17T00:39:54.571Z</time>
      </trkpt>
      <trkpt lat="45.686700409278274" lon="17.672303058207035">
        <ele>213.4</ele>
        <time>2023-10-17T00:40:00.224Z</time>
      </trkpt>
      <trkpt lat="45.68670719861984" lon="17.672281432896852">
        <ele>213.35</ele>
        <time>2023-10-17T00:40:05.878Z</time>
      </trkpt>
      <trkpt lat="45.68671382032335" lon="17.67226081341505">
        <ele>213.29</ele>
        <time>2023-10-17T00:40:11.533Z</time>
      </trkpt>
      <trkpt lat="45.68672019056976" lon="17.672241367399693">
        <ele>213.22</ele>
        <time>2023-10-17T00:40:17.188Z</time>
      </trkpt>
      <trkpt lat="45.6867266446352" lon="17.672223011031747">
        <ele>213.16</ele>
        <time>2023-10-17T00:40:22.844Z</time>
      </trkpt>
      <trkpt lat="45.68673293106258" lon="17.672205828130245">
        <ele>213.09</ele>
        <time>2023-10-17T00:40:28.500Z</time>
      </trkpt>
      <trkpt lat="45.68673921748996" lon="17.672189734876156">
        <ele>213.02</ele>
        <time>2023-10-17T00:40:34.156Z</time>
      </trkpt>
      <trkpt lat="45.686745420098305" lon="17.672174479812384">
        <ele>212.94</ele>
        <time>2023-10-17T00:40:39.813Z</time>
      </trkpt>
      <trkpt lat="45.68675162270665" lon="17.672159895300865">
        <ele>212.87</ele>
        <time>2023-10-17T00:40:45.470Z</time>
      </trkpt>
      <trkpt lat="45.68675790913403" lon="17.6721459813416">
        <ele>212.79</ele>
        <time>2023-10-17T00:40:51.128Z</time>
      </trkpt>
      <trkpt lat="45.68676427938044" lon="17.672132905572653">
        <ele>212.71</ele>
        <time>2023-10-17T00:40:56.786Z</time>
      </trkpt>
      <trkpt lat="45.68677106872201" lon="17.672120248898864">
        <ele>212.63</ele>
        <time>2023-10-17T00:41:02.444Z</time>
      </trkpt>
      <trkpt lat="45.68677802570164" lon="17.672107759863138">
        <ele>212.55</ele>
        <time>2023-10-17T00:41:08.103Z</time>
      </trkpt>
      <trkpt lat="45.68678515031934" lon="17.672095019370317">
        <ele>212.46</ele>
        <time>2023-10-17T00:41:13.762Z</time>
      </trkpt>
      <trkpt lat="45.68679252639413" lon="17.67208152450621">
        <ele>212.38</ele>
        <time>2023-10-17T00:41:19.421Z</time>
      </trkpt>
      <trkpt lat="45.68679981864989" lon="17.672067191451788">
        <ele>212.28</ele>
        <time>2023-10-17T00:41:25.081Z</time>
      </trkpt>
      <trkpt lat="45.686807027086616" lon="17.672051936388016">
        <ele>212.19</ele>
        <time>2023-10-17T00:41:30.741Z</time>
      </trkpt>
      <trkpt lat="45.686814319342375" lon="17.672035675495863">
        <ele>212.1</ele>
        <time>2023-10-17T00:41:36.402Z</time>
      </trkpt>
      <trkpt lat="45.6868215277791" lon="17.672018744051456">
        <ele>212.0</ele>
        <time>2023-10-17T00:41:42.063Z</time>
      </trkpt>
      <trkpt lat="45.68682873621583" lon="17.67200130969286">
        <ele>211.9</ele>
        <time>2023-10-17T00:41:47.725Z</time>
      </trkpt>
      <trkpt lat="45.686835860833526" lon="17.671983623877168">
        <ele>211.79</ele>
        <time>2023-10-17T00:41:53.387Z</time>
      </trkpt>
      <trkpt lat="45.686842650175095" lon="17.671965518966317">
        <ele>211.68</ele>
        <time>2023-10-17T00:41:59.050Z</time>
      </trkpt>
      <trkpt lat="45.686849020421505" lon="17.671947330236435">
        <ele>211.57</ele>
        <time>2023-10-17T00:42:04.713Z</time>
      </trkpt>
      <trkpt lat="45.68685513921082" lon="17.671929392963648">
        <ele>211.46</ele>
        <time>2023-10-17T00:42:10.377Z</time>
      </trkpt>
      <trkpt lat="45.68686083890498" lon="17.671911707147956">
        <ele>211.34</ele>
        <time>2023-10-17T00:42:16.041Z</time>
      </trkpt>
      <trkpt lat="45.68686620332301" lon="17.671894608065486">
        <ele>211.22</ele>
        <time>2023-10-17T00:42:21.706Z</time>
      </trkpt>
      <trkpt lat="45.68687114864588" lon="17.67187817953527">
        <ele>211.1</ele>
        <time>2023-10-17T00:42:27.371Z</time>
      </trkpt>
      <trkpt lat="45.68687559105456" lon="17.671862337738276">
        <ele>210.97</ele>
        <time>2023-10-17T00:42:33.036Z</time>
      </trkpt>
      <trkpt lat="45.68687953054905" lon="17.671847250312567">
        <ele>210.84</ele>
        <time>2023-10-17T00:42:38.702Z</time>
      </trkpt>
      <trkpt lat="45.68688305094838" lon="17.67183266580105">
        <ele>210.71</ele>
        <time>2023-10-17T00:42:44.368Z</time>
      </trkpt>
      <trkpt lat="45.68688606843352" lon="17.671818751841784">
        <ele>210.58</ele>
        <time>2023-10-17T00:42:50.034Z</time>
      </trkpt>
      <trkpt lat="45.68688883446157" lon="17.671805592253804">
        <ele>210.44</ele>
        <time>2023-10-17T00:42:55.701Z</time>
      </trkpt>
      <trkpt lat="45.686891516670585" lon="17.671793354675174">
        <ele>210.31</ele>
        <time>2023-10-17T00:43:01.368Z</time>
      </trkpt>
      <trkpt lat="45.68689411506057" lon="17.67178195528686">
        <ele>210.17</ele>
        <time>2023-10-17T00:43:07.035Z</time>
      </trkpt>
      <trkpt lat="45.686896461993456" lon="17.671771310269833">
        <ele>210.02</ele>
        <time>2023-10-17T00:43:12.703Z</time>
      </trkpt>
      <trkpt lat="45.68689872510731" lon="17.67176141962409">
        <ele>209.88</ele>
        <time>2023-10-17T00:43:18.371Z</time>
      </trkpt>
      <trkpt lat="45.686900820583105" lon="17.671751948073506">
        <ele>209.74</ele>
        <time>2023-10-17T00:43:24.039Z</time>
      </trkpt>
      <trkpt lat="45.6869026646018" lon="17.671742644160986">
        <ele>209.59</ele>
        <time>2023-10-17T00:43:29.707Z</time>
      </trkpt>
      <trkpt lat="45.6869045086205" lon="17.67173350788653">
        <ele>209.44</ele>
        <time>2023-10-17T00:43:35.375Z</time>
      </trkpt>
      <trkpt lat="45.6869063526392" lon="17.67172420397401">
        <ele>209.29</ele>
        <time>2023-10-17T00:43:41.044Z</time>
      </trkpt>
      <trkpt lat="45.686908196657896" lon="17.671714900061488">
        <ele>209.14</ele>
        <time>2023-10-17T00:43:46.713Z</time>
      </trkpt>
      <trkpt lat="45.686910124495625" lon="17.67170517705381">
        <ele>208.99</ele>
        <time>2023-10-17T00:43:52.382Z</time>
      </trkpt>
      <trkpt lat="45.68691213615239" lon="17.67169495113194">
        <ele>208.84</ele>
        <time>2023-10-17T00:43:58.051Z</time>
      </trkpt>
      <trkpt lat="45.686914063990116" lon="17.67168371938169">
        <ele>208.69</ele>
        <time>2023-10-17T00:44:03.721Z</time>
      </trkpt>
      <trkpt lat="45.68691607564688" lon="17.67167156562209">
        <ele>208.53</ele>
        <time>2023-10-17T00:44:09.391Z</time>
      </trkpt>
      <trkpt lat="45.68691808730364" lon="17.67165832221508">
        <ele>208.38</ele>
        <time>2023-10-17T00:44:15.061Z</time>
      </trkpt>
      <trkpt lat="45.68692018277943" lon="17.671643905341625">
        <ele>208.22</ele>
        <time>2023-10-17T00:44:20.732Z</time>
      </trkpt>
      <trkpt lat="45.686922362074256" lon="17.67162848263979">
        <ele>208.06</ele>
        <time>2023-10-17T00:44:26.403Z</time>
      </trkpt>
      <trkpt lat="45.68692445755005" lon="17.671612221747637">
        <ele>207.9</ele>
        <time>2023-10-17T00:44:32.074Z</time>
      </trkpt>
      <trkpt lat="45.68692680448294" lon="17.6715952064842">
        <ele>207.74</ele>
        <time>2023-10-17T00:44:37.746Z</time>
      </trkpt>
      <trkpt lat="45.686929151415825" lon="17.671577520668507">
        <ele>207.58</ele>
        <time>2023-10-17T00:44:43.418Z</time>
      </trkpt>
      <trkpt lat="45.68693149834871" lon="17.67155916430056">
        <ele>207.42</ele>
        <time>2023-10-17T00:44:49.091Z</time>
      </trkpt>
      <trkpt lat="45.686934012919664" lon="17.671539969742298">
        <ele>207.26</ele>
        <time>2023-10-17T00:44:54.764Z</time>
      </trkpt>
      <trkpt lat="45.686936527490616" lon="17.67152002081275">
        <ele>207.1</ele>
        <time>2023-10-17T00:45:00.438Z</time>
      </trkpt>
      <trkpt lat="45.6869391258806" lon="17.671499401330948">
        <ele>206.94</ele>
        <time>2023-10-17T00:45:06.112Z</time>
      </trkpt>
      <trkpt lat="45.68694164045155" lon="17.671478195115924">
        <ele>206.78</ele>
        <time>2023-10-17T00:45:11.787Z</time>
      </trkpt>
      <trkpt lat="45.6869441550225" lon="17.67145648598671">
        <ele>206.62</ele>
        <time>2023-10-17T00:45:17.462Z</time>
      </trkpt>
      <trkpt lat="45.686946753412485" lon="17.67143444158137">
        <ele>206.47</ele>
        <time>2023-10-17T00:45:23.138Z</time>
      </trkpt>
      <trkpt lat="45.68694951944053" lon="17.6714120618999">
        <ele>206.31</ele>
        <time>2023-10-17T00:45:28.814Z</time>
      </trkpt>
      <trkpt lat="45.68695228546858" lon="17.67138951458037">
        <ele>206.16</ele>
        <time>2023-10-17T00:45:34.491Z</time>
      </trkpt>
      <trkpt lat="45.68695513531566" lon="17.671366883441806">
        <ele>206.02</ele>
        <time>2023-10-17T00:45:40.168Z</time>
      </trkpt>
      <trkpt lat="45.686957985162735" lon="17.67134408466518">
        <ele>205.87</ele>
        <time>2023-10-17T00:45:45.846Z</time>
      </trkpt>
      <trkpt lat="45.68696083500981" lon="17.671321285888553">
        <ele>205.72</ele>
        <time>2023-10-17T00:45:51.524Z</time>
      </trkpt>
      <trkpt lat="45.68696368485689" lon="17.671298990026116">
        <ele>205.58</ele>
        <time>2023-10-17T00:45:57.203Z</time>
      </trkpt>
      <trkpt lat="45.686966618523" lon="17.671277029439807">
        <ele>205.44</ele>
        <time>2023-10-17T00:46:02.882Z</time>
      </trkpt>
      <trkpt lat="45.686969719827175" lon="17.671255404129624">
        <ele>205.3</ele>
        <time>2023-10-17T00:46:08.562Z</time>
      </trkpt>
      <trkpt lat="45.686973072588444" lon="17.671234281733632">
        <ele>205.17</ele>
        <time>2023-10-17T00:46:14.242Z</time>
      </trkpt>
      <trkpt lat="45.68697667680681" lon="17.671213410794735">
        <ele>205.04</ele>
        <time>2023-10-17T00:46:19.923Z</time>
      </trkpt>
      <trkpt lat="45.686980532482266" lon="17.671192958950996">
        <ele>204.91</ele>
        <time>2023-10-17T00:46:25.604Z</time>
      </trkpt>
      <trkpt lat="45.68698455579579" lon="17.67117259092629">
        <ele>204.78</ele>
        <time>2023-10-17T00:46:31.286Z</time>
      </trkpt>
      <trkpt lat="45.686988746747375" lon="17.671152390539646">
        <ele>204.66</ele>
        <time>2023-10-17T00:46:36.968Z</time>
      </trkpt>
      <trkpt lat="45.68699302151799" lon="17.671132190153003">
        <ele>204.55</ele>
        <time>2023-10-17T00:46:42.651Z</time>
      </trkpt>
      <trkpt lat="45.68699746392667" lon="17.67111198976636">
        <ele>204.43</ele>
        <time>2023-10-17T00:46:48.334Z</time>
      </trkpt>
      <trkpt lat="45.687001990154386" lon="17.671091621741652">
        <ele>204.33</ele>
        <time>2023-10-17T00:46:54.018Z</time>
      </trkpt>
      <trkpt lat="45.68700668402016" lon="17.67107100225985">
        <ele>204.22</ele>
        <time>2023-10-17T00:46:59.702Z</time>
      </trkpt>
      <trkpt lat="45.68701137788594" lon="17.671050298959017">
        <ele>204.12</ele>
        <time>2023-10-17T00:47:05.387Z</time>
      </trkpt>
      <trkpt lat="45.687016071751714" lon="17.671029344201088">
        <ele>204.02</ele>
        <time>2023-10-17T00:47:11.072Z</time>
      </trkpt>
      <trkpt lat="45.68702068179846" lon="17.671008054167032">
        <ele>203.93</ele>
        <time>2023-10-17T00:47:16.758Z</time>
      </trkpt>
      <trkpt lat="45.68702520802617" lon="17.670986596494913">
        <ele>203.84</ele>
        <time>2023-10-17T00:47:22.444Z</time>
      </trkpt>
      <trkpt lat="45.68702965043485" lon="17.67096497118473">
        <ele>203.75</ele>
        <time>2023-10-17T00:47:28.131Z</time>
      </trkpt>
      <trkpt lat="45.68703409284353" lon="17.670943262055516">
        <ele>203.67</ele>
        <time>2023-10-17T00:47:33.818Z</time>
      </trkpt>
      <trkpt lat="45.68703845143318" lon="17.670921720564365">
        <ele>203.59</ele>
        <time>2023-10-17T00:47:39.506Z</time>
      </trkpt>
      <trkpt lat="45.687042977660894" lon="17.670900179073215">
        <ele>203.51</ele>
        <time>2023-10-17T00:47:45.195Z</time>
      </trkpt>
      <trkpt lat="45.68704758770764" lon="17.670878637582064">
        <ele>203.44</ele>
        <time>2023-10-17T00:47:50.884Z</time>
      </trkpt>
      <trkpt lat="45.68705219775438" lon="17.670857347548008">
        <ele>203.37</ele>
        <time>2023-10-17T00:47:56.574Z</time>
      </trkpt>
      <trkpt lat="45.68705697543919" lon="17.670836308971047">
        <ele>203.31</ele>
        <time>2023-10-17T00:48:02.264Z</time>
      </trkpt>
      <trkpt lat="45.68706183694303" lon="17.670815521851182">
        <ele>203.25</ele>
        <time>2023-10-17T00:48:07.955Z</time>
      </trkpt>
      <trkpt lat="45.6870667822659" lon="17.670795070007443">
        <ele>203.2</ele>
        <time>2023-10-17T00:48:13.646Z</time>
      </trkpt>
      <trkpt lat="45.68707164376974" lon="17.670775037258863">
        <ele>203.15</ele>
        <time>2023-10-17T00:48:19.338Z</time>
      </trkpt>
      <trkpt lat="45.687076672911644" lon="17.670755423605442">
        <ele>203.1</ele>
        <time>2023-10-17T00:48:25.030Z</time>
      </trkpt>
      <trkpt lat="45.68708170205355" lon="17.670736061409116">
        <ele>203.06</ele>
        <time>2023-10-17T00:48:30.723Z</time>
      </trkpt>
      <trkpt lat="45.68708664737642" lon="17.670717369765043">
        <ele>203.02</ele>
        <time>2023-10-17T00:48:36.416Z</time>
      </trkpt>
      <trkpt lat="45.68709159269929" lon="17.670699348673224">
        <ele>202.98</ele>
        <time>2023-10-17T00:48:42.110Z</time>
      </trkpt>
      <trkpt lat="45.68709645420313" lon="17.67068250104785">
        <ele>202.95</ele>
        <time>2023-10-17T00:48:47.804Z</time>
      </trkpt>
      <trkpt lat="45.68710098043084" lon="17.670666994526982">
        <ele>202.92</ele>
        <time>2023-10-17T00:48:53.498Z</time>
      </trkpt>
      <trkpt lat="45.687105087563396" lon="17.67065266147256">
        <ele>202.89</ele>
        <time>2023-10-17T00:48:59.193Z</time>
      </trkpt>
      <trkpt lat="45.68710869178176" lon="17.67063992097974">
        <ele>202.86</ele>
        <time>2023-10-17T00:49:04.888Z</time>
      </trkpt>
      <trkpt lat="45.687111457809806" lon="17.670629108324647">
        <ele>202.84</ele>
        <time>2023-10-17T00:49:10.583Z</time>
      </trkpt>
      <trkpt lat="45.6871135532856" lon="17.670620223507285">
        <ele>202.83</ele>
        <time>2023-10-17T00:49:16.278Z</time>
      </trkpt>
      <trkpt lat="45.68711522966623" lon="17.670613015070558">
        <ele>202.81</ele>
        <time>2023-10-17T00:49:21.974Z</time>
      </trkpt>
      <trkpt lat="45.68711648695171" lon="17.6706073153764">
        <ele>202.8</ele>
        <time>2023-10-17T00:49:27.670Z</time>
      </trkpt>
      <trkpt lat="45.687117241322994" lon="17.670603208243847">
        <ele>202.79</ele>
        <time>2023-10-17T00:49:33.366Z</time>
      </trkpt>
      <trkpt lat="45.68711766041815" lon="17.67060035839677">
        <ele>202.79</ele>
        <time>2023-10-17T00:49:39.062Z</time>
      </trkpt>
      <trkpt lat="45.68711766041815" lon="17.670598682016134">
        <ele>202.79</ele>
        <time>2023-10-17T00:49:44.758Z</time>
      </trkpt>
      <trkpt lat="45.68711757659912" lon="17.670597676187754">
        <ele>202.79</ele>
        <time>2023-10-17T00:49:50.454Z</time>
      </trkpt>
      <trkpt lat="45.68711749278009" lon="17.67059708945453">
        <ele>202.8</ele>
        <time>2023-10-17T00:49:56.150Z</time>
      </trkpt>
      <trkpt lat="45.68711766041815" lon="17.6705970056355">
        <ele>202.81</ele>
        <time>2023-10-17T00:50:01.846Z</time>
      </trkpt>
      <trkpt lat="45.687118247151375" lon="17.670597173273563">
        <ele>202.82</ele>
        <time>2023-10-17T00:50:07.542Z</time>
      </trkpt>
      <trkpt lat="45.68711958825588" lon="17.670597340911627">
        <ele>202.83</ele>
        <time>2023-10-17T00:50:13.238Z</time>
      </trkpt>
      <trkpt lat="45.68712151609361" lon="17.670597592368722">
        <ele>202.84</ele>
        <time>2023-10-17T00:50:18.934Z</time>
      </trkpt>
      <trkpt lat="45.68712403066456" lon="17.670597676187754">
        <ele>202.86</ele>
        <time>2023-10-17T00:50:24.630Z</time>
      </trkpt>
      <trkpt lat="45.68712713196874" lon="17.670597592368722">
        <ele>202.88</ele>
        <time>2023-10-17T00:50:30.326Z</time>
      </trkpt>
      <trkpt lat="45.687130987644196" lon="17.670597340911627">
        <ele>202.9</ele>
        <time>2023-10-17T00:50:36.023Z</time>
      </trkpt>
      <trkpt lat="45.68713559769094" lon="17.670596837997437">
        <ele>202.92</ele>
        <time>2023-10-17T00:50:41.720Z</time>
      </trkpt>
      <trkpt lat="45.687141045928" lon="17.670595915988088">
        <ele>202.95</ele>
        <time>2023-10-17T00:50:47.417Z</time>
      </trkpt>
      <trkpt lat="45.687147080898285" lon="17.670594658702612">
        <ele>202.97</ele>
        <time>2023-10-17T00:50:53.114Z</time>
      </trkpt>
      <trkpt lat="45.68715378642082" lon="17.670592898502946">
        <ele>203.0</ele>
        <time>2023-10-17T00:50:58.811Z</time>
      </trkpt>
      <trkpt lat="45.68716091103852" lon="17.670590803027153">
        <ele>203.03</ele>
        <time>2023-10-17T00:51:04.509Z</time>
      </trkpt>
      <trkpt lat="45.68716845475137" lon="17.670588120818138">
        <ele>203.06</ele>
        <time>2023-10-17T00:51:10.207Z</time>
      </trkpt>
      <trkpt lat="45.687176417559385" lon="17.670584684237838">
        <ele>203.09</ele>
        <time>2023-10-17T00:51:15.905Z</time>
      </trkpt>
      <trkpt lat="45.68718488328159" lon="17.670580493286252">
        <ele>203.12</ele>
        <time>2023-10-17T00:51:21.603Z</time>
      </trkpt>
      <trkpt lat="45.68719376809895" lon="17.670575799420476">
        <ele>203.15</ele>
        <time>2023-10-17T00:51:27.302Z</time>
      </trkpt>
      <trkpt lat="45.68720298819244" lon="17.670570435002446">
        <ele>203.18</ele>
        <time>2023-10-17T00:51:33.001Z</time>
      </trkpt>
      <trkpt lat="45.68721245974302" lon="17.670564483851194">
        <ele>203.21</ele>
        <time>2023-10-17T00:51:38.700Z</time>
      </trkpt>
      <trkpt lat="45.6872221827507" lon="17.67055794596672">
        <ele>203.25</ele>
        <time>2023-10-17T00:51:44.400Z</time>
      </trkpt>
      <trkpt lat="45.68723198957741" lon="17.67055115662515">
        <ele>203.28</ele>
        <time>2023-10-17T00:51:50.100Z</time>
      </trkpt>
      <trkpt lat="45.68724196404219" lon="17.670544367283583">
        <ele>203.31</ele>
        <time>2023-10-17T00:51:55.800Z</time>
      </trkpt>
      <trkpt lat="45.68725193850696" lon="17.670538080856204">
        <ele>203.34</ele>
        <time>2023-10-17T00:52:01.501Z</time>
      </trkpt>
      <trkpt lat="45.6872620806098" lon="17.670532800257206">
        <ele>203.38</ele>
        <time>2023-10-17T00:52:07.202Z</time>
      </trkpt>
      <trkpt lat="45.68727197125554" lon="17.670528441667557">
        <ele>203.41</ele>
        <time>2023-10-17T00:52:12.904Z</time>
      </trkpt>
      <trkpt lat="45.687281526625156" lon="17.670525340363383">
        <ele>203.44</ele>
        <time>2023-10-17T00:52:18.606Z</time>
      </trkpt>
      <trkpt lat="45.68729066289961" lon="17.670523412525654">
        <ele>203.47</ele>
        <time>2023-10-17T00:52:24.308Z</time>
      </trkpt>
      <trkpt lat="45.68729921244085" lon="17.670522909611464">
        <ele>203.5</ele>
        <time>2023-10-17T00:52:30.010Z</time>
      </trkpt>
      <trkpt lat="45.68730725906789" lon="17.670523915439844">
        <ele>203.53</ele>
        <time>2023-10-17T00:52:35.713Z</time>
      </trkpt>
      <trkpt lat="45.68731455132365" lon="17.670526513829827">
        <ele>203.55</ele>
        <time>2023-10-17T00:52:41.416Z</time>
      </trkpt>
      <trkpt lat="45.68732134066522" lon="17.670530704781413">
        <ele>203.58</ele>
        <time>2023-10-17T00:52:47.119Z</time>
      </trkpt>
      <trkpt lat="45.687327375635505" lon="17.670536236837506">
        <ele>203.6</ele>
        <time>2023-10-17T00:52:52.822Z</time>
      </trkpt>
      <trkpt lat="45.687332823872566" lon="17.67054269090295">
        <ele>203.62</ele>
        <time>2023-10-17T00:52:58.526Z</time>
      </trkpt>
      <trkpt lat="45.68733785301447" lon="17.67054964788258">
        <ele>203.64</ele>
        <time>2023-10-17T00:53:04.230Z</time>
      </trkpt>
      <trkpt lat="45.68734246306121" lon="17.670556604862213">
        <ele>203.66</ele>
        <time>2023-10-17T00:53:09.934Z</time>
      </trkpt>
      <trkpt lat="45.68734707310796" lon="17.670563645660877">
        <ele>203.68</ele>
        <time>2023-10-17T00:53:15.638Z</time>
      </trkpt>
      <trkpt lat="45.687351850792766" lon="17.670570435002446">
        <ele>203.69</ele>
        <time>2023-10-17T00:53:21.343Z</time>
      </trkpt>
      <trkpt lat="45.687356712296605" lon="17.670576805248857">
        <ele>203.7</ele>
        <time>2023-10-17T00:53:27.048Z</time>
      </trkpt>
      <trkpt lat="45.687362076714635" lon="17.670582672581077">
        <ele>203.71</ele>
        <time>2023-10-17T00:53:32.753Z</time>
      </trkpt>
      <trkpt lat="45.687367524951696" lon="17.670587869361043">
        <ele>203.71</ele>
        <time>2023-10-17T00:53:38.458Z</time>
      </trkpt>
      <trkpt lat="45.68737347610295" lon="17.670592395588756">
        <ele>203.71</ele>
        <time>2023-10-17T00:53:44.163Z</time>
      </trkpt>
      <trkpt lat="45.68737993016839" lon="17.670596251264215">
        <ele>203.71</ele>
        <time>2023-10-17T00:53:49.869Z</time>
      </trkpt>
      <trkpt lat="45.68738688714802" lon="17.67059952020645">
        <ele>203.71</ele>
        <time>2023-10-17T00:53:55.575Z</time>
      </trkpt>
      <trkpt lat="45.68739409558475" lon="17.670602118596435">
        <ele>203.7</ele>
        <time>2023-10-17T00:54:01.281Z</time>
      </trkpt>
      <trkpt lat="45.687401723116636" lon="17.67060429789126">
        <ele>203.69</ele>
        <time>2023-10-17T00:54:06.987Z</time>
      </trkpt>
      <trkpt lat="45.68740960210562" lon="17.6706057228148">
        <ele>203.68</ele>
        <time>2023-10-17T00:54:12.694Z</time>
      </trkpt>
      <trkpt lat="45.68741764873266" lon="17.670606644824147">
        <ele>203.66</ele>
        <time>2023-10-17T00:54:18.401Z</time>
      </trkpt>
      <trkpt lat="45.687425611540675" lon="17.670606980100274">
        <ele>203.64</ele>
        <time>2023-10-17T00:54:24.108Z</time>
      </trkpt>
      <trkpt lat="45.687433490529656" lon="17.670606561005116">
        <ele>203.61</ele>
        <time>2023-10-17T00:54:29.816Z</time>
      </trkpt>
      <trkpt lat="45.68744111806154" lon="17.670605638995767">
        <ele>203.58</ele>
        <time>2023-10-17T00:54:35.524Z</time>
      </trkpt>
      <trkpt lat="45.6874486617744" lon="17.670604130253196">
        <ele>203.55</ele>
        <time>2023-10-17T00:54:41.232Z</time>
      </trkpt>
      <trkpt lat="45.68745570257306" lon="17.670602034777403">
        <ele>203.51</ele>
        <time>2023-10-17T00:54:46.940Z</time>
      </trkpt>
      <trkpt lat="45.6874624080956" lon="17.670599268749356">
        <ele>203.47</ele>
        <time>2023-10-17T00:54:52.648Z</time>
      </trkpt>
      <trkpt lat="45.68746877834201" lon="17.670595832169056">
        <ele>203.42</ele>
        <time>2023-10-17T00:54:58.357Z</time>
      </trkpt>
      <trkpt lat="45.687474897131324" lon="17.670591808855534">
        <ele>203.37</ele>
        <time>2023-10-17T00:55:04.066Z</time>
      </trkpt>
      <trkpt lat="45.68748093210161" lon="17.670587031170726">
        <ele>203.32</ele>
        <time>2023-10-17T00:55:09.775Z</time>
      </trkpt>
      <trkpt lat="45.68748679943383" lon="17.670581582933664">
        <ele>203.26</ele>
        <time>2023-10-17T00:55:15.484Z</time>
      </trkpt>
      <trkpt lat="45.687492582947016" lon="17.670575380325317">
        <ele>203.2</ele>
        <time>2023-10-17T00:55:21.194Z</time>
      </trkpt>
      <trkpt lat="45.687498366460204" lon="17.67056859098375">
        <ele>203.13</ele>
        <time>2023-10-17T00:55:26.904Z</time>
      </trkpt>
      <trkpt lat="45.687504233792424" lon="17.670561131089926">
        <ele>203.06</ele>
        <time>2023-10-17T00:55:32.614Z</time>
      </trkpt>
      <trkpt lat="45.68751035258174" lon="17.670553252100945">
        <ele>202.98</ele>
        <time>2023-10-17T00:55:38.324Z</time>
      </trkpt>
      <trkpt lat="45.68751672282815" lon="17.670544954016805">
        <ele>202.9</ele>
        <time>2023-10-17T00:55:44.035Z</time>
      </trkpt>
      <trkpt lat="45.687523344531655" lon="17.670536572113633">
        <ele>202.81</ele>
        <time>2023-10-17T00:55:49.746Z</time>
      </trkpt>
      <trkpt lat="45.68753038533032" lon="17.67052810639143">
        <ele>202.72</ele>
        <time>2023-10-17T00:55:55.457Z</time>
      </trkpt>
      <trkpt lat="45.68753767758608" lon="17.67051972448826">
        <ele>202.62</ele>
        <time>2023-10-17T00:56:01.169Z</time>
      </trkpt>
      <trkpt lat="45.68754522129893" lon="17.670511594042182">
        <ele>202.52</ele>
        <time>2023-10-17T00:56:06.881Z</time>
      </trkpt>
      <trkpt lat="45.68755301646888" lon="17.6705037150532">
        <ele>202.41</ele>
        <time>2023-10-17T00:56:12.593Z</time>
      </trkpt>
      <trkpt lat="45.68756106309593" lon="17.670496255159378">
        <ele>202.3</ele>
        <time>2023-10-17T00:56:18.306Z</time>
      </trkpt>
      <trkpt lat="45.687569277361035" lon="17.670489130541682">
        <ele>202.19</ele>
        <time>2023-10-17T00:56:24.019Z</time>
      </trkpt>
      <trkpt lat="45.68757765926421" lon="17.670482508838177">
        <ele>202.07</ele>
        <time>2023-10-17T00:56:29.732Z</time>
      </trkpt>
      <trkpt lat="45.68758604116738" lon="17.67047639004886">
        <ele>201.95</ele>
        <time>2023-10-17T00:56:35.446Z</time>
      </trkpt>
      <trkpt lat="45.68759450688958" lon="17.67047085799277">
        <ele>201.83</ele>
        <time>2023-10-17T00:56:41.160Z</time>
      </trkpt>
      <trkpt lat="45.68760305643082" lon="17.670465745031834">
        <ele>201.7</ele>
        <time>2023-10-17T00:56:46.874Z</time>
      </trkpt>
      <trkpt lat="45.68761143833399" lon="17.670461051166058">
        <ele>201.57</ele>
        <time>2023-10-17T00:56:52.588Z</time>
      </trkpt>
      <trkpt lat="45.68761982023716" lon="17.670456860214472">
        <ele>201.43</ele>
        <time>2023-10-17T00:56:58.303Z</time>
      </trkpt>
      <trkpt lat="45.6876281183213" lon="17.670453004539013">
        <ele>201.3</ele>
        <time>2023-10-17T00:57:04.018Z</time>
      </trkpt>
      <trkpt lat="45.68763641640544" lon="17.67044940032065">
        <ele>201.16</ele>
        <time>2023-10-17T00:57:09.733Z</time>
      </trkpt>
      <trkpt lat="45.68764429539442" lon="17.67044604755938">
        <ele>201.01</ele>
        <time>2023-10-17T00:57:15.449Z</time>
      </trkpt>
      <trkpt lat="45.68765209056437" lon="17.670442946255207">
        <ele>200.87</ele>
        <time>2023-10-17T00:57:21.165Z</time>
      </trkpt>
      <trkpt lat="45.687659634277225" lon="17.670439761132002">
        <ele>200.72</ele>
        <time>2023-10-17T00:57:26.881Z</time>
      </trkpt>
      <trkpt lat="45.687666926532984" lon="17.670436576008797">
        <ele>200.57</ele>
        <time>2023-10-17T00:57:32.597Z</time>
      </trkpt>
      <trkpt lat="45.687673883512616" lon="17.670432971790433">
        <ele>200.42</ele>
        <time>2023-10-17T00:57:38.314Z</time>
      </trkpt>
      <trkpt lat="45.687680672854185" lon="17.670428780838847">
        <ele>200.26</ele>
        <time>2023-10-17T00:57:44.031Z</time>
      </trkpt>
      <trkpt lat="45.68768729455769" lon="17.670423919335008">
        <ele>200.1</ele>
        <time>2023-10-17T00:57:49.748Z</time>
      </trkpt>
      <trkpt lat="45.687693916261196" lon="17.67041821964085">
        <ele>199.95</ele>
        <time>2023-10-17T00:57:55.465Z</time>
      </trkpt>
      <trkpt lat="45.68770045414567" lon="17.67041176557541">
        <ele>199.78</ele>
        <time>2023-10-17T00:58:01.183Z</time>
      </trkpt>
      <trkpt lat="45.687706992030144" lon="17.67040447331965">
        <ele>199.62</ele>
        <time>2023-10-17T00:58:06.901Z</time>
      </trkpt>
      <trkpt lat="45.68771369755268" lon="17.670396510511637">
        <ele>199.46</ele>
        <time>2023-10-17T00:58:12.619Z</time>
      </trkpt>
      <trkpt lat="45.68772048689425" lon="17.67038779333234">
        <ele>199.29</ele>
        <time>2023-10-17T00:58:18.338Z</time>
      </trkpt>
      <trkpt lat="45.68772744387388" lon="17.670378489419818">
        <ele>199.12</ele>
        <time>2023-10-17T00:58:24.057Z</time>
      </trkpt>
      <trkpt lat="45.687734484672546" lon="17.670368682593107">
        <ele>198.95</ele>
        <time>2023-10-17T00:58:29.776Z</time>
      </trkpt>
      <trkpt lat="45.687741693109274" lon="17.670358456671238">
        <ele>198.78</ele>
        <time>2023-10-17T00:58:35.496Z</time>
      </trkpt>
      <trkpt lat="45.687748901546" lon="17.670348146930337">
        <ele>198.61</ele>
        <time>2023-10-17T00:58:41.216Z</time>
      </trkpt>
      <trkpt lat="45.68775619380176" lon="17.670337837189436">
        <ele>198.44</ele>
        <time>2023-10-17T00:58:46.936Z</time>
      </trkpt>
      <trkpt lat="45.68776356987655" lon="17.6703276950866">
        <ele>198.27</ele>
        <time>2023-10-17T00:58:52.657Z</time>
      </trkpt>
      <trkpt lat="45.68777086213231" lon="17.670317636802793">
        <ele>198.1</ele>
        <time>2023-10-17T00:58:58.378Z</time>
      </trkpt>
      <trkpt lat="45.6877782382071" lon="17.67030766233802">
        <ele>197.93</ele>
        <time>2023-10-17T00:59:04.099Z</time>
      </trkpt>
      <trkpt lat="45.68778544664383" lon="17.67029752023518">
        <ele>197.76</ele>
        <time>2023-10-17T00:59:09.821Z</time>
      </trkpt>
      <trkpt lat="45.68779248744249" lon="17.670287378132343">
        <ele>197.59</ele>
        <time>2023-10-17T00:59:15.543Z</time>
      </trkpt>
      <trkpt lat="45.687799444422126" lon="17.67027698457241">
        <ele>197.42</ele>
        <time>2023-10-17T00:59:21.265Z</time>
      </trkpt>
      <trkpt lat="45.687806233763695" lon="17.670266591012478">
        <ele>197.24</ele>
        <time>2023-10-17T00:59:26.988Z</time>
      </trkpt>
      <trkpt lat="45.6878128554672" lon="17.67025602981448">
        <ele>197.07</ele>
        <time>2023-10-17T00:59:32.711Z</time>
      </trkpt>
      <trkpt lat="45.68781930953264" lon="17.670245552435517">
        <ele>196.9</ele>
        <time>2023-10-17T00:59:38.434Z</time>
      </trkpt>
      <trkpt lat="45.687825763598084" lon="17.670235326513648">
        <ele>196.73</ele>
        <time>2023-10-17T00:59:44.158Z</time>
      </trkpt>
      <trkpt lat="45.687832133844495" lon="17.67022510059178">
        <ele>196.56</ele>
        <time>2023-10-17T00:59:49.882Z</time>
      </trkpt>
      <trkpt lat="45.687838504090905" lon="17.67021495848894">
        <ele>196.4</ele>
        <time>2023-10-17T00:59:55.606Z</time>
      </trkpt>
      <trkpt lat="45.687844790518284" lon="17.6702050678432">
        <ele>196.23</ele>
        <time>2023-10-17T01:00:01.330Z</time>
      </trkpt>
      <trkpt lat="45.6878509093076" lon="17.670195261016488">
        <ele>196.06</ele>
        <time>2023-10-17T01:00:07.055Z</time>
      </trkpt>
      <trkpt lat="45.68785694427788" lon="17.67018562182784">
        <ele>195.9</ele>
        <time>2023-10-17T01:00:12.780Z</time>
      </trkpt>
      <trkpt lat="45.68786256015301" lon="17.67017623409629">
        <ele>195.73</ele>
        <time>2023-10-17T01:00:18.505Z</time>
      </trkpt>
      <trkpt lat="45.68786792457104" lon="17.670166846364737">
        <ele>195.57</ele>
        <time>2023-10-17T01:00:24.231Z</time>
      </trkpt>
      <trkpt lat="45.68787303753197" lon="17.67015771009028">
        <ele>195.41</ele>
        <time>2023-10-17T01:00:29.957Z</time>
      </trkpt>
      <trkpt lat="45.687877647578716" lon="17.67014890909195">
        <ele>195.25</ele>
        <time>2023-10-17T01:00:35.683Z</time>
      </trkpt>
      <trkpt lat="45.68788217380643" lon="17.670140024274588">
        <ele>195.09</ele>
        <time>2023-10-17T01:00:41.409Z</time>
      </trkpt>
      <trkpt lat="45.687886448577046" lon="17.67013130709529">
        <ele>194.94</ele>
        <time>2023-10-17T01:00:47.136Z</time>
      </trkpt>
      <trkpt lat="45.68789047189057" lon="17.670122841373086">
        <ele>194.78</ele>
        <time>2023-10-17T01:00:52.863Z</time>
      </trkpt>
      <trkpt lat="45.687894243746996" lon="17.670114375650883">
        <ele>194.63</ele>
        <time>2023-10-17T01:00:58.590Z</time>
      </trkpt>
      <trkpt lat="45.68789793178439" lon="17.670106077566743">
        <ele>194.47</ele>
        <time>2023-10-17T01:01:04.317Z</time>
      </trkpt>
      <trkpt lat="45.68790120072663" lon="17.67009819857776">
        <ele>194.32</ele>
        <time>2023-10-17T01:01:10.045Z</time>
      </trkpt>
      <trkpt lat="45.68790421821177" lon="17.67009082250297">
        <ele>194.17</ele>
        <time>2023-10-17T01:01:15.773Z</time>
      </trkpt>
      <trkpt lat="45.68790698423982" lon="17.67008386552334">
        <ele>194.02</ele>
        <time>2023-10-17T01:01:21.501Z</time>
      </trkpt>
      <trkpt lat="45.68790949881077" lon="17.67007757909596">
        <ele>193.88</ele>
        <time>2023-10-17T01:01:27.229Z</time>
      </trkpt>
      <trkpt lat="45.687911845743656" lon="17.670071627944708">
        <ele>193.73</ele>
        <time>2023-10-17T01:01:32.957Z</time>
      </trkpt>
      <trkpt lat="45.687914192676544" lon="17.670066095888615">
        <ele>193.59</ele>
        <time>2023-10-17T01:01:38.685Z</time>
      </trkpt>
      <trkpt lat="45.68791653960943" lon="17.67006089910865">
        <ele>193.44</ele>
        <time>2023-10-17T01:01:44.414Z</time>
      </trkpt>
      <trkpt lat="45.68791897036135" lon="17.670055786147714">
        <ele>193.3</ele>
        <time>2023-10-17T01:01:50.143Z</time>
      </trkpt>
      <trkpt lat="45.68792140111327" lon="17.670050589367747">
        <ele>193.16</ele>
        <time>2023-10-17T01:01:55.872Z</time>
      </trkpt>
      <trkpt lat="45.68792391568422" lon="17.67004530876875">
        <ele>193.02</ele>
        <time>2023-10-17T01:02:01.601Z</time>
      </trkpt>
      <trkpt lat="45.687926514074206" lon="17.67004002816975">
        <ele>192.88</ele>
        <time>2023-10-17T01:02:07.330Z</time>
      </trkpt>
      <trkpt lat="45.687929363921285" lon="17.670034496113658">
        <ele>192.75</ele>
        <time>2023-10-17T01:02:13.059Z</time>
      </trkpt>
      <trkpt lat="45.68793271668255" lon="17.670028628781438">
        <ele>192.61</ele>
        <time>2023-10-17T01:02:18.789Z</time>
      </trkpt>
      <trkpt lat="45.68793657235801" lon="17.670022509992123">
        <ele>192.47</ele>
        <time>2023-10-17T01:02:24.519Z</time>
      </trkpt>
      <trkpt lat="45.6879407633096" lon="17.670016307383776">
        <ele>192.34</ele>
        <time>2023-10-17T01:02:30.249Z</time>
      </trkpt>
      <trkpt lat="45.68794512189925" lon="17.670010020956397">
        <ele>192.21</ele>
        <time>2023-10-17T01:02:35.979Z</time>
      </trkpt>
      <trkpt lat="45.68794973194599" lon="17.670003566890955">
        <ele>192.07</ele>
        <time>2023-10-17T01:02:41.709Z</time>
      </trkpt>
      <trkpt lat="45.68795417435467" lon="17.669997196644545">
        <ele>191.94</ele>
        <time>2023-10-17T01:02:47.440Z</time>
      </trkpt>
      <trkpt lat="45.68795836530626" lon="17.66999107785523">
        <ele>191.81</ele>
        <time>2023-10-17T01:02:53.171Z</time>
      </trkpt>
      <trkpt lat="45.68796238861978" lon="17.669985378161073">
        <ele>191.67</ele>
        <time>2023-10-17T01:02:58.902Z</time>
      </trkpt>
      <trkpt lat="45.68796616047621" lon="17.66997992992401">
        <ele>191.54</ele>
        <time>2023-10-17T01:03:04.633Z</time>
      </trkpt>
      <trkpt lat="45.68796959705651" lon="17.66997490078211">
        <ele>191.41</ele>
        <time>2023-10-17T01:03:10.364Z</time>
      </trkpt>
      <trkpt lat="45.68797269836068" lon="17.669970290735364">
        <ele>191.28</ele>
        <time>2023-10-17T01:03:16.095Z</time>
      </trkpt>
      <trkpt lat="45.687975380569696" lon="17.669965848326683">
        <ele>191.14</ele>
        <time>2023-10-17T01:03:21.827Z</time>
      </trkpt>
      <trkpt lat="45.687977727502584" lon="17.669961154460907">
        <ele>191.01</ele>
        <time>2023-10-17T01:03:27.559Z</time>
      </trkpt>
      <trkpt lat="45.68797990679741" lon="17.66995595768094">
        <ele>190.88</ele>
        <time>2023-10-17T01:03:33.291Z</time>
      </trkpt>
      <trkpt lat="45.687982086092234" lon="17.66995009034872">
        <ele>190.75</ele>
        <time>2023-10-17T01:03:39.023Z</time>
      </trkpt>
      <trkpt lat="45.68798451684415" lon="17.669943384826183">
        <ele>190.61</ele>
        <time>2023-10-17T01:03:44.755Z</time>
      </trkpt>
      <trkpt lat="45.68798719905317" lon="17.669935757294297">
        <ele>190.48</ele>
        <time>2023-10-17T01:03:50.487Z</time>
      </trkpt>
      <trkpt lat="45.68799038417637" lon="17.669927207753062">
        <ele>190.34</ele>
        <time>2023-10-17T01:03:56.220Z</time>
      </trkpt>
      <trkpt lat="45.687993820756674" lon="17.669917568564415">
        <ele>190.21</ele>
        <time>2023-10-17T01:04:01.953Z</time>
      </trkpt>
      <trkpt lat="45.68799767643213" lon="17.669906839728355">
        <ele>190.07</ele>
        <time>2023-10-17T01:04:07.686Z</time>
      </trkpt>
      <trkpt lat="45.68800178356469" lon="17.66989527270198">
        <ele>189.93</ele>
        <time>2023-10-17T01:04:13.419Z</time>
      </trkpt>
      <trkpt lat="45.68800622597337" lon="17.66988269984722">
        <ele>189.79</ele>
        <time>2023-10-17T01:04:19.153Z</time>
      </trkpt>
      <trkpt lat="45.68801117129624" lon="17.669869707897305">
        <ele>189.65</ele>
        <time>2023-10-17T01:04:24.887Z</time>
      </trkpt>
      <trkpt lat="45.68801645189524" lon="17.66985671594739">
        <ele>189.5</ele>
        <time>2023-10-17T01:04:30.622Z</time>
      </trkpt>
      <trkpt lat="45.688022151589394" lon="17.66984397545457">
        <ele>189.36</ele>
        <time>2023-10-17T01:04:36.357Z</time>
      </trkpt>
      <trkpt lat="45.68802818655968" lon="17.66983173787594">
        <ele>189.21</ele>
        <time>2023-10-17T01:04:42.092Z</time>
      </trkpt>
      <trkpt lat="45.688034472987056" lon="17.669820254668593">
        <ele>189.06</ele>
        <time>2023-10-17T01:04:47.828Z</time>
      </trkpt>
      <trkpt lat="45.6880409270525" lon="17.669809525832534">
        <ele>188.91</ele>
        <time>2023-10-17T01:04:53.564Z</time>
      </trkpt>
      <trkpt lat="45.688047548756" lon="17.66979963518679">
        <ele>188.76</ele>
        <time>2023-10-17T01:04:59.300Z</time>
      </trkpt>
      <trkpt lat="45.68805433809757" lon="17.669790666550398">
        <ele>188.61</ele>
        <time>2023-10-17T01:05:05.037Z</time>
      </trkpt>
      <trkpt lat="45.68806112743914" lon="17.66978253610432">
        <ele>188.45</ele>
        <time>2023-10-17T01:05:10.774Z</time>
      </trkpt>
      <trkpt lat="45.688068084418774" lon="17.669775327667594">
        <ele>188.3</ele>
        <time>2023-10-17T01:05:16.511Z</time>
      </trkpt>
      <trkpt lat="45.688074957579374" lon="17.669769041240215">
        <ele>188.14</ele>
        <time>2023-10-17T01:05:22.248Z</time>
      </trkpt>
      <trkpt lat="45.688081830739975" lon="17.669763509184122">
        <ele>187.98</ele>
        <time>2023-10-17T01:05:27.986Z</time>
      </trkpt>
      <trkpt lat="45.688088620081544" lon="17.669758731499314">
        <ele>187.82</ele>
        <time>2023-10-17T01:05:33.724Z</time>
      </trkpt>
      <trkpt lat="45.68809540942311" lon="17.669754792004824">
        <ele>187.66</ele>
        <time>2023-10-17T01:05:39.462Z</time>
      </trkpt>
      <trkpt lat="45.68810203112662" lon="17.669751439243555">
        <ele>187.49</ele>
        <time>2023-10-17T01:05:45.200Z</time>
      </trkpt>
      <trkpt lat="45.68810856901109" lon="17.669748505577445">
        <ele>187.33</ele>
        <time>2023-10-17T01:05:50.939Z</time>
      </trkpt>
      <trkpt lat="45.6881149392575" lon="17.669746074825525">
        <ele>187.16</ele>
        <time>2023-10-17T01:05:56.678Z</time>
      </trkpt>
      <trkpt lat="45.68812130950391" lon="17.66974381171167">
        <ele>186.99</ele>
        <time>2023-10-17T01:06:02.417Z</time>
      </trkpt>
      <trkpt lat="45.68812767975032" lon="17.669741716235876">
        <ele>186.82</ele>
        <time>2023-10-17T01:06:08.156Z</time>
      </trkpt>
      <trkpt lat="45.688134133815765" lon="17.669739704579115">
        <ele>186.65</ele>
        <time>2023-10-17T01:06:13.895Z</time>
      </trkpt>
      <trkpt lat="45.68814075551927" lon="17.66973794437945">
        <ele>186.48</ele>
        <time>2023-10-17T01:06:19.635Z</time>
      </trkpt>
      <trkpt lat="45.6881477124989" lon="17.669736435636878">
        <ele>186.3</ele>
        <time>2023-10-17T01:06:25.375Z</time>
      </trkpt>
      <trkpt lat="45.68815500475466" lon="17.66973501071334">
        <ele>186.13</ele>
        <time>2023-10-17T01:06:31.115Z</time>
      </trkpt>
      <trkpt lat="45.68816254846752" lon="17.6697335857898">
        <ele>185.95</ele>
        <time>2023-10-17T01:06:36.855Z</time>
      </trkpt>
      <trkpt lat="45.6881704274565" lon="17.66973207704723">
        <ele>185.77</ele>
        <time>2023-10-17T01:06:42.596Z</time>
      </trkpt>
      <trkpt lat="45.688178557902575" lon="17.66973023302853">
        <ele>185.59</ele>
        <time>2023-10-17T01:06:48.337Z</time>
      </trkpt>
      <trkpt lat="45.688186939805746" lon="17.66972822137177">
        <ele>185.41</ele>
        <time>2023-10-17T01:06:54.078Z</time>
      </trkpt>
      <trkpt lat="45.68819548934698" lon="17.669726042076945">
        <ele>185.22</ele>
        <time>2023-10-17T01:06:59.820Z</time>
      </trkpt>
      <trkpt lat="45.68820437416434" lon="17.66972377896309">
        <ele>185.04</ele>
        <time>2023-10-17T01:07:05.562Z</time>
      </trkpt>
      <trkpt lat="45.68821359425783" lon="17.669721599668264">
        <ele>184.85</ele>
        <time>2023-10-17T01:07:11.304Z</time>
      </trkpt>
      <trkpt lat="45.68822314962745" lon="17.66971942037344">
        <ele>184.67</ele>
        <time>2023-10-17T01:07:17.046Z</time>
      </trkpt>
      <trkpt lat="45.68823312409222" lon="17.669717324897647">
        <ele>184.48</ele>
        <time>2023-10-17T01:07:22.789Z</time>
      </trkpt>
      <trkpt lat="45.688243517652154" lon="17.669715145602822">
        <ele>184.29</ele>
        <time>2023-10-17T01:07:28.532Z</time>
      </trkpt>
      <trkpt lat="45.68825416266918" lon="17.669712966307998">
        <ele>184.1</ele>
        <time>2023-10-17T01:07:34.276Z</time>
      </trkpt>
      <trkpt lat="45.68826522678137" lon="17.66971070319414">
        <ele>183.91</ele>
        <time>2023-10-17T01:07:40.020Z</time>
      </trkpt>
      <trkpt lat="45.68827670998871" lon="17.669708523899317">
        <ele>183.72</ele>
        <time>2023-10-17T01:07:45.764Z</time>
      </trkpt>
      <trkpt lat="45.68828877992928" lon="17.669706512242556">
        <ele>183.53</ele>
        <time>2023-10-17T01:07:51.509Z</time>
      </trkpt>
      <trkpt lat="45.68830143660307" lon="17.66970483586192">
        <ele>183.34</ele>
        <time>2023-10-17T01:07:57.254Z</time>
      </trkpt>
      <trkpt lat="45.68831468001008" lon="17.669703494757414">
        <ele>183.14</ele>
        <time>2023-10-17T01:08:03.000Z</time>
      </trkpt>
      <trkpt lat="45.68832842633128" lon="17.66970240511">
        <ele>182.95</ele>
        <time>2023-10-17T01:08:08.746Z</time>
      </trkpt>
      <trkpt lat="45.68834284320474" lon="17.669701566919684">
        <ele>182.76</ele>
        <time>2023-10-17T01:08:14.492Z</time>
      </trkpt>
      <trkpt lat="45.688357846811414" lon="17.6697008125484">
        <ele>182.57</ele>
        <time>2023-10-17T01:08:20.239Z</time>
      </trkpt>
      <trkpt lat="45.68837326951325" lon="17.669700141996145">
        <ele>182.38</ele>
        <time>2023-10-17T01:08:25.986Z</time>
      </trkpt>
      <trkpt lat="45.68838927894831" lon="17.66969947144389">
        <ele>182.19</ele>
        <time>2023-10-17T01:08:31.734Z</time>
      </trkpt>
      <trkpt lat="45.68840570747852" lon="17.669698800891638">
        <ele>182.0</ele>
        <time>2023-10-17T01:08:37.483Z</time>
      </trkpt>
      <trkpt lat="45.68842263892293" lon="17.669698130339384">
        <ele>181.82</ele>
        <time>2023-10-17T01:08:43.232Z</time>
      </trkpt>
      <trkpt lat="45.688439989462495" lon="17.6696973759681">
        <ele>181.63</ele>
        <time>2023-10-17T01:08:48.982Z</time>
      </trkpt>
      <trkpt lat="45.68845775909722" lon="17.66969653777778">
        <ele>181.44</ele>
        <time>2023-10-17T01:08:54.732Z</time>
      </trkpt>
      <trkpt lat="45.68847586400807" lon="17.669695615768433">
        <ele>181.26</ele>
        <time>2023-10-17T01:09:00.483Z</time>
      </trkpt>
      <trkpt lat="45.68849447183311" lon="17.66969452612102">
        <ele>181.08</ele>
        <time>2023-10-17T01:09:06.235Z</time>
      </trkpt>
      <trkpt lat="45.688513247296214" lon="17.669693185016513">
        <ele>180.9</ele>
        <time>2023-10-17T01:09:11.987Z</time>
      </trkpt>
      <trkpt lat="45.68853227421641" lon="17.669691676273942">
        <ele>180.72</ele>
        <time>2023-10-17T01:09:17.740Z</time>
      </trkpt>
      <trkpt lat="45.68855130113661" lon="17.669689999893308">
        <ele>180.54</ele>
        <time>2023-10-17T01:09:23.493Z</time>
      </trkpt>
      <trkpt lat="45.688570495694876" lon="17.66968807205558">
        <ele>180.36</ele>
        <time>2023-10-17T01:09:29.247Z</time>
      </trkpt>
      <trkpt lat="45.68858935497701" lon="17.66968614421785">
        <ele>180.19</ele>
        <time>2023-10-17T01:09:35.002Z</time>
      </trkpt>
      <trkpt lat="45.688608130440116" lon="17.66968421638012">
        <ele>180.02</ele>
        <time>2023-10-17T01:09:40.757Z</time>
      </trkpt>
      <trkpt lat="45.68862673826516" lon="17.66968228854239">
        <ele>179.85</ele>
        <time>2023-10-17T01:09:46.513Z</time>
      </trkpt>
      <trkpt lat="45.688645178452134" lon="17.66968036070466">
        <ele>179.68</ele>
        <time>2023-10-17T01:09:52.270Z</time>
      </trkpt>
      <trkpt lat="45.68866319954395" lon="17.669678013771772">
        <ele>179.51</ele>
        <time>2023-10-17T01:09:58.027Z</time>
      </trkpt>
      <trkpt lat="45.688680382445455" lon="17.669674661010504">
        <ele>179.35</ele>
        <time>2023-10-17T01:10:03.785Z</time>
      </trkpt>
      <trkpt lat="45.688696475699544" lon="17.669669883325696">
        <ele>179.2</ele>
        <time>2023-10-17T01:10:09.543Z</time>
      </trkpt>
      <trkpt lat="45.688711227849126" lon="17.669663429260254">
        <ele>179.04</ele>
        <time>2023-10-17T01:10:15.302Z</time>
      </trkpt>
      <trkpt lat="45.68872455507517" lon="17.669655047357082">
        <ele>178.89</ele>
        <time>2023-10-17T01:10:21.061Z</time>
      </trkpt>
      <trkpt lat="45.68873637355864" lon="17.669644821435213">
        <ele>178.74</ele>
        <time>2023-10-17T01:10:26.821Z</time>
      </trkpt>
      <trkpt lat="45.68874701857567" lon="17.669633086770773">
        <ele>178.6</ele>
        <time>2023-10-17T01:10:32.581Z</time>
      </trkpt>
      <trkpt lat="45.68875690922141" lon="17.669619843363762">
        <ele>178.46</ele>
        <time>2023-10-17T01:10:38.342Z</time>
      </trkpt>
      <trkpt lat="45.68876554258168" lon="17.66960559412837">
        <ele>178.32</ele>
        <time>2023-10-17T01:10:44.103Z</time>
      </trkpt>
      <trkpt lat="45.68877350538969" lon="17.669591177254915">
        <ele>178.18</ele>
        <time>2023-10-17T01:10:49.865Z</time>
      </trkpt>
      <trkpt lat="45.68878021091223" lon="17.669577850028872">
        <ele>178.05</ele>
        <time>2023-10-17T01:10:55.627Z</time>
      </trkpt>
      <trkpt lat="45.68878565914929" lon="17.669565863907337">
        <ele>177.92</ele>
        <time>2023-10-17T01:11:01.389Z</time>
      </trkpt>
      <trkpt lat="45.688790185377" lon="17.669556057080626">
        <ele>177.79</ele>
        <time>2023-10-17T01:11:07.152Z</time>
      </trkpt>
      <trkpt lat="45.68879437632859" lon="17.669548681005836">
        <ele>177.67</ele>
        <time>2023-10-17T01:11:12.915Z</time>
      </trkpt>
      <trkpt lat="45.68879848346114" lon="17.669543735682964">
        <ele>177.55</ele>
        <time>2023-10-17T01:11:18.678Z</time>
      </trkpt>
      <trkpt lat="45.688802590593696" lon="17.66954155638814">
        <ele>177.43</ele>
        <time>2023-10-17T01:11:24.441Z</time>
      </trkpt>
      <trkpt lat="45.68880711682141" lon="17.6695419754833">
        <ele>177.31</ele>
        <time>2023-10-17T01:11:30.204Z</time>
      </trkpt>
      <trkpt lat="45.688811894506216" lon="17.66954490914941">
        <ele>177.19</ele>
        <time>2023-10-17T01:11:35.967Z</time>
      </trkpt>
      <trkpt lat="45.688816756010056" lon="17.669550273567438">
        <ele>177.08</ele>
        <time>2023-10-17T01:11:41.731Z</time>
      </trkpt>
      <trkpt lat="45.688822120428085" lon="17.66955764964223">
        <ele>176.97</ele>
        <time>2023-10-17T01:11:47.495Z</time>
      </trkpt>
      <trkpt lat="45.68882765248418" lon="17.669566366821527">
        <ele>176.86</ele>
        <time>2023-10-17T01:11:53.259Z</time>
      </trkpt>
      <trkpt lat="45.68883360363543" lon="17.669575167819858">
        <ele>176.76</ele>
        <time>2023-10-17T01:11:59.023Z</time>
      </trkpt>
      <trkpt lat="45.68884047679603" lon="17.669583884999156">
        <ele>176.65</ele>
        <time>2023-10-17T01:12:04.788Z</time>
      </trkpt>
      <trkpt lat="45.688847936689854" lon="17.669592602178454">
        <ele>176.55</ele>
        <time>2023-10-17T01:12:10.553Z</time>
      </trkpt>
      <trkpt lat="45.688855815678835" lon="17.669600984081626">
        <ele>176.46</ele>
        <time>2023-10-17T01:12:16.318Z</time>
      </trkpt>
      <trkpt lat="45.68886377848685" lon="17.669609365984797">
        <ele>176.36</ele>
        <time>2023-10-17T01:12:22.084Z</time>
      </trkpt>
      <trkpt lat="45.688871992751956" lon="17.66961774788797">
        <ele>176.27</ele>
        <time>2023-10-17T01:12:27.850Z</time>
      </trkpt>
      <trkpt lat="45.68888012319803" lon="17.669626297429204">
        <ele>176.18</ele>
        <time>2023-10-17T01:12:33.616Z</time>
      </trkpt>
      <trkpt lat="45.688888002187014" lon="17.66963493078947">
        <ele>176.09</ele>
        <time>2023-10-17T01:12:39.383Z</time>
      </trkpt>
      <trkpt lat="45.6888956297189" lon="17.669643312692642">
        <ele>176.0</ele>
        <time>2023-10-17T01:12:45.150Z</time>
      </trkpt>
      <trkpt lat="45.68890308961272" lon="17.66965152695775">
        <ele>175.92</ele>
        <time>2023-10-17T01:12:50.917Z</time>
      </trkpt>
      <trkpt lat="45.68891029804945" lon="17.669659154489636">
        <ele>175.84</ele>
        <time>2023-10-17T01:12:56.685Z</time>
      </trkpt>
      <trkpt lat="45.688917338848114" lon="17.669666027650237">
        <ele>175.76</ele>
        <time>2023-10-17T01:13:02.453Z</time>
      </trkpt>
      <trkpt lat="45.68892437964678" lon="17.669672397896647">
        <ele>175.68</ele>
        <time>2023-10-17T01:13:08.221Z</time>
      </trkpt>
      <trkpt lat="45.68893142044544" lon="17.669678097590804">
        <ele>175.61</ele>
        <time>2023-10-17T01:13:13.989Z</time>
      </trkpt>
      <trkpt lat="45.688938377425075" lon="17.669683378189802">
        <ele>175.54</ele>
        <time>2023-10-17T01:13:19.758Z</time>
      </trkpt>
      <trkpt lat="45.688945250585675" lon="17.669688407331705">
        <ele>175.47</ele>
        <time>2023-10-17T01:13:25.527Z</time>
      </trkpt>
      <trkpt lat="45.68895178847015" lon="17.66969310119748">
        <ele>175.4</ele>
        <time>2023-10-17T01:13:31.296Z</time>
      </trkpt>
      <trkpt lat="45.68895807489753" lon="17.669697627425194">
        <ele>175.34</ele>
        <time>2023-10-17T01:13:37.065Z</time>
      </trkpt>
      <trkpt lat="45.68896402604878" lon="17.66970181837678">
        <ele>175.28</ele>
        <time>2023-10-17T01:13:42.835Z</time>
      </trkpt>
      <trkpt lat="45.68896947428584" lon="17.66970575787127">
        <ele>175.22</ele>
        <time>2023-10-17T01:13:48.605Z</time>
      </trkpt>
      <trkpt lat="45.68897441960871" lon="17.669709529727697">
        <ele>175.16</ele>
        <time>2023-10-17T01:13:54.375Z</time>
      </trkpt>
      <trkpt lat="45.68897869437933" lon="17.669713301584125">
        <ele>175.1</ele>
        <time>2023-10-17T01:14:00.145Z</time>
      </trkpt>
      <trkpt lat="45.68898246623576" lon="17.66971707344055">
        <ele>175.04</ele>
        <time>2023-10-17T01:14:05.915Z</time>
      </trkpt>
      <trkpt lat="45.68898556753993" lon="17.669720761477947">
        <ele>174.99</ele>
        <time>2023-10-17T01:14:11.686Z</time>
      </trkpt>
      <trkpt lat="45.68898808211088" lon="17.66972436569631">
        <ele>174.94</ele>
        <time>2023-10-17T01:14:17.457Z</time>
      </trkpt>
      <trkpt lat="45.688990177586675" lon="17.669727969914675">
        <ele>174.89</ele>
        <time>2023-10-17T01:14:23.228Z</time>
      </trkpt>
      <trkpt lat="45.68899202160537" lon="17.66973123885691">
        <ele>174.84</ele>
        <time>2023-10-17T01:14:28.999Z</time>
      </trkpt>
      <trkpt lat="45.68899369798601" lon="17.669734256342053">
        <ele>174.79</ele>
        <time>2023-10-17T01:14:34.770Z</time>
      </trkpt>
      <trkpt lat="45.68899529054761" lon="17.669736770913005">
        <ele>174.74</ele>
        <time>2023-10-17T01:14:40.541Z</time>
      </trkpt>
      <trkpt lat="45.688996966928244" lon="17.669738782569766">
        <ele>174.7</ele>
        <time>2023-10-17T01:14:46.312Z</time>
      </trkpt>
      <trkpt lat="45.68899881094694" lon="17.669740207493305">
        <ele>174.65</ele>
        <time>2023-10-17T01:14:52.083Z</time>
      </trkpt>
      <trkpt lat="45.689000906422734" lon="17.669741129502654">
        <ele>174.61</ele>
        <time>2023-10-17T01:14:57.854Z</time>
      </trkpt>
      <trkpt lat="45.689003923907876" lon="17.669741297140718">
        <ele>174.56</ele>
        <time>2023-10-17T01:15:03.625Z</time>
      </trkpt>
      <trkpt lat="45.689007779583335" lon="17.669740794226527">
        <ele>174.52</ele>
        <time>2023-10-17T01:15:09.396Z</time>
      </trkpt>
      <trkpt lat="45.68901238963008" lon="17.669739704579115">
        <ele>174.47</ele>
        <time>2023-10-17T01:15:15.168Z</time>
      </trkpt>
      <trkpt lat="45.68901792168617" lon="17.66973802819848">
        <ele>174.43</ele>
        <time>2023-10-17T01:15:20.940Z</time>
      </trkpt>
      <trkpt lat="45.689024375751615" lon="17.669735848903656">
        <ele>174.39</ele>
        <time>2023-10-17T01:15:26.712Z</time>
      </trkpt>
      <trkpt lat="45.689031668007374" lon="17.66973316669464">
        <ele>174.35</ele>
        <time>2023-10-17T01:15:32.484Z</time>
      </trkpt>
      <trkpt lat="45.689039966091514" lon="17.6697301492095">
        <ele>174.3</ele>
        <time>2023-10-17T01:15:38.257Z</time>
      </trkpt>
      <trkpt lat="45.689049186185" lon="17.669726544991136">
        <ele>174.26</ele>
        <time>2023-10-17T01:15:44.030Z</time>
      </trkpt>
      <trkpt lat="45.68905932828784" lon="17.669722689315677">
        <ele>174.22</ele>
        <time>2023-10-17T01:15:49.803Z</time>
      </trkpt>
      <trkpt lat="45.689070392400026" lon="17.66971849836409">
        <ele>174.17</ele>
        <time>2023-10-17T01:15:55.577Z</time>
      </trkpt>
      <trkpt lat="45.68908212706447" lon="17.66971405595541">
        <ele>174.13</ele>
        <time>2023-10-17T01:16:01.351Z</time>
      </trkpt>
      <trkpt lat="45.68909386172891" lon="17.669709781184793">
        <ele>174.09</ele>
        <time>2023-10-17T01:16:07.125Z</time>
      </trkpt>
      <trkpt lat="45.68910542875528" lon="17.66970567405224">
        <ele>174.04</ele>
        <time>2023-10-17T01:16:12.900Z</time>
      </trkpt>
      <trkpt lat="45.68911666050553" lon="17.66970181837678">
        <ele>174.0</ele>
        <time>2023-10-17T01:16:18.675Z</time>
      </trkpt>
      <trkpt lat="45.68912730552256" lon="17.669698297977448">
        <ele>173.95</ele>
        <time>2023-10-17T01:16:24.451Z</time>
      </trkpt>
      <trkpt lat="45.689137699082494" lon="17.669695196673274">
        <ele>173.9</ele>
        <time>2023-10-17T01:16:30.227Z</time>
      </trkpt>
      <trkpt lat="45.68914784118533" lon="17.66969251446426">
        <ele>173.86</ele>
        <time>2023-10-17T01:16:36.003Z</time>
      </trkpt>
      <trkpt lat="45.68915756419301" lon="17.669690418988466">
        <ele>173.81</ele>
        <time>2023-10-17T01:16:41.780Z</time>
      </trkpt>
      <trkpt lat="45.68916686810553" lon="17.669689413160086">
        <ele>173.76</ele>
        <time>2023-10-17T01:16:47.557Z</time>
      </trkpt>
      <trkpt lat="45.6891755014658" lon="17.66968958079815">
        <ele>173.7</ele>
        <time>2023-10-17T01:16:53.334Z</time>
      </trkpt>
      <trkpt lat="45.68918338045478" lon="17.669691257178783">
        <ele>173.65</ele>
        <time>2023-10-17T01:16:59.111Z</time>
      </trkpt>
      <trkpt lat="45.68919042125344" lon="17.669694274663925">
        <ele>173.6</ele>
        <time>2023-10-17T01:17:04.889Z</time>
      </trkpt>
      <trkpt lat="45.68919670768082" lon="17.66969838179648">
        <ele>173.54</ele>
        <time>2023-10-17T01:17:10.667Z</time>
      </trkpt>
      <trkpt lat="45.689202323555946" lon="17.66970332711935">
        <ele>173.48</ele>
        <time>2023-10-17T01:17:16.445Z</time>
      </trkpt>
      <trkpt lat="45.68920735269785" lon="17.669708942994475">
        <ele>173.43</ele>
        <time>2023-10-17T01:17:22.223Z</time>
      </trkpt>
      <trkpt lat="45.689211962744594" lon="17.669714894145727">
        <ele>173.37</ele>
        <time>2023-10-17T01:17:28.002Z</time>
      </trkpt>
      <trkpt lat="45.689215902239084" lon="17.669721264392138">
        <ele>173.31</ele>
        <time>2023-10-17T01:17:33.781Z</time>
      </trkpt>
      <trkpt lat="45.68921925500035" lon="17.66972771845758">
        <ele>173.24</ele>
        <time>2023-10-17T01:17:39.560Z</time>
      </trkpt>
      <trkpt lat="45.6892220210284" lon="17.66973417252302">
        <ele>173.18</ele>
        <time>2023-10-17T01:17:45.339Z</time>
      </trkpt>
      <trkpt lat="45.68922394886613" lon="17.6697404589504">
        <ele>173.11</ele>
        <time>2023-10-17T01:17:51.118Z</time>
      </trkpt>
      <trkpt lat="45.689225289970636" lon="17.66974632628262">
        <ele>173.04</ele>
        <time>2023-10-17T01:17:56.897Z</time>
      </trkpt>
      <trkpt lat="45.68922612816095" lon="17.669751439243555">
        <ele>172.97</ele>
        <time>2023-10-17T01:18:02.677Z</time>
      </trkpt>
      <trkpt lat="45.68922654725611" lon="17.669755714014173">
        <ele>172.9</ele>
        <time>2023-10-17T01:18:08.457Z</time>
      </trkpt>
      <trkpt lat="45.68922654725611" lon="17.669759234413505">
        <ele>172.83</ele>
        <time>2023-10-17T01:18:14.237Z</time>
      </trkpt>
      <trkpt lat="45.689226211979985" lon="17.669762335717678">
        <ele>172.76</ele>
        <time>2023-10-17T01:18:20.017Z</time>
      </trkpt>
      <trkpt lat="45.6892254576087" lon="17.669765185564756">
        <ele>172.68</ele>
        <time>2023-10-17T01:18:25.797Z</time>
      </trkpt>
      <trkpt lat="45.689224284142256" lon="17.669768035411835">
        <ele>172.6</ele>
        <time>2023-10-17T01:18:31.577Z</time>
      </trkpt>
      <trkpt lat="45.689222775399685" lon="17.669770969077945">
        <ele>172.52</ele>
        <time>2023-10-17T01:18:37.357Z</time>
      </trkpt>
      <trkpt lat="45.68922101520002" lon="17.669774321839213">
        <ele>172.44</ele>
        <time>2023-10-17T01:18:43.137Z</time>
      </trkpt>
      <trkpt lat="45.68921925500035" lon="17.66977800987661">
        <ele>172.36</ele>
        <time>2023-10-17T01:18:48.917Z</time>
      </trkpt>
      <trkpt lat="45.689217913895845" lon="17.6697819493711">
        <ele>172.27</ele>
        <time>2023-10-17T01:18:54.697Z</time>
      </trkpt>
      <trkpt lat="45.68921724334359" lon="17.669786056503654">
        <ele>172.19</ele>
        <time>2023-10-17T01:19:00.477Z</time>
      </trkpt>
      <trkpt lat="45.68921715952456" lon="17.66979024745524">
        <ele>172.09</ele>
        <time>2023-10-17T01:19:06.258Z</time>
      </trkpt>
      <trkpt lat="45.689217913895845" lon="17.66979468986392">
        <ele>172.0</ele>
        <time>2023-10-17T01:19:12.039Z</time>
      </trkpt>
      <trkpt lat="45.68921950645745" lon="17.669799216091633">
        <ele>171.91</ele>
        <time>2023-10-17T01:19:17.820Z</time>
      </trkpt>
      <trkpt lat="45.68922218866646" lon="17.669803742319345">
        <ele>171.81</ele>
        <time>2023-10-17T01:19:23.601Z</time>
      </trkpt>
      <trkpt lat="45.68922579288483" lon="17.669808268547058">
        <ele>171.71</ele>
        <time>2023-10-17T01:19:29.382Z</time>
      </trkpt>
      <trkpt lat="45.68923031911254" lon="17.669812459498644">
        <ele>171.6</ele>
        <time>2023-10-17T01:19:35.163Z</time>
      </trkpt>
      <trkpt lat="45.689235934987664" lon="17.66981623135507">
        <ele>171.5</ele>
        <time>2023-10-17T01:19:40.944Z</time>
      </trkpt>
      <trkpt lat="45.68924222141504" lon="17.669819332659245">
        <ele>171.39</ele>
        <time>2023-10-17T01:19:46.726Z</time>
      </trkpt>
      <trkpt lat="45.689249178394675" lon="17.6698215957731">
        <ele>171.28</ele>
        <time>2023-10-17T01:19:52.508Z</time>
      </trkpt>
      <trkpt lat="45.689256470650434" lon="17.66982310451567">
        <ele>171.16</ele>
        <time>2023-10-17T01:19:58.290Z</time>
      </trkpt>
      <trkpt lat="45.689263846725225" lon="17.66982394270599">
        <ele>171.05</ele>
        <time>2023-10-17T01:20:04.072Z</time>
      </trkpt>
      <trkpt lat="45.68927147425711" lon="17.669824277982116">
        <ele>170.93</ele>
        <time>2023-10-17T01:20:09.855Z</time>
      </trkpt>
      <trkpt lat="45.6892788503319" lon="17.669824194163084">
        <ele>170.81</ele>
        <time>2023-10-17T01:20:15.638Z</time>
      </trkpt>
      <trkpt lat="45.68928605876863" lon="17.669823775067925">
        <ele>170.69</ele>
        <time>2023-10-17T01:20:21.421Z</time>
      </trkpt>
      <trkpt lat="45.68929276429117" lon="17.66982310451567">
        <ele>170.57</ele>
        <time>2023-10-17T01:20:27.204Z</time>
      </trkpt>
      <trkpt lat="45.68929913453758" lon="17.669822182506323">
        <ele>170.45</ele>
        <time>2023-10-17T01:20:32.988Z</time>
      </trkpt>
      <trkpt lat="45.689304834231734" lon="17.66982109285891">
        <ele>170.33</ele>
        <time>2023-10-17T01:20:38.772Z</time>
      </trkpt>
      <trkpt lat="45.68930986337364" lon="17.669819835573435">
        <ele>170.2</ele>
        <time>2023-10-17T01:20:44.556Z</time>
      </trkpt>
      <trkpt lat="45.68931430578232" lon="17.669818326830864">
        <ele>170.08</ele>
        <time>2023-10-17T01:20:50.340Z</time>
      </trkpt>
      <trkpt lat="45.689318077638745" lon="17.66981665045023">
        <ele>169.95</ele>
        <time>2023-10-17T01:20:56.124Z</time>
      </trkpt>
      <trkpt lat="45.689321430400014" lon="17.669814974069595">
        <ele>169.83</ele>
        <time>2023-10-17T01:21:01.908Z</time>
      </trkpt>
      <trkpt lat="45.68932453170419" lon="17.66981329768896">
        <ele>169.71</ele>
        <time>2023-10-17T01:21:07.692Z</time>
      </trkpt>
      <trkpt lat="45.6893274653703" lon="17.6698112860322">
        <ele>169.58</ele>
        <time>2023-10-17T01:21:13.477Z</time>
      </trkpt>
      <trkpt lat="45.68933048285544" lon="17.66980885528028">
        <ele>169.46</ele>
        <time>2023-10-17T01:21:19.262Z</time>
      </trkpt>
      <trkpt lat="45.68933391943574" lon="17.66980550251901">
        <ele>169.33</ele>
        <time>2023-10-17T01:21:25.047Z</time>
      </trkpt>
      <trkpt lat="45.6893377751112" lon="17.669801395386457">
        <ele>169.21</ele>
        <time>2023-10-17T01:21:30.832Z</time>
      </trkpt>
      <trkpt lat="45.689342468976974" lon="17.669795444235206">
        <ele>169.08</ele>
        <time>2023-10-17T01:21:36.617Z</time>
      </trkpt>
      <trkpt lat="45.689347917214036" lon="17.669788068160415">
        <ele>168.95</ele>
        <time>2023-10-17T01:21:42.402Z</time>
      </trkpt>
      <trkpt lat="45.68935437127948" lon="17.66977960243821">
        <ele>168.83</ele>
        <time>2023-10-17T01:21:48.188Z</time>
      </trkpt>
      <trkpt lat="45.68936166353524" lon="17.66977021470666">
        <ele>168.7</ele>
        <time>2023-10-17T01:21:53.974Z</time>
      </trkpt>
      <trkpt lat="45.68936996161938" lon="17.66976007260382">
        <ele>168.58</ele>
        <time>2023-10-17T01:21:59.760Z</time>
      </trkpt>
      <trkpt lat="45.689379097893834" lon="17.669749511405826">
        <ele>168.46</ele>
        <time>2023-10-17T01:22:05.547Z</time>
      </trkpt>
      <trkpt lat="45.68938882090151" lon="17.66973853111267">
        <ele>168.34</ele>
        <time>2023-10-17T01:22:11.334Z</time>
      </trkpt>
      <trkpt lat="45.68939887918532" lon="17.66972721554339">
        <ele>168.22</ele>
        <time>2023-10-17T01:22:17.122Z</time>
      </trkpt>
      <trkpt lat="45.68940910510719" lon="17.669715816155076">
        <ele>168.1</ele>
        <time>2023-10-17T01:22:22.910Z</time>
      </trkpt>
      <trkpt lat="45.68941941484809" lon="17.669705590233207">
        <ele>167.98</ele>
        <time>2023-10-17T01:22:28.699Z</time>
      </trkpt>
      <trkpt lat="45.68942972458899" lon="17.669696705415845">
        <ele>167.87</ele>
        <time>2023-10-17T01:22:34.488Z</time>
      </trkpt>
      <trkpt lat="45.68943986669183" lon="17.66969008371234">
        <ele>167.76</ele>
        <time>2023-10-17T01:22:40.277Z</time>
      </trkpt>
      <trkpt lat="45.689450008794665" lon="17.669685473665595">
        <ele>167.65</ele>
        <time>2023-10-17T01:22:46.067Z</time>
      </trkpt>
      <trkpt lat="45.68945998325944" lon="17.669682539999485">
        <ele>167.54</ele>
        <time>2023-10-17T01:22:51.857Z</time>
      </trkpt>
      <trkpt lat="45.68946979008615" lon="17.669681031256914">
        <ele>167.43</ele>
        <time>2023-10-17T01:22:57.647Z</time>
      </trkpt>
      <trkpt lat="45.68947951309383" lon="17.669680612161756">
        <ele>167.33</ele>
        <time>2023-10-17T01:23:03.438Z</time>
      </trkpt>
      <trkpt lat="45.68948881700635" lon="17.669681031256914">
        <ele>167.23</ele>
        <time>2023-10-17T01:23:09.229Z</time>
      </trkpt>
      <trkpt lat="45.689497869461775" lon="17.669682037085295">
        <ele>167.14</ele>
        <time>2023-10-17T01:23:15.020Z</time>
      </trkpt>
      <trkpt lat="45.68950650282204" lon="17.669684132561088">
        <ele>167.05</ele>
        <time>2023-10-17T01:23:20.812Z</time>
      </trkpt>
      <trkpt lat="45.68951471708715" lon="17.669687066227198">
        <ele>166.97</ele>
        <time>2023-10-17T01:23:26.604Z</time>
      </trkpt>
      <trkpt lat="45.68952242843807" lon="17.66969058662653">
        <ele>166.88</ele>
        <time>2023-10-17T01:23:32.396Z</time>
      </trkpt>
      <trkpt lat="45.68952955305576" lon="17.66969444230199">
        <ele>166.81</ele>
        <time>2023-10-17T01:23:38.188Z</time>
      </trkpt>
      <trkpt lat="45.689535923302174" lon="17.669699052348733">
        <ele>166.73</ele>
        <time>2023-10-17T01:23:43.981Z</time>
      </trkpt>
      <trkpt lat="45.68954120390117" lon="17.669704584404826">
        <ele>166.66</ele>
        <time>2023-10-17T01:23:49.774Z</time>
      </trkpt>
      <trkpt lat="45.689545730128884" lon="17.66971120610833">
        <ele>166.6</ele>
        <time>2023-10-17T01:23:55.567Z</time>
      </trkpt>
      <trkpt lat="45.68954933434725" lon="17.66971891745925">
        <ele>166.53</ele>
        <time>2023-10-17T01:24:01.360Z</time>
      </trkpt>
      <trkpt lat="45.689552100375295" lon="17.669727467000484">
        <ele>166.48</ele>
        <time>2023-10-17T01:24:07.153Z</time>
      </trkpt>
      <trkpt lat="45.689554112032056" lon="17.669736770913005">
        <ele>166.42</ele>
        <time>2023-10-17T01:24:12.947Z</time>
      </trkpt>
      <trkpt lat="45.689555536955595" lon="17.669746493920684">
        <ele>166.37</ele>
        <time>2023-10-17T01:24:18.741Z</time>
      </trkpt>
      <trkpt lat="45.68955629132688" lon="17.669756468385458">
        <ele>166.33</ele>
        <time>2023-10-17T01:24:24.535Z</time>
      </trkpt>
      <trkpt lat="45.689556542783976" lon="17.669766526669264">
        <ele>166.29</ele>
        <time>2023-10-17T01:24:30.329Z</time>
      </trkpt>
      <trkpt lat="45.689556542783976" lon="17.669775830581784">
        <ele>166.25</ele>
        <time>2023-10-17T01:24:36.124Z</time>
      </trkpt>
      <trkpt lat="45.68955629132688" lon="17.669784799218178">
        <ele>166.22</ele>
        <time>2023-10-17T01:24:41.919Z</time>
      </trkpt>
      <trkpt lat="45.689556039869785" lon="17.66979267820716">
        <ele>166.19</ele>
        <time>2023-10-17T01:24:47.714Z</time>
      </trkpt>
      <trkpt lat="45.68955578841269" lon="17.66979955136776">
        <ele>166.16</ele>
        <time>2023-10-17T01:24:53.509Z</time>
      </trkpt>
      <trkpt lat="45.68955570459366" lon="17.669805334880948">
        <ele>166.14</ele>
        <time>2023-10-17T01:24:59.304Z</time>
      </trkpt>
      <trkpt lat="45.68955570459366" lon="17.669810196384788">
        <ele>166.12</ele>
        <time>2023-10-17T01:25:05.099Z</time>
      </trkpt>
      <trkpt lat="45.689555536955595" lon="17.66981463879347">
        <ele>166.11</ele>
        <time>2023-10-17T01:25:10.895Z</time>
      </trkpt>
      <trkpt lat="45.68955520167947" lon="17.669818745926023">
        <ele>166.1</ele>
        <time>2023-10-17T01:25:16.691Z</time>
      </trkpt>
      <trkpt lat="45.68955436348915" lon="17.669822685420513">
        <ele>166.09</ele>
        <time>2023-10-17T01:25:22.487Z</time>
      </trkpt>
      <trkpt lat="45.689553022384644" lon="17.66982645727694">
        <ele>166.08</ele>
        <time>2023-10-17T01:25:28.283Z</time>
      </trkpt>
      <trkpt lat="45.689551178365946" lon="17.669830145314336">
        <ele>166.08</ele>
        <time>2023-10-17T01:25:34.079Z</time>
      </trkpt>
      <trkpt lat="45.68954857997596" lon="17.669834000989795">
        <ele>166.09</ele>
        <time>2023-10-17T01:25:39.875Z</time>
      </trkpt>
      <trkpt lat="45.68954505957663" lon="17.669837856665254">
        <ele>166.09</ele>
        <time>2023-10-17T01:25:45.671Z</time>
      </trkpt>
      <trkpt lat="45.68954061716795" lon="17.669841796159744">
        <ele>166.1</ele>
        <time>2023-10-17T01:25:51.467Z</time>
      </trkpt>
      <trkpt lat="45.68953542038798" lon="17.669845735654235">
        <ele>166.11</ele>
        <time>2023-10-17T01:25:57.264Z</time>
      </trkpt>
      <trkpt lat="45.6895293854177" lon="17.669850094243884">
        <ele>166.12</ele>
        <time>2023-10-17T01:26:03.061Z</time>
      </trkpt>
      <trkpt lat="45.6895225122571" lon="17.669854871928692">
        <ele>166.14</ele>
        <time>2023-10-17T01:26:08.858Z</time>
      </trkpt>
      <trkpt lat="45.68951522000134" lon="17.669859817251563">
        <ele>166.16</ele>
        <time>2023-10-17T01:26:14.655Z</time>
      </trkpt>
      <trkpt lat="45.68950734101236" lon="17.669864930212498">
        <ele>166.18</ele>
        <time>2023-10-17T01:26:20.453Z</time>
      </trkpt>
      <trkpt lat="45.68949904292822" lon="17.66987037844956">
        <ele>166.2</ele>
        <time>2023-10-17T01:26:26.251Z</time>
      </trkpt>
      <trkpt lat="45.68949082866311" lon="17.669876078143716">
        <ele>166.23</ele>
        <time>2023-10-17T01:26:32.049Z</time>
      </trkpt>
      <trkpt lat="45.68948244675994" lon="17.669881945475936">
        <ele>166.26</ele>
        <time>2023-10-17T01:26:37.848Z</time>
      </trkpt>
      <trkpt lat="45.68947423249483" lon="17.669887896627188">
        <ele>166.28</ele>
        <time>2023-10-17T01:26:43.647Z</time>
      </trkpt>
      <trkpt lat="45.68946643732488" lon="17.669893680140376">
        <ele>166.31</ele>
        <time>2023-10-17T01:26:49.446Z</time>
      </trkpt>
      <trkpt lat="45.68945989944041" lon="17.66989829018712">
        <ele>166.34</ele>
        <time>2023-10-17T01:26:55.245Z</time>
      </trkpt>
      <trkpt lat="45.689454367384315" lon="17.66990172676742">
        <ele>166.37</ele>
        <time>2023-10-17T01:27:01.045Z</time>
      </trkpt>
      <trkpt lat="45.68944975733757" lon="17.669903319329023">
        <ele>166.4</ele>
        <time>2023-10-17T01:27:06.845Z</time>
      </trkpt>
      <trkpt lat="45.689446153119206" lon="17.66990264877677">
        <ele>166.43</ele>
        <time>2023-10-17T01:27:12.645Z</time>
      </trkpt>
      <trkpt lat="45.689443135634065" lon="17.669899966567755">
        <ele>166.45</ele>
        <time>2023-10-17T01:27:18.445Z</time>
      </trkpt>
      <trkpt lat="45.68944045342505" lon="17.669895691797137">
        <ele>166.48</ele>
        <time>2023-10-17T01:27:24.245Z</time>
      </trkpt>
      <trkpt lat="45.689438274130225" lon="17.66988999210298">
        <ele>166.51</ele>
        <time>2023-10-17T01:27:30.045Z</time>
      </trkpt>
      <trkpt lat="45.68943659774959" lon="17.66988504678011">
        <ele>166.53</ele>
        <time>2023-10-17T01:27:35.845Z</time>
      </trkpt>
      <trkpt lat="45.68943567574024" lon="17.669881023466587">
        <ele>166.56</ele>
        <time>2023-10-17T01:27:41.645Z</time>
      </trkpt>
      <trkpt lat="45.68943550810218" lon="17.66987825743854">
        <ele>166.58</ele>
        <time>2023-10-17T01:27:47.446Z</time>
      </trkpt>
      <trkpt lat="45.689436346292496" lon="17.669876413419843">
        <ele>166.61</ele>
        <time>2023-10-17T01:27:53.247Z</time>
      </trkpt>
      <trkpt lat="45.689437687397" lon="17.669875994324684">
        <ele>166.63</ele>
        <time>2023-10-17T01:27:59.048Z</time>
      </trkpt>
      <trkpt lat="45.689439279958606" lon="17.669876916334033">
        <ele>166.65</ele>
        <time>2023-10-17T01:28:04.849Z</time>
      </trkpt>
      <trkpt lat="45.68944129161537" lon="17.669879430904984">
        <ele>166.67</ele>
        <time>2023-10-17T01:28:10.650Z</time>
      </trkpt>
      <trkpt lat="45.68944372236729" lon="17.669883789494634">
        <ele>166.69</ele>
        <time>2023-10-17T01:28:16.451Z</time>
      </trkpt>
      <trkpt lat="45.68944690749049" lon="17.66988999210298">
        <ele>166.71</ele>
        <time>2023-10-17T01:28:22.252Z</time>
      </trkpt>
      <trkpt lat="45.68945118226111" lon="17.669897535815835">
        <ele>166.73</ele>
        <time>2023-10-17T01:28:28.053Z</time>
      </trkpt>
      <trkpt lat="45.68945621140301" lon="17.66990600153804">
        <ele>166.74</ele>
        <time>2023-10-17T01:28:33.855Z</time>
      </trkpt>
      <trkpt lat="45.68946182727814" lon="17.669913796707988">
        <ele>166.76</ele>
        <time>2023-10-17T01:28:39.657Z</time>
      </trkpt>
      <trkpt lat="45.68946786224842" lon="17.669920837506652">
        <ele>166.77</ele>
        <time>2023-10-17T01:28:45.459Z</time>
      </trkpt>
      <trkpt lat="45.68947372958064" lon="17.669926956295967">
        <ele>166.78</ele>
        <time>2023-10-17T01:28:51.261Z</time>
      </trkpt>
      <trkpt lat="45.689479261636734" lon="17.66993248835206">
        <ele>166.79</ele>
        <time>2023-10-17T01:28:57.064Z</time>
      </trkpt>
      <trkpt lat="45.68948429077864" lon="17.66993776895106">
        <ele>166.8</ele>
        <time>2023-10-17T01:29:02.867Z</time>
      </trkpt>
      <trkpt lat="45.68948898464441" lon="17.66994279809296">
        <ele>166.81</ele>
        <time>2023-10-17T01:29:08.670Z</time>
      </trkpt>
      <trkpt lat="45.689493510872126" lon="17.669947408139706">
        <ele>166.82</ele>
        <time>2023-10-17T01:29:14.473Z</time>
      </trkpt>
      <trkpt lat="45.689497869461775" lon="17.669951431453228">
        <ele>166.82</ele>
        <time>2023-10-17T01:29:20.276Z</time>
      </trkpt>
      <trkpt lat="45.68950206041336" lon="17.66995486803353">
        <ele>166.83</ele>
        <time>2023-10-17T01:29:26.080Z</time>
      </trkpt>
      <trkpt lat="45.689506251364946" lon="17.66995788551867">
        <ele>166.83</ele>
        <time>2023-10-17T01:29:31.884Z</time>
      </trkpt>
      <trkpt lat="45.68951077759266" lon="17.66996040008962">
        <ele>166.83</ele>
        <time>2023-10-17T01:29:37.688Z</time>
      </trkpt>
      <trkpt lat="45.68951572291553" lon="17.66996232792735">
        <ele>166.83</ele>
        <time>2023-10-17T01:29:43.492Z</time>
      </trkpt>
      <trkpt lat="45.68952108733356" lon="17.669963501393795">
        <ele>166.83</ele>
        <time>2023-10-17T01:29:49.296Z</time>
      </trkpt>
      <trkpt lat="45.68952695466578" lon="17.669963920488954">
        <ele>166.82</ele>
        <time>2023-10-17T01:29:55.100Z</time>
      </trkpt>
      <trkpt lat="45.68953315727413" lon="17.669963585212827">
        <ele>166.82</ele>
        <time>2023-10-17T01:30:00.905Z</time>
      </trkpt>
      <trkpt lat="45.68953961133957" lon="17.669962663203478">
        <ele>166.81</ele>
        <time>2023-10-17T01:30:06.710Z</time>
      </trkpt>
      <trkpt lat="45.689546316862106" lon="17.669961154460907">
        <ele>166.8</ele>
        <time>2023-10-17T01:30:12.515Z</time>
      </trkpt>
      <trkpt lat="45.68955293856561" lon="17.669959226623178">
        <ele>166.79</ele>
        <time>2023-10-17T01:30:18.320Z</time>
      </trkpt>
      <trkpt lat="45.68955922499299" lon="17.669957298785448">
        <ele>166.78</ele>
        <time>2023-10-17T01:30:24.125Z</time>
      </trkpt>
      <trkpt lat="45.68956509232521" lon="17.669955622404814">
        <ele>166.77</ele>
        <time>2023-10-17T01:30:29.931Z</time>
      </trkpt>
      <trkpt lat="45.68957028910518" lon="17.66995402984321">
        <ele>166.76</ele>
        <time>2023-10-17T01:30:35.737Z</time>
      </trkpt>
      <trkpt lat="45.689574563875794" lon="17.669952856376767">
        <ele>166.74</ele>
        <time>2023-10-17T01:30:41.543Z</time>
      </trkpt>
      <trkpt lat="45.689578000456095" lon="17.66995193436742">
        <ele>166.73</ele>
        <time>2023-10-17T01:30:47.349Z</time>
      </trkpt>
      <trkpt lat="45.68958059884608" lon="17.6699510961771">
        <ele>166.71</ele>
        <time>2023-10-17T01:30:53.155Z</time>
      </trkpt>
      <trkpt lat="45.689582442864776" lon="17.66995050944388">
        <ele>166.69</ele>
        <time>2023-10-17T01:30:58.961Z</time>
      </trkpt>
      <trkpt lat="45.68958370015025" lon="17.669950257986784">
        <ele>166.68</ele>
        <time>2023-10-17T01:31:04.767Z</time>
      </trkpt>
      <trkpt lat="45.68958420306444" lon="17.669950425624847">
        <ele>166.66</ele>
        <time>2023-10-17T01:31:10.573Z</time>
      </trkpt>
      <trkpt lat="45.68958411924541" lon="17.66995101235807">
        <ele>166.64</ele>
        <time>2023-10-17T01:31:16.379Z</time>
      </trkpt>
      <trkpt lat="45.689583448693156" lon="17.66995201818645">
        <ele>166.62</ele>
        <time>2023-10-17T01:31:22.185Z</time>
      </trkpt>
      <trkpt lat="45.689582442864776" lon="17.669953275471926">
        <ele>166.6</ele>
        <time>2023-10-17T01:31:27.991Z</time>
      </trkpt>
      <trkpt lat="45.68958110176027" lon="17.66995444893837">
        <ele>166.57</ele>
        <time>2023-10-17T01:31:33.797Z</time>
      </trkpt>
      <trkpt lat="45.68957976065576" lon="17.66995545476675">
        <ele>166.55</ele>
        <time>2023-10-17T01:31:39.604Z</time>
      </trkpt>
      <trkpt lat="45.68957841955125" lon="17.669956041499972">
        <ele>166.52</ele>
        <time>2023-10-17T01:31:45.411Z</time>
      </trkpt>
      <trkpt lat="45.689576994627714" lon="17.6699563767761">
        <ele>166.5</ele>
        <time>2023-10-17T01:31:51.218Z</time>
      </trkpt>
      <trkpt lat="45.689575569704175" lon="17.669956209138036">
        <ele>166.47</ele>
        <time>2023-10-17T01:31:57.025Z</time>
      </trkpt>
      <trkpt lat="45.689574144780636" lon="17.669955706223845">
        <ele>166.44</ele>
        <time>2023-10-17T01:32:02.832Z</time>
      </trkpt>
      <trkpt lat="45.6895727198571" lon="17.66995486803353">
        <ele>166.41</ele>
        <time>2023-10-17T01:32:08.639Z</time>
      </trkpt>
      <trkpt lat="45.689571211114526" lon="17.669953694567084">
        <ele>166.38</ele>
        <time>2023-10-17T01:32:14.446Z</time>
      </trkpt>
      <trkpt lat="45.68956978619099" lon="17.669952185824513">
        <ele>166.35</ele>
        <time>2023-10-17T01:32:20.253Z</time>
      </trkpt>
      <trkpt lat="45.68956844508648" lon="17.66995059326291">
        <ele>166.32</ele>
        <time>2023-10-17T01:32:26.060Z</time>
      </trkpt>
      <trkpt lat="45.68956710398197" lon="17.669948749244213">
        <ele>166.29</ele>
        <time>2023-10-17T01:32:31.867Z</time>
      </trkpt>
      <trkpt lat="45.689565846696496" lon="17.669946905225515">
        <ele>166.25</ele>
        <time>2023-10-17T01:32:37.674Z</time>
      </trkpt>
      <trkpt lat="45.68956458941102" lon="17.669944977387786">
        <ele>166.22</ele>
        <time>2023-10-17T01:32:43.481Z</time>
      </trkpt>
      <trkpt lat="45.68956349976361" lon="17.66994321718812">
        <ele>166.18</ele>
        <time>2023-10-17T01:32:49.288Z</time>
      </trkpt>
      <trkpt lat="45.68956249393523" lon="17.669941540807486">
        <ele>166.14</ele>
        <time>2023-10-17T01:32:55.095Z</time>
      </trkpt>
      <trkpt lat="45.68956157192588" lon="17.669940199702978">
        <ele>166.1</ele>
        <time>2023-10-17T01:33:00.902Z</time>
      </trkpt>
      <trkpt lat="45.68956073373556" lon="17.669939026236534">
        <ele>166.06</ele>
        <time>2023-10-17T01:33:06.709Z</time>
      </trkpt>
      <trkpt lat="45.68956023082137" lon="17.66993835568428">
        <ele>166.02</ele>
        <time>2023-10-17T01:33:12.516Z</time>
      </trkpt>
      <trkpt lat="45.68956006318331" lon="17.66993827186525">
        <ele>165.98</ele>
        <time>2023-10-17T01:33:18.323Z</time>
      </trkpt>
      <trkpt lat="45.68956023082137" lon="17.669938607141376">
        <ele>165.94</ele>
        <time>2023-10-17T01:33:24.130Z</time>
      </trkpt>
      <trkpt lat="45.689560901373625" lon="17.669939612969756">
        <ele>165.89</ele>
        <time>2023-10-17T01:33:29.937Z</time>
      </trkpt>
      <trkpt lat="45.68956199102104" lon="17.66994128935039">
        <ele>165.85</ele>
        <time>2023-10-17T01:33:35.744Z</time>
      </trkpt>
      <trkpt lat="45.68956349976361" lon="17.66994363628328">
        <ele>165.8</ele>
        <time>2023-10-17T01:33:41.551Z</time>
      </trkpt>
      <trkpt lat="45.68956542760134" lon="17.669946402311325">
        <ele>165.75</ele>
        <time>2023-10-17T01:33:47.359Z</time>
      </trkpt>
      <trkpt lat="45.689567774534225" lon="17.66994958743453">
        <ele>165.71</ele>
        <time>2023-10-17T01:33:53.167Z</time>
      </trkpt>
      <trkpt lat="45.689570624381304" lon="17.669953107833862">
        <ele>165.66</ele>
        <time>2023-10-17T01:33:58.975Z</time>
      </trkpt>
      <trkpt lat="45.68957397714257" lon="17.66995687969029">
        <ele>165.61</ele>
        <time>2023-10-17T01:34:04.783Z</time>
      </trkpt>
      <trkpt lat="45.689577748999" lon="17.66996081918478">
        <ele>165.56</ele>
        <time>2023-10-17T01:34:10.591Z</time>
      </trkpt>
      <trkpt lat="45.689581939950585" lon="17.66996475867927">
        <ele>165.51</ele>
        <time>2023-10-17T01:34:16.399Z</time>
      </trkpt>
      <trkpt lat="45.6895864661783" lon="17.66996869817376">
        <ele>165.46</ele>
        <time>2023-10-17T01:34:22.207Z</time>
      </trkpt>
      <trkpt lat="45.689591160044074" lon="17.66997247003019">
        <ele>165.4</ele>
        <time>2023-10-17T01:34:28.016Z</time>
      </trkpt>
      <trkpt lat="45.68959593772888" lon="17.669976074248552">
        <ele>165.35</ele>
        <time>2023-10-17T01:34:33.825Z</time>
      </trkpt>
      <trkpt lat="45.68960071541369" lon="17.66997942700982">
        <ele>165.3</ele>
        <time>2023-10-17T01:34:39.634Z</time>
      </trkpt>
      <trkpt lat="45.68960566073656" lon="17.669982612133026">
        <ele>165.24</ele>
        <time>2023-10-17T01:34:45.443Z</time>
      </trkpt>
      <trkpt lat="45.689610689878464" lon="17.669985881075263">
        <ele>165.19</ele>
        <time>2023-10-17T01:34:51.252Z</time>
      </trkpt>
      <trkpt lat="45.6896158028394" lon="17.66998923383653">
        <ele>165.13</ele>
        <time>2023-10-17T01:34:57.062Z</time>
      </trkpt>
      <trkpt lat="45.68962125107646" lon="17.6699925865978">
        <ele>165.08</ele>
        <time>2023-10-17T01:35:02.872Z</time>
      </trkpt>
      <trkpt lat="45.689626866951585" lon="17.669996106997132">
        <ele>165.03</ele>
        <time>2023-10-17T01:35:08.682Z</time>
      </trkpt>
      <trkpt lat="45.68963265046477" lon="17.669999711215496">
        <ele>164.97</ele>
        <time>2023-10-17T01:35:14.492Z</time>
      </trkpt>
      <trkpt lat="45.68963851779699" lon="17.67000331543386">
        <ele>164.91</ele>
        <time>2023-10-17T01:35:20.302Z</time>
      </trkpt>
      <trkpt lat="45.68964480422437" lon="17.670007003471255">
        <ele>164.86</ele>
        <time>2023-10-17T01:35:26.113Z</time>
      </trkpt>
      <trkpt lat="45.689651342108846" lon="17.670010523870587">
        <ele>164.8</ele>
        <time>2023-10-17T01:35:31.924Z</time>
      </trkpt>
      <trkpt lat="45.689658215269446" lon="17.67001404426992">
        <ele>164.75</ele>
        <time>2023-10-17T01:35:37.735Z</time>
      </trkpt>
      <trkpt lat="45.689665507525206" lon="17.670017313212156">
        <ele>164.69</ele>
        <time>2023-10-17T01:35:43.546Z</time>
      </trkpt>
      <trkpt lat="45.68967313505709" lon="17.670020246878266">
        <ele>164.64</ele>
        <time>2023-10-17T01:35:49.358Z</time>
      </trkpt>
      <trkpt lat="45.68968093022704" lon="17.67002284526825">
        <ele>164.58</ele>
        <time>2023-10-17T01:35:55.170Z</time>
      </trkpt>
      <trkpt lat="45.689688976854086" lon="17.6700253598392">
        <ele>164.53</ele>
        <time>2023-10-17T01:36:00.982Z</time>
      </trkpt>
      <trkpt lat="45.68969710730016" lon="17.670027874410152">
        <ele>164.48</ele>
        <time>2023-10-17T01:36:06.794Z</time>
      </trkpt>
      <trkpt lat="45.68970532156527" lon="17.670030556619167">
        <ele>164.42</ele>
        <time>2023-10-17T01:36:12.607Z</time>
      </trkpt>
      <trkpt lat="45.68971370346844" lon="17.670033741742373">
        <ele>164.37</ele>
        <time>2023-10-17T01:36:18.420Z</time>
      </trkpt>
      <trkpt lat="45.689722169190645" lon="17.670037345960736">
        <ele>164.32</ele>
        <time>2023-10-17T01:36:24.233Z</time>
      </trkpt>
      <trkpt lat="45.68973071873188" lon="17.670041536912322">
        <ele>164.27</ele>
        <time>2023-10-17T01:36:30.047Z</time>
      </trkpt>
      <trkpt lat="45.68973935209215" lon="17.67004631459713">
        <ele>164.22</ele>
        <time>2023-10-17T01:36:35.861Z</time>
      </trkpt>
      <trkpt lat="45.68974823690951" lon="17.67005176283419">
        <ele>164.17</ele>
        <time>2023-10-17T01:36:41.675Z</time>
      </trkpt>
      <trkpt lat="45.689757373183966" lon="17.6700581330806">
        <ele>164.12</ele>
        <time>2023-10-17T01:36:47.490Z</time>
      </trkpt>
      <trkpt lat="45.689766593277454" lon="17.670065173879266">
        <ele>164.07</ele>
        <time>2023-10-17T01:36:53.305Z</time>
      </trkpt>
      <trkpt lat="45.68977581337094" lon="17.67007322050631">
        <ele>164.02</ele>
        <time>2023-10-17T01:36:59.120Z</time>
      </trkpt>
      <trkpt lat="45.68978511728346" lon="17.670081853866577">
        <ele>163.98</ele>
        <time>2023-10-17T01:37:04.936Z</time>
      </trkpt>
      <trkpt lat="45.689794505015016" lon="17.67009124159813">
        <ele>163.94</ele>
        <time>2023-10-17T01:37:10.752Z</time>
      </trkpt>
      <trkpt lat="45.689803725108504" lon="17.670100880786777">
        <ele>163.9</ele>
        <time>2023-10-17T01:37:16.568Z</time>
      </trkpt>
      <trkpt lat="45.68981294520199" lon="17.67011077143252">
        <ele>163.86</ele>
        <time>2023-10-17T01:37:22.385Z</time>
      </trkpt>
      <trkpt lat="45.68982208147645" lon="17.670120829716325">
        <ele>163.82</ele>
        <time>2023-10-17T01:37:28.202Z</time>
      </trkpt>
      <trkpt lat="45.68983105011284" lon="17.6701308041811">
        <ele>163.79</ele>
        <time>2023-10-17T01:37:34.020Z</time>
      </trkpt>
      <trkpt lat="45.689839851111174" lon="17.670140359550714">
        <ele>163.75</ele>
        <time>2023-10-17T01:37:39.838Z</time>
      </trkpt>
      <trkpt lat="45.68984840065241" lon="17.670149328187108">
        <ele>163.72</ele>
        <time>2023-10-17T01:37:45.656Z</time>
      </trkpt>
      <trkpt lat="45.68985661491752" lon="17.67015771009028">
        <ele>163.68</ele>
        <time>2023-10-17T01:37:51.475Z</time>
      </trkpt>
      <trkpt lat="45.68986466154456" lon="17.670165421441197">
        <ele>163.65</ele>
        <time>2023-10-17T01:37:57.294Z</time>
      </trkpt>
      <trkpt lat="45.68987254053354" lon="17.670172713696957">
        <ele>163.62</ele>
        <time>2023-10-17T01:38:03.113Z</time>
      </trkpt>
      <trkpt lat="45.68988016806543" lon="17.670179503038526">
        <ele>163.59</ele>
        <time>2023-10-17T01:38:08.933Z</time>
      </trkpt>
      <trkpt lat="45.68988771177828" lon="17.670185789465904">
        <ele>163.56</ele>
        <time>2023-10-17T01:38:14.753Z</time>
      </trkpt>
      <trkpt lat="45.689895171672106" lon="17.670191656798124">
        <ele>163.53</ele>
        <time>2023-10-17T01:38:20.573Z</time>
      </trkpt>
      <trkpt lat="45.689902463927865" lon="17.670196602120996">
        <ele>163.5</ele>
        <time>2023-10-17T01:38:26.393Z</time>
      </trkpt>
      <trkpt lat="45.68990958854556" lon="17.67020020633936">
        <ele>163.47</ele>
        <time>2023-10-17T01:38:32.214Z</time>
      </trkpt>
      <trkpt lat="45.68991646170616" lon="17.67020221799612">
        <ele>163.45</ele>
        <time>2023-10-17T01:38:38.035Z</time>
      </trkpt>
      <trkpt lat="45.68992308340967" lon="17.670202804729342">
        <ele>163.42</ele>
        <time>2023-10-17T01:38:43.856Z</time>
      </trkpt>
      <trkpt lat="45.68992953747511" lon="17.670201882719994">
        <ele>163.4</ele>
        <time>2023-10-17T01:38:49.677Z</time>
      </trkpt>
      <trkpt lat="45.68993557244539" lon="17.670199368149042">
        <ele>163.37</ele>
        <time>2023-10-17T01:38:55.499Z</time>
      </trkpt>
      <trkpt lat="45.68994185887277" lon="17.670195680111647">
        <ele>163.35</ele>
        <time>2023-10-17T01:39:01.321Z</time>
      </trkpt>
      <trkpt lat="45.68994831293821" lon="17.67019048333168">
        <ele>163.33</ele>
        <time>2023-10-17T01:39:07.143Z</time>
      </trkpt>
      <trkpt lat="45.68995510227978" lon="17.670184029266238">
        <ele>163.31</ele>
        <time>2023-10-17T01:39:12.965Z</time>
      </trkpt>
      <trkpt lat="45.68996222689748" lon="17.67017623409629">
        <ele>163.29</ele>
        <time>2023-10-17T01:39:18.788Z</time>
      </trkpt>
      <trkpt lat="45.689969854429364" lon="17.670167684555054">
        <ele>163.27</ele>
        <time>2023-10-17T01:39:24.611Z</time>
      </trkpt>
      <trkpt lat="45.68997790105641" lon="17.670158799737692">
        <ele>163.26</ele>
        <time>2023-10-17T01:39:30.434Z</time>
      </trkpt>
      <trkpt lat="45.68998636677861" lon="17.670150250196457">
        <ele>163.24</ele>
        <time>2023-10-17T01:39:36.258Z</time>
      </trkpt>
      <trkpt lat="45.689995251595974" lon="17.67014262266457">
        <ele>163.22</ele>
        <time>2023-10-17T01:39:42.082Z</time>
      </trkpt>
      <trkpt lat="45.69000472314656" lon="17.67013675533235">
        <ele>163.21</ele>
        <time>2023-10-17T01:39:47.906Z</time>
      </trkpt>
      <trkpt lat="45.69001452997327" lon="17.670132899656892">
        <ele>163.2</ele>
        <time>2023-10-17T01:39:53.731Z</time>
      </trkpt>
      <trkpt lat="45.6900249235332" lon="17.670131055638194">
        <ele>163.18</ele>
        <time>2023-10-17T01:39:59.556Z</time>
      </trkpt>
      <trkpt lat="45.6900352332741" lon="17.670131139457226">
        <ele>163.17</ele>
        <time>2023-10-17T01:40:05.381Z</time>
      </trkpt>
      <trkpt lat="45.69004529155791" lon="17.670132899656892">
        <ele>163.16</ele>
        <time>2023-10-17T01:40:11.207Z</time>
      </trkpt>
      <trkpt lat="45.69005467928946" lon="17.670136084780097">
        <ele>163.15</ele>
        <time>2023-10-17T01:40:17.033Z</time>
      </trkpt>
      <trkpt lat="45.69006331264973" lon="17.670140443369746">
        <ele>163.14</ele>
        <time>2023-10-17T01:40:22.859Z</time>
      </trkpt>
      <trkpt lat="45.69007077254355" lon="17.670145221054554">
        <ele>163.13</ele>
        <time>2023-10-17T01:40:28.686Z</time>
      </trkpt>
      <trkpt lat="45.69007705897093" lon="17.670150166377425">
        <ele>163.12</ele>
        <time>2023-10-17T01:40:34.513Z</time>
      </trkpt>
      <trkpt lat="45.690082339569926" lon="17.67015527933836">
        <ele>163.12</ele>
        <time>2023-10-17T01:40:40.340Z</time>
      </trkpt>
      <trkpt lat="45.69008678197861" lon="17.670160308480263">
        <ele>163.11</ele>
        <time>2023-10-17T01:40:46.167Z</time>
      </trkpt>
      <trkpt lat="45.69009038619697" lon="17.67016449943185">
        <ele>163.1</ele>
        <time>2023-10-17T01:40:51.994Z</time>
      </trkpt>
      <trkpt lat="45.690093068405986" lon="17.67016801983118">
        <ele>163.1</ele>
        <time>2023-10-17T01:40:57.821Z</time>
      </trkpt>
      <trkpt lat="45.690094996243715" lon="17.670170702040195">
        <ele>163.09</ele>
        <time>2023-10-17T01:41:03.649Z</time>
      </trkpt>
      <trkpt lat="45.69009616971016" lon="17.670172713696957">
        <ele>163.09</ele>
        <time>2023-10-17T01:41:09.477Z</time>
      </trkpt>
      <trkpt lat="45.69009684026241" lon="17.670174222439528">
        <ele>163.08</ele>
        <time>2023-10-17T01:41:15.305Z</time>
      </trkpt>
      <trkpt lat="45.69009700790048" lon="17.670175479725003">
        <ele>163.08</ele>
        <time>2023-10-17T01:41:21.133Z</time>
      </trkpt>
      <trkpt lat="45.69009684026241" lon="17.67017673701048">
        <ele>163.08</ele>
        <time>2023-10-17T01:41:26.961Z</time>
      </trkpt>
      <trkpt lat="45.69009658880532" lon="17.670178078114986">
        <ele>163.07</ele>
        <time>2023-10-17T01:41:32.789Z</time>
      </trkpt>
      <trkpt lat="45.69009616971016" lon="17.670179922133684">
        <ele>163.07</ele>
        <time>2023-10-17T01:41:38.617Z</time>
      </trkpt>
      <trkpt lat="45.69009558297694" lon="17.67018210142851">
        <ele>163.07</ele>
        <time>2023-10-17T01:41:44.445Z</time>
      </trkpt>
      <trkpt lat="45.69009466096759" lon="17.670184867456555">
        <ele>163.06</ele>
        <time>2023-10-17T01:41:50.273Z</time>
      </trkpt>
      <trkpt lat="45.690093487501144" lon="17.670187884941697">
        <ele>163.06</ele>
        <time>2023-10-17T01:41:56.101Z</time>
      </trkpt>
      <trkpt lat="45.690092062577605" lon="17.670191237702966">
        <ele>163.06</ele>
        <time>2023-10-17T01:42:01.929Z</time>
      </trkpt>
      <trkpt lat="45.69009030237794" lon="17.670194758102298">
        <ele>163.06</ele>
        <time>2023-10-17T01:42:07.757Z</time>
      </trkpt>
      <trkpt lat="45.69008845835924" lon="17.67019836232066">
        <ele>163.06</ele>
        <time>2023-10-17T01:42:13.585Z</time>
      </trkpt>
      <trkpt lat="45.690086614340544" lon="17.670201798900962">
        <ele>163.05</ele>
        <time>2023-10-17T01:42:19.413Z</time>
      </trkpt>
      <trkpt lat="45.69008493795991" lon="17.670205235481262">
        <ele>163.05</ele>
        <time>2023-10-17T01:42:25.241Z</time>
      </trkpt>
      <trkpt lat="45.69008351303637" lon="17.6702085044235">
        <ele>163.05</ele>
        <time>2023-10-17T01:42:31.070Z</time>
      </trkpt>
      <trkpt lat="45.690082255750895" lon="17.67021152190864">
        <ele>163.05</ele>
        <time>2023-10-17T01:42:36.899Z</time>
      </trkpt>
      <trkpt lat="45.69008150137961" lon="17.67021437175572">
        <ele>163.04</ele>
        <time>2023-10-17T01:42:42.728Z</time>
      </trkpt>
      <trkpt lat="45.69008141756058" lon="17.670216970145702">
        <ele>163.04</ele>
        <time>2023-10-17T01:42:48.557Z</time>
      </trkpt>
      <trkpt lat="45.69008217193186" lon="17.67021931707859">
        <ele>163.04</ele>
        <time>2023-10-17T01:42:54.386Z</time>
      </trkpt>
      <trkpt lat="45.690083680674434" lon="17.670221496373415">
        <ele>163.03</ele>
        <time>2023-10-17T01:43:00.215Z</time>
      </trkpt>
      <trkpt lat="45.69008602760732" lon="17.670223591849208">
        <ele>163.03</ele>
        <time>2023-10-17T01:43:06.044Z</time>
      </trkpt>
      <trkpt lat="45.690089128911495" lon="17.670225771144032">
        <ele>163.03</ele>
        <time>2023-10-17T01:43:11.873Z</time>
      </trkpt>
      <trkpt lat="45.69009264931083" lon="17.670227950438857">
        <ele>163.02</ele>
        <time>2023-10-17T01:43:17.702Z</time>
      </trkpt>
      <trkpt lat="45.690096504986286" lon="17.67023004591465">
        <ele>163.02</ele>
        <time>2023-10-17T01:43:23.531Z</time>
      </trkpt>
      <trkpt lat="45.69010069593787" lon="17.670232141390443">
        <ele>163.01</ele>
        <time>2023-10-17T01:43:29.361Z</time>
      </trkpt>
      <trkpt lat="45.69010497070849" lon="17.670234236866236">
        <ele>163.0</ele>
        <time>2023-10-17T01:43:35.191Z</time>
      </trkpt>
      <trkpt lat="45.69010941311717" lon="17.670236248522997">
        <ele>163.0</ele>
        <time>2023-10-17T01:43:41.021Z</time>
      </trkpt>
      <trkpt lat="45.69011368788779" lon="17.670238260179758">
        <ele>162.99</ele>
        <time>2023-10-17T01:43:46.851Z</time>
      </trkpt>
      <trkpt lat="45.69011754356325" lon="17.67024035565555">
        <ele>162.98</ele>
        <time>2023-10-17T01:43:52.681Z</time>
      </trkpt>
      <trkpt lat="45.690120896324515" lon="17.670242367312312">
        <ele>162.97</ele>
        <time>2023-10-17T01:43:58.511Z</time>
      </trkpt>
      <trkpt lat="45.69012366235256" lon="17.67024429515004">
        <ele>162.97</ele>
        <time>2023-10-17T01:44:04.341Z</time>
      </trkpt>
      <trkpt lat="45.69012600928545" lon="17.670245887711644">
        <ele>162.96</ele>
        <time>2023-10-17T01:44:10.171Z</time>
      </trkpt>
      <trkpt lat="45.690127769485116" lon="17.67024722881615">
        <ele>162.95</ele>
        <time>2023-10-17T01:44:16.002Z</time>
      </trkpt>
      <trkpt lat="45.69012944586575" lon="17.670248234644532">
        <ele>162.94</ele>
        <time>2023-10-17T01:44:21.833Z</time>
      </trkpt>
      <trkpt lat="45.690131206065416" lon="17.670248905196786">
        <ele>162.93</ele>
        <time>2023-10-17T01:44:27.664Z</time>
      </trkpt>
      <trkpt lat="45.69013288244605" lon="17.670249491930008">
        <ele>162.92</ele>
        <time>2023-10-17T01:44:33.495Z</time>
      </trkpt>
      <trkpt lat="45.69013481028378" lon="17.670249911025167">
        <ele>162.91</ele>
        <time>2023-10-17T01:44:39.326Z</time>
      </trkpt>
      <trkpt lat="45.69013682194054" lon="17.670250665396452">
        <ele>162.9</ele>
        <time>2023-10-17T01:44:45.157Z</time>
      </trkpt>
      <trkpt lat="45.6901390850544" lon="17.67025150358677">
        <ele>162.89</ele>
        <time>2023-10-17T01:44:50.988Z</time>
      </trkpt>
      <trkpt lat="45.690141431987286" lon="17.670252677053213">
        <ele>162.87</ele>
        <time>2023-10-17T01:44:56.819Z</time>
      </trkpt>
      <trkpt lat="45.690143862739205" lon="17.670254185795784">
        <ele>162.86</ele>
        <time>2023-10-17T01:45:02.650Z</time>
      </trkpt>
      <trkpt lat="45.69014637731016" lon="17.67025602981448">
        <ele>162.85</ele>
        <time>2023-10-17T01:45:08.481Z</time>
      </trkpt>
      <trkpt lat="45.69014897570014" lon="17.670258209109306">
        <ele>162.83</ele>
        <time>2023-10-17T01:45:14.312Z</time>
      </trkpt>
      <trkpt lat="45.69015182554722" lon="17.670260723680258">
        <ele>162.82</ele>
        <time>2023-10-17T01:45:20.143Z</time>
      </trkpt>
      <trkpt lat="45.690154591575265" lon="17.670263405889273">
        <ele>162.81</ele>
        <time>2023-10-17T01:45:25.974Z</time>
      </trkpt>
      <trkpt lat="45.69015727378428" lon="17.670266423374414">
        <ele>162.79</ele>
        <time>2023-10-17T01:45:31.806Z</time>
      </trkpt>
      <trkpt lat="45.690159955993295" lon="17.67026960849762">
        <ele>162.78</ele>
        <time>2023-10-17T01:45:37.638Z</time>
      </trkpt>
      <trkpt lat="45.69016255438328" lon="17.67027312889695">
        <ele>162.76</ele>
        <time>2023-10-17T01:45:43.470Z</time>
      </trkpt>
      <trkpt lat="45.69016523659229" lon="17.670276733115315">
        <ele>162.74</ele>
        <time>2023-10-17T01:45:49.302Z</time>
      </trkpt>
      <trkpt lat="45.690168337896466" lon="17.670280504971743">
        <ele>162.73</ele>
        <time>2023-10-17T01:45:55.134Z</time>
      </trkpt>
      <trkpt lat="45.69017194211483" lon="17.6702843606472">
        <ele>162.71</ele>
        <time>2023-10-17T01:46:00.966Z</time>
      </trkpt>
      <trkpt lat="45.69017621688545" lon="17.670288300141692">
        <ele>162.69</ele>
        <time>2023-10-17T01:46:06.798Z</time>
      </trkpt>
      <trkpt lat="45.69018132984638" lon="17.670292323455215">
        <ele>162.68</ele>
        <time>2023-10-17T01:46:12.631Z</time>
      </trkpt>
      <trkpt lat="45.6901871971786" lon="17.670296262949705">
        <ele>162.66</ele>
        <time>2023-10-17T01:46:18.464Z</time>
      </trkpt>
      <trkpt lat="45.69019390270114" lon="17.67030037008226">
        <ele>162.64</ele>
        <time>2023-10-17T01:46:24.297Z</time>
      </trkpt>
      <trkpt lat="45.69020127877593" lon="17.670304561033845">
        <ele>162.62</ele>
        <time>2023-10-17T01:46:30.130Z</time>
      </trkpt>
      <trkpt lat="45.69020924158394" lon="17.670308835804462">
        <ele>162.6</ele>
        <time>2023-10-17T01:46:35.964Z</time>
      </trkpt>
      <trkpt lat="45.69021779112518" lon="17.67031319439411">
        <ele>162.59</ele>
        <time>2023-10-17T01:46:41.798Z</time>
      </trkpt>
      <trkpt lat="45.690226927399635" lon="17.670317301526666">
        <ele>162.57</ele>
        <time>2023-10-17T01:46:47.632Z</time>
      </trkpt>
      <trkpt lat="45.69023648276925" lon="17.670321157202125">
        <ele>162.55</ele>
        <time>2023-10-17T01:46:53.467Z</time>
      </trkpt>
      <trkpt lat="45.690246457234025" lon="17.670324593782425">
        <ele>162.53</ele>
        <time>2023-10-17T01:46:59.302Z</time>
      </trkpt>
      <trkpt lat="45.69025651551783" lon="17.670327611267567">
        <ele>162.51</ele>
        <time>2023-10-17T01:47:05.137Z</time>
      </trkpt>
      <trkpt lat="45.6902667414397" lon="17.670330125838518">
        <ele>162.49</ele>
        <time>2023-10-17T01:47:10.973Z</time>
      </trkpt>
      <trkpt lat="45.69027696736157" lon="17.67033213749528">
        <ele>162.47</ele>
        <time>2023-10-17T01:47:16.809Z</time>
      </trkpt>
      <trkpt lat="45.690287025645375" lon="17.670333813875914">
        <ele>162.45</ele>
        <time>2023-10-17T01:47:22.645Z</time>
      </trkpt>
      <trkpt lat="45.690296832472086" lon="17.670334987342358">
        <ele>162.43</ele>
        <time>2023-10-17T01:47:28.482Z</time>
      </trkpt>
      <trkpt lat="45.6903066392988" lon="17.670335825532675">
        <ele>162.41</ele>
        <time>2023-10-17T01:47:34.319Z</time>
      </trkpt>
      <trkpt lat="45.690316362306476" lon="17.670336328446865">
        <ele>162.4</ele>
        <time>2023-10-17T01:47:40.156Z</time>
      </trkpt>
      <trkpt lat="45.69032591767609" lon="17.67033657990396">
        <ele>162.38</ele>
        <time>2023-10-17T01:47:45.994Z</time>
      </trkpt>
      <trkpt lat="45.69033530540764" lon="17.670336831361055">
        <ele>162.36</ele>
        <time>2023-10-17T01:47:51.832Z</time>
      </trkpt>
      <trkpt lat="45.6903444416821" lon="17.670337250456214">
        <ele>162.34</ele>
        <time>2023-10-17T01:47:57.670Z</time>
      </trkpt>
      <trkpt lat="45.69035332649946" lon="17.67033808864653">
        <ele>162.33</ele>
        <time>2023-10-17T01:48:03.509Z</time>
      </trkpt>
      <trkpt lat="45.690362295135856" lon="17.670339345932007">
        <ele>162.31</ele>
        <time>2023-10-17T01:48:09.348Z</time>
      </trkpt>
      <trkpt lat="45.69037117995322" lon="17.670341106131673">
        <ele>162.3</ele>
        <time>2023-10-17T01:48:15.187Z</time>
      </trkpt>
      <trkpt lat="45.69037998095155" lon="17.67034336924553">
        <ele>162.28</ele>
        <time>2023-10-17T01:48:21.026Z</time>
      </trkpt>
      <trkpt lat="45.69038886576891" lon="17.670346219092607">
        <ele>162.27</ele>
        <time>2023-10-17T01:48:26.866Z</time>
      </trkpt>
      <trkpt lat="45.69039775058627" lon="17.67034973949194">
        <ele>162.25</ele>
        <time>2023-10-17T01:48:32.706Z</time>
      </trkpt>
      <trkpt lat="45.6904068030417" lon="17.67035409808159">
        <ele>162.24</ele>
        <time>2023-10-17T01:48:38.546Z</time>
      </trkpt>
      <trkpt lat="45.690416023135185" lon="17.670359294861555">
        <ele>162.23</ele>
        <time>2023-10-17T01:48:44.387Z</time>
      </trkpt>
      <trkpt lat="45.69042515940964" lon="17.670365162193775">
        <ele>162.22</ele>
        <time>2023-10-17T01:48:50.228Z</time>
      </trkpt>
      <trkpt lat="45.6904342956841" lon="17.670371616259217">
        <ele>162.2</ele>
        <time>2023-10-17T01:48:56.069Z</time>
      </trkpt>
      <trkpt lat="45.69044326432049" lon="17.67037857323885">
        <ele>162.19</ele>
        <time>2023-10-17T01:49:01.911Z</time>
      </trkpt>
      <trkpt lat="45.69045189768076" lon="17.67038594931364">
        <ele>162.18</ele>
        <time>2023-10-17T01:49:07.753Z</time>
      </trkpt>
      <trkpt lat="45.69046011194587" lon="17.670393409207463">
        <ele>162.17</ele>
        <time>2023-10-17T01:49:13.595Z</time>
      </trkpt>
      <trkpt lat="45.690467823296785" lon="17.67040103673935">
        <ele>162.16</ele>
        <time>2023-10-17T01:49:19.438Z</time>
      </trkpt>
      <trkpt lat="45.690475199371576" lon="17.6704088319093">
        <ele>162.15</ele>
        <time>2023-10-17T01:49:25.281Z</time>
      </trkpt>
      <trkpt lat="45.69048224017024" lon="17.670416543260217">
        <ele>162.14</ele>
        <time>2023-10-17T01:49:31.124Z</time>
      </trkpt>
      <trkpt lat="45.690488778054714" lon="17.670424170792103">
        <ele>162.13</ele>
        <time>2023-10-17T01:49:36.968Z</time>
      </trkpt>
      <trkpt lat="45.690494813025" lon="17.670431463047862">
        <ele>162.13</ele>
        <time>2023-10-17T01:49:42.812Z</time>
      </trkpt>
      <trkpt lat="45.690500512719154" lon="17.6704381685704">
        <ele>162.12</ele>
        <time>2023-10-17T01:49:48.656Z</time>
      </trkpt>
      <trkpt lat="45.69050604477525" lon="17.670444454997778">
        <ele>162.11</ele>
        <time>2023-10-17T01:49:54.500Z</time>
      </trkpt>
      <trkpt lat="45.69051149301231" lon="17.670450070872903">
        <ele>162.11</ele>
        <time>2023-10-17T01:50:00.345Z</time>
      </trkpt>
      <trkpt lat="45.690517108887434" lon="17.670455016195774">
        <ele>162.1</ele>
        <time>2023-10-17T01:50:06.190Z</time>
      </trkpt>
      <trkpt lat="45.69052272476256" lon="17.67045929096639">
        <ele>162.1</ele>
        <time>2023-10-17T01:50:12.035Z</time>
      </trkpt>
      <trkpt lat="45.69052859209478" lon="17.67046306282282">
        <ele>162.09</ele>
        <time>2023-10-17T01:50:17.880Z</time>
      </trkpt>
      <trkpt lat="45.690534710884094" lon="17.67046649940312">
        <ele>162.09</ele>
        <time>2023-10-17T01:50:23.725Z</time>
      </trkpt>
      <trkpt lat="45.690541081130505" lon="17.670469684526324">
        <ele>162.08</ele>
        <time>2023-10-17T01:50:29.571Z</time>
      </trkpt>
      <trkpt lat="45.69054778665304" lon="17.67047286964953">
        <ele>162.08</ele>
        <time>2023-10-17T01:50:35.417Z</time>
      </trkpt>
      <trkpt lat="45.69055465981364" lon="17.670475970953703">
        <ele>162.08</ele>
        <time>2023-10-17T01:50:41.263Z</time>
      </trkpt>
      <trkpt lat="45.69056186825037" lon="17.670479072257876">
        <ele>162.07</ele>
        <time>2023-10-17T01:50:47.109Z</time>
      </trkpt>
      <trkpt lat="45.690569411963224" lon="17.670482341200113">
        <ele>162.07</ele>
        <time>2023-10-17T01:50:52.956Z</time>
      </trkpt>
      <trkpt lat="45.690577290952206" lon="17.670485861599445">
        <ele>162.07</ele>
        <time>2023-10-17T01:50:58.803Z</time>
      </trkpt>
      <trkpt lat="45.69058542139828" lon="17.670489633455873">
        <ele>162.07</ele>
        <time>2023-10-17T01:51:04.650Z</time>
      </trkpt>
      <trkpt lat="45.690593803301454" lon="17.67049382440746">
        <ele>162.07</ele>
        <time>2023-10-17T01:51:10.497Z</time>
      </trkpt>
      <trkpt lat="45.69060243666172" lon="17.670498434454203">
        <ele>162.07</ele>
        <time>2023-10-17T01:51:16.345Z</time>
      </trkpt>
      <trkpt lat="45.69061115384102" lon="17.670503379777074">
        <ele>162.06</ele>
        <time>2023-10-17T01:51:22.193Z</time>
      </trkpt>
      <trkpt lat="45.690619703382254" lon="17.670508660376072">
        <ele>162.06</ele>
        <time>2023-10-17T01:51:28.041Z</time>
      </trkpt>
      <trkpt lat="45.69062800146639" lon="17.670514108613133">
        <ele>162.06</ele>
        <time>2023-10-17T01:51:33.890Z</time>
      </trkpt>
      <trkpt lat="45.690635880455375" lon="17.670519640669227">
        <ele>162.06</ele>
        <time>2023-10-17T01:51:39.739Z</time>
      </trkpt>
      <trkpt lat="45.69064350798726" lon="17.670525340363383">
        <ele>162.07</ele>
        <time>2023-10-17T01:51:45.588Z</time>
      </trkpt>
      <trkpt lat="45.69065080024302" lon="17.67053104005754">
        <ele>162.07</ele>
        <time>2023-10-17T01:51:51.438Z</time>
      </trkpt>
      <trkpt lat="45.690657841041684" lon="17.670536739751697">
        <ele>162.07</ele>
        <time>2023-10-17T01:51:57.288Z</time>
      </trkpt>
      <trkpt lat="45.69066463038325" lon="17.670542104169726">
        <ele>162.07</ele>
        <time>2023-10-17T01:52:03.138Z</time>
      </trkpt>
      <trkpt lat="45.690671084448695" lon="17.67054713331163">
        <ele>162.07</ele>
        <time>2023-10-17T01:52:08.988Z</time>
      </trkpt>
      <trkpt lat="45.69067703559995" lon="17.670550821349025">
        <ele>162.07</ele>
        <time>2023-10-17T01:52:14.839Z</time>
      </trkpt>
      <trkpt lat="45.69068265147507" lon="17.670552916824818">
        <ele>162.07</ele>
        <time>2023-10-17T01:52:20.690Z</time>
      </trkpt>
      <trkpt lat="45.6906880158931" lon="17.67055358737707">
        <ele>162.07</ele>
        <time>2023-10-17T01:52:26.541Z</time>
      </trkpt>
      <trkpt lat="45.69069321267307" lon="17.670552413910627">
        <ele>162.07</ele>
        <time>2023-10-17T01:52:32.392Z</time>
      </trkpt>
      <trkpt lat="45.690698493272066" lon="17.670549731701612">
        <ele>162.07</ele>
        <time>2023-10-17T01:52:38.243Z</time>
      </trkpt>
      <trkpt lat="45.69070394150913" lon="17.67054570838809">
        <ele>162.07</ele>
        <time>2023-10-17T01:52:44.094Z</time>
      </trkpt>
      <trkpt lat="45.690709725022316" lon="17.670540595427155">
        <ele>162.08</ele>
        <time>2023-10-17T01:52:49.946Z</time>
      </trkpt>
      <trkpt lat="45.69071592763066" lon="17.670534811913967">
        <ele>162.08</ele>
        <time>2023-10-17T01:52:55.798Z</time>
      </trkpt>
      <trkpt lat="45.69072254933417" lon="17.670528357848525">
        <ele>162.08</ele>
        <time>2023-10-17T01:53:01.650Z</time>
      </trkpt>
      <trkpt lat="45.69072959013283" lon="17.67052173614502">
        <ele>162.08</ele>
        <time>2023-10-17T01:53:07.502Z</time>
      </trkpt>
      <trkpt lat="45.690737469121814" lon="17.670515114441514">
        <ele>162.08</ele>
        <time>2023-10-17T01:53:13.355Z</time>
      </trkpt>
      <trkpt lat="45.69074618630111" lon="17.67050958238542">
        <ele>162.08</ele>
        <time>2023-10-17T01:53:19.208Z</time>
      </trkpt>
      <trkpt lat="45.6907554063946" lon="17.670505307614803">
        <ele>162.08</ele>
        <time>2023-10-17T01:53:25.061Z</time>
      </trkpt>
      <trkpt lat="45.69076529704034" lon="17.67050178721547">
        <ele>162.08</ele>
        <time>2023-10-17T01:53:30.915Z</time>
      </trkpt>
      <trkpt lat="45.69077594205737" lon="17.67049969173968">
        <ele>162.08</ele>
        <time>2023-10-17T01:53:36.769Z</time>
      </trkpt>
      <trkpt lat="45.690786838531494" lon="17.670498602092266">
        <ele>162.08</ele>
        <time>2023-10-17T01:53:42.623Z</time>
      </trkpt>
      <trkpt lat="45.69079823791981" lon="17.670498602092266">
        <ele>162.07</ele>
        <time>2023-10-17T01:53:48.478Z</time>
      </trkpt>
      <trkpt lat="45.690809804946184" lon="17.67049969173968">
        <ele>162.07</ele>
        <time>2023-10-17T01:53:54.333Z</time>
      </trkpt>
      <trkpt lat="45.69082128815353" lon="17.670501451939344">
        <ele>162.07</ele>
        <time>2023-10-17T01:54:00.189Z</time>
      </trkpt>
      <trkpt lat="45.690832771360874" lon="17.67050413414836">
        <ele>162.07</ele>
        <time>2023-10-17T01:54:06.045Z</time>
      </trkpt>
      <trkpt lat="45.69084383547306" lon="17.670507486909628">
        <ele>162.07</ele>
        <time>2023-10-17T01:54:11.901Z</time>
      </trkpt>
      <trkpt lat="45.69085422903299" lon="17.670511761680245">
        <ele>162.06</ele>
        <time>2023-10-17T01:54:17.758Z</time>
      </trkpt>
      <trkpt lat="45.690864035859704" lon="17.67051695846021">
        <ele>162.06</ele>
        <time>2023-10-17T01:54:23.615Z</time>
      </trkpt>
      <trkpt lat="45.690873339772224" lon="17.670523077249527">
        <ele>162.06</ele>
        <time>2023-10-17T01:54:29.472Z</time>
      </trkpt>
      <trkpt lat="45.69088205695152" lon="17.670530453324318">
        <ele>162.05</ele>
        <time>2023-10-17T01:54:35.330Z</time>
      </trkpt>
      <trkpt lat="45.69089035503566" lon="17.670539086684585">
        <ele>162.04</ele>
        <time>2023-10-17T01:54:41.188Z</time>
      </trkpt>
      <trkpt lat="45.69089856930077" lon="17.67054906114936">
        <ele>162.04</ele>
        <time>2023-10-17T01:54:47.047Z</time>
      </trkpt>
      <trkpt lat="45.69090678356588" lon="17.670560125261545">
        <ele>162.03</ele>
        <time>2023-10-17T01:54:52.906Z</time>
      </trkpt>
      <trkpt lat="45.69091508165002" lon="17.67057211138308">
        <ele>162.02</ele>
        <time>2023-10-17T01:54:58.765Z</time>
      </trkpt>
      <trkpt lat="45.690923631191254" lon="17.670584516599774">
        <ele>162.01</ele>
        <time>2023-10-17T01:55:04.625Z</time>
      </trkpt>
      <trkpt lat="45.69093276746571" lon="17.67059708945453">
        <ele>162.0</ele>
        <time>2023-10-17T01:55:10.485Z</time>
      </trkpt>
      <trkpt lat="45.69094249047339" lon="17.670609578490257">
        <ele>161.99</ele>
        <time>2023-10-17T01:55:16.346Z</time>
      </trkpt>
      <trkpt lat="45.690952967852354" lon="17.670621732249856">
        <ele>161.98</ele>
        <time>2023-10-17T01:55:22.207Z</time>
      </trkpt>
      <trkpt lat="45.690964199602604" lon="17.670633466914296">
        <ele>161.97</ele>
        <time>2023-10-17T01:55:28.068Z</time>
      </trkpt>
      <trkpt lat="45.69097626954317" lon="17.670645033940673">
        <ele>161.96</ele>
        <time>2023-10-17T01:55:33.930Z</time>
      </trkpt>
      <trkpt lat="45.69098892621696" lon="17.670656349509954">
        <ele>161.95</ele>
        <time>2023-10-17T01:55:39.792Z</time>
      </trkpt>
      <trkpt lat="45.69100200198591" lon="17.67066732980311">
        <ele>161.93</ele>
        <time>2023-10-17T01:55:45.655Z</time>
      </trkpt>
      <trkpt lat="45.69101524539292" lon="17.670677974820137">
        <ele>161.92</ele>
        <time>2023-10-17T01:55:51.518Z</time>
      </trkpt>
      <trkpt lat="45.6910284049809" lon="17.670688284561038">
        <ele>161.9</ele>
        <time>2023-10-17T01:55:57.382Z</time>
      </trkpt>
      <trkpt lat="45.69104114547372" lon="17.67069809138775">
        <ele>161.89</ele>
        <time>2023-10-17T01:56:03.246Z</time>
      </trkpt>
      <trkpt lat="45.69105338305235" lon="17.670707730576396">
        <ele>161.87</ele>
        <time>2023-10-17T01:56:09.111Z</time>
      </trkpt>
      <trkpt lat="45.691064950078726" lon="17.670717453584075">
        <ele>161.86</ele>
        <time>2023-10-17T01:56:14.976Z</time>
      </trkpt>
      <trkpt lat="45.69107584655285" lon="17.670727260410786">
        <ele>161.84</ele>
        <time>2023-10-17T01:56:20.842Z</time>
      </trkpt>
      <trkpt lat="45.691085904836655" lon="17.67073723487556">
        <ele>161.82</ele>
        <time>2023-10-17T01:56:26.708Z</time>
      </trkpt>
      <trkpt lat="45.69109512493014" lon="17.67074704170227">
        <ele>161.8</ele>
        <time>2023-10-17T01:56:32.575Z</time>
      </trkpt>
      <trkpt lat="45.691103506833315" lon="17.670756597071886">
        <ele>161.78</ele>
        <time>2023-10-17T01:56:38.442Z</time>
      </trkpt>
      <trkpt lat="45.69111121818423" lon="17.670765733346343">
        <ele>161.76</ele>
        <time>2023-10-17T01:56:44.309Z</time>
      </trkpt>
      <trkpt lat="45.691118175163865" lon="17.670774282887578">
        <ele>161.74</ele>
        <time>2023-10-17T01:56:50.177Z</time>
      </trkpt>
      <trkpt lat="45.69112462922931" lon="17.67078224569559">
        <ele>161.72</ele>
        <time>2023-10-17T01:56:56.045Z</time>
      </trkpt>
      <trkpt lat="45.69113066419959" lon="17.670789370313287">
        <ele>161.7</ele>
        <time>2023-10-17T01:57:01.913Z</time>
      </trkpt>
      <trkpt lat="45.69113661535084" lon="17.67079590819776">
        <ele>161.68</ele>
        <time>2023-10-17T01:57:07.781Z</time>
      </trkpt>
      <trkpt lat="45.69114239886403" lon="17.67080169171095">
        <ele>161.66</ele>
        <time>2023-10-17T01:57:13.650Z</time>
      </trkpt>
      <trkpt lat="45.69114818237722" lon="17.670806720852852">
        <ele>161.64</ele>
        <time>2023-10-17T01:57:19.519Z</time>
      </trkpt>
      <trkpt lat="45.69115404970944" lon="17.6708110794425">
        <ele>161.61</ele>
        <time>2023-10-17T01:57:25.388Z</time>
      </trkpt>
      <trkpt lat="45.69115958176553" lon="17.670814767479897">
        <ele>161.59</ele>
        <time>2023-10-17T01:57:31.257Z</time>
      </trkpt>
      <trkpt lat="45.69116494618356" lon="17.670818120241165">
        <ele>161.57</ele>
        <time>2023-10-17T01:57:37.126Z</time>
      </trkpt>
      <trkpt lat="45.6911700591445" lon="17.67082122154534">
        <ele>161.54</ele>
        <time>2023-10-17T01:57:42.996Z</time>
      </trkpt>
      <trkpt lat="45.69117475301027" lon="17.670823903754354">
        <ele>161.52</ele>
        <time>2023-10-17T01:57:48.866Z</time>
      </trkpt>
      <trkpt lat="45.69117894396186" lon="17.67082616686821">
        <ele>161.49</ele>
        <time>2023-10-17T01:57:54.736Z</time>
      </trkpt>
      <trkpt lat="45.69118279963732" lon="17.670828010886908">
        <ele>161.47</ele>
        <time>2023-10-17T01:58:00.606Z</time>
      </trkpt>
      <trkpt lat="45.691186068579555" lon="17.67082951962948">
        <ele>161.44</ele>
        <time>2023-10-17T01:58:06.476Z</time>
      </trkpt>
      <trkpt lat="45.691189002245665" lon="17.670830860733986">
        <ele>161.42</ele>
        <time>2023-10-17T01:58:12.346Z</time>
      </trkpt>
      <trkpt lat="45.691191432997584" lon="17.67083203420043">
        <ele>161.39</ele>
        <time>2023-10-17T01:58:18.216Z</time>
      </trkpt>
      <trkpt lat="45.691193360835314" lon="17.670833123847842">
        <ele>161.36</ele>
        <time>2023-10-17T01:58:24.086Z</time>
      </trkpt>
      <trkpt lat="45.691194953396916" lon="17.670834381133318">
        <ele>161.33</ele>
        <time>2023-10-17T01:58:29.957Z</time>
      </trkpt>
      <trkpt lat="45.691196378320456" lon="17.670835722237825">
        <ele>161.31</ele>
        <time>2023-10-17T01:58:35.828Z</time>
      </trkpt>
      <trkpt lat="45.69119771942496" lon="17.670837314799428">
        <ele>161.28</ele>
        <time>2023-10-17T01:58:41.699Z</time>
      </trkpt>
      <trkpt lat="45.691199228167534" lon="17.670839074999094">
        <ele>161.25</ele>
        <time>2023-10-17T01:58:47.570Z</time>
      </trkpt>
      <trkpt lat="45.69120107218623" lon="17.67084133811295">
        <ele>161.22</ele>
        <time>2023-10-17T01:58:53.441Z</time>
      </trkpt>
      <trkpt lat="45.69120333530009" lon="17.670844104140997">
        <ele>161.2</ele>
        <time>2023-10-17T01:58:59.312Z</time>
      </trkpt>
      <trkpt lat="45.6912060175091" lon="17.670847373083234">
        <ele>161.17</ele>
        <time>2023-10-17T01:59:05.183Z</time>
      </trkpt>
      <trkpt lat="45.691209118813276" lon="17.670851312577724">
        <ele>161.14</ele>
        <time>2023-10-17T01:59:11.054Z</time>
      </trkpt>
      <trkpt lat="45.69121255539358" lon="17.6708560064435">
        <ele>161.11</ele>
        <time>2023-10-17T01:59:16.925Z</time>
      </trkpt>
      <trkpt lat="45.691216411069036" lon="17.67086137086153">
        <ele>161.08</ele>
        <time>2023-10-17T01:59:22.796Z</time>
      </trkpt>
      <trkpt lat="45.69122051820159" lon="17.670867405831814">
        <ele>161.05</ele>
        <time>2023-10-17T01:59:28.668Z</time>
      </trkpt>
      <trkpt lat="45.69122487679124" lon="17.67087402753532">
        <ele>161.02</ele>
        <time>2023-10-17T01:59:34.540Z</time>
      </trkpt>
      <trkpt lat="45.69122940301895" lon="17.670881152153015">
        <ele>160.99</ele>
        <time>2023-10-17T01:59:40.412Z</time>
      </trkpt>
      <trkpt lat="45.69123426452279" lon="17.670888612046838">
        <ele>160.96</ele>
        <time>2023-10-17T01:59:46.284Z</time>
      </trkpt>
      <trkpt lat="45.691239293664694" lon="17.670896239578724">
        <ele>160.93</ele>
        <time>2023-10-17T01:59:52.157Z</time>
      </trkpt>
      <trkpt lat="45.691244658082724" lon="17.670904034748673">
        <ele>160.9</ele>
        <time>2023-10-17T01:59:58.030Z</time>
      </trkpt>
      <trkpt lat="45.69125035777688" lon="17.670911913737655">
        <ele>160.87</ele>
        <time>2023-10-17T02:00:03.903Z</time>
      </trkpt>
      <trkpt lat="45.691256476566195" lon="17.67092004418373">
        <ele>160.84</ele>
        <time>2023-10-17T02:00:09.776Z</time>
      </trkpt>
      <trkpt lat="45.69126293063164" lon="17.670928509905934">
        <ele>160.81</ele>
        <time>2023-10-17T02:00:15.650Z</time>
      </trkpt>
      <trkpt lat="45.69126971997321" lon="17.6709371432662">
        <ele>160.78</ele>
        <time>2023-10-17T02:00:21.524Z</time>
      </trkpt>
      <trkpt lat="45.69127676077187" lon="17.670946028083563">
        <ele>160.75</ele>
        <time>2023-10-17T02:00:27.398Z</time>
      </trkpt>
      <trkpt lat="45.69128422066569" lon="17.670955080538988">
        <ele>160.72</ele>
        <time>2023-10-17T02:00:33.273Z</time>
      </trkpt>
      <trkpt lat="45.69129184819758" lon="17.67096404917538">
        <ele>160.69</ele>
        <time>2023-10-17T02:00:39.148Z</time>
      </trkpt>
      <trkpt lat="45.69129972718656" lon="17.670972850173712">
        <ele>160.66</ele>
        <time>2023-10-17T02:00:45.023Z</time>
      </trkpt>
      <trkpt lat="45.69130760617554" lon="17.67098156735301">
        <ele>160.64</ele>
        <time>2023-10-17T02:00:50.899Z</time>
      </trkpt>
      <trkpt lat="45.69131548516452" lon="17.670990200713277">
        <ele>160.61</ele>
        <time>2023-10-17T02:00:56.775Z</time>
      </trkpt>
      <trkpt lat="45.691323364153504" lon="17.67099866643548">
        <ele>160.58</ele>
        <time>2023-10-17T02:01:02.651Z</time>
      </trkpt>
      <trkpt lat="45.691331159323454" lon="17.671006713062525">
        <ele>160.55</ele>
        <time>2023-10-17T02:01:08.528Z</time>
      </trkpt>
      <trkpt lat="45.6913389544934" lon="17.671014592051506">
        <ele>160.52</ele>
        <time>2023-10-17T02:01:14.405Z</time>
      </trkpt>
      <trkpt lat="45.69134674966335" lon="17.67102213576436">
        <ele>160.5</ele>
        <time>2023-10-17T02:01:20.282Z</time>
      </trkpt>
      <trkpt lat="45.69135446101427" lon="17.671029260382056">
        <ele>160.47</ele>
        <time>2023-10-17T02:01:26.160Z</time>
      </trkpt>
      <trkpt lat="45.69136208854616" lon="17.671036049723625">
        <ele>160.44</ele>
        <time>2023-10-17T02:01:32.038Z</time>
      </trkpt>
      <trkpt lat="45.69136963225901" lon="17.6710425876081">
        <ele>160.42</ele>
        <time>2023-10-17T02:01:37.916Z</time>
      </trkpt>
      <trkpt lat="45.691377092152834" lon="17.67104895785451">
        <ele>160.39</ele>
        <time>2023-10-17T02:01:43.794Z</time>
      </trkpt>
      <trkpt lat="45.69138438440859" lon="17.67105532810092">
        <ele>160.37</ele>
        <time>2023-10-17T02:01:49.673Z</time>
      </trkpt>
      <trkpt lat="45.69139192812145" lon="17.671061865985394">
        <ele>160.34</ele>
        <time>2023-10-17T02:01:55.552Z</time>
      </trkpt>
      <trkpt lat="45.69139938801527" lon="17.671068403869867">
        <ele>160.32</ele>
        <time>2023-10-17T02:02:01.431Z</time>
      </trkpt>
      <trkpt lat="45.691406931728125" lon="17.671075277030468">
        <ele>160.3</ele>
        <time>2023-10-17T02:02:07.311Z</time>
      </trkpt>
      <trkpt lat="45.69141464307904" lon="17.671082485467196">
        <ele>160.27</ele>
        <time>2023-10-17T02:02:13.191Z</time>
      </trkpt>
      <trkpt lat="45.69142227061093" lon="17.671089945361018">
        <ele>160.25</ele>
        <time>2023-10-17T02:02:19.071Z</time>
      </trkpt>
      <trkpt lat="45.69142981432378" lon="17.671097489073873">
        <ele>160.23</ele>
        <time>2023-10-17T02:02:24.952Z</time>
      </trkpt>
      <trkpt lat="45.6914375256747" lon="17.67110511660576">
        <ele>160.2</ele>
        <time>2023-10-17T02:02:30.833Z</time>
      </trkpt>
      <trkpt lat="45.69144515320659" lon="17.671112827956676">
        <ele>160.18</ele>
        <time>2023-10-17T02:02:36.714Z</time>
      </trkpt>
      <trkpt lat="45.69145303219557" lon="17.67112037166953">
        <ele>160.16</ele>
        <time>2023-10-17T02:02:42.595Z</time>
      </trkpt>
      <trkpt lat="45.69146091118455" lon="17.671127915382385">
        <ele>160.14</ele>
        <time>2023-10-17T02:02:48.477Z</time>
      </trkpt>
      <trkpt lat="45.691468957811594" lon="17.671135207638144">
        <ele>160.12</ele>
        <time>2023-10-17T02:02:54.359Z</time>
      </trkpt>
      <trkpt lat="45.69147700443864" lon="17.671142164617777">
        <ele>160.1</ele>
        <time>2023-10-17T02:03:00.241Z</time>
      </trkpt>
      <trkpt lat="45.691485134884715" lon="17.671148870140314">
        <ele>160.09</ele>
        <time>2023-10-17T02:03:06.124Z</time>
      </trkpt>
      <trkpt lat="45.69149351678789" lon="17.671155408024788">
        <ele>160.07</ele>
        <time>2023-10-17T02:03:12.007Z</time>
      </trkpt>
      <trkpt lat="45.69150189869106" lon="17.671161694452167">
        <ele>160.05</ele>
        <time>2023-10-17T02:03:17.890Z</time>
      </trkpt>
      <trkpt lat="45.691510532051325" lon="17.671167980879545">
        <ele>160.03</ele>
        <time>2023-10-17T02:03:23.774Z</time>
      </trkpt>
      <trkpt lat="45.69151941686869" lon="17.671174351125956">
        <ele>160.02</ele>
        <time>2023-10-17T02:03:29.658Z</time>
      </trkpt>
      <trkpt lat="45.69152838550508" lon="17.67118088901043">
        <ele>160.0</ele>
        <time>2023-10-17T02:03:35.542Z</time>
      </trkpt>
      <trkpt lat="45.691537354141474" lon="17.671187594532967">
        <ele>159.99</ele>
        <time>2023-10-17T02:03:41.427Z</time>
      </trkpt>
      <trkpt lat="45.691546238958836" lon="17.671194383874536">
        <ele>159.97</ele>
        <time>2023-10-17T02:03:47.312Z</time>
      </trkpt>
      <trkpt lat="45.6915551237762" lon="17.671201592311263">
        <ele>159.96</ele>
        <time>2023-10-17T02:03:53.197Z</time>
      </trkpt>
      <trkpt lat="45.69156400859356" lon="17.67120921984315">
        <ele>159.95</ele>
        <time>2023-10-17T02:03:59.083Z</time>
      </trkpt>
      <trkpt lat="45.69157289341092" lon="17.671217350289226">
        <ele>159.94</ele>
        <time>2023-10-17T02:04:04.969Z</time>
      </trkpt>
      <trkpt lat="45.69158169440925" lon="17.671226067468524">
        <ele>159.92</ele>
        <time>2023-10-17T02:04:10.855Z</time>
      </trkpt>
      <trkpt lat="45.69159041158855" lon="17.67123520374298">
        <ele>159.91</ele>
        <time>2023-10-17T02:04:16.742Z</time>
      </trkpt>
      <trkpt lat="45.691599044948816" lon="17.671244759112597">
        <ele>159.9</ele>
        <time>2023-10-17T02:04:22.629Z</time>
      </trkpt>
      <trkpt lat="45.69160767830908" lon="17.671254482120275">
        <ele>159.89</ele>
        <time>2023-10-17T02:04:28.517Z</time>
      </trkpt>
      <trkpt lat="45.69161622785032" lon="17.67126445658505">
        <ele>159.88</ele>
        <time>2023-10-17T02:04:34.405Z</time>
      </trkpt>
      <trkpt lat="45.69162460975349" lon="17.67127468250692">
        <ele>159.87</ele>
        <time>2023-10-17T02:04:40.293Z</time>
      </trkpt>
      <trkpt lat="45.691633159294724" lon="17.671285159885883">
        <ele>159.86</ele>
        <time>2023-10-17T02:04:46.182Z</time>
      </trkpt>
      <trkpt lat="45.69164179265499" lon="17.67129580490291">
        <ele>159.85</ele>
        <time>2023-10-17T02:04:52.071Z</time>
      </trkpt>
      <trkpt lat="45.69165042601526" lon="17.671306366100907">
        <ele>159.85</ele>
        <time>2023-10-17T02:04:57.960Z</time>
      </trkpt>
      <trkpt lat="45.69165931083262" lon="17.67131684347987">
        <ele>159.84</ele>
        <time>2023-10-17T02:05:03.850Z</time>
      </trkpt>
      <trkpt lat="45.69166819564998" lon="17.67132706940174">
        <ele>159.83</ele>
        <time>2023-10-17T02:05:09.740Z</time>
      </trkpt>
      <trkpt lat="45.69167724810541" lon="17.671336960047483">
        <ele>159.82</ele>
        <time>2023-10-17T02:05:15.631Z</time>
      </trkpt>
      <trkpt lat="45.691686384379864" lon="17.671346431598067">
        <ele>159.82</ele>
        <time>2023-10-17T02:05:21.522Z</time>
      </trkpt>
      <trkpt lat="45.69169552065432" lon="17.671355567872524">
        <ele>159.81</ele>
        <time>2023-10-17T02:05:27.413Z</time>
      </trkpt>
      <trkpt lat="45.691704489290714" lon="17.67136411741376">
        <ele>159.81</ele>
        <time>2023-10-17T02:05:33.305Z</time>
      </trkpt>
      <trkpt lat="45.691713290289044" lon="17.6713724154979">
        <ele>159.8</ele>
        <time>2023-10-17T02:05:39.197Z</time>
      </trkpt>
      <trkpt lat="45.69172200746834" lon="17.671380462124944">
        <ele>159.8</ele>
        <time>2023-10-17T02:05:45.089Z</time>
      </trkpt>
      <trkpt lat="45.69173055700958" lon="17.671388341113925">
        <ele>159.79</ele>
        <time>2023-10-17T02:05:50.982Z</time>
      </trkpt>
      <trkpt lat="45.69173910655081" lon="17.671396052464843">
        <ele>159.79</ele>
        <time>2023-10-17T02:05:56.875Z</time>
      </trkpt>
      <trkpt lat="45.69174765609205" lon="17.67140376381576">
        <ele>159.78</ele>
        <time>2023-10-17T02:06:02.768Z</time>
      </trkpt>
      <trkpt lat="45.691756289452314" lon="17.671411307528615">
        <ele>159.78</ele>
        <time>2023-10-17T02:06:08.662Z</time>
      </trkpt>
      <trkpt lat="45.69176500663161" lon="17.671418683603406">
        <ele>159.77</ele>
        <time>2023-10-17T02:06:14.556Z</time>
      </trkpt>
      <trkpt lat="45.69177372381091" lon="17.671425975859165">
        <ele>159.77</ele>
        <time>2023-10-17T02:06:20.450Z</time>
      </trkpt>
      <trkpt lat="45.69178252480924" lon="17.671433268114924">
        <ele>159.77</ele>
        <time>2023-10-17T02:06:26.345Z</time>
      </trkpt>
      <trkpt lat="45.6917914096266" lon="17.67144030891359">
        <ele>159.77</ele>
        <time>2023-10-17T02:06:32.240Z</time>
      </trkpt>
      <trkpt lat="45.691800294443965" lon="17.67144718207419">
        <ele>159.76</ele>
        <time>2023-10-17T02:06:38.135Z</time>
      </trkpt>
      <trkpt lat="45.69180934689939" lon="17.67145363613963">
        <ele>159.76</ele>
        <time>2023-10-17T02:06:44.031Z</time>
      </trkpt>
      <trkpt lat="45.69181856699288" lon="17.67145950347185">
        <ele>159.76</ele>
        <time>2023-10-17T02:06:49.927Z</time>
      </trkpt>
      <trkpt lat="45.6918278709054" lon="17.671464700251818">
        <ele>159.76</ele>
        <time>2023-10-17T02:06:55.823Z</time>
      </trkpt>
      <trkpt lat="45.69183725863695" lon="17.671469477936625">
        <ele>159.76</ele>
        <time>2023-10-17T02:07:01.720Z</time>
      </trkpt>
      <trkpt lat="45.691846730187535" lon="17.671473752707243">
        <ele>159.75</ele>
        <time>2023-10-17T02:07:07.617Z</time>
      </trkpt>
      <trkpt lat="45.69185611791909" lon="17.671477692201734">
        <ele>159.75</ele>
        <time>2023-10-17T02:07:13.514Z</time>
      </trkpt>
      <trkpt lat="45.691865254193544" lon="17.671481296420097">
        <ele>159.75</ele>
        <time>2023-10-17T02:07:19.412Z</time>
      </trkpt>
      <trkpt lat="45.69187422282994" lon="17.67148481681943">
        <ele>159.75</ele>
        <time>2023-10-17T02:07:25.310Z</time>
      </trkpt>
      <trkpt lat="45.691882856190205" lon="17.671488421037793">
        <ele>159.75</ele>
        <time>2023-10-17T02:07:31.208Z</time>
      </trkpt>
      <trkpt lat="45.69189132191241" lon="17.671492444351315">
        <ele>159.75</ele>
        <time>2023-10-17T02:07:37.107Z</time>
      </trkpt>
      <trkpt lat="45.69189970381558" lon="17.67149705439806">
        <ele>159.75</ele>
        <time>2023-10-17T02:07:43.006Z</time>
      </trkpt>
      <trkpt lat="45.69190800189972" lon="17.67150241881609">
        <ele>159.75</ele>
        <time>2023-10-17T02:07:48.905Z</time>
      </trkpt>
      <trkpt lat="45.69191621616483" lon="17.671508453786373">
        <ele>159.75</ele>
        <time>2023-10-17T02:07:54.804Z</time>
      </trkpt>
      <trkpt lat="45.691924430429935" lon="17.671515494585037">
        <ele>159.75</ele>
        <time>2023-10-17T02:08:00.704Z</time>
      </trkpt>
      <trkpt lat="45.69193247705698" lon="17.671523625031114">
        <ele>159.75</ele>
        <time>2023-10-17T02:08:06.604Z</time>
      </trkpt>
      <trkpt lat="45.69194035604596" lon="17.671532593667507">
        <ele>159.75</ele>
        <time>2023-10-17T02:08:12.504Z</time>
      </trkpt>
      <trkpt lat="45.69194806739688" lon="17.671542903408408">
        <ele>159.75</ele>
        <time>2023-10-17T02:08:18.405Z</time>
      </trkpt>
      <trkpt lat="45.69195544347167" lon="17.67155480571091">
        <ele>159.74</ele>
        <time>2023-10-17T02:08:24.306Z</time>
      </trkpt>
      <trkpt lat="45.6919626519084" lon="17.67156838439405">
        <ele>159.74</ele>
        <time>2023-10-17T02:08:30.208Z</time>
      </trkpt>
      <trkpt lat="45.69196960888803" lon="17.671582968905568">
        <ele>159.74</ele>
        <time>2023-10-17T02:08:36.110Z</time>
      </trkpt>
      <trkpt lat="45.69197631441057" lon="17.671598559245467">
        <ele>159.74</ele>
        <time>2023-10-17T02:08:42.012Z</time>
      </trkpt>
      <trkpt lat="45.69198285229504" lon="17.671614987775683">
        <ele>159.74</ele>
        <time>2023-10-17T02:08:47.915Z</time>
      </trkpt>
      <trkpt lat="45.69198922254145" lon="17.671632254496217">
        <ele>159.74</ele>
        <time>2023-10-17T02:08:53.818Z</time>
      </trkpt>
      <trkpt lat="45.6919951736927" lon="17.671650191769004">
        <ele>159.74</ele>
        <time>2023-10-17T02:08:59.722Z</time>
      </trkpt>
      <trkpt lat="45.6920007057488" lon="17.67166812904179">
        <ele>159.74</ele>
        <time>2023-10-17T02:09:05.626Z</time>
      </trkpt>
      <trkpt lat="45.692005567252636" lon="17.671685814857483">
        <ele>159.74</ele>
        <time>2023-10-17T02:09:11.531Z</time>
      </trkpt>
      <trkpt lat="45.69200984202325" lon="17.671703416854143">
        <ele>159.74</ele>
        <time>2023-10-17T02:09:17.436Z</time>
      </trkpt>
      <trkpt lat="45.69201369769871" lon="17.671720264479518">
        <ele>159.73</ele>
        <time>2023-10-17T02:09:23.342Z</time>
      </trkpt>
      <trkpt lat="45.692017218098044" lon="17.671735854819417">
        <ele>159.73</ele>
        <time>2023-10-17T02:09:29.248Z</time>
      </trkpt>
      <trkpt lat="45.69202048704028" lon="17.67175010405481">
        <ele>159.73</ele>
        <time>2023-10-17T02:09:35.154Z</time>
      </trkpt>
      <trkpt lat="45.69202350452542" lon="17.671763179823756">
        <ele>159.72</ele>
        <time>2023-10-17T02:09:41.061Z</time>
      </trkpt>
      <trkpt lat="45.69202627055347" lon="17.671774998307228">
        <ele>159.72</ele>
        <time>2023-10-17T02:09:46.968Z</time>
      </trkpt>
      <trkpt lat="45.69202878512442" lon="17.671785559505224">
        <ele>159.71</ele>
        <time>2023-10-17T02:09:52.875Z</time>
      </trkpt>
      <trkpt lat="45.69203104823828" lon="17.671794863417745">
        <ele>159.71</ele>
        <time>2023-10-17T02:09:58.782Z</time>
      </trkpt>
      <trkpt lat="45.69203314371407" lon="17.67180291004479">
        <ele>159.7</ele>
        <time>2023-10-17T02:10:04.690Z</time>
      </trkpt>
      <trkpt lat="45.69203515537083" lon="17.671810034662485">
        <ele>159.69</ele>
        <time>2023-10-17T02:10:10.598Z</time>
      </trkpt>
      <trkpt lat="45.69203716702759" lon="17.671816237270832">
        <ele>159.68</ele>
        <time>2023-10-17T02:10:16.506Z</time>
      </trkpt>
      <trkpt lat="45.69203909486532" lon="17.6718214340508">
        <ele>159.68</ele>
        <time>2023-10-17T02:10:22.414Z</time>
      </trkpt>
      <trkpt lat="45.69204093888402" lon="17.671825625002384">
        <ele>159.67</ele>
        <time>2023-10-17T02:10:28.322Z</time>
      </trkpt>
      <trkpt lat="45.692042615264654" lon="17.671829145401716">
        <ele>159.66</ele>
        <time>2023-10-17T02:10:34.230Z</time>
      </trkpt>
      <trkpt lat="45.692044124007225" lon="17.671831659972668">
        <ele>159.65</ele>
        <time>2023-10-17T02:10:40.138Z</time>
      </trkpt>
      <trkpt lat="45.69204546511173" lon="17.671833336353302">
        <ele>159.64</ele>
        <time>2023-10-17T02:10:46.046Z</time>
      </trkpt>
      <trkpt lat="45.692046554759145" lon="17.67183375544846">
        <ele>159.63</ele>
        <time>2023-10-17T02:10:51.954Z</time>
      </trkpt>
      <trkpt lat="45.692047476768494" lon="17.671833001077175">
        <ele>159.62</ele>
        <time>2023-10-17T02:10:57.862Z</time>
      </trkpt>
      <trkpt lat="45.69204814732075" lon="17.671831073239446">
        <ele>159.61</ele>
        <time>2023-10-17T02:11:03.771Z</time>
      </trkpt>
      <trkpt lat="45.692048566415906" lon="17.671828055754304">
        <ele>159.6</ele>
        <time>2023-10-17T02:11:09.680Z</time>
      </trkpt>
      <trkpt lat="45.692048817873" lon="17.67182403244078">
        <ele>159.58</ele>
        <time>2023-10-17T02:11:15.589Z</time>
      </trkpt>
      <trkpt lat="45.69204890169203" lon="17.671819422394037">
        <ele>159.57</ele>
        <time>2023-10-17T02:11:21.498Z</time>
      </trkpt>
      <trkpt lat="45.692049069330096" lon="17.671814309433103">
        <ele>159.56</ele>
        <time>2023-10-17T02:11:27.407Z</time>
      </trkpt>
      <trkpt lat="45.692049488425255" lon="17.67180877737701">
        <ele>159.54</ele>
        <time>2023-10-17T02:11:33.316Z</time>
      </trkpt>
      <trkpt lat="45.69205024279654" lon="17.671803077682853">
        <ele>159.53</ele>
        <time>2023-10-17T02:11:39.225Z</time>
      </trkpt>
      <trkpt lat="45.69205133244395" lon="17.67179762944579">
        <ele>159.51</ele>
        <time>2023-10-17T02:11:45.134Z</time>
      </trkpt>
      <trkpt lat="45.69205284118652" lon="17.671792432665825">
        <ele>159.49</ele>
        <time>2023-10-17T02:11:51.043Z</time>
      </trkpt>
      <trkpt lat="45.692054852843285" lon="17.671787990257144">
        <ele>159.48</ele>
        <time>2023-10-17T02:11:56.953Z</time>
      </trkpt>
      <trkpt lat="45.692057283595204" lon="17.67178430221975">
        <ele>159.46</ele>
        <time>2023-10-17T02:12:02.863Z</time>
      </trkpt>
      <trkpt lat="45.692060217261314" lon="17.671781536191702">
        <ele>159.44</ele>
        <time>2023-10-17T02:12:08.773Z</time>
      </trkpt>
      <trkpt lat="45.692063653841615" lon="17.67177952453494">
        <ele>159.42</ele>
        <time>2023-10-17T02:12:14.683Z</time>
      </trkpt>
      <trkpt lat="45.692067593336105" lon="17.671778351068497">
        <ele>159.4</ele>
        <time>2023-10-17T02:12:20.593Z</time>
      </trkpt>
      <trkpt lat="45.692072035744786" lon="17.671777931973338">
        <ele>159.38</ele>
        <time>2023-10-17T02:12:26.503Z</time>
      </trkpt>
      <trkpt lat="45.69207698106766" lon="17.671778351068497">
        <ele>159.36</ele>
        <time>2023-10-17T02:12:32.413Z</time>
      </trkpt>
      <trkpt lat="45.692082177847624" lon="17.67177952453494">
        <ele>159.34</ele>
        <time>2023-10-17T02:12:38.324Z</time>
      </trkpt>
      <trkpt lat="45.69208770990372" lon="17.671781284734607">
        <ele>159.32</ele>
        <time>2023-10-17T02:12:44.235Z</time>
      </trkpt>
      <trkpt lat="45.692093493416905" lon="17.67178346402943">
        <ele>159.3</ele>
        <time>2023-10-17T02:12:50.146Z</time>
      </trkpt>
      <trkpt lat="45.69209961220622" lon="17.67178581096232">
        <ele>159.27</ele>
        <time>2023-10-17T02:12:56.057Z</time>
      </trkpt>
      <trkpt lat="45.69210606627166" lon="17.671788493171334">
        <ele>159.25</ele>
        <time>2023-10-17T02:13:01.968Z</time>
      </trkpt>
      <trkpt lat="45.69211268797517" lon="17.671791343018413">
        <ele>159.23</ele>
        <time>2023-10-17T02:13:07.880Z</time>
      </trkpt>
      <trkpt lat="45.69211922585964" lon="17.671794360503554">
        <ele>159.2</ele>
        <time>2023-10-17T02:13:13.792Z</time>
      </trkpt>
      <trkpt lat="45.69212559610605" lon="17.67179754562676">
        <ele>159.18</ele>
        <time>2023-10-17T02:13:19.704Z</time>
      </trkpt>
      <trkpt lat="45.69213146343827" lon="17.671800646930933">
        <ele>159.16</ele>
        <time>2023-10-17T02:13:25.616Z</time>
      </trkpt>
      <trkpt lat="45.6921370793134" lon="17.671803245320916">
        <ele>159.13</ele>
        <time>2023-10-17T02:13:31.528Z</time>
      </trkpt>
      <trkpt lat="45.692142359912395" lon="17.671805256977677">
        <ele>159.11</ele>
        <time>2023-10-17T02:13:37.441Z</time>
      </trkpt>
      <trkpt lat="45.6921473890543" lon="17.671806598082185">
        <ele>159.08</ele>
        <time>2023-10-17T02:13:43.354Z</time>
      </trkpt>
      <trkpt lat="45.692152082920074" lon="17.671807017177343">
        <ele>159.05</ele>
        <time>2023-10-17T02:13:49.267Z</time>
      </trkpt>
      <trkpt lat="45.692156441509724" lon="17.67180693335831">
        <ele>159.03</ele>
        <time>2023-10-17T02:13:55.180Z</time>
      </trkpt>
      <trkpt lat="45.69216012954712" lon="17.671806095167994">
        <ele>159.0</ele>
        <time>2023-10-17T02:14:01.093Z</time>
      </trkpt>
      <trkpt lat="45.6921629793942" lon="17.671804754063487">
        <ele>158.98</ele>
        <time>2023-10-17T02:14:07.006Z</time>
      </trkpt>
      <trkpt lat="45.69216507486999" lon="17.671803161501884">
        <ele>158.95</ele>
        <time>2023-10-17T02:14:12.919Z</time>
      </trkpt>
      <trkpt lat="45.69216649979353" lon="17.671801233664155">
        <ele>158.93</ele>
        <time>2023-10-17T02:14:18.833Z</time>
      </trkpt>
      <trkpt lat="45.69216758944094" lon="17.671799305826426">
        <ele>158.9</ele>
        <time>2023-10-17T02:14:24.747Z</time>
      </trkpt>
      <trkpt lat="45.69216842763126" lon="17.671797797083855">
        <ele>158.87</ele>
        <time>2023-10-17T02:14:30.661Z</time>
      </trkpt>
      <trkpt lat="45.69216884672642" lon="17.671796791255474">
        <ele>158.85</ele>
        <time>2023-10-17T02:14:36.575Z</time>
      </trkpt>
      <trkpt lat="45.69216893054545" lon="17.67179653979838">
        <ele>158.82</ele>
        <time>2023-10-17T02:14:42.489Z</time>
      </trkpt>
      <trkpt lat="45.69216851145029" lon="17.671797294169664">
        <ele>158.8</ele>
        <time>2023-10-17T02:14:48.403Z</time>
      </trkpt>
      <trkpt lat="45.692167757079005" lon="17.671799222007394">
        <ele>158.77</ele>
        <time>2023-10-17T02:14:54.317Z</time>
      </trkpt>
      <trkpt lat="45.692166835069656" lon="17.671802155673504">
        <ele>158.74</ele>
        <time>2023-10-17T02:15:00.231Z</time>
      </trkpt>
      <trkpt lat="45.69216557778418" lon="17.671806262806058">
        <ele>158.72</ele>
        <time>2023-10-17T02:15:06.145Z</time>
      </trkpt>
      <trkpt lat="45.69216440431774" lon="17.671811124309897">
        <ele>158.69</ele>
        <time>2023-10-17T02:15:12.059Z</time>
      </trkpt>
      <trkpt lat="45.69216314703226" lon="17.67181665636599">
        <ele>158.66</ele>
        <time>2023-10-17T02:15:17.973Z</time>
      </trkpt>
      <trkpt lat="45.69216180592775" lon="17.671822691336274">
        <ele>158.64</ele>
        <time>2023-10-17T02:15:23.887Z</time>
      </trkpt>
      <trkpt lat="45.69216063246131" lon="17.67182889394462">
        <ele>158.61</ele>
        <time>2023-10-17T02:15:29.801Z</time>
      </trkpt>
      <trkpt lat="45.692159961909056" lon="17.671835012733936">
        <ele>158.59</ele>
        <time>2023-10-17T02:15:35.716Z</time>
      </trkpt>
      <trkpt lat="45.69215979427099" lon="17.67184113152325">
        <ele>158.56</ele>
        <time>2023-10-17T02:15:41.631Z</time>
      </trkpt>
      <trkpt lat="45.69216054864228" lon="17.67184691503644">
        <ele>158.54</ele>
        <time>2023-10-17T02:15:47.546Z</time>
      </trkpt>
      <trkpt lat="45.692161889746785" lon="17.6718523632735">
        <ele>158.51</ele>
        <time>2023-10-17T02:15:53.461Z</time>
      </trkpt>
      <trkpt lat="45.692163817584515" lon="17.671857476234436">
        <ele>158.48</ele>
        <time>2023-10-17T02:15:59.376Z</time>
      </trkpt>
      <trkpt lat="45.69216658361256" lon="17.671862253919244">
        <ele>158.46</ele>
        <time>2023-10-17T02:16:05.291Z</time>
      </trkpt>
      <trkpt lat="45.69217010401189" lon="17.671866863965988">
        <ele>158.43</ele>
        <time>2023-10-17T02:16:11.206Z</time>
      </trkpt>
      <trkpt lat="45.69217446260154" lon="17.67187130637467">
        <ele>158.41</ele>
        <time>2023-10-17T02:16:17.122Z</time>
      </trkpt>
      <trkpt lat="45.69217982701957" lon="17.671875497326255">
        <ele>158.38</ele>
        <time>2023-10-17T02:16:23.038Z</time>
      </trkpt>
      <trkpt lat="45.692186364904046" lon="17.671879269182682">
        <ele>158.36</ele>
        <time>2023-10-17T02:16:28.954Z</time>
      </trkpt>
      <trkpt lat="45.69219399243593" lon="17.671882789582014">
        <ele>158.33</ele>
        <time>2023-10-17T02:16:34.870Z</time>
      </trkpt>
      <trkpt lat="45.69220220670104" lon="17.67188597470522">
        <ele>158.31</ele>
        <time>2023-10-17T02:16:40.787Z</time>
      </trkpt>
      <trkpt lat="45.69221100769937" lon="17.67188890837133">
        <ele>158.28</ele>
        <time>2023-10-17T02:16:46.704Z</time>
      </trkpt>
      <trkpt lat="45.69222022779286" lon="17.671891506761312">
        <ele>158.26</ele>
        <time>2023-10-17T02:16:52.621Z</time>
      </trkpt>
      <trkpt lat="45.69223003461957" lon="17.67189376987517">
        <ele>158.24</ele>
        <time>2023-10-17T02:16:58.539Z</time>
      </trkpt>
      <trkpt lat="45.69224034436047" lon="17.67189578153193">
        <ele>158.21</ele>
        <time>2023-10-17T02:17:04.457Z</time>
      </trkpt>
      <trkpt lat="45.6922509893775" lon="17.6718972902745">
        <ele>158.19</ele>
        <time>2023-10-17T02:17:10.375Z</time>
      </trkpt>
      <trkpt lat="45.69226171821356" lon="17.671898379921913">
        <ele>158.17</ele>
        <time>2023-10-17T02:17:16.294Z</time>
      </trkpt>
      <trkpt lat="45.69227261468768" lon="17.671898966655135">
        <ele>158.15</ele>
        <time>2023-10-17T02:17:22.213Z</time>
      </trkpt>
      <trkpt lat="45.69228342734277" lon="17.67189921811223">
        <ele>158.13</ele>
        <time>2023-10-17T02:17:28.132Z</time>
      </trkpt>
      <trkpt lat="45.6922940723598" lon="17.671899385750294">
        <ele>158.11</ele>
        <time>2023-10-17T02:17:34.052Z</time>
      </trkpt>
      <trkpt lat="45.69230446591973" lon="17.67189963720739">
        <ele>158.09</ele>
        <time>2023-10-17T02:17:39.972Z</time>
      </trkpt>
      <trkpt lat="45.6923146918416" lon="17.671899888664484">
        <ele>158.07</ele>
        <time>2023-10-17T02:17:45.892Z</time>
      </trkpt>
      <trkpt lat="45.692324582487345" lon="17.671900475397706">
        <ele>158.05</ele>
        <time>2023-10-17T02:17:51.813Z</time>
      </trkpt>
      <trkpt lat="45.692333886399865" lon="17.671901397407055">
        <ele>158.04</ele>
        <time>2023-10-17T02:17:57.734Z</time>
      </trkpt>
      <trkpt lat="45.69234260357916" lon="17.67190265469253">
        <ele>158.02</ele>
        <time>2023-10-17T02:18:03.655Z</time>
      </trkpt>
      <trkpt lat="45.69235056638718" lon="17.671904414892197">
        <ele>158.01</ele>
        <time>2023-10-17T02:18:09.577Z</time>
      </trkpt>
      <trkpt lat="45.69235811010003" lon="17.671906426548958">
        <ele>157.99</ele>
        <time>2023-10-17T02:18:15.499Z</time>
      </trkpt>
      <trkpt lat="45.69236540235579" lon="17.671908689662814">
        <ele>157.98</ele>
        <time>2023-10-17T02:18:21.421Z</time>
      </trkpt>
      <trkpt lat="45.692372526973486" lon="17.671911036595702">
        <ele>157.97</ele>
        <time>2023-10-17T02:18:27.343Z</time>
      </trkpt>
      <trkpt lat="45.69237965159118" lon="17.67191338352859">
        <ele>157.95</ele>
        <time>2023-10-17T02:18:33.266Z</time>
      </trkpt>
      <trkpt lat="45.692386608570814" lon="17.671915646642447">
        <ele>157.94</ele>
        <time>2023-10-17T02:18:39.189Z</time>
      </trkpt>
      <trkpt lat="45.69239339791238" lon="17.671917574480176">
        <ele>157.93</ele>
        <time>2023-10-17T02:18:45.112Z</time>
      </trkpt>
      <trkpt lat="45.69240043871105" lon="17.67191925086081">
        <ele>157.92</ele>
        <time>2023-10-17T02:18:51.035Z</time>
      </trkpt>
      <trkpt lat="45.69240739569068" lon="17.671920508146286">
        <ele>157.91</ele>
        <time>2023-10-17T02:18:56.959Z</time>
      </trkpt>
      <trkpt lat="45.692414520308375" lon="17.67192117869854">
        <ele>157.9</ele>
        <time>2023-10-17T02:19:02.883Z</time>
      </trkpt>
      <trkpt lat="45.6924219802022" lon="17.671921346336603">
        <ele>157.9</ele>
        <time>2023-10-17T02:19:08.807Z</time>
      </trkpt>
      <trkpt lat="45.692429607734084" lon="17.671920927241445">
        <ele>157.89</ele>
        <time>2023-10-17T02:19:14.731Z</time>
      </trkpt>
      <trkpt lat="45.69243715144694" lon="17.671920089051127">
        <ele>157.88</ele>
        <time>2023-10-17T02:19:20.656Z</time>
      </trkpt>
      <trkpt lat="45.69244461134076" lon="17.67191925086081">
        <ele>157.88</ele>
        <time>2023-10-17T02:19:26.581Z</time>
      </trkpt>
      <trkpt lat="45.69245181977749" lon="17.671918580308557">
        <ele>157.87</ele>
        <time>2023-10-17T02:19:32.506Z</time>
      </trkpt>
      <trkpt lat="45.69245860911906" lon="17.671918412670493">
        <ele>157.87</ele>
        <time>2023-10-17T02:19:38.431Z</time>
      </trkpt>
      <trkpt lat="45.6924650631845" lon="17.67191874794662">
        <ele>157.87</ele>
        <time>2023-10-17T02:19:44.356Z</time>
      </trkpt>
      <trkpt lat="45.69247109815478" lon="17.671919502317905">
        <ele>157.86</ele>
        <time>2023-10-17T02:19:50.282Z</time>
      </trkpt>
      <trkpt lat="45.692476546391845" lon="17.671920843422413">
        <ele>157.86</ele>
        <time>2023-10-17T02:19:56.208Z</time>
      </trkpt>
      <trkpt lat="45.692481491714716" lon="17.671922519803047">
        <ele>157.86</ele>
        <time>2023-10-17T02:20:02.134Z</time>
      </trkpt>
      <trkpt lat="45.69248576648533" lon="17.67192461527884">
        <ele>157.86</ele>
        <time>2023-10-17T02:20:08.060Z</time>
      </trkpt>
      <trkpt lat="45.6924893707037" lon="17.67192712984979">
        <ele>157.86</ele>
        <time>2023-10-17T02:20:13.986Z</time>
      </trkpt>
      <trkpt lat="45.69249238818884" lon="17.671929812058806">
        <ele>157.86</ele>
        <time>2023-10-17T02:20:19.912Z</time>
      </trkpt>
      <trkpt lat="45.69249481894076" lon="17.671932661905885">
        <ele>157.87</ele>
        <time>2023-10-17T02:20:25.839Z</time>
      </trkpt>
      <trkpt lat="45.69249683059752" lon="17.6719353441149">
        <ele>157.87</ele>
        <time>2023-10-17T02:20:31.766Z</time>
      </trkpt>
      <trkpt lat="45.692498506978154" lon="17.671937607228756">
        <ele>157.87</ele>
        <time>2023-10-17T02:20:37.693Z</time>
      </trkpt>
      <trkpt lat="45.69249976426363" lon="17.671939451247454">
        <ele>157.88</ele>
        <time>2023-10-17T02:20:43.620Z</time>
      </trkpt>
      <trkpt lat="45.69250077009201" lon="17.671940959990025">
        <ele>157.88</ele>
        <time>2023-10-17T02:20:49.547Z</time>
      </trkpt>
      <trkpt lat="45.692501524463296" lon="17.671942049637437">
        <ele>157.89</ele>
        <time>2023-10-17T02:20:55.474Z</time>
      </trkpt>
      <trkpt lat="45.69250219501555" lon="17.67194272018969">
        <ele>157.89</ele>
        <time>2023-10-17T02:21:01.401Z</time>
      </trkpt>
      <trkpt lat="45.69250278174877" lon="17.67194313928485">
        <ele>157.9</ele>
        <time>2023-10-17T02:21:07.328Z</time>
      </trkpt>
      <trkpt lat="45.69250328466296" lon="17.671943390741944">
        <ele>157.91</ele>
        <time>2023-10-17T02:21:13.255Z</time>
      </trkpt>
      <trkpt lat="45.69250370375812" lon="17.671943474560976">
        <ele>157.91</ele>
        <time>2023-10-17T02:21:19.182Z</time>
      </trkpt>
      <trkpt lat="45.69250412285328" lon="17.67194364219904">
        <ele>157.92</ele>
        <time>2023-10-17T02:21:25.109Z</time>
      </trkpt>
      <trkpt lat="45.692504458129406" lon="17.67194372601807">
        <ele>157.93</ele>
        <time>2023-10-17T02:21:31.036Z</time>
      </trkpt>
      <trkpt lat="45.6925047095865" lon="17.671943809837103">
        <ele>157.94</ele>
        <time>2023-10-17T02:21:36.963Z</time>
      </trkpt>
      <trkpt lat="45.692504961043596" lon="17.671944061294198">
        <ele>157.95</ele>
        <time>2023-10-17T02:21:42.890Z</time>
      </trkpt>
      <trkpt lat="45.69250504486263" lon="17.671944312751293">
        <ele>157.96</ele>
        <time>2023-10-17T02:21:48.817Z</time>
      </trkpt>
      <trkpt lat="45.69250504486263" lon="17.67194456420839">
        <ele>157.97</ele>
        <time>2023-10-17T02:21:54.744Z</time>
      </trkpt>
      <trkpt lat="45.69250462576747" lon="17.67194506712258">
        <ele>157.98</ele>
        <time>2023-10-17T02:22:00.671Z</time>
      </trkpt>
      <trkpt lat="45.69250361993909" lon="17.671945737674832">
        <ele>157.99</ele>
        <time>2023-10-17T02:22:06.598Z</time>
      </trkpt>
      <trkpt lat="45.69250219501555" lon="17.671946324408054">
        <ele>158.0</ele>
        <time>2023-10-17T02:22:12.525Z</time>
      </trkpt>
      <trkpt lat="45.69250018335879" lon="17.671946911141276">
        <ele>158.02</ele>
        <time>2023-10-17T02:22:18.452Z</time>
      </trkpt>
      <trkpt lat="45.69249775260687" lon="17.671947246417403">
        <ele>158.03</ele>
        <time>2023-10-17T02:22:24.379Z</time>
      </trkpt>
      <trkpt lat="45.69249498657882" lon="17.6719474978745">
        <ele>158.04</ele>
        <time>2023-10-17T02:22:30.306Z</time>
      </trkpt>
      <trkpt lat="45.692491717636585" lon="17.67194758169353">
        <ele>158.06</ele>
        <time>2023-10-17T02:22:36.233Z</time>
      </trkpt>
      <trkpt lat="45.69248811341822" lon="17.671947665512562">
        <ele>158.07</ele>
        <time>2023-10-17T02:22:42.161Z</time>
      </trkpt>
      <trkpt lat="45.69248400628567" lon="17.671947665512562">
        <ele>158.08</ele>
        <time>2023-10-17T02:22:48.089Z</time>
      </trkpt>
      <trkpt lat="45.692479060962796" lon="17.671947749331594">
        <ele>158.1</ele>
        <time>2023-10-17T02:22:54.017Z</time>
      </trkpt>
      <trkpt lat="45.692473612725735" lon="17.671947749331594">
        <ele>158.11</ele>
        <time>2023-10-17T02:22:59.945Z</time>
      </trkpt>
      <trkpt lat="45.69246816448867" lon="17.67194758169353">
        <ele>158.13</ele>
        <time>2023-10-17T02:23:05.873Z</time>
      </trkpt>
      <trkpt lat="45.69246280007064" lon="17.671947749331594">
        <ele>158.14</ele>
        <time>2023-10-17T02:23:11.801Z</time>
      </trkpt>
      <trkpt lat="45.692457519471645" lon="17.671948168426752">
        <ele>158.16</ele>
        <time>2023-10-17T02:23:17.730Z</time>
      </trkpt>
      <trkpt lat="45.69245324470103" lon="17.671948755159974">
        <ele>158.17</ele>
        <time>2023-10-17T02:23:23.659Z</time>
      </trkpt>
      <trkpt lat="45.69245031103492" lon="17.671949928626418">
        <ele>158.18</ele>
        <time>2023-10-17T02:23:29.588Z</time>
      </trkpt>
      <trkpt lat="45.692448718473315" lon="17.671951772645116">
        <ele>158.2</ele>
        <time>2023-10-17T02:23:35.517Z</time>
      </trkpt>
      <trkpt lat="45.692448718473315" lon="17.6719543710351">
        <ele>158.21</ele>
        <time>2023-10-17T02:23:41.446Z</time>
      </trkpt>
      <trkpt lat="45.69244989193976" lon="17.671957472339272">
        <ele>158.23</ele>
        <time>2023-10-17T02:23:47.375Z</time>
      </trkpt>
      <trkpt lat="45.6924510654062" lon="17.67195973545313">
        <ele>158.24</ele>
        <time>2023-10-17T02:23:53.304Z</time>
      </trkpt>
      <trkpt lat="45.692452657967806" lon="17.671961411833763">
        <ele>158.26</ele>
        <time>2023-10-17T02:23:59.233Z</time>
      </trkpt>
      <trkpt lat="45.69245483726263" lon="17.67196216620505">
        <ele>158.27</ele>
        <time>2023-10-17T02:24:05.162Z</time>
      </trkpt>
      <trkpt lat="45.69245735183358" lon="17.671961998566985">
        <ele>158.29</ele>
        <time>2023-10-17T02:24:11.091Z</time>
      </trkpt>
      <trkpt lat="45.69246028549969" lon="17.67196074128151">
        <ele>158.3</ele>
        <time>2023-10-17T02:24:17.020Z</time>
      </trkpt>
      <trkpt lat="45.69246397353709" lon="17.671958645805717">
        <ele>158.31</ele>
        <time>2023-10-17T02:24:22.950Z</time>
      </trkpt>
      <trkpt lat="45.69246791303158" lon="17.671956550329924">
        <ele>158.33</ele>
        <time>2023-10-17T02:24:28.880Z</time>
      </trkpt>
      <trkpt lat="45.69247185252607" lon="17.671954287216067">
        <ele>158.34</ele>
        <time>2023-10-17T02:24:34.810Z</time>
      </trkpt>
      <trkpt lat="45.69247570820153" lon="17.671951856464148">
        <ele>158.35</ele>
        <time>2023-10-17T02:24:40.740Z</time>
      </trkpt>
      <trkpt lat="45.69247922860086" lon="17.6719490904361">
        <ele>158.36</ele>
        <time>2023-10-17T02:24:46.670Z</time>
      </trkpt>
      <trkpt lat="45.692482916638255" lon="17.67194607295096">
        <ele>158.38</ele>
        <time>2023-10-17T02:24:52.600Z</time>
      </trkpt>
      <trkpt lat="45.69248794578016" lon="17.671943893656135">
        <ele>158.39</ele>
        <time>2023-10-17T02:24:58.530Z</time>
      </trkpt>
      <trkpt lat="45.69249423220754" lon="17.671942552551627">
        <ele>158.4</ele>
        <time>2023-10-17T02:25:04.461Z</time>
      </trkpt>
      <trkpt lat="45.69250169210136" lon="17.67194213345647">
        <ele>158.41</ele>
        <time>2023-10-17T02:25:10.392Z</time>
      </trkpt>
      <trkpt lat="45.692509822547436" lon="17.671942804008722">
        <ele>158.42</ele>
        <time>2023-10-17T02:25:16.323Z</time>
      </trkpt>
      <trkpt lat="45.69251879118383" lon="17.67194456420839">
        <ele>158.43</ele>
        <time>2023-10-17T02:25:22.254Z</time>
      </trkpt>
      <trkpt lat="45.69252817891538" lon="17.671947246417403">
        <ele>158.43</ele>
        <time>2023-10-17T02:25:28.186Z</time>
      </trkpt>
      <trkpt lat="45.69253790192306" lon="17.671950263902545">
        <ele>158.44</ele>
        <time>2023-10-17T02:25:34.118Z</time>
      </trkpt>
      <trkpt lat="45.6925477925688" lon="17.67195336520672">
        <ele>158.45</ele>
        <time>2023-10-17T02:25:40.050Z</time>
      </trkpt>
      <trkpt lat="45.692557683214545" lon="17.671956466510892">
        <ele>158.46</ele>
        <time>2023-10-17T02:25:45.983Z</time>
      </trkpt>
      <trkpt lat="45.692567992955446" lon="17.67195973545313">
        <ele>158.46</ele>
        <time>2023-10-17T02:25:51.916Z</time>
      </trkpt>
      <trkpt lat="45.69257830269635" lon="17.671963088214397">
        <ele>158.46</ele>
        <time>2023-10-17T02:25:57.849Z</time>
      </trkpt>
      <trkpt lat="45.69258886389434" lon="17.671966860070825">
        <ele>158.47</ele>
        <time>2023-10-17T02:26:03.783Z</time>
      </trkpt>
      <trkpt lat="45.692599257454276" lon="17.671970799565315">
        <ele>158.47</ele>
        <time>2023-10-17T02:26:09.717Z</time>
      </trkpt>
      <trkpt lat="45.692609483376145" lon="17.671974822878838">
        <ele>158.47</ele>
        <time>2023-10-17T02:26:15.652Z</time>
      </trkpt>
      <trkpt lat="45.69261954165995" lon="17.671979013830423">
        <ele>158.47</ele>
        <time>2023-10-17T02:26:21.587Z</time>
      </trkpt>
      <trkpt lat="45.692629432305694" lon="17.671983120962977">
        <ele>158.47</ele>
        <time>2023-10-17T02:26:27.522Z</time>
      </trkpt>
      <trkpt lat="45.69263898767531" lon="17.6719871442765">
        <ele>158.46</ele>
        <time>2023-10-17T02:26:33.458Z</time>
      </trkpt>
      <trkpt lat="45.692648123949766" lon="17.671991167590022">
        <ele>158.46</ele>
        <time>2023-10-17T02:26:39.394Z</time>
      </trkpt>
      <trkpt lat="45.69265717640519" lon="17.671995190903544">
        <ele>158.45</ele>
        <time>2023-10-17T02:26:45.330Z</time>
      </trkpt>
      <trkpt lat="45.69266589358449" lon="17.671999214217067">
        <ele>158.45</ele>
        <time>2023-10-17T02:26:51.267Z</time>
      </trkpt>
      <trkpt lat="45.69267461076379" lon="17.672003069892526">
        <ele>158.44</ele>
        <time>2023-10-17T02:26:57.204Z</time>
      </trkpt>
      <trkpt lat="45.692683244124055" lon="17.67200667411089">
        <ele>158.43</ele>
        <time>2023-10-17T02:27:03.141Z</time>
      </trkpt>
      <trkpt lat="45.69269179366529" lon="17.672009943053126">
        <ele>158.42</ele>
        <time>2023-10-17T02:27:09.078Z</time>
      </trkpt>
      <trkpt lat="45.69270076230168" lon="17.672013211995363">
        <ele>158.41</ele>
        <time>2023-10-17T02:27:15.016Z</time>
      </trkpt>
      <trkpt lat="45.692710066214204" lon="17.672016564756632">
        <ele>158.4</ele>
        <time>2023-10-17T02:27:20.954Z</time>
      </trkpt>
      <trkpt lat="45.69271970540285" lon="17.672020168974996">
        <ele>158.38</ele>
        <time>2023-10-17T02:27:26.892Z</time>
      </trkpt>
      <trkpt lat="45.69272959604859" lon="17.67202435992658">
        <ele>158.36</ele>
        <time>2023-10-17T02:27:32.831Z</time>
      </trkpt>
      <trkpt lat="45.69273982197046" lon="17.672028969973326">
        <ele>158.35</ele>
        <time>2023-10-17T02:27:38.770Z</time>
      </trkpt>
      <trkpt lat="45.692750215530396" lon="17.67203408293426">
        <ele>158.33</ele>
        <time>2023-10-17T02:27:44.709Z</time>
      </trkpt>
      <trkpt lat="45.69276060909033" lon="17.672039531171322">
        <ele>158.31</ele>
        <time>2023-10-17T02:27:50.649Z</time>
      </trkpt>
      <trkpt lat="45.692771170288324" lon="17.672045482322574">
        <ele>158.28</ele>
        <time>2023-10-17T02:27:56.589Z</time>
      </trkpt>
      <trkpt lat="45.69278164766729" lon="17.672052020207047">
        <ele>158.26</ele>
        <time>2023-10-17T02:28:02.530Z</time>
      </trkpt>
      <trkpt lat="45.69279212504625" lon="17.672059228643775">
        <ele>158.23</ele>
        <time>2023-10-17T02:28:08.471Z</time>
      </trkpt>
      <trkpt lat="45.692802518606186" lon="17.672066939994693">
        <ele>158.21</ele>
        <time>2023-10-17T02:28:14.412Z</time>
      </trkpt>
      <trkpt lat="45.69281257688999" lon="17.67207507044077">
        <ele>158.18</ele>
        <time>2023-10-17T02:28:20.354Z</time>
      </trkpt>
      <trkpt lat="45.6928223837167" lon="17.67208336852491">
        <ele>158.15</ele>
        <time>2023-10-17T02:28:26.296Z</time>
      </trkpt>
      <trkpt lat="45.692831855267286" lon="17.672091498970985">
        <ele>158.12</ele>
        <time>2023-10-17T02:28:32.239Z</time>
      </trkpt>
      <trkpt lat="45.69284082390368" lon="17.672099210321903">
        <ele>158.08</ele>
        <time>2023-10-17T02:28:38.182Z</time>
      </trkpt>
      <trkpt lat="45.692849373444915" lon="17.6721063349396">
        <ele>158.04</ele>
        <time>2023-10-17T02:28:44.125Z</time>
      </trkpt>
      <trkpt lat="45.692857671529055" lon="17.672113040462136">
        <ele>158.01</ele>
        <time>2023-10-17T02:28:50.069Z</time>
      </trkpt>
      <trkpt lat="45.69286563433707" lon="17.672118991613388">
        <ele>157.97</ele>
        <time>2023-10-17T02:28:56.013Z</time>
      </trkpt>
      <trkpt lat="45.692873345687985" lon="17.672124356031418">
        <ele>157.92</ele>
        <time>2023-10-17T02:29:01.957Z</time>
      </trkpt>
      <trkpt lat="45.69288088940084" lon="17.672128966078162">
        <ele>157.88</ele>
        <time>2023-10-17T02:29:07.901Z</time>
      </trkpt>
      <trkpt lat="45.69288834929466" lon="17.672133073210716">
        <ele>157.84</ele>
        <time>2023-10-17T02:29:13.846Z</time>
      </trkpt>
      <trkpt lat="45.692895809188485" lon="17.67213667742908">
        <ele>157.79</ele>
        <time>2023-10-17T02:29:19.791Z</time>
      </trkpt>
      <trkpt lat="45.69290343672037" lon="17.672139778733253">
        <ele>157.74</ele>
        <time>2023-10-17T02:29:25.736Z</time>
      </trkpt>
      <trkpt lat="45.692911399528384" lon="17.67214246094227">
        <ele>157.69</ele>
        <time>2023-10-17T02:29:31.681Z</time>
      </trkpt>
      <trkpt lat="45.692919697612524" lon="17.672144724056125">
        <ele>157.64</ele>
        <time>2023-10-17T02:29:37.627Z</time>
      </trkpt>
      <trkpt lat="45.692928582429886" lon="17.672146651893854">
        <ele>157.58</ele>
        <time>2023-10-17T02:29:43.573Z</time>
      </trkpt>
      <trkpt lat="45.69293805398047" lon="17.672148244455457">
        <ele>157.53</ele>
        <time>2023-10-17T02:29:49.519Z</time>
      </trkpt>
      <trkpt lat="45.692948028445244" lon="17.672149669378996">
        <ele>157.47</ele>
        <time>2023-10-17T02:29:55.466Z</time>
      </trkpt>
      <trkpt lat="45.69295850582421" lon="17.672150759026408">
        <ele>157.41</ele>
        <time>2023-10-17T02:30:01.413Z</time>
      </trkpt>
      <trkpt lat="45.6929693184793" lon="17.67215176485479">
        <ele>157.35</ele>
        <time>2023-10-17T02:30:07.360Z</time>
      </trkpt>
      <trkpt lat="45.692980382591486" lon="17.672152435407043">
        <ele>157.29</ele>
        <time>2023-10-17T02:30:13.308Z</time>
      </trkpt>
      <trkpt lat="45.692991614341736" lon="17.672152686864138">
        <ele>157.23</ele>
        <time>2023-10-17T02:30:19.256Z</time>
      </trkpt>
      <trkpt lat="45.69300301373005" lon="17.672152435407043">
        <ele>157.16</ele>
        <time>2023-10-17T02:30:25.204Z</time>
      </trkpt>
      <trkpt lat="45.69301441311836" lon="17.67215184867382">
        <ele>157.09</ele>
        <time>2023-10-17T02:30:31.153Z</time>
      </trkpt>
      <trkpt lat="45.693025812506676" lon="17.67215084284544">
        <ele>157.03</ele>
        <time>2023-10-17T02:30:37.102Z</time>
      </trkpt>
      <trkpt lat="45.69303729571402" lon="17.672149669378996">
        <ele>156.96</ele>
        <time>2023-10-17T02:30:43.052Z</time>
      </trkpt>
      <trkpt lat="45.6930486112833" lon="17.67214832827449">
        <ele>156.88</ele>
        <time>2023-10-17T02:30:49.002Z</time>
      </trkpt>
      <trkpt lat="45.69305975921452" lon="17.67214690335095">
        <ele>156.81</ele>
        <time>2023-10-17T02:30:54.952Z</time>
      </trkpt>
      <trkpt lat="45.69307090714574" lon="17.67214539460838">
        <ele>156.74</ele>
        <time>2023-10-17T02:31:00.903Z</time>
      </trkpt>
      <trkpt lat="45.69308205507696" lon="17.672143718227744">
        <ele>156.66</ele>
        <time>2023-10-17T02:31:06.854Z</time>
      </trkpt>
      <trkpt lat="45.693093203008175" lon="17.672141958028078">
        <ele>156.59</ele>
        <time>2023-10-17T02:31:12.806Z</time>
      </trkpt>
      <trkpt lat="45.69310435093939" lon="17.672140197828412">
        <ele>156.51</ele>
        <time>2023-10-17T02:31:18.758Z</time>
      </trkpt>
      <trkpt lat="45.69311549887061" lon="17.672138269990683">
        <ele>156.43</ele>
        <time>2023-10-17T02:31:24.710Z</time>
      </trkpt>
      <trkpt lat="45.69312673062086" lon="17.672136425971985">
        <ele>156.36</ele>
        <time>2023-10-17T02:31:30.663Z</time>
      </trkpt>
      <trkpt lat="45.69313796237111" lon="17.67213466577232">
        <ele>156.28</ele>
        <time>2023-10-17T02:31:36.616Z</time>
      </trkpt>
      <trkpt lat="45.69314927794039" lon="17.672132905572653">
        <ele>156.2</ele>
        <time>2023-10-17T02:31:42.569Z</time>
      </trkpt>
      <trkpt lat="45.693160593509674" lon="17.672131480649114">
        <ele>156.12</ele>
        <time>2023-10-17T02:31:48.523Z</time>
      </trkpt>
      <trkpt lat="45.69317199289799" lon="17.67213030718267">
        <ele>156.04</ele>
        <time>2023-10-17T02:31:54.477Z</time>
      </trkpt>
      <trkpt lat="45.69318347610533" lon="17.672129468992352">
        <ele>155.96</ele>
        <time>2023-10-17T02:32:00.432Z</time>
      </trkpt>
      <trkpt lat="45.69319504313171" lon="17.672129133716226">
        <ele>155.88</ele>
        <time>2023-10-17T02:32:06.387Z</time>
      </trkpt>
      <trkpt lat="45.69320669397712" lon="17.672129217535257">
        <ele>155.8</ele>
        <time>2023-10-17T02:32:12.342Z</time>
      </trkpt>
      <trkpt lat="45.69321859627962" lon="17.672129636630416">
        <ele>155.72</ele>
        <time>2023-10-17T02:32:18.298Z</time>
      </trkpt>
      <trkpt lat="45.69323066622019" lon="17.67213030718267">
        <ele>155.64</ele>
        <time>2023-10-17T02:32:24.254Z</time>
      </trkpt>
      <trkpt lat="45.69324290379882" lon="17.672131061553955">
        <ele>155.56</ele>
        <time>2023-10-17T02:32:30.211Z</time>
      </trkpt>
      <trkpt lat="45.693255392834544" lon="17.67213173210621">
        <ele>155.48</ele>
        <time>2023-10-17T02:32:36.168Z</time>
      </trkpt>
      <trkpt lat="45.69326804950833" lon="17.67213231883943">
        <ele>155.4</ele>
        <time>2023-10-17T02:32:42.125Z</time>
      </trkpt>
      <trkpt lat="45.693280873820186" lon="17.672132570296526">
        <ele>155.32</ele>
        <time>2023-10-17T02:32:48.083Z</time>
      </trkpt>
      <trkpt lat="45.6932938657701" lon="17.672132402658463">
        <ele>155.24</ele>
        <time>2023-10-17T02:32:54.041Z</time>
      </trkpt>
      <trkpt lat="45.693307192996144" lon="17.672131480649114">
        <ele>155.16</ele>
        <time>2023-10-17T02:33:00.000Z</time>
      </trkpt>
      <trkpt lat="45.693320855498314" lon="17.67212980426848">
        <ele>155.08</ele>
        <time>2023-10-17T02:33:05.959Z</time>
      </trkpt>
      <trkpt lat="45.69333476945758" lon="17.672127038240433">
        <ele>155.0</ele>
        <time>2023-10-17T02:33:11.919Z</time>
      </trkpt>
      <trkpt lat="45.69334893487394" lon="17.672123350203037">
        <ele>154.92</ele>
        <time>2023-10-17T02:33:17.879Z</time>
      </trkpt>
      <trkpt lat="45.69336326792836" lon="17.67211865633726">
        <ele>154.83</ele>
        <time>2023-10-17T02:33:23.840Z</time>
      </trkpt>
      <trkpt lat="45.693377600982785" lon="17.672113375738263">
        <ele>154.75</ele>
        <time>2023-10-17T02:33:29.801Z</time>
      </trkpt>
      <trkpt lat="45.69339193403721" lon="17.672107592225075">
        <ele>154.67</ele>
        <time>2023-10-17T02:33:35.763Z</time>
      </trkpt>
      <trkpt lat="45.6934061832726" lon="17.672101221978664">
        <ele>154.59</ele>
        <time>2023-10-17T02:33:41.725Z</time>
      </trkpt>
      <trkpt lat="45.69342051632702" lon="17.67209460027516">
        <ele>154.51</ele>
        <time>2023-10-17T02:33:47.688Z</time>
      </trkpt>
      <trkpt lat="45.69343484938145" lon="17.672087643295527">
        <ele>154.44</ele>
        <time>2023-10-17T02:33:53.651Z</time>
      </trkpt>
      <trkpt lat="45.69344909861684" lon="17.672080686315894">
        <ele>154.36</ele>
        <time>2023-10-17T02:33:59.615Z</time>
      </trkpt>
      <trkpt lat="45.69346343167126" lon="17.672073896974325">
        <ele>154.28</ele>
        <time>2023-10-17T02:34:05.579Z</time>
      </trkpt>
      <trkpt lat="45.69347784854472" lon="17.67206727527082">
        <ele>154.2</ele>
        <time>2023-10-17T02:34:11.544Z</time>
      </trkpt>
      <trkpt lat="45.69349226541817" lon="17.672060821205378">
        <ele>154.13</ele>
        <time>2023-10-17T02:34:17.509Z</time>
      </trkpt>
      <trkpt lat="45.69350643083453" lon="17.672054702416062">
        <ele>154.06</ele>
        <time>2023-10-17T02:34:23.475Z</time>
      </trkpt>
      <trkpt lat="45.69352017715573" lon="17.67204875126481">
        <ele>153.98</ele>
        <time>2023-10-17T02:34:29.441Z</time>
      </trkpt>
      <trkpt lat="45.69353375583887" lon="17.672042967751622">
        <ele>153.91</ele>
        <time>2023-10-17T02:34:35.408Z</time>
      </trkpt>
      <trkpt lat="45.693547083064914" lon="17.67203751951456">
        <ele>153.84</ele>
        <time>2023-10-17T02:34:41.375Z</time>
      </trkpt>
      <trkpt lat="45.693559823557734" lon="17.67203265801072">
        <ele>153.77</ele>
        <time>2023-10-17T02:34:47.342Z</time>
      </trkpt>
      <trkpt lat="45.6935721449554" lon="17.672028383240104">
        <ele>153.71</ele>
        <time>2023-10-17T02:34:53.310Z</time>
      </trkpt>
      <trkpt lat="45.69358396343887" lon="17.67202477902174">
        <ele>153.64</ele>
        <time>2023-10-17T02:34:59.278Z</time>
      </trkpt>
      <trkpt lat="45.69359511137009" lon="17.672021761536598">
        <ele>153.58</ele>
        <time>2023-10-17T02:35:05.247Z</time>
      </trkpt>
      <trkpt lat="45.693605337291956" lon="17.672019246965647">
        <ele>153.51</ele>
        <time>2023-10-17T02:35:11.216Z</time>
      </trkpt>
      <trkpt lat="45.693614641204476" lon="17.67201740294695">
        <ele>153.45</ele>
        <time>2023-10-17T02:35:17.185Z</time>
      </trkpt>
      <trkpt lat="45.693622855469584" lon="17.672016313299537">
        <ele>153.39</ele>
        <time>2023-10-17T02:35:23.155Z</time>
      </trkpt>
      <trkpt lat="45.693630147725344" lon="17.672015810385346">
        <ele>153.33</ele>
        <time>2023-10-17T02:35:29.125Z</time>
      </trkpt>
      <trkpt lat="45.69363676942885" lon="17.67201639711857">
        <ele>153.27</ele>
        <time>2023-10-17T02:35:35.095Z</time>
      </trkpt>
      <trkpt lat="45.6936427205801" lon="17.672017822042108">
        <ele>153.21</ele>
        <time>2023-10-17T02:35:41.065Z</time>
      </trkpt>
      <trkpt lat="45.69364791736007" lon="17.672019749879837">
        <ele>153.16</ele>
        <time>2023-10-17T02:35:47.035Z</time>
      </trkpt>
      <trkpt lat="45.69365252740681" lon="17.672022180631757">
        <ele>153.11</ele>
        <time>2023-10-17T02:35:53.006Z</time>
      </trkpt>
      <trkpt lat="45.693656634539366" lon="17.67202486284077">
        <ele>153.05</ele>
        <time>2023-10-17T02:35:58.977Z</time>
      </trkpt>
      <trkpt lat="45.6936601549387" lon="17.67202762886882">
        <ele>153.0</ele>
        <time>2023-10-17T02:36:04.948Z</time>
      </trkpt>
      <trkpt lat="45.69366317242384" lon="17.672030394896865">
        <ele>152.95</ele>
        <time>2023-10-17T02:36:10.919Z</time>
      </trkpt>
      <trkpt lat="45.693665938451886" lon="17.67203307710588">
        <ele>152.91</ele>
        <time>2023-10-17T02:36:16.890Z</time>
      </trkpt>
      <trkpt lat="45.69366845302284" lon="17.6720355078578">
        <ele>152.86</ele>
        <time>2023-10-17T02:36:22.861Z</time>
      </trkpt>
      <trkpt lat="45.69367096759379" lon="17.672037687152624">
        <ele>152.81</ele>
        <time>2023-10-17T02:36:28.832Z</time>
      </trkpt>
      <trkpt lat="45.69367356598377" lon="17.672039279714227">
        <ele>152.77</ele>
        <time>2023-10-17T02:36:34.803Z</time>
      </trkpt>
      <trkpt lat="45.69367649964988" lon="17.672040034085512">
        <ele>152.73</ele>
        <time>2023-10-17T02:36:40.774Z</time>
      </trkpt>
      <trkpt lat="45.69367968477309" lon="17.672040201723576">
        <ele>152.68</ele>
        <time>2023-10-17T02:36:46.746Z</time>
      </trkpt>
      <trkpt lat="45.69368320517242" lon="17.672039698809385">
        <ele>152.64</ele>
        <time>2023-10-17T02:36:52.718Z</time>
      </trkpt>
      <trkpt lat="45.69368722848594" lon="17.672038609161973">
        <ele>152.6</ele>
        <time>2023-10-17T02:36:58.690Z</time>
      </trkpt>
      <trkpt lat="45.69369192235172" lon="17.67203701660037">
        <ele>152.57</ele>
        <time>2023-10-17T02:37:04.662Z</time>
      </trkpt>
      <trkpt lat="45.69369728676975" lon="17.672034921124578">
        <ele>152.53</ele>
        <time>2023-10-17T02:37:10.634Z</time>
      </trkpt>
      <trkpt lat="45.69370332174003" lon="17.67203265801072">
        <ele>152.49</ele>
        <time>2023-10-17T02:37:16.606Z</time>
      </trkpt>
      <trkpt lat="45.69371019490063" lon="17.672030394896865">
        <ele>152.46</ele>
        <time>2023-10-17T02:37:22.579Z</time>
      </trkpt>
      <trkpt lat="45.693717654794455" lon="17.67202813178301">
        <ele>152.43</ele>
        <time>2023-10-17T02:37:28.552Z</time>
      </trkpt>
      <trkpt lat="45.6937257014215" lon="17.67202620394528">
        <ele>152.39</ele>
        <time>2023-10-17T02:37:34.525Z</time>
      </trkpt>
      <trkpt lat="45.693734250962734" lon="17.67202486284077">
        <ele>152.36</ele>
        <time>2023-10-17T02:37:40.498Z</time>
      </trkpt>
      <trkpt lat="45.693743051961064" lon="17.67202435992658">
        <ele>152.33</ele>
        <time>2023-10-17T02:37:46.472Z</time>
      </trkpt>
      <trkpt lat="45.69375218823552" lon="17.672024946659803">
        <ele>152.3</ele>
        <time>2023-10-17T02:37:52.446Z</time>
      </trkpt>
      <trkpt lat="45.69376132450998" lon="17.672026539221406">
        <ele>152.28</ele>
        <time>2023-10-17T02:37:58.420Z</time>
      </trkpt>
      <trkpt lat="45.69377029314637" lon="17.672029472887516">
        <ele>152.25</ele>
        <time>2023-10-17T02:38:04.395Z</time>
      </trkpt>
      <trkpt lat="45.693779177963734" lon="17.672034250572324">
        <ele>152.23</ele>
        <time>2023-10-17T02:38:10.370Z</time>
      </trkpt>
      <trkpt lat="45.693787559866905" lon="17.67204045318067">
        <ele>152.2</ele>
        <time>2023-10-17T02:38:16.345Z</time>
      </trkpt>
      <trkpt lat="45.69379527121782" lon="17.672048332169652">
        <ele>152.18</ele>
        <time>2023-10-17T02:38:22.321Z</time>
      </trkpt>
      <trkpt lat="45.69380239583552" lon="17.672057719901204">
        <ele>152.16</ele>
        <time>2023-10-17T02:38:28.297Z</time>
      </trkpt>
      <trkpt lat="45.69380876608193" lon="17.672068616375327">
        <ele>152.14</ele>
        <time>2023-10-17T02:38:34.273Z</time>
      </trkpt>
      <trkpt lat="45.693814381957054" lon="17.67208102159202">
        <ele>152.12</ele>
        <time>2023-10-17T02:38:40.250Z</time>
      </trkpt>
      <trkpt lat="45.693819327279925" lon="17.67209460027516">
        <ele>152.1</ele>
        <time>2023-10-17T02:38:46.227Z</time>
      </trkpt>
      <trkpt lat="45.69382343441248" lon="17.67210935242474">
        <ele>152.08</ele>
        <time>2023-10-17T02:38:52.204Z</time>
      </trkpt>
      <trkpt lat="45.69382687099278" lon="17.67212452366948">
        <ele>152.06</ele>
        <time>2023-10-17T02:38:58.182Z</time>
      </trkpt>
      <trkpt lat="45.693829553201795" lon="17.67214003019035">
        <ele>152.05</ele>
        <time>2023-10-17T02:39:04.160Z</time>
      </trkpt>
      <trkpt lat="45.693831564858556" lon="17.672155620530248">
        <ele>152.03</ele>
        <time>2023-10-17T02:39:10.138Z</time>
      </trkpt>
      <trkpt lat="45.693832989782095" lon="17.672170288860798">
        <ele>152.02</ele>
        <time>2023-10-17T02:39:16.117Z</time>
      </trkpt>
      <trkpt lat="45.69383382797241" lon="17.672184286639094">
        <ele>152.01</ele>
        <time>2023-10-17T02:39:22.096Z</time>
      </trkpt>
      <trkpt lat="45.693834498524666" lon="17.672197110950947">
        <ele>151.99</ele>
        <time>2023-10-17T02:39:28.075Z</time>
      </trkpt>
      <trkpt lat="45.693835001438856" lon="17.672208845615387">
        <ele>151.98</ele>
        <time>2023-10-17T02:39:34.055Z</time>
      </trkpt>
      <trkpt lat="45.693835504353046" lon="17.67221932299435">
        <ele>151.97</ele>
        <time>2023-10-17T02:39:40.035Z</time>
      </trkpt>
      <trkpt lat="45.69383609108627" lon="17.67222854308784">
        <ele>151.96</ele>
        <time>2023-10-17T02:39:46.015Z</time>
      </trkpt>
      <trkpt lat="45.69383659400046" lon="17.672236505895853">
        <ele>151.95</ele>
        <time>2023-10-17T02:39:51.995Z</time>
      </trkpt>
      <trkpt lat="45.69383718073368" lon="17.67224312759936">
        <ele>151.95</ele>
        <time>2023-10-17T02:39:57.975Z</time>
      </trkpt>
      <trkpt lat="45.6938377674669" lon="17.67224857583642">
        <ele>151.94</ele>
        <time>2023-10-17T02:40:03.956Z</time>
      </trkpt>
      <trkpt lat="45.69383843801916" lon="17.6722530182451">
        <ele>151.93</ele>
        <time>2023-10-17T02:40:09.937Z</time>
      </trkpt>
      <trkpt lat="45.69383919239044" lon="17.672256538644433">
        <ele>151.92</ele>
        <time>2023-10-17T02:40:15.918Z</time>
      </trkpt>
      <trkpt lat="45.69383994676173" lon="17.67225930467248">
        <ele>151.92</ele>
        <time>2023-10-17T02:40:21.899Z</time>
      </trkpt>
      <trkpt lat="45.693840784952044" lon="17.672261651605368">
        <ele>151.91</ele>
        <time>2023-10-17T02:40:27.880Z</time>
      </trkpt>
      <trkpt lat="45.69384137168527" lon="17.672263411805034">
        <ele>151.9</ele>
        <time>2023-10-17T02:40:33.861Z</time>
      </trkpt>
      <trkpt lat="45.693841790780425" lon="17.67226475290954">
        <ele>151.9</ele>
        <time>2023-10-17T02:40:39.842Z</time>
      </trkpt>
      <trkpt lat="45.69384195841849" lon="17.67226559109986">
        <ele>151.9</ele>
        <time>2023-10-17T02:40:45.823Z</time>
      </trkpt>
      <trkpt lat="45.693841790780425" lon="17.672266010195017">
        <ele>151.89</ele>
        <time>2023-10-17T02:40:51.804Z</time>
      </trkpt>
      <trkpt lat="45.693841287866235" lon="17.67226609401405">
        <ele>151.89</ele>
        <time>2023-10-17T02:40:57.785Z</time>
      </trkpt>
      <trkpt lat="45.69384053349495" lon="17.672265926375985">
        <ele>151.88</ele>
        <time>2023-10-17T02:41:03.766Z</time>
      </trkpt>
      <trkpt lat="45.6938396114856" lon="17.67226567491889">
        <ele>151.88</ele>
        <time>2023-10-17T02:41:09.747Z</time>
      </trkpt>
      <trkpt lat="45.69383860565722" lon="17.672265339642763">
        <ele>151.88</ele>
        <time>2023-10-17T02:41:15.728Z</time>
      </trkpt>
      <trkpt lat="45.693837432190776" lon="17.672265088185668">
        <ele>151.88</ele>
        <time>2023-10-17T02:41:21.709Z</time>
      </trkpt>
      <trkpt lat="45.6938361749053" lon="17.67226475290954">
        <ele>151.88</ele>
        <time>2023-10-17T02:41:27.690Z</time>
      </trkpt>
      <trkpt lat="45.693834917619824" lon="17.672264585271478">
        <ele>151.88</ele>
        <time>2023-10-17T02:41:33.671Z</time>
      </trkpt>
      <trkpt lat="45.69383357651532" lon="17.672264417633414">
        <ele>151.87</ele>
        <time>2023-10-17T02:41:39.652Z</time>
      </trkpt>
      <trkpt lat="45.69383231922984" lon="17.672264417633414">
        <ele>151.88</ele>
        <time>2023-10-17T02:41:45.633Z</time>
      </trkpt>
      <trkpt lat="45.6938311457634" lon="17.672264501452446">
        <ele>151.88</ele>
        <time>2023-10-17T02:41:51.614Z</time>
      </trkpt>
      <trkpt lat="45.69383022375405" lon="17.672264585271478">
        <ele>151.88</ele>
        <time>2023-10-17T02:41:57.595Z</time>
      </trkpt>
      <trkpt lat="45.693829553201795" lon="17.67226475290954">
        <ele>151.88</ele>
        <time>2023-10-17T02:42:03.576Z</time>
      </trkpt>
      <trkpt lat="45.693829134106636" lon="17.672264920547605">
        <ele>151.88</ele>
        <time>2023-10-17T02:42:09.557Z</time>
      </trkpt>
      <trkpt lat="45.693829050287604" lon="17.6722651720047">
        <ele>151.88</ele>
        <time>2023-10-17T02:42:15.538Z</time>
      </trkpt>
      <trkpt lat="45.69382879883051" lon="17.672265339642763">
        <ele>151.89</ele>
        <time>2023-10-17T02:42:21.520Z</time>
      </trkpt>
      <trkpt lat="45.69382896646857" lon="17.67226567491889">
        <ele>151.89</ele>
        <time>2023-10-17T02:42:27.502Z</time>
      </trkpt>
      <trkpt lat="45.69382888264954" lon="17.672265423461795">
        <ele>151.89</ele>
        <time>2023-10-17T02:42:33.484Z</time>
      </trkpt>
      <trkpt lat="45.693829553201795" lon="17.67226609401405">
        <ele>151.9</ele>
        <time>2023-10-17T02:42:39.466Z</time>
      </trkpt>
      <trkpt lat="45.69382997229695" lon="17.67226609401405">
        <ele>151.91</ele>
        <time>2023-10-17T02:42:45.448Z</time>
      </trkpt>
      <trkpt lat="45.693830559030175" lon="17.67226617783308">
        <ele>151.91</ele>
        <time>2023-10-17T02:42:51.430Z</time>
      </trkpt>
      <trkpt lat="45.69383122958243" lon="17.67226617783308">
        <ele>151.92</ele>
        <time>2023-10-17T02:42:57.412Z</time>
      </trkpt>
      <trkpt lat="45.69383181631565" lon="17.67226617783308">
        <ele>151.93</ele>
        <time>2023-10-17T02:43:03.394Z</time>
      </trkpt>
      <trkpt lat="45.69383223541081" lon="17.672266010195017">
        <ele>151.94</ele>
        <time>2023-10-17T02:43:09.376Z</time>
      </trkpt>
      <trkpt lat="45.693832486867905" lon="17.67226567491889">
        <ele>151.95</ele>
        <time>2023-10-17T02:43:15.358Z</time>
      </trkpt>
      <trkpt lat="45.693832486867905" lon="17.672265339642763">
        <ele>151.96</ele>
        <time>2023-10-17T02:43:21.340Z</time>
      </trkpt>
      <trkpt lat="45.69383282214403" lon="17.672265004366636">
        <ele>151.97</ele>
        <time>2023-10-17T02:43:27.322Z</time>
      </trkpt>
      <trkpt lat="45.693832738325" lon="17.672264501452446">
        <ele>151.98</ele>
        <time>2023-10-17T02:43:33.304Z</time>
      </trkpt>
      <trkpt lat="45.69383307360113" lon="17.672264501452446">
        <ele>151.99</ele>
        <time>2023-10-17T02:43:39.286Z</time>
      </trkpt>
      <trkpt lat="45.69383282214403" lon="17.672263495624065">
        <ele>152.01</ele>
        <time>2023-10-17T02:43:45.268Z</time>
      </trkpt>
      <trkpt lat="45.69383290596306" lon="17.672263076528907">
        <ele>152.02</ele>
        <time>2023-10-17T02:43:51.250Z</time>
      </trkpt>
      <trkpt lat="45.69383290596306" lon="17.672262405976653">
        <ele>152.04</ele>
        <time>2023-10-17T02:43:57.232Z</time>
      </trkpt>
      <trkpt lat="45.693832989782095" lon="17.672261651605368">
        <ele>152.06</ele>
        <time>2023-10-17T02:44:03.214Z</time>
      </trkpt>
      <trkpt lat="45.69383307360113" lon="17.67226081341505">
        <ele>152.08</ele>
        <time>2023-10-17T02:44:09.196Z</time>
      </trkpt>
      <trkpt lat="45.69383315742016" lon="17.6722598914057">
        <ele>152.1</ele>
        <time>2023-10-17T02:44:15.178Z</time>
      </trkpt>
      <trkpt lat="45.693833492696285" lon="17.672259220853448">
        <ele>152.12</ele>
        <time>2023-10-17T02:44:21.160Z</time>
      </trkpt>
      <trkpt lat="45.69383374415338" lon="17.67225838266313">
        <ele>152.15</ele>
        <time>2023-10-17T02:44:27.142Z</time>
      </trkpt>
      <trkpt lat="45.693833995610476" lon="17.672257544472814">
        <ele>152.17</ele>
        <time>2023-10-17T02:44:33.124Z</time>
      </trkpt>
      <trkpt lat="45.6938343308866" lon="17.672256706282496">
        <ele>152.2</ele>
        <time>2023-10-17T02:44:39.106Z</time>
      </trkpt>
      <trkpt lat="45.6938345823437" lon="17.67225586809218">
        <ele>152.22</ele>
        <time>2023-10-17T02:44:45.088Z</time>
      </trkpt>
      <trkpt lat="45.69383466616273" lon="17.67225536517799">
        <ele>152.25</ele>
        <time>2023-10-17T02:44:51.070Z</time>
      </trkpt>
      <trkpt lat="45.6938345823437" lon="17.672255616635084">
        <ele>152.29</ele>
        <time>2023-10-17T02:44:57.052Z</time>
      </trkpt>
      <trkpt lat="45.69383424706757" lon="17.672256790101528">
        <ele>152.32</ele>
        <time>2023-10-17T02:45:03.034Z</time>
      </trkpt>
      <trkpt lat="45.69383374415338" lon="17.672258717939258">
        <ele>152.35</ele>
        <time>2023-10-17T02:45:09.016Z</time>
      </trkpt>
      <trkpt lat="45.693832989782095" lon="17.6722617354244">
        <ele>152.39</ele>
        <time>2023-10-17T02:45:14.998Z</time>
      </trkpt>
      <trkpt lat="45.693831983953714" lon="17.67226575873792">
        <ele>152.43</ele>
        <time>2023-10-17T02:45:20.980Z</time>
      </trkpt>
      <trkpt lat="45.693830559030175" lon="17.672270787879825">
        <ele>152.47</ele>
        <time>2023-10-17T02:45:26.962Z</time>
      </trkpt>
      <trkpt lat="45.69382879883051" lon="17.672276655212045">
        <ele>152.51</ele>
        <time>2023-10-17T02:45:32.944Z</time>
      </trkpt>
      <trkpt lat="45.69382653571665" lon="17.672283360734582">
        <ele>152.56</ele>
        <time>2023-10-17T02:45:38.927Z</time>
      </trkpt>
      <trkpt lat="45.69382385350764" lon="17.672290820628405">
        <ele>152.6</ele>
        <time>2023-10-17T02:45:44.910Z</time>
      </trkpt>
      <trkpt lat="45.693820836022496" lon="17.67229895107448">
        <ele>152.65</ele>
        <time>2023-10-17T02:45:50.893Z</time>
      </trkpt>
      <trkpt lat="45.69381748326123" lon="17.672307332977653">
        <ele>152.7</ele>
        <time>2023-10-17T02:45:56.876Z</time>
      </trkpt>
      <trkpt lat="45.693813962861896" lon="17.672315631061792">
        <ele>152.75</ele>
        <time>2023-10-17T02:46:02.859Z</time>
      </trkpt>
      <trkpt lat="45.6938102748245" lon="17.672323593869805">
        <ele>152.81</ele>
        <time>2023-10-17T02:46:08.843Z</time>
      </trkpt>
      <trkpt lat="45.69380633533001" lon="17.67233113758266">
        <ele>152.86</ele>
        <time>2023-10-17T02:46:14.827Z</time>
      </trkpt>
      <trkpt lat="45.69380239583552" lon="17.672338094562292">
        <ele>152.92</ele>
        <time>2023-10-17T02:46:20.811Z</time>
      </trkpt>
      <trkpt lat="45.69379845634103" lon="17.67234429717064">
        <ele>152.98</ele>
        <time>2023-10-17T02:46:26.795Z</time>
      </trkpt>
      <trkpt lat="45.69379460066557" lon="17.672349913045764">
        <ele>153.04</ele>
        <time>2023-10-17T02:46:32.780Z</time>
      </trkpt>
      <trkpt lat="45.693790912628174" lon="17.6723550260067">
        <ele>153.11</ele>
        <time>2023-10-17T02:46:38.765Z</time>
      </trkpt>
      <trkpt lat="45.69378747604787" lon="17.6723600551486">
        <ele>153.17</ele>
        <time>2023-10-17T02:46:44.750Z</time>
      </trkpt>
      <trkpt lat="45.6937843747437" lon="17.672365251928568">
        <ele>153.24</ele>
        <time>2023-10-17T02:46:50.735Z</time>
      </trkpt>
      <trkpt lat="45.69378152489662" lon="17.67237078398466">
        <ele>153.31</ele>
        <time>2023-10-17T02:46:56.720Z</time>
      </trkpt>
      <trkpt lat="45.69377901032567" lon="17.67237656749785">
        <ele>153.39</ele>
        <time>2023-10-17T02:47:02.705Z</time>
      </trkpt>
      <trkpt lat="45.693776831030846" lon="17.672382853925228">
        <ele>153.46</ele>
        <time>2023-10-17T02:47:08.691Z</time>
      </trkpt>
      <trkpt lat="45.693774903193116" lon="17.672389559447765">
        <ele>153.54</ele>
        <time>2023-10-17T02:47:14.677Z</time>
      </trkpt>
      <trkpt lat="45.69377314299345" lon="17.672396935522556">
        <ele>153.62</ele>
        <time>2023-10-17T02:47:20.663Z</time>
      </trkpt>
      <trkpt lat="45.69377155043185" lon="17.672404814511538">
        <ele>153.7</ele>
        <time>2023-10-17T02:47:26.649Z</time>
      </trkpt>
      <trkpt lat="45.69377004168928" lon="17.672413531690836">
        <ele>153.78</ele>
        <time>2023-10-17T02:47:32.635Z</time>
      </trkpt>
      <trkpt lat="45.693768449127674" lon="17.672422919422388">
        <ele>153.87</ele>
        <time>2023-10-17T02:47:38.621Z</time>
      </trkpt>
      <trkpt lat="45.69376685656607" lon="17.67243281006813">
        <ele>153.95</ele>
        <time>2023-10-17T02:47:44.608Z</time>
      </trkpt>
      <trkpt lat="45.69376518018544" lon="17.672442952170968">
        <ele>154.04</ele>
        <time>2023-10-17T02:47:50.595Z</time>
      </trkpt>
      <trkpt lat="45.69376333616674" lon="17.6724533457309">
        <ele>154.13</ele>
        <time>2023-10-17T02:47:56.582Z</time>
      </trkpt>
      <trkpt lat="45.69376124069095" lon="17.672463823109865">
        <ele>154.23</ele>
        <time>2023-10-17T02:48:02.569Z</time>
      </trkpt>
      <trkpt lat="45.69375906139612" lon="17.67247430048883">
        <ele>154.32</ele>
        <time>2023-10-17T02:48:08.557Z</time>
      </trkpt>
      <trkpt lat="45.69375654682517" lon="17.6724845264107">
        <ele>154.42</ele>
        <time>2023-10-17T02:48:14.545Z</time>
      </trkpt>
      <trkpt lat="45.693753864616156" lon="17.672494500875473">
        <ele>154.52</ele>
        <time>2023-10-17T02:48:20.533Z</time>
      </trkpt>
      <trkpt lat="45.69375109858811" lon="17.672503972426057">
        <ele>154.61</ele>
        <time>2023-10-17T02:48:26.521Z</time>
      </trkpt>
      <trkpt lat="45.69374833256006" lon="17.672513108700514">
        <ele>154.71</ele>
        <time>2023-10-17T02:48:32.510Z</time>
      </trkpt>
      <trkpt lat="45.69374565035105" lon="17.67252165824175">
        <ele>154.81</ele>
        <time>2023-10-17T02:48:38.499Z</time>
      </trkpt>
      <trkpt lat="45.69374296814203" lon="17.672529704868793">
        <ele>154.92</ele>
        <time>2023-10-17T02:48:44.488Z</time>
      </trkpt>
      <trkpt lat="45.693740202113986" lon="17.672537500038743">
        <ele>155.02</ele>
        <time>2023-10-17T02:48:50.477Z</time>
      </trkpt>
      <trkpt lat="45.69373710080981" lon="17.672544959932566">
        <ele>155.12</ele>
        <time>2023-10-17T02:48:56.467Z</time>
      </trkpt>
      <trkpt lat="45.693733831867576" lon="17.672552252188325">
        <ele>155.23</ele>
        <time>2023-10-17T02:49:02.457Z</time>
      </trkpt>
      <trkpt lat="45.693730311468244" lon="17.67255937680602">
        <ele>155.33</ele>
        <time>2023-10-17T02:49:08.447Z</time>
      </trkpt>
      <trkpt lat="45.693726539611816" lon="17.672566417604685">
        <ele>155.44</ele>
        <time>2023-10-17T02:49:14.437Z</time>
      </trkpt>
      <trkpt lat="45.693722516298294" lon="17.672573626041412">
        <ele>155.55</ele>
        <time>2023-10-17T02:49:20.427Z</time>
      </trkpt>
      <trkpt lat="45.69371807388961" lon="17.672581169754267">
        <ele>155.66</ele>
        <time>2023-10-17T02:49:26.418Z</time>
      </trkpt>
      <trkpt lat="45.69371304474771" lon="17.67258913256228">
        <ele>155.76</ele>
        <time>2023-10-17T02:49:32.409Z</time>
      </trkpt>
      <trkpt lat="45.69370751269162" lon="17.672597682103515">
        <ele>155.87</ele>
        <time>2023-10-17T02:49:38.400Z</time>
      </trkpt>
      <trkpt lat="45.69370131008327" lon="17.672606650739908">
        <ele>155.99</ele>
        <time>2023-10-17T02:49:44.391Z</time>
      </trkpt>
      <trkpt lat="45.693694772198796" lon="17.67261595465243">
        <ele>156.1</ele>
        <time>2023-10-17T02:49:50.383Z</time>
      </trkpt>
      <trkpt lat="45.69368773140013" lon="17.67262534238398">
        <ele>156.21</ele>
        <time>2023-10-17T02:49:56.375Z</time>
      </trkpt>
      <trkpt lat="45.69368069060147" lon="17.67263456247747">
        <ele>156.32</ele>
        <time>2023-10-17T02:50:02.367Z</time>
      </trkpt>
      <trkpt lat="45.693673649802804" lon="17.67264344729483">
        <ele>156.43</ele>
        <time>2023-10-17T02:50:08.360Z</time>
      </trkpt>
      <trkpt lat="45.69366669282317" lon="17.67265174537897">
        <ele>156.55</ele>
        <time>2023-10-17T02:50:14.353Z</time>
      </trkpt>
      <trkpt lat="45.69365965202451" lon="17.672659708186984">
        <ele>156.66</ele>
        <time>2023-10-17T02:50:20.346Z</time>
      </trkpt>
      <trkpt lat="45.693652695044875" lon="17.672667084261775">
        <ele>156.76</ele>
        <time>2023-10-17T02:50:26.340Z</time>
      </trkpt>
      <trkpt lat="45.693645905703306" lon="17.672673957422376">
        <ele>156.87</ele>
        <time>2023-10-17T02:50:32.334Z</time>
      </trkpt>
      <trkpt lat="45.69363920018077" lon="17.672680243849754">
        <ele>156.98</ele>
        <time>2023-10-17T02:50:38.328Z</time>
      </trkpt>
      <trkpt lat="45.69363282993436" lon="17.67268585972488">
        <ele>157.09</ele>
        <time>2023-10-17T02:50:44.322Z</time>
      </trkpt>
      <trkpt lat="45.693626794964075" lon="17.672690888866782">
        <ele>157.19</ele>
        <time>2023-10-17T02:50:50.317Z</time>
      </trkpt>
      <trkpt lat="45.69362109526992" lon="17.672695498913527">
        <ele>157.3</ele>
        <time>2023-10-17T02:50:56.312Z</time>
      </trkpt>
      <trkpt lat="45.69361581467092" lon="17.672699773684144">
        <ele>157.4</ele>
        <time>2023-10-17T02:51:02.307Z</time>
      </trkpt>
      <trkpt lat="45.69361086934805" lon="17.672703796997666">
        <ele>157.5</ele>
        <time>2023-10-17T02:51:08.302Z</time>
      </trkpt>
      <trkpt lat="45.69360617548227" lon="17.672707652673125">
        <ele>157.6</ele>
        <time>2023-10-17T02:51:14.297Z</time>
      </trkpt>
      <trkpt lat="45.69360164925456" lon="17.672711508348584">
        <ele>157.7</ele>
        <time>2023-10-17T02:51:20.293Z</time>
      </trkpt>
      <trkpt lat="45.693597458302975" lon="17.672715112566948">
        <ele>157.8</ele>
        <time>2023-10-17T02:51:26.289Z</time>
      </trkpt>
      <trkpt lat="45.693593602627516" lon="17.672718465328217">
        <ele>157.9</ele>
        <time>2023-10-17T02:51:32.285Z</time>
      </trkpt>
      <trkpt lat="45.693590082228184" lon="17.67272156663239">
        <ele>157.99</ele>
        <time>2023-10-17T02:51:38.281Z</time>
      </trkpt>
      <trkpt lat="45.69358689710498" lon="17.672724248841405">
        <ele>158.08</ele>
        <time>2023-10-17T02:51:44.277Z</time>
      </trkpt>
      <trkpt lat="45.69358396343887" lon="17.672726679593325">
        <ele>158.18</ele>
        <time>2023-10-17T02:51:50.273Z</time>
      </trkpt>
      <trkpt lat="45.69358119741082" lon="17.672728775069118">
        <ele>158.27</ele>
        <time>2023-10-17T02:51:56.269Z</time>
      </trkpt>
      <trkpt lat="45.6935787666589" lon="17.672730619087815">
        <ele>158.36</ele>
        <time>2023-10-17T02:52:02.265Z</time>
      </trkpt>
      <trkpt lat="45.693576419726014" lon="17.672732211649418">
        <ele>158.44</ele>
        <time>2023-10-17T02:52:08.262Z</time>
      </trkpt>
      <trkpt lat="45.69357424043119" lon="17.672733552753925">
        <ele>158.53</ele>
        <time>2023-10-17T02:52:14.259Z</time>
      </trkpt>
      <trkpt lat="45.69357231259346" lon="17.672734474763274">
        <ele>158.61</ele>
        <time>2023-10-17T02:52:20.256Z</time>
      </trkpt>
      <trkpt lat="45.693570636212826" lon="17.672735145315528">
        <ele>158.69</ele>
        <time>2023-10-17T02:52:26.253Z</time>
      </trkpt>
      <trkpt lat="45.693569127470255" lon="17.672735480591655">
        <ele>158.78</ele>
        <time>2023-10-17T02:52:32.250Z</time>
      </trkpt>
      <trkpt lat="45.69356778636575" lon="17.672735648229718">
        <ele>158.85</ele>
        <time>2023-10-17T02:52:38.247Z</time>
      </trkpt>
      <trkpt lat="45.6935666128993" lon="17.672735648229718">
        <ele>158.93</ele>
        <time>2023-10-17T02:52:44.244Z</time>
      </trkpt>
      <trkpt lat="45.69356552325189" lon="17.672735564410686">
        <ele>159.01</ele>
        <time>2023-10-17T02:52:50.241Z</time>
      </trkpt>
      <trkpt lat="45.69356460124254" lon="17.672735396772623">
        <ele>159.08</ele>
        <time>2023-10-17T02:52:56.238Z</time>
      </trkpt>
      <trkpt lat="45.69356359541416" lon="17.672735396772623">
        <ele>159.15</ele>
        <time>2023-10-17T02:53:02.235Z</time>
      </trkpt>
      <trkpt lat="45.693562338128686" lon="17.672735396772623">
        <ele>159.23</ele>
        <time>2023-10-17T02:53:08.232Z</time>
      </trkpt>
      <trkpt lat="45.69356066174805" lon="17.672735564410686">
        <ele>159.3</ele>
        <time>2023-10-17T02:53:14.229Z</time>
      </trkpt>
      <trkpt lat="45.69355873391032" lon="17.67273581586778">
        <ele>159.36</ele>
        <time>2023-10-17T02:53:20.226Z</time>
      </trkpt>
      <trkpt lat="45.6935563031584" lon="17.672736318781972">
        <ele>159.43</ele>
        <time>2023-10-17T02:53:26.223Z</time>
      </trkpt>
      <trkpt lat="45.693553537130356" lon="17.672737073153257">
        <ele>159.5</ele>
        <time>2023-10-17T02:53:32.220Z</time>
      </trkpt>
      <trkpt lat="45.69355026818812" lon="17.672738330438733">
        <ele>159.56</ele>
        <time>2023-10-17T02:53:38.217Z</time>
      </trkpt>
      <trkpt lat="45.69354658015072" lon="17.672740006819367">
        <ele>159.63</ele>
        <time>2023-10-17T02:53:44.215Z</time>
      </trkpt>
      <trkpt lat="45.6935425568372" lon="17.672742186114192">
        <ele>159.69</ele>
        <time>2023-10-17T02:53:50.213Z</time>
      </trkpt>
      <trkpt lat="45.69353811442852" lon="17.672744868323207">
        <ele>159.75</ele>
        <time>2023-10-17T02:53:56.211Z</time>
      </trkpt>
      <trkpt lat="45.69353316910565" lon="17.67274788580835">
        <ele>159.81</ele>
        <time>2023-10-17T02:54:02.209Z</time>
      </trkpt>
      <trkpt lat="45.693528056144714" lon="17.672751070931554">
        <ele>159.87</ele>
        <time>2023-10-17T02:54:08.207Z</time>
      </trkpt>
      <trkpt lat="45.69352285936475" lon="17.67275433987379">
        <ele>159.93</ele>
        <time>2023-10-17T02:54:14.205Z</time>
      </trkpt>
      <trkpt lat="45.69351774640381" lon="17.672757608816028">
        <ele>159.99</ele>
        <time>2023-10-17T02:54:20.204Z</time>
      </trkpt>
      <trkpt lat="45.69351263344288" lon="17.672760793939233">
        <ele>160.05</ele>
        <time>2023-10-17T02:54:26.203Z</time>
      </trkpt>
      <trkpt lat="45.69350777193904" lon="17.672763895243406">
        <ele>160.1</ele>
        <time>2023-10-17T02:54:32.202Z</time>
      </trkpt>
      <trkpt lat="45.693503161892295" lon="17.672766745090485">
        <ele>160.16</ele>
        <time>2023-10-17T02:54:38.201Z</time>
      </trkpt>
      <trkpt lat="45.69349888712168" lon="17.672769259661436">
        <ele>160.21</ele>
        <time>2023-10-17T02:54:44.200Z</time>
      </trkpt>
      <trkpt lat="45.69349494762719" lon="17.67277135513723">
        <ele>160.26</ele>
        <time>2023-10-17T02:54:50.199Z</time>
      </trkpt>
      <trkpt lat="45.693491427227855" lon="17.672773031517863">
        <ele>160.31</ele>
        <time>2023-10-17T02:54:56.199Z</time>
      </trkpt>
      <trkpt lat="45.69348832592368" lon="17.67277428880334">
        <ele>160.36</ele>
        <time>2023-10-17T02:55:02.199Z</time>
      </trkpt>
      <trkpt lat="45.693485643714666" lon="17.672775126993656">
        <ele>160.41</ele>
        <time>2023-10-17T02:55:08.199Z</time>
      </trkpt>
      <trkpt lat="45.69348346441984" lon="17.672775546088815">
        <ele>160.46</ele>
        <time>2023-10-17T02:55:14.199Z</time>
      </trkpt>
      <trkpt lat="45.69348178803921" lon="17.672775713726878">
        <ele>160.5</ele>
        <time>2023-10-17T02:55:20.199Z</time>
      </trkpt>
      <trkpt lat="45.69348053075373" lon="17.672775713726878">
        <ele>160.55</ele>
        <time>2023-10-17T02:55:26.199Z</time>
      </trkpt>
      <trkpt lat="45.693479692563415" lon="17.672775629907846">
        <ele>160.59</ele>
        <time>2023-10-17T02:55:32.199Z</time>
      </trkpt>
      <trkpt lat="45.693479273468256" lon="17.67277537845075">
        <ele>160.64</ele>
        <time>2023-10-17T02:55:38.199Z</time>
      </trkpt>
      <trkpt lat="45.69347893819213" lon="17.672775126993656">
        <ele>160.68</ele>
        <time>2023-10-17T02:55:44.199Z</time>
      </trkpt>
      <trkpt lat="45.69347893819213" lon="17.67277479171753">
        <ele>160.73</ele>
        <time>2023-10-17T02:55:50.199Z</time>
      </trkpt>
      <trkpt lat="45.69347902201116" lon="17.672774456441402">
        <ele>160.77</ele>
        <time>2023-10-17T02:55:56.199Z</time>
      </trkpt>
      <trkpt lat="45.693479273468256" lon="17.672774121165276">
        <ele>160.81</ele>
        <time>2023-10-17T02:56:02.199Z</time>
      </trkpt>
      <trkpt lat="45.69347960874438" lon="17.67277378588915">
        <ele>160.86</ele>
        <time>2023-10-17T02:56:08.199Z</time>
      </trkpt>
      <trkpt lat="45.69348581135273" lon="17.672772109508514">
        <ele>160.9</ele>
        <time>2023-10-17T02:56:14.199Z</time>
      </trkpt>
      <trkpt lat="45.693478183820844" lon="17.672773702070117">
        <ele>160.95</ele>
        <time>2023-10-17T02:56:20.199Z</time>
      </trkpt>
      <trkpt lat="45.693474831059575" lon="17.67277437262237">
        <ele>160.99</ele>
        <time>2023-10-17T02:56:26.200Z</time>
      </trkpt>
      <trkpt lat="45.69347424432635" lon="17.672774456441402">
        <ele>161.04</ele>
        <time>2023-10-17T02:56:32.201Z</time>
      </trkpt>
      <trkpt lat="45.69347416050732" lon="17.67277437262237">
        <ele>161.08</ele>
        <time>2023-10-17T02:56:38.202Z</time>
      </trkpt>
      <trkpt lat="45.693474328145385" lon="17.672774204984307">
        <ele>161.13</ele>
        <time>2023-10-17T02:56:44.203Z</time>
      </trkpt>
      <trkpt lat="45.69347449578345" lon="17.672773953527212">
        <ele>161.17</ele>
        <time>2023-10-17T02:56:50.204Z</time>
      </trkpt>
      <trkpt lat="45.69347407668829" lon="17.67277378588915">
        <ele>161.22</ele>
        <time>2023-10-17T02:56:56.205Z</time>
      </trkpt>
      <trkpt lat="45.69346837699413" lon="17.672773618251085">
        <ele>161.27</ele>
        <time>2023-10-17T02:57:02.206Z</time>
      </trkpt>
      <trkpt lat="45.69345253519714" lon="17.672772193327546">
        <ele>161.32</ele>
        <time>2023-10-17T02:57:08.207Z</time>
      </trkpt>
      <trkpt lat="45.69342244416475" lon="17.672793986275792">
        <ele>161.38</ele>
        <time>2023-10-17T02:57:14.209Z</time>
      </trkpt>
      <trkpt lat="45.69339704699814" lon="17.672814605757594">
        <ele>161.45</ele>
        <time>2023-10-17T02:57:20.212Z</time>
      </trkpt>
      <trkpt lat="45.69339344277978" lon="17.672825334593654">
        <ele>161.5</ele>
        <time>2023-10-17T02:57:26.216Z</time>
      </trkpt>
      <trkpt lat="45.69338304921985" lon="17.672841427847743">
        <ele>161.56</ele>
        <time>2023-10-17T02:57:32.220Z</time>
      </trkpt>
      <trkpt lat="45.69336762651801" lon="17.672859029844403">
        <ele>161.62</ele>
        <time>2023-10-17T02:57:38.225Z</time>
      </trkpt>
      <trkpt lat="45.693349773064256" lon="17.672876631841063">
        <ele>161.67</ele>
        <time>2023-10-17T02:57:44.231Z</time>
      </trkpt>
      <trkpt lat="45.6933335121721" lon="17.67289213836193">
        <ele>161.73</ele>
        <time>2023-10-17T02:57:50.237Z</time>
      </trkpt>
      <trkpt lat="45.69333150051534" lon="17.672894150018692">
        <ele>161.79</ele>
        <time>2023-10-17T02:57:56.243Z</time>
      </trkpt>
      <trkpt lat="45.69332932122052" lon="17.672896832227707">
        <ele>161.85</ele>
        <time>2023-10-17T02:58:02.249Z</time>
      </trkpt>
      <trkpt lat="45.69333175197244" lon="17.672900101169944">
        <ele>161.91</ele>
        <time>2023-10-17T02:58:08.256Z</time>
      </trkpt>
      <trkpt lat="45.693343821913004" lon="17.672905130311847">
        <ele>161.97</ele>
        <time>2023-10-17T02:58:14.263Z</time>
      </trkpt>
      <trkpt lat="45.69336963817477" lon="17.672887612134218">
        <ele>162.03</ele>
        <time>2023-10-17T02:58:20.271Z</time>
      </trkpt>
      <trkpt lat="45.693384390324354" lon="17.672873195260763">
        <ele>162.09</ele>
        <time>2023-10-17T02:58:26.280Z</time>
      </trkpt>
      <trkpt lat="45.69339050911367" lon="17.67286623828113">
        <ele>162.15</ele>
        <time>2023-10-17T02:58:32.289Z</time>
      </trkpt>
      <trkpt lat="45.69339847192168" lon="17.672855593264103">
        <ele>162.21</ele>
        <time>2023-10-17T02:58:38.298Z</time>
      </trkpt>
      <trkpt lat="45.69340819492936" lon="17.67284478060901">
        <ele>162.28</ele>
        <time>2023-10-17T02:58:44.308Z</time>
      </trkpt>
      <trkpt lat="45.693419091403484" lon="17.672834722325206">
        <ele>162.34</ele>
        <time>2023-10-17T02:58:50.318Z</time>
      </trkpt>
      <trkpt lat="45.69342755712569" lon="17.672827430069447">
        <ele>162.42</ele>
        <time>2023-10-17T02:58:56.328Z</time>
      </trkpt>
      <trkpt lat="45.69342127069831" lon="17.672834219411016">
        <ele>162.5</ele>
        <time>2023-10-17T02:59:02.339Z</time>
      </trkpt>
      <trkpt lat="45.693415235728025" lon="17.67284075729549">
        <ele>162.58</ele>
        <time>2023-10-17T02:59:08.350Z</time>
      </trkpt>
      <trkpt lat="45.69340903311968" lon="17.672847378998995">
        <ele>162.67</ele>
        <time>2023-10-17T02:59:14.361Z</time>
      </trkpt>
      <trkpt lat="45.693402495235205" lon="17.672853833064437">
        <ele>162.75</ele>
        <time>2023-10-17T02:59:20.372Z</time>
      </trkpt>
      <trkpt lat="45.693395705893636" lon="17.672860203310847">
        <ele>162.85</ele>
        <time>2023-10-17T02:59:26.384Z</time>
      </trkpt>
      <trkpt lat="45.69338866509497" lon="17.672866405919194">
        <ele>162.94</ele>
        <time>2023-10-17T02:59:32.396Z</time>
      </trkpt>
      <trkpt lat="45.69338128902018" lon="17.672872440889478">
        <ele>163.04</ele>
        <time>2023-10-17T02:59:38.408Z</time>
      </trkpt>
      <trkpt lat="45.693373661488295" lon="17.67287839204073">
        <ele>163.14</ele>
        <time>2023-10-17T02:59:44.421Z</time>
      </trkpt>
      <trkpt lat="45.69336578249931" lon="17.672884594649076">
        <ele>163.24</ele>
        <time>2023-10-17T02:59:50.434Z</time>
      </trkpt>
      <trkpt lat="45.69335773587227" lon="17.67289113253355">
        <ele>163.34</ele>
        <time>2023-10-17T02:59:56.447Z</time>
      </trkpt>
      <trkpt lat="45.69334952160716" lon="17.672898173332214">
        <ele>163.45</ele>
        <time>2023-10-17T03:00:02.460Z</time>
      </trkpt>
      <trkpt lat="45.69334113970399" lon="17.672905884683132">
        <ele>163.56</ele>
        <time>2023-10-17T03:00:08.474Z</time>
      </trkpt>
      <trkpt lat="45.69333275780082" lon="17.672914434224367">
        <ele>163.68</ele>
        <time>2023-10-17T03:00:14.488Z</time>
      </trkpt>
      <trkpt lat="45.69332445971668" lon="17.672923738136888">
        <ele>163.8</ele>
        <time>2023-10-17T03:00:20.502Z</time>
      </trkpt>
      <trkpt lat="45.6933163292706" lon="17.672933880239725">
        <ele>163.92</ele>
        <time>2023-10-17T03:00:26.517Z</time>
      </trkpt>
      <trkpt lat="45.69330845028162" lon="17.67294494435191">
        <ele>164.05</ele>
        <time>2023-10-17T03:00:32.532Z</time>
      </trkpt>
      <trkpt lat="45.6933009903878" lon="17.672956846654415">
        <ele>164.18</ele>
        <time>2023-10-17T03:00:38.548Z</time>
      </trkpt>
      <trkpt lat="45.6932938657701" lon="17.672969503328204">
        <ele>164.31</ele>
        <time>2023-10-17T03:00:44.564Z</time>
      </trkpt>
      <trkpt lat="45.693287244066596" lon="17.672982662916183">
        <ele>164.45</ele>
        <time>2023-10-17T03:00:50.580Z</time>
      </trkpt>
      <trkpt lat="45.69328104145825" lon="17.672996325418353">
        <ele>164.59</ele>
        <time>2023-10-17T03:00:56.597Z</time>
      </trkpt>
      <trkpt lat="45.69327525794506" lon="17.673010239377618">
        <ele>164.74</ele>
        <time>2023-10-17T03:01:02.614Z</time>
      </trkpt>
      <trkpt lat="45.69326989352703" lon="17.673024237155914">
        <ele>164.9</ele>
        <time>2023-10-17T03:01:08.631Z</time>
      </trkpt>
      <trkpt lat="45.69326494820416" lon="17.67303823493421">
        <ele>165.05</ele>
        <time>2023-10-17T03:01:14.649Z</time>
      </trkpt>
      <trkpt lat="45.69326042197645" lon="17.673052065074444">
        <ele>165.21</ele>
        <time>2023-10-17T03:01:20.667Z</time>
      </trkpt>
      <trkpt lat="45.69325623102486" lon="17.673065811395645">
        <ele>165.37</ele>
        <time>2023-10-17T03:01:26.686Z</time>
      </trkpt>
      <trkpt lat="45.693252459168434" lon="17.673079641535878">
        <ele>165.54</ele>
        <time>2023-10-17T03:01:32.705Z</time>
      </trkpt>
      <trkpt lat="45.693249022588134" lon="17.67309338785708">
        <ele>165.71</ele>
        <time>2023-10-17T03:01:38.724Z</time>
      </trkpt>
      <trkpt lat="45.6932457536459" lon="17.67310705035925">
        <ele>165.88</ele>
        <time>2023-10-17T03:01:44.744Z</time>
      </trkpt>
      <trkpt lat="45.69324265234172" lon="17.67312071286142">
        <ele>166.06</ele>
        <time>2023-10-17T03:01:50.764Z</time>
      </trkpt>
      <trkpt lat="45.69323971867561" lon="17.673134207725525">
        <ele>166.24</ele>
        <time>2023-10-17T03:01:56.784Z</time>
      </trkpt>
      <trkpt lat="45.69323661737144" lon="17.673147534951568">
        <ele>166.42</ele>
        <time>2023-10-17T03:02:02.805Z</time>
      </trkpt>
      <trkpt lat="45.693233432248235" lon="17.673160610720515">
        <ele>166.6</ele>
        <time>2023-10-17T03:02:08.826Z</time>
      </trkpt>
      <trkpt lat="45.693230079486966" lon="17.6731735188514">
        <ele>166.79</ele>
        <time>2023-10-17T03:02:14.847Z</time>
      </trkpt>
      <trkpt lat="45.69322639144957" lon="17.67318625934422">
        <ele>166.98</ele>
        <time>2023-10-17T03:02:20.869Z</time>
      </trkpt>
      <trkpt lat="45.69322245195508" lon="17.673198832198977">
        <ele>167.18</ele>
        <time>2023-10-17T03:02:26.891Z</time>
      </trkpt>
      <trkpt lat="45.693218261003494" lon="17.673211069777608">
        <ele>167.37</ele>
        <time>2023-10-17T03:02:32.913Z</time>
      </trkpt>
      <trkpt lat="45.69321373477578" lon="17.67322288826108">
        <ele>167.58</ele>
        <time>2023-10-17T03:02:38.935Z</time>
      </trkpt>
      <trkpt lat="45.693208957090974" lon="17.673234287649393">
        <ele>167.79</ele>
        <time>2023-10-17T03:02:44.958Z</time>
      </trkpt>
      <trkpt lat="45.6932040117681" lon="17.673245267942548">
        <ele>168.0</ele>
        <time>2023-10-17T03:02:50.981Z</time>
      </trkpt>
      <trkpt lat="45.6931989826262" lon="17.673255996778607">
        <ele>168.21</ele>
        <time>2023-10-17T03:02:57.004Z</time>
      </trkpt>
      <trkpt lat="45.693193869665265" lon="17.67326639033854">
        <ele>168.43</ele>
        <time>2023-10-17T03:03:03.028Z</time>
      </trkpt>
      <trkpt lat="45.69318884052336" lon="17.673276532441378">
        <ele>168.65</ele>
        <time>2023-10-17T03:03:09.052Z</time>
      </trkpt>
      <trkpt lat="45.69318397901952" lon="17.67328650690615">
        <ele>168.87</ele>
        <time>2023-10-17T03:03:15.076Z</time>
      </trkpt>
      <trkpt lat="45.69317936897278" lon="17.67329622991383">
        <ele>169.09</ele>
        <time>2023-10-17T03:03:21.101Z</time>
      </trkpt>
      <trkpt lat="45.6931749265641" lon="17.67330595292151">
        <ele>169.32</ele>
        <time>2023-10-17T03:03:27.126Z</time>
      </trkpt>
      <trkpt lat="45.69317056797445" lon="17.67331567592919">
        <ele>169.55</ele>
        <time>2023-10-17T03:03:33.151Z</time>
      </trkpt>
      <trkpt lat="45.69316637702286" lon="17.67332556657493">
        <ele>169.79</ele>
        <time>2023-10-17T03:03:39.176Z</time>
      </trkpt>
      <trkpt lat="45.693162102252245" lon="17.67333570867777">
        <ele>170.02</ele>
        <time>2023-10-17T03:03:45.202Z</time>
      </trkpt>
      <trkpt lat="45.693157743662596" lon="17.673346186056733">
        <ele>170.26</ele>
        <time>2023-10-17T03:03:51.228Z</time>
      </trkpt>
      <trkpt lat="45.69315321743488" lon="17.673356998711824">
        <ele>170.5</ele>
        <time>2023-10-17T03:03:57.254Z</time>
      </trkpt>
      <trkpt lat="45.69314852356911" lon="17.673368146643043">
        <ele>170.75</ele>
        <time>2023-10-17T03:04:03.280Z</time>
      </trkpt>
      <trkpt lat="45.693143578246236" lon="17.67337979748845">
        <ele>170.99</ele>
        <time>2023-10-17T03:04:09.307Z</time>
      </trkpt>
      <trkpt lat="45.69313829764724" lon="17.673391783609986">
        <ele>171.24</ele>
        <time>2023-10-17T03:04:15.334Z</time>
      </trkpt>
      <trkpt lat="45.69313268177211" lon="17.67340418882668">
        <ele>171.49</ele>
        <time>2023-10-17T03:04:21.361Z</time>
      </trkpt>
      <trkpt lat="45.69312673062086" lon="17.673417096957564">
        <ele>171.74</ele>
        <time>2023-10-17T03:04:27.389Z</time>
      </trkpt>
      <trkpt lat="45.69312044419348" lon="17.673430424183607">
        <ele>172.0</ele>
        <time>2023-10-17T03:04:33.417Z</time>
      </trkpt>
      <trkpt lat="45.69311407394707" lon="17.67344425432384">
        <ele>172.26</ele>
        <time>2023-10-17T03:04:39.446Z</time>
      </trkpt>
      <trkpt lat="45.6931075360626" lon="17.6734584197402">
        <ele>172.52</ele>
        <time>2023-10-17T03:04:45.475Z</time>
      </trkpt>
      <trkpt lat="45.69310074672103" lon="17.67347300425172">
        <ele>172.78</ele>
        <time>2023-10-17T03:04:51.504Z</time>
      </trkpt>
      <trkpt lat="45.69309404119849" lon="17.67348767258227">
        <ele>173.04</ele>
        <time>2023-10-17T03:04:57.534Z</time>
      </trkpt>
      <trkpt lat="45.69308708421886" lon="17.673502508550882">
        <ele>173.3</ele>
        <time>2023-10-17T03:05:03.564Z</time>
      </trkpt>
      <trkpt lat="45.693080043420196" lon="17.673517176881433">
        <ele>173.56</ele>
        <time>2023-10-17T03:05:09.595Z</time>
      </trkpt>
      <trkpt lat="45.6930729188025" lon="17.67353176139295">
        <ele>173.83</ele>
        <time>2023-10-17T03:05:15.626Z</time>
      </trkpt>
      <trkpt lat="45.693065794184804" lon="17.67354592680931">
        <ele>174.1</ele>
        <time>2023-10-17T03:05:21.657Z</time>
      </trkpt>
      <trkpt lat="45.69305883720517" lon="17.673559673130512">
        <ele>174.36</ele>
        <time>2023-10-17T03:05:27.689Z</time>
      </trkpt>
      <trkpt lat="45.69305196404457" lon="17.673573000356555">
        <ele>174.63</ele>
        <time>2023-10-17T03:05:33.721Z</time>
      </trkpt>
      <trkpt lat="45.693045174703" lon="17.67358590848744">
        <ele>174.9</ele>
        <time>2023-10-17T03:05:39.754Z</time>
      </trkpt>
      <trkpt lat="45.6930385529995" lon="17.6735982298851">
        <ele>175.17</ele>
        <time>2023-10-17T03:05:45.787Z</time>
      </trkpt>
      <trkpt lat="45.693032098934054" lon="17.673610216006637">
        <ele>175.44</ele>
        <time>2023-10-17T03:05:51.820Z</time>
      </trkpt>
      <trkpt lat="45.69302589632571" lon="17.673621531575918">
        <ele>175.71</ele>
        <time>2023-10-17T03:05:57.854Z</time>
      </trkpt>
      <trkpt lat="45.693019945174456" lon="17.673632595688105">
        <ele>175.98</ele>
        <time>2023-10-17T03:06:03.888Z</time>
      </trkpt>
      <trkpt lat="45.69301432929933" lon="17.673643492162228">
        <ele>176.26</ele>
        <time>2023-10-17T03:06:09.922Z</time>
      </trkpt>
      <trkpt lat="45.69300904870033" lon="17.67365438863635">
        <ele>176.53</ele>
        <time>2023-10-17T03:06:15.957Z</time>
      </trkpt>
      <trkpt lat="45.69300401955843" lon="17.673665452748537">
        <ele>176.8</ele>
        <time>2023-10-17T03:06:21.992Z</time>
      </trkpt>
      <trkpt lat="45.69299907423556" lon="17.67367685213685">
        <ele>177.07</ele>
        <time>2023-10-17T03:06:28.027Z</time>
      </trkpt>
      <trkpt lat="45.69299421273172" lon="17.67368858680129">
        <ele>177.34</ele>
        <time>2023-10-17T03:06:34.063Z</time>
      </trkpt>
      <trkpt lat="45.69298935122788" lon="17.673700572922826">
        <ele>177.61</ele>
        <time>2023-10-17T03:06:40.099Z</time>
      </trkpt>
      <trkpt lat="45.6929846573621" lon="17.673712810501456">
        <ele>177.88</ele>
        <time>2023-10-17T03:06:46.135Z</time>
      </trkpt>
      <trkpt lat="45.69298004731536" lon="17.67372521571815">
        <ele>178.15</ele>
        <time>2023-10-17T03:06:52.172Z</time>
      </trkpt>
      <trkpt lat="45.69297560490668" lon="17.673737620934844">
        <ele>178.42</ele>
        <time>2023-10-17T03:06:58.209Z</time>
      </trkpt>
      <trkpt lat="45.69297141395509" lon="17.67375010997057">
        <ele>178.69</ele>
        <time>2023-10-17T03:07:04.246Z</time>
      </trkpt>
      <trkpt lat="45.69296722300351" lon="17.673762599006295">
        <ele>178.96</ele>
        <time>2023-10-17T03:07:10.284Z</time>
      </trkpt>
      <trkpt lat="45.69296311587095" lon="17.67377500422299">
        <ele>179.23</ele>
        <time>2023-10-17T03:07:16.322Z</time>
      </trkpt>
      <trkpt lat="45.6929590087384" lon="17.673787409439683">
        <ele>179.49</ele>
        <time>2023-10-17T03:07:22.360Z</time>
      </trkpt>
      <trkpt lat="45.69295481778681" lon="17.673799730837345">
        <ele>179.76</ele>
        <time>2023-10-17T03:07:28.398Z</time>
      </trkpt>
      <trkpt lat="45.69295071065426" lon="17.673811968415976">
        <ele>180.03</ele>
        <time>2023-10-17T03:07:34.437Z</time>
      </trkpt>
      <trkpt lat="45.692946687340736" lon="17.67382395453751">
        <ele>180.3</ele>
        <time>2023-10-17T03:07:40.476Z</time>
      </trkpt>
      <trkpt lat="45.69294258020818" lon="17.673835856840014">
        <ele>180.56</ele>
        <time>2023-10-17T03:07:46.515Z</time>
      </trkpt>
      <trkpt lat="45.6929383892566" lon="17.673847675323486">
        <ele>180.83</ele>
        <time>2023-10-17T03:07:52.555Z</time>
      </trkpt>
      <trkpt lat="45.692933946847916" lon="17.673859493806958">
        <ele>181.09</ele>
        <time>2023-10-17T03:07:58.595Z</time>
      </trkpt>
      <trkpt lat="45.69292925298214" lon="17.67387131229043">
        <ele>181.35</ele>
        <time>2023-10-17T03:08:04.635Z</time>
      </trkpt>
      <trkpt lat="45.692924140021205" lon="17.673883298411965">
        <ele>181.62</ele>
        <time>2023-10-17T03:08:10.676Z</time>
      </trkpt>
      <trkpt lat="45.69291860796511" lon="17.673895368352532">
        <ele>181.88</ele>
        <time>2023-10-17T03:08:16.717Z</time>
      </trkpt>
      <trkpt lat="45.69291274063289" lon="17.67390752211213">
        <ele>182.14</ele>
        <time>2023-10-17T03:08:22.758Z</time>
      </trkpt>
      <trkpt lat="45.692906538024545" lon="17.67391967587173">
        <ele>182.4</ele>
        <time>2023-10-17T03:08:28.800Z</time>
      </trkpt>
      <trkpt lat="45.69290000014007" lon="17.67393191345036">
        <ele>182.66</ele>
        <time>2023-10-17T03:08:34.842Z</time>
      </trkpt>
      <trkpt lat="45.69289304316044" lon="17.673944402486086">
        <ele>182.91</ele>
        <time>2023-10-17T03:08:40.884Z</time>
      </trkpt>
      <trkpt lat="45.69288575090468" lon="17.673957142978907">
        <ele>183.17</ele>
        <time>2023-10-17T03:08:46.927Z</time>
      </trkpt>
      <trkpt lat="45.69287812337279" lon="17.673970218747854">
        <ele>183.42</ele>
        <time>2023-10-17T03:08:52.970Z</time>
      </trkpt>
      <trkpt lat="45.69287024438381" lon="17.67398371361196">
        <ele>183.68</ele>
        <time>2023-10-17T03:08:59.014Z</time>
      </trkpt>
      <trkpt lat="45.69286219775677" lon="17.673997711390257">
        <ele>183.93</ele>
        <time>2023-10-17T03:09:05.058Z</time>
      </trkpt>
      <trkpt lat="45.69285398349166" lon="17.67401204444468">
        <ele>184.18</ele>
        <time>2023-10-17T03:09:11.103Z</time>
      </trkpt>
      <trkpt lat="45.69284568540752" lon="17.674026880413294">
        <ele>184.43</ele>
        <time>2023-10-17T03:09:17.148Z</time>
      </trkpt>
      <trkpt lat="45.69283747114241" lon="17.674042051658034">
        <ele>184.68</ele>
        <time>2023-10-17T03:09:23.193Z</time>
      </trkpt>
      <trkpt lat="45.69282942451537" lon="17.6740575581789">
        <ele>184.93</ele>
        <time>2023-10-17T03:09:29.239Z</time>
      </trkpt>
      <trkpt lat="45.69282171316445" lon="17.674073399975896">
        <ele>185.17</ele>
        <time>2023-10-17T03:09:35.285Z</time>
      </trkpt>
      <trkpt lat="45.69281442090869" lon="17.674089409410954">
        <ele>185.42</ele>
        <time>2023-10-17T03:09:41.332Z</time>
      </trkpt>
      <trkpt lat="45.69280771538615" lon="17.674105502665043">
        <ele>185.66</ele>
        <time>2023-10-17T03:09:47.379Z</time>
      </trkpt>
      <trkpt lat="45.69280159659684" lon="17.67412142828107">
        <ele>185.9</ele>
        <time>2023-10-17T03:09:53.427Z</time>
      </trkpt>
      <trkpt lat="45.69279581308365" lon="17.674137353897095">
        <ele>186.14</ele>
        <time>2023-10-17T03:09:59.475Z</time>
      </trkpt>
      <trkpt lat="45.69279061630368" lon="17.674153111875057">
        <ele>186.38</ele>
        <time>2023-10-17T03:10:05.523Z</time>
      </trkpt>
      <trkpt lat="45.692785838618875" lon="17.674168618395925">
        <ele>186.62</ele>
        <time>2023-10-17T03:10:11.572Z</time>
      </trkpt>
      <trkpt lat="45.69278173148632" lon="17.67418404109776">
        <ele>186.86</ele>
        <time>2023-10-17T03:10:17.621Z</time>
      </trkpt>
      <trkpt lat="45.69277812726796" lon="17.67419912852347">
        <ele>187.1</ele>
        <time>2023-10-17T03:10:23.671Z</time>
      </trkpt>
      <trkpt lat="45.692775109782815" lon="17.67421388067305">
        <ele>187.35</ele>
        <time>2023-10-17T03:10:29.721Z</time>
      </trkpt>
      <trkpt lat="45.692772679030895" lon="17.674228297546506">
        <ele>187.58</ele>
        <time>2023-10-17T03:10:35.771Z</time>
      </trkpt>
      <trkpt lat="45.6927708350122" lon="17.674242379143834">
        <ele>187.82</ele>
        <time>2023-10-17T03:10:41.822Z</time>
      </trkpt>
      <trkpt lat="45.69276941008866" lon="17.674256125465035">
        <ele>188.06</ele>
        <time>2023-10-17T03:10:47.873Z</time>
      </trkpt>
      <trkpt lat="45.69276865571737" lon="17.67426962032914">
        <ele>188.3</ele>
        <time>2023-10-17T03:10:53.924Z</time>
      </trkpt>
      <trkpt lat="45.69276848807931" lon="17.674282863736153">
        <ele>188.54</ele>
        <time>2023-10-17T03:10:59.976Z</time>
      </trkpt>
      <trkpt lat="45.69276907481253" lon="17.674295604228973">
        <ele>188.78</ele>
        <time>2023-10-17T03:11:06.028Z</time>
      </trkpt>
      <trkpt lat="45.69277049973607" lon="17.674307757988572">
        <ele>189.02</ele>
        <time>2023-10-17T03:11:12.080Z</time>
      </trkpt>
      <trkpt lat="45.692772679030895" lon="17.67431940883398">
        <ele>189.26</ele>
        <time>2023-10-17T03:11:18.132Z</time>
      </trkpt>
      <trkpt lat="45.692775528877974" lon="17.674330472946167">
        <ele>189.5</ele>
        <time>2023-10-17T03:11:24.185Z</time>
      </trkpt>
      <trkpt lat="45.69277879782021" lon="17.674341117963195">
        <ele>189.74</ele>
        <time>2023-10-17T03:11:30.238Z</time>
      </trkpt>
      <trkpt lat="45.69278223440051" lon="17.674351343885064">
        <ele>189.98</ele>
        <time>2023-10-17T03:11:36.291Z</time>
      </trkpt>
      <trkpt lat="45.69278558716178" lon="17.6743614859879">
        <ele>190.22</ele>
        <time>2023-10-17T03:11:42.345Z</time>
      </trkpt>
      <trkpt lat="45.692788772284985" lon="17.674371376633644">
        <ele>190.46</ele>
        <time>2023-10-17T03:11:48.399Z</time>
      </trkpt>
      <trkpt lat="45.692791789770126" lon="17.674381267279387">
        <ele>190.71</ele>
        <time>2023-10-17T03:11:54.453Z</time>
      </trkpt>
      <trkpt lat="45.692794639617205" lon="17.67439124174416">
        <ele>190.95</ele>
        <time>2023-10-17T03:12:00.507Z</time>
      </trkpt>
      <trkpt lat="45.69279740564525" lon="17.67440155148506">
        <ele>191.2</ele>
        <time>2023-10-17T03:12:06.562Z</time>
      </trkpt>
      <trkpt lat="45.692800004035234" lon="17.674412447959185">
        <ele>191.44</ele>
        <time>2023-10-17T03:12:12.617Z</time>
      </trkpt>
      <trkpt lat="45.69280235096812" lon="17.67442401498556">
        <ele>191.69</ele>
        <time>2023-10-17T03:12:18.672Z</time>
      </trkpt>
      <trkpt lat="45.69280427880585" lon="17.674436252564192">
        <ele>191.94</ele>
        <time>2023-10-17T03:12:24.727Z</time>
      </trkpt>
      <trkpt lat="45.69280578754842" lon="17.674449495971203">
        <ele>192.2</ele>
        <time>2023-10-17T03:12:30.783Z</time>
      </trkpt>
      <trkpt lat="45.692806877195835" lon="17.67446357756853">
        <ele>192.45</ele>
        <time>2023-10-17T03:12:36.839Z</time>
      </trkpt>
      <trkpt lat="45.692806877195835" lon="17.67447874881327">
        <ele>192.71</ele>
        <time>2023-10-17T03:12:42.895Z</time>
      </trkpt>
      <trkpt lat="45.69280662573874" lon="17.67449475824833">
        <ele>192.97</ele>
        <time>2023-10-17T03:12:48.952Z</time>
      </trkpt>
      <trkpt lat="45.69280620664358" lon="17.674511605873704">
        <ele>193.23</ele>
        <time>2023-10-17T03:12:55.009Z</time>
      </trkpt>
      <trkpt lat="45.6928052008152" lon="17.674529207870364">
        <ele>193.49</ele>
        <time>2023-10-17T03:13:01.067Z</time>
      </trkpt>
      <trkpt lat="45.692803440615535" lon="17.674547480419278">
        <ele>193.76</ele>
        <time>2023-10-17T03:13:07.125Z</time>
      </trkpt>
      <trkpt lat="45.69280352443457" lon="17.67456566914916">
        <ele>194.02</ele>
        <time>2023-10-17T03:13:13.183Z</time>
      </trkpt>
      <trkpt lat="45.692800087854266" lon="17.67458511516452">
        <ele>194.29</ele>
        <time>2023-10-17T03:13:19.242Z</time>
      </trkpt>
      <trkpt lat="45.692795645445585" lon="17.674605064094067">
        <ele>194.56</ele>
        <time>2023-10-17T03:13:25.301Z</time>
      </trkpt>
      <trkpt lat="45.692790197208524" lon="17.67462526448071">
        <ele>194.84</ele>
        <time>2023-10-17T03:13:31.361Z</time>
      </trkpt>
      <trkpt lat="45.69278374314308" lon="17.674645548686385">
        <ele>195.11</ele>
        <time>2023-10-17T03:13:37.421Z</time>
      </trkpt>
      <trkpt lat="45.69277628324926" lon="17.67466583289206">
        <ele>195.38</ele>
        <time>2023-10-17T03:13:43.482Z</time>
      </trkpt>
      <trkpt lat="45.692768236622214" lon="17.67468578182161">
        <ele>195.66</ele>
        <time>2023-10-17T03:13:49.543Z</time>
      </trkpt>
      <trkpt lat="45.69275968708098" lon="17.67470539547503">
        <ele>195.94</ele>
        <time>2023-10-17T03:13:55.605Z</time>
      </trkpt>
      <trkpt lat="45.692750718444586" lon="17.674724338576198">
        <ele>196.22</ele>
        <time>2023-10-17T03:14:01.668Z</time>
      </trkpt>
      <trkpt lat="45.692741246894" lon="17.674742862582207">
        <ele>196.5</ele>
        <time>2023-10-17T03:14:07.731Z</time>
      </trkpt>
      <trkpt lat="45.692731104791164" lon="17.674758955836296">
        <ele>196.78</ele>
        <time>2023-10-17T03:14:13.795Z</time>
      </trkpt>
      <trkpt lat="45.69272196851671" lon="17.674775635823607">
        <ele>197.06</ele>
        <time>2023-10-17T03:14:19.859Z</time>
      </trkpt>
      <trkpt lat="45.69271283224225" lon="17.67479139380157">
        <ele>197.34</ele>
        <time>2023-10-17T03:14:25.924Z</time>
      </trkpt>
      <trkpt lat="45.69270369596779" lon="17.674806313589215">
        <ele>197.62</ele>
        <time>2023-10-17T03:14:31.989Z</time>
      </trkpt>
      <trkpt lat="45.69269455969334" lon="17.67482014372945">
        <ele>197.9</ele>
        <time>2023-10-17T03:14:38.054Z</time>
      </trkpt>
      <trkpt lat="45.69268533959985" lon="17.67483347095549">
        <ele>198.18</ele>
        <time>2023-10-17T03:14:44.120Z</time>
      </trkpt>
      <trkpt lat="45.69267611950636" lon="17.67484612762928">
        <ele>198.46</ele>
        <time>2023-10-17T03:14:50.186Z</time>
      </trkpt>
      <trkpt lat="45.6926669832319" lon="17.674859119579196">
        <ele>198.74</ele>
        <time>2023-10-17T03:14:56.253Z</time>
      </trkpt>
      <trkpt lat="45.69265809841454" lon="17.674872279167175">
        <ele>199.02</ele>
        <time>2023-10-17T03:15:02.320Z</time>
      </trkpt>
      <trkpt lat="45.6926498003304" lon="17.67488619312644">
        <ele>199.31</ele>
        <time>2023-10-17T03:15:08.388Z</time>
      </trkpt>
      <trkpt lat="45.69264208897948" lon="17.67490027472377">
        <ele>199.59</ele>
        <time>2023-10-17T03:15:14.456Z</time>
      </trkpt>
      <trkpt lat="45.69263521581888" lon="17.674914440140128">
        <ele>199.87</ele>
        <time>2023-10-17T03:15:20.524Z</time>
      </trkpt>
      <trkpt lat="45.6926291808486" lon="17.674928437918425">
        <ele>200.16</ele>
        <time>2023-10-17T03:15:26.593Z</time>
      </trkpt>
      <trkpt lat="45.69262398406863" lon="17.674942016601562">
        <ele>200.44</ele>
        <time>2023-10-17T03:15:32.662Z</time>
      </trkpt>
      <trkpt lat="45.69261987693608" lon="17.674955427646637">
        <ele>200.72</ele>
        <time>2023-10-17T03:15:38.732Z</time>
      </trkpt>
      <trkpt lat="45.69261652417481" lon="17.674968922510743">
        <ele>201.0</ele>
        <time>2023-10-17T03:15:44.802Z</time>
      </trkpt>
      <trkpt lat="45.69261400960386" lon="17.674982082098722">
        <ele>201.28</ele>
        <time>2023-10-17T03:15:50.872Z</time>
      </trkpt>
      <trkpt lat="45.69261224940419" lon="17.67499465495348">
        <ele>201.56</ele>
        <time>2023-10-17T03:15:56.942Z</time>
      </trkpt>
      <trkpt lat="45.69261115975678" lon="17.67500647343695">
        <ele>201.84</ele>
        <time>2023-10-17T03:16:03.013Z</time>
      </trkpt>
      <trkpt lat="45.69261057302356" lon="17.67501762136817">
        <ele>202.12</ele>
        <time>2023-10-17T03:16:09.084Z</time>
      </trkpt>
      <trkpt lat="45.6926101539284" lon="17.67502784729004">
        <ele>202.4</ele>
        <time>2023-10-17T03:16:15.155Z</time>
      </trkpt>
      <trkpt lat="45.69260965101421" lon="17.67503765411675">
        <ele>202.67</ele>
        <time>2023-10-17T03:16:21.226Z</time>
      </trkpt>
      <trkpt lat="45.69260906428099" lon="17.675047293305397">
        <ele>202.94</ele>
        <time>2023-10-17T03:16:27.298Z</time>
      </trkpt>
      <trkpt lat="45.692608058452606" lon="17.67505718395114">
        <ele>203.22</ele>
        <time>2023-10-17T03:16:33.370Z</time>
      </trkpt>
      <trkpt lat="45.692606549710035" lon="17.675067577511072">
        <ele>203.49</ele>
        <time>2023-10-17T03:16:39.442Z</time>
      </trkpt>
      <trkpt lat="45.692604538053274" lon="17.675078557804227">
        <ele>203.76</ele>
        <time>2023-10-17T03:16:45.514Z</time>
      </trkpt>
      <trkpt lat="45.69260227493942" lon="17.67508995719254">
        <ele>204.03</ele>
        <time>2023-10-17T03:16:51.587Z</time>
      </trkpt>
      <trkpt lat="45.6925998441875" lon="17.67510169185698">
        <ele>204.3</ele>
        <time>2023-10-17T03:16:57.660Z</time>
      </trkpt>
      <trkpt lat="45.692597245797515" lon="17.67511392943561">
        <ele>204.56</ele>
        <time>2023-10-17T03:17:03.733Z</time>
      </trkpt>
      <trkpt lat="45.69259439595044" lon="17.675126502290368">
        <ele>204.83</ele>
        <time>2023-10-17T03:17:09.807Z</time>
      </trkpt>
      <trkpt lat="45.69259129464626" lon="17.67513932660222">
        <ele>205.09</ele>
        <time>2023-10-17T03:17:15.881Z</time>
      </trkpt>
      <trkpt lat="45.69258785806596" lon="17.675152318552136">
        <ele>205.35</ele>
        <time>2023-10-17T03:17:21.955Z</time>
      </trkpt>
      <trkpt lat="45.692584086209536" lon="17.675165561959147">
        <ele>205.61</ele>
        <time>2023-10-17T03:17:28.030Z</time>
      </trkpt>
      <trkpt lat="45.69257989525795" lon="17.67517888918519">
        <ele>205.87</ele>
        <time>2023-10-17T03:17:34.105Z</time>
      </trkpt>
      <trkpt lat="45.69257545284927" lon="17.675192300230265">
        <ele>206.13</ele>
        <time>2023-10-17T03:17:40.180Z</time>
      </trkpt>
      <trkpt lat="45.69257067516446" lon="17.675205627456307">
        <ele>206.38</ele>
        <time>2023-10-17T03:17:46.256Z</time>
      </trkpt>
      <trkpt lat="45.69256539456546" lon="17.67521895468235">
        <ele>206.63</ele>
        <time>2023-10-17T03:17:52.332Z</time>
      </trkpt>
      <trkpt lat="45.69255977869034" lon="17.67523211427033">
        <ele>206.88</ele>
        <time>2023-10-17T03:17:58.408Z</time>
      </trkpt>
      <trkpt lat="45.69255357608199" lon="17.675245022401214">
        <ele>207.13</ele>
        <time>2023-10-17T03:18:04.485Z</time>
      </trkpt>
      <trkpt lat="45.692546954378486" lon="17.675257679075003">
        <ele>207.37</ele>
        <time>2023-10-17T03:18:10.562Z</time>
      </trkpt>
      <trkpt lat="45.692540081217885" lon="17.67527025192976">
        <ele>207.62</ele>
        <time>2023-10-17T03:18:16.639Z</time>
      </trkpt>
      <trkpt lat="45.69253304041922" lon="17.675282824784517">
        <ele>207.85</ele>
        <time>2023-10-17T03:18:22.717Z</time>
      </trkpt>
      <trkpt lat="45.692525915801525" lon="17.675295481458306">
        <ele>208.09</ele>
        <time>2023-10-17T03:18:28.795Z</time>
      </trkpt>
      <trkpt lat="45.69251887500286" lon="17.67530830577016">
        <ele>208.32</ele>
        <time>2023-10-17T03:18:34.874Z</time>
      </trkpt>
      <trkpt lat="45.69251200184226" lon="17.675321381539106">
        <ele>208.55</ele>
        <time>2023-10-17T03:18:40.953Z</time>
      </trkpt>
      <trkpt lat="45.692505380138755" lon="17.675334960222244">
        <ele>208.78</ele>
        <time>2023-10-17T03:18:47.032Z</time>
      </trkpt>
      <trkpt lat="45.69249917753041" lon="17.67534895800054">
        <ele>209.0</ele>
        <time>2023-10-17T03:18:53.112Z</time>
      </trkpt>
      <trkpt lat="45.69249339401722" lon="17.675363207235932">
        <ele>209.22</ele>
        <time>2023-10-17T03:18:59.192Z</time>
      </trkpt>
      <trkpt lat="45.69248802959919" lon="17.67537779174745">
        <ele>209.44</ele>
        <time>2023-10-17T03:19:05.273Z</time>
      </trkpt>
      <trkpt lat="45.69248325191438" lon="17.675392711535096">
        <ele>209.65</ele>
        <time>2023-10-17T03:19:11.354Z</time>
      </trkpt>
      <trkpt lat="45.692478977143764" lon="17.675407798960805">
        <ele>209.86</ele>
        <time>2023-10-17T03:19:17.435Z</time>
      </trkpt>
      <trkpt lat="45.69247495383024" lon="17.675422970205545">
        <ele>210.07</ele>
        <time>2023-10-17T03:19:23.517Z</time>
      </trkpt>
      <trkpt lat="45.69247101433575" lon="17.675438141450286">
        <ele>210.27</ele>
        <time>2023-10-17T03:19:29.599Z</time>
      </trkpt>
      <trkpt lat="45.692467242479324" lon="17.675453396514058">
        <ele>210.46</ele>
        <time>2023-10-17T03:19:35.681Z</time>
      </trkpt>
      <trkpt lat="45.692463386803865" lon="17.6754685677588">
        <ele>210.66</ele>
        <time>2023-10-17T03:19:41.764Z</time>
      </trkpt>
      <trkpt lat="45.69245953112841" lon="17.67548382282257">
        <ele>210.85</ele>
        <time>2023-10-17T03:19:47.847Z</time>
      </trkpt>
      <trkpt lat="45.69245567545295" lon="17.675499077886343">
        <ele>211.03</ele>
        <time>2023-10-17T03:19:53.931Z</time>
      </trkpt>
      <trkpt lat="45.69245190359652" lon="17.67551458440721">
        <ele>211.21</ele>
        <time>2023-10-17T03:20:00.015Z</time>
      </trkpt>
      <trkpt lat="45.692448215559125" lon="17.675530007109046">
        <ele>211.39</ele>
        <time>2023-10-17T03:20:06.099Z</time>
      </trkpt>
      <trkpt lat="45.69244461134076" lon="17.675545513629913">
        <ele>211.56</ele>
        <time>2023-10-17T03:20:12.184Z</time>
      </trkpt>
      <trkpt lat="45.6924410071224" lon="17.675561271607876">
        <ele>211.73</ele>
        <time>2023-10-17T03:20:18.269Z</time>
      </trkpt>
      <trkpt lat="45.69243765436113" lon="17.67557711340487">
        <ele>211.89</ele>
        <time>2023-10-17T03:20:24.354Z</time>
      </trkpt>
      <trkpt lat="45.692434553056955" lon="17.67559329047799">
        <ele>212.05</ele>
        <time>2023-10-17T03:20:30.440Z</time>
      </trkpt>
      <trkpt lat="45.69243178702891" lon="17.675609467551112">
        <ele>212.21</ele>
        <time>2023-10-17T03:20:36.526Z</time>
      </trkpt>
      <trkpt lat="45.692429104819894" lon="17.675625728443265">
        <ele>212.35</ele>
        <time>2023-10-17T03:20:42.613Z</time>
      </trkpt>
      <trkpt lat="45.692426674067974" lon="17.675641905516386">
        <ele>212.5</ele>
        <time>2023-10-17T03:20:48.700Z</time>
      </trkpt>
      <trkpt lat="45.692424243316054" lon="17.675657831132412">
        <ele>212.63</ele>
        <time>2023-10-17T03:20:54.787Z</time>
      </trkpt>
      <trkpt lat="45.69242156110704" lon="17.675673170015216">
        <ele>212.76</ele>
        <time>2023-10-17T03:21:00.875Z</time>
      </trkpt>
      <trkpt lat="45.69241862744093" lon="17.675687838345766">
        <ele>212.89</ele>
        <time>2023-10-17T03:21:06.963Z</time>
      </trkpt>
      <trkpt lat="45.692415442317724" lon="17.67570175230503">
        <ele>213.02</ele>
        <time>2023-10-17T03:21:13.052Z</time>
      </trkpt>
      <trkpt lat="45.692412089556456" lon="17.675714744254947">
        <ele>213.13</ele>
        <time>2023-10-17T03:21:19.141Z</time>
      </trkpt>
      <trkpt lat="45.69240848533809" lon="17.67572656273842">
        <ele>213.25</ele>
        <time>2023-10-17T03:21:25.230Z</time>
      </trkpt>
      <trkpt lat="45.692404797300696" lon="17.675737207755446">
        <ele>213.36</ele>
        <time>2023-10-17T03:21:31.319Z</time>
      </trkpt>
      <trkpt lat="45.6924011092633" lon="17.675746595487">
        <ele>213.46</ele>
        <time>2023-10-17T03:21:37.409Z</time>
      </trkpt>
      <trkpt lat="45.692397337406874" lon="17.67575455829501">
        <ele>213.57</ele>
        <time>2023-10-17T03:21:43.499Z</time>
      </trkpt>
      <trkpt lat="45.69239381700754" lon="17.67576126381755">
        <ele>213.66</ele>
        <time>2023-10-17T03:21:49.589Z</time>
      </trkpt>
      <trkpt lat="45.692390548065305" lon="17.675766795873642">
        <ele>213.75</ele>
        <time>2023-10-17T03:21:55.679Z</time>
      </trkpt>
      <trkpt lat="45.69238778203726" lon="17.67577107064426">
        <ele>213.84</ele>
        <time>2023-10-17T03:22:01.769Z</time>
      </trkpt>
      <trkpt lat="45.69238543510437" lon="17.675774339586496">
        <ele>213.92</ele>
        <time>2023-10-17T03:22:07.859Z</time>
      </trkpt>
      <trkpt lat="45.69238350726664" lon="17.675776686519384">
        <ele>214.0</ele>
        <time>2023-10-17T03:22:13.950Z</time>
      </trkpt>
      <trkpt lat="45.69238199852407" lon="17.675778279080987">
        <ele>214.08</ele>
        <time>2023-10-17T03:22:20.041Z</time>
      </trkpt>
      <trkpt lat="45.692380741238594" lon="17.67577945254743">
        <ele>214.15</ele>
        <time>2023-10-17T03:22:26.132Z</time>
      </trkpt>
      <trkpt lat="45.692379819229245" lon="17.675780206918716">
        <ele>214.21</ele>
        <time>2023-10-17T03:22:32.223Z</time>
      </trkpt>
      <trkpt lat="45.69237906485796" lon="17.675780709832907">
        <ele>214.27</ele>
        <time>2023-10-17T03:22:38.314Z</time>
      </trkpt>
      <trkpt lat="45.692378394305706" lon="17.675781128928065">
        <ele>214.33</ele>
        <time>2023-10-17T03:22:44.405Z</time>
      </trkpt>
      <trkpt lat="45.692377891391516" lon="17.675781464204192">
        <ele>214.39</ele>
        <time>2023-10-17T03:22:50.496Z</time>
      </trkpt>
      <trkpt lat="45.692377388477325" lon="17.67578188329935">
        <ele>214.44</ele>
        <time>2023-10-17T03:22:56.587Z</time>
      </trkpt>
      <trkpt lat="45.6923768017441" lon="17.67578230239451">
        <ele>214.48</ele>
        <time>2023-10-17T03:23:02.678Z</time>
      </trkpt>
      <trkpt lat="45.69237629882991" lon="17.6757828053087">
        <ele>214.53</ele>
        <time>2023-10-17T03:23:08.769Z</time>
      </trkpt>
      <trkpt lat="45.69237571209669" lon="17.675783475860953">
        <ele>214.57</ele>
        <time>2023-10-17T03:23:14.860Z</time>
      </trkpt>
      <trkpt lat="45.69237512536347" lon="17.675784146413207">
        <ele>214.6</ele>
        <time>2023-10-17T03:23:20.951Z</time>
      </trkpt>
      <trkpt lat="45.692374454811215" lon="17.675784900784492">
        <ele>214.64</ele>
        <time>2023-10-17T03:23:27.042Z</time>
      </trkpt>
      <trkpt lat="45.6923736166209" lon="17.67578582279384">
        <ele>214.67</ele>
        <time>2023-10-17T03:23:33.133Z</time>
      </trkpt>
      <trkpt lat="45.69237277843058" lon="17.675786828622222">
        <ele>214.69</ele>
        <time>2023-10-17T03:23:39.224Z</time>
      </trkpt>
      <trkpt lat="45.69237168878317" lon="17.675787834450603">
        <ele>214.72</ele>
        <time>2023-10-17T03:23:45.315Z</time>
      </trkpt>
      <trkpt lat="45.692370515316725" lon="17.67578875645995">
        <ele>214.74</ele>
        <time>2023-10-17T03:23:51.406Z</time>
      </trkpt>
      <trkpt lat="45.69236934185028" lon="17.6757896784693">
        <ele>214.76</ele>
        <time>2023-10-17T03:23:57.497Z</time>
      </trkpt>
      <trkpt lat="45.69236800074577" lon="17.675790432840586">
        <ele>214.77</ele>
        <time>2023-10-17T03:24:03.588Z</time>
      </trkpt>
      <trkpt lat="45.692366659641266" lon="17.675791019573808">
        <ele>214.79</ele>
        <time>2023-10-17T03:24:09.679Z</time>
      </trkpt>
      <trkpt lat="45.69236523471773" lon="17.675791522487998">
        <ele>214.8</ele>
        <time>2023-10-17T03:24:15.770Z</time>
      </trkpt>
      <trkpt lat="45.69236389361322" lon="17.675791941583157">
        <ele>214.81</ele>
        <time>2023-10-17T03:24:21.861Z</time>
      </trkpt>
      <trkpt lat="45.69236263632774" lon="17.675792276859283">
        <ele>214.81</ele>
        <time>2023-10-17T03:24:27.952Z</time>
      </trkpt>
      <trkpt lat="45.69236137904227" lon="17.67579252831638">
        <ele>214.82</ele>
        <time>2023-10-17T03:24:34.043Z</time>
      </trkpt>
      <trkpt lat="45.69236012175679" lon="17.675792695954442">
        <ele>214.82</ele>
        <time>2023-10-17T03:24:40.134Z</time>
      </trkpt>
      <trkpt lat="45.69235903210938" lon="17.675792863592505">
        <ele>214.82</ele>
        <time>2023-10-17T03:24:46.225Z</time>
      </trkpt>
      <trkpt lat="45.69235811010003" lon="17.675792947411537">
        <ele>214.82</ele>
        <time>2023-10-17T03:24:52.317Z</time>
      </trkpt>
      <trkpt lat="45.69235718809068" lon="17.67579303123057">
        <ele>214.81</ele>
        <time>2023-10-17T03:24:58.409Z</time>
      </trkpt>
      <trkpt lat="45.6923564337194" lon="17.6757931150496">
        <ele>214.81</ele>
        <time>2023-10-17T03:25:04.501Z</time>
      </trkpt>
      <trkpt lat="45.69235576316714" lon="17.675793282687664">
        <ele>214.8</ele>
        <time>2023-10-17T03:25:10.593Z</time>
      </trkpt>
      <trkpt lat="45.69235509261489" lon="17.675793450325727">
        <ele>214.79</ele>
        <time>2023-10-17T03:25:16.685Z</time>
      </trkpt>
      <trkpt lat="45.69235450588167" lon="17.67579361796379">
        <ele>214.78</ele>
        <time>2023-10-17T03:25:22.777Z</time>
      </trkpt>
      <trkpt lat="45.69235375151038" lon="17.675793869420886">
        <ele>214.77</ele>
        <time>2023-10-17T03:25:28.869Z</time>
      </trkpt>
      <trkpt lat="45.692352997139096" lon="17.675794204697013">
        <ele>214.75</ele>
        <time>2023-10-17T03:25:34.961Z</time>
      </trkpt>
      <trkpt lat="45.69235215894878" lon="17.67579462379217">
        <ele>214.74</ele>
        <time>2023-10-17T03:25:41.053Z</time>
      </trkpt>
      <trkpt lat="45.6923511531204" lon="17.67579512670636">
        <ele>214.72</ele>
        <time>2023-10-17T03:25:47.145Z</time>
      </trkpt>
      <trkpt lat="45.692349979653955" lon="17.675795881077647">
        <ele>214.71</ele>
        <time>2023-10-17T03:25:53.237Z</time>
      </trkpt>
      <trkpt lat="45.69234863854945" lon="17.67579697072506">
        <ele>214.69</ele>
        <time>2023-10-17T03:25:59.329Z</time>
      </trkpt>
      <trkpt lat="45.692347045987844" lon="17.675798311829567">
        <ele>214.67</ele>
        <time>2023-10-17T03:26:05.421Z</time>
      </trkpt>
      <trkpt lat="45.692345118150115" lon="17.675800072029233">
        <ele>214.65</ele>
        <time>2023-10-17T03:26:11.513Z</time>
      </trkpt>
      <trkpt lat="45.69234302267432" lon="17.675802167505026">
        <ele>214.63</ele>
        <time>2023-10-17T03:26:17.605Z</time>
      </trkpt>
      <trkpt lat="45.692340675741434" lon="17.675804682075977">
        <ele>214.61</ele>
        <time>2023-10-17T03:26:23.697Z</time>
      </trkpt>
      <trkpt lat="45.69233816117048" lon="17.675807448104024">
        <ele>214.59</ele>
        <time>2023-10-17T03:26:29.789Z</time>
      </trkpt>
      <trkpt lat="45.69233547896147" lon="17.675810549408197">
        <ele>214.57</ele>
        <time>2023-10-17T03:26:35.881Z</time>
      </trkpt>
      <trkpt lat="45.69233271293342" lon="17.675813902169466">
        <ele>214.55</ele>
        <time>2023-10-17T03:26:41.974Z</time>
      </trkpt>
      <trkpt lat="45.69232986308634" lon="17.675817254930735">
        <ele>214.52</ele>
        <time>2023-10-17T03:26:48.067Z</time>
      </trkpt>
      <trkpt lat="45.692327097058296" lon="17.675820691511035">
        <ele>214.5</ele>
        <time>2023-10-17T03:26:54.160Z</time>
      </trkpt>
      <trkpt lat="45.69232433103025" lon="17.675824044272304">
        <ele>214.48</ele>
        <time>2023-10-17T03:27:00.253Z</time>
      </trkpt>
      <trkpt lat="45.6923218164593" lon="17.675827061757445">
        <ele>214.45</ele>
        <time>2023-10-17T03:27:06.346Z</time>
      </trkpt>
      <trkpt lat="45.69231938570738" lon="17.67582974396646">
        <ele>214.43</ele>
        <time>2023-10-17T03:27:12.439Z</time>
      </trkpt>
      <trkpt lat="45.692317206412554" lon="17.67583217471838">
        <ele>214.4</ele>
        <time>2023-10-17T03:27:18.532Z</time>
      </trkpt>
      <trkpt lat="45.692315278574824" lon="17.67583418637514">
        <ele>214.37</ele>
        <time>2023-10-17T03:27:24.625Z</time>
      </trkpt>
      <trkpt lat="45.69231360219419" lon="17.675835862755775">
        <ele>214.35</ele>
        <time>2023-10-17T03:27:30.718Z</time>
      </trkpt>
      <trkpt lat="45.69231217727065" lon="17.67583712004125">
        <ele>214.32</ele>
        <time>2023-10-17T03:27:36.811Z</time>
      </trkpt>
      <trkpt lat="45.69231100380421" lon="17.675838209688663">
        <ele>214.3</ele>
        <time>2023-10-17T03:27:42.904Z</time>
      </trkpt>
      <trkpt lat="45.692309997975826" lon="17.67583904787898">
        <ele>214.27</ele>
        <time>2023-10-17T03:27:48.997Z</time>
      </trkpt>
      <trkpt lat="45.69230924360454" lon="17.675839718431234">
        <ele>214.24</ele>
        <time>2023-10-17T03:27:55.091Z</time>
      </trkpt>
      <trkpt lat="45.69230874069035" lon="17.675840305164456">
        <ele>214.21</ele>
        <time>2023-10-17T03:28:01.185Z</time>
      </trkpt>
      <trkpt lat="45.69230832159519" lon="17.67584097571671">
        <ele>214.19</ele>
        <time>2023-10-17T03:28:07.279Z</time>
      </trkpt>
      <trkpt lat="45.6923080701381" lon="17.675841730087996">
        <ele>214.16</ele>
        <time>2023-10-17T03:28:13.373Z</time>
      </trkpt>
      <trkpt lat="45.69230790250003" lon="17.675842568278313">
        <ele>214.13</ele>
        <time>2023-10-17T03:28:19.467Z</time>
      </trkpt>
      <trkpt lat="45.69230790250003" lon="17.675843322649598">
        <ele>214.11</ele>
        <time>2023-10-17T03:28:25.561Z</time>
      </trkpt>
      <trkpt lat="45.69230790250003" lon="17.675844077020884">
        <ele>214.08</ele>
        <time>2023-10-17T03:28:31.655Z</time>
      </trkpt>
      <trkpt lat="45.692307986319065" lon="17.67584483139217">
        <ele>214.06</ele>
        <time>2023-10-17T03:28:37.749Z</time>
      </trkpt>
      <trkpt lat="45.69230823777616" lon="17.675845585763454">
        <ele>214.03</ele>
        <time>2023-10-17T03:28:43.843Z</time>
      </trkpt>
      <trkpt lat="45.69230857305229" lon="17.675846172496676">
        <ele>214.0</ele>
        <time>2023-10-17T03:28:49.937Z</time>
      </trkpt>
      <trkpt lat="45.692308908328414" lon="17.675846675410867">
        <ele>213.98</ele>
        <time>2023-10-17T03:28:56.031Z</time>
      </trkpt>
      <trkpt lat="45.692309411242604" lon="17.675846926867962">
        <ele>213.96</ele>
        <time>2023-10-17T03:29:02.125Z</time>
      </trkpt>
      <trkpt lat="45.692309914156795" lon="17.675847010686994">
        <ele>213.93</ele>
        <time>2023-10-17T03:29:08.219Z</time>
      </trkpt>
      <trkpt lat="45.692310417070985" lon="17.675846926867962">
        <ele>213.91</ele>
        <time>2023-10-17T03:29:14.313Z</time>
      </trkpt>
      <trkpt lat="45.69231100380421" lon="17.675846926867962">
        <ele>213.89</ele>
        <time>2023-10-17T03:29:20.407Z</time>
      </trkpt>
      <trkpt lat="45.69231159053743" lon="17.675847010686994">
        <ele>213.86</ele>
        <time>2023-10-17T03:29:26.501Z</time>
      </trkpt>
      <trkpt lat="45.692312344908714" lon="17.675847178325057">
        <ele>213.84</ele>
        <time>2023-10-17T03:29:32.595Z</time>
      </trkpt>
      <trkpt lat="45.69231309928" lon="17.67584776505828">
        <ele>213.82</ele>
        <time>2023-10-17T03:29:38.689Z</time>
      </trkpt>
      <trkpt lat="45.69231376983225" lon="17.67584877088666">
        <ele>213.81</ele>
        <time>2023-10-17T03:29:44.783Z</time>
      </trkpt>
      <trkpt lat="45.692314356565475" lon="17.675850111991167">
        <ele>213.79</ele>
        <time>2023-10-17T03:29:50.877Z</time>
      </trkpt>
      <trkpt lat="45.692314775660634" lon="17.675851536914706">
        <ele>213.77</ele>
        <time>2023-10-17T03:29:56.971Z</time>
      </trkpt>
      <trkpt lat="45.69231502711773" lon="17.675853045657277">
        <ele>213.76</ele>
        <time>2023-10-17T03:30:03.065Z</time>
      </trkpt>
      <trkpt lat="45.69231511093676" lon="17.67585472203791">
        <ele>213.74</ele>
        <time>2023-10-17T03:30:09.159Z</time>
      </trkpt>
      <trkpt lat="45.69231502711773" lon="17.675856398418546">
        <ele>213.73</ele>
        <time>2023-10-17T03:30:15.253Z</time>
      </trkpt>
      <trkpt lat="45.692314859479666" lon="17.675858242437243">
        <ele>213.72</ele>
        <time>2023-10-17T03:30:21.347Z</time>
      </trkpt>
      <trkpt lat="45.69231460802257" lon="17.67586000263691">
        <ele>213.71</ele>
        <time>2023-10-17T03:30:27.441Z</time>
      </trkpt>
      <trkpt lat="45.692314272746444" lon="17.675861679017544">
        <ele>213.7</ele>
        <time>2023-10-17T03:30:33.535Z</time>
      </trkpt>
      <trkpt lat="45.692313853651285" lon="17.675863271579146">
        <ele>213.69</ele>
        <time>2023-10-17T03:30:39.629Z</time>
      </trkpt>
      <trkpt lat="45.69231326691806" lon="17.675864528864622">
        <ele>213.68</ele>
        <time>2023-10-17T03:30:45.723Z</time>
      </trkpt>
      <trkpt lat="45.69231268018484" lon="17.67586545087397">
        <ele>213.68</ele>
        <time>2023-10-17T03:30:51.817Z</time>
      </trkpt>
      <trkpt lat="45.69231217727065" lon="17.67586586996913">
        <ele>213.68</ele>
        <time>2023-10-17T03:30:57.911Z</time>
      </trkpt>
      <trkpt lat="45.69231175817549" lon="17.675866121426225">
        <ele>213.68</ele>
        <time>2023-10-17T03:31:04.005Z</time>
      </trkpt>
      <trkpt lat="45.69231159053743" lon="17.675866205245256">
        <ele>213.68</ele>
        <time>2023-10-17T03:31:10.099Z</time>
      </trkpt>
      <trkpt lat="45.69231159053743" lon="17.675866121426225">
        <ele>213.68</ele>
        <time>2023-10-17T03:31:16.193Z</time>
      </trkpt>
      <trkpt lat="45.69231175817549" lon="17.67586595378816">
        <ele>213.68</ele>
        <time>2023-10-17T03:31:22.287Z</time>
      </trkpt>
      <trkpt lat="45.69231209345162" lon="17.675865534693003">
        <ele>213.69</ele>
        <time>2023-10-17T03:31:28.381Z</time>
      </trkpt>
      <trkpt lat="45.69231259636581" lon="17.675865031778812">
        <ele>213.7</ele>
        <time>2023-10-17T03:31:34.475Z</time>
      </trkpt>
      <trkpt lat="45.69231318309903" lon="17.67586436122656">
        <ele>213.71</ele>
        <time>2023-10-17T03:31:40.569Z</time>
      </trkpt>
      <trkpt lat="45.69231376983225" lon="17.67586352303624">
        <ele>213.72</ele>
        <time>2023-10-17T03:31:46.663Z</time>
      </trkpt>
      <trkpt lat="45.69231444038451" lon="17.67586251720786">
        <ele>213.73</ele>
        <time>2023-10-17T03:31:52.757Z</time>
      </trkpt>
      <trkpt lat="45.6923149432987" lon="17.67586142756045">
        <ele>213.75</ele>
        <time>2023-10-17T03:31:58.851Z</time>
      </trkpt>
      <trkpt lat="45.69231519475579" lon="17.675860254094005">
        <ele>213.76</ele>
        <time>2023-10-17T03:32:04.946Z</time>
      </trkpt>
      <trkpt lat="45.69231519475579" lon="17.67585908062756">
        <ele>213.78</ele>
        <time>2023-10-17T03:32:11.041Z</time>
      </trkpt>
      <trkpt lat="45.692314859479666" lon="17.675857739523053">
        <ele>213.81</ele>
        <time>2023-10-17T03:32:17.136Z</time>
      </trkpt>
      <trkpt lat="45.69231393747032" lon="17.675856398418546">
        <ele>213.83</ele>
        <time>2023-10-17T03:32:23.231Z</time>
      </trkpt>
      <trkpt lat="45.69231251254678" lon="17.67585505731404">
        <ele>213.86</ele>
        <time>2023-10-17T03:32:29.326Z</time>
      </trkpt>
      <trkpt lat="45.692310417070985" lon="17.675853883847594">
        <ele>213.89</ele>
        <time>2023-10-17T03:32:35.421Z</time>
      </trkpt>
      <trkpt lat="45.692307818681" lon="17.675852878019214">
        <ele>213.92</ele>
        <time>2023-10-17T03:32:41.516Z</time>
      </trkpt>
      <trkpt lat="45.69230480119586" lon="17.67585220746696">
        <ele>213.96</ele>
        <time>2023-10-17T03:32:47.611Z</time>
      </trkpt>
      <trkpt lat="45.69230136461556" lon="17.675852039828897">
        <ele>214.0</ele>
        <time>2023-10-17T03:32:53.706Z</time>
      </trkpt>
      <trkpt lat="45.692297676578164" lon="17.67585229128599">
        <ele>214.04</ele>
        <time>2023-10-17T03:32:59.801Z</time>
      </trkpt>
      <trkpt lat="45.69229365326464" lon="17.675853045657277">
        <ele>214.08</ele>
        <time>2023-10-17T03:33:05.896Z</time>
      </trkpt>
      <trkpt lat="45.692289378494024" lon="17.67585421912372">
        <ele>214.13</ele>
        <time>2023-10-17T03:33:11.991Z</time>
      </trkpt>
      <trkpt lat="45.69228476844728" lon="17.675855895504355">
        <ele>214.18</ele>
        <time>2023-10-17T03:33:18.087Z</time>
      </trkpt>
      <trkpt lat="45.692280074581504" lon="17.67585807479918">
        <ele>214.23</ele>
        <time>2023-10-17T03:33:24.183Z</time>
      </trkpt>
      <trkpt lat="45.69227538071573" lon="17.67586100846529">
        <ele>214.29</ele>
        <time>2023-10-17T03:33:30.279Z</time>
      </trkpt>
      <trkpt lat="45.69227068684995" lon="17.675864612683654">
        <ele>214.34</ele>
        <time>2023-10-17T03:33:36.375Z</time>
      </trkpt>
      <trkpt lat="45.69226616062224" lon="17.675868635997176">
        <ele>214.4</ele>
        <time>2023-10-17T03:33:42.471Z</time>
      </trkpt>
      <trkpt lat="45.69226188585162" lon="17.675872994586825">
        <ele>214.46</ele>
        <time>2023-10-17T03:33:48.567Z</time>
      </trkpt>
      <trkpt lat="45.692257611081004" lon="17.675877856090665">
        <ele>214.53</ele>
        <time>2023-10-17T03:33:54.664Z</time>
      </trkpt>
      <trkpt lat="45.692253252491355" lon="17.67588305287063">
        <ele>214.6</ele>
        <time>2023-10-17T03:34:00.761Z</time>
      </trkpt>
      <trkpt lat="45.692248893901706" lon="17.675888501107693">
        <ele>214.67</ele>
        <time>2023-10-17T03:34:06.858Z</time>
      </trkpt>
      <trkpt lat="45.692244451493025" lon="17.675894452258945">
        <ele>214.74</ele>
        <time>2023-10-17T03:34:12.955Z</time>
      </trkpt>
      <trkpt lat="45.69224017672241" lon="17.675900738686323">
        <ele>214.82</ele>
        <time>2023-10-17T03:34:19.052Z</time>
      </trkpt>
      <trkpt lat="45.69223606958985" lon="17.675907276570797">
        <ele>214.9</ele>
        <time>2023-10-17T03:34:25.150Z</time>
      </trkpt>
      <trkpt lat="45.69223204627633" lon="17.675913982093334">
        <ele>214.98</ele>
        <time>2023-10-17T03:34:31.248Z</time>
      </trkpt>
      <trkpt lat="45.69222802296281" lon="17.675920771434903">
        <ele>215.07</ele>
        <time>2023-10-17T03:34:37.346Z</time>
      </trkpt>
      <trkpt lat="45.692223999649286" lon="17.675927644595504">
        <ele>215.16</ele>
        <time>2023-10-17T03:34:43.444Z</time>
      </trkpt>
      <trkpt lat="45.6922198086977" lon="17.675934517756104">
        <ele>215.25</ele>
        <time>2023-10-17T03:34:49.543Z</time>
      </trkpt>
      <trkpt lat="45.69221528246999" lon="17.675941474735737">
        <ele>215.34</ele>
        <time>2023-10-17T03:34:55.642Z</time>
      </trkpt>
      <trkpt lat="45.69221050478518" lon="17.675948347896338">
        <ele>215.43</ele>
        <time>2023-10-17T03:35:01.741Z</time>
      </trkpt>
      <trkpt lat="45.69220547564328" lon="17.675955137237906">
        <ele>215.53</ele>
        <time>2023-10-17T03:35:07.840Z</time>
      </trkpt>
      <trkpt lat="45.69220019504428" lon="17.675962010398507">
        <ele>215.63</ele>
        <time>2023-10-17T03:35:13.939Z</time>
      </trkpt>
      <trkpt lat="45.69219474680722" lon="17.675968799740076">
        <ele>215.74</ele>
        <time>2023-10-17T03:35:20.039Z</time>
      </trkpt>
      <trkpt lat="45.69218904711306" lon="17.67597584053874">
        <ele>215.84</ele>
        <time>2023-10-17T03:35:26.139Z</time>
      </trkpt>
      <trkpt lat="45.69218317978084" lon="17.6759831327945">
        <ele>215.95</ele>
        <time>2023-10-17T03:35:32.239Z</time>
      </trkpt>
      <trkpt lat="45.692177060991526" lon="17.675990592688322">
        <ele>216.06</ele>
        <time>2023-10-17T03:35:38.339Z</time>
      </trkpt>
      <trkpt lat="45.69217085838318" lon="17.675998220220208">
        <ele>216.17</ele>
        <time>2023-10-17T03:35:44.440Z</time>
      </trkpt>
      <trkpt lat="45.6921645719558" lon="17.67600609920919">
        <ele>216.28</ele>
        <time>2023-10-17T03:35:50.541Z</time>
      </trkpt>
      <trkpt lat="45.69215811789036" lon="17.676014229655266">
        <ele>216.4</ele>
        <time>2023-10-17T03:35:56.642Z</time>
      </trkpt>
      <trkpt lat="45.69215183146298" lon="17.676022443920374">
        <ele>216.52</ele>
        <time>2023-10-17T03:36:02.744Z</time>
      </trkpt>
      <trkpt lat="45.69214546121657" lon="17.676030742004514">
        <ele>216.64</ele>
        <time>2023-10-17T03:36:08.846Z</time>
      </trkpt>
      <trkpt lat="45.69213917478919" lon="17.676039040088654">
        <ele>216.76</ele>
        <time>2023-10-17T03:36:14.948Z</time>
      </trkpt>
      <trkpt lat="45.69213280454278" lon="17.676047421991825">
        <ele>216.89</ele>
        <time>2023-10-17T03:36:21.050Z</time>
      </trkpt>
      <trkpt lat="45.69212643429637" lon="17.676055636256933">
        <ele>217.02</ele>
        <time>2023-10-17T03:36:27.153Z</time>
      </trkpt>
      <trkpt lat="45.692119896411896" lon="17.67606385052204">
        <ele>217.14</ele>
        <time>2023-10-17T03:36:33.256Z</time>
      </trkpt>
      <trkpt lat="45.69211327470839" lon="17.676071897149086">
        <ele>217.27</ele>
        <time>2023-10-17T03:36:39.359Z</time>
      </trkpt>
      <trkpt lat="45.69210640154779" lon="17.676080195233226">
        <ele>217.41</ele>
        <time>2023-10-17T03:36:45.463Z</time>
      </trkpt>
      <trkpt lat="45.692099360749125" lon="17.67608866095543">
        <ele>217.54</ele>
        <time>2023-10-17T03:36:51.567Z</time>
      </trkpt>
      <trkpt lat="45.69209223613143" lon="17.676097210496664">
        <ele>217.67</ele>
        <time>2023-10-17T03:36:57.671Z</time>
      </trkpt>
      <trkpt lat="45.6920850276947" lon="17.676105927675962">
        <ele>217.81</ele>
        <time>2023-10-17T03:37:03.776Z</time>
      </trkpt>
      <trkpt lat="45.69207773543894" lon="17.676114980131388">
        <ele>217.95</ele>
        <time>2023-10-17T03:37:09.881Z</time>
      </trkpt>
      <trkpt lat="45.69207027554512" lon="17.67612436786294">
        <ele>218.09</ele>
        <time>2023-10-17T03:37:15.986Z</time>
      </trkpt>
      <trkpt lat="45.6920628156513" lon="17.676134258508682">
        <ele>218.23</ele>
        <time>2023-10-17T03:37:22.092Z</time>
      </trkpt>
      <trkpt lat="45.69205543957651" lon="17.67614448443055">
        <ele>218.37</ele>
        <time>2023-10-17T03:37:28.198Z</time>
      </trkpt>
      <trkpt lat="45.692048063501716" lon="17.67615512944758">
        <ele>218.51</ele>
        <time>2023-10-17T03:37:34.304Z</time>
      </trkpt>
      <trkpt lat="45.69204085506499" lon="17.676166193559766">
        <ele>218.66</ele>
        <time>2023-10-17T03:37:40.411Z</time>
      </trkpt>
      <trkpt lat="45.69203364662826" lon="17.67617759294808">
        <ele>218.8</ele>
        <time>2023-10-17T03:37:46.518Z</time>
      </trkpt>
      <trkpt lat="45.692026522010565" lon="17.676189159974456">
        <ele>218.95</ele>
        <time>2023-10-17T03:37:52.625Z</time>
      </trkpt>
      <trkpt lat="45.6920194812119" lon="17.676200978457928">
        <ele>219.1</ele>
        <time>2023-10-17T03:37:58.733Z</time>
      </trkpt>
      <trkpt lat="45.69201244041324" lon="17.676213216036558">
        <ele>219.25</ele>
        <time>2023-10-17T03:38:04.841Z</time>
      </trkpt>
      <trkpt lat="45.692005483433604" lon="17.67622553743422">
        <ele>219.39</ele>
        <time>2023-10-17T03:38:10.949Z</time>
      </trkpt>
      <trkpt lat="45.691998610273004" lon="17.676237858831882">
        <ele>219.54</ele>
        <time>2023-10-17T03:38:17.058Z</time>
      </trkpt>
      <trkpt lat="45.6919919885695" lon="17.67625043168664">
        <ele>219.69</ele>
        <time>2023-10-17T03:38:23.167Z</time>
      </trkpt>
      <trkpt lat="45.69198536686599" lon="17.676263004541397">
        <ele>219.84</ele>
        <time>2023-10-17T03:38:29.276Z</time>
      </trkpt>
      <trkpt lat="45.69197882898152" lon="17.676275745034218">
        <ele>219.99</ele>
        <time>2023-10-17T03:38:35.386Z</time>
      </trkpt>
      <trkpt lat="45.69197237491608" lon="17.67628856934607">
        <ele>220.14</ele>
        <time>2023-10-17T03:38:41.496Z</time>
      </trkpt>
      <trkpt lat="45.691965920850635" lon="17.676301393657923">
        <ele>220.29</ele>
        <time>2023-10-17T03:38:47.607Z</time>
      </trkpt>
      <trkpt lat="45.691959550604224" lon="17.676314301788807">
        <ele>220.44</ele>
        <time>2023-10-17T03:38:53.718Z</time>
      </trkpt>
      <trkpt lat="45.69195334799588" lon="17.676327293738723">
        <ele>220.59</ele>
        <time>2023-10-17T03:38:59.829Z</time>
      </trkpt>
      <trkpt lat="45.691947396844625" lon="17.676340201869607">
        <ele>220.73</ele>
        <time>2023-10-17T03:39:05.941Z</time>
      </trkpt>
      <trkpt lat="45.6919417809695" lon="17.6763526070863">
        <ele>220.88</ele>
        <time>2023-10-17T03:39:12.053Z</time>
      </trkpt>
      <trkpt lat="45.691936668008566" lon="17.67636484466493">
        <ele>221.03</ele>
        <time>2023-10-17T03:39:18.165Z</time>
      </trkpt>
      <trkpt lat="45.69193197414279" lon="17.67637657932937">
        <ele>221.18</ele>
        <time>2023-10-17T03:39:24.278Z</time>
      </trkpt>
      <trkpt lat="45.691927783191204" lon="17.67638772726059">
        <ele>221.33</ele>
        <time>2023-10-17T03:39:30.391Z</time>
      </trkpt>
      <trkpt lat="45.69192401133478" lon="17.676398204639554">
        <ele>221.47</ele>
        <time>2023-10-17T03:39:36.504Z</time>
      </trkpt>
      <trkpt lat="45.69192040711641" lon="17.676408179104328">
        <ele>221.62</ele>
        <time>2023-10-17T03:39:42.618Z</time>
      </trkpt>
      <trkpt lat="45.69191697053611" lon="17.676417818292975">
        <ele>221.77</ele>
        <time>2023-10-17T03:39:48.732Z</time>
      </trkpt>
      <trkpt lat="45.69191336631775" lon="17.676427206024528">
        <ele>221.91</ele>
        <time>2023-10-17T03:39:54.846Z</time>
      </trkpt>
      <trkpt lat="45.69190984591842" lon="17.67643617466092">
        <ele>222.06</ele>
        <time>2023-10-17T03:40:00.960Z</time>
      </trkpt>
      <trkpt lat="45.69190624170005" lon="17.67644497565925">
        <ele>222.2</ele>
        <time>2023-10-17T03:40:07.075Z</time>
      </trkpt>
      <trkpt lat="45.69190230220556" lon="17.67645369283855">
        <ele>222.34</ele>
        <time>2023-10-17T03:40:13.190Z</time>
      </trkpt>
      <trkpt lat="45.69189785979688" lon="17.676462661474943">
        <ele>222.48</ele>
        <time>2023-10-17T03:40:19.305Z</time>
      </trkpt>
      <trkpt lat="45.69189291447401" lon="17.676472049206495">
        <ele>222.62</ele>
        <time>2023-10-17T03:40:25.420Z</time>
      </trkpt>
      <trkpt lat="45.691887214779854" lon="17.676481939852238">
        <ele>222.76</ele>
        <time>2023-10-17T03:40:31.536Z</time>
      </trkpt>
      <trkpt lat="45.691880928352475" lon="17.676492584869266">
        <ele>222.9</ele>
        <time>2023-10-17T03:40:37.652Z</time>
      </trkpt>
      <trkpt lat="45.69187397137284" lon="17.67650406807661">
        <ele>223.04</ele>
        <time>2023-10-17T03:40:43.768Z</time>
      </trkpt>
      <trkpt lat="45.69186667911708" lon="17.676516054198146">
        <ele>223.17</ele>
        <time>2023-10-17T03:40:49.885Z</time>
      </trkpt>
      <trkpt lat="45.6918590515852" lon="17.676528375595808">
        <ele>223.31</ele>
        <time>2023-10-17T03:40:56.002Z</time>
      </trkpt>
      <trkpt lat="45.69185134023428" lon="17.67654111608863">
        <ele>223.44</ele>
        <time>2023-10-17T03:41:02.119Z</time>
      </trkpt>
      <trkpt lat="45.6918434612453" lon="17.67655435949564">
        <ele>223.58</ele>
        <time>2023-10-17T03:41:08.237Z</time>
      </trkpt>
      <trkpt lat="45.691835414618254" lon="17.676567854359746">
        <ele>223.71</ele>
        <time>2023-10-17T03:41:14.355Z</time>
      </trkpt>
      <trkpt lat="45.69182736799121" lon="17.676581852138042">
        <ele>223.84</ele>
        <time>2023-10-17T03:41:20.474Z</time>
      </trkpt>
      <trkpt lat="45.691819321364164" lon="17.676596101373434">
        <ele>223.97</ele>
        <time>2023-10-17T03:41:26.593Z</time>
      </trkpt>
      <trkpt lat="45.69181127473712" lon="17.67661051824689">
        <ele>224.1</ele>
        <time>2023-10-17T03:41:32.713Z</time>
      </trkpt>
      <trkpt lat="45.691803228110075" lon="17.676625018939376">
        <ele>224.23</ele>
        <time>2023-10-17T03:41:38.833Z</time>
      </trkpt>
      <trkpt lat="45.69179518148303" lon="17.676639519631863">
        <ele>224.36</ele>
        <time>2023-10-17T03:41:44.953Z</time>
      </trkpt>
      <trkpt lat="45.691787134855986" lon="17.676653852686286">
        <ele>224.48</ele>
        <time>2023-10-17T03:41:51.074Z</time>
      </trkpt>
      <trkpt lat="45.69177908822894" lon="17.676668018102646">
        <ele>224.61</ele>
        <time>2023-10-17T03:41:57.195Z</time>
      </trkpt>
      <trkpt lat="45.6917707901448" lon="17.676682267338037">
        <ele>224.73</ele>
        <time>2023-10-17T03:42:03.317Z</time>
      </trkpt>
      <trkpt lat="45.6917620729655" lon="17.676696432754397">
        <ele>224.85</ele>
        <time>2023-10-17T03:42:09.439Z</time>
      </trkpt>
      <trkpt lat="45.69175260141492" lon="17.676710933446884">
        <ele>224.98</ele>
        <time>2023-10-17T03:42:15.562Z</time>
      </trkpt>
      <trkpt lat="45.69174237549305" lon="17.676725685596466">
        <ele>225.09</ele>
        <time>2023-10-17T03:42:21.685Z</time>
      </trkpt>
      <trkpt lat="45.6917311437428" lon="17.676740689203143">
        <ele>225.21</ele>
        <time>2023-10-17T03:42:27.809Z</time>
      </trkpt>
      <trkpt lat="45.6917189899832" lon="17.67675611190498">
        <ele>225.33</ele>
        <time>2023-10-17T03:42:33.933Z</time>
      </trkpt>
      <trkpt lat="45.69170566275716" lon="17.676772205159068">
        <ele>225.44</ele>
        <time>2023-10-17T03:42:40.058Z</time>
      </trkpt>
      <trkpt lat="45.691691329702735" lon="17.676788717508316">
        <ele>225.56</ele>
        <time>2023-10-17T03:42:46.183Z</time>
      </trkpt>
      <trkpt lat="45.691676242277026" lon="17.67680556513369">
        <ele>225.67</ele>
        <time>2023-10-17T03:42:52.309Z</time>
      </trkpt>
      <trkpt lat="45.691660568118095" lon="17.67682258039713">
        <ele>225.79</ele>
        <time>2023-10-17T03:42:58.436Z</time>
      </trkpt>
      <trkpt lat="45.69164430722594" lon="17.676839595660567">
        <ele>225.9</ele>
        <time>2023-10-17T03:43:04.563Z</time>
      </trkpt>
      <trkpt lat="45.69162796251476" lon="17.67685627564788">
        <ele>226.01</ele>
        <time>2023-10-17T03:43:10.691Z</time>
      </trkpt>
      <trkpt lat="45.691611617803574" lon="17.676872704178095">
        <ele>226.12</ele>
        <time>2023-10-17T03:43:16.820Z</time>
      </trkpt>
      <trkpt lat="45.69159577600658" lon="17.67688854597509">
        <ele>226.23</ele>
        <time>2023-10-17T03:43:22.949Z</time>
      </trkpt>
      <trkpt lat="45.69158026948571" lon="17.67690380103886">
        <ele>226.34</ele>
        <time>2023-10-17T03:43:29.079Z</time>
      </trkpt>
      <trkpt lat="45.6915654335171" lon="17.676918050274253">
        <ele>226.45</ele>
        <time>2023-10-17T03:43:35.209Z</time>
      </trkpt>
      <trkpt lat="45.691551100462675" lon="17.67693154513836">
        <ele>226.55</ele>
        <time>2023-10-17T03:43:41.340Z</time>
      </trkpt>
      <trkpt lat="45.691537437960505" lon="17.676943950355053">
        <ele>226.66</ele>
        <time>2023-10-17T03:43:47.472Z</time>
      </trkpt>
      <trkpt lat="45.69152411073446" lon="17.67695551738143">
        <ele>226.77</ele>
        <time>2023-10-17T03:43:53.604Z</time>
      </trkpt>
      <trkpt lat="45.691511034965515" lon="17.676966413855553">
        <ele>226.87</ele>
        <time>2023-10-17T03:43:59.737Z</time>
      </trkpt>
      <trkpt lat="45.69149812683463" lon="17.676976639777422">
        <ele>226.97</ele>
        <time>2023-10-17T03:44:05.870Z</time>
      </trkpt>
      <trkpt lat="45.69148505106568" lon="17.676986614242196">
        <ele>227.08</ele>
        <time>2023-10-17T03:44:12.004Z</time>
      </trkpt>
      <trkpt lat="45.691471975296736" lon="17.67699616961181">
        <ele>227.18</ele>
        <time>2023-10-17T03:44:18.138Z</time>
      </trkpt>
      <trkpt lat="45.69145856425166" lon="17.67700530588627">
        <ele>227.28</ele>
        <time>2023-10-17T03:44:24.273Z</time>
      </trkpt>
      <trkpt lat="45.69144498556852" lon="17.677013939246535">
        <ele>227.38</ele>
        <time>2023-10-17T03:44:30.408Z</time>
      </trkpt>
      <trkpt lat="45.69143123924732" lon="17.67702198587358">
        <ele>227.48</ele>
        <time>2023-10-17T03:44:36.544Z</time>
      </trkpt>
      <trkpt lat="45.69141757674515" lon="17.677029529586434">
        <ele>227.58</ele>
        <time>2023-10-17T03:44:42.680Z</time>
      </trkpt>
      <trkpt lat="45.69140441715717" lon="17.677036318928003">
        <ele>227.68</ele>
        <time>2023-10-17T03:44:48.817Z</time>
      </trkpt>
      <trkpt lat="45.691391844302416" lon="17.677042353898287">
        <ele>227.78</ele>
        <time>2023-10-17T03:44:54.954Z</time>
      </trkpt>
      <trkpt lat="45.69138027727604" lon="17.677047299221158">
        <ele>227.88</ele>
        <time>2023-10-17T03:45:01.091Z</time>
      </trkpt>
      <trkpt lat="45.691369799897075" lon="17.67705132253468">
        <ele>227.98</ele>
        <time>2023-10-17T03:45:07.229Z</time>
      </trkpt>
      <trkpt lat="45.69136032834649" lon="17.677054507657886">
        <ele>228.07</ele>
        <time>2023-10-17T03:45:13.367Z</time>
      </trkpt>
      <trkpt lat="45.69135211408138" lon="17.677056854590774">
        <ele>228.17</ele>
        <time>2023-10-17T03:45:19.505Z</time>
      </trkpt>
      <trkpt lat="45.69134498946369" lon="17.677058363333344">
        <ele>228.26</ele>
        <time>2023-10-17T03:45:25.644Z</time>
      </trkpt>
      <trkpt lat="45.69133912213147" lon="17.67705911770463">
        <ele>228.36</ele>
        <time>2023-10-17T03:45:31.783Z</time>
      </trkpt>
      <trkpt lat="45.691334176808596" lon="17.677059369161725">
        <ele>228.45</ele>
        <time>2023-10-17T03:45:37.922Z</time>
      </trkpt>
      <trkpt lat="45.69132998585701" lon="17.67705911770463">
        <ele>228.54</ele>
        <time>2023-10-17T03:45:44.061Z</time>
      </trkpt>
      <trkpt lat="45.69132604636252" lon="17.67705869860947">
        <ele>228.63</ele>
        <time>2023-10-17T03:45:50.200Z</time>
      </trkpt>
      <trkpt lat="45.69132219068706" lon="17.677058279514313">
        <ele>228.72</ele>
        <time>2023-10-17T03:45:56.339Z</time>
      </trkpt>
      <trkpt lat="45.691317999735475" lon="17.677058028057218">
        <ele>228.81</ele>
        <time>2023-10-17T03:46:02.478Z</time>
      </trkpt>
      <trkpt lat="45.6913133058697" lon="17.677058447152376">
        <ele>228.89</ele>
        <time>2023-10-17T03:46:08.618Z</time>
      </trkpt>
      <trkpt lat="45.691308276727796" lon="17.677059369161725">
        <ele>228.98</ele>
        <time>2023-10-17T03:46:14.758Z</time>
      </trkpt>
      <trkpt lat="45.691302828490734" lon="17.6770606264472">
        <ele>229.06</ele>
        <time>2023-10-17T03:46:20.898Z</time>
      </trkpt>
      <trkpt lat="45.69129712879658" lon="17.677062302827835">
        <ele>229.15</ele>
        <time>2023-10-17T03:46:27.038Z</time>
      </trkpt>
      <trkpt lat="45.691291177645326" lon="17.677064649760723">
        <ele>229.23</ele>
        <time>2023-10-17T03:46:33.178Z</time>
      </trkpt>
      <trkpt lat="45.69128497503698" lon="17.677067751064897">
        <ele>229.31</ele>
        <time>2023-10-17T03:46:39.319Z</time>
      </trkpt>
      <trkpt lat="45.691278940066695" lon="17.67707127146423">
        <ele>229.39</ele>
        <time>2023-10-17T03:46:45.460Z</time>
      </trkpt>
      <trkpt lat="45.691273072734475" lon="17.677075127139688">
        <ele>229.47</ele>
        <time>2023-10-17T03:46:51.601Z</time>
      </trkpt>
      <trkpt lat="45.691267624497414" lon="17.67707923427224">
        <ele>229.54</ele>
        <time>2023-10-17T03:46:57.742Z</time>
      </trkpt>
      <trkpt lat="45.691262846812606" lon="17.677083173766732">
        <ele>229.62</ele>
        <time>2023-10-17T03:47:03.883Z</time>
      </trkpt>
      <trkpt lat="45.69125873968005" lon="17.677086861804128">
        <ele>229.69</ele>
        <time>2023-10-17T03:47:10.025Z</time>
      </trkpt>
      <trkpt lat="45.69125521928072" lon="17.677090214565396">
        <ele>229.76</ele>
        <time>2023-10-17T03:47:16.167Z</time>
      </trkpt>
      <trkpt lat="45.69125186651945" lon="17.677093148231506">
        <ele>229.83</ele>
        <time>2023-10-17T03:47:22.309Z</time>
      </trkpt>
      <trkpt lat="45.69124842993915" lon="17.677095662802458">
        <ele>229.89</ele>
        <time>2023-10-17T03:47:28.451Z</time>
      </trkpt>
      <trkpt lat="45.69124482572079" lon="17.677097842097282">
        <ele>229.96</ele>
        <time>2023-10-17T03:47:34.593Z</time>
      </trkpt>
      <trkpt lat="45.691240802407265" lon="17.677099350839853">
        <ele>230.02</ele>
        <time>2023-10-17T03:47:40.735Z</time>
      </trkpt>
      <trkpt lat="45.69123602472246" lon="17.677100440487266">
        <ele>230.08</ele>
        <time>2023-10-17T03:47:46.877Z</time>
      </trkpt>
      <trkpt lat="45.6912303250283" lon="17.677101027220488">
        <ele>230.14</ele>
        <time>2023-10-17T03:47:53.020Z</time>
      </trkpt>
      <trkpt lat="45.69122353568673" lon="17.677101362496614">
        <ele>230.2</ele>
        <time>2023-10-17T03:47:59.163Z</time>
      </trkpt>
      <trkpt lat="45.69121557287872" lon="17.677101278677583">
        <ele>230.26</ele>
        <time>2023-10-17T03:48:05.306Z</time>
      </trkpt>
      <trkpt lat="45.69120635278523" lon="17.677101027220488">
        <ele>230.31</ele>
        <time>2023-10-17T03:48:11.449Z</time>
      </trkpt>
      <trkpt lat="45.691195875406265" lon="17.677100440487266">
        <ele>230.36</ele>
        <time>2023-10-17T03:48:17.593Z</time>
      </trkpt>
      <trkpt lat="45.69118439219892" lon="17.67709960229695">
        <ele>230.41</ele>
        <time>2023-10-17T03:48:23.737Z</time>
      </trkpt>
      <trkpt lat="45.69117215462029" lon="17.677098596468568">
        <ele>230.46</ele>
        <time>2023-10-17T03:48:29.882Z</time>
      </trkpt>
      <trkpt lat="45.6911594979465" lon="17.677097506821156">
        <ele>230.5</ele>
        <time>2023-10-17T03:48:36.027Z</time>
      </trkpt>
      <trkpt lat="45.69114625453949" lon="17.67709633335471">
        <ele>230.54</ele>
        <time>2023-10-17T03:48:42.172Z</time>
      </trkpt>
      <trkpt lat="45.691132843494415" lon="17.677095076069236">
        <ele>230.58</ele>
        <time>2023-10-17T03:48:48.318Z</time>
      </trkpt>
      <trkpt lat="45.69111934863031" lon="17.67709373496473">
        <ele>230.61</ele>
        <time>2023-10-17T03:48:54.464Z</time>
      </trkpt>
      <trkpt lat="45.691105937585235" lon="17.677092226222157">
        <ele>230.64</ele>
        <time>2023-10-17T03:49:00.611Z</time>
      </trkpt>
      <trkpt lat="45.691092777997255" lon="17.677090549841523">
        <ele>230.67</ele>
        <time>2023-10-17T03:49:06.758Z</time>
      </trkpt>
      <trkpt lat="45.69107978604734" lon="17.677088622003794">
        <ele>230.7</ele>
        <time>2023-10-17T03:49:12.906Z</time>
      </trkpt>
      <trkpt lat="45.69106704555452" lon="17.677086610347033">
        <ele>230.72</ele>
        <time>2023-10-17T03:49:19.054Z</time>
      </trkpt>
      <trkpt lat="45.69105455651879" lon="17.677084431052208">
        <ele>230.74</ele>
        <time>2023-10-17T03:49:25.202Z</time>
      </trkpt>
      <trkpt lat="45.6910421513021" lon="17.677082335576415">
        <ele>230.75</ele>
        <time>2023-10-17T03:49:31.351Z</time>
      </trkpt>
      <trkpt lat="45.691029746085405" lon="17.677080323919654">
        <ele>230.77</ele>
        <time>2023-10-17T03:49:37.500Z</time>
      </trkpt>
      <trkpt lat="45.691017508506775" lon="17.677078312262893">
        <ele>230.77</ele>
        <time>2023-10-17T03:49:43.650Z</time>
      </trkpt>
      <trkpt lat="45.691005270928144" lon="17.67707630060613">
        <ele>230.78</ele>
        <time>2023-10-17T03:49:49.800Z</time>
      </trkpt>
      <trkpt lat="45.69099294953048" lon="17.67707428894937">
        <ele>230.78</ele>
        <time>2023-10-17T03:49:55.951Z</time>
      </trkpt>
      <trkpt lat="45.69098062813282" lon="17.677072025835514">
        <ele>230.78</ele>
        <time>2023-10-17T03:50:02.102Z</time>
      </trkpt>
      <trkpt lat="45.690968139097095" lon="17.677069595083594">
        <ele>230.77</ele>
        <time>2023-10-17T03:50:08.253Z</time>
      </trkpt>
      <trkpt lat="45.690955482423306" lon="17.67706691287458">
        <ele>230.76</ele>
        <time>2023-10-17T03:50:14.405Z</time>
      </trkpt>
      <trkpt lat="45.69094290956855" lon="17.677063811570406">
        <ele>230.75</ele>
        <time>2023-10-17T03:50:20.557Z</time>
      </trkpt>
      <trkpt lat="45.69093033671379" lon="17.677060291171074">
        <ele>230.73</ele>
        <time>2023-10-17T03:50:26.710Z</time>
      </trkpt>
      <trkpt lat="45.6909179314971" lon="17.677056351676583">
        <ele>230.71</ele>
        <time>2023-10-17T03:50:32.863Z</time>
      </trkpt>
      <trkpt lat="45.6909055262804" lon="17.67705182544887">
        <ele>230.69</ele>
        <time>2023-10-17T03:50:39.017Z</time>
      </trkpt>
      <trkpt lat="45.69089303724468" lon="17.677046628668904">
        <ele>230.66</ele>
        <time>2023-10-17T03:50:45.171Z</time>
      </trkpt>
      <trkpt lat="45.69088038057089" lon="17.677040845155716">
        <ele>230.63</ele>
        <time>2023-10-17T03:50:51.325Z</time>
      </trkpt>
      <trkpt lat="45.690867556259036" lon="17.677034391090274">
        <ele>230.58</ele>
        <time>2023-10-17T03:50:57.480Z</time>
      </trkpt>
      <trkpt lat="45.69085456430912" lon="17.677027266472578">
        <ele>230.54</ele>
        <time>2023-10-17T03:51:03.635Z</time>
      </trkpt>
      <trkpt lat="45.6908418238163" lon="17.677019806578755">
        <ele>230.49</ele>
        <time>2023-10-17T03:51:09.791Z</time>
      </trkpt>
      <trkpt lat="45.69082908332348" lon="17.677011927589774">
        <ele>230.44</ele>
        <time>2023-10-17T03:51:15.947Z</time>
      </trkpt>
      <trkpt lat="45.69081642664969" lon="17.677003797143698">
        <ele>230.38</ele>
        <time>2023-10-17T03:51:22.104Z</time>
      </trkpt>
      <trkpt lat="45.69080385379493" lon="17.67699566669762">
        <ele>230.32</ele>
        <time>2023-10-17T03:51:28.261Z</time>
      </trkpt>
      <trkpt lat="45.690791280940175" lon="17.67698770388961">
        <ele>230.26</ele>
        <time>2023-10-17T03:51:34.419Z</time>
      </trkpt>
      <trkpt lat="45.69077870808542" lon="17.676979824900627">
        <ele>230.19</ele>
        <time>2023-10-17T03:51:40.577Z</time>
      </trkpt>
      <trkpt lat="45.69076621904969" lon="17.67697211354971">
        <ele>230.12</ele>
        <time>2023-10-17T03:51:46.736Z</time>
      </trkpt>
      <trkpt lat="45.690753646194935" lon="17.676964486017823">
        <ele>230.05</ele>
        <time>2023-10-17T03:51:52.895Z</time>
      </trkpt>
      <trkpt lat="45.69074115715921" lon="17.676957109943032">
        <ele>229.97</ele>
        <time>2023-10-17T03:51:59.054Z</time>
      </trkpt>
      <trkpt lat="45.69072858430445" lon="17.676949901506305">
        <ele>229.89</ele>
        <time>2023-10-17T03:52:05.214Z</time>
      </trkpt>
      <trkpt lat="45.690716095268726" lon="17.676943112164736">
        <ele>229.81</ele>
        <time>2023-10-17T03:52:11.374Z</time>
      </trkpt>
      <trkpt lat="45.690703354775906" lon="17.67693649046123">
        <ele>229.72</ele>
        <time>2023-10-17T03:52:17.535Z</time>
      </trkpt>
      <trkpt lat="45.69069053046405" lon="17.676930371671915">
        <ele>229.63</ele>
        <time>2023-10-17T03:52:23.696Z</time>
      </trkpt>
      <trkpt lat="45.69067753851414" lon="17.676924588158727">
        <ele>229.54</ele>
        <time>2023-10-17T03:52:29.858Z</time>
      </trkpt>
      <trkpt lat="45.69066437892616" lon="17.676919223740697">
        <ele>229.45</ele>
        <time>2023-10-17T03:52:36.020Z</time>
      </trkpt>
      <trkpt lat="45.69065113551915" lon="17.676914194598794">
        <ele>229.36</ele>
        <time>2023-10-17T03:52:42.183Z</time>
      </trkpt>
      <trkpt lat="45.69063772447407" lon="17.676909500733018">
        <ele>229.27</ele>
        <time>2023-10-17T03:52:48.346Z</time>
      </trkpt>
      <trkpt lat="45.690624145790935" lon="17.6769052259624">
        <ele>229.17</ele>
        <time>2023-10-17T03:52:54.510Z</time>
      </trkpt>
      <trkpt lat="45.6906105671078" lon="17.67690137028694">
        <ele>229.07</ele>
        <time>2023-10-17T03:53:00.674Z</time>
      </trkpt>
      <trkpt lat="45.69059698842466" lon="17.676897766068578">
        <ele>228.97</ele>
        <time>2023-10-17T03:53:06.838Z</time>
      </trkpt>
      <trkpt lat="45.69058340974152" lon="17.67689449712634">
        <ele>228.88</ele>
        <time>2023-10-17T03:53:13.003Z</time>
      </trkpt>
      <trkpt lat="45.69056983105838" lon="17.676891647279263">
        <ele>228.78</ele>
        <time>2023-10-17T03:53:19.168Z</time>
      </trkpt>
      <trkpt lat="45.69055633619428" lon="17.676889300346375">
        <ele>228.68</ele>
        <time>2023-10-17T03:53:25.334Z</time>
      </trkpt>
      <trkpt lat="45.690543008968234" lon="17.676887372508645">
        <ele>228.58</ele>
        <time>2023-10-17T03:53:31.500Z</time>
      </trkpt>
      <trkpt lat="45.69052976556122" lon="17.676885863766074">
        <ele>228.47</ele>
        <time>2023-10-17T03:53:37.667Z</time>
      </trkpt>
      <trkpt lat="45.690516605973244" lon="17.676884857937694">
        <ele>228.37</ele>
        <time>2023-10-17T03:53:43.834Z</time>
      </trkpt>
      <trkpt lat="45.69050361402333" lon="17.67688427120447">
        <ele>228.27</ele>
        <time>2023-10-17T03:53:50.002Z</time>
      </trkpt>
      <trkpt lat="45.690490789711475" lon="17.67688427120447">
        <ele>228.17</ele>
        <time>2023-10-17T03:53:56.170Z</time>
      </trkpt>
      <trkpt lat="45.690478133037686" lon="17.676884774118662">
        <ele>228.06</ele>
        <time>2023-10-17T03:54:02.338Z</time>
      </trkpt>
      <trkpt lat="45.69046556018293" lon="17.676885863766074">
        <ele>227.96</ele>
        <time>2023-10-17T03:54:08.507Z</time>
      </trkpt>
      <trkpt lat="45.69045323878527" lon="17.676887456327677">
        <ele>227.85</ele>
        <time>2023-10-17T03:54:14.676Z</time>
      </trkpt>
      <trkpt lat="45.690440917387605" lon="17.676889467984438">
        <ele>227.75</ele>
        <time>2023-10-17T03:54:20.846Z</time>
      </trkpt>
      <trkpt lat="45.69042859598994" lon="17.676891814917326">
        <ele>227.65</ele>
        <time>2023-10-17T03:54:27.016Z</time>
      </trkpt>
      <trkpt lat="45.69041610695422" lon="17.676894161850214">
        <ele>227.54</ele>
        <time>2023-10-17T03:54:33.187Z</time>
      </trkpt>
      <trkpt lat="45.69040353409946" lon="17.67689634114504">
        <ele>227.44</ele>
        <time>2023-10-17T03:54:39.358Z</time>
      </trkpt>
      <trkpt lat="45.69039070978761" lon="17.676898185163736">
        <ele>227.34</ele>
        <time>2023-10-17T03:54:45.529Z</time>
      </trkpt>
      <trkpt lat="45.69037780165672" lon="17.676899526268244">
        <ele>227.24</ele>
        <time>2023-10-17T03:54:51.701Z</time>
      </trkpt>
      <trkpt lat="45.690364725887775" lon="17.67690028063953">
        <ele>227.14</ele>
        <time>2023-10-17T03:54:57.873Z</time>
      </trkpt>
      <trkpt lat="45.690351566299796" lon="17.676900113001466">
        <ele>227.04</ele>
        <time>2023-10-17T03:55:04.046Z</time>
      </trkpt>
      <trkpt lat="45.69033807143569" lon="17.676899107173085">
        <ele>226.94</ele>
        <time>2023-10-17T03:55:10.219Z</time>
      </trkpt>
      <trkpt lat="45.69032440893352" lon="17.676897095516324">
        <ele>226.85</ele>
        <time>2023-10-17T03:55:16.393Z</time>
      </trkpt>
      <trkpt lat="45.690310494974256" lon="17.67689391039312">
        <ele>226.75</ele>
        <time>2023-10-17T03:55:22.567Z</time>
      </trkpt>
      <trkpt lat="45.69029641337693" lon="17.67688955180347">
        <ele>226.66</ele>
        <time>2023-10-17T03:55:28.742Z</time>
      </trkpt>
      <trkpt lat="45.69028224796057" lon="17.676884103566408">
        <ele>226.58</ele>
        <time>2023-10-17T03:55:34.917Z</time>
      </trkpt>
      <trkpt lat="45.69026808254421" lon="17.676877733319998">
        <ele>226.49</ele>
        <time>2023-10-17T03:55:41.093Z</time>
      </trkpt>
      <trkpt lat="45.69025400094688" lon="17.67687044106424">
        <ele>226.4</ele>
        <time>2023-10-17T03:55:47.269Z</time>
      </trkpt>
      <trkpt lat="45.69024000316858" lon="17.676862394437194">
        <ele>226.32</ele>
        <time>2023-10-17T03:55:53.446Z</time>
      </trkpt>
      <trkpt lat="45.690226005390286" lon="17.67685392871499">
        <ele>226.23</ele>
        <time>2023-10-17T03:55:59.623Z</time>
      </trkpt>
      <trkpt lat="45.69021209143102" lon="17.67684504389763">
        <ele>226.15</ele>
        <time>2023-10-17T03:56:05.801Z</time>
      </trkpt>
      <trkpt lat="45.69019800983369" lon="17.676835907623172">
        <ele>226.07</ele>
        <time>2023-10-17T03:56:11.979Z</time>
      </trkpt>
      <trkpt lat="45.6901840120554" lon="17.67682660371065">
        <ele>225.99</ele>
        <time>2023-10-17T03:56:18.158Z</time>
      </trkpt>
      <trkpt lat="45.69016993045807" lon="17.67681729979813">
        <ele>225.91</ele>
        <time>2023-10-17T03:56:24.337Z</time>
      </trkpt>
      <trkpt lat="45.69015584886074" lon="17.676808163523674">
        <ele>225.83</ele>
        <time>2023-10-17T03:56:30.517Z</time>
      </trkpt>
      <trkpt lat="45.69014176726341" lon="17.676799362525344">
        <ele>225.76</ele>
        <time>2023-10-17T03:56:36.697Z</time>
      </trkpt>
      <trkpt lat="45.69012751802802" lon="17.67679081298411">
        <ele>225.68</ele>
        <time>2023-10-17T03:56:42.878Z</time>
      </trkpt>
      <trkpt lat="45.69011326879263" lon="17.676782598719">
        <ele>225.61</ele>
        <time>2023-10-17T03:56:49.059Z</time>
      </trkpt>
      <trkpt lat="45.69009876810014" lon="17.67677471973002">
        <ele>225.54</ele>
        <time>2023-10-17T03:56:55.241Z</time>
      </trkpt>
      <trkpt lat="45.69008409976959" lon="17.676767259836197">
        <ele>225.46</ele>
        <time>2023-10-17T03:57:01.423Z</time>
      </trkpt>
      <trkpt lat="45.69006934762001" lon="17.67676005139947">
        <ele>225.39</ele>
        <time>2023-10-17T03:57:07.606Z</time>
      </trkpt>
      <trkpt lat="45.690054427832365" lon="17.67675317823887">
        <ele>225.32</ele>
        <time>2023-10-17T03:57:13.789Z</time>
      </trkpt>
      <trkpt lat="45.69003950804472" lon="17.67674680799246">
        <ele>225.25</ele>
        <time>2023-10-17T03:57:19.973Z</time>
      </trkpt>
      <trkpt lat="45.690024588257074" lon="17.67674102447927">
        <ele>225.18</ele>
        <time>2023-10-17T03:57:26.157Z</time>
      </trkpt>
      <trkpt lat="45.69000966846943" lon="17.676735911518335">
        <ele>225.12</ele>
        <time>2023-10-17T03:57:32.342Z</time>
      </trkpt>
      <trkpt lat="45.689994832500815" lon="17.676731469109654">
        <ele>225.05</ele>
        <time>2023-10-17T03:57:38.527Z</time>
      </trkpt>
      <trkpt lat="45.6899802479893" lon="17.676728032529354">
        <ele>224.98</ele>
        <time>2023-10-17T03:57:44.713Z</time>
      </trkpt>
      <trkpt lat="45.68996574729681" lon="17.676725517958403">
        <ele>224.91</ele>
        <time>2023-10-17T03:57:50.899Z</time>
      </trkpt>
      <trkpt lat="45.68995166569948" lon="17.676724176853895">
        <ele>224.85</ele>
        <time>2023-10-17T03:57:57.086Z</time>
      </trkpt>
      <trkpt lat="45.68993783555925" lon="17.67672384157777">
        <ele>224.78</ele>
        <time>2023-10-17T03:58:03.273Z</time>
      </trkpt>
      <trkpt lat="45.689924424514174" lon="17.67672484740615">
        <ele>224.72</ele>
        <time>2023-10-17T03:58:09.461Z</time>
      </trkpt>
      <trkpt lat="45.68991143256426" lon="17.676727194339037">
        <ele>224.65</ele>
        <time>2023-10-17T03:58:15.649Z</time>
      </trkpt>
      <trkpt lat="45.68989877589047" lon="17.6767307985574">
        <ele>224.59</ele>
        <time>2023-10-17T03:58:21.838Z</time>
      </trkpt>
      <trkpt lat="45.68988653831184" lon="17.676735743880272">
        <ele>224.52</ele>
        <time>2023-10-17T03:58:28.027Z</time>
      </trkpt>
      <trkpt lat="45.68987488746643" lon="17.676741862669587">
        <ele>224.46</ele>
        <time>2023-10-17T03:58:34.216Z</time>
      </trkpt>
      <trkpt lat="45.68986357189715" lon="17.67674881964922">
        <ele>224.39</ele>
        <time>2023-10-17T03:58:40.406Z</time>
      </trkpt>
      <trkpt lat="45.68985275924206" lon="17.6767566986382">
        <ele>224.33</ele>
        <time>2023-10-17T03:58:46.596Z</time>
      </trkpt>
      <trkpt lat="45.689842365682125" lon="17.676765164360404">
        <ele>224.26</ele>
        <time>2023-10-17T03:58:52.787Z</time>
      </trkpt>
      <trkpt lat="45.689832055941224" lon="17.676774132996798">
        <ele>224.2</ele>
        <time>2023-10-17T03:58:58.978Z</time>
      </trkpt>
      <trkpt lat="45.68982174620032" lon="17.676783353090286">
        <ele>224.13</ele>
        <time>2023-10-17T03:59:05.169Z</time>
      </trkpt>
      <trkpt lat="45.68981143645942" lon="17.67679282464087">
        <ele>224.07</ele>
        <time>2023-10-17T03:59:11.361Z</time>
      </trkpt>
      <trkpt lat="45.68980104289949" lon="17.67680254764855">
        <ele>224.0</ele>
        <time>2023-10-17T03:59:17.553Z</time>
      </trkpt>
      <trkpt lat="45.689790565520525" lon="17.676812270656228">
        <ele>223.93</ele>
        <time>2023-10-17T03:59:23.746Z</time>
      </trkpt>
      <trkpt lat="45.68978017196059" lon="17.676821826025844">
        <ele>223.87</ele>
        <time>2023-10-17T03:59:29.939Z</time>
      </trkpt>
      <trkpt lat="45.68976994603872" lon="17.676831046119332">
        <ele>223.8</ele>
        <time>2023-10-17T03:59:36.132Z</time>
      </trkpt>
      <trkpt lat="45.689759720116854" lon="17.676840014755726">
        <ele>223.72</ele>
        <time>2023-10-17T03:59:42.326Z</time>
      </trkpt>
      <trkpt lat="45.689749578014016" lon="17.676848648115993">
        <ele>223.65</ele>
        <time>2023-10-17T03:59:48.520Z</time>
      </trkpt>
      <trkpt lat="45.689739687368274" lon="17.6768568623811">
        <ele>223.57</ele>
        <time>2023-10-17T03:59:54.715Z</time>
      </trkpt>
      <trkpt lat="45.689729964360595" lon="17.67686465755105">
        <ele>223.5</ele>
        <time>2023-10-17T04:00:00.910Z</time>
      </trkpt>
      <trkpt lat="45.689720660448074" lon="17.676872285082936">
        <ele>223.42</ele>
        <time>2023-10-17T04:00:07.105Z</time>
      </trkpt>
      <trkpt lat="45.689711943268776" lon="17.676879661157727">
        <ele>223.34</ele>
        <time>2023-10-17T04:00:13.301Z</time>
      </trkpt>
      <trkpt lat="45.68970372900367" lon="17.676886869594455">
        <ele>223.26</ele>
        <time>2023-10-17T04:00:19.497Z</time>
      </trkpt>
      <trkpt lat="45.68969610147178" lon="17.67689391039312">
        <ele>223.17</ele>
        <time>2023-10-17T04:00:25.693Z</time>
      </trkpt>
      <trkpt lat="45.68968914449215" lon="17.676901035010815">
        <ele>223.09</ele>
        <time>2023-10-17T04:00:31.890Z</time>
      </trkpt>
      <trkpt lat="45.689682606607676" lon="17.67690815962851">
        <ele>223.0</ele>
        <time>2023-10-17T04:00:38.087Z</time>
      </trkpt>
      <trkpt lat="45.68967640399933" lon="17.6769155357033">
        <ele>222.91</ele>
        <time>2023-10-17T04:00:44.284Z</time>
      </trkpt>
      <trkpt lat="45.689670369029045" lon="17.676923079416156">
        <ele>222.82</ele>
        <time>2023-10-17T04:00:50.481Z</time>
      </trkpt>
      <trkpt lat="45.68966458551586" lon="17.67693104222417">
        <ele>222.73</ele>
        <time>2023-10-17T04:00:56.679Z</time>
      </trkpt>
      <trkpt lat="45.6896588858217" lon="17.67693934030831">
        <ele>222.63</ele>
        <time>2023-10-17T04:01:02.877Z</time>
      </trkpt>
      <trkpt lat="45.689653269946575" lon="17.67694814130664">
        <ele>222.53</ele>
        <time>2023-10-17T04:01:09.075Z</time>
      </trkpt>
      <trkpt lat="45.68964765407145" lon="17.676957277581096">
        <ele>222.43</ele>
        <time>2023-10-17T04:01:15.273Z</time>
      </trkpt>
      <trkpt lat="45.689642038196325" lon="17.676966916769743">
        <ele>222.32</ele>
        <time>2023-10-17T04:01:21.472Z</time>
      </trkpt>
      <trkpt lat="45.6896364223212" lon="17.67697697505355">
        <ele>222.22</ele>
        <time>2023-10-17T04:01:27.671Z</time>
      </trkpt>
      <trkpt lat="45.68963063880801" lon="17.676987536251545">
        <ele>222.1</ele>
        <time>2023-10-17T04:01:33.870Z</time>
      </trkpt>
      <trkpt lat="45.68962477147579" lon="17.6769985165447">
        <ele>221.99</ele>
        <time>2023-10-17T04:01:40.070Z</time>
      </trkpt>
      <trkpt lat="45.68961873650551" lon="17.677009999752045">
        <ele>221.87</ele>
        <time>2023-10-17T04:01:46.270Z</time>
      </trkpt>
      <trkpt lat="45.68961245007813" lon="17.67702190205455">
        <ele>221.74</ele>
        <time>2023-10-17T04:01:52.470Z</time>
      </trkpt>
      <trkpt lat="45.68960599601269" lon="17.67703413963318">
        <ele>221.61</ele>
        <time>2023-10-17T04:01:58.671Z</time>
      </trkpt>
      <trkpt lat="45.68959929049015" lon="17.677046880126">
        <ele>221.48</ele>
        <time>2023-10-17T04:02:04.872Z</time>
      </trkpt>
      <trkpt lat="45.68959250114858" lon="17.67706012353301">
        <ele>221.34</ele>
        <time>2023-10-17T04:02:11.074Z</time>
      </trkpt>
      <trkpt lat="45.68958546034992" lon="17.677073534578085">
        <ele>221.2</ele>
        <time>2023-10-17T04:02:17.276Z</time>
      </trkpt>
      <trkpt lat="45.68957808427513" lon="17.67708753235638">
        <ele>221.05</ele>
        <time>2023-10-17T04:02:23.478Z</time>
      </trkpt>
      <trkpt lat="45.689570708200336" lon="17.677101865410805">
        <ele>220.91</ele>
        <time>2023-10-17T04:02:29.681Z</time>
      </trkpt>
      <trkpt lat="45.68956308066845" lon="17.67711636610329">
        <ele>220.75</ele>
        <time>2023-10-17T04:02:35.884Z</time>
      </trkpt>
      <trkpt lat="45.68955545313656" lon="17.67713086679578">
        <ele>220.6</ele>
        <time>2023-10-17T04:02:42.088Z</time>
      </trkpt>
      <trkpt lat="45.68954782560468" lon="17.677145283669233">
        <ele>220.43</ele>
        <time>2023-10-17T04:02:48.292Z</time>
      </trkpt>
      <trkpt lat="45.68954003043473" lon="17.677159532904625">
        <ele>220.27</ele>
        <time>2023-10-17T04:02:54.496Z</time>
      </trkpt>
      <trkpt lat="45.689532067626715" lon="17.67717353068292">
        <ele>220.09</ele>
        <time>2023-10-17T04:03:00.701Z</time>
      </trkpt>
      <trkpt lat="45.6895241048187" lon="17.677187444642186">
        <ele>219.92</ele>
        <time>2023-10-17T04:03:06.906Z</time>
      </trkpt>
      <trkpt lat="45.68951605819166" lon="17.677201190963387">
        <ele>219.73</ele>
        <time>2023-10-17T04:03:13.112Z</time>
      </trkpt>
      <trkpt lat="45.68950801156461" lon="17.677214769646525">
        <ele>219.55</ele>
        <time>2023-10-17T04:03:19.318Z</time>
      </trkpt>
      <trkpt lat="45.68949996493757" lon="17.67722826451063">
        <ele>219.35</ele>
        <time>2023-10-17T04:03:25.525Z</time>
      </trkpt>
      <trkpt lat="45.68949208594859" lon="17.677241675555706">
        <ele>219.15</ele>
        <time>2023-10-17T04:03:31.732Z</time>
      </trkpt>
      <trkpt lat="45.689484206959605" lon="17.677254918962717">
        <ele>218.94</ele>
        <time>2023-10-17T04:03:37.939Z</time>
      </trkpt>
      <trkpt lat="45.68947657942772" lon="17.677268078550696">
        <ele>218.73</ele>
        <time>2023-10-17T04:03:44.147Z</time>
      </trkpt>
      <trkpt lat="45.689469035714865" lon="17.67728140577674">
        <ele>218.51</ele>
        <time>2023-10-17T04:03:50.355Z</time>
      </trkpt>
      <trkpt lat="45.689461743459105" lon="17.677294816821814">
        <ele>218.29</ele>
        <time>2023-10-17T04:03:56.564Z</time>
      </trkpt>
      <trkpt lat="45.68945478647947" lon="17.677308227866888">
        <ele>218.05</ele>
        <time>2023-10-17T04:04:02.773Z</time>
      </trkpt>
      <trkpt lat="45.68944833241403" lon="17.677321638911963">
        <ele>217.82</ele>
        <time>2023-10-17T04:04:08.982Z</time>
      </trkpt>
      <trkpt lat="45.68944238126278" lon="17.677334966138005">
        <ele>217.58</ele>
        <time>2023-10-17T04:04:15.192Z</time>
      </trkpt>
      <trkpt lat="45.68943668156862" lon="17.67734787426889">
        <ele>217.33</ele>
        <time>2023-10-17T04:04:21.402Z</time>
      </trkpt>
      <trkpt lat="45.6894310656935" lon="17.677360363304615">
        <ele>217.08</ele>
        <time>2023-10-17T04:04:27.612Z</time>
      </trkpt>
      <trkpt lat="45.689425533637404" lon="17.67737226560712">
        <ele>216.82</ele>
        <time>2023-10-17T04:04:33.823Z</time>
      </trkpt>
      <trkpt lat="45.689419750124216" lon="17.67738349735737">
        <ele>216.56</ele>
        <time>2023-10-17T04:04:40.034Z</time>
      </trkpt>
      <trkpt lat="45.6894136313349" lon="17.677394058555365">
        <ele>216.29</ele>
        <time>2023-10-17T04:04:46.245Z</time>
      </trkpt>
      <trkpt lat="45.68940726108849" lon="17.67740411683917">
        <ele>216.02</ele>
        <time>2023-10-17T04:04:52.457Z</time>
      </trkpt>
      <trkpt lat="45.689400639384985" lon="17.677413672208786">
        <ele>215.74</ele>
        <time>2023-10-17T04:04:58.669Z</time>
      </trkpt>
      <trkpt lat="45.68939368240535" lon="17.677422808483243">
        <ele>215.46</ele>
        <time>2023-10-17T04:05:04.881Z</time>
      </trkpt>
      <trkpt lat="45.68938622251153" lon="17.677431777119637">
        <ele>215.18</ele>
        <time>2023-10-17T04:05:11.094Z</time>
      </trkpt>
      <trkpt lat="45.68937825970352" lon="17.677440494298935">
        <ele>214.89</ele>
        <time>2023-10-17T04:05:17.307Z</time>
      </trkpt>
      <trkpt lat="45.68936971016228" lon="17.67744904384017">
        <ele>214.6</ele>
        <time>2023-10-17T04:05:23.520Z</time>
      </trkpt>
      <trkpt lat="45.68936065770686" lon="17.677457593381405">
        <ele>214.3</ele>
        <time>2023-10-17T04:05:29.734Z</time>
      </trkpt>
      <trkpt lat="45.689351269975305" lon="17.67746622674167">
        <ele>214.0</ele>
        <time>2023-10-17T04:05:35.948Z</time>
      </trkpt>
      <trkpt lat="45.689341546967626" lon="17.67747502774">
        <ele>213.69</ele>
        <time>2023-10-17T04:05:42.162Z</time>
      </trkpt>
      <trkpt lat="45.689331740140915" lon="17.677483996376395">
        <ele>213.38</ele>
        <time>2023-10-17T04:05:48.377Z</time>
      </trkpt>
      <trkpt lat="45.689321430400014" lon="17.677493384107947">
        <ele>213.07</ele>
        <time>2023-10-17T04:05:54.592Z</time>
      </trkpt>
      <trkpt lat="45.68931061774492" lon="17.67750285565853">
        <ele>212.75</ele>
        <time>2023-10-17T04:06:00.808Z</time>
      </trkpt>
      <trkpt lat="45.68929938599467" lon="17.67751215957105">
        <ele>212.43</ele>
        <time>2023-10-17T04:06:07.024Z</time>
      </trkpt>
      <trkpt lat="45.68928807042539" lon="17.677521212026477">
        <ele>212.11</ele>
        <time>2023-10-17T04:06:13.240Z</time>
      </trkpt>
      <trkpt lat="45.689276503399014" lon="17.677529761567712">
        <ele>211.79</ele>
        <time>2023-10-17T04:06:19.457Z</time>
      </trkpt>
      <trkpt lat="45.68926493637264" lon="17.677537892013788">
        <ele>211.46</ele>
        <time>2023-10-17T04:06:25.674Z</time>
      </trkpt>
      <trkpt lat="45.68925328552723" lon="17.677545687183738">
        <ele>211.13</ele>
        <time>2023-10-17T04:06:31.892Z</time>
      </trkpt>
      <trkpt lat="45.689241802319884" lon="17.677552979439497">
        <ele>210.8</ele>
        <time>2023-10-17T04:06:38.110Z</time>
      </trkpt>
      <trkpt lat="45.6892304867506" lon="17.67755993641913">
        <ele>210.47</ele>
        <time>2023-10-17T04:06:44.329Z</time>
      </trkpt>
      <trkpt lat="45.68921959027648" lon="17.677566474303603">
        <ele>210.14</ele>
        <time>2023-10-17T04:06:50.548Z</time>
      </trkpt>
      <trkpt lat="45.68920894525945" lon="17.67757259309292">
        <ele>209.8</ele>
        <time>2023-10-17T04:06:56.767Z</time>
      </trkpt>
      <trkpt lat="45.68919913843274" lon="17.677578208968043">
        <ele>209.47</ele>
        <time>2023-10-17T04:07:02.987Z</time>
      </trkpt>
      <trkpt lat="45.68918991833925" lon="17.67758348956704">
        <ele>209.13</ele>
        <time>2023-10-17T04:07:09.207Z</time>
      </trkpt>
      <trkpt lat="45.68918145261705" lon="17.677588434889913">
        <ele>208.79</ele>
        <time>2023-10-17T04:07:15.427Z</time>
      </trkpt>
      <trkpt lat="45.68917332217097" lon="17.677593380212784">
        <ele>208.46</ele>
        <time>2023-10-17T04:07:21.648Z</time>
      </trkpt>
      <trkpt lat="45.689165610820055" lon="17.677598325535655">
        <ele>208.12</ele>
        <time>2023-10-17T04:07:27.869Z</time>
      </trkpt>
      <trkpt lat="45.689158318564296" lon="17.677603270858526">
        <ele>207.79</ele>
        <time>2023-10-17T04:07:34.090Z</time>
      </trkpt>
      <trkpt lat="45.68915136158466" lon="17.677608132362366">
        <ele>207.45</ele>
        <time>2023-10-17T04:07:40.311Z</time>
      </trkpt>
      <trkpt lat="45.68914448842406" lon="17.677612993866205">
        <ele>207.12</ele>
        <time>2023-10-17T04:07:46.533Z</time>
      </trkpt>
      <trkpt lat="45.68913753144443" lon="17.677617771551013">
        <ele>206.79</ele>
        <time>2023-10-17T04:07:52.755Z</time>
      </trkpt>
      <trkpt lat="45.6891305744648" lon="17.67762246541679">
        <ele>206.46</ele>
        <time>2023-10-17T04:07:58.977Z</time>
      </trkpt>
      <trkpt lat="45.6891234498471" lon="17.67762682400644">
        <ele>206.13</ele>
        <time>2023-10-17T04:08:05.200Z</time>
      </trkpt>
      <trkpt lat="45.689116241410375" lon="17.677630931138992">
        <ele>205.8</ele>
        <time>2023-10-17T04:08:11.423Z</time>
      </trkpt>
      <trkpt lat="45.689108949154615" lon="17.677634619176388">
        <ele>205.47</ele>
        <time>2023-10-17T04:08:17.646Z</time>
      </trkpt>
      <trkpt lat="45.689101573079824" lon="17.677637804299593">
        <ele>205.14</ele>
        <time>2023-10-17T04:08:23.869Z</time>
      </trkpt>
      <trkpt lat="45.68909419700503" lon="17.67764057032764">
        <ele>204.82</ele>
        <time>2023-10-17T04:08:30.093Z</time>
      </trkpt>
      <trkpt lat="45.68908682093024" lon="17.677642917260528">
        <ele>204.5</ele>
        <time>2023-10-17T04:08:36.317Z</time>
      </trkpt>
      <trkpt lat="45.68907952867448" lon="17.677644845098257">
        <ele>204.18</ele>
        <time>2023-10-17T04:08:42.541Z</time>
      </trkpt>
      <trkpt lat="45.68907240405679" lon="17.67764643765986">
        <ele>203.87</ele>
        <time>2023-10-17T04:08:48.765Z</time>
      </trkpt>
      <trkpt lat="45.68906536325812" lon="17.677647694945335">
        <ele>203.56</ele>
        <time>2023-10-17T04:08:54.990Z</time>
      </trkpt>
      <trkpt lat="45.68905849009752" lon="17.677648700773716">
        <ele>203.25</ele>
        <time>2023-10-17T04:09:01.215Z</time>
      </trkpt>
      <trkpt lat="45.68905195221305" lon="17.677649622783065">
        <ele>202.94</ele>
        <time>2023-10-17T04:09:07.440Z</time>
      </trkpt>
      <trkpt lat="45.68904558196664" lon="17.677650544792414">
        <ele>202.64</ele>
        <time>2023-10-17T04:09:13.665Z</time>
      </trkpt>
      <trkpt lat="45.68903946317732" lon="17.677651634439826">
        <ele>202.34</ele>
        <time>2023-10-17T04:09:19.890Z</time>
      </trkpt>
      <trkpt lat="45.68903334438801" lon="17.677652975544333">
        <ele>202.04</ele>
        <time>2023-10-17T04:09:26.116Z</time>
      </trkpt>
      <trkpt lat="45.689027309417725" lon="17.677654735744">
        <ele>201.75</ele>
        <time>2023-10-17T04:09:32.342Z</time>
      </trkpt>
      <trkpt lat="45.68902119062841" lon="17.677656915038824">
        <ele>201.46</ele>
        <time>2023-10-17T04:09:38.568Z</time>
      </trkpt>
      <trkpt lat="45.689015071839094" lon="17.677659513428807">
        <ele>201.17</ele>
        <time>2023-10-17T04:09:44.794Z</time>
      </trkpt>
      <trkpt lat="45.689008785411716" lon="17.677662447094917">
        <ele>200.89</ele>
        <time>2023-10-17T04:09:51.020Z</time>
      </trkpt>
      <trkpt lat="45.68900258280337" lon="17.67766554839909">
        <ele>200.61</ele>
        <time>2023-10-17T04:09:57.247Z</time>
      </trkpt>
      <trkpt lat="45.68899646401405" lon="17.67766890116036">
        <ele>200.34</ele>
        <time>2023-10-17T04:10:03.474Z</time>
      </trkpt>
      <trkpt lat="45.6889905128628" lon="17.677672505378723">
        <ele>200.07</ele>
        <time>2023-10-17T04:10:09.701Z</time>
      </trkpt>
      <trkpt lat="45.68898472934961" lon="17.67767619341612">
        <ele>199.8</ele>
        <time>2023-10-17T04:10:15.928Z</time>
      </trkpt>
      <trkpt lat="45.68897911347449" lon="17.677680049091578">
        <ele>199.53</ele>
        <time>2023-10-17T04:10:22.156Z</time>
      </trkpt>
      <trkpt lat="45.68897366523743" lon="17.6776840724051">
        <ele>199.27</ele>
        <time>2023-10-17T04:10:28.384Z</time>
      </trkpt>
      <trkpt lat="45.68896846845746" lon="17.677688179537654">
        <ele>199.01</ele>
        <time>2023-10-17T04:10:34.612Z</time>
      </trkpt>
      <trkpt lat="45.688963271677494" lon="17.677692202851176">
        <ele>198.76</ele>
        <time>2023-10-17T04:10:40.840Z</time>
      </trkpt>
      <trkpt lat="45.688958410173655" lon="17.677696142345667">
        <ele>198.51</ele>
        <time>2023-10-17T04:10:47.068Z</time>
      </trkpt>
      <trkpt lat="45.68895363248885" lon="17.67770024947822">
        <ele>198.26</ele>
        <time>2023-10-17T04:10:53.296Z</time>
      </trkpt>
      <trkpt lat="45.68894885480404" lon="17.677704440429807">
        <ele>198.02</ele>
        <time>2023-10-17T04:10:59.525Z</time>
      </trkpt>
      <trkpt lat="45.688944244757295" lon="17.677708882838488">
        <ele>197.78</ele>
        <time>2023-10-17T04:11:05.754Z</time>
      </trkpt>
      <trkpt lat="45.68893963471055" lon="17.677713660523295">
        <ele>197.54</ele>
        <time>2023-10-17T04:11:11.983Z</time>
      </trkpt>
      <trkpt lat="45.68893485702574" lon="17.67771877348423">
        <ele>197.31</ele>
        <time>2023-10-17T04:11:18.212Z</time>
      </trkpt>
      <trkpt lat="45.688930079340935" lon="17.677724054083228">
        <ele>197.08</ele>
        <time>2023-10-17T04:11:24.441Z</time>
      </trkpt>
      <trkpt lat="45.68892530165613" lon="17.67772950232029">
        <ele>196.85</ele>
        <time>2023-10-17T04:11:30.671Z</time>
      </trkpt>
      <trkpt lat="45.68892060779035" lon="17.677735034376383">
        <ele>196.63</ele>
        <time>2023-10-17T04:11:36.901Z</time>
      </trkpt>
      <trkpt lat="45.68891608156264" lon="17.677740566432476">
        <ele>196.41</ele>
        <time>2023-10-17T04:11:43.131Z</time>
      </trkpt>
      <trkpt lat="45.68891180679202" lon="17.677745930850506">
        <ele>196.19</ele>
        <time>2023-10-17T04:11:49.361Z</time>
      </trkpt>
      <trkpt lat="45.6889077834785" lon="17.677751127630472">
        <ele>195.97</ele>
        <time>2023-10-17T04:11:55.591Z</time>
      </trkpt>
      <trkpt lat="45.6889040954411" lon="17.677756072953343">
        <ele>195.76</ele>
        <time>2023-10-17T04:12:01.822Z</time>
      </trkpt>
      <trkpt lat="45.688900742679834" lon="17.67776076681912">
        <ele>195.55</ele>
        <time>2023-10-17T04:12:08.053Z</time>
      </trkpt>
      <trkpt lat="45.68889772519469" lon="17.6777652092278">
        <ele>195.35</ele>
        <time>2023-10-17T04:12:14.284Z</time>
      </trkpt>
      <trkpt lat="45.68889504298568" lon="17.67776956781745">
        <ele>195.14</ele>
        <time>2023-10-17T04:12:20.515Z</time>
      </trkpt>
      <trkpt lat="45.68889269605279" lon="17.677773758769035">
        <ele>194.94</ele>
        <time>2023-10-17T04:12:26.746Z</time>
      </trkpt>
      <trkpt lat="45.68889043293893" lon="17.677778201177716">
        <ele>194.74</ele>
        <time>2023-10-17T04:12:32.977Z</time>
      </trkpt>
      <trkpt lat="45.68888842128217" lon="17.677782559767365">
        <ele>194.55</ele>
        <time>2023-10-17T04:12:39.208Z</time>
      </trkpt>
      <trkpt lat="45.688886577263474" lon="17.677786918357015">
        <ele>194.35</ele>
        <time>2023-10-17T04:12:45.440Z</time>
      </trkpt>
      <trkpt lat="45.68888490088284" lon="17.67779152840376">
        <ele>194.16</ele>
        <time>2023-10-17T04:12:51.672Z</time>
      </trkpt>
      <trkpt lat="45.688883140683174" lon="17.677796641364694">
        <ele>193.97</ele>
        <time>2023-10-17T04:12:57.904Z</time>
      </trkpt>
      <trkpt lat="45.68888146430254" lon="17.677802089601755">
        <ele>193.79</ele>
        <time>2023-10-17T04:13:04.136Z</time>
      </trkpt>
      <trkpt lat="45.688879787921906" lon="17.67780770547688">
        <ele>193.6</ele>
        <time>2023-10-17T04:13:10.368Z</time>
      </trkpt>
      <trkpt lat="45.68887811154127" lon="17.6778135728091">
        <ele>193.42</ele>
        <time>2023-10-17T04:13:16.600Z</time>
      </trkpt>
      <trkpt lat="45.68887668661773" lon="17.677819272503257">
        <ele>193.24</ele>
        <time>2023-10-17T04:13:22.832Z</time>
      </trkpt>
      <trkpt lat="45.68887551315129" lon="17.677824553102255">
        <ele>193.06</ele>
        <time>2023-10-17T04:13:29.064Z</time>
      </trkpt>
      <trkpt lat="45.68887459114194" lon="17.67782924696803">
        <ele>192.88</ele>
        <time>2023-10-17T04:13:35.297Z</time>
      </trkpt>
      <trkpt lat="45.68887408822775" lon="17.677833018824458">
        <ele>192.71</ele>
        <time>2023-10-17T04:13:41.530Z</time>
      </trkpt>
      <trkpt lat="45.688873920589685" lon="17.677836287766695">
        <ele>192.53</ele>
        <time>2023-10-17T04:13:47.763Z</time>
      </trkpt>
      <trkpt lat="45.688873836770654" lon="17.67783905379474">
        <ele>192.36</ele>
        <time>2023-10-17T04:13:53.996Z</time>
      </trkpt>
      <trkpt lat="45.68887408822775" lon="17.677841233089566">
        <ele>192.19</ele>
        <time>2023-10-17T04:14:00.229Z</time>
      </trkpt>
      <trkpt lat="45.68887450732291" lon="17.677843160927296">
        <ele>192.02</ele>
        <time>2023-10-17T04:14:06.462Z</time>
      </trkpt>
      <trkpt lat="45.6888750102371" lon="17.67784492112696">
        <ele>191.85</ele>
        <time>2023-10-17T04:14:12.695Z</time>
      </trkpt>
      <trkpt lat="45.68887559697032" lon="17.677846681326628">
        <ele>191.69</ele>
        <time>2023-10-17T04:14:18.928Z</time>
      </trkpt>
      <trkpt lat="45.68887601606548" lon="17.677848860621452">
        <ele>191.52</ele>
        <time>2023-10-17T04:14:25.161Z</time>
      </trkpt>
      <trkpt lat="45.68887618370354" lon="17.677851542830467">
        <ele>191.36</ele>
        <time>2023-10-17T04:14:31.394Z</time>
      </trkpt>
      <trkpt lat="45.68887609988451" lon="17.677854979410768">
        <ele>191.2</ele>
        <time>2023-10-17T04:14:37.627Z</time>
      </trkpt>
      <trkpt lat="45.68887568078935" lon="17.67785942181945">
        <ele>191.04</ele>
        <time>2023-10-17T04:14:43.860Z</time>
      </trkpt>
      <trkpt lat="45.6888750102371" lon="17.67786495387554">
        <ele>190.88</ele>
        <time>2023-10-17T04:14:50.093Z</time>
      </trkpt>
      <trkpt lat="45.68887417204678" lon="17.677871324121952">
        <ele>190.72</ele>
        <time>2023-10-17T04:14:56.327Z</time>
      </trkpt>
      <trkpt lat="45.68887266330421" lon="17.677878448739648">
        <ele>190.56</ele>
        <time>2023-10-17T04:15:02.561Z</time>
      </trkpt>
      <trkpt lat="45.688870484009385" lon="17.677886076271534">
        <ele>190.41</ele>
        <time>2023-10-17T04:15:08.795Z</time>
      </trkpt>
      <trkpt lat="45.68886729888618" lon="17.67789370380342">
        <ele>190.25</ele>
        <time>2023-10-17T04:15:15.029Z</time>
      </trkpt>
      <trkpt lat="45.688863191753626" lon="17.677900912240148">
        <ele>190.1</ele>
        <time>2023-10-17T04:15:21.263Z</time>
      </trkpt>
      <trkpt lat="45.68885816261172" lon="17.67790736630559">
        <ele>189.95</ele>
        <time>2023-10-17T04:15:27.498Z</time>
      </trkpt>
      <trkpt lat="45.68885221146047" lon="17.677912479266524">
        <ele>189.8</ele>
        <time>2023-10-17T04:15:33.733Z</time>
      </trkpt>
      <trkpt lat="45.68884575739503" lon="17.677916418761015">
        <ele>189.65</ele>
        <time>2023-10-17T04:15:39.968Z</time>
      </trkpt>
      <trkpt lat="45.688838716596365" lon="17.677918514236808">
        <ele>189.51</ele>
        <time>2023-10-17T04:15:46.203Z</time>
      </trkpt>
      <trkpt lat="45.68883108906448" lon="17.67791910097003">
        <ele>189.37</ele>
        <time>2023-10-17T04:15:52.439Z</time>
      </trkpt>
      <trkpt lat="45.688823126256466" lon="17.677918933331966">
        <ele>189.23</ele>
        <time>2023-10-17T04:15:58.675Z</time>
      </trkpt>
      <trkpt lat="45.688814828172326" lon="17.67791859805584">
        <ele>189.09</ele>
        <time>2023-10-17T04:16:04.911Z</time>
      </trkpt>
      <trkpt lat="45.688806530088186" lon="17.67791817896068">
        <ele>188.96</ele>
        <time>2023-10-17T04:16:11.147Z</time>
      </trkpt>
      <trkpt lat="45.6887989025563" lon="17.67791817896068">
        <ele>188.83</ele>
        <time>2023-10-17T04:16:17.384Z</time>
      </trkpt>
      <trkpt lat="45.68879152648151" lon="17.67791759222746">
        <ele>188.71</ele>
        <time>2023-10-17T04:16:23.621Z</time>
      </trkpt>
      <trkpt lat="45.68878473713994" lon="17.67791616730392">
        <ele>188.59</ele>
        <time>2023-10-17T04:16:29.858Z</time>
      </trkpt>
      <trkpt lat="45.68877836689353" lon="17.677914574742317">
        <ele>188.47</ele>
        <time>2023-10-17T04:16:36.095Z</time>
      </trkpt>
      <trkpt lat="45.68877258338034" lon="17.677912646904588">
        <ele>188.36</ele>
        <time>2023-10-17T04:16:42.333Z</time>
      </trkpt>
      <trkpt lat="45.688766883686185" lon="17.67791038379073">
        <ele>188.26</ele>
        <time>2023-10-17T04:16:48.571Z</time>
      </trkpt>
      <trkpt lat="45.68876143544912" lon="17.677908120676875">
        <ele>188.16</ele>
        <time>2023-10-17T04:16:54.809Z</time>
      </trkpt>
      <trkpt lat="45.6887555681169" lon="17.677905773743987">
        <ele>188.06</ele>
        <time>2023-10-17T04:17:01.047Z</time>
      </trkpt>
      <trkpt lat="45.68874944932759" lon="17.677902253344655">
        <ele>187.97</ele>
        <time>2023-10-17T04:17:07.285Z</time>
      </trkpt>
      <trkpt lat="45.68874282762408" lon="17.67789755947888">
        <ele>187.89</ele>
        <time>2023-10-17T04:17:13.524Z</time>
      </trkpt>
      <trkpt lat="45.68873570300639" lon="17.677891440689564">
        <ele>187.81</ele>
        <time>2023-10-17T04:17:19.763Z</time>
      </trkpt>
      <trkpt lat="45.68872790783644" lon="17.67788347788155">
        <ele>187.74</ele>
        <time>2023-10-17T04:17:26.002Z</time>
      </trkpt>
      <trkpt lat="45.68871969357133" lon="17.677875012159348">
        <ele>187.68</ele>
        <time>2023-10-17T04:17:32.242Z</time>
      </trkpt>
      <trkpt lat="45.688711144030094" lon="17.677866127341986">
        <ele>187.62</ele>
        <time>2023-10-17T04:17:38.482Z</time>
      </trkpt>
      <trkpt lat="45.68870225921273" lon="17.677856655791402">
        <ele>187.57</ele>
        <time>2023-10-17T04:17:44.722Z</time>
      </trkpt>
      <trkpt lat="45.68869320675731" lon="17.677846429869533">
        <ele>187.53</ele>
        <time>2023-10-17T04:17:50.963Z</time>
      </trkpt>
      <trkpt lat="45.68868423812091" lon="17.677835701033473">
        <ele>187.49</ele>
        <time>2023-10-17T04:17:57.204Z</time>
      </trkpt>
      <trkpt lat="45.68867568857968" lon="17.677824217826128">
        <ele>187.46</ele>
        <time>2023-10-17T04:18:03.445Z</time>
      </trkpt>
      <trkpt lat="45.688667725771666" lon="17.67781206406653">
        <ele>187.44</ele>
        <time>2023-10-17T04:18:09.687Z</time>
      </trkpt>
      <trkpt lat="45.68866051733494" lon="17.677799072116613">
        <ele>187.43</ele>
        <time>2023-10-17T04:18:15.929Z</time>
      </trkpt>
      <trkpt lat="45.688653979450464" lon="17.677784990519285">
        <ele>187.43</ele>
        <time>2023-10-17T04:18:22.172Z</time>
      </trkpt>
      <trkpt lat="45.688648195937276" lon="17.677769986912608">
        <ele>187.44</ele>
        <time>2023-10-17T04:18:28.415Z</time>
      </trkpt>
      <trkpt lat="45.68864316679537" lon="17.677754061296582">
        <ele>187.46</ele>
        <time>2023-10-17T04:18:34.658Z</time>
      </trkpt>
      <trkpt lat="45.68863897584379" lon="17.677737129852176">
        <ele>187.48</ele>
        <time>2023-10-17T04:18:40.902Z</time>
      </trkpt>
      <trkpt lat="45.68863562308252" lon="17.677719527855515">
        <ele>187.52</ele>
        <time>2023-10-17T04:18:47.146Z</time>
      </trkpt>
      <trkpt lat="45.688633024692535" lon="17.67770167440176">
        <ele>187.56</ele>
        <time>2023-10-17T04:18:53.391Z</time>
      </trkpt>
      <trkpt lat="45.68863118067384" lon="17.677683485671878">
        <ele>187.62</ele>
        <time>2023-10-17T04:18:59.636Z</time>
      </trkpt>
      <trkpt lat="45.68862992338836" lon="17.677665129303932">
        <ele>187.68</ele>
        <time>2023-10-17T04:19:05.882Z</time>
      </trkpt>
      <trkpt lat="45.688629085198045" lon="17.677646772935987">
        <ele>187.76</ele>
        <time>2023-10-17T04:19:12.128Z</time>
      </trkpt>
      <trkpt lat="45.68862883374095" lon="17.67762841656804">
        <ele>187.84</ele>
        <time>2023-10-17T04:19:18.374Z</time>
      </trkpt>
      <trkpt lat="45.68862900137901" lon="17.67761022783816">
        <ele>187.94</ele>
        <time>2023-10-17T04:19:24.621Z</time>
      </trkpt>
      <trkpt lat="45.68862967193127" lon="17.677592374384403">
        <ele>188.04</ele>
        <time>2023-10-17T04:19:30.868Z</time>
      </trkpt>
      <trkpt lat="45.688631096854806" lon="17.67757468856871">
        <ele>188.15</ele>
        <time>2023-10-17T04:19:37.116Z</time>
      </trkpt>
      <trkpt lat="45.68863310851157" lon="17.677557338029146">
        <ele>188.27</ele>
        <time>2023-10-17T04:19:43.364Z</time>
      </trkpt>
      <trkpt lat="45.68863579072058" lon="17.67754040658474">
        <ele>188.41</ele>
        <time>2023-10-17T04:19:49.612Z</time>
      </trkpt>
      <trkpt lat="45.68863914348185" lon="17.67752381041646">
        <ele>188.56</ele>
        <time>2023-10-17T04:19:55.861Z</time>
      </trkpt>
      <trkpt lat="45.688643250614405" lon="17.677507381886244">
        <ele>188.71</ele>
        <time>2023-10-17T04:20:02.110Z</time>
      </trkpt>
      <trkpt lat="45.68864794448018" lon="17.677491372451186">
        <ele>188.87</ele>
        <time>2023-10-17T04:20:08.360Z</time>
      </trkpt>
      <trkpt lat="45.68865314126015" lon="17.677475530654192">
        <ele>189.04</ele>
        <time>2023-10-17T04:20:14.610Z</time>
      </trkpt>
      <trkpt lat="45.68865875713527" lon="17.677460107952356">
        <ele>189.22</ele>
        <time>2023-10-17T04:20:20.861Z</time>
      </trkpt>
      <trkpt lat="45.68866462446749" lon="17.677444769069552">
        <ele>189.41</ele>
        <time>2023-10-17T04:20:27.112Z</time>
      </trkpt>
      <trkpt lat="45.68867074325681" lon="17.67742951400578">
        <ele>189.61</ele>
        <time>2023-10-17T04:20:33.363Z</time>
      </trkpt>
      <trkpt lat="45.688676945865154" lon="17.677414510399103">
        <ele>189.82</ele>
        <time>2023-10-17T04:20:39.615Z</time>
      </trkpt>
      <trkpt lat="45.68868306465447" lon="17.677399590611458">
        <ele>190.04</ele>
        <time>2023-10-17T04:20:45.867Z</time>
      </trkpt>
      <trkpt lat="45.688689183443785" lon="17.677384754642844">
        <ele>190.26</ele>
        <time>2023-10-17T04:20:52.120Z</time>
      </trkpt>
      <trkpt lat="45.68869513459504" lon="17.677370002493262">
        <ele>190.49</ele>
        <time>2023-10-17T04:20:58.373Z</time>
      </trkpt>
      <trkpt lat="45.68870083428919" lon="17.67735525034368">
        <ele>190.73</ele>
        <time>2023-10-17T04:21:04.626Z</time>
      </trkpt>
      <trkpt lat="45.688706282526255" lon="17.67734058201313">
        <ele>190.97</ele>
        <time>2023-10-17T04:21:10.880Z</time>
      </trkpt>
      <trkpt lat="45.68871156312525" lon="17.67732582986355">
        <ele>191.22</ele>
        <time>2023-10-17T04:21:17.134Z</time>
      </trkpt>
      <trkpt lat="45.68871667608619" lon="17.677311077713966">
        <ele>191.48</ele>
        <time>2023-10-17T04:21:23.388Z</time>
      </trkpt>
      <trkpt lat="45.68872162140906" lon="17.677296241745353">
        <ele>191.74</ele>
        <time>2023-10-17T04:21:29.643Z</time>
      </trkpt>
      <trkpt lat="45.6887264829129" lon="17.67728140577674">
        <ele>192.0</ele>
        <time>2023-10-17T04:21:35.898Z</time>
      </trkpt>
      <trkpt lat="45.68873134441674" lon="17.677266653627157">
        <ele>192.27</ele>
        <time>2023-10-17T04:21:42.154Z</time>
      </trkpt>
      <trkpt lat="45.688736038282514" lon="17.677251901477575">
        <ele>192.55</ele>
        <time>2023-10-17T04:21:48.410Z</time>
      </trkpt>
      <trkpt lat="45.688740564510226" lon="17.677237316966057">
        <ele>192.83</ele>
        <time>2023-10-17T04:21:54.666Z</time>
      </trkpt>
      <trkpt lat="45.688744923099875" lon="17.6772229000926">
        <ele>193.12</ele>
        <time>2023-10-17T04:22:00.923Z</time>
      </trkpt>
      <trkpt lat="45.68874919787049" lon="17.67720856703818">
        <ele>193.41</ele>
        <time>2023-10-17T04:22:07.180Z</time>
      </trkpt>
      <trkpt lat="45.688753221184015" lon="17.677194233983755">
        <ele>193.7</ele>
        <time>2023-10-17T04:22:13.437Z</time>
      </trkpt>
      <trkpt lat="45.68875724449754" lon="17.677179900929332">
        <ele>194.0</ele>
        <time>2023-10-17T04:22:19.695Z</time>
      </trkpt>
      <trkpt lat="45.68876118399203" lon="17.677165484055877">
        <ele>194.3</ele>
        <time>2023-10-17T04:22:25.953Z</time>
      </trkpt>
      <trkpt lat="45.68876503966749" lon="17.67715106718242">
        <ele>194.6</ele>
        <time>2023-10-17T04:22:32.212Z</time>
      </trkpt>
      <trkpt lat="45.68876872770488" lon="17.677136566489935">
        <ele>194.9</ele>
        <time>2023-10-17T04:22:38.471Z</time>
      </trkpt>
      <trkpt lat="45.68877241574228" lon="17.677122065797448">
        <ele>195.21</ele>
        <time>2023-10-17T04:22:44.730Z</time>
      </trkpt>
      <trkpt lat="45.68877601996064" lon="17.67710748128593">
        <ele>195.52</ele>
        <time>2023-10-17T04:22:50.990Z</time>
      </trkpt>
      <trkpt lat="45.68877970799804" lon="17.67709281295538">
        <ele>195.82</ele>
        <time>2023-10-17T04:22:57.250Z</time>
      </trkpt>
      <trkpt lat="45.688783563673496" lon="17.677077893167734">
        <ele>196.13</ele>
        <time>2023-10-17T04:23:03.510Z</time>
      </trkpt>
      <trkpt lat="45.68878767080605" lon="17.677062889561057">
        <ele>196.43</ele>
        <time>2023-10-17T04:23:09.771Z</time>
      </trkpt>
      <trkpt lat="45.688791777938604" lon="17.677047718316317">
        <ele>196.74</ele>
        <time>2023-10-17T04:23:16.032Z</time>
      </trkpt>
      <trkpt lat="45.68879605270922" lon="17.67703229561448">
        <ele>197.04</ele>
        <time>2023-10-17T04:23:22.294Z</time>
      </trkpt>
      <trkpt lat="45.68880041129887" lon="17.677016872912645">
        <ele>197.34</ele>
        <time>2023-10-17T04:23:28.556Z</time>
      </trkpt>
      <trkpt lat="45.68880460225046" lon="17.677001282572746">
        <ele>197.64</ele>
        <time>2023-10-17T04:23:34.818Z</time>
      </trkpt>
      <trkpt lat="45.68880879320204" lon="17.676985608413815">
        <ele>197.95</ele>
        <time>2023-10-17T04:23:41.081Z</time>
      </trkpt>
      <trkpt lat="45.68881298415363" lon="17.67696976661682">
        <ele>198.25</ele>
        <time>2023-10-17T04:23:47.344Z</time>
      </trkpt>
      <trkpt lat="45.68881709128618" lon="17.676953924819827">
        <ele>198.55</ele>
        <time>2023-10-17T04:23:53.607Z</time>
      </trkpt>
      <trkpt lat="45.688821114599705" lon="17.67693791538477">
        <ele>198.84</ele>
        <time>2023-10-17T04:23:59.871Z</time>
      </trkpt>
      <trkpt lat="45.68882488645613" lon="17.67692182213068">
        <ele>199.13</ele>
        <time>2023-10-17T04:24:06.135Z</time>
      </trkpt>
      <trkpt lat="45.688828406855464" lon="17.67690564505756">
        <ele>199.42</ele>
        <time>2023-10-17T04:24:12.400Z</time>
      </trkpt>
      <trkpt lat="45.688831424340606" lon="17.676889384165406">
        <ele>199.7</ele>
        <time>2023-10-17T04:24:18.665Z</time>
      </trkpt>
      <trkpt lat="45.68883402273059" lon="17.67687295563519">
        <ele>199.97</ele>
        <time>2023-10-17T04:24:24.930Z</time>
      </trkpt>
      <trkpt lat="45.68883611820638" lon="17.676856527104974">
        <ele>200.24</ele>
        <time>2023-10-17T04:24:31.196Z</time>
      </trkpt>
      <trkpt lat="45.68883787840605" lon="17.67684026621282">
        <ele>200.5</ele>
        <time>2023-10-17T04:24:37.462Z</time>
      </trkpt>
      <trkpt lat="45.68883905187249" lon="17.67682417295873">
        <ele>200.75</ele>
        <time>2023-10-17T04:24:43.729Z</time>
      </trkpt>
      <trkpt lat="45.68883980624378" lon="17.676808247342706">
        <ele>201.0</ele>
        <time>2023-10-17T04:24:49.996Z</time>
      </trkpt>
      <trkpt lat="45.68884005770087" lon="17.676792657002807">
        <ele>201.24</ele>
        <time>2023-10-17T04:24:56.263Z</time>
      </trkpt>
      <trkpt lat="45.688839722424746" lon="17.676777318120003">
        <ele>201.47</ele>
        <time>2023-10-17T04:25:02.531Z</time>
      </trkpt>
      <trkpt lat="45.68883896805346" lon="17.676762398332357">
        <ele>201.7</ele>
        <time>2023-10-17T04:25:08.799Z</time>
      </trkpt>
      <trkpt lat="45.68883762694895" lon="17.67674781382084">
        <ele>201.92</ele>
        <time>2023-10-17T04:25:15.067Z</time>
      </trkpt>
      <trkpt lat="45.68883603438735" lon="17.676733816042542">
        <ele>202.13</ele>
        <time>2023-10-17T04:25:21.336Z</time>
      </trkpt>
      <trkpt lat="45.688833855092525" lon="17.676720321178436">
        <ele>202.33</ele>
        <time>2023-10-17T04:25:27.605Z</time>
      </trkpt>
      <trkpt lat="45.68883125670254" lon="17.676707580685616">
        <ele>202.53</ele>
        <time>2023-10-17T04:25:33.874Z</time>
      </trkpt>
      <trkpt lat="45.68882815539837" lon="17.676695343106985">
        <ele>202.72</ele>
        <time>2023-10-17T04:25:40.144Z</time>
      </trkpt>
      <trkpt lat="45.68882438354194" lon="17.67668377608061">
        <ele>202.9</ele>
        <time>2023-10-17T04:25:46.414Z</time>
      </trkpt>
      <trkpt lat="45.68882002495229" lon="17.676672711968422">
        <ele>203.07</ele>
        <time>2023-10-17T04:25:52.684Z</time>
      </trkpt>
      <trkpt lat="45.68881516344845" lon="17.67666231840849">
        <ele>203.23</ele>
        <time>2023-10-17T04:25:58.955Z</time>
      </trkpt>
      <trkpt lat="45.68880979903042" lon="17.676652427762747">
        <ele>203.38</ele>
        <time>2023-10-17T04:26:05.226Z</time>
      </trkpt>
      <trkpt lat="45.68880409933627" lon="17.676643207669258">
        <ele>203.52</ele>
        <time>2023-10-17T04:26:11.497Z</time>
      </trkpt>
      <trkpt lat="45.68879798054695" lon="17.67663449048996">
        <ele>203.65</ele>
        <time>2023-10-17T04:26:17.768Z</time>
      </trkpt>
      <trkpt lat="45.68879144266248" lon="17.676626360043883">
        <ele>203.78</ele>
        <time>2023-10-17T04:26:24.040Z</time>
      </trkpt>
      <trkpt lat="45.68878465332091" lon="17.676618564873934">
        <ele>203.89</ele>
        <time>2023-10-17T04:26:30.312Z</time>
      </trkpt>
      <trkpt lat="45.688777696341276" lon="17.67661102116108">
        <ele>203.99</ele>
        <time>2023-10-17T04:26:36.584Z</time>
      </trkpt>
      <trkpt lat="45.68877065554261" lon="17.676603812724352">
        <ele>204.08</ele>
        <time>2023-10-17T04:26:42.857Z</time>
      </trkpt>
      <trkpt lat="45.68876378238201" lon="17.67659685574472">
        <ele>204.16</ele>
        <time>2023-10-17T04:26:49.130Z</time>
      </trkpt>
      <trkpt lat="45.688757076859474" lon="17.676590150222182">
        <ele>204.23</ele>
        <time>2023-10-17T04:26:55.403Z</time>
      </trkpt>
      <trkpt lat="45.688750287517905" lon="17.676583779975772">
        <ele>204.29</ele>
        <time>2023-10-17T04:27:01.676Z</time>
      </trkpt>
      <trkpt lat="45.688743498176336" lon="17.67657782882452">
        <ele>204.34</ele>
        <time>2023-10-17T04:27:07.950Z</time>
      </trkpt>
      <trkpt lat="45.688736541196704" lon="17.676572296768427">
        <ele>204.38</ele>
        <time>2023-10-17T04:27:14.224Z</time>
      </trkpt>
      <trkpt lat="45.688729332759976" lon="17.67656751908362">
        <ele>204.41</ele>
        <time>2023-10-17T04:27:20.498Z</time>
      </trkpt>
      <trkpt lat="45.688721872866154" lon="17.676563411951065">
        <ele>204.42</ele>
        <time>2023-10-17T04:27:26.772Z</time>
      </trkpt>
      <trkpt lat="45.688714077696204" lon="17.67656031064689">
        <ele>204.43</ele>
        <time>2023-10-17T04:27:33.047Z</time>
      </trkpt>
      <trkpt lat="45.68870594725013" lon="17.6765582151711">
        <ele>204.42</ele>
        <time>2023-10-17T04:27:39.322Z</time>
      </trkpt>
      <trkpt lat="45.68869739770889" lon="17.67655729316175">
        <ele>204.41</ele>
        <time>2023-10-17T04:27:45.597Z</time>
      </trkpt>
      <trkpt lat="45.6886884290725" lon="17.676557460799813">
        <ele>204.38</ele>
        <time>2023-10-17T04:27:51.873Z</time>
      </trkpt>
      <trkpt lat="45.68867912515998" lon="17.67655880190432">
        <ele>204.34</ele>
        <time>2023-10-17T04:27:58.149Z</time>
      </trkpt>
      <trkpt lat="45.68866948597133" lon="17.676561065018177">
        <ele>204.3</ele>
        <time>2023-10-17T04:28:04.425Z</time>
      </trkpt>
      <trkpt lat="45.68865976296365" lon="17.67656416632235">
        <ele>204.24</ele>
        <time>2023-10-17T04:28:10.702Z</time>
      </trkpt>
      <trkpt lat="45.68865020759404" lon="17.67656760290265">
        <ele>204.17</ele>
        <time>2023-10-17T04:28:16.979Z</time>
      </trkpt>
      <trkpt lat="45.68864090368152" lon="17.676571207121015">
        <ele>204.09</ele>
        <time>2023-10-17T04:28:23.256Z</time>
      </trkpt>
      <trkpt lat="45.68863277323544" lon="17.676574224606156">
        <ele>204.0</ele>
        <time>2023-10-17T04:28:29.534Z</time>
      </trkpt>
      <trkpt lat="45.688625732436776" lon="17.676576571539044">
        <ele>203.91</ele>
        <time>2023-10-17T04:28:35.812Z</time>
      </trkpt>
      <trkpt lat="45.68861994892359" lon="17.676578918471932">
        <ele>203.8</ele>
        <time>2023-10-17T04:28:42.090Z</time>
      </trkpt>
      <trkpt lat="45.68861517123878" lon="17.67658118158579">
        <ele>203.68</ele>
        <time>2023-10-17T04:28:48.368Z</time>
      </trkpt>
      <trkpt lat="45.68861139938235" lon="17.67658319324255">
        <ele>203.56</ele>
        <time>2023-10-17T04:28:54.646Z</time>
      </trkpt>
      <trkpt lat="45.68860829807818" lon="17.67658512108028">
        <ele>203.43</ele>
        <time>2023-10-17T04:29:00.924Z</time>
      </trkpt>
      <trkpt lat="45.688605699688196" lon="17.676586965098977">
        <ele>203.29</ele>
        <time>2023-10-17T04:29:07.202Z</time>
      </trkpt>
      <trkpt lat="45.688603688031435" lon="17.676588892936707">
        <ele>203.14</ele>
        <time>2023-10-17T04:29:13.481Z</time>
      </trkpt>
      <trkpt lat="45.688601676374674" lon="17.6765909884125">
        <ele>202.98</ele>
        <time>2023-10-17T04:29:19.760Z</time>
      </trkpt>
      <trkpt lat="45.68859966471791" lon="17.676593586802483">
        <ele>202.81</ele>
        <time>2023-10-17T04:29:26.039Z</time>
      </trkpt>
      <trkpt lat="45.688597317785025" lon="17.676596771925688">
        <ele>202.64</ele>
        <time>2023-10-17T04:29:32.318Z</time>
      </trkpt>
      <trkpt lat="45.68859371356666" lon="17.67660121433437">
        <ele>202.46</ele>
        <time>2023-10-17T04:29:38.597Z</time>
      </trkpt>
      <trkpt lat="45.688588600605726" lon="17.676606746390462">
        <ele>202.26</ele>
        <time>2023-10-17T04:29:44.876Z</time>
      </trkpt>
      <trkpt lat="45.688582146540284" lon="17.67661252990365">
        <ele>202.06</ele>
        <time>2023-10-17T04:29:51.155Z</time>
      </trkpt>
      <trkpt lat="45.6885742675513" lon="17.676618564873934">
        <ele>201.86</ele>
        <time>2023-10-17T04:29:57.435Z</time>
      </trkpt>
      <trkpt lat="45.68856521509588" lon="17.67662476748228">
        <ele>201.64</ele>
        <time>2023-10-17T04:30:03.715Z</time>
      </trkpt>
      <trkpt lat="45.6885552406311" lon="17.676630970090628">
        <ele>201.42</ele>
        <time>2023-10-17T04:30:09.995Z</time>
      </trkpt>
      <trkpt lat="45.68854434415698" lon="17.676637256518006">
        <ele>201.19</ele>
        <time>2023-10-17T04:30:16.276Z</time>
      </trkpt>
      <trkpt lat="45.68853260949254" lon="17.676643459126353">
        <ele>200.95</ele>
        <time>2023-10-17T04:30:22.557Z</time>
      </trkpt>
      <trkpt lat="45.68852037191391" lon="17.67664957791567">
        <ele>200.71</ele>
        <time>2023-10-17T04:30:28.839Z</time>
      </trkpt>
      <trkpt lat="45.68850779905915" lon="17.676655277609825">
        <ele>200.46</ele>
        <time>2023-10-17T04:30:35.121Z</time>
      </trkpt>
      <trkpt lat="45.68849531002343" lon="17.676660642027855">
        <ele>200.21</ele>
        <time>2023-10-17T04:30:41.404Z</time>
      </trkpt>
      <trkpt lat="45.68848332390189" lon="17.676665671169758">
        <ele>199.95</ele>
        <time>2023-10-17T04:30:47.687Z</time>
      </trkpt>
      <trkpt lat="45.68847209215164" lon="17.676670281216502">
        <ele>199.69</ele>
        <time>2023-10-17T04:30:53.970Z</time>
      </trkpt>
      <trkpt lat="45.68846178241074" lon="17.67667463980615">
        <ele>199.42</ele>
        <time>2023-10-17T04:31:00.254Z</time>
      </trkpt>
      <trkpt lat="45.68845256231725" lon="17.676678579300642">
        <ele>199.15</ele>
        <time>2023-10-17T04:31:06.538Z</time>
      </trkpt>
      <trkpt lat="45.68844426423311" lon="17.676682267338037">
        <ele>198.88</ele>
        <time>2023-10-17T04:31:12.822Z</time>
      </trkpt>
      <trkpt lat="45.688437055796385" lon="17.676685452461243">
        <ele>198.6</ele>
        <time>2023-10-17T04:31:19.107Z</time>
      </trkpt>
      <trkpt lat="45.6884310208261" lon="17.676688386127353">
        <ele>198.32</ele>
        <time>2023-10-17T04:31:25.392Z</time>
      </trkpt>
      <trkpt lat="45.68842607550323" lon="17.676690984517336">
        <ele>198.04</ele>
        <time>2023-10-17T04:31:31.677Z</time>
      </trkpt>
      <trkpt lat="45.688421884551644" lon="17.67669316381216">
        <ele>197.75</ele>
        <time>2023-10-17T04:31:37.962Z</time>
      </trkpt>
      <trkpt lat="45.68841828033328" lon="17.67669509164989">
        <ele>197.46</ele>
        <time>2023-10-17T04:31:44.247Z</time>
      </trkpt>
      <trkpt lat="45.68841484375298" lon="17.676696768030524">
        <ele>197.17</ele>
        <time>2023-10-17T04:31:50.532Z</time>
      </trkpt>
      <trkpt lat="45.68841132335365" lon="17.676698276773095">
        <ele>196.87</ele>
        <time>2023-10-17T04:31:56.817Z</time>
      </trkpt>
      <trkpt lat="45.68840746767819" lon="17.676699785515666">
        <ele>196.58</ele>
        <time>2023-10-17T04:32:03.103Z</time>
      </trkpt>
      <trkpt lat="45.68840319290757" lon="17.676701545715332">
        <ele>196.28</ele>
        <time>2023-10-17T04:32:09.389Z</time>
      </trkpt>
      <trkpt lat="45.688398415222764" lon="17.67670347355306">
        <ele>195.98</ele>
        <time>2023-10-17T04:32:15.675Z</time>
      </trkpt>
      <trkpt lat="45.688393134623766" lon="17.67670590430498">
        <ele>195.67</ele>
        <time>2023-10-17T04:32:21.961Z</time>
      </trkpt>
      <trkpt lat="45.688387183472514" lon="17.676708921790123">
        <ele>195.37</ele>
        <time>2023-10-17T04:32:28.247Z</time>
      </trkpt>
      <trkpt lat="45.68838047794998" lon="17.67671260982752">
        <ele>195.06</ele>
        <time>2023-10-17T04:32:34.534Z</time>
      </trkpt>
      <trkpt lat="45.688373101875186" lon="17.676716968417168">
        <ele>194.76</ele>
        <time>2023-10-17T04:32:40.821Z</time>
      </trkpt>
      <trkpt lat="45.68836505524814" lon="17.676722332835197">
        <ele>194.45</ele>
        <time>2023-10-17T04:32:47.108Z</time>
      </trkpt>
      <trkpt lat="45.68835658952594" lon="17.67672878690064">
        <ele>194.14</ele>
        <time>2023-10-17T04:32:53.395Z</time>
      </trkpt>
      <trkpt lat="45.688347620889544" lon="17.676736246794462">
        <ele>193.83</ele>
        <time>2023-10-17T04:32:59.683Z</time>
      </trkpt>
      <trkpt lat="45.68833856843412" lon="17.676744544878602">
        <ele>193.52</ele>
        <time>2023-10-17T04:33:05.971Z</time>
      </trkpt>
      <trkpt lat="45.68832918070257" lon="17.676753513514996">
        <ele>193.21</ele>
        <time>2023-10-17T04:33:12.260Z</time>
      </trkpt>
      <trkpt lat="45.688319792971015" lon="17.676762901246548">
        <ele>192.9</ele>
        <time>2023-10-17T04:33:18.549Z</time>
      </trkpt>
      <trkpt lat="45.688310069963336" lon="17.67677270807326">
        <ele>192.6</ele>
        <time>2023-10-17T04:33:24.838Z</time>
      </trkpt>
      <trkpt lat="45.688300263136625" lon="17.676782766357064">
        <ele>192.29</ele>
        <time>2023-10-17T04:33:31.128Z</time>
      </trkpt>
      <trkpt lat="45.688290456309915" lon="17.676792992278934">
        <ele>191.98</ele>
        <time>2023-10-17T04:33:37.418Z</time>
      </trkpt>
      <trkpt lat="45.68828039802611" lon="17.676803385838866">
        <ele>191.68</ele>
        <time>2023-10-17T04:33:43.709Z</time>
      </trkpt>
      <trkpt lat="45.68827025592327" lon="17.676813947036862">
        <ele>191.38</ele>
        <time>2023-10-17T04:33:50.000Z</time>
      </trkpt>
      <trkpt lat="45.688260113820434" lon="17.67682450823486">
        <ele>191.08</ele>
        <time>2023-10-17T04:33:56.291Z</time>
      </trkpt>
      <trkpt lat="45.688249887898564" lon="17.676835153251886">
        <ele>190.78</ele>
        <time>2023-10-17T04:34:02.583Z</time>
      </trkpt>
      <trkpt lat="45.68823974579573" lon="17.676845714449883">
        <ele>190.49</ele>
        <time>2023-10-17T04:34:08.875Z</time>
      </trkpt>
      <trkpt lat="45.68822926841676" lon="17.676856443285942">
        <ele>190.2</ele>
        <time>2023-10-17T04:34:15.168Z</time>
      </trkpt>
      <trkpt lat="45.688218707218766" lon="17.67686708830297">
        <ele>189.91</ele>
        <time>2023-10-17T04:34:21.461Z</time>
      </trkpt>
      <trkpt lat="45.68820781074464" lon="17.676877565681934">
        <ele>189.63</ele>
        <time>2023-10-17T04:34:27.755Z</time>
      </trkpt>
      <trkpt lat="45.688196662813425" lon="17.676887875422835">
        <ele>189.34</ele>
        <time>2023-10-17T04:34:34.049Z</time>
      </trkpt>
      <trkpt lat="45.68818526342511" lon="17.676898101344705">
        <ele>189.07</ele>
        <time>2023-10-17T04:34:40.343Z</time>
      </trkpt>
      <trkpt lat="45.68817352876067" lon="17.676908327266574">
        <ele>188.79</ele>
        <time>2023-10-17T04:34:46.638Z</time>
      </trkpt>
      <trkpt lat="45.6881617102772" lon="17.67691846936941">
        <ele>188.52</ele>
        <time>2023-10-17T04:34:52.933Z</time>
      </trkpt>
      <trkpt lat="45.68814989179373" lon="17.676928527653217">
        <ele>188.26</ele>
        <time>2023-10-17T04:34:59.229Z</time>
      </trkpt>
      <trkpt lat="45.688137989491224" lon="17.67693850211799">
        <ele>188.0</ele>
        <time>2023-10-17T04:35:05.525Z</time>
      </trkpt>
      <trkpt lat="45.68812608718872" lon="17.67694822512567">
        <ele>187.75</ele>
        <time>2023-10-17T04:35:11.822Z</time>
      </trkpt>
      <trkpt lat="45.68811426870525" lon="17.676957780495286">
        <ele>187.5</ele>
        <time>2023-10-17T04:35:18.119Z</time>
      </trkpt>
      <trkpt lat="45.68810261785984" lon="17.676966916769743">
        <ele>187.25</ele>
        <time>2023-10-17T04:35:24.417Z</time>
      </trkpt>
      <trkpt lat="45.688091134652495" lon="17.676975717768073">
        <ele>187.02</ele>
        <time>2023-10-17T04:35:30.715Z</time>
      </trkpt>
      <trkpt lat="45.68808007054031" lon="17.67698384821415">
        <ele>186.78</ele>
        <time>2023-10-17T04:35:37.013Z</time>
      </trkpt>
      <trkpt lat="45.68806934170425" lon="17.676991391927004">
        <ele>186.56</ele>
        <time>2023-10-17T04:35:43.312Z</time>
      </trkpt>
      <trkpt lat="45.68805928342044" lon="17.67699809744954">
        <ele>186.34</ele>
        <time>2023-10-17T04:35:49.611Z</time>
      </trkpt>
      <trkpt lat="45.688050063326955" lon="17.67700388096273">
        <ele>186.13</ele>
        <time>2023-10-17T04:35:55.911Z</time>
      </trkpt>
      <trkpt lat="45.68804168142378" lon="17.67700874246657">
        <ele>185.93</ele>
        <time>2023-10-17T04:36:02.211Z</time>
      </trkpt>
      <trkpt lat="45.6880340538919" lon="17.677012598142028">
        <ele>185.73</ele>
        <time>2023-10-17T04:36:08.511Z</time>
      </trkpt>
      <trkpt lat="45.68802726455033" lon="17.677015531808138">
        <ele>185.54</ele>
        <time>2023-10-17T04:36:14.811Z</time>
      </trkpt>
      <trkpt lat="45.68802139721811" lon="17.67701762728393">
        <ele>185.35</ele>
        <time>2023-10-17T04:36:21.112Z</time>
      </trkpt>
      <trkpt lat="45.68801628425717" lon="17.67701896838844">
        <ele>185.18</ele>
        <time>2023-10-17T04:36:27.413Z</time>
      </trkpt>
      <trkpt lat="45.688011925667524" lon="17.67701955512166">
        <ele>185.01</ele>
        <time>2023-10-17T04:36:33.714Z</time>
      </trkpt>
      <trkpt lat="45.688007986173034" lon="17.677019638940692">
        <ele>184.85</ele>
        <time>2023-10-17T04:36:40.015Z</time>
      </trkpt>
      <trkpt lat="45.68800429813564" lon="17.67701955512166">
        <ele>184.69</ele>
        <time>2023-10-17T04:36:46.316Z</time>
      </trkpt>
      <trkpt lat="45.68800061009824" lon="17.67701955512166">
        <ele>184.54</ele>
        <time>2023-10-17T04:36:52.617Z</time>
      </trkpt>
      <trkpt lat="45.68799658678472" lon="17.677019638940692">
        <ele>184.4</ele>
        <time>2023-10-17T04:36:58.918Z</time>
      </trkpt>
      <trkpt lat="45.687991892918944" lon="17.677019638940692">
        <ele>184.26</ele>
        <time>2023-10-17T04:37:05.220Z</time>
      </trkpt>
      <trkpt lat="45.68798627704382" lon="17.67701955512166">
        <ele>184.13</ele>
        <time>2023-10-17T04:37:11.522Z</time>
      </trkpt>
      <trkpt lat="45.68798007443547" lon="17.677019387483597">
        <ele>184.0</ele>
        <time>2023-10-17T04:37:17.824Z</time>
      </trkpt>
      <trkpt lat="45.68797294981778" lon="17.677018716931343">
        <ele>183.88</ele>
        <time>2023-10-17T04:37:24.126Z</time>
      </trkpt>
      <trkpt lat="45.687964987009764" lon="17.677017375826836">
        <ele>183.77</ele>
        <time>2023-10-17T04:37:30.428Z</time>
      </trkpt>
      <trkpt lat="45.6879561021924" lon="17.67701519653201">
        <ele>183.66</ele>
        <time>2023-10-17T04:37:36.731Z</time>
      </trkpt>
      <trkpt lat="45.68794629536569" lon="17.677011927589774">
        <ele>183.56</ele>
        <time>2023-10-17T04:37:43.034Z</time>
      </trkpt>
      <trkpt lat="45.68793598562479" lon="17.677007652819157">
        <ele>183.46</ele>
        <time>2023-10-17T04:37:49.337Z</time>
      </trkpt>
      <trkpt lat="45.6879251729697" lon="17.677001953125">
        <ele>183.37</ele>
        <time>2023-10-17T04:37:55.641Z</time>
      </trkpt>
      <trkpt lat="45.68791410885751" lon="17.67699457705021">
        <ele>183.28</ele>
        <time>2023-10-17T04:38:01.945Z</time>
      </trkpt>
      <trkpt lat="45.68790321238339" lon="17.67698585987091">
        <ele>183.2</ele>
        <time>2023-10-17T04:38:08.250Z</time>
      </trkpt>
      <trkpt lat="45.68789265118539" lon="17.67697563394904">
        <ele>183.13</ele>
        <time>2023-10-17T04:38:14.555Z</time>
      </trkpt>
      <trkpt lat="45.687882509082556" lon="17.676964066922665">
        <ele>183.06</ele>
        <time>2023-10-17T04:38:20.861Z</time>
      </trkpt>
      <trkpt lat="45.68787261843681" lon="17.67695115879178">
        <ele>182.99</ele>
        <time>2023-10-17T04:38:27.167Z</time>
      </trkpt>
      <trkpt lat="45.68786331452429" lon="17.676937747746706">
        <ele>182.93</ele>
        <time>2023-10-17T04:38:33.473Z</time>
      </trkpt>
      <trkpt lat="45.68785442970693" lon="17.676924169063568">
        <ele>182.88</ele>
        <time>2023-10-17T04:38:39.780Z</time>
      </trkpt>
      <trkpt lat="45.687846299260855" lon="17.67691059038043">
        <ele>182.82</ele>
        <time>2023-10-17T04:38:46.087Z</time>
      </trkpt>
      <trkpt lat="45.687838755548" lon="17.67689734697342">
        <ele>182.77</ele>
        <time>2023-10-17T04:38:52.395Z</time>
      </trkpt>
      <trkpt lat="45.6878318823874" lon="17.676884774118662">
        <ele>182.73</ele>
        <time>2023-10-17T04:38:58.703Z</time>
      </trkpt>
      <trkpt lat="45.68782593123615" lon="17.676873290911317">
        <ele>182.68</ele>
        <time>2023-10-17T04:39:05.011Z</time>
      </trkpt>
      <trkpt lat="45.68782081827521" lon="17.676863064989448">
        <ele>182.64</ele>
        <time>2023-10-17T04:39:11.320Z</time>
      </trkpt>
      <trkpt lat="45.687816543504596" lon="17.676854012534022">
        <ele>182.6</ele>
        <time>2023-10-17T04:39:17.629Z</time>
      </trkpt>
      <trkpt lat="45.687813106924295" lon="17.676846385002136">
        <ele>182.56</ele>
        <time>2023-10-17T04:39:23.938Z</time>
      </trkpt>
      <trkpt lat="45.68781025707722" lon="17.67684018239379">
        <ele>182.53</ele>
        <time>2023-10-17T04:39:30.247Z</time>
      </trkpt>
      <trkpt lat="45.68780807778239" lon="17.67683540470898">
        <ele>182.49</ele>
        <time>2023-10-17T04:39:36.556Z</time>
      </trkpt>
      <trkpt lat="45.68780631758273" lon="17.676831549033523">
        <ele>182.45</ele>
        <time>2023-10-17T04:39:42.866Z</time>
      </trkpt>
      <trkpt lat="45.68780497647822" lon="17.676828615367413">
        <ele>182.42</ele>
        <time>2023-10-17T04:39:49.176Z</time>
      </trkpt>
      <trkpt lat="45.68780388683081" lon="17.676826268434525">
        <ele>182.38</ele>
        <time>2023-10-17T04:39:55.486Z</time>
      </trkpt>
      <trkpt lat="45.68780304864049" lon="17.67682450823486">
        <ele>182.35</ele>
        <time>2023-10-17T04:40:01.796Z</time>
      </trkpt>
      <trkpt lat="45.687802294269204" lon="17.67682316713035">
        <ele>182.31</ele>
        <time>2023-10-17T04:40:08.106Z</time>
      </trkpt>
      <trkpt lat="45.68780162371695" lon="17.676822245121002">
        <ele>182.28</ele>
        <time>2023-10-17T04:40:14.416Z</time>
      </trkpt>
      <trkpt lat="45.687800869345665" lon="17.676821742206812">
        <ele>182.24</ele>
        <time>2023-10-17T04:40:20.726Z</time>
      </trkpt>
      <trkpt lat="45.68780003115535" lon="17.676821406930685">
        <ele>182.2</ele>
        <time>2023-10-17T04:40:27.036Z</time>
      </trkpt>
      <trkpt lat="45.687799109146" lon="17.67682123929262">
        <ele>182.17</ele>
        <time>2023-10-17T04:40:33.346Z</time>
      </trkpt>
      <trkpt lat="45.68779810331762" lon="17.67682123929262">
        <ele>182.13</ele>
        <time>2023-10-17T04:40:39.656Z</time>
      </trkpt>
      <trkpt lat="45.68779709748924" lon="17.67682157456875">
        <ele>182.09</ele>
        <time>2023-10-17T04:40:45.966Z</time>
      </trkpt>
      <trkpt lat="45.68779584020376" lon="17.676822245121002">
        <ele>182.04</ele>
        <time>2023-10-17T04:40:52.276Z</time>
      </trkpt>
      <trkpt lat="45.68779441528022" lon="17.676823753863573">
        <ele>182.0</ele>
        <time>2023-10-17T04:40:58.586Z</time>
      </trkpt>
      <trkpt lat="45.68779290653765" lon="17.676825765520334">
        <ele>181.95</ele>
        <time>2023-10-17T04:41:04.896Z</time>
      </trkpt>
      <trkpt lat="45.68779097869992" lon="17.67682844772935">
        <ele>181.9</ele>
        <time>2023-10-17T04:41:11.206Z</time>
      </trkpt>
      <trkpt lat="45.687788631767035" lon="17.676831549033523">
        <ele>181.85</ele>
        <time>2023-10-17T04:41:17.516Z</time>
      </trkpt>
      <trkpt lat="45.687785698100924" lon="17.67683490179479">
        <ele>181.79</ele>
        <time>2023-10-17T04:41:23.826Z</time>
      </trkpt>
      <trkpt lat="45.68778242915869" lon="17.676838506013155">
        <ele>181.73</ele>
        <time>2023-10-17T04:41:30.137Z</time>
      </trkpt>
      <trkpt lat="45.6877784896642" lon="17.676842529326677">
        <ele>181.67</ele>
        <time>2023-10-17T04:41:36.448Z</time>
      </trkpt>
      <trkpt lat="45.68777387961745" lon="17.676846887916327">
        <ele>181.61</ele>
        <time>2023-10-17T04:41:42.759Z</time>
      </trkpt>
      <trkpt lat="45.68776893429458" lon="17.67685149796307">
        <ele>181.54</ele>
        <time>2023-10-17T04:41:49.070Z</time>
      </trkpt>
      <trkpt lat="45.68776356987655" lon="17.67685627564788">
        <ele>181.47</ele>
        <time>2023-10-17T04:41:55.381Z</time>
      </trkpt>
      <trkpt lat="45.68775820545852" lon="17.676860885694623">
        <ele>181.4</ele>
        <time>2023-10-17T04:42:01.693Z</time>
      </trkpt>
      <trkpt lat="45.68775284104049" lon="17.676864992827177">
        <ele>181.32</ele>
        <time>2023-10-17T04:42:08.005Z</time>
      </trkpt>
      <trkpt lat="45.68774747662246" lon="17.67686859704554">
        <ele>181.24</ele>
        <time>2023-10-17T04:42:14.317Z</time>
      </trkpt>
      <trkpt lat="45.68774236366153" lon="17.676871698349714">
        <ele>181.16</ele>
        <time>2023-10-17T04:42:20.629Z</time>
      </trkpt>
      <trkpt lat="45.68773775361478" lon="17.67687446437776">
        <ele>181.07</ele>
        <time>2023-10-17T04:42:26.941Z</time>
      </trkpt>
      <trkpt lat="45.68773364648223" lon="17.676876978948712">
        <ele>180.98</ele>
        <time>2023-10-17T04:42:33.253Z</time>
      </trkpt>
      <trkpt lat="45.687730042263865" lon="17.676879158243537">
        <ele>180.89</ele>
        <time>2023-10-17T04:42:39.566Z</time>
      </trkpt>
      <trkpt lat="45.68772694095969" lon="17.676881086081266">
        <ele>180.8</ele>
        <time>2023-10-17T04:42:45.879Z</time>
      </trkpt>
      <trkpt lat="45.68772451020777" lon="17.676882511004806">
        <ele>180.7</ele>
        <time>2023-10-17T04:42:52.192Z</time>
      </trkpt>
      <trkpt lat="45.68772233091295" lon="17.676884103566408">
        <ele>180.6</ele>
        <time>2023-10-17T04:42:58.505Z</time>
      </trkpt>
      <trkpt lat="45.68772040307522" lon="17.676885528489947">
        <ele>180.5</ele>
        <time>2023-10-17T04:43:04.818Z</time>
      </trkpt>
      <trkpt lat="45.687718307599425" lon="17.676887288689613">
        <ele>180.39</ele>
        <time>2023-10-17T04:43:11.131Z</time>
      </trkpt>
      <trkpt lat="45.6877161283046" lon="17.67688955180347">
        <ele>180.28</ele>
        <time>2023-10-17T04:43:17.444Z</time>
      </trkpt>
      <trkpt lat="45.68771369755268" lon="17.67689256928861">
        <ele>180.16</ele>
        <time>2023-10-17T04:43:23.757Z</time>
      </trkpt>
      <trkpt lat="45.6877108477056" lon="17.676896173506975">
        <ele>180.05</ele>
        <time>2023-10-17T04:43:30.070Z</time>
      </trkpt>
      <trkpt lat="45.6877076625824" lon="17.67690036445856">
        <ele>179.92</ele>
        <time>2023-10-17T04:43:36.383Z</time>
      </trkpt>
      <trkpt lat="45.687703974545" lon="17.6769052259624">
        <ele>179.8</ele>
        <time>2023-10-17T04:43:42.697Z</time>
      </trkpt>
      <trkpt lat="45.68769986741245" lon="17.67691059038043">
        <ele>179.67</ele>
        <time>2023-10-17T04:43:49.011Z</time>
      </trkpt>
      <trkpt lat="45.687695341184735" lon="17.676916625350714">
        <ele>179.54</ele>
        <time>2023-10-17T04:43:55.325Z</time>
      </trkpt>
      <trkpt lat="45.687690479680896" lon="17.67692324705422">
        <ele>179.4</ele>
        <time>2023-10-17T04:44:01.639Z</time>
      </trkpt>
      <trkpt lat="45.68768545053899" lon="17.67693020403385">
        <ele>179.26</ele>
        <time>2023-10-17T04:44:07.954Z</time>
      </trkpt>
      <trkpt lat="45.68768025375903" lon="17.67693749628961">
        <ele>179.12</ele>
        <time>2023-10-17T04:44:14.269Z</time>
      </trkpt>
      <trkpt lat="45.68767505697906" lon="17.676944872364402">
        <ele>178.97</ele>
        <time>2023-10-17T04:44:20.584Z</time>
      </trkpt>
      <trkpt lat="45.687669860199094" lon="17.67695216462016">
        <ele>178.82</ele>
        <time>2023-10-17T04:44:26.899Z</time>
      </trkpt>
      <trkpt lat="45.68766474723816" lon="17.676959289237857">
        <ele>178.67</ele>
        <time>2023-10-17T04:44:33.214Z</time>
      </trkpt>
      <trkpt lat="45.68765980191529" lon="17.67696624621749">
        <ele>178.52</ele>
        <time>2023-10-17T04:44:39.530Z</time>
      </trkpt>
      <trkpt lat="45.68765510804951" lon="17.676973035559058">
        <ele>178.36</ele>
        <time>2023-10-17T04:44:45.846Z</time>
      </trkpt>
      <trkpt lat="45.6876505818218" lon="17.676979573443532">
        <ele>178.2</ele>
        <time>2023-10-17T04:44:52.162Z</time>
      </trkpt>
      <trkpt lat="45.68764622323215" lon="17.676986195147038">
        <ele>178.04</ele>
        <time>2023-10-17T04:44:58.478Z</time>
      </trkpt>
      <trkpt lat="45.68764194846153" lon="17.67699264921248">
        <ele>177.88</ele>
        <time>2023-10-17T04:45:04.795Z</time>
      </trkpt>
      <trkpt lat="45.687637673690915" lon="17.67699893563986">
        <ele>177.71</ele>
        <time>2023-10-17T04:45:11.112Z</time>
      </trkpt>
      <trkpt lat="45.687633315101266" lon="17.677005054429173">
        <ele>177.54</ele>
        <time>2023-10-17T04:45:17.429Z</time>
      </trkpt>
      <trkpt lat="45.68762904033065" lon="17.677010837942362">
        <ele>177.37</ele>
        <time>2023-10-17T04:45:23.746Z</time>
      </trkpt>
      <trkpt lat="45.68762484937906" lon="17.677016286179423">
        <ele>177.2</ele>
        <time>2023-10-17T04:45:30.063Z</time>
      </trkpt>
      <trkpt lat="45.68762090988457" lon="17.677021231502295">
        <ele>177.03</ele>
        <time>2023-10-17T04:45:36.381Z</time>
      </trkpt>
      <trkpt lat="45.687617138028145" lon="17.67702542245388">
        <ele>176.86</ele>
        <time>2023-10-17T04:45:42.699Z</time>
      </trkpt>
      <trkpt lat="45.68761344999075" lon="17.677028942853212">
        <ele>176.68</ele>
        <time>2023-10-17T04:45:49.017Z</time>
      </trkpt>
      <trkpt lat="45.68760951049626" lon="17.677032044157386">
        <ele>176.51</ele>
        <time>2023-10-17T04:45:55.335Z</time>
      </trkpt>
      <trkpt lat="45.68760557100177" lon="17.677034558728337">
        <ele>176.33</ele>
        <time>2023-10-17T04:46:01.653Z</time>
      </trkpt>
      <trkpt lat="45.68760138005018" lon="17.677036486566067">
        <ele>176.16</ele>
        <time>2023-10-17T04:46:07.971Z</time>
      </trkpt>
      <trkpt lat="45.6875969376415" lon="17.67703807912767">
        <ele>175.98</ele>
        <time>2023-10-17T04:46:14.289Z</time>
      </trkpt>
      <trkpt lat="45.68759207613766" lon="17.677039252594113">
        <ele>175.8</ele>
        <time>2023-10-17T04:46:20.608Z</time>
      </trkpt>
      <trkpt lat="45.687586879357696" lon="17.677040174603462">
        <ele>175.62</ele>
        <time>2023-10-17T04:46:26.927Z</time>
      </trkpt>
      <trkpt lat="45.6875813473016" lon="17.67704109661281">
        <ele>175.45</ele>
        <time>2023-10-17T04:46:33.246Z</time>
      </trkpt>
      <trkpt lat="45.68757539615035" lon="17.67704243771732">
        <ele>175.27</ele>
        <time>2023-10-17T04:46:39.565Z</time>
      </trkpt>
      <trkpt lat="45.68756910972297" lon="17.677044281736016">
        <ele>175.09</ele>
        <time>2023-10-17T04:46:45.884Z</time>
      </trkpt>
      <trkpt lat="45.6875625718385" lon="17.677046880126">
        <ele>174.91</ele>
        <time>2023-10-17T04:46:52.204Z</time>
      </trkpt>
      <trkpt lat="45.68755586631596" lon="17.67705040052533">
        <ele>174.73</ele>
        <time>2023-10-17T04:46:58.524Z</time>
      </trkpt>
      <trkpt lat="45.687549160793424" lon="17.67705475911498">
        <ele>174.55</ele>
        <time>2023-10-17T04:47:04.844Z</time>
      </trkpt>
      <trkpt lat="45.687542371451855" lon="17.677059955894947">
        <ele>174.37</ele>
        <time>2023-10-17T04:47:11.164Z</time>
      </trkpt>
      <trkpt lat="45.68753566592932" lon="17.677065823227167">
        <ele>174.19</ele>
        <time>2023-10-17T04:47:17.485Z</time>
      </trkpt>
      <trkpt lat="45.68752929568291" lon="17.67707227729261">
        <ele>174.01</ele>
        <time>2023-10-17T04:47:23.806Z</time>
      </trkpt>
      <trkpt lat="45.68752342835069" lon="17.677079066634178">
        <ele>173.83</ele>
        <time>2023-10-17T04:47:30.127Z</time>
      </trkpt>
      <trkpt lat="45.687517980113626" lon="17.677086107432842">
        <ele>173.65</ele>
        <time>2023-10-17T04:47:36.448Z</time>
      </trkpt>
      <trkpt lat="45.687513034790754" lon="17.677093064412475">
        <ele>173.48</ele>
        <time>2023-10-17T04:47:42.770Z</time>
      </trkpt>
      <trkpt lat="45.68750842474401" lon="17.67710010521114">
        <ele>173.3</ele>
        <time>2023-10-17T04:47:49.092Z</time>
      </trkpt>
      <trkpt lat="45.68750414997339" lon="17.67710706219077">
        <ele>173.13</ele>
        <time>2023-10-17T04:47:55.414Z</time>
      </trkpt>
      <trkpt lat="45.68749995902181" lon="17.677114102989435">
        <ele>172.95</ele>
        <time>2023-10-17T04:48:01.736Z</time>
      </trkpt>
      <trkpt lat="45.68749576807022" lon="17.67712122760713">
        <ele>172.78</ele>
        <time>2023-10-17T04:48:08.058Z</time>
      </trkpt>
      <trkpt lat="45.6874914932996" lon="17.67712843604386">
        <ele>172.61</ele>
        <time>2023-10-17T04:48:14.381Z</time>
      </trkpt>
      <trkpt lat="45.68748705089092" lon="17.677135979756713">
        <ele>172.45</ele>
        <time>2023-10-17T04:48:20.704Z</time>
      </trkpt>
      <trkpt lat="45.68748244084418" lon="17.677143774926662">
        <ele>172.28</ele>
        <time>2023-10-17T04:48:27.027Z</time>
      </trkpt>
      <trkpt lat="45.68747749552131" lon="17.677152073010802">
        <ele>172.12</ele>
        <time>2023-10-17T04:48:33.350Z</time>
      </trkpt>
      <trkpt lat="45.68747229874134" lon="17.677160874009132">
        <ele>171.95</ele>
        <time>2023-10-17T04:48:39.674Z</time>
      </trkpt>
      <trkpt lat="45.687466682866216" lon="17.677170429378748">
        <ele>171.79</ele>
        <time>2023-10-17T04:48:45.998Z</time>
      </trkpt>
      <trkpt lat="45.687460731714964" lon="17.677180487662554">
        <ele>171.63</ele>
        <time>2023-10-17T04:48:52.322Z</time>
      </trkpt>
      <trkpt lat="45.68745452910662" lon="17.677190965041518">
        <ele>171.48</ele>
        <time>2023-10-17T04:48:58.647Z</time>
      </trkpt>
      <trkpt lat="45.687448075041175" lon="17.677201693877578">
        <ele>171.33</ele>
        <time>2023-10-17T04:49:04.972Z</time>
      </trkpt>
      <trkpt lat="45.68744145333767" lon="17.677212757989764">
        <ele>171.18</ele>
        <time>2023-10-17T04:49:11.297Z</time>
      </trkpt>
      <trkpt lat="45.687434831634164" lon="17.677223905920982">
        <ele>171.03</ele>
        <time>2023-10-17T04:49:17.623Z</time>
      </trkpt>
      <trkpt lat="45.68742795847356" lon="17.6772350538522">
        <ele>170.89</ele>
        <time>2023-10-17T04:49:23.949Z</time>
      </trkpt>
      <trkpt lat="45.68742100149393" lon="17.677246117964387">
        <ele>170.74</ele>
        <time>2023-10-17T04:49:30.275Z</time>
      </trkpt>
      <trkpt lat="45.6874137930572" lon="17.677256846800447">
        <ele>170.61</ele>
        <time>2023-10-17T04:49:36.602Z</time>
      </trkpt>
      <trkpt lat="45.68740683607757" lon="17.677266905084252">
        <ele>170.47</ele>
        <time>2023-10-17T04:49:42.929Z</time>
      </trkpt>
      <trkpt lat="45.687399711459875" lon="17.677276376634836">
        <ele>170.34</ele>
        <time>2023-10-17T04:49:49.256Z</time>
      </trkpt>
      <trkpt lat="45.68739250302315" lon="17.67728534527123">
        <ele>170.21</ele>
        <time>2023-10-17T04:49:55.584Z</time>
      </trkpt>
      <trkpt lat="45.68738512694836" lon="17.677293810993433">
        <ele>170.09</ele>
        <time>2023-10-17T04:50:01.912Z</time>
      </trkpt>
      <trkpt lat="45.687377750873566" lon="17.677301773801446">
        <ele>169.97</ele>
        <time>2023-10-17T04:50:08.240Z</time>
      </trkpt>
      <trkpt lat="45.68737012334168" lon="17.6773093175143">
        <ele>169.85</ele>
        <time>2023-10-17T04:50:14.569Z</time>
      </trkpt>
      <trkpt lat="45.6873622443527" lon="17.6773161906749">
        <ele>169.74</ele>
        <time>2023-10-17T04:50:20.898Z</time>
      </trkpt>
      <trkpt lat="45.68735411390662" lon="17.677322393283248">
        <ele>169.63</ele>
        <time>2023-10-17T04:50:27.227Z</time>
      </trkpt>
      <trkpt lat="45.687345983460546" lon="17.677327757701278">
        <ele>169.52</ele>
        <time>2023-10-17T04:50:33.556Z</time>
      </trkpt>
      <trkpt lat="45.68733785301447" lon="17.677332451567054">
        <ele>169.42</ele>
        <time>2023-10-17T04:50:39.886Z</time>
      </trkpt>
      <trkpt lat="45.68732955493033" lon="17.67733672633767">
        <ele>169.32</ele>
        <time>2023-10-17T04:50:46.216Z</time>
      </trkpt>
      <trkpt lat="45.68732092157006" lon="17.677340833470225">
        <ele>169.22</ele>
        <time>2023-10-17T04:50:52.546Z</time>
      </trkpt>
      <trkpt lat="45.687312204390764" lon="17.677344772964716">
        <ele>169.13</ele>
        <time>2023-10-17T04:50:58.877Z</time>
      </trkpt>
      <trkpt lat="45.68730323575437" lon="17.67734846100211">
        <ele>169.04</ele>
        <time>2023-10-17T04:51:05.208Z</time>
      </trkpt>
      <trkpt lat="45.687294183298945" lon="17.677351646125317">
        <ele>168.96</ele>
        <time>2023-10-17T04:51:11.539Z</time>
      </trkpt>
      <trkpt lat="45.68728521466255" lon="17.677354412153363">
        <ele>168.88</ele>
        <time>2023-10-17T04:51:17.871Z</time>
      </trkpt>
      <trkpt lat="45.68727632984519" lon="17.67735667526722">
        <ele>168.8</ele>
        <time>2023-10-17T04:51:24.203Z</time>
      </trkpt>
      <trkpt lat="45.687267780303955" lon="17.677358519285917">
        <ele>168.73</ele>
        <time>2023-10-17T04:51:30.535Z</time>
      </trkpt>
      <trkpt lat="45.68725964985788" lon="17.677359944209456">
        <ele>168.66</ele>
        <time>2023-10-17T04:51:36.867Z</time>
      </trkpt>
      <trkpt lat="45.68725185468793" lon="17.677360866218805">
        <ele>168.59</ele>
        <time>2023-10-17T04:51:43.200Z</time>
      </trkpt>
      <trkpt lat="45.68724439479411" lon="17.677361369132996">
        <ele>168.52</ele>
        <time>2023-10-17T04:51:49.533Z</time>
      </trkpt>
      <trkpt lat="45.68723718635738" lon="17.677361285313964">
        <ele>168.46</ele>
        <time>2023-10-17T04:51:55.866Z</time>
      </trkpt>
      <trkpt lat="45.68723039701581" lon="17.677360698580742">
        <ele>168.4</ele>
        <time>2023-10-17T04:52:02.199Z</time>
      </trkpt>
      <trkpt lat="45.6872240267694" lon="17.67735960893333">
        <ele>168.34</ele>
        <time>2023-10-17T04:52:08.533Z</time>
      </trkpt>
      <trkpt lat="45.68721815943718" lon="17.67735818400979">
        <ele>168.29</ele>
        <time>2023-10-17T04:52:14.867Z</time>
      </trkpt>
      <trkpt lat="45.68721271120012" lon="17.67735667526722">
        <ele>168.24</ele>
        <time>2023-10-17T04:52:21.201Z</time>
      </trkpt>
      <trkpt lat="45.68720784969628" lon="17.67735516652465">
        <ele>168.19</ele>
        <time>2023-10-17T04:52:27.535Z</time>
      </trkpt>
      <trkpt lat="45.6872034072876" lon="17.67735374160111">
        <ele>168.14</ele>
        <time>2023-10-17T04:52:33.869Z</time>
      </trkpt>
      <trkpt lat="45.687199300155044" lon="17.677352651953697">
        <ele>168.09</ele>
        <time>2023-10-17T04:52:40.203Z</time>
      </trkpt>
      <trkpt lat="45.68719569593668" lon="17.67735181376338">
        <ele>168.05</ele>
        <time>2023-10-17T04:52:46.538Z</time>
      </trkpt>
      <trkpt lat="45.68719242699444" lon="17.67735139466822">
        <ele>168.01</ele>
        <time>2023-10-17T04:52:52.873Z</time>
      </trkpt>
      <trkpt lat="45.68718949332833" lon="17.677351646125317">
        <ele>167.96</ele>
        <time>2023-10-17T04:52:59.208Z</time>
      </trkpt>
      <trkpt lat="45.68718706257641" lon="17.677352568134665">
        <ele>167.92</ele>
        <time>2023-10-17T04:53:05.543Z</time>
      </trkpt>
      <trkpt lat="45.68718505091965" lon="17.677353993058205">
        <ele>167.89</ele>
        <time>2023-10-17T04:53:11.878Z</time>
      </trkpt>
      <trkpt lat="45.68718345835805" lon="17.677355920895934">
        <ele>167.85</ele>
        <time>2023-10-17T04:53:18.213Z</time>
      </trkpt>
      <trkpt lat="45.68718211725354" lon="17.67735818400979">
        <ele>167.81</ele>
        <time>2023-10-17T04:53:24.548Z</time>
      </trkpt>
      <trkpt lat="45.68718111142516" lon="17.67736061476171">
        <ele>167.78</ele>
        <time>2023-10-17T04:53:30.883Z</time>
      </trkpt>
      <trkpt lat="45.687180273234844" lon="17.67736312933266">
        <ele>167.74</ele>
        <time>2023-10-17T04:53:37.218Z</time>
      </trkpt>
      <trkpt lat="45.68717960268259" lon="17.677365727722645">
        <ele>167.71</ele>
        <time>2023-10-17T04:53:43.553Z</time>
      </trkpt>
      <trkpt lat="45.68717901594937" lon="17.67736840993166">
        <ele>167.67</ele>
        <time>2023-10-17T04:53:49.888Z</time>
      </trkpt>
      <trkpt lat="45.68717859685421" lon="17.677371008321643">
        <ele>167.64</ele>
        <time>2023-10-17T04:53:56.223Z</time>
      </trkpt>
      <trkpt lat="45.68717826157808" lon="17.67737335525453">
        <ele>167.61</ele>
        <time>2023-10-17T04:54:02.558Z</time>
      </trkpt>
      <trkpt lat="45.687178345397115" lon="17.677375618368387">
        <ele>167.57</ele>
        <time>2023-10-17T04:54:08.894Z</time>
      </trkpt>
      <trkpt lat="45.68717876449227" lon="17.67737763002515">
        <ele>167.54</ele>
        <time>2023-10-17T04:54:15.230Z</time>
      </trkpt>
      <trkpt lat="45.68717951886356" lon="17.67737972550094">
        <ele>167.51</ele>
        <time>2023-10-17T04:54:21.566Z</time>
      </trkpt>
      <trkpt lat="45.687180776149035" lon="17.67738207243383">
        <ele>167.48</ele>
        <time>2023-10-17T04:54:27.902Z</time>
      </trkpt>
      <trkpt lat="45.6871825363487" lon="17.677384670823812">
        <ele>167.44</ele>
        <time>2023-10-17T04:54:34.238Z</time>
      </trkpt>
      <trkpt lat="45.687184715643525" lon="17.677387688308954">
        <ele>167.41</ele>
        <time>2023-10-17T04:54:40.574Z</time>
      </trkpt>
      <trkpt lat="45.68718731403351" lon="17.677391124889255">
        <ele>167.37</ele>
        <time>2023-10-17T04:54:46.910Z</time>
      </trkpt>
      <trkpt lat="45.68719033151865" lon="17.677395148202777">
        <ele>167.34</ele>
        <time>2023-10-17T04:54:53.246Z</time>
      </trkpt>
      <trkpt lat="45.68719376809895" lon="17.67739975824952">
        <ele>167.3</ele>
        <time>2023-10-17T04:54:59.582Z</time>
      </trkpt>
      <trkpt lat="45.68719753995538" lon="17.67740512266755">
        <ele>167.27</ele>
        <time>2023-10-17T04:55:05.919Z</time>
      </trkpt>
      <trkpt lat="45.68720147944987" lon="17.67741140909493">
        <ele>167.23</ele>
        <time>2023-10-17T04:55:12.256Z</time>
      </trkpt>
      <trkpt lat="45.68720550276339" lon="17.67741828225553">
        <ele>167.19</ele>
        <time>2023-10-17T04:55:18.593Z</time>
      </trkpt>
      <trkpt lat="45.68720944225788" lon="17.677425993606448">
        <ele>167.15</ele>
        <time>2023-10-17T04:55:24.930Z</time>
      </trkpt>
      <trkpt lat="45.68721321411431" lon="17.677434710785747">
        <ele>167.1</ele>
        <time>2023-10-17T04:55:31.267Z</time>
      </trkpt>
      <trkpt lat="45.68721673451364" lon="17.677444014698267">
        <ele>167.06</ele>
        <time>2023-10-17T04:55:37.605Z</time>
      </trkpt>
      <trkpt lat="45.68722000345588" lon="17.677454072982073">
        <ele>167.02</ele>
        <time>2023-10-17T04:55:43.943Z</time>
      </trkpt>
      <trkpt lat="45.68722302094102" lon="17.6774647179991">
        <ele>166.97</ele>
        <time>2023-10-17T04:55:50.281Z</time>
      </trkpt>
      <trkpt lat="45.687225619331" lon="17.677476033568382">
        <ele>166.92</ele>
        <time>2023-10-17T04:55:56.619Z</time>
      </trkpt>
      <trkpt lat="45.68722779862583" lon="17.677487935870886">
        <ele>166.87</ele>
        <time>2023-10-17T04:56:02.958Z</time>
      </trkpt>
      <trkpt lat="45.68722939118743" lon="17.67750042490661">
        <ele>166.82</ele>
        <time>2023-10-17T04:56:09.297Z</time>
      </trkpt>
      <trkpt lat="45.68723056465387" lon="17.677513333037496">
        <ele>166.77</ele>
        <time>2023-10-17T04:56:15.636Z</time>
      </trkpt>
      <trkpt lat="45.687231151387095" lon="17.677526492625475">
        <ele>166.71</ele>
        <time>2023-10-17T04:56:21.976Z</time>
      </trkpt>
      <trkpt lat="45.68723140284419" lon="17.67753990367055">
        <ele>166.66</ele>
        <time>2023-10-17T04:56:28.316Z</time>
      </trkpt>
      <trkpt lat="45.68723123520613" lon="17.677553230896592">
        <ele>166.6</ele>
        <time>2023-10-17T04:56:34.656Z</time>
      </trkpt>
      <trkpt lat="45.687230648472905" lon="17.677566055208445">
        <ele>166.54</ele>
        <time>2023-10-17T04:56:40.997Z</time>
      </trkpt>
      <trkpt lat="45.687229642644525" lon="17.67757854424417">
        <ele>166.48</ele>
        <time>2023-10-17T04:56:47.338Z</time>
      </trkpt>
      <trkpt lat="45.68722830154002" lon="17.677590865641832">
        <ele>166.41</ele>
        <time>2023-10-17T04:56:53.679Z</time>
      </trkpt>
      <trkpt lat="45.68722654134035" lon="17.677602851763368">
        <ele>166.35</ele>
        <time>2023-10-17T04:57:00.020Z</time>
      </trkpt>
      <trkpt lat="45.68722436204553" lon="17.67761467024684">
        <ele>166.28</ele>
        <time>2023-10-17T04:57:06.362Z</time>
      </trkpt>
      <trkpt lat="45.687221847474575" lon="17.677626153454185">
        <ele>166.21</ele>
        <time>2023-10-17T04:57:12.704Z</time>
      </trkpt>
      <trkpt lat="45.68721908144653" lon="17.677637385204434">
        <ele>166.14</ele>
        <time>2023-10-17T04:57:19.046Z</time>
      </trkpt>
      <trkpt lat="45.68721589632332" lon="17.677648281678557">
        <ele>166.06</ele>
        <time>2023-10-17T04:57:25.389Z</time>
      </trkpt>
      <trkpt lat="45.68721237592399" lon="17.67765917815268">
        <ele>165.99</ele>
        <time>2023-10-17T04:57:31.732Z</time>
      </trkpt>
      <trkpt lat="45.687208687886596" lon="17.677670074626803">
        <ele>165.91</ele>
        <time>2023-10-17T04:57:38.075Z</time>
      </trkpt>
      <trkpt lat="45.68720466457307" lon="17.677681390196085">
        <ele>165.83</ele>
        <time>2023-10-17T04:57:44.418Z</time>
      </trkpt>
      <trkpt lat="45.68720055744052" lon="17.677693124860525">
        <ele>165.75</ele>
        <time>2023-10-17T04:57:50.762Z</time>
      </trkpt>
      <trkpt lat="45.687196450307965" lon="17.677704943343997">
        <ele>165.67</ele>
        <time>2023-10-17T04:57:57.106Z</time>
      </trkpt>
      <trkpt lat="45.68719234317541" lon="17.677716678008437">
        <ele>165.58</ele>
        <time>2023-10-17T04:58:03.450Z</time>
      </trkpt>
      <trkpt lat="45.68718848749995" lon="17.677728245034814">
        <ele>165.5</ele>
        <time>2023-10-17T04:58:09.795Z</time>
      </trkpt>
      <trkpt lat="45.68718496710062" lon="17.677739644423127">
        <ele>165.41</ele>
        <time>2023-10-17T04:58:16.140Z</time>
      </trkpt>
      <trkpt lat="45.68718186579645" lon="17.67775045707822">
        <ele>165.32</ele>
        <time>2023-10-17T04:58:22.485Z</time>
      </trkpt>
      <trkpt lat="45.68717918358743" lon="17.67776076681912">
        <ele>165.23</ele>
        <time>2023-10-17T04:58:28.830Z</time>
      </trkpt>
      <trkpt lat="45.68717717193067" lon="17.677770406007767">
        <ele>165.14</ele>
        <time>2023-10-17T04:58:35.176Z</time>
      </trkpt>
      <trkpt lat="45.68717583082616" lon="17.677779207006097">
        <ele>165.05</ele>
        <time>2023-10-17T04:58:41.522Z</time>
      </trkpt>
      <trkpt lat="45.687174992635846" lon="17.67778716981411">
        <ele>164.95</ele>
        <time>2023-10-17T04:58:47.868Z</time>
      </trkpt>
      <trkpt lat="45.68717457354069" lon="17.677794378250837">
        <ele>164.85</ele>
        <time>2023-10-17T04:58:54.214Z</time>
      </trkpt>
      <trkpt lat="45.68717482499778" lon="17.67780083231628">
        <ele>164.76</ele>
        <time>2023-10-17T04:59:00.560Z</time>
      </trkpt>
      <trkpt lat="45.68717557936907" lon="17.677807034924626">
        <ele>164.66</ele>
        <time>2023-10-17T04:59:06.907Z</time>
      </trkpt>
      <trkpt lat="45.68717666901648" lon="17.677813405171037">
        <ele>164.56</ele>
        <time>2023-10-17T04:59:13.254Z</time>
      </trkpt>
      <trkpt lat="45.687177926301956" lon="17.677819607779384">
        <ele>164.46</ele>
        <time>2023-10-17T04:59:19.601Z</time>
      </trkpt>
      <trkpt lat="45.687179351225495" lon="17.677826061844826">
        <ele>164.35</ele>
        <time>2023-10-17T04:59:25.948Z</time>
      </trkpt>
      <trkpt lat="45.68718102760613" lon="17.677832935005426">
        <ele>164.25</ele>
        <time>2023-10-17T04:59:32.295Z</time>
      </trkpt>
      <trkpt lat="45.68718312308192" lon="17.67784039489925">
        <ele>164.14</ele>
        <time>2023-10-17T04:59:38.642Z</time>
      </trkpt>
      <trkpt lat="45.68718547001481" lon="17.67784827388823">
        <ele>164.03</ele>
        <time>2023-10-17T04:59:44.990Z</time>
      </trkpt>
      <trkpt lat="45.68718823604286" lon="17.677856907248497">
        <ele>163.92</ele>
        <time>2023-10-17T04:59:51.338Z</time>
      </trkpt>
      <trkpt lat="45.68719142116606" lon="17.677865708246827">
        <ele>163.81</ele>
        <time>2023-10-17T04:59:57.686Z</time>
      </trkpt>
      <trkpt lat="45.687194941565394" lon="17.677874928340316">
        <ele>163.7</ele>
        <time>2023-10-17T05:00:04.034Z</time>
      </trkpt>
      <trkpt lat="45.68719871342182" lon="17.677884567528963">
        <ele>163.59</ele>
        <time>2023-10-17T05:00:10.383Z</time>
      </trkpt>
      <trkpt lat="45.687202736735344" lon="17.67789420671761">
        <ele>163.48</ele>
        <time>2023-10-17T05:00:16.732Z</time>
      </trkpt>
      <trkpt lat="45.68720709532499" lon="17.677903594449162">
        <ele>163.36</ele>
        <time>2023-10-17T05:00:23.081Z</time>
      </trkpt>
      <trkpt lat="45.687211621552706" lon="17.677912898361683">
        <ele>163.25</ele>
        <time>2023-10-17T05:00:29.430Z</time>
      </trkpt>
      <trkpt lat="45.68721639923751" lon="17.67792161554098">
        <ele>163.13</ele>
        <time>2023-10-17T05:00:35.780Z</time>
      </trkpt>
      <trkpt lat="45.68722142837942" lon="17.677929745987058">
        <ele>163.02</ele>
        <time>2023-10-17T05:00:42.130Z</time>
      </trkpt>
      <trkpt lat="45.68722654134035" lon="17.677937373518944">
        <ele>162.9</ele>
        <time>2023-10-17T05:00:48.480Z</time>
      </trkpt>
      <trkpt lat="45.687231570482254" lon="17.677944414317608">
        <ele>162.79</ele>
        <time>2023-10-17T05:00:54.830Z</time>
      </trkpt>
      <trkpt lat="45.68723659962416" lon="17.677951036021113">
        <ele>162.67</ele>
        <time>2023-10-17T05:01:01.181Z</time>
      </trkpt>
      <trkpt lat="45.68724179640412" lon="17.67795765772462">
        <ele>162.56</ele>
        <time>2023-10-17T05:01:07.532Z</time>
      </trkpt>
      <trkpt lat="45.68724707700312" lon="17.677964363247156">
        <ele>162.45</ele>
        <time>2023-10-17T05:01:13.883Z</time>
      </trkpt>
      <trkpt lat="45.68725252524018" lon="17.677971236407757">
        <ele>162.33</ele>
        <time>2023-10-17T05:01:20.234Z</time>
      </trkpt>
      <trkpt lat="45.687257973477244" lon="17.67797827720642">
        <ele>162.22</ele>
        <time>2023-10-17T05:01:26.585Z</time>
      </trkpt>
      <trkpt lat="45.687263337895274" lon="17.677985737100244">
        <ele>162.1</ele>
        <time>2023-10-17T05:01:32.937Z</time>
      </trkpt>
      <trkpt lat="45.687268702313304" lon="17.677993699908257">
        <ele>161.99</ele>
        <time>2023-10-17T05:01:39.289Z</time>
      </trkpt>
      <trkpt lat="45.68727381527424" lon="17.678002500906587">
        <ele>161.87</ele>
        <time>2023-10-17T05:01:45.641Z</time>
      </trkpt>
      <trkpt lat="45.68727867677808" lon="17.678012056276202">
        <ele>161.76</ele>
        <time>2023-10-17T05:01:51.994Z</time>
      </trkpt>
      <trkpt lat="45.68728320300579" lon="17.678022533655167">
        <ele>161.65</ele>
        <time>2023-10-17T05:01:58.347Z</time>
      </trkpt>
      <trkpt lat="45.68728756159544" lon="17.678033849224448">
        <ele>161.54</ele>
        <time>2023-10-17T05:02:04.700Z</time>
      </trkpt>
      <trkpt lat="45.68729158490896" lon="17.678045919165015">
        <ele>161.43</ele>
        <time>2023-10-17T05:02:11.053Z</time>
      </trkpt>
      <trkpt lat="45.68729527294636" lon="17.678058492019773">
        <ele>161.32</ele>
        <time>2023-10-17T05:02:17.407Z</time>
      </trkpt>
      <trkpt lat="45.68729845806956" lon="17.678071400150657">
        <ele>161.21</ele>
        <time>2023-10-17T05:02:23.761Z</time>
      </trkpt>
      <trkpt lat="45.68730122409761" lon="17.678084559738636">
        <ele>161.1</ele>
        <time>2023-10-17T05:02:30.115Z</time>
      </trkpt>
      <trkpt lat="45.68730365484953" lon="17.678097803145647">
        <ele>160.99</ele>
        <time>2023-10-17T05:02:36.470Z</time>
      </trkpt>
      <trkpt lat="45.68730575032532" lon="17.67811113037169">
        <ele>160.89</ele>
        <time>2023-10-17T05:02:42.825Z</time>
      </trkpt>
      <trkpt lat="45.68730767816305" lon="17.6781243737787">
        <ele>160.78</ele>
        <time>2023-10-17T05:02:49.180Z</time>
      </trkpt>
      <trkpt lat="45.68730960600078" lon="17.67813753336668">
        <ele>160.68</ele>
        <time>2023-10-17T05:02:55.536Z</time>
      </trkpt>
      <trkpt lat="45.68731161765754" lon="17.678150525316596">
        <ele>160.58</ele>
        <time>2023-10-17T05:03:01.892Z</time>
      </trkpt>
      <trkpt lat="45.68731379695237" lon="17.67816334962845">
        <ele>160.48</ele>
        <time>2023-10-17T05:03:08.248Z</time>
      </trkpt>
      <trkpt lat="45.68731606006622" lon="17.678176006302238">
        <ele>160.38</ele>
        <time>2023-10-17T05:03:14.605Z</time>
      </trkpt>
      <trkpt lat="45.68731840699911" lon="17.678188495337963">
        <ele>160.28</ele>
        <time>2023-10-17T05:03:20.962Z</time>
      </trkpt>
      <trkpt lat="45.68732067011297" lon="17.678200649097562">
        <ele>160.18</ele>
        <time>2023-10-17T05:03:27.319Z</time>
      </trkpt>
      <trkpt lat="45.68732318468392" lon="17.678212551400065">
        <ele>160.09</ele>
        <time>2023-10-17T05:03:33.676Z</time>
      </trkpt>
      <trkpt lat="45.687325866892934" lon="17.678224118426442">
        <ele>159.99</ele>
        <time>2023-10-17T05:03:40.034Z</time>
      </trkpt>
      <trkpt lat="45.687328884378076" lon="17.678235601633787">
        <ele>159.9</ele>
        <time>2023-10-17T05:03:46.392Z</time>
      </trkpt>
      <trkpt lat="45.68733215332031" lon="17.678246833384037">
        <ele>159.81</ele>
        <time>2023-10-17T05:03:52.750Z</time>
      </trkpt>
      <trkpt lat="45.68733542226255" lon="17.67825814895332">
        <ele>159.72</ele>
        <time>2023-10-17T05:03:59.109Z</time>
      </trkpt>
      <trkpt lat="45.687338691204786" lon="17.6782694645226">
        <ele>159.63</ele>
        <time>2023-10-17T05:04:05.468Z</time>
      </trkpt>
      <trkpt lat="45.68734187632799" lon="17.678280947729945">
        <ele>159.54</ele>
        <time>2023-10-17T05:04:11.827Z</time>
      </trkpt>
      <trkpt lat="45.687344977632165" lon="17.67829285003245">
        <ele>159.45</ele>
        <time>2023-10-17T05:04:18.186Z</time>
      </trkpt>
      <trkpt lat="45.68734807893634" lon="17.678305255249143">
        <ele>159.37</ele>
        <time>2023-10-17T05:04:24.546Z</time>
      </trkpt>
      <trkpt lat="45.68735109642148" lon="17.67831824719906">
        <ele>159.28</ele>
        <time>2023-10-17T05:04:30.906Z</time>
      </trkpt>
      <trkpt lat="45.68735411390662" lon="17.6783315744251">
        <ele>159.2</ele>
        <time>2023-10-17T05:04:37.266Z</time>
      </trkpt>
      <trkpt lat="45.68735687993467" lon="17.678345572203398">
        <ele>159.12</ele>
        <time>2023-10-17T05:04:43.627Z</time>
      </trkpt>
      <trkpt lat="45.68735939450562" lon="17.678360072895885">
        <ele>159.03</ele>
        <time>2023-10-17T05:04:49.988Z</time>
      </trkpt>
      <trkpt lat="45.687361573800445" lon="17.678375244140625">
        <ele>158.95</ele>
        <time>2023-10-17T05:04:56.349Z</time>
      </trkpt>
      <trkpt lat="45.687363501638174" lon="17.67839108593762">
        <ele>158.87</ele>
        <time>2023-10-17T05:05:02.711Z</time>
      </trkpt>
      <trkpt lat="45.68736509419978" lon="17.678407514467835">
        <ele>158.79</ele>
        <time>2023-10-17T05:05:09.073Z</time>
      </trkpt>
      <trkpt lat="45.68736635148525" lon="17.678424697369337">
        <ele>158.72</ele>
        <time>2023-10-17T05:05:15.436Z</time>
      </trkpt>
      <trkpt lat="45.68736718967557" lon="17.67844238318503">
        <ele>158.64</ele>
        <time>2023-10-17T05:05:21.799Z</time>
      </trkpt>
      <trkpt lat="45.68736760877073" lon="17.67846048809588">
        <ele>158.56</ele>
        <time>2023-10-17T05:05:28.163Z</time>
      </trkpt>
      <trkpt lat="45.687367441132665" lon="17.678478676825762">
        <ele>158.49</ele>
        <time>2023-10-17T05:05:34.527Z</time>
      </trkpt>
      <trkpt lat="45.68736677058041" lon="17.678497033193707">
        <ele>158.41</ele>
        <time>2023-10-17T05:05:40.891Z</time>
      </trkpt>
      <trkpt lat="45.687365680933" lon="17.67851572483778">
        <ele>158.34</ele>
        <time>2023-10-17T05:05:47.256Z</time>
      </trkpt>
      <trkpt lat="45.68736433982849" lon="17.678534667938948">
        <ele>158.26</ele>
        <time>2023-10-17T05:05:53.621Z</time>
      </trkpt>
      <trkpt lat="45.68736283108592" lon="17.67855377867818">
        <ele>158.19</ele>
        <time>2023-10-17T05:05:59.987Z</time>
      </trkpt>
      <trkpt lat="45.687361070886254" lon="17.67857288941741">
        <ele>158.11</ele>
        <time>2023-10-17T05:06:06.353Z</time>
      </trkpt>
      <trkpt lat="45.68735922686756" lon="17.678591581061482">
        <ele>158.04</ele>
        <time>2023-10-17T05:06:12.720Z</time>
      </trkpt>
      <trkpt lat="45.68735704757273" lon="17.678609937429428">
        <ele>157.96</ele>
        <time>2023-10-17T05:06:19.087Z</time>
      </trkpt>
      <trkpt lat="45.687354700639844" lon="17.67862753942609">
        <ele>157.88</ele>
        <time>2023-10-17T05:06:25.454Z</time>
      </trkpt>
      <trkpt lat="45.68735218606889" lon="17.6786442194134">
        <ele>157.8</ele>
        <time>2023-10-17T05:06:31.822Z</time>
      </trkpt>
      <trkpt lat="45.68734975531697" lon="17.67865989357233">
        <ele>157.72</ele>
        <time>2023-10-17T05:06:38.190Z</time>
      </trkpt>
      <trkpt lat="45.687347492203116" lon="17.67867456190288">
        <ele>157.64</ele>
        <time>2023-10-17T05:06:44.559Z</time>
      </trkpt>
      <trkpt lat="45.68734531290829" lon="17.67868872731924">
        <ele>157.56</ele>
        <time>2023-10-17T05:06:50.928Z</time>
      </trkpt>
      <trkpt lat="45.6873432174325" lon="17.678702054545283">
        <ele>157.47</ele>
        <time>2023-10-17T05:06:57.297Z</time>
      </trkpt>
      <trkpt lat="45.687341038137674" lon="17.678714878857136">
        <ele>157.39</ele>
        <time>2023-10-17T05:07:03.667Z</time>
      </trkpt>
      <trkpt lat="45.68733877502382" lon="17.67872728407383">
        <ele>157.3</ele>
        <time>2023-10-17T05:07:10.037Z</time>
      </trkpt>
      <trkpt lat="45.68733642809093" lon="17.678739270195365">
        <ele>157.21</ele>
        <time>2023-10-17T05:07:16.407Z</time>
      </trkpt>
      <trkpt lat="45.68733408115804" lon="17.678751340135932">
        <ele>157.12</ele>
        <time>2023-10-17T05:07:22.777Z</time>
      </trkpt>
      <trkpt lat="45.68733190186322" lon="17.67876349389553">
        <ele>157.03</ele>
        <time>2023-10-17T05:07:29.148Z</time>
      </trkpt>
      <trkpt lat="45.687329806387424" lon="17.67877665348351">
        <ele>156.93</ele>
        <time>2023-10-17T05:07:35.519Z</time>
      </trkpt>
      <trkpt lat="45.687327878549695" lon="17.678790651261806">
        <ele>156.83</ele>
        <time>2023-10-17T05:07:41.890Z</time>
      </trkpt>
      <trkpt lat="45.68732611835003" lon="17.678805738687515">
        <ele>156.73</ele>
        <time>2023-10-17T05:07:48.262Z</time>
      </trkpt>
      <trkpt lat="45.687324441969395" lon="17.678821831941605">
        <ele>156.63</ele>
        <time>2023-10-17T05:07:54.634Z</time>
      </trkpt>
      <trkpt lat="45.687322933226824" lon="17.67883867956698">
        <ele>156.52</ele>
        <time>2023-10-17T05:08:01.006Z</time>
      </trkpt>
      <trkpt lat="45.68732142448425" lon="17.678856616839767">
        <ele>156.41</ele>
        <time>2023-10-17T05:08:07.379Z</time>
      </trkpt>
      <trkpt lat="45.68732025101781" lon="17.67887530848384">
        <ele>156.29</ele>
        <time>2023-10-17T05:08:13.752Z</time>
      </trkpt>
      <trkpt lat="45.6873191613704" lon="17.678894586861134">
        <ele>156.18</ele>
        <time>2023-10-17T05:08:20.126Z</time>
      </trkpt>
      <trkpt lat="45.68731823936105" lon="17.678914619609714">
        <ele>156.06</ele>
        <time>2023-10-17T05:08:26.500Z</time>
      </trkpt>
      <trkpt lat="45.68731748498976" lon="17.678935071453452">
        <ele>155.93</ele>
        <time>2023-10-17T05:08:32.875Z</time>
      </trkpt>
      <trkpt lat="45.68731698207557" lon="17.678955858573318">
        <ele>155.81</ele>
        <time>2023-10-17T05:08:39.250Z</time>
      </trkpt>
      <trkpt lat="45.68731673061848" lon="17.678976142778993">
        <ele>155.67</ele>
        <time>2023-10-17T05:08:45.626Z</time>
      </trkpt>
      <trkpt lat="45.687316646799445" lon="17.678996426984668">
        <ele>155.54</ele>
        <time>2023-10-17T05:08:52.002Z</time>
      </trkpt>
      <trkpt lat="45.68731689825654" lon="17.67901654355228">
        <ele>155.39</ele>
        <time>2023-10-17T05:08:58.379Z</time>
      </trkpt>
      <trkpt lat="45.687317568808794" lon="17.67903657630086">
        <ele>155.25</ele>
        <time>2023-10-17T05:09:04.756Z</time>
      </trkpt>
      <trkpt lat="45.687318574637175" lon="17.679056357592344">
        <ele>155.1</ele>
        <time>2023-10-17T05:09:11.134Z</time>
      </trkpt>
      <trkpt lat="45.687319999560714" lon="17.679075887426734">
        <ele>154.95</ele>
        <time>2023-10-17T05:09:17.512Z</time>
      </trkpt>
      <trkpt lat="45.68732192739844" lon="17.679095081984997">
        <ele>154.79</ele>
        <time>2023-10-17T05:09:23.890Z</time>
      </trkpt>
      <trkpt lat="45.68732427433133" lon="17.679114192724228">
        <ele>154.63</ele>
        <time>2023-10-17T05:09:30.269Z</time>
      </trkpt>
      <trkpt lat="45.687326956540346" lon="17.679133052006364">
        <ele>154.47</ele>
        <time>2023-10-17T05:09:36.648Z</time>
      </trkpt>
      <trkpt lat="45.687329890206456" lon="17.679151659831405">
        <ele>154.3</ele>
        <time>2023-10-17T05:09:43.028Z</time>
      </trkpt>
      <trkpt lat="45.68733299151063" lon="17.679170183837414">
        <ele>154.13</ele>
        <time>2023-10-17T05:09:49.408Z</time>
      </trkpt>
      <trkpt lat="45.68733626045287" lon="17.67918854020536">
        <ele>153.95</ele>
        <time>2023-10-17T05:09:55.789Z</time>
      </trkpt>
      <trkpt lat="45.6873397808522" lon="17.67920664511621">
        <ele>153.77</ele>
        <time>2023-10-17T05:10:02.170Z</time>
      </trkpt>
      <trkpt lat="45.68734330125153" lon="17.679224498569965">
        <ele>153.59</ele>
        <time>2023-10-17T05:10:08.552Z</time>
      </trkpt>
      <trkpt lat="45.687346905469894" lon="17.679241932928562">
        <ele>153.41</ele>
        <time>2023-10-17T05:10:14.934Z</time>
      </trkpt>
      <trkpt lat="45.68735042586923" lon="17.679259115830064">
        <ele>153.22</ele>
        <time>2023-10-17T05:10:21.316Z</time>
      </trkpt>
      <trkpt lat="45.687353778630495" lon="17.67927604727447">
        <ele>153.03</ele>
        <time>2023-10-17T05:10:27.699Z</time>
      </trkpt>
      <trkpt lat="45.68735679611564" lon="17.67929272726178">
        <ele>152.83</ele>
        <time>2023-10-17T05:10:34.082Z</time>
      </trkpt>
      <trkpt lat="45.68735947832465" lon="17.67930923961103">
        <ele>152.63</ele>
        <time>2023-10-17T05:10:40.466Z</time>
      </trkpt>
      <trkpt lat="45.687361573800445" lon="17.679325751960278">
        <ele>152.43</ele>
        <time>2023-10-17T05:10:46.850Z</time>
      </trkpt>
      <trkpt lat="45.68736291490495" lon="17.679342264309525">
        <ele>152.22</ele>
        <time>2023-10-17T05:10:53.234Z</time>
      </trkpt>
      <trkpt lat="45.68736333400011" lon="17.679358860477805">
        <ele>152.01</ele>
        <time>2023-10-17T05:10:59.619Z</time>
      </trkpt>
      <trkpt lat="45.68736249580979" lon="17.679375456646085">
        <ele>151.8</ele>
        <time>2023-10-17T05:11:06.004Z</time>
      </trkpt>
      <trkpt lat="45.687360148876905" lon="17.679392052814364">
        <ele>151.58</ele>
        <time>2023-10-17T05:11:12.390Z</time>
      </trkpt>
      <trkpt lat="45.68735612556338" lon="17.67940848134458">
        <ele>151.37</ele>
        <time>2023-10-17T05:11:18.776Z</time>
      </trkpt>
      <trkpt lat="45.687350342050195" lon="17.6794246584177">
        <ele>151.15</ele>
        <time>2023-10-17T05:11:25.162Z</time>
      </trkpt>
      <trkpt lat="45.68734279833734" lon="17.67944075167179">
        <ele>150.92</ele>
        <time>2023-10-17T05:11:31.549Z</time>
      </trkpt>
      <trkpt lat="45.68733366206288" lon="17.67945676110685">
        <ele>150.7</ele>
        <time>2023-10-17T05:11:37.936Z</time>
      </trkpt>
      <trkpt lat="45.687323017045856" lon="17.67947293817997">
        <ele>150.47</ele>
        <time>2023-10-17T05:11:44.324Z</time>
      </trkpt>
      <trkpt lat="45.68731103092432" lon="17.679489282891154">
        <ele>150.25</ele>
        <time>2023-10-17T05:11:50.712Z</time>
      </trkpt>
      <trkpt lat="45.68729795515537" lon="17.679505962878466">
        <ele>150.02</ele>
        <time>2023-10-17T05:11:57.101Z</time>
      </trkpt>
      <trkpt lat="45.68728404119611" lon="17.67952281050384">
        <ele>149.79</ele>
        <time>2023-10-17T05:12:03.491Z</time>
      </trkpt>
      <trkpt lat="45.68726912140846" lon="17.679539490491152">
        <ele>149.56</ele>
        <time>2023-10-17T05:12:09.881Z</time>
      </trkpt>
      <trkpt lat="45.68725369870663" lon="17.679555667564273">
        <ele>149.33</ele>
        <time>2023-10-17T05:12:16.272Z</time>
      </trkpt>
      <trkpt lat="45.6872377730906" lon="17.67957117408514">
        <ele>149.1</ele>
        <time>2023-10-17T05:12:22.664Z</time>
      </trkpt>
      <trkpt lat="45.68722159601748" lon="17.679585590958595">
        <ele>148.87</ele>
        <time>2023-10-17T05:12:29.056Z</time>
      </trkpt>
      <trkpt lat="45.68720550276339" lon="17.67959849908948">
        <ele>148.64</ele>
        <time>2023-10-17T05:12:35.449Z</time>
      </trkpt>
      <trkpt lat="45.68718949332833" lon="17.679610401391983">
        <ele>148.42</ele>
        <time>2023-10-17T05:12:41.842Z</time>
      </trkpt>
      <trkpt lat="45.68717373535037" lon="17.679620878770947">
        <ele>148.19</ele>
        <time>2023-10-17T05:12:48.236Z</time>
      </trkpt>
      <trkpt lat="45.68715814501047" lon="17.67962976358831">
        <ele>147.97</ele>
        <time>2023-10-17T05:12:54.631Z</time>
      </trkpt>
      <trkpt lat="45.687142638489604" lon="17.6796371396631">
        <ele>147.75</ele>
        <time>2023-10-17T05:13:01.026Z</time>
      </trkpt>
      <trkpt lat="45.687127551063895" lon="17.679642755538225">
        <ele>147.54</ele>
        <time>2023-10-17T05:13:07.422Z</time>
      </trkpt>
      <trkpt lat="45.687112882733345" lon="17.67964694648981">
        <ele>147.32</ele>
        <time>2023-10-17T05:13:13.818Z</time>
      </trkpt>
      <trkpt lat="45.687098717316985" lon="17.679650131613016">
        <ele>147.11</ele>
        <time>2023-10-17T05:13:20.215Z</time>
      </trkpt>
      <trkpt lat="45.68708522245288" lon="17.67965281382203">
        <ele>146.9</ele>
        <time>2023-10-17T05:13:26.612Z</time>
      </trkpt>
      <trkpt lat="45.68707273341715" lon="17.67965516075492">
        <ele>146.7</ele>
        <time>2023-10-17T05:13:33.009Z</time>
      </trkpt>
      <trkpt lat="45.68706116639078" lon="17.679657507687807">
        <ele>146.49</ele>
        <time>2023-10-17T05:13:39.407Z</time>
      </trkpt>
      <trkpt lat="45.68705060519278" lon="17.679659854620695">
        <ele>146.3</ele>
        <time>2023-10-17T05:13:45.805Z</time>
      </trkpt>
      <trkpt lat="45.687041049823165" lon="17.679661950096488">
        <ele>146.1</ele>
        <time>2023-10-17T05:13:52.204Z</time>
      </trkpt>
      <trkpt lat="45.68703250028193" lon="17.679663877934217">
        <ele>145.91</ele>
        <time>2023-10-17T05:13:58.603Z</time>
      </trkpt>
      <trkpt lat="45.68702512420714" lon="17.67966555431485">
        <ele>145.73</ele>
        <time>2023-10-17T05:14:05.002Z</time>
      </trkpt>
      <trkpt lat="45.68701892159879" lon="17.679667230695486">
        <ele>145.54</ele>
        <time>2023-10-17T05:14:11.401Z</time>
      </trkpt>
      <trkpt lat="45.687013724818826" lon="17.679669074714184">
        <ele>145.37</ele>
        <time>2023-10-17T05:14:17.800Z</time>
      </trkpt>
      <trkpt lat="45.68700953386724" lon="17.67967091873288">
        <ele>145.2</ele>
        <time>2023-10-17T05:14:24.200Z</time>
      </trkpt>
      <trkpt lat="45.68700618110597" lon="17.67967276275158">
        <ele>145.03</ele>
        <time>2023-10-17T05:14:30.600Z</time>
      </trkpt>
      <trkpt lat="45.68700333125889" lon="17.67967477440834">
        <ele>144.87</ele>
        <time>2023-10-17T05:14:37.000Z</time>
      </trkpt>
      <trkpt lat="45.68700106814504" lon="17.679677037522197">
        <ele>144.71</ele>
        <time>2023-10-17T05:14:43.400Z</time>
      </trkpt>
      <trkpt lat="45.68699888885021" lon="17.679679971188307">
        <ele>144.56</ele>
        <time>2023-10-17T05:14:49.800Z</time>
      </trkpt>
      <trkpt lat="45.68699679337442" lon="17.679683826863766">
        <ele>144.41</ele>
        <time>2023-10-17T05:14:56.200Z</time>
      </trkpt>
      <trkpt lat="45.68699478171766" lon="17.679688604548573">
        <ele>144.26</ele>
        <time>2023-10-17T05:15:02.600Z</time>
      </trkpt>
      <trkpt lat="45.68699243478477" lon="17.6796942204237">
        <ele>144.13</ele>
        <time>2023-10-17T05:15:09.000Z</time>
      </trkpt>
      <trkpt lat="45.68698983639479" lon="17.67970067448914">
        <ele>143.99</ele>
        <time>2023-10-17T05:15:15.401Z</time>
      </trkpt>
      <trkpt lat="45.686986315995455" lon="17.679707128554583">
        <ele>143.87</ele>
        <time>2023-10-17T05:15:21.802Z</time>
      </trkpt>
      <trkpt lat="45.686981873586774" lon="17.67971341498196">
        <ele>143.74</ele>
        <time>2023-10-17T05:15:28.203Z</time>
      </trkpt>
      <trkpt lat="45.68697625771165" lon="17.67971919849515">
        <ele>143.63</ele>
        <time>2023-10-17T05:15:34.604Z</time>
      </trkpt>
      <trkpt lat="45.686969719827175" lon="17.679724227637053">
        <ele>143.52</ele>
        <time>2023-10-17T05:15:41.005Z</time>
      </trkpt>
      <trkpt lat="45.686962427571416" lon="17.67972808331251">
        <ele>143.41</ele>
        <time>2023-10-17T05:15:47.407Z</time>
      </trkpt>
      <trkpt lat="45.6869544647634" lon="17.679731100797653">
        <ele>143.32</ele>
        <time>2023-10-17T05:15:53.809Z</time>
      </trkpt>
      <trkpt lat="45.68694616667926" lon="17.679732777178288">
        <ele>143.23</ele>
        <time>2023-10-17T05:16:00.211Z</time>
      </trkpt>
      <trkpt lat="45.686937449499965" lon="17.679733280092478">
        <ele>143.14</ele>
        <time>2023-10-17T05:16:06.614Z</time>
      </trkpt>
      <trkpt lat="45.68692839704454" lon="17.679732525721192">
        <ele>143.06</ele>
        <time>2023-10-17T05:16:13.017Z</time>
      </trkpt>
      <trkpt lat="45.68691900931299" lon="17.679730597883463">
        <ele>142.99</ele>
        <time>2023-10-17T05:16:19.420Z</time>
      </trkpt>
      <trkpt lat="45.68690937012434" lon="17.679727664217353">
        <ele>142.93</ele>
        <time>2023-10-17T05:16:25.824Z</time>
      </trkpt>
      <trkpt lat="45.68689956329763" lon="17.679723892360926">
        <ele>142.87</ele>
        <time>2023-10-17T05:16:32.228Z</time>
      </trkpt>
      <trkpt lat="45.68688975647092" lon="17.679719617590308">
        <ele>142.81</ele>
        <time>2023-10-17T05:16:38.632Z</time>
      </trkpt>
      <trkpt lat="45.68687994964421" lon="17.679714923724532">
        <ele>142.77</ele>
        <time>2023-10-17T05:16:45.037Z</time>
      </trkpt>
      <trkpt lat="45.686870058998466" lon="17.679710146039724">
        <ele>142.73</ele>
        <time>2023-10-17T05:16:51.442Z</time>
      </trkpt>
      <trkpt lat="45.68686033599079" lon="17.67970553599298">
        <ele>142.69</ele>
        <time>2023-10-17T05:16:57.847Z</time>
      </trkpt>
      <trkpt lat="45.68685019388795" lon="17.679701009765267">
        <ele>142.66</ele>
        <time>2023-10-17T05:17:04.253Z</time>
      </trkpt>
      <trkpt lat="45.68683963268995" lon="17.67969681881368">
        <ele>142.64</ele>
        <time>2023-10-17T05:17:10.659Z</time>
      </trkpt>
      <trkpt lat="45.686828568577766" lon="17.679693214595318">
        <ele>142.62</ele>
        <time>2023-10-17T05:17:17.065Z</time>
      </trkpt>
      <trkpt lat="45.68681691773236" lon="17.679690113291144">
        <ele>142.61</ele>
        <time>2023-10-17T05:17:23.472Z</time>
      </trkpt>
      <trkpt lat="45.68680476397276" lon="17.679687598720193">
        <ele>142.6</ele>
        <time>2023-10-17T05:17:29.879Z</time>
      </trkpt>
      <trkpt lat="45.686792274937034" lon="17.67968558706343">
        <ele>142.6</ele>
        <time>2023-10-17T05:17:36.287Z</time>
      </trkpt>
      <trkpt lat="45.68677953444421" lon="17.67968399450183">
        <ele>142.6</ele>
        <time>2023-10-17T05:17:42.695Z</time>
      </trkpt>
      <trkpt lat="45.6867665424943" lon="17.67968248575926">
        <ele>142.61</ele>
        <time>2023-10-17T05:17:49.103Z</time>
      </trkpt>
      <trkpt lat="45.68675338290632" lon="17.679680977016687">
        <ele>142.63</ele>
        <time>2023-10-17T05:17:55.512Z</time>
      </trkpt>
      <trkpt lat="45.68674013949931" lon="17.679679300636053">
        <ele>142.64</ele>
        <time>2023-10-17T05:18:01.921Z</time>
      </trkpt>
      <trkpt lat="45.68672672845423" lon="17.679677372798324">
        <ele>142.67</ele>
        <time>2023-10-17T05:18:08.331Z</time>
      </trkpt>
      <trkpt lat="45.686713149771094" lon="17.679674942046404">
        <ele>142.7</ele>
        <time>2023-10-17T05:18:14.741Z</time>
      </trkpt>
      <trkpt lat="45.68669973872602" lon="17.67967225983739">
        <ele>142.73</ele>
        <time>2023-10-17T05:18:21.152Z</time>
      </trkpt>
      <trkpt lat="45.68668641149998" lon="17.67966890707612">
        <ele>142.77</ele>
        <time>2023-10-17T05:18:27.563Z</time>
      </trkpt>
      <trkpt lat="45.686673084273934" lon="17.67966505140066">
        <ele>142.81</ele>
        <time>2023-10-17T05:18:33.975Z</time>
      </trkpt>
      <trkpt lat="45.68665984086692" lon="17.67966052517295">
        <ele>142.86</ele>
        <time>2023-10-17T05:18:40.387Z</time>
      </trkpt>
      <trkpt lat="45.68664659745991" lon="17.67965516075492">
        <ele>142.92</ele>
        <time>2023-10-17T05:18:46.799Z</time>
      </trkpt>
      <trkpt lat="45.6866333540529" lon="17.679649041965604">
        <ele>142.97</ele>
        <time>2023-10-17T05:18:53.212Z</time>
      </trkpt>
      <trkpt lat="45.68662011064589" lon="17.67964208498597">
        <ele>143.03</ele>
        <time>2023-10-17T05:18:59.625Z</time>
      </trkpt>
      <trkpt lat="45.686607118695974" lon="17.679634373635054">
        <ele>143.1</ele>
        <time>2023-10-17T05:19:06.039Z</time>
      </trkpt>
      <trkpt lat="45.686594462022185" lon="17.679626243188977">
        <ele>143.17</ele>
        <time>2023-10-17T05:19:12.453Z</time>
      </trkpt>
      <trkpt lat="45.686582224443555" lon="17.679617861285806">
        <ele>143.24</ele>
        <time>2023-10-17T05:19:18.868Z</time>
      </trkpt>
      <trkpt lat="45.68657065741718" lon="17.67960931174457">
        <ele>143.31</ele>
        <time>2023-10-17T05:19:25.283Z</time>
      </trkpt>
      <trkpt lat="45.686559760943055" lon="17.679600762203336">
        <ele>143.39</ele>
        <time>2023-10-17T05:19:31.699Z</time>
      </trkpt>
      <trkpt lat="45.68655028939247" lon="17.679592045024037">
        <ele>143.46</ele>
        <time>2023-10-17T05:19:38.115Z</time>
      </trkpt>
      <trkpt lat="45.686542158946395" lon="17.67958341166377">
        <ele>143.54</ele>
        <time>2023-10-17T05:19:44.531Z</time>
      </trkpt>
      <trkpt lat="45.68653520196676" lon="17.6795750297606">
        <ele>143.63</ele>
        <time>2023-10-17T05:19:50.948Z</time>
      </trkpt>
      <trkpt lat="45.686529502272606" lon="17.679567066952586">
        <ele>143.71</ele>
        <time>2023-10-17T05:19:57.365Z</time>
      </trkpt>
      <trkpt lat="45.68652497604489" lon="17.67955985851586">
        <ele>143.79</ele>
        <time>2023-10-17T05:20:03.782Z</time>
      </trkpt>
      <trkpt lat="45.68652179092169" lon="17.679553739726543">
        <ele>143.88</ele>
        <time>2023-10-17T05:20:10.199Z</time>
      </trkpt>
      <trkpt lat="45.68651961162686" lon="17.679548542946577">
        <ele>143.96</ele>
        <time>2023-10-17T05:20:16.616Z</time>
      </trkpt>
      <trkpt lat="45.686518270522356" lon="17.67954426817596">
        <ele>144.04</ele>
        <time>2023-10-17T05:20:23.034Z</time>
      </trkpt>
      <trkpt lat="45.686517264693975" lon="17.679540580138564">
        <ele>144.13</ele>
        <time>2023-10-17T05:20:29.452Z</time>
      </trkpt>
      <trkpt lat="45.68651642650366" lon="17.67953739501536">
        <ele>144.21</ele>
        <time>2023-10-17T05:20:35.870Z</time>
      </trkpt>
      <trkpt lat="45.686515336856246" lon="17.679534377530217">
        <ele>144.3</ele>
        <time>2023-10-17T05:20:42.288Z</time>
      </trkpt>
      <trkpt lat="45.68651307374239" lon="17.67953152768314">
        <ele>144.38</ele>
        <time>2023-10-17T05:20:48.706Z</time>
      </trkpt>
      <trkpt lat="45.68650980480015" lon="17.679528510197997">
        <ele>144.46</ele>
        <time>2023-10-17T05:20:55.124Z</time>
      </trkpt>
      <trkpt lat="45.686505446210504" lon="17.67952515743673">
        <ele>144.54</ele>
        <time>2023-10-17T05:21:01.542Z</time>
      </trkpt>
      <trkpt lat="45.68649999797344" lon="17.679521469399333">
        <ele>144.62</ele>
        <time>2023-10-17T05:21:07.960Z</time>
      </trkpt>
      <trkpt lat="45.68649346008897" lon="17.67951736226678">
        <ele>144.7</ele>
        <time>2023-10-17T05:21:14.379Z</time>
      </trkpt>
      <trkpt lat="45.68648574873805" lon="17.679512752220035">
        <ele>144.78</ele>
        <time>2023-10-17T05:21:20.798Z</time>
      </trkpt>
      <trkpt lat="45.68647694773972" lon="17.6795076392591">
        <ele>144.85</ele>
        <time>2023-10-17T05:21:27.217Z</time>
      </trkpt>
      <trkpt lat="45.68646705709398" lon="17.679502107203007">
        <ele>144.93</ele>
        <time>2023-10-17T05:21:33.637Z</time>
      </trkpt>
      <trkpt lat="45.68645641207695" lon="17.679496239870787">
        <ele>145.0</ele>
        <time>2023-10-17T05:21:40.057Z</time>
      </trkpt>
      <trkpt lat="45.6864451803267" lon="17.679490204900503">
        <ele>145.07</ele>
        <time>2023-10-17T05:21:46.477Z</time>
      </trkpt>
      <trkpt lat="45.68643344566226" lon="17.679484002292156">
        <ele>145.14</ele>
        <time>2023-10-17T05:21:52.898Z</time>
      </trkpt>
      <trkpt lat="45.68642137572169" lon="17.67947779968381">
        <ele>145.2</ele>
        <time>2023-10-17T05:21:59.319Z</time>
      </trkpt>
      <trkpt lat="45.68640905432403" lon="17.67947151325643">
        <ele>145.26</ele>
        <time>2023-10-17T05:22:05.741Z</time>
      </trkpt>
      <trkpt lat="45.686396481469274" lon="17.67946514301002">
        <ele>145.32</ele>
        <time>2023-10-17T05:22:12.163Z</time>
      </trkpt>
      <trkpt lat="45.68638374097645" lon="17.67945885658264">
        <ele>145.37</ele>
        <time>2023-10-17T05:22:18.586Z</time>
      </trkpt>
      <trkpt lat="45.68637074902654" lon="17.679452570155263">
        <ele>145.43</ele>
        <time>2023-10-17T05:22:25.009Z</time>
      </trkpt>
      <trkpt lat="45.68635758943856" lon="17.679446283727884">
        <ele>145.47</ele>
        <time>2023-10-17T05:22:31.432Z</time>
      </trkpt>
      <trkpt lat="45.68634434603155" lon="17.679439997300506">
        <ele>145.52</ele>
        <time>2023-10-17T05:22:37.856Z</time>
      </trkpt>
      <trkpt lat="45.68633093498647" lon="17.679433627054095">
        <ele>145.56</ele>
        <time>2023-10-17T05:22:44.280Z</time>
      </trkpt>
      <trkpt lat="45.686317356303334" lon="17.679427340626717">
        <ele>145.6</ele>
        <time>2023-10-17T05:22:50.705Z</time>
      </trkpt>
      <trkpt lat="45.686303777620196" lon="17.679420970380306">
        <ele>145.63</ele>
        <time>2023-10-17T05:22:57.130Z</time>
      </trkpt>
      <trkpt lat="45.686290031298995" lon="17.679414516314864">
        <ele>145.66</ele>
        <time>2023-10-17T05:23:03.556Z</time>
      </trkpt>
      <trkpt lat="45.68627620115876" lon="17.679408062249422">
        <ele>145.69</ele>
        <time>2023-10-17T05:23:09.982Z</time>
      </trkpt>
      <trkpt lat="45.68626237101853" lon="17.67940152436495">
        <ele>145.71</ele>
        <time>2023-10-17T05:23:16.409Z</time>
      </trkpt>
      <trkpt lat="45.686248457059264" lon="17.679395070299506">
        <ele>145.73</ele>
        <time>2023-10-17T05:23:22.836Z</time>
      </trkpt>
      <trkpt lat="45.6862345431" lon="17.679388700053096">
        <ele>145.75</ele>
        <time>2023-10-17T05:23:29.264Z</time>
      </trkpt>
      <trkpt lat="45.686220629140735" lon="17.679382245987654">
        <ele>145.76</ele>
        <time>2023-10-17T05:23:35.692Z</time>
      </trkpt>
      <trkpt lat="45.6862067990005" lon="17.679375959560275">
        <ele>145.77</ele>
        <time>2023-10-17T05:23:42.121Z</time>
      </trkpt>
      <trkpt lat="45.686192801222205" lon="17.679369673132896">
        <ele>145.77</ele>
        <time>2023-10-17T05:23:48.550Z</time>
      </trkpt>
      <trkpt lat="45.68617880344391" lon="17.67936347052455">
        <ele>145.77</ele>
        <time>2023-10-17T05:23:54.980Z</time>
      </trkpt>
      <trkpt lat="45.68616480566561" lon="17.679357435554266">
        <ele>145.77</ele>
        <time>2023-10-17T05:24:01.410Z</time>
      </trkpt>
      <trkpt lat="45.686150807887316" lon="17.679351652041078">
        <ele>145.76</ele>
        <time>2023-10-17T05:24:07.841Z</time>
      </trkpt>
      <trkpt lat="45.68613681010902" lon="17.67934595234692">
        <ele>145.74</ele>
        <time>2023-10-17T05:24:14.272Z</time>
      </trkpt>
      <trkpt lat="45.68612281233072" lon="17.679340420290828">
        <ele>145.72</ele>
        <time>2023-10-17T05:24:20.704Z</time>
      </trkpt>
      <trkpt lat="45.68610889837146" lon="17.679335055872798">
        <ele>145.7</ele>
        <time>2023-10-17T05:24:27.136Z</time>
      </trkpt>
      <trkpt lat="45.68609498441219" lon="17.67932985909283">
        <ele>145.67</ele>
        <time>2023-10-17T05:24:33.569Z</time>
      </trkpt>
      <trkpt lat="45.68608107045293" lon="17.679324997588992">
        <ele>145.64</ele>
        <time>2023-10-17T05:24:40.002Z</time>
      </trkpt>
      <trkpt lat="45.686067156493664" lon="17.679320303723216">
        <ele>145.61</ele>
        <time>2023-10-17T05:24:46.436Z</time>
      </trkpt>
      <trkpt lat="45.6860532425344" lon="17.679315945133567">
        <ele>145.58</ele>
        <time>2023-10-17T05:24:52.870Z</time>
      </trkpt>
      <trkpt lat="45.6860392447561" lon="17.67931167036295">
        <ele>145.54</ele>
        <time>2023-10-17T05:24:59.305Z</time>
      </trkpt>
      <trkpt lat="45.68602533079684" lon="17.679307479411364">
        <ele>145.5</ele>
        <time>2023-10-17T05:25:05.740Z</time>
      </trkpt>
      <trkpt lat="45.68601133301854" lon="17.679303288459778">
        <ele>145.46</ele>
        <time>2023-10-17T05:25:12.176Z</time>
      </trkpt>
      <trkpt lat="45.685997335240245" lon="17.67929901368916">
        <ele>145.41</ele>
        <time>2023-10-17T05:25:18.612Z</time>
      </trkpt>
      <trkpt lat="45.68598325364292" lon="17.679294738918543">
        <ele>145.36</ele>
        <time>2023-10-17T05:25:25.048Z</time>
      </trkpt>
      <trkpt lat="45.685969004407525" lon="17.679290296509862">
        <ele>145.32</ele>
        <time>2023-10-17T05:25:31.485Z</time>
      </trkpt>
      <trkpt lat="45.68595458753407" lon="17.679285937920213">
        <ele>145.27</ele>
        <time>2023-10-17T05:25:37.922Z</time>
      </trkpt>
      <trkpt lat="45.68594000302255" lon="17.6792814116925">
        <ele>145.22</ele>
        <time>2023-10-17T05:25:44.360Z</time>
      </trkpt>
      <trkpt lat="45.68592525087297" lon="17.679276801645756">
        <ele>145.16</ele>
        <time>2023-10-17T05:25:50.798Z</time>
      </trkpt>
      <trkpt lat="45.685910331085324" lon="17.67927219159901">
        <ele>145.11</ele>
        <time>2023-10-17T05:25:57.237Z</time>
      </trkpt>
      <trkpt lat="45.68589541129768" lon="17.679267330095172">
        <ele>145.06</ele>
        <time>2023-10-17T05:26:03.676Z</time>
      </trkpt>
      <trkpt lat="45.685880407691" lon="17.679262468591332">
        <ele>145.01</ele>
        <time>2023-10-17T05:26:10.116Z</time>
      </trkpt>
      <trkpt lat="45.68586532026529" lon="17.67925752326846">
        <ele>144.95</ele>
        <time>2023-10-17T05:26:16.557Z</time>
      </trkpt>
      <trkpt lat="45.685850316658616" lon="17.67925266176462">
        <ele>144.9</ele>
        <time>2023-10-17T05:26:22.998Z</time>
      </trkpt>
      <trkpt lat="45.68583531305194" lon="17.679247800260782">
        <ele>144.85</ele>
        <time>2023-10-17T05:26:29.440Z</time>
      </trkpt>
      <trkpt lat="45.685820393264294" lon="17.679242938756943">
        <ele>144.79</ele>
        <time>2023-10-17T05:26:35.882Z</time>
      </trkpt>
      <trkpt lat="45.68580547347665" lon="17.679238077253103">
        <ele>144.74</ele>
        <time>2023-10-17T05:26:42.325Z</time>
      </trkpt>
      <trkpt lat="45.685790721327066" lon="17.679233131930232">
        <ele>144.69</ele>
        <time>2023-10-17T05:26:48.768Z</time>
      </trkpt>
      <trkpt lat="45.685775969177485" lon="17.67922810278833">
        <ele>144.64</ele>
        <time>2023-10-17T05:26:55.212Z</time>
      </trkpt>
      <trkpt lat="45.685761300846934" lon="17.679222989827394">
        <ele>144.59</ele>
        <time>2023-10-17T05:27:01.656Z</time>
      </trkpt>
      <trkpt lat="45.685746716335416" lon="17.67921796068549">
        <ele>144.55</ele>
        <time>2023-10-17T05:27:08.101Z</time>
      </trkpt>
      <trkpt lat="45.68573221564293" lon="17.679212847724557">
        <ele>144.5</ele>
        <time>2023-10-17T05:27:14.546Z</time>
      </trkpt>
      <trkpt lat="45.68571771495044" lon="17.679207818582654">
        <ele>144.46</ele>
        <time>2023-10-17T05:27:20.992Z</time>
      </trkpt>
      <trkpt lat="45.685703130438924" lon="17.679202873259783">
        <ele>144.42</ele>
        <time>2023-10-17T05:27:27.438Z</time>
      </trkpt>
      <trkpt lat="45.68568871356547" lon="17.67919792793691">
        <ele>144.38</ele>
        <time>2023-10-17T05:27:33.885Z</time>
      </trkpt>
      <trkpt lat="45.685674296692014" lon="17.679193066433072">
        <ele>144.34</ele>
        <time>2023-10-17T05:27:40.332Z</time>
      </trkpt>
      <trkpt lat="45.68565987981856" lon="17.679188204929233">
        <ele>144.31</ele>
        <time>2023-10-17T05:27:46.780Z</time>
      </trkpt>
      <trkpt lat="45.685645546764135" lon="17.679183427244425">
        <ele>144.28</ele>
        <time>2023-10-17T05:27:53.228Z</time>
      </trkpt>
      <trkpt lat="45.685631297528744" lon="17.67917873337865">
        <ele>144.25</ele>
        <time>2023-10-17T05:27:59.677Z</time>
      </trkpt>
      <trkpt lat="45.685617132112384" lon="17.679174123331904">
        <ele>144.22</ele>
        <time>2023-10-17T05:28:06.126Z</time>
      </trkpt>
      <trkpt lat="45.68560288287699" lon="17.679169597104192">
        <ele>144.2</ele>
        <time>2023-10-17T05:28:12.576Z</time>
      </trkpt>
      <trkpt lat="45.68558871746063" lon="17.67916515469551">
        <ele>144.19</ele>
        <time>2023-10-17T05:28:19.026Z</time>
      </trkpt>
      <trkpt lat="45.68557455204427" lon="17.67916071228683">
        <ele>144.17</ele>
        <time>2023-10-17T05:28:25.476Z</time>
      </trkpt>
      <trkpt lat="45.685560470446944" lon="17.67915626987815">
        <ele>144.16</ele>
        <time>2023-10-17T05:28:31.927Z</time>
      </trkpt>
      <trkpt lat="45.68554655648768" lon="17.679151827469468">
        <ele>144.16</ele>
        <time>2023-10-17T05:28:38.378Z</time>
      </trkpt>
      <trkpt lat="45.685532642528415" lon="17.679147301241755">
        <ele>144.15</ele>
        <time>2023-10-17T05:28:44.830Z</time>
      </trkpt>
      <trkpt lat="45.68551881238818" lon="17.679142775014043">
        <ele>144.16</ele>
        <time>2023-10-17T05:28:51.282Z</time>
      </trkpt>
      <trkpt lat="45.68550498224795" lon="17.6791381649673">
        <ele>144.16</ele>
        <time>2023-10-17T05:28:57.735Z</time>
      </trkpt>
      <trkpt lat="45.685491152107716" lon="17.679133471101522">
        <ele>144.17</ele>
        <time>2023-10-17T05:29:04.188Z</time>
      </trkpt>
      <trkpt lat="45.68547732196748" lon="17.679128693416715">
        <ele>144.18</ele>
        <time>2023-10-17T05:29:10.642Z</time>
      </trkpt>
      <trkpt lat="45.68546349182725" lon="17.679123831912875">
        <ele>144.2</ele>
        <time>2023-10-17T05:29:17.096Z</time>
      </trkpt>
      <trkpt lat="45.68544966168702" lon="17.679118802770972">
        <ele>144.22</ele>
        <time>2023-10-17T05:29:23.551Z</time>
      </trkpt>
      <trkpt lat="45.68543599918485" lon="17.679113689810038">
        <ele>144.24</ele>
        <time>2023-10-17T05:29:30.006Z</time>
      </trkpt>
      <trkpt lat="45.68542233668268" lon="17.67910849303007">
        <ele>144.26</ele>
        <time>2023-10-17T05:29:36.462Z</time>
      </trkpt>
      <trkpt lat="45.685408590361476" lon="17.679103380069137">
        <ele>144.29</ele>
        <time>2023-10-17T05:29:42.918Z</time>
      </trkpt>
      <trkpt lat="45.685394844040275" lon="17.679098350927234">
        <ele>144.32</ele>
        <time>2023-10-17T05:29:49.375Z</time>
      </trkpt>
      <trkpt lat="45.68538109771907" lon="17.679093489423394">
        <ele>144.36</ele>
        <time>2023-10-17T05:29:55.832Z</time>
      </trkpt>
      <trkpt lat="45.68536726757884" lon="17.679088795557618">
        <ele>144.4</ele>
        <time>2023-10-17T05:30:02.290Z</time>
      </trkpt>
      <trkpt lat="45.68535352125764" lon="17.679084185510874">
        <ele>144.44</ele>
        <time>2023-10-17T05:30:08.748Z</time>
      </trkpt>
      <trkpt lat="45.68533977493644" lon="17.679079743102193">
        <ele>144.48</ele>
        <time>2023-10-17T05:30:15.207Z</time>
      </trkpt>
      <trkpt lat="45.685326028615236" lon="17.679075300693512">
        <ele>144.53</ele>
        <time>2023-10-17T05:30:21.666Z</time>
      </trkpt>
      <trkpt lat="45.685312282294035" lon="17.67907085828483">
        <ele>144.58</ele>
        <time>2023-10-17T05:30:28.125Z</time>
      </trkpt>
      <trkpt lat="45.685298535972834" lon="17.679066248238087">
        <ele>144.63</ele>
        <time>2023-10-17T05:30:34.585Z</time>
      </trkpt>
      <trkpt lat="45.6852847058326" lon="17.67906147055328">
        <ele>144.68</ele>
        <time>2023-10-17T05:30:41.045Z</time>
      </trkpt>
      <trkpt lat="45.6852709595114" lon="17.679056357592344">
        <ele>144.74</ele>
        <time>2023-10-17T05:30:47.506Z</time>
      </trkpt>
      <trkpt lat="45.68525729700923" lon="17.679050909355283">
        <ele>144.8</ele>
        <time>2023-10-17T05:30:53.967Z</time>
      </trkpt>
      <trkpt lat="45.68524355068803" lon="17.679045042023063">
        <ele>144.86</ele>
        <time>2023-10-17T05:31:00.429Z</time>
      </trkpt>
      <trkpt lat="45.68522988818586" lon="17.679038755595684">
        <ele>144.92</ele>
        <time>2023-10-17T05:31:06.891Z</time>
      </trkpt>
      <trkpt lat="45.68521630950272" lon="17.67903213389218">
        <ele>144.99</ele>
        <time>2023-10-17T05:31:13.354Z</time>
      </trkpt>
      <trkpt lat="45.68520264700055" lon="17.67902542836964">
        <ele>145.05</ele>
        <time>2023-10-17T05:31:19.817Z</time>
      </trkpt>
      <trkpt lat="45.68518906831741" lon="17.679018639028072">
        <ele>145.12</ele>
        <time>2023-10-17T05:31:26.281Z</time>
      </trkpt>
      <trkpt lat="45.685175489634275" lon="17.67901176586747">
        <ele>145.19</ele>
        <time>2023-10-17T05:31:32.745Z</time>
      </trkpt>
      <trkpt lat="45.68516199477017" lon="17.679005060344934">
        <ele>145.26</ele>
        <time>2023-10-17T05:31:39.210Z</time>
      </trkpt>
      <trkpt lat="45.68514849990606" lon="17.67899843864143">
        <ele>145.33</ele>
        <time>2023-10-17T05:31:45.675Z</time>
      </trkpt>
      <trkpt lat="45.68513517268002" lon="17.678991900756955">
        <ele>145.41</ele>
        <time>2023-10-17T05:31:52.141Z</time>
      </trkpt>
      <trkpt lat="45.685121761634946" lon="17.678985530510545">
        <ele>145.48</ele>
        <time>2023-10-17T05:31:58.607Z</time>
      </trkpt>
      <trkpt lat="45.6851084344089" lon="17.678979327902198">
        <ele>145.55</ele>
        <time>2023-10-17T05:32:05.074Z</time>
      </trkpt>
      <trkpt lat="45.68509519100189" lon="17.678973209112883">
        <ele>145.63</ele>
        <time>2023-10-17T05:32:11.541Z</time>
      </trkpt>
      <trkpt lat="45.68508194759488" lon="17.6789671741426">
        <ele>145.7</ele>
        <time>2023-10-17T05:32:18.009Z</time>
      </trkpt>
      <trkpt lat="45.68506862036884" lon="17.678961222991347">
        <ele>145.77</ele>
        <time>2023-10-17T05:32:24.477Z</time>
      </trkpt>
      <trkpt lat="45.68505537696183" lon="17.678955104202032">
        <ele>145.85</ele>
        <time>2023-10-17T05:32:30.945Z</time>
      </trkpt>
      <trkpt lat="45.685042133554816" lon="17.678948817774653">
        <ele>145.92</ele>
        <time>2023-10-17T05:32:37.414Z</time>
      </trkpt>
      <trkpt lat="45.68502880632877" lon="17.67894236370921">
        <ele>145.99</ele>
        <time>2023-10-17T05:32:43.883Z</time>
      </trkpt>
      <trkpt lat="45.68501547910273" lon="17.678935825824738">
        <ele>146.06</ele>
        <time>2023-10-17T05:32:50.353Z</time>
      </trkpt>
      <trkpt lat="45.68500223569572" lon="17.67892903648317">
        <ele>146.13</ele>
        <time>2023-10-17T05:32:56.823Z</time>
      </trkpt>
      <trkpt lat="45.684988824650645" lon="17.678922163322568">
        <ele>146.2</ele>
        <time>2023-10-17T05:33:03.294Z</time>
      </trkpt>
      <trkpt lat="45.68497541360557" lon="17.678915038704872">
        <ele>146.27</ele>
        <time>2023-10-17T05:33:09.765Z</time>
      </trkpt>
      <trkpt lat="45.684962002560496" lon="17.678907830268145">
        <ele>146.33</ele>
        <time>2023-10-17T05:33:16.237Z</time>
      </trkpt>
      <trkpt lat="45.68494850769639" lon="17.678900538012385">
        <ele>146.4</ele>
        <time>2023-10-17T05:33:22.709Z</time>
      </trkpt>
      <trkpt lat="45.68493484519422" lon="17.678893329575658">
        <ele>146.46</ele>
        <time>2023-10-17T05:33:29.182Z</time>
      </trkpt>
      <trkpt lat="45.68492118269205" lon="17.678886288776994">
        <ele>146.53</ele>
        <time>2023-10-17T05:33:35.655Z</time>
      </trkpt>
      <trkpt lat="45.68490743637085" lon="17.67887966707349">
        <ele>146.59</ele>
        <time>2023-10-17T05:33:42.129Z</time>
      </trkpt>
      <trkpt lat="45.684893522411585" lon="17.678873213008046">
        <ele>146.65</ele>
        <time>2023-10-17T05:33:48.603Z</time>
      </trkpt>
      <trkpt lat="45.68487960845232" lon="17.6788670103997">
        <ele>146.71</ele>
        <time>2023-10-17T05:33:55.078Z</time>
      </trkpt>
      <trkpt lat="45.68486552685499" lon="17.678861059248447">
        <ele>146.76</ele>
        <time>2023-10-17T05:34:01.553Z</time>
      </trkpt>
      <trkpt lat="45.684851445257664" lon="17.67885527573526">
        <ele>146.82</ele>
        <time>2023-10-17T05:34:08.029Z</time>
      </trkpt>
      <trkpt lat="45.684837279841304" lon="17.678849827498198">
        <ele>146.87</ele>
        <time>2023-10-17T05:34:14.505Z</time>
      </trkpt>
      <trkpt lat="45.684823114424944" lon="17.678844714537263">
        <ele>146.92</ele>
        <time>2023-10-17T05:34:20.982Z</time>
      </trkpt>
      <trkpt lat="45.684808949008584" lon="17.678839853033423">
        <ele>146.96</ele>
        <time>2023-10-17T05:34:27.459Z</time>
      </trkpt>
      <trkpt lat="45.684794867411256" lon="17.67883524298668">
        <ele>147.01</ele>
        <time>2023-10-17T05:34:33.937Z</time>
      </trkpt>
      <trkpt lat="45.68478078581393" lon="17.67883096821606">
        <ele>147.05</ele>
        <time>2023-10-17T05:34:40.415Z</time>
      </trkpt>
      <trkpt lat="45.6847667042166" lon="17.678826777264476">
        <ele>147.09</ele>
        <time>2023-10-17T05:34:46.894Z</time>
      </trkpt>
      <trkpt lat="45.68475262261927" lon="17.67882258631289">
        <ele>147.13</ele>
        <time>2023-10-17T05:34:53.373Z</time>
      </trkpt>
      <trkpt lat="45.684738624840975" lon="17.678818311542273">
        <ele>147.17</ele>
        <time>2023-10-17T05:34:59.853Z</time>
      </trkpt>
      <trkpt lat="45.68472462706268" lon="17.67881386913359">
        <ele>147.2</ele>
        <time>2023-10-17T05:35:06.333Z</time>
      </trkpt>
      <trkpt lat="45.68471062928438" lon="17.678809175267816">
        <ele>147.23</ele>
        <time>2023-10-17T05:35:12.813Z</time>
      </trkpt>
      <trkpt lat="45.68469671532512" lon="17.678804229944944">
        <ele>147.26</ele>
        <time>2023-10-17T05:35:19.294Z</time>
      </trkpt>
      <trkpt lat="45.68468271754682" lon="17.67879911698401">
        <ele>147.28</ele>
        <time>2023-10-17T05:35:25.775Z</time>
      </trkpt>
      <trkpt lat="45.684668719768524" lon="17.67879383638501">
        <ele>147.3</ele>
        <time>2023-10-17T05:35:32.257Z</time>
      </trkpt>
      <trkpt lat="45.68465472199023" lon="17.67878838814795">
        <ele>147.32</ele>
        <time>2023-10-17T05:35:38.739Z</time>
      </trkpt>
      <trkpt lat="45.68464072421193" lon="17.678782856091857">
        <ele>147.34</ele>
        <time>2023-10-17T05:35:45.222Z</time>
      </trkpt>
      <trkpt lat="45.684626726433635" lon="17.67877707257867">
        <ele>147.36</ele>
        <time>2023-10-17T05:35:51.705Z</time>
      </trkpt>
      <trkpt lat="45.68461272865534" lon="17.678771037608385">
        <ele>147.37</ele>
        <time>2023-10-17T05:35:58.189Z</time>
      </trkpt>
      <trkpt lat="45.68459873087704" lon="17.678764835000038">
        <ele>147.38</ele>
        <time>2023-10-17T05:36:04.673Z</time>
      </trkpt>
      <trkpt lat="45.68458481691778" lon="17.678758380934596">
        <ele>147.38</ele>
        <time>2023-10-17T05:36:11.158Z</time>
      </trkpt>
      <trkpt lat="45.684570986777544" lon="17.678752010688186">
        <ele>147.39</ele>
        <time>2023-10-17T05:36:17.643Z</time>
      </trkpt>
      <trkpt lat="45.684557324275374" lon="17.67874589189887">
        <ele>147.39</ele>
        <time>2023-10-17T05:36:24.129Z</time>
      </trkpt>
      <trkpt lat="45.68454374559224" lon="17.67874002456665">
        <ele>147.38</ele>
        <time>2023-10-17T05:36:30.615Z</time>
      </trkpt>
      <trkpt lat="45.68453025072813" lon="17.678734492510557">
        <ele>147.38</ele>
        <time>2023-10-17T05:36:37.102Z</time>
      </trkpt>
      <trkpt lat="45.684516839683056" lon="17.67872921191156">
        <ele>147.37</ele>
        <time>2023-10-17T05:36:43.589Z</time>
      </trkpt>
      <trkpt lat="45.68450342863798" lon="17.678724098950624">
        <ele>147.36</ele>
        <time>2023-10-17T05:36:50.077Z</time>
      </trkpt>
      <trkpt lat="45.68449010141194" lon="17.67871898598969">
        <ele>147.34</ele>
        <time>2023-10-17T05:36:56.565Z</time>
      </trkpt>
      <trkpt lat="45.68447694182396" lon="17.67871404066682">
        <ele>147.32</ele>
        <time>2023-10-17T05:37:03.054Z</time>
      </trkpt>
      <trkpt lat="45.68446394987404" lon="17.678709346801043">
        <ele>147.3</ele>
        <time>2023-10-17T05:37:09.543Z</time>
      </trkpt>
      <trkpt lat="45.68445104174316" lon="17.678704988211393">
        <ele>147.28</ele>
        <time>2023-10-17T05:37:16.032Z</time>
      </trkpt>
      <trkpt lat="45.68443821743131" lon="17.67870088107884">
        <ele>147.25</ele>
        <time>2023-10-17T05:37:22.522Z</time>
      </trkpt>
      <trkpt lat="45.68442530930042" lon="17.678696857765317">
        <ele>147.22</ele>
        <time>2023-10-17T05:37:29.012Z</time>
      </trkpt>
      <trkpt lat="45.68441240116954" lon="17.678693002089858">
        <ele>147.19</ele>
        <time>2023-10-17T05:37:35.503Z</time>
      </trkpt>
      <trkpt lat="45.684399493038654" lon="17.6786891464144">
        <ele>147.15</ele>
        <time>2023-10-17T05:37:41.994Z</time>
      </trkpt>
      <trkpt lat="45.68438658490777" lon="17.678685626015067">
        <ele>147.11</ele>
        <time>2023-10-17T05:37:48.486Z</time>
      </trkpt>
      <trkpt lat="45.68437384441495" lon="17.678682692348957">
        <ele>147.07</ele>
        <time>2023-10-17T05:37:54.978Z</time>
      </trkpt>
      <trkpt lat="45.684361355379224" lon="17.67868093214929">
        <ele>147.02</ele>
        <time>2023-10-17T05:38:01.470Z</time>
      </trkpt>
      <trkpt lat="45.684349201619625" lon="17.678680596873164">
        <ele>146.97</ele>
        <time>2023-10-17T05:38:07.963Z</time>
      </trkpt>
      <trkpt lat="45.684337466955185" lon="17.678682105615735">
        <ele>146.91</ele>
        <time>2023-10-17T05:38:14.456Z</time>
      </trkpt>
      <trkpt lat="45.6843261513859" lon="17.678685458377004">
        <ele>146.85</ele>
        <time>2023-10-17T05:38:20.950Z</time>
      </trkpt>
      <trkpt lat="45.68431525491178" lon="17.678690906614065">
        <ele>146.79</ele>
        <time>2023-10-17T05:38:27.444Z</time>
      </trkpt>
      <trkpt lat="45.68430486135185" lon="17.67869845032692">
        <ele>146.73</ele>
        <time>2023-10-17T05:38:33.938Z</time>
      </trkpt>
      <trkpt lat="45.684294970706105" lon="17.678708005696535">
        <ele>146.66</ele>
        <time>2023-10-17T05:38:40.433Z</time>
      </trkpt>
      <trkpt lat="45.68428549915552" lon="17.678719572722912">
        <ele>146.58</ele>
        <time>2023-10-17T05:38:46.928Z</time>
      </trkpt>
      <trkpt lat="45.68427653051913" lon="17.678732983767986">
        <ele>146.51</ele>
        <time>2023-10-17T05:38:53.424Z</time>
      </trkpt>
      <trkpt lat="45.68426789715886" lon="17.678747987374663">
        <ele>146.43</ele>
        <time>2023-10-17T05:38:59.920Z</time>
      </trkpt>
      <trkpt lat="45.68425959907472" lon="17.678764248266816">
        <ele>146.35</ele>
        <time>2023-10-17T05:39:06.417Z</time>
      </trkpt>
      <trkpt lat="45.68425138480961" lon="17.678781263530254">
        <ele>146.26</ele>
        <time>2023-10-17T05:39:12.914Z</time>
      </trkpt>
      <trkpt lat="45.68424325436354" lon="17.67879869788885">
        <ele>146.18</ele>
        <time>2023-10-17T05:39:19.412Z</time>
      </trkpt>
      <trkpt lat="45.68423504009843" lon="17.67881621606648">
        <ele>146.09</ele>
        <time>2023-10-17T05:39:25.910Z</time>
      </trkpt>
      <trkpt lat="45.68422665819526" lon="17.678833734244108">
        <ele>146.0</ele>
        <time>2023-10-17T05:39:32.409Z</time>
      </trkpt>
      <trkpt lat="45.68421810865402" lon="17.67885100096464">
        <ele>145.91</ele>
        <time>2023-10-17T05:39:38.908Z</time>
      </trkpt>
      <trkpt lat="45.684209475293756" lon="17.678868183866143">
        <ele>145.81</ele>
        <time>2023-10-17T05:39:45.408Z</time>
      </trkpt>
      <trkpt lat="45.68420084193349" lon="17.67888519912958">
        <ele>145.72</ele>
        <time>2023-10-17T05:39:51.908Z</time>
      </trkpt>
      <trkpt lat="45.68419212475419" lon="17.678901962935925">
        <ele>145.63</ele>
        <time>2023-10-17T05:39:58.409Z</time>
      </trkpt>
      <trkpt lat="45.684183491393924" lon="17.678918642923236">
        <ele>145.53</ele>
        <time>2023-10-17T05:40:04.910Z</time>
      </trkpt>
      <trkpt lat="45.68417494185269" lon="17.678935239091516">
        <ele>145.44</ele>
        <time>2023-10-17T05:40:11.412Z</time>
      </trkpt>
      <trkpt lat="45.684166476130486" lon="17.67895166762173">
        <ele>145.35</ele>
        <time>2023-10-17T05:40:17.914Z</time>
      </trkpt>
      <trkpt lat="45.68415826186538" lon="17.678968096151948">
        <ele>145.26</ele>
        <time>2023-10-17T05:40:24.416Z</time>
      </trkpt>
      <trkpt lat="45.684150382876396" lon="17.678984440863132">
        <ele>145.17</ele>
        <time>2023-10-17T05:40:30.919Z</time>
      </trkpt>
      <trkpt lat="45.68414267152548" lon="17.679000785574317">
        <ele>145.08</ele>
        <time>2023-10-17T05:40:37.422Z</time>
      </trkpt>
      <trkpt lat="45.684135211631656" lon="17.679017214104533">
        <ele>144.99</ele>
        <time>2023-10-17T05:40:43.926Z</time>
      </trkpt>
      <trkpt lat="45.68412800319493" lon="17.67903364263475">
        <ele>144.89</ele>
        <time>2023-10-17T05:40:50.430Z</time>
      </trkpt>
      <trkpt lat="45.68412113003433" lon="17.679050154983997">
        <ele>144.8</ele>
        <time>2023-10-17T05:40:56.935Z</time>
      </trkpt>
      <trkpt lat="45.68411442451179" lon="17.679066667333245">
        <ele>144.71</ele>
        <time>2023-10-17T05:41:03.440Z</time>
      </trkpt>
      <trkpt lat="45.68410797044635" lon="17.679083179682493">
        <ele>144.62</ele>
        <time>2023-10-17T05:41:09.946Z</time>
      </trkpt>
      <trkpt lat="45.684101935476065" lon="17.67909969203174">
        <ele>144.53</ele>
        <time>2023-10-17T05:41:16.452Z</time>
      </trkpt>
      <trkpt lat="45.684096068143845" lon="17.67911620438099">
        <ele>144.45</ele>
        <time>2023-10-17T05:41:22.959Z</time>
      </trkpt>
      <trkpt lat="45.68409036844969" lon="17.6791328843683">
        <ele>144.36</ele>
        <time>2023-10-17T05:41:29.466Z</time>
      </trkpt>
      <trkpt lat="45.68408475257456" lon="17.679149564355612">
        <ele>144.27</ele>
        <time>2023-10-17T05:41:35.973Z</time>
      </trkpt>
      <trkpt lat="45.6840793043375" lon="17.679166244342923">
        <ele>144.19</ele>
        <time>2023-10-17T05:41:42.481Z</time>
      </trkpt>
      <trkpt lat="45.68407377228141" lon="17.679183008149266">
        <ele>144.11</ele>
        <time>2023-10-17T05:41:48.989Z</time>
      </trkpt>
      <trkpt lat="45.68406840786338" lon="17.679199688136578">
        <ele>144.03</ele>
        <time>2023-10-17T05:41:55.498Z</time>
      </trkpt>
      <trkpt lat="45.68406304344535" lon="17.679216535761952">
        <ele>143.95</ele>
        <time>2023-10-17T05:42:02.007Z</time>
      </trkpt>
      <trkpt lat="45.68405767902732" lon="17.679233383387327">
        <ele>143.87</ele>
        <time>2023-10-17T05:42:08.517Z</time>
      </trkpt>
      <trkpt lat="45.68405239842832" lon="17.679250482469797">
        <ele>143.79</ele>
        <time>2023-10-17T05:42:15.027Z</time>
      </trkpt>
      <trkpt lat="45.684047201648355" lon="17.67926774919033">
        <ele>143.72</ele>
        <time>2023-10-17T05:42:21.537Z</time>
      </trkpt>
      <trkpt lat="45.68404200486839" lon="17.67928535118699">
        <ele>143.65</ele>
        <time>2023-10-17T05:42:28.048Z</time>
      </trkpt>
      <trkpt lat="45.684036975726485" lon="17.679303037002683">
        <ele>143.58</ele>
        <time>2023-10-17T05:42:34.559Z</time>
      </trkpt>
      <trkpt lat="45.684032114222646" lon="17.679320890456438">
        <ele>143.51</ele>
        <time>2023-10-17T05:42:41.071Z</time>
      </trkpt>
      <trkpt lat="45.68402742035687" lon="17.679338911548257">
        <ele>143.44</ele>
        <time>2023-10-17T05:42:47.583Z</time>
      </trkpt>
      <trkpt lat="45.68402289412916" lon="17.67935718409717">
        <ele>143.38</ele>
        <time>2023-10-17T05:42:54.096Z</time>
      </trkpt>
      <trkpt lat="45.68401853553951" lon="17.679375540465117">
        <ele>143.32</ele>
        <time>2023-10-17T05:43:00.609Z</time>
      </trkpt>
      <trkpt lat="45.684014428406954" lon="17.679394064471126">
        <ele>143.26</ele>
        <time>2023-10-17T05:43:07.123Z</time>
      </trkpt>
      <trkpt lat="45.6840103212744" lon="17.679412504658103">
        <ele>143.21</ele>
        <time>2023-10-17T05:43:13.637Z</time>
      </trkpt>
      <trkpt lat="45.68400629796088" lon="17.679431028664112">
        <ele>143.15</ele>
        <time>2023-10-17T05:43:20.151Z</time>
      </trkpt>
      <trkpt lat="45.684002274647355" lon="17.67944946885109">
        <ele>143.1</ele>
        <time>2023-10-17T05:43:26.666Z</time>
      </trkpt>
      <trkpt lat="45.68399808369577" lon="17.6794679928571">
        <ele>143.05</ele>
        <time>2023-10-17T05:43:33.181Z</time>
      </trkpt>
      <trkpt lat="45.68399380892515" lon="17.679486349225044">
        <ele>143.0</ele>
        <time>2023-10-17T05:43:39.697Z</time>
      </trkpt>
      <trkpt lat="45.68398928269744" lon="17.67950470559299">
        <ele>142.95</ele>
        <time>2023-10-17T05:43:46.213Z</time>
      </trkpt>
      <trkpt lat="45.683984672650695" lon="17.679522894322872">
        <ele>142.91</ele>
        <time>2023-10-17T05:43:52.730Z</time>
      </trkpt>
      <trkpt lat="45.683979811146855" lon="17.679541083052754">
        <ele>142.87</ele>
        <time>2023-10-17T05:43:59.247Z</time>
      </trkpt>
      <trkpt lat="45.683974949643016" lon="17.679559104144573">
        <ele>142.83</ele>
        <time>2023-10-17T05:44:05.765Z</time>
      </trkpt>
      <trkpt lat="45.683970088139176" lon="17.67957704141736">
        <ele>142.79</ele>
        <time>2023-10-17T05:44:12.283Z</time>
      </trkpt>
      <trkpt lat="45.68396531045437" lon="17.679594978690147">
        <ele>142.75</ele>
        <time>2023-10-17T05:44:18.802Z</time>
      </trkpt>
      <trkpt lat="45.683960700407624" lon="17.679612915962934">
        <ele>142.72</ele>
        <time>2023-10-17T05:44:25.321Z</time>
      </trkpt>
      <trkpt lat="45.683956341817975" lon="17.67963085323572">
        <ele>142.69</ele>
        <time>2023-10-17T05:44:31.840Z</time>
      </trkpt>
      <trkpt lat="45.68395223468542" lon="17.67964887432754">
        <ele>142.66</ele>
        <time>2023-10-17T05:44:38.360Z</time>
      </trkpt>
      <trkpt lat="45.683948462828994" lon="17.67966697923839">
        <ele>142.63</ele>
        <time>2023-10-17T05:44:44.880Z</time>
      </trkpt>
      <trkpt lat="45.68394494242966" lon="17.679685167968273">
        <ele>142.61</ele>
        <time>2023-10-17T05:44:51.401Z</time>
      </trkpt>
      <trkpt lat="45.68394158966839" lon="17.679703440517187">
        <ele>142.58</ele>
        <time>2023-10-17T05:44:57.922Z</time>
      </trkpt>
      <trkpt lat="45.683938320726156" lon="17.679721964523196">
        <ele>142.56</ele>
        <time>2023-10-17T05:45:04.444Z</time>
      </trkpt>
      <trkpt lat="45.68393513560295" lon="17.679740572348237">
        <ele>142.54</ele>
        <time>2023-10-17T05:45:10.966Z</time>
      </trkpt>
      <trkpt lat="45.68393203429878" lon="17.679759431630373">
        <ele>142.53</ele>
        <time>2023-10-17T05:45:17.489Z</time>
      </trkpt>
      <trkpt lat="45.683928932994604" lon="17.67977837473154">
        <ele>142.51</ele>
        <time>2023-10-17T05:45:24.012Z</time>
      </trkpt>
      <trkpt lat="45.68392591550946" lon="17.679797485470772">
        <ele>142.5</ele>
        <time>2023-10-17T05:45:30.535Z</time>
      </trkpt>
      <trkpt lat="45.68392289802432" lon="17.679816680029035">
        <ele>142.5</ele>
        <time>2023-10-17T05:45:37.059Z</time>
      </trkpt>
      <trkpt lat="45.68391979672015" lon="17.67983604222536">
        <ele>142.49</ele>
        <time>2023-10-17T05:45:43.583Z</time>
      </trkpt>
      <trkpt lat="45.683916695415974" lon="17.67985548824072">
        <ele>142.48</ele>
        <time>2023-10-17T05:45:50.108Z</time>
      </trkpt>
      <trkpt lat="45.6839135941118" lon="17.67987501807511">
        <ele>142.48</ele>
        <time>2023-10-17T05:45:56.633Z</time>
      </trkpt>
      <trkpt lat="45.68391049280763" lon="17.67989463172853">
        <ele>142.48</ele>
        <time>2023-10-17T05:46:03.159Z</time>
      </trkpt>
      <trkpt lat="45.683907475322485" lon="17.679914329200983">
        <ele>142.48</ele>
        <time>2023-10-17T05:46:09.685Z</time>
      </trkpt>
      <trkpt lat="45.68390462547541" lon="17.679934026673436">
        <ele>142.49</ele>
        <time>2023-10-17T05:46:16.212Z</time>
      </trkpt>
      <trkpt lat="45.68390202708542" lon="17.67995380796492">
        <ele>142.49</ele>
        <time>2023-10-17T05:46:22.739Z</time>
      </trkpt>
      <trkpt lat="45.68389951251447" lon="17.679973505437374">
        <ele>142.5</ele>
        <time>2023-10-17T05:46:29.267Z</time>
      </trkpt>
      <trkpt lat="45.683897249400616" lon="17.679993035271764">
        <ele>142.51</ele>
        <time>2023-10-17T05:46:35.795Z</time>
      </trkpt>
      <trkpt lat="45.68389515392482" lon="17.68001239746809">
        <ele>142.52</ele>
        <time>2023-10-17T05:46:42.324Z</time>
      </trkpt>
      <trkpt lat="45.68389322608709" lon="17.68003150820732">
        <ele>142.53</ele>
        <time>2023-10-17T05:46:48.853Z</time>
      </trkpt>
      <trkpt lat="45.68389146588743" lon="17.680050283670425">
        <ele>142.55</ele>
        <time>2023-10-17T05:46:55.382Z</time>
      </trkpt>
      <trkpt lat="45.68388978950679" lon="17.680068723857403">
        <ele>142.56</ele>
        <time>2023-10-17T05:47:01.912Z</time>
      </trkpt>
      <trkpt lat="45.683888448402286" lon="17.68008674494922">
        <ele>142.59</ele>
        <time>2023-10-17T05:47:08.442Z</time>
      </trkpt>
      <trkpt lat="45.68388727493584" lon="17.68010426312685">
        <ele>142.61</ele>
        <time>2023-10-17T05:47:14.973Z</time>
      </trkpt>
      <trkpt lat="45.68388635292649" lon="17.680121194571257">
        <ele>142.63</ele>
        <time>2023-10-17T05:47:21.504Z</time>
      </trkpt>
      <trkpt lat="45.68388559855521" lon="17.68013745546341">
        <ele>142.66</ele>
        <time>2023-10-17T05:47:28.036Z</time>
      </trkpt>
      <trkpt lat="45.68388492800295" lon="17.68015271052718">
        <ele>142.68</ele>
        <time>2023-10-17T05:47:34.568Z</time>
      </trkpt>
      <trkpt lat="45.68388442508876" lon="17.6801672950387">
        <ele>142.71</ele>
        <time>2023-10-17T05:47:41.100Z</time>
      </trkpt>
      <trkpt lat="45.68388392217457" lon="17.680181208997965">
        <ele>142.74</ele>
        <time>2023-10-17T05:47:47.633Z</time>
      </trkpt>
      <trkpt lat="45.68388341926038" lon="17.68019411712885">
        <ele>142.77</ele>
        <time>2023-10-17T05:47:54.166Z</time>
      </trkpt>
      <trkpt lat="45.683883083984256" lon="17.680206187069416">
        <ele>142.8</ele>
        <time>2023-10-17T05:48:00.699Z</time>
      </trkpt>
      <trkpt lat="45.68388274870813" lon="17.680217251181602">
        <ele>142.84</ele>
        <time>2023-10-17T05:48:07.232Z</time>
      </trkpt>
      <trkpt lat="45.6838826648891" lon="17.68022730946541">
        <ele>142.87</ele>
        <time>2023-10-17T05:48:13.766Z</time>
      </trkpt>
      <trkpt lat="45.6838826648891" lon="17.680236529558897">
        <ele>142.91</ele>
        <time>2023-10-17T05:48:20.300Z</time>
      </trkpt>
      <trkpt lat="45.68388274870813" lon="17.680245079100132">
        <ele>142.95</ele>
        <time>2023-10-17T05:48:26.834Z</time>
      </trkpt>
      <trkpt lat="45.68388291634619" lon="17.680253125727177">
        <ele>142.99</ele>
        <time>2023-10-17T05:48:33.368Z</time>
      </trkpt>
      <trkpt lat="45.683883083984256" lon="17.680260585621">
        <ele>143.03</ele>
        <time>2023-10-17T05:48:39.902Z</time>
      </trkpt>
      <trkpt lat="45.68388325162232" lon="17.680267710238695">
        <ele>143.08</ele>
        <time>2023-10-17T05:48:46.437Z</time>
      </trkpt>
      <trkpt lat="45.68388325162232" lon="17.680274080485106">
        <ele>143.12</ele>
        <time>2023-10-17T05:48:52.972Z</time>
      </trkpt>
      <trkpt lat="45.68388333544135" lon="17.680279444903135">
        <ele>143.17</ele>
        <time>2023-10-17T05:48:59.507Z</time>
      </trkpt>
      <trkpt lat="45.68388325162232" lon="17.68028413876891">
        <ele>143.22</ele>
        <time>2023-10-17T05:49:06.042Z</time>
      </trkpt>
      <trkpt lat="45.68388316780329" lon="17.680288245901465">
        <ele>143.27</ele>
        <time>2023-10-17T05:49:12.577Z</time>
      </trkpt>
      <trkpt lat="45.683883000165224" lon="17.68029193393886">
        <ele>143.32</ele>
        <time>2023-10-17T05:49:19.112Z</time>
      </trkpt>
      <trkpt lat="45.68388283252716" lon="17.680295119062066">
        <ele>143.37</ele>
        <time>2023-10-17T05:49:25.647Z</time>
      </trkpt>
      <trkpt lat="45.683882413432" lon="17.680298052728176">
        <ele>143.43</ele>
        <time>2023-10-17T05:49:32.182Z</time>
      </trkpt>
      <trkpt lat="45.68388182669878" lon="17.68030073493719">
        <ele>143.49</ele>
        <time>2023-10-17T05:49:38.717Z</time>
      </trkpt>
      <trkpt lat="45.683881072327495" lon="17.68030308187008">
        <ele>143.55</ele>
        <time>2023-10-17T05:49:45.252Z</time>
      </trkpt>
      <trkpt lat="45.68388023413718" lon="17.680305344983935">
        <ele>143.61</ele>
        <time>2023-10-17T05:49:51.787Z</time>
      </trkpt>
      <trkpt lat="45.68387939594686" lon="17.680307356640697">
        <ele>143.68</ele>
        <time>2023-10-17T05:49:58.323Z</time>
      </trkpt>
      <trkpt lat="45.68387855775654" lon="17.680309284478426">
        <ele>143.75</ele>
        <time>2023-10-17T05:50:04.859Z</time>
      </trkpt>
      <trkpt lat="45.68387797102332" lon="17.68031137995422">
        <ele>143.82</ele>
        <time>2023-10-17T05:50:11.395Z</time>
      </trkpt>
      <trkpt lat="45.683877635747194" lon="17.680313643068075">
        <ele>143.89</ele>
        <time>2023-10-17T05:50:17.931Z</time>
      </trkpt>
      <trkpt lat="45.6838773842901" lon="17.68031590618193">
        <ele>143.97</ele>
        <time>2023-10-17T05:50:24.467Z</time>
      </trkpt>
      <trkpt lat="45.683877216652036" lon="17.680318169295788">
        <ele>144.04</ele>
        <time>2023-10-17T05:50:31.003Z</time>
      </trkpt>
      <trkpt lat="45.68387704901397" lon="17.680320516228676">
        <ele>144.13</ele>
        <time>2023-10-17T05:50:37.539Z</time>
      </trkpt>
      <trkpt lat="45.68387688137591" lon="17.68032261170447">
        <ele>144.21</ele>
        <time>2023-10-17T05:50:44.075Z</time>
      </trkpt>
      <trkpt lat="45.68387688137591" lon="17.680324288085103">
        <ele>144.3</ele>
        <time>2023-10-17T05:50:50.611Z</time>
      </trkpt>
      <trkpt lat="45.68387696519494" lon="17.680325796827674">
        <ele>144.39</ele>
        <time>2023-10-17T05:50:57.147Z</time>
      </trkpt>
      <trkpt lat="45.683877216652036" lon="17.68032705411315">
        <ele>144.48</ele>
        <time>2023-10-17T05:51:03.683Z</time>
      </trkpt>
      <trkpt lat="45.68387755192816" lon="17.680328143760562">
        <ele>144.58</ele>
        <time>2023-10-17T05:51:10.219Z</time>
      </trkpt>
      <trkpt lat="45.683877719566226" lon="17.68032948486507">
        <ele>144.68</ele>
        <time>2023-10-17T05:51:16.755Z</time>
      </trkpt>
      <trkpt lat="45.68387780338526" lon="17.680331161245704">
        <ele>144.79</ele>
        <time>2023-10-17T05:51:23.291Z</time>
      </trkpt>
      <trkpt lat="45.683877635747194" lon="17.680333256721497">
        <ele>144.9</ele>
        <time>2023-10-17T05:51:29.827Z</time>
      </trkpt>
      <trkpt lat="45.68387730047107" lon="17.680336022749543">
        <ele>145.01</ele>
        <time>2023-10-17T05:51:36.363Z</time>
      </trkpt>
      <trkpt lat="45.68387688137591" lon="17.68033929169178">
        <ele>145.13</ele>
        <time>2023-10-17T05:51:42.899Z</time>
      </trkpt>
      <trkpt lat="45.68387637846172" lon="17.68034323118627">
        <ele>145.25</ele>
        <time>2023-10-17T05:51:49.435Z</time>
      </trkpt>
      <trkpt lat="45.68387604318559" lon="17.680347925052047">
        <ele>145.37</ele>
        <time>2023-10-17T05:51:55.971Z</time>
      </trkpt>
      <trkpt lat="45.6838757917285" lon="17.68035354092717">
        <ele>145.5</ele>
        <time>2023-10-17T05:52:02.508Z</time>
      </trkpt>
      <trkpt lat="45.683875707909465" lon="17.680360162630677">
        <ele>145.63</ele>
        <time>2023-10-17T05:52:09.045Z</time>
      </trkpt>
      <trkpt lat="45.683875707909465" lon="17.680367538705468">
        <ele>145.77</ele>
        <time>2023-10-17T05:52:15.582Z</time>
      </trkpt>
      <trkpt lat="45.68387587554753" lon="17.680375836789608">
        <ele>145.91</ele>
        <time>2023-10-17T05:52:22.119Z</time>
      </trkpt>
      <trkpt lat="45.683876210823655" lon="17.680384805426">
        <ele>146.05</ele>
        <time>2023-10-17T05:52:28.656Z</time>
      </trkpt>
      <trkpt lat="45.68387679755688" lon="17.680394612252712">
        <ele>146.2</ele>
        <time>2023-10-17T05:52:35.194Z</time>
      </trkpt>
      <trkpt lat="45.683877719566226" lon="17.680404921993613">
        <ele>146.36</ele>
        <time>2023-10-17T05:52:41.732Z</time>
      </trkpt>
      <trkpt lat="45.68387880921364" lon="17.680415650829673">
        <ele>146.51</ele>
        <time>2023-10-17T05:52:48.270Z</time>
      </trkpt>
      <trkpt lat="45.683880150318146" lon="17.680426966398954">
        <ele>146.68</ele>
        <time>2023-10-17T05:52:54.808Z</time>
      </trkpt>
      <trkpt lat="45.683881575241685" lon="17.680438701063395">
        <ele>146.84</ele>
        <time>2023-10-17T05:53:01.347Z</time>
      </trkpt>
      <trkpt lat="45.68388316780329" lon="17.680450938642025">
        <ele>147.01</ele>
        <time>2023-10-17T05:53:07.886Z</time>
      </trkpt>
      <trkpt lat="45.68388492800295" lon="17.68046342767775">
        <ele>147.19</ele>
        <time>2023-10-17T05:53:14.425Z</time>
      </trkpt>
      <trkpt lat="45.68388668820262" lon="17.680476251989603">
        <ele>147.36</ele>
        <time>2023-10-17T05:53:20.965Z</time>
      </trkpt>
      <trkpt lat="45.68388861604035" lon="17.680489579215646">
        <ele>147.54</ele>
        <time>2023-10-17T05:53:27.505Z</time>
      </trkpt>
      <trkpt lat="45.68389062769711" lon="17.680503157898784">
        <ele>147.73</ele>
        <time>2023-10-17T05:53:34.045Z</time>
      </trkpt>
      <trkpt lat="45.6838927231729" lon="17.680516904219985">
        <ele>147.92</ele>
        <time>2023-10-17T05:53:40.585Z</time>
      </trkpt>
      <trkpt lat="45.683894818648696" lon="17.680530650541186">
        <ele>148.11</ele>
        <time>2023-10-17T05:53:47.126Z</time>
      </trkpt>
      <trkpt lat="45.68389699794352" lon="17.68054448068142">
        <ele>148.31</ele>
        <time>2023-10-17T05:53:53.667Z</time>
      </trkpt>
      <trkpt lat="45.68389909341931" lon="17.680558310821652">
        <ele>148.51</ele>
        <time>2023-10-17T05:54:00.208Z</time>
      </trkpt>
      <trkpt lat="45.683901105076075" lon="17.680572057142854">
        <ele>148.71</ele>
        <time>2023-10-17T05:54:06.750Z</time>
      </trkpt>
      <trkpt lat="45.683903032913804" lon="17.680585803464055">
        <ele>148.92</ele>
        <time>2023-10-17T05:54:13.292Z</time>
      </trkpt>
      <trkpt lat="45.68390479311347" lon="17.68059929832816">
        <ele>149.13</ele>
        <time>2023-10-17T05:54:19.834Z</time>
      </trkpt>
      <trkpt lat="45.683906469494104" lon="17.680612541735172">
        <ele>149.34</ele>
        <time>2023-10-17T05:54:26.377Z</time>
      </trkpt>
      <trkpt lat="45.68390789441764" lon="17.680625366047025">
        <ele>149.56</ele>
        <time>2023-10-17T05:54:32.920Z</time>
      </trkpt>
      <trkpt lat="45.68390931934118" lon="17.68063785508275">
        <ele>149.78</ele>
        <time>2023-10-17T05:54:39.463Z</time>
      </trkpt>
      <trkpt lat="45.68391057662666" lon="17.680649925023317">
        <ele>150.0</ele>
        <time>2023-10-17T05:54:46.007Z</time>
      </trkpt>
      <trkpt lat="45.683911917731166" lon="17.68066182732582">
        <ele>150.23</ele>
        <time>2023-10-17T05:54:52.551Z</time>
      </trkpt>
      <trkpt lat="45.68391325883567" lon="17.680673645809293">
        <ele>150.46</ele>
        <time>2023-10-17T05:54:59.095Z</time>
      </trkpt>
      <trkpt lat="45.68391459994018" lon="17.680685464292765">
        <ele>150.69</ele>
        <time>2023-10-17T05:55:05.639Z</time>
      </trkpt>
      <trkpt lat="45.68391610868275" lon="17.680697198957205">
        <ele>150.93</ele>
        <time>2023-10-17T05:55:12.184Z</time>
      </trkpt>
      <trkpt lat="45.683917785063386" lon="17.680708849802613">
        <ele>151.17</ele>
        <time>2023-10-17T05:55:18.729Z</time>
      </trkpt>
      <trkpt lat="45.683919629082084" lon="17.68072050064802">
        <ele>151.41</ele>
        <time>2023-10-17T05:55:25.274Z</time>
      </trkpt>
      <trkpt lat="45.68392172455788" lon="17.68073215149343">
        <ele>151.65</ele>
        <time>2023-10-17T05:55:31.820Z</time>
      </trkpt>
      <trkpt lat="45.6839239038527" lon="17.680743969976902">
        <ele>151.9</ele>
        <time>2023-10-17T05:55:38.366Z</time>
      </trkpt>
      <trkpt lat="45.68392625078559" lon="17.68075603991747">
        <ele>152.15</ele>
        <time>2023-10-17T05:55:44.912Z</time>
      </trkpt>
      <trkpt lat="45.68392876535654" lon="17.680768445134163">
        <ele>152.4</ele>
        <time>2023-10-17T05:55:51.458Z</time>
      </trkpt>
      <trkpt lat="45.68393127992749" lon="17.680781101807952">
        <ele>152.66</ele>
        <time>2023-10-17T05:55:58.005Z</time>
      </trkpt>
      <trkpt lat="45.68393371067941" lon="17.680793842300773">
        <ele>152.91</ele>
        <time>2023-10-17T05:56:04.552Z</time>
      </trkpt>
      <trkpt lat="45.68393614143133" lon="17.68080691806972">
        <ele>153.17</ele>
        <time>2023-10-17T05:56:11.099Z</time>
      </trkpt>
      <trkpt lat="45.68393848836422" lon="17.680820245295763">
        <ele>153.43</ele>
        <time>2023-10-17T05:56:17.647Z</time>
      </trkpt>
      <trkpt lat="45.683940751478076" lon="17.680833991616964">
        <ele>153.7</ele>
        <time>2023-10-17T05:56:24.195Z</time>
      </trkpt>
      <trkpt lat="45.68394284695387" lon="17.680848073214293">
        <ele>153.96</ele>
        <time>2023-10-17T05:56:30.743Z</time>
      </trkpt>
      <trkpt lat="45.68394494242966" lon="17.680862490087748">
        <ele>154.23</ele>
        <time>2023-10-17T05:56:37.292Z</time>
      </trkpt>
      <trkpt lat="45.68394695408642" lon="17.680876990780234">
        <ele>154.5</ele>
        <time>2023-10-17T05:56:43.841Z</time>
      </trkpt>
      <trkpt lat="45.68394888192415" lon="17.68089140765369">
        <ele>154.77</ele>
        <time>2023-10-17T05:56:50.390Z</time>
      </trkpt>
      <trkpt lat="45.68395080976188" lon="17.680905740708113">
        <ele>155.04</ele>
        <time>2023-10-17T05:56:56.940Z</time>
      </trkpt>
      <trkpt lat="45.68395273759961" lon="17.68091973848641">
        <ele>155.31</ele>
        <time>2023-10-17T05:57:03.490Z</time>
      </trkpt>
      <trkpt lat="45.68395474925637" lon="17.680933736264706">
        <ele>155.58</ele>
        <time>2023-10-17T05:57:10.040Z</time>
      </trkpt>
      <trkpt lat="45.683956844732165" lon="17.68094756640494">
        <ele>155.86</ele>
        <time>2023-10-17T05:57:16.591Z</time>
      </trkpt>
      <trkpt lat="45.68395902402699" lon="17.680961145088077">
        <ele>156.13</ele>
        <time>2023-10-17T05:57:23.142Z</time>
      </trkpt>
      <trkpt lat="45.68396137095988" lon="17.68097447231412">
        <ele>156.4</ele>
        <time>2023-10-17T05:57:29.693Z</time>
      </trkpt>
      <trkpt lat="45.683963717892766" lon="17.680987548083067">
        <ele>156.68</ele>
        <time>2023-10-17T05:57:36.245Z</time>
      </trkpt>
      <trkpt lat="45.683966064825654" lon="17.681000540032983">
        <ele>156.96</ele>
        <time>2023-10-17T05:57:42.797Z</time>
      </trkpt>
      <trkpt lat="45.68396841175854" lon="17.68101311288774">
        <ele>157.23</ele>
        <time>2023-10-17T05:57:49.349Z</time>
      </trkpt>
      <trkpt lat="45.68397059105337" lon="17.68102585338056">
        <ele>157.51</ele>
        <time>2023-10-17T05:57:55.902Z</time>
      </trkpt>
      <trkpt lat="45.68397268652916" lon="17.681038761511445">
        <ele>157.78</ele>
        <time>2023-10-17T05:58:02.455Z</time>
      </trkpt>
      <trkpt lat="45.68397453054786" lon="17.681052004918456">
        <ele>158.06</ele>
        <time>2023-10-17T05:58:09.008Z</time>
      </trkpt>
      <trkpt lat="45.68397620692849" lon="17.681065583601594">
        <ele>158.34</ele>
        <time>2023-10-17T05:58:15.562Z</time>
      </trkpt>
      <trkpt lat="45.68397763185203" lon="17.681079246103764">
        <ele>158.61</ele>
        <time>2023-10-17T05:58:22.116Z</time>
      </trkpt>
      <trkpt lat="45.68397897295654" lon="17.681092992424965">
        <ele>158.89</ele>
        <time>2023-10-17T05:58:28.670Z</time>
      </trkpt>
      <trkpt lat="45.68398006260395" lon="17.68110690638423">
        <ele>159.16</ele>
        <time>2023-10-17T05:58:35.225Z</time>
      </trkpt>
      <trkpt lat="45.6839809846133" lon="17.681120987981558">
        <ele>159.44</ele>
        <time>2023-10-17T05:58:41.780Z</time>
      </trkpt>
      <trkpt lat="45.683981738984585" lon="17.681135069578886">
        <ele>159.71</ele>
        <time>2023-10-17T05:58:48.335Z</time>
      </trkpt>
      <trkpt lat="45.68398240953684" lon="17.681149067357183">
        <ele>159.99</ele>
        <time>2023-10-17T05:58:54.891Z</time>
      </trkpt>
      <trkpt lat="45.68398308008909" lon="17.681163400411606">
        <ele>160.26</ele>
        <time>2023-10-17T05:59:01.447Z</time>
      </trkpt>
      <trkpt lat="45.683983666822314" lon="17.681177901104093">
        <ele>160.53</ele>
        <time>2023-10-17T05:59:08.003Z</time>
      </trkpt>
      <trkpt lat="45.683984253555536" lon="17.68119240179658">
        <ele>160.8</ele>
        <time>2023-10-17T05:59:14.560Z</time>
      </trkpt>
      <trkpt lat="45.68398492410779" lon="17.681206986308098">
        <ele>161.07</ele>
        <time>2023-10-17T05:59:21.117Z</time>
      </trkpt>
      <trkpt lat="45.683985594660044" lon="17.681221403181553">
        <ele>161.34</ele>
        <time>2023-10-17T05:59:27.674Z</time>
      </trkpt>
      <trkpt lat="45.68398651666939" lon="17.681235820055008">
        <ele>161.6</ele>
        <time>2023-10-17T05:59:34.232Z</time>
      </trkpt>
      <trkpt lat="45.68398752249777" lon="17.68125015310943">
        <ele>161.87</ele>
        <time>2023-10-17T05:59:40.790Z</time>
      </trkpt>
      <trkpt lat="45.68398877978325" lon="17.68126423470676">
        <ele>162.13</ele>
        <time>2023-10-17T05:59:47.348Z</time>
      </trkpt>
      <trkpt lat="45.68399028852582" lon="17.68127798102796">
        <ele>162.39</ele>
        <time>2023-10-17T05:59:53.907Z</time>
      </trkpt>
      <trkpt lat="45.68399213254452" lon="17.681291475892067">
        <ele>162.65</ele>
        <time>2023-10-17T06:00:00.466Z</time>
      </trkpt>
      <trkpt lat="45.683994395658374" lon="17.681304719299078">
        <ele>162.9</ele>
        <time>2023-10-17T06:00:07.025Z</time>
      </trkpt>
      <trkpt lat="45.68399724550545" lon="17.681317711248994">
        <ele>163.16</ele>
        <time>2023-10-17T06:00:13.585Z</time>
      </trkpt>
      <trkpt lat="45.68400068208575" lon="17.68133028410375">
        <ele>163.41</ele>
        <time>2023-10-17T06:00:20.145Z</time>
      </trkpt>
      <trkpt lat="45.684004705399275" lon="17.681342354044318">
        <ele>163.66</ele>
        <time>2023-10-17T06:00:26.705Z</time>
      </trkpt>
      <trkpt lat="45.68400931544602" lon="17.681353921070695">
        <ele>163.91</ele>
        <time>2023-10-17T06:00:33.266Z</time>
      </trkpt>
      <trkpt lat="45.684014428406954" lon="17.681365152820945">
        <ele>164.15</ele>
        <time>2023-10-17T06:00:39.827Z</time>
      </trkpt>
      <trkpt lat="45.68402004428208" lon="17.681376300752163">
        <ele>164.4</ele>
        <time>2023-10-17T06:00:46.388Z</time>
      </trkpt>
      <trkpt lat="45.68402599543333" lon="17.68138736486435">
        <ele>164.64</ele>
        <time>2023-10-17T06:00:52.949Z</time>
      </trkpt>
      <trkpt lat="45.68403236567974" lon="17.681398428976536">
        <ele>164.87</ele>
        <time>2023-10-17T06:00:59.511Z</time>
      </trkpt>
      <trkpt lat="45.684038987383246" lon="17.681409660726786">
        <ele>165.11</ele>
        <time>2023-10-17T06:01:06.073Z</time>
      </trkpt>
      <trkpt lat="45.684045692905784" lon="17.681420808658004">
        <ele>165.34</ele>
        <time>2023-10-17T06:01:12.635Z</time>
      </trkpt>
      <trkpt lat="45.684052063152194" lon="17.68143178895116">
        <ele>165.57</ele>
        <time>2023-10-17T06:01:19.198Z</time>
      </trkpt>
      <trkpt lat="45.684057930484414" lon="17.68144268542528">
        <ele>165.8</ele>
        <time>2023-10-17T06:01:25.761Z</time>
      </trkpt>
      <trkpt lat="45.68406321108341" lon="17.68145341426134">
        <ele>166.02</ele>
        <time>2023-10-17T06:01:32.324Z</time>
      </trkpt>
      <trkpt lat="45.68406798876822" lon="17.681464226916432">
        <ele>166.24</ele>
        <time>2023-10-17T06:01:38.888Z</time>
      </trkpt>
      <trkpt lat="45.68407226353884" lon="17.681475039571524">
        <ele>166.46</ele>
        <time>2023-10-17T06:01:45.452Z</time>
      </trkpt>
      <trkpt lat="45.68407595157623" lon="17.681485936045647">
        <ele>166.67</ele>
        <time>2023-10-17T06:01:52.016Z</time>
      </trkpt>
      <trkpt lat="45.68407922051847" lon="17.681496748700738">
        <ele>166.88</ele>
        <time>2023-10-17T06:01:58.581Z</time>
      </trkpt>
      <trkpt lat="45.68408207036555" lon="17.68150764517486">
        <ele>167.09</ele>
        <time>2023-10-17T06:02:05.146Z</time>
      </trkpt>
      <trkpt lat="45.684084417298436" lon="17.681518457829952">
        <ele>167.3</ele>
        <time>2023-10-17T06:02:11.711Z</time>
      </trkpt>
      <trkpt lat="45.684086345136166" lon="17.681529438123107">
        <ele>167.5</ele>
        <time>2023-10-17T06:02:18.276Z</time>
      </trkpt>
      <trkpt lat="45.68408793769777" lon="17.68154083751142">
        <ele>167.7</ele>
        <time>2023-10-17T06:02:24.842Z</time>
      </trkpt>
      <trkpt lat="45.68408936262131" lon="17.681552655994892">
        <ele>167.9</ele>
        <time>2023-10-17T06:02:31.408Z</time>
      </trkpt>
      <trkpt lat="45.684090703725815" lon="17.68156480975449">
        <ele>168.09</ele>
        <time>2023-10-17T06:02:37.974Z</time>
      </trkpt>
      <trkpt lat="45.68409196101129" lon="17.681577634066343">
        <ele>168.28</ele>
        <time>2023-10-17T06:02:44.541Z</time>
      </trkpt>
      <trkpt lat="45.684093218296766" lon="17.681590793654323">
        <ele>168.47</ele>
        <time>2023-10-17T06:02:51.108Z</time>
      </trkpt>
      <trkpt lat="45.68409439176321" lon="17.681604456156492">
        <ele>168.65</ele>
        <time>2023-10-17T06:02:57.675Z</time>
      </trkpt>
      <trkpt lat="45.68409548141062" lon="17.681618705391884">
        <ele>168.83</ele>
        <time>2023-10-17T06:03:04.243Z</time>
      </trkpt>
      <trkpt lat="45.68409631960094" lon="17.681633541360497">
        <ele>169.01</ele>
        <time>2023-10-17T06:03:10.811Z</time>
      </trkpt>
      <trkpt lat="45.684097073972225" lon="17.681648712605238">
        <ele>169.19</ele>
        <time>2023-10-17T06:03:17.379Z</time>
      </trkpt>
      <trkpt lat="45.68409774452448" lon="17.681664219126105">
        <ele>169.36</ele>
        <time>2023-10-17T06:03:23.948Z</time>
      </trkpt>
      <trkpt lat="45.684098498895764" lon="17.681679977104068">
        <ele>169.53</ele>
        <time>2023-10-17T06:03:30.517Z</time>
      </trkpt>
      <trkpt lat="45.68409933708608" lon="17.681695902720094">
        <ele>169.7</ele>
        <time>2023-10-17T06:03:37.086Z</time>
      </trkpt>
      <trkpt lat="45.68410025909543" lon="17.68171182833612">
        <ele>169.86</ele>
        <time>2023-10-17T06:03:43.656Z</time>
      </trkpt>
      <trkpt lat="45.684101516380906" lon="17.681727334856987">
        <ele>170.02</ele>
        <time>2023-10-17T06:03:50.226Z</time>
      </trkpt>
      <trkpt lat="45.684102941304445" lon="17.681742506101727">
        <ele>170.18</ele>
        <time>2023-10-17T06:03:56.796Z</time>
      </trkpt>
      <trkpt lat="45.68410453386605" lon="17.681757425889373">
        <ele>170.33</ele>
        <time>2023-10-17T06:04:03.367Z</time>
      </trkpt>
      <trkpt lat="45.684106377884746" lon="17.68177192658186">
        <ele>170.48</ele>
        <time>2023-10-17T06:04:09.938Z</time>
      </trkpt>
      <trkpt lat="45.68410838954151" lon="17.681785924360156">
        <ele>170.63</ele>
        <time>2023-10-17T06:04:16.509Z</time>
      </trkpt>
      <trkpt lat="45.68411056883633" lon="17.68179933540523">
        <ele>170.77</ele>
        <time>2023-10-17T06:04:23.081Z</time>
      </trkpt>
      <trkpt lat="45.684112664312124" lon="17.68181257881224">
        <ele>170.91</ele>
        <time>2023-10-17T06:04:29.653Z</time>
      </trkpt>
      <trkpt lat="45.68411475978792" lon="17.681825319305062">
        <ele>171.05</ele>
        <time>2023-10-17T06:04:36.225Z</time>
      </trkpt>
      <trkpt lat="45.68411668762565" lon="17.681837724521756">
        <ele>171.19</ele>
        <time>2023-10-17T06:04:42.798Z</time>
      </trkpt>
      <trkpt lat="45.68411836400628" lon="17.681849962100387">
        <ele>171.32</ele>
        <time>2023-10-17T06:04:49.371Z</time>
      </trkpt>
      <trkpt lat="45.68411962129176" lon="17.681862199679017">
        <ele>171.45</ele>
        <time>2023-10-17T06:04:55.944Z</time>
      </trkpt>
      <trkpt lat="45.68412071093917" lon="17.68187460489571">
        <ele>171.58</ele>
        <time>2023-10-17T06:05:02.518Z</time>
      </trkpt>
      <trkpt lat="45.684121465310454" lon="17.681887429207563">
        <ele>171.7</ele>
        <time>2023-10-17T06:05:09.092Z</time>
      </trkpt>
      <trkpt lat="45.684122052043676" lon="17.681900588795543">
        <ele>171.83</ele>
        <time>2023-10-17T06:05:15.666Z</time>
      </trkpt>
      <trkpt lat="45.68412230350077" lon="17.68191416747868">
        <ele>171.95</ele>
        <time>2023-10-17T06:05:22.240Z</time>
      </trkpt>
      <trkpt lat="45.6841223873198" lon="17.68192824907601">
        <ele>172.07</ele>
        <time>2023-10-17T06:05:28.815Z</time>
      </trkpt>
      <trkpt lat="45.68412230350077" lon="17.681942833587527">
        <ele>172.19</ele>
        <time>2023-10-17T06:05:35.390Z</time>
      </trkpt>
      <trkpt lat="45.684122052043676" lon="17.68195766955614">
        <ele>172.3</ele>
        <time>2023-10-17T06:05:41.965Z</time>
      </trkpt>
      <trkpt lat="45.68412171676755" lon="17.681972924619913">
        <ele>172.42</ele>
        <time>2023-10-17T06:05:48.541Z</time>
      </trkpt>
      <trkpt lat="45.68412138149142" lon="17.681988514959812">
        <ele>172.53</ele>
        <time>2023-10-17T06:05:55.117Z</time>
      </trkpt>
      <trkpt lat="45.68412113003433" lon="17.682004440575838">
        <ele>172.64</ele>
        <time>2023-10-17T06:06:01.694Z</time>
      </trkpt>
      <trkpt lat="45.6841207947582" lon="17.682020450010896">
        <ele>172.75</ele>
        <time>2023-10-17T06:06:08.271Z</time>
      </trkpt>
      <trkpt lat="45.68412037566304" lon="17.68203671090305">
        <ele>172.85</ele>
        <time>2023-10-17T06:06:14.848Z</time>
      </trkpt>
      <trkpt lat="45.68411978892982" lon="17.682053055614233">
        <ele>172.96</ele>
        <time>2023-10-17T06:06:21.426Z</time>
      </trkpt>
      <trkpt lat="45.684119034558535" lon="17.68206948414445">
        <ele>173.06</ele>
        <time>2023-10-17T06:06:28.004Z</time>
      </trkpt>
      <trkpt lat="45.684118028730154" lon="17.682085912674665">
        <ele>173.16</ele>
        <time>2023-10-17T06:06:34.582Z</time>
      </trkpt>
      <trkpt lat="45.68411685526371" lon="17.68210234120488">
        <ele>173.26</ele>
        <time>2023-10-17T06:06:41.161Z</time>
      </trkpt>
      <trkpt lat="45.684115597978234" lon="17.682118685916066">
        <ele>173.36</ele>
        <time>2023-10-17T06:06:47.740Z</time>
      </trkpt>
      <trkpt lat="45.68411434069276" lon="17.682135282084346">
        <ele>173.45</ele>
        <time>2023-10-17T06:06:54.320Z</time>
      </trkpt>
      <trkpt lat="45.68411299958825" lon="17.682151878252625">
        <ele>173.55</ele>
        <time>2023-10-17T06:07:00.900Z</time>
      </trkpt>
      <trkpt lat="45.684111742302775" lon="17.682168390601873">
        <ele>173.64</ele>
        <time>2023-10-17T06:07:07.480Z</time>
      </trkpt>
      <trkpt lat="45.68411065265536" lon="17.682184986770153">
        <ele>173.74</ele>
        <time>2023-10-17T06:07:14.061Z</time>
      </trkpt>
      <trkpt lat="45.684109730646014" lon="17.682201331481338">
        <ele>173.83</ele>
        <time>2023-10-17T06:07:20.642Z</time>
      </trkpt>
      <trkpt lat="45.68410897627473" lon="17.682217424735427">
        <ele>173.92</ele>
        <time>2023-10-17T06:07:27.224Z</time>
      </trkpt>
      <trkpt lat="45.68410855717957" lon="17.682233098894358">
        <ele>174.01</ele>
        <time>2023-10-17T06:07:33.806Z</time>
      </trkpt>
      <trkpt lat="45.684108305722475" lon="17.682248270139098">
        <ele>174.1</ele>
        <time>2023-10-17T06:07:40.388Z</time>
      </trkpt>
      <trkpt lat="45.68410822190344" lon="17.68226302228868">
        <ele>174.19</ele>
        <time>2023-10-17T06:07:46.971Z</time>
      </trkpt>
      <trkpt lat="45.68410822190344" lon="17.682277020066977">
        <ele>174.28</ele>
        <time>2023-10-17T06:07:53.554Z</time>
      </trkpt>
      <trkpt lat="45.68410813808441" lon="17.682290598750114">
        <ele>174.37</ele>
        <time>2023-10-17T06:08:00.137Z</time>
      </trkpt>
      <trkpt lat="45.68410805426538" lon="17.68230359070003">
        <ele>174.45</ele>
        <time>2023-10-17T06:08:06.721Z</time>
      </trkpt>
      <trkpt lat="45.68410771898925" lon="17.682316163554788">
        <ele>174.54</ele>
        <time>2023-10-17T06:08:13.305Z</time>
      </trkpt>
      <trkpt lat="45.684107299894094" lon="17.682328401133418">
        <ele>174.63</ele>
        <time>2023-10-17T06:08:19.889Z</time>
      </trkpt>
      <trkpt lat="45.68410654552281" lon="17.68234013579786">
        <ele>174.72</ele>
        <time>2023-10-17T06:08:26.473Z</time>
      </trkpt>
      <trkpt lat="45.6841054558754" lon="17.682351702824235">
        <ele>174.8</ele>
        <time>2023-10-17T06:08:33.058Z</time>
      </trkpt>
      <trkpt lat="45.684103947132826" lon="17.68236310221255">
        <ele>174.89</ele>
        <time>2023-10-17T06:08:39.643Z</time>
      </trkpt>
      <trkpt lat="45.684101935476065" lon="17.682374585419893">
        <ele>174.98</ele>
        <time>2023-10-17T06:08:46.228Z</time>
      </trkpt>
      <trkpt lat="45.684099504724145" lon="17.682385984808207">
        <ele>175.07</ele>
        <time>2023-10-17T06:08:52.814Z</time>
      </trkpt>
      <trkpt lat="45.684096487239" lon="17.682397551834583">
        <ele>175.15</ele>
        <time>2023-10-17T06:08:59.400Z</time>
      </trkpt>
      <trkpt lat="45.684093218296766" lon="17.68240911886096">
        <ele>175.24</ele>
        <time>2023-10-17T06:09:05.986Z</time>
      </trkpt>
      <trkpt lat="45.68408936262131" lon="17.6824208535254">
        <ele>175.33</ele>
        <time>2023-10-17T06:09:12.572Z</time>
      </trkpt>
      <trkpt lat="45.68408500403166" lon="17.682432672008872">
        <ele>175.42</ele>
        <time>2023-10-17T06:09:19.159Z</time>
      </trkpt>
      <trkpt lat="45.68408014252782" lon="17.68244482576847">
        <ele>175.51</ele>
        <time>2023-10-17T06:09:25.746Z</time>
      </trkpt>
      <trkpt lat="45.68407477810979" lon="17.682457314804196">
        <ele>175.6</ele>
        <time>2023-10-17T06:09:32.333Z</time>
      </trkpt>
      <trkpt lat="45.6840689945966" lon="17.682469887658954">
        <ele>175.69</ele>
        <time>2023-10-17T06:09:38.921Z</time>
      </trkpt>
      <trkpt lat="45.68406295962632" lon="17.68248287960887">
        <ele>175.78</ele>
        <time>2023-10-17T06:09:45.509Z</time>
      </trkpt>
      <trkpt lat="45.684056840837" lon="17.682496374472976">
        <ele>175.87</ele>
        <time>2023-10-17T06:09:52.098Z</time>
      </trkpt>
      <trkpt lat="45.68405047059059" lon="17.682510456070304">
        <ele>175.97</ele>
        <time>2023-10-17T06:09:58.687Z</time>
      </trkpt>
      <trkpt lat="45.68404418416321" lon="17.682525124400854">
        <ele>176.06</ele>
        <time>2023-10-17T06:10:05.276Z</time>
      </trkpt>
      <trkpt lat="45.684037897735834" lon="17.682540463283658">
        <ele>176.16</ele>
        <time>2023-10-17T06:10:11.866Z</time>
      </trkpt>
      <trkpt lat="45.684031611308455" lon="17.682556556537747">
        <ele>176.26</ele>
        <time>2023-10-17T06:10:18.456Z</time>
      </trkpt>
      <trkpt lat="45.68402540870011" lon="17.682573404163122">
        <ele>176.36</ele>
        <time>2023-10-17T06:10:25.047Z</time>
      </trkpt>
      <trkpt lat="45.68401954136789" lon="17.682590587064624">
        <ele>176.46</ele>
        <time>2023-10-17T06:10:31.638Z</time>
      </trkpt>
      <trkpt lat="45.68401384167373" lon="17.68260802142322">
        <ele>176.56</ele>
        <time>2023-10-17T06:10:38.229Z</time>
      </trkpt>
      <trkpt lat="45.684008561074734" lon="17.682625455781817">
        <ele>176.66</ele>
        <time>2023-10-17T06:10:44.821Z</time>
      </trkpt>
      <trkpt lat="45.6840034481138" lon="17.68264314159751">
        <ele>176.77</ele>
        <time>2023-10-17T06:10:51.413Z</time>
      </trkpt>
      <trkpt lat="45.68399867042899" lon="17.682660911232233">
        <ele>176.87</ele>
        <time>2023-10-17T06:10:58.006Z</time>
      </trkpt>
      <trkpt lat="45.68399414420128" lon="17.682678513228893">
        <ele>176.98</ele>
        <time>2023-10-17T06:11:04.599Z</time>
      </trkpt>
      <trkpt lat="45.68398986943066" lon="17.682696031406522">
        <ele>177.09</ele>
        <time>2023-10-17T06:11:11.193Z</time>
      </trkpt>
      <trkpt lat="45.6839860137552" lon="17.68271346576512">
        <ele>177.2</ele>
        <time>2023-10-17T06:11:17.787Z</time>
      </trkpt>
      <trkpt lat="45.68398240953684" lon="17.682730816304684">
        <ele>177.31</ele>
        <time>2023-10-17T06:11:24.382Z</time>
      </trkpt>
      <trkpt lat="45.683979308232665" lon="17.682747915387154">
        <ele>177.43</ele>
        <time>2023-10-17T06:11:30.977Z</time>
      </trkpt>
      <trkpt lat="45.68397670984268" lon="17.682764930650592">
        <ele>177.55</ele>
        <time>2023-10-17T06:11:37.572Z</time>
      </trkpt>
      <trkpt lat="45.68397453054786" lon="17.682781862095">
        <ele>177.67</ele>
        <time>2023-10-17T06:11:44.168Z</time>
      </trkpt>
      <trkpt lat="45.68397277034819" lon="17.682798877358437">
        <ele>177.79</ele>
        <time>2023-10-17T06:11:50.764Z</time>
      </trkpt>
      <trkpt lat="45.68397126160562" lon="17.68281606025994">
        <ele>177.91</ele>
        <time>2023-10-17T06:11:57.361Z</time>
      </trkpt>
      <trkpt lat="45.683970004320145" lon="17.682833410799503">
        <ele>178.04</ele>
        <time>2023-10-17T06:12:03.958Z</time>
      </trkpt>
      <trkpt lat="45.68396874703467" lon="17.68285076133907">
        <ele>178.17</ele>
        <time>2023-10-17T06:12:10.555Z</time>
      </trkpt>
      <trkpt lat="45.68396765738726" lon="17.682868195697665">
        <ele>178.31</ele>
        <time>2023-10-17T06:12:17.153Z</time>
      </trkpt>
      <trkpt lat="45.68396673537791" lon="17.68288554623723">
        <ele>178.44</ele>
        <time>2023-10-17T06:12:23.751Z</time>
      </trkpt>
      <trkpt lat="45.68396581336856" lon="17.682902896776795">
        <ele>178.58</ele>
        <time>2023-10-17T06:12:30.350Z</time>
      </trkpt>
      <trkpt lat="45.68396489135921" lon="17.68292024731636">
        <ele>178.73</ele>
        <time>2023-10-17T06:12:36.949Z</time>
      </trkpt>
      <trkpt lat="45.68396405316889" lon="17.68293776549399">
        <ele>178.87</ele>
        <time>2023-10-17T06:12:43.548Z</time>
      </trkpt>
      <trkpt lat="45.683963214978576" lon="17.682955283671618">
        <ele>179.02</ele>
        <time>2023-10-17T06:12:50.148Z</time>
      </trkpt>
      <trkpt lat="45.68396246060729" lon="17.68297296948731">
        <ele>179.17</ele>
        <time>2023-10-17T06:12:56.748Z</time>
      </trkpt>
      <trkpt lat="45.68396187387407" lon="17.682990906760097">
        <ele>179.33</ele>
        <time>2023-10-17T06:13:03.349Z</time>
      </trkpt>
      <trkpt lat="45.68396153859794" lon="17.683008844032884">
        <ele>179.49</ele>
        <time>2023-10-17T06:13:09.950Z</time>
      </trkpt>
      <trkpt lat="45.683961287140846" lon="17.683027032762766">
        <ele>179.65</ele>
        <time>2023-10-17T06:13:16.552Z</time>
      </trkpt>
      <trkpt lat="45.683961203321815" lon="17.68304538913071">
        <ele>179.82</ele>
        <time>2023-10-17T06:13:23.154Z</time>
      </trkpt>
      <trkpt lat="45.683961287140846" lon="17.683063996955752">
        <ele>179.99</ele>
        <time>2023-10-17T06:13:29.756Z</time>
      </trkpt>
      <trkpt lat="45.68396137095988" lon="17.68308285623789">
        <ele>180.16</ele>
        <time>2023-10-17T06:13:36.359Z</time>
      </trkpt>
      <trkpt lat="45.68396145477891" lon="17.683101799339056">
        <ele>180.34</ele>
        <time>2023-10-17T06:13:42.962Z</time>
      </trkpt>
      <trkpt lat="45.68396162241697" lon="17.68312099389732">
        <ele>180.52</ele>
        <time>2023-10-17T06:13:49.566Z</time>
      </trkpt>
      <trkpt lat="45.683961706236005" lon="17.683140272274613">
        <ele>180.71</ele>
        <time>2023-10-17T06:13:56.170Z</time>
      </trkpt>
      <trkpt lat="45.68396179005504" lon="17.683159466832876">
        <ele>180.89</ele>
        <time>2023-10-17T06:14:02.775Z</time>
      </trkpt>
      <trkpt lat="45.683961706236005" lon="17.68317866139114">
        <ele>181.08</ele>
        <time>2023-10-17T06:14:09.380Z</time>
      </trkpt>
      <trkpt lat="45.68396145477891" lon="17.683197855949402">
        <ele>181.28</ele>
        <time>2023-10-17T06:14:15.986Z</time>
      </trkpt>
      <trkpt lat="45.68396111950278" lon="17.68321730196476">
        <ele>181.48</ele>
        <time>2023-10-17T06:14:22.592Z</time>
      </trkpt>
      <trkpt lat="45.683960784226656" lon="17.68323691561818">
        <ele>181.68</ele>
        <time>2023-10-17T06:14:29.198Z</time>
      </trkpt>
      <trkpt lat="45.68396053276956" lon="17.68325686454773">
        <ele>181.89</ele>
        <time>2023-10-17T06:14:35.805Z</time>
      </trkpt>
      <trkpt lat="45.6839603651315" lon="17.683277064934373">
        <ele>182.1</ele>
        <time>2023-10-17T06:14:42.412Z</time>
      </trkpt>
      <trkpt lat="45.68396044895053" lon="17.683297181501985">
        <ele>182.32</ele>
        <time>2023-10-17T06:14:49.020Z</time>
      </trkpt>
      <trkpt lat="45.683960700407624" lon="17.683317214250565">
        <ele>182.54</ele>
        <time>2023-10-17T06:14:55.628Z</time>
      </trkpt>
      <trkpt lat="45.68396145477891" lon="17.683337163180113">
        <ele>182.76</ele>
        <time>2023-10-17T06:15:02.237Z</time>
      </trkpt>
      <trkpt lat="45.68396246060729" lon="17.68335702829063">
        <ele>182.99</ele>
        <time>2023-10-17T06:15:08.846Z</time>
      </trkpt>
      <trkpt lat="45.68396388553083" lon="17.683376893401146">
        <ele>183.22</ele>
        <time>2023-10-17T06:15:15.456Z</time>
      </trkpt>
      <trkpt lat="45.68396581336856" lon="17.6833965908736">
        <ele>183.46</ele>
        <time>2023-10-17T06:15:22.066Z</time>
      </trkpt>
      <trkpt lat="45.683968076482415" lon="17.683415953069925">
        <ele>183.71</ele>
        <time>2023-10-17T06:15:28.677Z</time>
      </trkpt>
      <trkpt lat="45.68397075869143" lon="17.683434896171093">
        <ele>183.96</ele>
        <time>2023-10-17T06:15:35.288Z</time>
      </trkpt>
      <trkpt lat="45.68397377617657" lon="17.683453503996134">
        <ele>184.21</ele>
        <time>2023-10-17T06:15:41.900Z</time>
      </trkpt>
      <trkpt lat="45.68397721275687" lon="17.683471608906984">
        <ele>184.47</ele>
        <time>2023-10-17T06:15:48.512Z</time>
      </trkpt>
      <trkpt lat="45.683980816975236" lon="17.683489378541708">
        <ele>184.73</ele>
        <time>2023-10-17T06:15:55.124Z</time>
      </trkpt>
      <trkpt lat="45.68398475646973" lon="17.6835070643574">
        <ele>185.0</ele>
        <time>2023-10-17T06:16:01.737Z</time>
      </trkpt>
      <trkpt lat="45.68398869596422" lon="17.683524833992124">
        <ele>185.26</ele>
        <time>2023-10-17T06:16:08.350Z</time>
      </trkpt>
      <trkpt lat="45.683992551639676" lon="17.68354268744588">
        <ele>185.54</ele>
        <time>2023-10-17T06:16:14.964Z</time>
      </trkpt>
      <trkpt lat="45.68399623967707" lon="17.683560540899634">
        <ele>185.81</ele>
        <time>2023-10-17T06:16:21.578Z</time>
      </trkpt>
      <trkpt lat="45.68399942480028" lon="17.683578561991453">
        <ele>186.09</ele>
        <time>2023-10-17T06:16:28.193Z</time>
      </trkpt>
      <trkpt lat="45.684002274647355" lon="17.683596834540367">
        <ele>186.37</ele>
        <time>2023-10-17T06:16:34.808Z</time>
      </trkpt>
      <trkpt lat="45.68400453776121" lon="17.683615442365408">
        <ele>186.65</ele>
        <time>2023-10-17T06:16:41.423Z</time>
      </trkpt>
      <trkpt lat="45.68400646559894" lon="17.683634217828512">
        <ele>186.94</ele>
        <time>2023-10-17T06:16:48.039Z</time>
      </trkpt>
      <trkpt lat="45.68400797434151" lon="17.68365324474871">
        <ele>187.22</ele>
        <time>2023-10-17T06:16:54.655Z</time>
      </trkpt>
      <trkpt lat="45.684009063988924" lon="17.683672439306974">
        <ele>187.51</ele>
        <time>2023-10-17T06:17:01.272Z</time>
      </trkpt>
      <trkpt lat="45.68400981836021" lon="17.68369171768427">
        <ele>187.8</ele>
        <time>2023-10-17T06:17:07.889Z</time>
      </trkpt>
      <trkpt lat="45.68401023745537" lon="17.683710996061563">
        <ele>188.1</ele>
        <time>2023-10-17T06:17:14.507Z</time>
      </trkpt>
      <trkpt lat="45.68400931544602" lon="17.683730274438858">
        <ele>188.39</ele>
        <time>2023-10-17T06:17:21.125Z</time>
      </trkpt>
      <trkpt lat="45.684009650722146" lon="17.68375039100647">
        <ele>188.69</ele>
        <time>2023-10-17T06:17:27.744Z</time>
      </trkpt>
      <trkpt lat="45.68400990217924" lon="17.683769669383764">
        <ele>188.99</ele>
        <time>2023-10-17T06:17:34.363Z</time>
      </trkpt>
      <trkpt lat="45.6840103212744" lon="17.6837885286659">
        <ele>189.29</ele>
        <time>2023-10-17T06:17:40.983Z</time>
      </trkpt>
      <trkpt lat="45.684011075645685" lon="17.683806968852878">
        <ele>189.59</ele>
        <time>2023-10-17T06:17:47.603Z</time>
      </trkpt>
      <trkpt lat="45.684011997655034" lon="17.68382524140179">
        <ele>189.9</ele>
        <time>2023-10-17T06:17:54.223Z</time>
      </trkpt>
      <trkpt lat="45.68401325494051" lon="17.683843346312642">
        <ele>190.2</ele>
        <time>2023-10-17T06:18:00.844Z</time>
      </trkpt>
      <trkpt lat="45.684014931321144" lon="17.683861115947366">
        <ele>190.5</ele>
        <time>2023-10-17T06:18:07.465Z</time>
      </trkpt>
      <trkpt lat="45.684016942977905" lon="17.683878634124994">
        <ele>190.81</ele>
        <time>2023-10-17T06:18:14.087Z</time>
      </trkpt>
      <trkpt lat="45.68401954136789" lon="17.683895649388433">
        <ele>191.12</ele>
        <time>2023-10-17T06:18:20.709Z</time>
      </trkpt>
      <trkpt lat="45.68402188830078" lon="17.68390864133835">
        <ele>191.42</ele>
        <time>2023-10-17T06:18:27.331Z</time>
      </trkpt>
      <trkpt lat="45.68402415141463" lon="17.68392431549728">
        <ele>191.73</ele>
        <time>2023-10-17T06:18:33.954Z</time>
      </trkpt>
      <trkpt lat="45.68402658216655" lon="17.683939654380083">
        <ele>192.03</ele>
        <time>2023-10-17T06:18:40.577Z</time>
      </trkpt>
      <trkpt lat="45.684029180556536" lon="17.68395465798676">
        <ele>192.34</ele>
        <time>2023-10-17T06:18:47.200Z</time>
      </trkpt>
      <trkpt lat="45.684032030403614" lon="17.683969410136342">
        <ele>192.64</ele>
        <time>2023-10-17T06:18:53.824Z</time>
      </trkpt>
      <trkpt lat="45.684034964069724" lon="17.683984078466892">
        <ele>192.95</ele>
        <time>2023-10-17T06:19:00.448Z</time>
      </trkpt>
      <trkpt lat="45.68403823301196" lon="17.68399866297841">
        <ele>193.25</ele>
        <time>2023-10-17T06:19:07.073Z</time>
      </trkpt>
      <trkpt lat="45.68404158577323" lon="17.68401324748993">
        <ele>193.55</ele>
        <time>2023-10-17T06:19:13.698Z</time>
      </trkpt>
      <trkpt lat="45.68404502235353" lon="17.68402791582048">
        <ele>193.85</ele>
        <time>2023-10-17T06:19:20.323Z</time>
      </trkpt>
      <trkpt lat="45.6840483751148" lon="17.684042751789093">
        <ele>194.16</ele>
        <time>2023-10-17T06:19:26.949Z</time>
      </trkpt>
      <trkpt lat="45.68405172787607" lon="17.684057839214802">
        <ele>194.46</ele>
        <time>2023-10-17T06:19:33.575Z</time>
      </trkpt>
      <trkpt lat="45.6840552482754" lon="17.684073261916637">
        <ele>194.76</ele>
        <time>2023-10-17T06:19:40.201Z</time>
      </trkpt>
      <trkpt lat="45.684058936312795" lon="17.6840890198946">
        <ele>195.06</ele>
        <time>2023-10-17T06:19:46.828Z</time>
      </trkpt>
      <trkpt lat="45.68406295962632" lon="17.684104777872562">
        <ele>195.36</ele>
        <time>2023-10-17T06:19:53.455Z</time>
      </trkpt>
      <trkpt lat="45.684067318215966" lon="17.684120535850525">
        <ele>195.66</ele>
        <time>2023-10-17T06:20:00.083Z</time>
      </trkpt>
      <trkpt lat="45.68407192826271" lon="17.684136210009456">
        <ele>195.96</ele>
        <time>2023-10-17T06:20:06.711Z</time>
      </trkpt>
      <trkpt lat="45.68407695740461" lon="17.684151800349355">
        <ele>196.25</ele>
        <time>2023-10-17T06:20:13.339Z</time>
      </trkpt>
      <trkpt lat="45.68408232182264" lon="17.68416713923216">
        <ele>196.55</ele>
        <time>2023-10-17T06:20:19.968Z</time>
      </trkpt>
      <trkpt lat="45.6840880215168" lon="17.684182226657867">
        <ele>196.84</ele>
        <time>2023-10-17T06:20:26.597Z</time>
      </trkpt>
      <trkpt lat="45.68409405648708" lon="17.684197146445513">
        <ele>197.13</ele>
        <time>2023-10-17T06:20:33.227Z</time>
      </trkpt>
      <trkpt lat="45.68410059437156" lon="17.684211814776063">
        <ele>197.42</ele>
        <time>2023-10-17T06:20:39.857Z</time>
      </trkpt>
      <trkpt lat="45.68410746753216" lon="17.68422631546855">
        <ele>197.7</ele>
        <time>2023-10-17T06:20:46.487Z</time>
      </trkpt>
      <trkpt lat="45.684114675968885" lon="17.684240313246846">
        <ele>197.99</ele>
        <time>2023-10-17T06:20:53.118Z</time>
      </trkpt>
      <trkpt lat="45.68412221968174" lon="17.684254059568048">
        <ele>198.27</ele>
        <time>2023-10-17T06:20:59.749Z</time>
      </trkpt>
      <trkpt lat="45.684129763394594" lon="17.684267722070217">
        <ele>198.55</ele>
        <time>2023-10-17T06:21:06.381Z</time>
      </trkpt>
      <trkpt lat="45.68413739092648" lon="17.684281384572387">
        <ele>198.82</ele>
        <time>2023-10-17T06:21:13.013Z</time>
      </trkpt>
      <trkpt lat="45.6841448508203" lon="17.684295130893588">
        <ele>199.1</ele>
        <time>2023-10-17T06:21:19.645Z</time>
      </trkpt>
      <trkpt lat="45.68415205925703" lon="17.684309044852853">
        <ele>199.37</ele>
        <time>2023-10-17T06:21:26.278Z</time>
      </trkpt>
      <trkpt lat="45.684159183874726" lon="17.684323210269213">
        <ele>199.64</ele>
        <time>2023-10-17T06:21:32.911Z</time>
      </trkpt>
      <trkpt lat="45.68416614085436" lon="17.684337627142668">
        <ele>199.91</ele>
        <time>2023-10-17T06:21:39.545Z</time>
      </trkpt>
      <trkpt lat="45.68417318165302" lon="17.684352127835155">
        <ele>200.17</ele>
        <time>2023-10-17T06:21:46.179Z</time>
      </trkpt>
      <trkpt lat="45.68418030627072" lon="17.684366796165705">
        <ele>200.43</ele>
        <time>2023-10-17T06:21:52.813Z</time>
      </trkpt>
      <trkpt lat="45.68418768234551" lon="17.684381548315287">
        <ele>200.69</ele>
        <time>2023-10-17T06:21:59.448Z</time>
      </trkpt>
      <trkpt lat="45.68419514223933" lon="17.68439630046487">
        <ele>200.95</ele>
        <time>2023-10-17T06:22:06.083Z</time>
      </trkpt>
      <trkpt lat="45.68420276977122" lon="17.68441105261445">
        <ele>201.2</ele>
        <time>2023-10-17T06:22:12.719Z</time>
      </trkpt>
      <trkpt lat="45.68421073257923" lon="17.684425469487906">
        <ele>201.45</ele>
        <time>2023-10-17T06:22:19.355Z</time>
      </trkpt>
      <trkpt lat="45.6842191144824" lon="17.684439467266202">
        <ele>201.7</ele>
        <time>2023-10-17T06:22:25.992Z</time>
      </trkpt>
      <trkpt lat="45.68422791548073" lon="17.68445262685418">
        <ele>201.95</ele>
        <time>2023-10-17T06:22:32.629Z</time>
      </trkpt>
      <trkpt lat="45.684237303212285" lon="17.684465032070875">
        <ele>202.19</ele>
        <time>2023-10-17T06:22:39.266Z</time>
      </trkpt>
      <trkpt lat="45.68424736149609" lon="17.684476263821125">
        <ele>202.43</ele>
        <time>2023-10-17T06:22:45.904Z</time>
      </trkpt>
      <trkpt lat="45.68425809033215" lon="17.684486573562026">
        <ele>202.66</ele>
        <time>2023-10-17T06:22:52.542Z</time>
      </trkpt>
      <trkpt lat="45.68426940590143" lon="17.684495877474546">
        <ele>202.9</ele>
        <time>2023-10-17T06:22:59.181Z</time>
      </trkpt>
      <trkpt lat="45.68428114056587" lon="17.684504259377718">
        <ele>203.13</ele>
        <time>2023-10-17T06:23:05.820Z</time>
      </trkpt>
      <trkpt lat="45.68429329432547" lon="17.68451163545251">
        <ele>203.35</ele>
        <time>2023-10-17T06:23:12.460Z</time>
      </trkpt>
      <trkpt lat="45.68430586718023" lon="17.684518173336983">
        <ele>203.57</ele>
        <time>2023-10-17T06:23:19.100Z</time>
      </trkpt>
      <trkpt lat="45.68431860767305" lon="17.68452395685017">
        <ele>203.79</ele>
        <time>2023-10-17T06:23:25.740Z</time>
      </trkpt>
      <trkpt lat="45.6843314319849" lon="17.684529153630137">
        <ele>204.01</ele>
        <time>2023-10-17T06:23:32.381Z</time>
      </trkpt>
      <trkpt lat="45.68434417247772" lon="17.684534015133977">
        <ele>204.22</ele>
        <time>2023-10-17T06:23:39.022Z</time>
      </trkpt>
      <trkpt lat="45.68435674533248" lon="17.684538792818785">
        <ele>204.43</ele>
        <time>2023-10-17T06:23:45.664Z</time>
      </trkpt>
      <trkpt lat="45.68436889909208" lon="17.684543654322624">
        <ele>204.64</ele>
        <time>2023-10-17T06:23:52.306Z</time>
      </trkpt>
      <trkpt lat="45.68438054993749" lon="17.68454876728356">
        <ele>204.85</ele>
        <time>2023-10-17T06:23:58.949Z</time>
      </trkpt>
      <trkpt lat="45.68439153023064" lon="17.68455413170159">
        <ele>205.05</ele>
        <time>2023-10-17T06:24:05.592Z</time>
      </trkpt>
      <trkpt lat="45.68440183997154" lon="17.684559747576714">
        <ele>205.24</ele>
        <time>2023-10-17T06:24:12.235Z</time>
      </trkpt>
      <trkpt lat="45.684411311522126" lon="17.68456586636603">
        <ele>205.44</ele>
        <time>2023-10-17T06:24:18.879Z</time>
      </trkpt>
      <trkpt lat="45.68441994488239" lon="17.684572655707598">
        <ele>205.63</ele>
        <time>2023-10-17T06:24:25.523Z</time>
      </trkpt>
      <trkpt lat="45.684427907690406" lon="17.68458011560142">
        <ele>205.82</ele>
        <time>2023-10-17T06:24:32.167Z</time>
      </trkpt>
      <trkpt lat="45.68443536758423" lon="17.68458832986653">
        <ele>206.01</ele>
        <time>2023-10-17T06:24:38.812Z</time>
      </trkpt>
      <trkpt lat="45.68444232456386" lon="17.68459713086486">
        <ele>206.19</ele>
        <time>2023-10-17T06:24:45.457Z</time>
      </trkpt>
      <trkpt lat="45.684448946267366" lon="17.68460643477738">
        <ele>206.37</ele>
        <time>2023-10-17T06:24:52.102Z</time>
      </trkpt>
      <trkpt lat="45.68445531651378" lon="17.68461624160409">
        <ele>206.55</ele>
        <time>2023-10-17T06:24:58.748Z</time>
      </trkpt>
      <trkpt lat="45.68446135148406" lon="17.684626718983054">
        <ele>206.73</ele>
        <time>2023-10-17T06:25:05.394Z</time>
      </trkpt>
      <trkpt lat="45.68446713499725" lon="17.684637615457177">
        <ele>206.9</ele>
        <time>2023-10-17T06:25:12.040Z</time>
      </trkpt>
      <trkpt lat="45.684472834691405" lon="17.68464901484549">
        <ele>207.07</ele>
        <time>2023-10-17T06:25:18.687Z</time>
      </trkpt>
      <trkpt lat="45.6844783667475" lon="17.684660833328962">
        <ele>207.24</ele>
        <time>2023-10-17T06:25:25.334Z</time>
      </trkpt>
      <trkpt lat="45.68448389880359" lon="17.684672819450498">
        <ele>207.4</ele>
        <time>2023-10-17T06:25:31.981Z</time>
      </trkpt>
      <trkpt lat="45.68448959849775" lon="17.684684973210096">
        <ele>207.56</ele>
        <time>2023-10-17T06:25:38.629Z</time>
      </trkpt>
      <trkpt lat="45.68449538201094" lon="17.684697126969695">
        <ele>207.72</ele>
        <time>2023-10-17T06:25:45.277Z</time>
      </trkpt>
      <trkpt lat="45.68450124934316" lon="17.68470911309123">
        <ele>207.87</ele>
        <time>2023-10-17T06:25:51.925Z</time>
      </trkpt>
      <trkpt lat="45.684507451951504" lon="17.684720931574702">
        <ele>208.02</ele>
        <time>2023-10-17T06:25:58.574Z</time>
      </trkpt>
      <trkpt lat="45.68451398983598" lon="17.684732330963016">
        <ele>208.17</ele>
        <time>2023-10-17T06:26:05.223Z</time>
      </trkpt>
      <trkpt lat="45.68452128209174" lon="17.68474322743714">
        <ele>208.32</ele>
        <time>2023-10-17T06:26:11.872Z</time>
      </trkpt>
      <trkpt lat="45.68452924489975" lon="17.68475353717804">
        <ele>208.46</ele>
        <time>2023-10-17T06:26:18.522Z</time>
      </trkpt>
      <trkpt lat="45.68453821353614" lon="17.684763176366687">
        <ele>208.6</ele>
        <time>2023-10-17T06:26:25.172Z</time>
      </trkpt>
      <trkpt lat="45.684548104181886" lon="17.684772312641144">
        <ele>208.73</ele>
        <time>2023-10-17T06:26:31.822Z</time>
      </trkpt>
      <trkpt lat="45.68455891683698" lon="17.684780778363347">
        <ele>208.86</ele>
        <time>2023-10-17T06:26:38.473Z</time>
      </trkpt>
      <trkpt lat="45.684570567682385" lon="17.684788908809423">
        <ele>208.99</ele>
        <time>2023-10-17T06:26:45.124Z</time>
      </trkpt>
      <trkpt lat="45.68458305671811" lon="17.68479662016034">
        <ele>209.12</ele>
        <time>2023-10-17T06:26:51.776Z</time>
      </trkpt>
      <trkpt lat="45.684596383944154" lon="17.684804080054164">
        <ele>209.24</ele>
        <time>2023-10-17T06:26:58.428Z</time>
      </trkpt>
      <trkpt lat="45.68461021408439" lon="17.684811456128955">
        <ele>209.36</ele>
        <time>2023-10-17T06:27:05.081Z</time>
      </trkpt>
      <trkpt lat="45.68462446331978" lon="17.684818916022778">
        <ele>209.47</ele>
        <time>2023-10-17T06:27:11.734Z</time>
      </trkpt>
      <trkpt lat="45.684638964012265" lon="17.684826543554664">
        <ele>209.58</ele>
        <time>2023-10-17T06:27:18.388Z</time>
      </trkpt>
      <trkpt lat="45.68465338088572" lon="17.684834506362677">
        <ele>209.69</ele>
        <time>2023-10-17T06:27:25.042Z</time>
      </trkpt>
      <trkpt lat="45.68466788157821" lon="17.684842888265848">
        <ele>209.8</ele>
        <time>2023-10-17T06:27:31.697Z</time>
      </trkpt>
      <trkpt lat="45.6846821308136" lon="17.684851605445147">
        <ele>209.9</ele>
        <time>2023-10-17T06:27:38.352Z</time>
      </trkpt>
      <trkpt lat="45.68469629622996" lon="17.68486057408154">
        <ele>210.0</ele>
        <time>2023-10-17T06:27:45.008Z</time>
      </trkpt>
      <trkpt lat="45.68471012637019" lon="17.68486987799406">
        <ele>210.09</ele>
        <time>2023-10-17T06:27:51.664Z</time>
      </trkpt>
      <trkpt lat="45.68472370505333" lon="17.684879265725613">
        <ele>210.18</ele>
        <time>2023-10-17T06:27:58.321Z</time>
      </trkpt>
      <trkpt lat="45.68473694846034" lon="17.684888821095228">
        <ele>210.27</ele>
        <time>2023-10-17T06:28:04.978Z</time>
      </trkpt>
      <trkpt lat="45.684749856591225" lon="17.684898460283875">
        <ele>210.36</ele>
        <time>2023-10-17T06:28:11.636Z</time>
      </trkpt>
      <trkpt lat="45.68476217798889" lon="17.684908183291554">
        <ele>210.44</ele>
        <time>2023-10-17T06:28:18.294Z</time>
      </trkpt>
      <trkpt lat="45.68477399647236" lon="17.684917990118265">
        <ele>210.52</ele>
        <time>2023-10-17T06:28:24.953Z</time>
      </trkpt>
      <trkpt lat="45.68478539586067" lon="17.68492796458304">
        <ele>210.59</ele>
        <time>2023-10-17T06:28:31.612Z</time>
      </trkpt>
      <trkpt lat="45.68479620851576" lon="17.684938106685877">
        <ele>210.66</ele>
        <time>2023-10-17T06:28:38.272Z</time>
      </trkpt>
      <trkpt lat="45.68480643443763" lon="17.684948667883873">
        <ele>210.72</ele>
        <time>2023-10-17T06:28:44.932Z</time>
      </trkpt>
      <trkpt lat="45.68481607362628" lon="17.684959564357996">
        <ele>210.78</ele>
        <time>2023-10-17T06:28:51.592Z</time>
      </trkpt>
      <trkpt lat="45.68482520990074" lon="17.68497096374631">
        <ele>210.84</ele>
        <time>2023-10-17T06:28:58.253Z</time>
      </trkpt>
      <trkpt lat="45.684833927080035" lon="17.68498278222978">
        <ele>210.9</ele>
        <time>2023-10-17T06:29:04.914Z</time>
      </trkpt>
      <trkpt lat="45.68484214134514" lon="17.684995271265507">
        <ele>210.96</ele>
        <time>2023-10-17T06:29:11.576Z</time>
      </trkpt>
      <trkpt lat="45.68484985269606" lon="17.685008347034454">
        <ele>211.01</ele>
        <time>2023-10-17T06:29:18.238Z</time>
      </trkpt>
      <trkpt lat="45.68485722877085" lon="17.685022009536624">
        <ele>211.06</ele>
        <time>2023-10-17T06:29:24.900Z</time>
      </trkpt>
      <trkpt lat="45.68486410193145" lon="17.68503642641008">
        <ele>211.1</ele>
        <time>2023-10-17T06:29:31.563Z</time>
      </trkpt>
      <trkpt lat="45.68487047217786" lon="17.685051430016756">
        <ele>211.15</ele>
        <time>2023-10-17T06:29:38.226Z</time>
      </trkpt>
      <trkpt lat="45.68487633951008" lon="17.68506718799472">
        <ele>211.19</ele>
        <time>2023-10-17T06:29:44.890Z</time>
      </trkpt>
      <trkpt lat="45.68488162010908" lon="17.68508344888687">
        <ele>211.22</ele>
        <time>2023-10-17T06:29:51.554Z</time>
      </trkpt>
      <trkpt lat="45.68488639779389" lon="17.685100128874183">
        <ele>211.26</ele>
        <time>2023-10-17T06:29:58.219Z</time>
      </trkpt>
      <trkpt lat="45.684890588745475" lon="17.68511714413762">
        <ele>211.29</ele>
        <time>2023-10-17T06:30:04.884Z</time>
      </trkpt>
      <trkpt lat="45.68489419296384" lon="17.685134410858154">
        <ele>211.32</ele>
        <time>2023-10-17T06:30:11.549Z</time>
      </trkpt>
      <trkpt lat="45.68489721044898" lon="17.685151929035783">
        <ele>211.35</ele>
        <time>2023-10-17T06:30:18.215Z</time>
      </trkpt>
      <trkpt lat="45.68489972501993" lon="17.685169531032443">
        <ele>211.37</ele>
        <time>2023-10-17T06:30:24.881Z</time>
      </trkpt>
      <trkpt lat="45.68490156903863" lon="17.685187300667167">
        <ele>211.4</ele>
        <time>2023-10-17T06:30:31.548Z</time>
      </trkpt>
      <trkpt lat="45.68490299396217" lon="17.68520507030189">
        <ele>211.42</ele>
        <time>2023-10-17T06:30:38.215Z</time>
      </trkpt>
      <trkpt lat="45.68490408360958" lon="17.685222923755646">
        <ele>211.44</ele>
        <time>2023-10-17T06:30:44.882Z</time>
      </trkpt>
      <trkpt lat="45.68490508943796" lon="17.68524069339037">
        <ele>211.46</ele>
        <time>2023-10-17T06:30:51.550Z</time>
      </trkpt>
      <trkpt lat="45.68490609526634" lon="17.685258463025093">
        <ele>211.48</ele>
        <time>2023-10-17T06:30:58.218Z</time>
      </trkpt>
      <trkpt lat="45.684907184913754" lon="17.68527631647885">
        <ele>211.5</ele>
        <time>2023-10-17T06:31:04.887Z</time>
      </trkpt>
      <trkpt lat="45.6849083583802" lon="17.6852944213897">
        <ele>211.52</ele>
        <time>2023-10-17T06:31:11.556Z</time>
      </trkpt>
      <trkpt lat="45.68490978330374" lon="17.685312861576676">
        <ele>211.54</ele>
        <time>2023-10-17T06:31:18.226Z</time>
      </trkpt>
      <trkpt lat="45.68491129204631" lon="17.685331720858812">
        <ele>211.56</ele>
        <time>2023-10-17T06:31:24.896Z</time>
      </trkpt>
      <trkpt lat="45.68491296842694" lon="17.68535116687417">
        <ele>211.57</ele>
        <time>2023-10-17T06:31:31.566Z</time>
      </trkpt>
      <trkpt lat="45.684914980083704" lon="17.685371031984687">
        <ele>211.58</ele>
        <time>2023-10-17T06:31:38.237Z</time>
      </trkpt>
      <trkpt lat="45.68491757847369" lon="17.685391483828425">
        <ele>211.6</ele>
        <time>2023-10-17T06:31:44.908Z</time>
      </trkpt>
      <trkpt lat="45.68492059595883" lon="17.68541218712926">
        <ele>211.61</ele>
        <time>2023-10-17T06:31:51.580Z</time>
      </trkpt>
      <trkpt lat="45.684924283996224" lon="17.685433141887188">
        <ele>211.62</ele>
        <time>2023-10-17T06:31:58.252Z</time>
      </trkpt>
      <trkpt lat="45.68492855876684" lon="17.685454096645117">
        <ele>211.64</ele>
        <time>2023-10-17T06:32:04.925Z</time>
      </trkpt>
      <trkpt lat="45.68493342027068" lon="17.68547530286014">
        <ele>211.65</ele>
        <time>2023-10-17T06:32:11.598Z</time>
      </trkpt>
      <trkpt lat="45.68493870086968" lon="17.685496509075165">
        <ele>211.66</ele>
        <time>2023-10-17T06:32:18.272Z</time>
      </trkpt>
      <trkpt lat="45.68494448438287" lon="17.685517547652125">
        <ele>211.68</ele>
        <time>2023-10-17T06:32:24.947Z</time>
      </trkpt>
      <trkpt lat="45.68495093844831" lon="17.68553883768618">
        <ele>211.69</ele>
        <time>2023-10-17T06:32:31.622Z</time>
      </trkpt>
      <trkpt lat="45.684957979246974" lon="17.685560043901205">
        <ele>211.71</ele>
        <time>2023-10-17T06:32:38.298Z</time>
      </trkpt>
      <trkpt lat="45.68496569059789" lon="17.685581082478166">
        <ele>211.73</ele>
        <time>2023-10-17T06:32:44.974Z</time>
      </trkpt>
      <trkpt lat="45.684973904863" lon="17.68560186959803">
        <ele>211.74</ele>
        <time>2023-10-17T06:32:51.651Z</time>
      </trkpt>
      <trkpt lat="45.6849826220423" lon="17.685622237622738">
        <ele>211.76</ele>
        <time>2023-10-17T06:32:58.328Z</time>
      </trkpt>
      <trkpt lat="45.68499159067869" lon="17.685642521828413">
        <ele>211.79</ele>
        <time>2023-10-17T06:33:05.006Z</time>
      </trkpt>
      <trkpt lat="45.68500064313412" lon="17.685662554576993">
        <ele>211.81</ele>
        <time>2023-10-17T06:33:11.684Z</time>
      </trkpt>
      <trkpt lat="45.685009779408574" lon="17.685682587325573">
        <ele>211.83</ele>
        <time>2023-10-17T06:33:18.363Z</time>
      </trkpt>
      <trkpt lat="45.68501891568303" lon="17.68570245243609">
        <ele>211.86</ele>
        <time>2023-10-17T06:33:25.043Z</time>
      </trkpt>
      <trkpt lat="45.68502813577652" lon="17.68572198227048">
        <ele>211.88</ele>
        <time>2023-10-17T06:33:31.723Z</time>
      </trkpt>
      <trkpt lat="45.68503743968904" lon="17.685741344466805">
        <ele>211.91</ele>
        <time>2023-10-17T06:33:38.404Z</time>
      </trkpt>
      <trkpt lat="45.685046408325434" lon="17.685759952291846">
        <ele>211.94</ele>
        <time>2023-10-17T06:33:45.085Z</time>
      </trkpt>
      <trkpt lat="45.68505512550473" lon="17.68577814102173">
        <ele>211.97</ele>
        <time>2023-10-17T06:33:51.767Z</time>
      </trkpt>
      <trkpt lat="45.68506342358887" lon="17.685795910656452">
        <ele>212.01</ele>
        <time>2023-10-17T06:33:58.449Z</time>
      </trkpt>
      <trkpt lat="45.68507113493979" lon="17.685813512653112">
        <ele>212.04</ele>
        <time>2023-10-17T06:34:05.132Z</time>
      </trkpt>
      <trkpt lat="45.68507834337652" lon="17.68583094701171">
        <ele>212.08</ele>
        <time>2023-10-17T06:34:11.815Z</time>
      </trkpt>
      <trkpt lat="45.68508496508002" lon="17.685848297551274">
        <ele>212.12</ele>
        <time>2023-10-17T06:34:18.499Z</time>
      </trkpt>
      <trkpt lat="45.68509116768837" lon="17.685865480452776">
        <ele>212.17</ele>
        <time>2023-10-17T06:34:25.183Z</time>
      </trkpt>
      <trkpt lat="45.685096867382526" lon="17.685882495716214">
        <ele>212.21</ele>
        <time>2023-10-17T06:34:31.867Z</time>
      </trkpt>
      <trkpt lat="45.68510206416249" lon="17.685899259522557">
        <ele>212.26</ele>
        <time>2023-10-17T06:34:38.552Z</time>
      </trkpt>
      <trkpt lat="45.68510692566633" lon="17.68591560423374">
        <ele>212.31</ele>
        <time>2023-10-17T06:34:45.237Z</time>
      </trkpt>
      <trkpt lat="45.68511136807501" lon="17.6859316136688">
        <ele>212.37</ele>
        <time>2023-10-17T06:34:51.923Z</time>
      </trkpt>
      <trkpt lat="45.68511547520757" lon="17.68594728782773">
        <ele>212.42</ele>
        <time>2023-10-17T06:34:58.609Z</time>
      </trkpt>
      <trkpt lat="45.68511949852109" lon="17.685962626710534">
        <ele>212.48</ele>
        <time>2023-10-17T06:35:05.295Z</time>
      </trkpt>
      <trkpt lat="45.68512377329171" lon="17.68597754649818">
        <ele>212.54</ele>
        <time>2023-10-17T06:35:11.982Z</time>
      </trkpt>
      <trkpt lat="45.68512838333845" lon="17.685992131009698">
        <ele>212.61</ele>
        <time>2023-10-17T06:35:18.669Z</time>
      </trkpt>
      <trkpt lat="45.685133496299386" lon="17.686006212607026">
        <ele>212.67</ele>
        <time>2023-10-17T06:35:25.357Z</time>
      </trkpt>
      <trkpt lat="45.68513919599354" lon="17.686019791290164">
        <ele>212.74</ele>
        <time>2023-10-17T06:35:32.045Z</time>
      </trkpt>
      <trkpt lat="45.68514539860189" lon="17.686033034697175">
        <ele>212.81</ele>
        <time>2023-10-17T06:35:38.733Z</time>
      </trkpt>
      <trkpt lat="45.68515210412443" lon="17.68604594282806">
        <ele>212.88</ele>
        <time>2023-10-17T06:35:45.422Z</time>
      </trkpt>
      <trkpt lat="45.68515922874212" lon="17.686058599501848">
        <ele>212.96</ele>
        <time>2023-10-17T06:35:52.111Z</time>
      </trkpt>
      <trkpt lat="45.68516694009304" lon="17.686071256175637">
        <ele>213.04</ele>
        <time>2023-10-17T06:35:58.800Z</time>
      </trkpt>
      <trkpt lat="45.68517507053912" lon="17.686083829030395">
        <ele>213.12</ele>
        <time>2023-10-17T06:36:05.490Z</time>
      </trkpt>
      <trkpt lat="45.68518362008035" lon="17.68609631806612">
        <ele>213.2</ele>
        <time>2023-10-17T06:36:12.180Z</time>
      </trkpt>
      <trkpt lat="45.68519242107868" lon="17.686108639463782">
        <ele>213.29</ele>
        <time>2023-10-17T06:36:18.871Z</time>
      </trkpt>
      <trkpt lat="45.685201305896044" lon="17.686120960861444">
        <ele>213.38</ele>
        <time>2023-10-17T06:36:25.562Z</time>
      </trkpt>
      <trkpt lat="45.68520993925631" lon="17.686132863163948">
        <ele>213.47</ele>
        <time>2023-10-17T06:36:32.254Z</time>
      </trkpt>
      <trkpt lat="45.685218404978514" lon="17.686144597828388">
        <ele>213.56</ele>
        <time>2023-10-17T06:36:38.946Z</time>
      </trkpt>
      <trkpt lat="45.68522687070072" lon="17.686156248673797">
        <ele>213.66</ele>
        <time>2023-10-17T06:36:45.638Z</time>
      </trkpt>
      <trkpt lat="45.68523533642292" lon="17.686167815700173">
        <ele>213.76</ele>
        <time>2023-10-17T06:36:52.331Z</time>
      </trkpt>
      <trkpt lat="45.685243885964155" lon="17.686179466545582">
        <ele>213.87</ele>
        <time>2023-10-17T06:36:59.024Z</time>
      </trkpt>
      <trkpt lat="45.68525251932442" lon="17.686191285029054">
        <ele>213.97</ele>
        <time>2023-10-17T06:37:05.717Z</time>
      </trkpt>
      <trkpt lat="45.685261404141784" lon="17.686203187331557">
        <ele>214.08</ele>
        <time>2023-10-17T06:37:12.411Z</time>
      </trkpt>
      <trkpt lat="45.68527045659721" lon="17.686215424910188">
        <ele>214.2</ele>
        <time>2023-10-17T06:37:19.105Z</time>
      </trkpt>
      <trkpt lat="45.6852796766907" lon="17.686228081583977">
        <ele>214.31</ele>
        <time>2023-10-17T06:37:25.800Z</time>
      </trkpt>
      <trkpt lat="45.68528914824128" lon="17.686241324990988">
        <ele>214.43</ele>
        <time>2023-10-17T06:37:32.495Z</time>
      </trkpt>
      <trkpt lat="45.68529878742993" lon="17.686254987493157">
        <ele>214.55</ele>
        <time>2023-10-17T06:37:39.191Z</time>
      </trkpt>
      <trkpt lat="45.6853087618947" lon="17.68626932054758">
        <ele>214.68</ele>
        <time>2023-10-17T06:37:45.887Z</time>
      </trkpt>
      <trkpt lat="45.685319071635604" lon="17.6862839050591">
        <ele>214.8</ele>
        <time>2023-10-17T06:37:52.584Z</time>
      </trkpt>
      <trkpt lat="45.68532954901457" lon="17.686298741027713">
        <ele>214.93</ele>
        <time>2023-10-17T06:37:59.281Z</time>
      </trkpt>
      <trkpt lat="45.685340110212564" lon="17.686313660815358">
        <ele>215.06</ele>
        <time>2023-10-17T06:38:05.979Z</time>
      </trkpt>
      <trkpt lat="45.68535058759153" lon="17.686328580603004">
        <ele>215.2</ele>
        <time>2023-10-17T06:38:12.677Z</time>
      </trkpt>
      <trkpt lat="45.6853608135134" lon="17.68634358420968">
        <ele>215.34</ele>
        <time>2023-10-17T06:38:19.376Z</time>
      </trkpt>
      <trkpt lat="45.68537078797817" lon="17.68635875545442">
        <ele>215.48</ele>
        <time>2023-10-17T06:38:26.075Z</time>
      </trkpt>
      <trkpt lat="45.68538059480488" lon="17.686374094337225">
        <ele>215.62</ele>
        <time>2023-10-17T06:38:32.775Z</time>
      </trkpt>
      <trkpt lat="45.68539031781256" lon="17.686389684677124">
        <ele>215.77</ele>
        <time>2023-10-17T06:38:39.475Z</time>
      </trkpt>
      <trkpt lat="45.68539987318218" lon="17.68640561029315">
        <ele>215.92</ele>
        <time>2023-10-17T06:38:46.176Z</time>
      </trkpt>
      <trkpt lat="45.685409093275666" lon="17.686421955004334">
        <ele>216.07</ele>
        <time>2023-10-17T06:38:52.877Z</time>
      </trkpt>
      <trkpt lat="45.68541797809303" lon="17.686438718810678">
        <ele>216.22</ele>
        <time>2023-10-17T06:38:59.578Z</time>
      </trkpt>
      <trkpt lat="45.68542669527233" lon="17.686456153169274">
        <ele>216.38</ele>
        <time>2023-10-17T06:39:06.280Z</time>
      </trkpt>
      <trkpt lat="45.68543532863259" lon="17.68647409044206">
        <ele>216.54</ele>
        <time>2023-10-17T06:39:12.982Z</time>
      </trkpt>
      <trkpt lat="45.68544404581189" lon="17.68649253062904">
        <ele>216.7</ele>
        <time>2023-10-17T06:39:19.685Z</time>
      </trkpt>
      <trkpt lat="45.68545284681022" lon="17.686511306092143">
        <ele>216.86</ele>
        <time>2023-10-17T06:39:26.389Z</time>
      </trkpt>
      <trkpt lat="45.68546189926565" lon="17.686530416831374">
        <ele>217.02</ele>
        <time>2023-10-17T06:39:33.093Z</time>
      </trkpt>
      <trkpt lat="45.685471035540104" lon="17.686549443751574">
        <ele>217.19</ele>
        <time>2023-10-17T06:39:39.798Z</time>
      </trkpt>
      <trkpt lat="45.68548008799553" lon="17.686568554490805">
        <ele>217.35</ele>
        <time>2023-10-17T06:39:46.503Z</time>
      </trkpt>
      <trkpt lat="45.68548905663192" lon="17.686587497591972">
        <ele>217.52</ele>
        <time>2023-10-17T06:39:53.209Z</time>
      </trkpt>
      <trkpt lat="45.685497941449285" lon="17.686606105417013">
        <ele>217.68</ele>
        <time>2023-10-17T06:39:59.915Z</time>
      </trkpt>
      <trkpt lat="45.685506742447615" lon="17.686624294146895">
        <ele>217.85</ele>
        <time>2023-10-17T06:40:06.622Z</time>
      </trkpt>
      <trkpt lat="45.68551537580788" lon="17.68664206378162">
        <ele>218.02</ele>
        <time>2023-10-17T06:40:13.329Z</time>
      </trkpt>
      <trkpt lat="45.68552375771105" lon="17.686659414321184">
        <ele>218.19</ele>
        <time>2023-10-17T06:40:20.037Z</time>
      </trkpt>
      <trkpt lat="45.6855318043381" lon="17.68667676486075">
        <ele>218.35</ele>
        <time>2023-10-17T06:40:26.745Z</time>
      </trkpt>
      <trkpt lat="45.68553926423192" lon="17.686694283038378">
        <ele>218.52</ele>
        <time>2023-10-17T06:40:33.454Z</time>
      </trkpt>
      <trkpt lat="45.68554596975446" lon="17.6867120526731">
        <ele>218.69</ele>
        <time>2023-10-17T06:40:40.163Z</time>
      </trkpt>
      <trkpt lat="45.68555208854377" lon="17.68673049286008">
        <ele>218.86</ele>
        <time>2023-10-17T06:40:46.873Z</time>
      </trkpt>
      <trkpt lat="45.685557620599866" lon="17.686749435961246">
        <ele>219.03</ele>
        <time>2023-10-17T06:40:53.583Z</time>
      </trkpt>
      <trkpt lat="45.685562985017896" lon="17.6867691334337">
        <ele>219.2</ele>
        <time>2023-10-17T06:41:00.294Z</time>
      </trkpt>
      <trkpt lat="45.68556793034077" lon="17.686789082363248">
        <ele>219.36</ele>
        <time>2023-10-17T06:41:07.005Z</time>
      </trkpt>
      <trkpt lat="45.685572791844606" lon="17.686809115111828">
        <ele>219.53</ele>
        <time>2023-10-17T06:41:13.717Z</time>
      </trkpt>
      <trkpt lat="45.68557740189135" lon="17.68682872876525">
        <ele>219.7</ele>
        <time>2023-10-17T06:41:20.429Z</time>
      </trkpt>
      <trkpt lat="45.685581760481" lon="17.686847923323512">
        <ele>219.86</ele>
        <time>2023-10-17T06:41:27.142Z</time>
      </trkpt>
      <trkpt lat="45.68558603525162" lon="17.686866614967585">
        <ele>220.03</ele>
        <time>2023-10-17T06:41:33.855Z</time>
      </trkpt>
      <trkpt lat="45.6855902262032" lon="17.68688446842134">
        <ele>220.19</ele>
        <time>2023-10-17T06:41:40.568Z</time>
      </trkpt>
      <trkpt lat="45.68559450097382" lon="17.686901483684778">
        <ele>220.35</ele>
        <time>2023-10-17T06:41:47.282Z</time>
      </trkpt>
      <trkpt lat="45.6855989433825" lon="17.686917828395963">
        <ele>220.5</ele>
        <time>2023-10-17T06:41:53.996Z</time>
      </trkpt>
      <trkpt lat="45.685603553429246" lon="17.686932999640703">
        <ele>220.66</ele>
        <time>2023-10-17T06:42:00.711Z</time>
      </trkpt>
      <trkpt lat="45.68560849875212" lon="17.686947332695127">
        <ele>220.81</ele>
        <time>2023-10-17T06:42:07.426Z</time>
      </trkpt>
      <trkpt lat="45.68561344407499" lon="17.68696024082601">
        <ele>220.96</ele>
        <time>2023-10-17T06:42:14.141Z</time>
      </trkpt>
      <trkpt lat="45.68561847321689" lon="17.68697247840464">
        <ele>221.1</ele>
        <time>2023-10-17T06:42:20.857Z</time>
      </trkpt>
      <trkpt lat="45.685623586177826" lon="17.68698421306908">
        <ele>221.25</ele>
        <time>2023-10-17T06:42:27.573Z</time>
      </trkpt>
      <trkpt lat="45.68562878295779" lon="17.68699594773352">
        <ele>221.39</ele>
        <time>2023-10-17T06:42:34.289Z</time>
      </trkpt>
      <trkpt lat="45.68563406355679" lon="17.687007766216993">
        <ele>221.52</ele>
        <time>2023-10-17T06:42:41.006Z</time>
      </trkpt>
      <trkpt lat="45.68563934415579" lon="17.687020003795624">
        <ele>221.65</ele>
        <time>2023-10-17T06:42:47.723Z</time>
      </trkpt>
      <trkpt lat="45.68564445711672" lon="17.68703257665038">
        <ele>221.78</ele>
        <time>2023-10-17T06:42:54.440Z</time>
      </trkpt>
      <trkpt lat="45.685649486258626" lon="17.68704523332417">
        <ele>221.91</ele>
        <time>2023-10-17T06:43:01.158Z</time>
      </trkpt>
      <trkpt lat="45.6856541801244" lon="17.687058057636023">
        <ele>222.03</ele>
        <time>2023-10-17T06:43:07.876Z</time>
      </trkpt>
      <trkpt lat="45.68565853871405" lon="17.68707113340497">
        <ele>222.15</ele>
        <time>2023-10-17T06:43:14.594Z</time>
      </trkpt>
      <trkpt lat="45.68566239438951" lon="17.68708429299295">
        <ele>222.26</ele>
        <time>2023-10-17T06:43:21.313Z</time>
      </trkpt>
      <trkpt lat="45.685665998607874" lon="17.68709795549512">
        <ele>222.37</ele>
        <time>2023-10-17T06:43:28.032Z</time>
      </trkpt>
      <trkpt lat="45.68566909991205" lon="17.687112037092447">
        <ele>222.48</ele>
        <time>2023-10-17T06:43:34.751Z</time>
      </trkpt>
      <trkpt lat="45.68567169830203" lon="17.687126537784934">
        <ele>222.58</ele>
        <time>2023-10-17T06:43:41.471Z</time>
      </trkpt>
      <trkpt lat="45.685673877596855" lon="17.68714145757258">
        <ele>222.68</ele>
        <time>2023-10-17T06:43:48.191Z</time>
      </trkpt>
      <trkpt lat="45.68567555397749" lon="17.68715671263635">
        <ele>222.78</ele>
        <time>2023-10-17T06:43:54.911Z</time>
      </trkpt>
      <trkpt lat="45.685676811262965" lon="17.68717230297625">
        <ele>222.87</ele>
        <time>2023-10-17T06:44:01.632Z</time>
      </trkpt>
      <trkpt lat="45.68567764945328" lon="17.687188144773245">
        <ele>222.96</ele>
        <time>2023-10-17T06:44:08.353Z</time>
      </trkpt>
      <trkpt lat="45.68567815236747" lon="17.687204238027334">
        <ele>223.04</ele>
        <time>2023-10-17T06:44:15.075Z</time>
      </trkpt>
      <trkpt lat="45.6856784876436" lon="17.68722058273852">
        <ele>223.12</ele>
        <time>2023-10-17T06:44:21.797Z</time>
      </trkpt>
      <trkpt lat="45.685678739100695" lon="17.687237011268735">
        <ele>223.2</ele>
        <time>2023-10-17T06:44:28.519Z</time>
      </trkpt>
      <trkpt lat="45.68567899055779" lon="17.687253607437015">
        <ele>223.27</ele>
        <time>2023-10-17T06:44:35.242Z</time>
      </trkpt>
      <trkpt lat="45.685679242014885" lon="17.687270371243358">
        <ele>223.34</ele>
        <time>2023-10-17T06:44:41.965Z</time>
      </trkpt>
      <trkpt lat="45.68567966111004" lon="17.687287218868732">
        <ele>223.4</ele>
        <time>2023-10-17T06:44:48.689Z</time>
      </trkpt>
      <trkpt lat="45.6856803316623" lon="17.68730423413217">
        <ele>223.46</ele>
        <time>2023-10-17T06:44:55.413Z</time>
      </trkpt>
      <trkpt lat="45.68568142130971" lon="17.687321500852704">
        <ele>223.51</ele>
        <time>2023-10-17T06:45:02.137Z</time>
      </trkpt>
      <trkpt lat="45.68568276241422" lon="17.687338767573237">
        <ele>223.57</ele>
        <time>2023-10-17T06:45:08.862Z</time>
      </trkpt>
      <trkpt lat="45.68568452261388" lon="17.68735595047474">
        <ele>223.61</ele>
        <time>2023-10-17T06:45:15.587Z</time>
      </trkpt>
      <trkpt lat="45.68568686954677" lon="17.687373217195272">
        <ele>223.66</ele>
        <time>2023-10-17T06:45:22.313Z</time>
      </trkpt>
      <trkpt lat="45.68568971939385" lon="17.687390567734838">
        <ele>223.7</ele>
        <time>2023-10-17T06:45:29.039Z</time>
      </trkpt>
      <trkpt lat="45.68569307215512" lon="17.687408085912466">
        <ele>223.73</ele>
        <time>2023-10-17T06:45:35.765Z</time>
      </trkpt>
      <trkpt lat="45.685696844011545" lon="17.687425520271063">
        <ele>223.76</ele>
        <time>2023-10-17T06:45:42.492Z</time>
      </trkpt>
      <trkpt lat="45.68570111878216" lon="17.687442786991596">
        <ele>223.79</ele>
        <time>2023-10-17T06:45:49.219Z</time>
      </trkpt>
      <trkpt lat="45.685705980286" lon="17.68746005371213">
        <ele>223.82</ele>
        <time>2023-10-17T06:45:55.947Z</time>
      </trkpt>
      <trkpt lat="45.685711260885" lon="17.68747723661363">
        <ele>223.84</ele>
        <time>2023-10-17T06:46:02.675Z</time>
      </trkpt>
      <trkpt lat="45.68571679294109" lon="17.687493916600943">
        <ele>223.86</ele>
        <time>2023-10-17T06:46:09.404Z</time>
      </trkpt>
      <trkpt lat="45.68572266027331" lon="17.687509926036">
        <ele>223.88</ele>
        <time>2023-10-17T06:46:16.133Z</time>
      </trkpt>
      <trkpt lat="45.68572894670069" lon="17.687525684013963">
        <ele>223.89</ele>
        <time>2023-10-17T06:46:22.862Z</time>
      </trkpt>
      <trkpt lat="45.68573573604226" lon="17.687541022896767">
        <ele>223.9</ele>
        <time>2023-10-17T06:46:29.592Z</time>
      </trkpt>
      <trkpt lat="45.68574286065996" lon="17.687555942684412">
        <ele>223.91</ele>
        <time>2023-10-17T06:46:36.322Z</time>
      </trkpt>
      <trkpt lat="45.685750572010875" lon="17.687570108100772">
        <ele>223.91</ele>
        <time>2023-10-17T06:46:43.053Z</time>
      </trkpt>
      <trkpt lat="45.685758870095015" lon="17.68758368678391">
        <ele>223.91</ele>
        <time>2023-10-17T06:46:49.784Z</time>
      </trkpt>
      <trkpt lat="45.68576758727431" lon="17.687596594914794">
        <ele>223.91</ele>
        <time>2023-10-17T06:46:56.516Z</time>
      </trkpt>
      <trkpt lat="45.6857768073678" lon="17.687608916312456">
        <ele>223.91</ele>
        <time>2023-10-17T06:47:03.248Z</time>
      </trkpt>
      <trkpt lat="45.685786195099354" lon="17.68762031570077">
        <ele>223.9</ele>
        <time>2023-10-17T06:47:09.980Z</time>
      </trkpt>
      <trkpt lat="45.68579575046897" lon="17.687630876898766">
        <ele>223.9</ele>
        <time>2023-10-17T06:47:16.713Z</time>
      </trkpt>
      <trkpt lat="45.68580547347665" lon="17.687641019001603">
        <ele>223.89</ele>
        <time>2023-10-17T06:47:23.446Z</time>
      </trkpt>
      <trkpt lat="45.68581528030336" lon="17.68765065819025">
        <ele>223.87</ele>
        <time>2023-10-17T06:47:30.180Z</time>
      </trkpt>
      <trkpt lat="45.68582500331104" lon="17.687659794464707">
        <ele>223.86</ele>
        <time>2023-10-17T06:47:36.914Z</time>
      </trkpt>
      <trkpt lat="45.685834558680654" lon="17.687668511644006">
        <ele>223.84</ele>
        <time>2023-10-17T06:47:43.648Z</time>
      </trkpt>
      <trkpt lat="45.685843946412206" lon="17.687676725909114">
        <ele>223.83</ele>
        <time>2023-10-17T06:47:50.383Z</time>
      </trkpt>
      <trkpt lat="45.68585308268666" lon="17.68768477253616">
        <ele>223.81</ele>
        <time>2023-10-17T06:47:57.118Z</time>
      </trkpt>
      <trkpt lat="45.68586179986596" lon="17.68769273534417">
        <ele>223.78</ele>
        <time>2023-10-17T06:48:03.853Z</time>
      </trkpt>
      <trkpt lat="45.68587018176913" lon="17.687700614333153">
        <ele>223.76</ele>
        <time>2023-10-17T06:48:10.589Z</time>
      </trkpt>
      <trkpt lat="45.68587831221521" lon="17.68770874477923">
        <ele>223.74</ele>
        <time>2023-10-17T06:48:17.325Z</time>
      </trkpt>
      <trkpt lat="45.68588619120419" lon="17.68771704286337">
        <ele>223.71</ele>
        <time>2023-10-17T06:48:24.061Z</time>
      </trkpt>
      <trkpt lat="45.68589398637414" lon="17.687725592404604">
        <ele>223.68</ele>
        <time>2023-10-17T06:48:30.798Z</time>
      </trkpt>
      <trkpt lat="45.685901613906026" lon="17.687734477221966">
        <ele>223.65</ele>
        <time>2023-10-17T06:48:37.535Z</time>
      </trkpt>
      <trkpt lat="45.685909325256944" lon="17.687743781134486">
        <ele>223.62</ele>
        <time>2023-10-17T06:48:44.272Z</time>
      </trkpt>
      <trkpt lat="45.68591703660786" lon="17.687753504142165">
        <ele>223.59</ele>
        <time>2023-10-17T06:48:51.010Z</time>
      </trkpt>
      <trkpt lat="45.68592474795878" lon="17.687763730064034">
        <ele>223.56</ele>
        <time>2023-10-17T06:48:57.748Z</time>
      </trkpt>
      <trkpt lat="45.68593262694776" lon="17.687774375081062">
        <ele>223.52</ele>
        <time>2023-10-17T06:49:04.486Z</time>
      </trkpt>
      <trkpt lat="45.685940673574805" lon="17.687785271555185">
        <ele>223.49</ele>
        <time>2023-10-17T06:49:11.225Z</time>
      </trkpt>
      <trkpt lat="45.68594888783991" lon="17.687796419486403">
        <ele>223.45</ele>
        <time>2023-10-17T06:49:17.964Z</time>
      </trkpt>
      <trkpt lat="45.685957269743085" lon="17.68780748359859">
        <ele>223.42</ele>
        <time>2023-10-17T06:49:24.704Z</time>
      </trkpt>
      <trkpt lat="45.68596573546529" lon="17.687818380072713">
        <ele>223.38</ele>
        <time>2023-10-17T06:49:31.444Z</time>
      </trkpt>
      <trkpt lat="45.68597453646362" lon="17.68782902508974">
        <ele>223.34</ele>
        <time>2023-10-17T06:49:38.184Z</time>
      </trkpt>
      <trkpt lat="45.68598350510001" lon="17.687839502468705">
        <ele>223.31</ele>
        <time>2023-10-17T06:49:44.925Z</time>
      </trkpt>
      <trkpt lat="45.68599264137447" lon="17.687849728390574">
        <ele>223.27</ele>
        <time>2023-10-17T06:49:51.666Z</time>
      </trkpt>
      <trkpt lat="45.68600186146796" lon="17.687859535217285">
        <ele>223.23</ele>
        <time>2023-10-17T06:49:58.407Z</time>
      </trkpt>
      <trkpt lat="45.68601116538048" lon="17.687868755310774">
        <ele>223.19</ele>
        <time>2023-10-17T06:50:05.149Z</time>
      </trkpt>
      <trkpt lat="45.686020301654935" lon="17.687877640128136">
        <ele>223.16</ele>
        <time>2023-10-17T06:50:11.891Z</time>
      </trkpt>
      <trkpt lat="45.686029521748424" lon="17.687886022031307">
        <ele>223.12</ele>
        <time>2023-10-17T06:50:18.634Z</time>
      </trkpt>
      <trkpt lat="45.68603874184191" lon="17.687894236296415">
        <ele>223.08</ele>
        <time>2023-10-17T06:50:25.377Z</time>
      </trkpt>
      <trkpt lat="45.68604787811637" lon="17.687902534380555">
        <ele>223.04</ele>
        <time>2023-10-17T06:50:32.120Z</time>
      </trkpt>
      <trkpt lat="45.68605709820986" lon="17.687911251559854">
        <ele>223.01</ele>
        <time>2023-10-17T06:50:38.864Z</time>
      </trkpt>
      <trkpt lat="45.68606615066528" lon="17.687920220196247">
        <ele>222.97</ele>
        <time>2023-10-17T06:50:45.608Z</time>
      </trkpt>
      <trkpt lat="45.68607511930168" lon="17.68792969174683">
        <ele>222.93</ele>
        <time>2023-10-17T06:50:52.352Z</time>
      </trkpt>
      <trkpt lat="45.68608400411904" lon="17.687939582392573">
        <ele>222.89</ele>
        <time>2023-10-17T06:50:59.097Z</time>
      </trkpt>
      <trkpt lat="45.6860928889364" lon="17.687949975952506">
        <ele>222.86</ele>
        <time>2023-10-17T06:51:05.842Z</time>
      </trkpt>
      <trkpt lat="45.686101941391826" lon="17.687960788607597">
        <ele>222.82</ele>
        <time>2023-10-17T06:51:12.588Z</time>
      </trkpt>
      <trkpt lat="45.686111245304346" lon="17.687972020357847">
        <ele>222.78</ele>
        <time>2023-10-17T06:51:19.334Z</time>
      </trkpt>
      <trkpt lat="45.68612071685493" lon="17.687983587384224">
        <ele>222.75</ele>
        <time>2023-10-17T06:51:26.080Z</time>
      </trkpt>
      <trkpt lat="45.68613035604358" lon="17.687995238229632">
        <ele>222.71</ele>
        <time>2023-10-17T06:51:32.827Z</time>
      </trkpt>
      <trkpt lat="45.68613974377513" lon="17.688006637617946">
        <ele>222.68</ele>
        <time>2023-10-17T06:51:39.574Z</time>
      </trkpt>
      <trkpt lat="45.68614896386862" lon="17.688017785549164">
        <ele>222.64</ele>
        <time>2023-10-17T06:51:46.322Z</time>
      </trkpt>
      <trkpt lat="45.68615793250501" lon="17.68802826292813">
        <ele>222.61</ele>
        <time>2023-10-17T06:51:53.070Z</time>
      </trkpt>
      <trkpt lat="45.686166901141405" lon="17.688038488849998">
        <ele>222.57</ele>
        <time>2023-10-17T06:51:59.818Z</time>
      </trkpt>
      <trkpt lat="45.6861758697778" lon="17.688048295676708">
        <ele>222.54</ele>
        <time>2023-10-17T06:52:06.567Z</time>
      </trkpt>
      <trkpt lat="45.68618483841419" lon="17.688057851046324">
        <ele>222.51</ele>
        <time>2023-10-17T06:52:13.316Z</time>
      </trkpt>
      <trkpt lat="45.686193723231554" lon="17.688067322596908">
        <ele>222.47</ele>
        <time>2023-10-17T06:52:20.066Z</time>
      </trkpt>
      <trkpt lat="45.68620269186795" lon="17.68807671032846">
        <ele>222.44</ele>
        <time>2023-10-17T06:52:26.816Z</time>
      </trkpt>
      <trkpt lat="45.68621166050434" lon="17.688086265698075">
        <ele>222.41</ele>
        <time>2023-10-17T06:52:33.566Z</time>
      </trkpt>
      <trkpt lat="45.686220712959766" lon="17.688095988705754">
        <ele>222.38</ele>
        <time>2023-10-17T06:52:40.317Z</time>
      </trkpt>
      <trkpt lat="45.68622984923422" lon="17.68810604698956">
        <ele>222.35</ele>
        <time>2023-10-17T06:52:47.068Z</time>
      </trkpt>
      <trkpt lat="45.686239236965775" lon="17.688116440549493">
        <ele>222.32</ele>
        <time>2023-10-17T06:52:53.819Z</time>
      </trkpt>
      <trkpt lat="45.68624887615442" lon="17.688127253204584">
        <ele>222.29</ele>
        <time>2023-10-17T06:53:00.571Z</time>
      </trkpt>
      <trkpt lat="45.6862585991621" lon="17.688138401135802">
        <ele>222.26</ele>
        <time>2023-10-17T06:53:07.323Z</time>
      </trkpt>
      <trkpt lat="45.68626832216978" lon="17.688149716705084">
        <ele>222.24</ele>
        <time>2023-10-17T06:53:14.076Z</time>
      </trkpt>
      <trkpt lat="45.686277793720365" lon="17.688161116093397">
        <ele>222.21</ele>
        <time>2023-10-17T06:53:20.829Z</time>
      </trkpt>
      <trkpt lat="45.68628684617579" lon="17.688172347843647">
        <ele>222.18</ele>
        <time>2023-10-17T06:53:27.582Z</time>
      </trkpt>
      <trkpt lat="45.68629531189799" lon="17.68818316049874">
        <ele>222.16</ele>
        <time>2023-10-17T06:53:34.336Z</time>
      </trkpt>
      <trkpt lat="45.68630302324891" lon="17.688193637877703">
        <ele>222.13</ele>
        <time>2023-10-17T06:53:41.090Z</time>
      </trkpt>
      <trkpt lat="45.68630998022854" lon="17.688203528523445">
        <ele>222.11</ele>
        <time>2023-10-17T06:53:47.845Z</time>
      </trkpt>
      <trkpt lat="45.68631576374173" lon="17.688212832435966">
        <ele>222.08</ele>
        <time>2023-10-17T06:53:54.600Z</time>
      </trkpt>
      <trkpt lat="45.68632054142654" lon="17.688221633434296">
        <ele>222.06</ele>
        <time>2023-10-17T06:54:01.355Z</time>
      </trkpt>
      <trkpt lat="45.686324229463935" lon="17.68823018297553">
        <ele>222.04</ele>
        <time>2023-10-17T06:54:08.110Z</time>
      </trkpt>
      <trkpt lat="45.68632699549198" lon="17.688238648697734">
        <ele>222.01</ele>
        <time>2023-10-17T06:54:14.866Z</time>
      </trkpt>
      <trkpt lat="45.68632892332971" lon="17.688247030600905">
        <ele>221.99</ele>
        <time>2023-10-17T06:54:21.622Z</time>
      </trkpt>
      <trkpt lat="45.686330096796155" lon="17.688255161046982">
        <ele>221.97</ele>
        <time>2023-10-17T06:54:28.378Z</time>
      </trkpt>
      <trkpt lat="45.68633085116744" lon="17.688263291493058">
        <ele>221.95</ele>
        <time>2023-10-17T06:54:35.134Z</time>
      </trkpt>
      <trkpt lat="45.6863312702626" lon="17.688271505758166">
        <ele>221.93</ele>
        <time>2023-10-17T06:54:41.890Z</time>
      </trkpt>
      <trkpt lat="45.686331521719694" lon="17.68827997148037">
        <ele>221.91</ele>
        <time>2023-10-17T06:54:48.647Z</time>
      </trkpt>
      <trkpt lat="45.68633168935776" lon="17.688288521021605">
        <ele>221.89</ele>
        <time>2023-10-17T06:54:55.404Z</time>
      </trkpt>
      <trkpt lat="45.686332024633884" lon="17.688297405838966">
        <ele>221.87</ele>
        <time>2023-10-17T06:55:02.161Z</time>
      </trkpt>
      <trkpt lat="45.68633294664323" lon="17.688306625932455">
        <ele>221.85</ele>
        <time>2023-10-17T06:55:08.918Z</time>
      </trkpt>
      <trkpt lat="45.686334455385804" lon="17.68831609748304">
        <ele>221.83</ele>
        <time>2023-10-17T06:55:15.675Z</time>
      </trkpt>
      <trkpt lat="45.686336467042565" lon="17.68832548521459">
        <ele>221.82</ele>
        <time>2023-10-17T06:55:22.433Z</time>
      </trkpt>
      <trkpt lat="45.68633898161352" lon="17.688334453850985">
        <ele>221.8</ele>
        <time>2023-10-17T06:55:29.191Z</time>
      </trkpt>
      <trkpt lat="45.68634199909866" lon="17.688342751935124">
        <ele>221.78</ele>
        <time>2023-10-17T06:55:35.949Z</time>
      </trkpt>
      <trkpt lat="45.68634535185993" lon="17.688350463286042">
        <ele>221.77</ele>
        <time>2023-10-17T06:55:42.707Z</time>
      </trkpt>
      <trkpt lat="45.68634895607829" lon="17.688357420265675">
        <ele>221.75</ele>
        <time>2023-10-17T06:55:49.465Z</time>
      </trkpt>
      <trkpt lat="45.68635297939181" lon="17.68836395815015">
        <ele>221.74</ele>
        <time>2023-10-17T06:55:56.224Z</time>
      </trkpt>
      <trkpt lat="45.68635733798146" lon="17.688369741663337">
        <ele>221.72</ele>
        <time>2023-10-17T06:56:02.983Z</time>
      </trkpt>
      <trkpt lat="45.68636203184724" lon="17.68837535753846">
        <ele>221.71</ele>
        <time>2023-10-17T06:56:09.742Z</time>
      </trkpt>
      <trkpt lat="45.68636689335108" lon="17.68838072195649">
        <ele>221.7</ele>
        <time>2023-10-17T06:56:16.501Z</time>
      </trkpt>
      <trkpt lat="45.686372090131044" lon="17.68838600255549">
        <ele>221.69</ele>
        <time>2023-10-17T06:56:23.260Z</time>
      </trkpt>
      <trkpt lat="45.68637770600617" lon="17.68839145079255">
        <ele>221.67</ele>
        <time>2023-10-17T06:56:30.020Z</time>
      </trkpt>
      <trkpt lat="45.686383908614516" lon="17.68839731812477">
        <ele>221.66</ele>
        <time>2023-10-17T06:56:36.780Z</time>
      </trkpt>
      <trkpt lat="45.68639061413705" lon="17.688403772190213">
        <ele>221.65</ele>
        <time>2023-10-17T06:56:43.540Z</time>
      </trkpt>
      <trkpt lat="45.68639824166894" lon="17.68841089680791">
        <ele>221.64</ele>
        <time>2023-10-17T06:56:50.301Z</time>
      </trkpt>
      <trkpt lat="45.68640670739114" lon="17.688418943434954">
        <ele>221.63</ele>
        <time>2023-10-17T06:56:57.062Z</time>
      </trkpt>
      <trkpt lat="45.686416095122695" lon="17.688427828252316">
        <ele>221.62</ele>
        <time>2023-10-17T06:57:03.823Z</time>
      </trkpt>
      <trkpt lat="45.68642623722553" lon="17.688437132164836">
        <ele>221.61</ele>
        <time>2023-10-17T06:57:10.585Z</time>
      </trkpt>
      <trkpt lat="45.68643721751869" lon="17.688446938991547">
        <ele>221.6</ele>
        <time>2023-10-17T06:57:17.347Z</time>
      </trkpt>
      <trkpt lat="45.68644903600216" lon="17.68845691345632">
        <ele>221.59</ele>
        <time>2023-10-17T06:57:24.110Z</time>
      </trkpt>
      <trkpt lat="45.686461608856916" lon="17.68846672028303">
        <ele>221.58</ele>
        <time>2023-10-17T06:57:30.873Z</time>
      </trkpt>
      <trkpt lat="45.68647485226393" lon="17.68847635947168">
        <ele>221.57</ele>
        <time>2023-10-17T06:57:37.637Z</time>
      </trkpt>
      <trkpt lat="45.6864885147661" lon="17.688485495746136">
        <ele>221.56</ele>
        <time>2023-10-17T06:57:44.401Z</time>
      </trkpt>
      <trkpt lat="45.68650251254439" lon="17.688494212925434">
        <ele>221.55</ele>
        <time>2023-10-17T06:57:51.166Z</time>
      </trkpt>
      <trkpt lat="45.686516761779785" lon="17.688502427190542">
        <ele>221.54</ele>
        <time>2023-10-17T06:57:57.931Z</time>
      </trkpt>
      <trkpt lat="45.68653109483421" lon="17.688510306179523">
        <ele>221.53</ele>
        <time>2023-10-17T06:58:04.697Z</time>
      </trkpt>
      <trkpt lat="45.68654542788863" lon="17.688517682254314">
        <ele>221.52</ele>
        <time>2023-10-17T06:58:11.463Z</time>
      </trkpt>
      <trkpt lat="45.68655959330499" lon="17.68852472305298">
        <ele>221.51</ele>
        <time>2023-10-17T06:58:18.230Z</time>
      </trkpt>
      <trkpt lat="45.68657359108329" lon="17.688531512394547">
        <ele>221.51</ele>
        <time>2023-10-17T06:58:24.997Z</time>
      </trkpt>
      <trkpt lat="45.68658742122352" lon="17.68853796645999">
        <ele>221.5</ele>
        <time>2023-10-17T06:58:31.765Z</time>
      </trkpt>
      <trkpt lat="45.68660108372569" lon="17.6885443367064">
        <ele>221.49</ele>
        <time>2023-10-17T06:58:38.533Z</time>
      </trkpt>
      <trkpt lat="45.68661466240883" lon="17.688550539314747">
        <ele>221.47</ele>
        <time>2023-10-17T06:58:45.302Z</time>
      </trkpt>
      <trkpt lat="45.68662798963487" lon="17.688556658104062">
        <ele>221.46</ele>
        <time>2023-10-17T06:58:52.071Z</time>
      </trkpt>
      <trkpt lat="45.68664123304188" lon="17.688562776893377">
        <ele>221.45</ele>
        <time>2023-10-17T06:58:58.840Z</time>
      </trkpt>
      <trkpt lat="45.68665414117277" lon="17.688569147139788">
        <ele>221.44</ele>
        <time>2023-10-17T06:59:05.610Z</time>
      </trkpt>
      <trkpt lat="45.68666688166559" lon="17.68857568502426">
        <ele>221.43</ele>
        <time>2023-10-17T06:59:12.380Z</time>
      </trkpt>
      <trkpt lat="45.68667928688228" lon="17.688582642003894">
        <ele>221.42</ele>
        <time>2023-10-17T06:59:19.151Z</time>
      </trkpt>
      <trkpt lat="45.68669160827994" lon="17.688589934259653">
        <ele>221.4</ele>
        <time>2023-10-17T06:59:25.922Z</time>
      </trkpt>
      <trkpt lat="45.68670376203954" lon="17.688597477972507">
        <ele>221.39</ele>
        <time>2023-10-17T06:59:32.694Z</time>
      </trkpt>
      <trkpt lat="45.68671583198011" lon="17.688605189323425">
        <ele>221.38</ele>
        <time>2023-10-17T06:59:39.466Z</time>
      </trkpt>
      <trkpt lat="45.686727901920676" lon="17.68861315213144">
        <ele>221.36</ele>
        <time>2023-10-17T06:59:46.239Z</time>
      </trkpt>
      <trkpt lat="45.68673980422318" lon="17.688621282577515">
        <ele>221.34</ele>
        <time>2023-10-17T06:59:53.012Z</time>
      </trkpt>
      <trkpt lat="45.68675170652568" lon="17.688629664480686">
        <ele>221.33</ele>
        <time>2023-10-17T06:59:59.785Z</time>
      </trkpt>
      <trkpt lat="45.686763441190124" lon="17.688638381659985">
        <ele>221.31</ele>
        <time>2023-10-17T07:00:06.559Z</time>
      </trkpt>
      <trkpt lat="45.6867750082165" lon="17.68864743411541">
        <ele>221.29</ele>
        <time>2023-10-17T07:00:13.333Z</time>
      </trkpt>
      <trkpt lat="45.686786491423845" lon="17.688656486570835">
        <ele>221.27</ele>
        <time>2023-10-17T07:00:20.108Z</time>
      </trkpt>
      <trkpt lat="45.68679805845022" lon="17.68866545520723">
        <ele>221.26</ele>
        <time>2023-10-17T07:00:26.883Z</time>
      </trkpt>
      <trkpt lat="45.68680970929563" lon="17.68867425620556">
        <ele>221.24</ele>
        <time>2023-10-17T07:00:33.659Z</time>
      </trkpt>
      <trkpt lat="45.686821611598134" lon="17.688682805746794">
        <ele>221.22</ele>
        <time>2023-10-17T07:00:40.435Z</time>
      </trkpt>
      <trkpt lat="45.6868336815387" lon="17.688691103830934">
        <ele>221.2</ele>
        <time>2023-10-17T07:00:47.212Z</time>
      </trkpt>
      <trkpt lat="45.6868458352983" lon="17.68869915045798">
        <ele>221.18</ele>
        <time>2023-10-17T07:00:53.989Z</time>
      </trkpt>
      <trkpt lat="45.6868579890579" lon="17.68870711326599">
        <ele>221.16</ele>
        <time>2023-10-17T07:01:00.766Z</time>
      </trkpt>
      <trkpt lat="45.6868701428175" lon="17.68871490843594">
        <ele>221.14</ele>
        <time>2023-10-17T07:01:07.544Z</time>
      </trkpt>
      <trkpt lat="45.686882296577096" lon="17.68872261978686">
        <ele>221.12</ele>
        <time>2023-10-17T07:01:14.322Z</time>
      </trkpt>
      <trkpt lat="45.686894534155726" lon="17.68873007968068">
        <ele>221.1</ele>
        <time>2023-10-17T07:01:21.101Z</time>
      </trkpt>
      <trkpt lat="45.68690693937242" lon="17.688737539574504">
        <ele>221.08</ele>
        <time>2023-10-17T07:01:27.880Z</time>
      </trkpt>
      <trkpt lat="45.68691926077008" lon="17.688744831830263">
        <ele>221.06</ele>
        <time>2023-10-17T07:01:34.660Z</time>
      </trkpt>
      <trkpt lat="45.686931665986776" lon="17.688752124086022">
        <ele>221.05</ele>
        <time>2023-10-17T07:01:41.440Z</time>
      </trkpt>
      <trkpt lat="45.686943819746375" lon="17.688759500160813">
        <ele>221.03</ele>
        <time>2023-10-17T07:01:48.221Z</time>
      </trkpt>
      <trkpt lat="45.68695580586791" lon="17.688767043873668">
        <ele>221.01</ele>
        <time>2023-10-17T07:01:55.002Z</time>
      </trkpt>
      <trkpt lat="45.68696762435138" lon="17.688774671405554">
        <ele>220.99</ele>
        <time>2023-10-17T07:02:01.783Z</time>
      </trkpt>
      <trkpt lat="45.68697919137776" lon="17.688782466575503">
        <ele>220.97</ele>
        <time>2023-10-17T07:02:08.565Z</time>
      </trkpt>
      <trkpt lat="45.686990674585104" lon="17.688790513202548">
        <ele>220.96</ele>
        <time>2023-10-17T07:02:15.347Z</time>
      </trkpt>
      <trkpt lat="45.687001990154386" lon="17.68879889510572">
        <ele>220.94</ele>
        <time>2023-10-17T07:02:22.130Z</time>
      </trkpt>
      <trkpt lat="45.687013221904635" lon="17.688807360827923">
        <ele>220.92</ele>
        <time>2023-10-17T07:02:28.913Z</time>
      </trkpt>
      <trkpt lat="45.687024369835854" lon="17.68881599418819">
        <ele>220.91</ele>
        <time>2023-10-17T07:02:35.697Z</time>
      </trkpt>
      <trkpt lat="45.68703551776707" lon="17.688824711367488">
        <ele>220.89</ele>
        <time>2023-10-17T07:02:42.481Z</time>
      </trkpt>
      <trkpt lat="45.687046498060226" lon="17.688833344727755">
        <ele>220.88</ele>
        <time>2023-10-17T07:02:49.265Z</time>
      </trkpt>
      <trkpt lat="45.68705747835338" lon="17.688841810449958">
        <ele>220.87</ele>
        <time>2023-10-17T07:02:56.050Z</time>
      </trkpt>
      <trkpt lat="45.687068374827504" lon="17.68885019235313">
        <ele>220.85</ele>
        <time>2023-10-17T07:03:02.835Z</time>
      </trkpt>
      <trkpt lat="45.687079187482595" lon="17.688858406618237">
        <ele>220.84</ele>
        <time>2023-10-17T07:03:09.621Z</time>
      </trkpt>
      <trkpt lat="45.68709008395672" lon="17.688866537064314">
        <ele>220.83</ele>
        <time>2023-10-17T07:03:16.407Z</time>
      </trkpt>
      <trkpt lat="45.68710098043084" lon="17.68887466751039">
        <ele>220.82</ele>
        <time>2023-10-17T07:03:23.193Z</time>
      </trkpt>
      <trkpt lat="45.687111960723996" lon="17.688882630318403">
        <ele>220.81</ele>
        <time>2023-10-17T07:03:29.980Z</time>
      </trkpt>
      <trkpt lat="45.687123108655214" lon="17.688890425488353">
        <ele>220.8</ele>
        <time>2023-10-17T07:03:36.767Z</time>
      </trkpt>
      <trkpt lat="45.68713425658643" lon="17.688897885382175">
        <ele>220.8</ele>
        <time>2023-10-17T07:03:43.555Z</time>
      </trkpt>
      <trkpt lat="45.68714548833668" lon="17.688905177637935">
        <ele>220.79</ele>
        <time>2023-10-17T07:03:50.343Z</time>
      </trkpt>
      <trkpt lat="45.68715672008693" lon="17.6889122184366">
        <ele>220.79</ele>
        <time>2023-10-17T07:03:57.131Z</time>
      </trkpt>
      <trkpt lat="45.68716820329428" lon="17.688919259235263">
        <ele>220.78</ele>
        <time>2023-10-17T07:04:03.920Z</time>
      </trkpt>
      <trkpt lat="45.68717968650162" lon="17.688926300033927">
        <ele>220.78</ele>
        <time>2023-10-17T07:04:10.709Z</time>
      </trkpt>
      <trkpt lat="45.68719142116606" lon="17.688933424651623">
        <ele>220.78</ele>
        <time>2023-10-17T07:04:17.499Z</time>
      </trkpt>
      <trkpt lat="45.687203239649534" lon="17.688940716907382">
        <ele>220.78</ele>
        <time>2023-10-17T07:04:24.289Z</time>
      </trkpt>
      <trkpt lat="45.68721522577107" lon="17.688948092982173">
        <ele>220.78</ele>
        <time>2023-10-17T07:04:31.080Z</time>
      </trkpt>
      <trkpt lat="45.68722737953067" lon="17.68895572051406">
        <ele>220.79</ele>
        <time>2023-10-17T07:04:37.871Z</time>
      </trkpt>
      <trkpt lat="45.68723970092833" lon="17.688963348045945">
        <ele>220.79</ele>
        <time>2023-10-17T07:04:44.662Z</time>
      </trkpt>
      <trkpt lat="45.687252189964056" lon="17.688971227034926">
        <ele>220.8</ele>
        <time>2023-10-17T07:04:51.454Z</time>
      </trkpt>
      <trkpt lat="45.68726467899978" lon="17.688979106023908">
        <ele>220.8</ele>
        <time>2023-10-17T07:04:58.246Z</time>
      </trkpt>
      <trkpt lat="45.68727716803551" lon="17.68898706883192">
        <ele>220.81</ele>
        <time>2023-10-17T07:05:05.039Z</time>
      </trkpt>
      <trkpt lat="45.68728965707123" lon="17.688995115458965">
        <ele>220.82</ele>
        <time>2023-10-17T07:05:11.832Z</time>
      </trkpt>
      <trkpt lat="45.68730206228793" lon="17.68900324590504">
        <ele>220.84</ele>
        <time>2023-10-17T07:05:18.626Z</time>
      </trkpt>
      <trkpt lat="45.68731438368559" lon="17.689011376351118">
        <ele>220.85</ele>
        <time>2023-10-17T07:05:25.420Z</time>
      </trkpt>
      <trkpt lat="45.68732653744519" lon="17.689019422978163">
        <ele>220.87</ele>
        <time>2023-10-17T07:05:32.215Z</time>
      </trkpt>
      <trkpt lat="45.687338691204786" lon="17.689027385786176">
        <ele>220.88</ele>
        <time>2023-10-17T07:05:39.010Z</time>
      </trkpt>
      <trkpt lat="45.68735067732632" lon="17.689035264775157">
        <ele>220.9</ele>
        <time>2023-10-17T07:05:45.806Z</time>
      </trkpt>
      <trkpt lat="45.68736249580979" lon="17.689042892307043">
        <ele>220.92</ele>
        <time>2023-10-17T07:05:52.602Z</time>
      </trkpt>
      <trkpt lat="45.68737397901714" lon="17.68905051983893">
        <ele>220.93</ele>
        <time>2023-10-17T07:05:59.398Z</time>
      </trkpt>
      <trkpt lat="45.687385043129325" lon="17.68905781209469">
        <ele>220.95</ele>
        <time>2023-10-17T07:06:06.195Z</time>
      </trkpt>
      <trkpt lat="45.68739560432732" lon="17.68906468525529">
        <ele>220.97</ele>
        <time>2023-10-17T07:06:12.992Z</time>
      </trkpt>
      <trkpt lat="45.687405578792095" lon="17.68907113932073">
        <ele>220.99</ele>
        <time>2023-10-17T07:06:19.790Z</time>
      </trkpt>
      <trkpt lat="45.68741454742849" lon="17.689076336100698">
        <ele>221.01</ele>
        <time>2023-10-17T07:06:26.588Z</time>
      </trkpt>
      <trkpt lat="45.68742234259844" lon="17.689080275595188">
        <ele>221.03</ele>
        <time>2023-10-17T07:06:33.386Z</time>
      </trkpt>
      <trkpt lat="45.68742913194001" lon="17.68908287398517">
        <ele>221.05</ele>
        <time>2023-10-17T07:06:40.184Z</time>
      </trkpt>
      <trkpt lat="45.687434915453196" lon="17.689084382727742">
        <ele>221.07</ele>
        <time>2023-10-17T07:06:46.983Z</time>
      </trkpt>
      <trkpt lat="45.68743952549994" lon="17.689084969460964">
        <ele>221.09</ele>
        <time>2023-10-17T07:06:53.782Z</time>
      </trkpt>
      <trkpt lat="45.68744296208024" lon="17.6890848018229">
        <ele>221.12</ele>
        <time>2023-10-17T07:07:00.581Z</time>
      </trkpt>
      <trkpt lat="45.68744530901313" lon="17.68908379599452">
        <ele>221.14</ele>
        <time>2023-10-17T07:07:07.380Z</time>
      </trkpt>
      <trkpt lat="45.68744673393667" lon="17.689082035794854">
        <ele>221.16</ele>
        <time>2023-10-17T07:07:14.179Z</time>
      </trkpt>
      <trkpt lat="45.68744732066989" lon="17.689079521223903">
        <ele>221.18</ele>
        <time>2023-10-17T07:07:20.978Z</time>
      </trkpt>
      <trkpt lat="45.68744723685086" lon="17.689076671376824">
        <ele>221.2</ele>
        <time>2023-10-17T07:07:27.777Z</time>
      </trkpt>
      <trkpt lat="45.687446650117636" lon="17.68907357007265">
        <ele>221.22</ele>
        <time>2023-10-17T07:07:34.576Z</time>
      </trkpt>
      <trkpt lat="45.68744589574635" lon="17.689070804044604">
        <ele>221.24</ele>
        <time>2023-10-17T07:07:41.375Z</time>
      </trkpt>
      <trkpt lat="45.6874452251941" lon="17.689068540930748">
        <ele>221.26</ele>
        <time>2023-10-17T07:07:48.174Z</time>
      </trkpt>
      <trkpt lat="45.68744447082281" lon="17.68906669691205">
        <ele>221.28</ele>
        <time>2023-10-17T07:07:54.973Z</time>
      </trkpt>
      <trkpt lat="45.687443632632494" lon="17.68906518816948">
        <ele>221.3</ele>
        <time>2023-10-17T07:08:01.772Z</time>
      </trkpt>
      <trkpt lat="45.68744279444218" lon="17.68906367942691">
        <ele>221.32</ele>
        <time>2023-10-17T07:08:08.571Z</time>
      </trkpt>
      <trkpt lat="45.68744195625186" lon="17.689062003046274">
        <ele>221.35</ele>
        <time>2023-10-17T07:08:15.371Z</time>
      </trkpt>
      <trkpt lat="45.68744103424251" lon="17.689060159027576">
        <ele>221.37</ele>
        <time>2023-10-17T07:08:22.171Z</time>
      </trkpt>
      <trkpt lat="45.68744011223316" lon="17.689058063551784">
        <ele>221.39</ele>
        <time>2023-10-17T07:08:28.971Z</time>
      </trkpt>
      <trkpt lat="45.68743919022381" lon="17.689055800437927">
        <ele>221.41</ele>
        <time>2023-10-17T07:08:35.771Z</time>
      </trkpt>
      <trkpt lat="45.68743818439543" lon="17.689053285866976">
        <ele>221.43</ele>
        <time>2023-10-17T07:08:42.571Z</time>
      </trkpt>
      <trkpt lat="45.68743709474802" lon="17.68905060365796">
        <ele>221.45</ele>
        <time>2023-10-17T07:08:49.371Z</time>
      </trkpt>
      <trkpt lat="45.687435921281576" lon="17.689047753810883">
        <ele>221.47</ele>
        <time>2023-10-17T07:08:56.171Z</time>
      </trkpt>
      <trkpt lat="45.68743474781513" lon="17.68904473632574">
        <ele>221.49</ele>
        <time>2023-10-17T07:09:02.971Z</time>
      </trkpt>
      <trkpt lat="45.687433490529656" lon="17.689041551202536">
        <ele>221.51</ele>
        <time>2023-10-17T07:09:09.771Z</time>
      </trkpt>
      <trkpt lat="45.68743223324418" lon="17.68903836607933">
        <ele>221.53</ele>
        <time>2023-10-17T07:09:16.571Z</time>
      </trkpt>
      <trkpt lat="45.68743105977774" lon="17.689035264775157">
        <ele>221.55</ele>
        <time>2023-10-17T07:09:23.371Z</time>
      </trkpt>
      <trkpt lat="45.687429970130324" lon="17.689032331109047">
        <ele>221.57</ele>
        <time>2023-10-17T07:09:30.171Z</time>
      </trkpt>
      <trkpt lat="45.687428964301944" lon="17.68902948126197">
        <ele>221.59</ele>
        <time>2023-10-17T07:09:36.971Z</time>
      </trkpt>
      <trkpt lat="45.68742820993066" lon="17.689026966691017">
        <ele>221.61</ele>
        <time>2023-10-17T07:09:43.771Z</time>
      </trkpt>
      <trkpt lat="45.687427539378405" lon="17.68902461975813">
        <ele>221.63</ele>
        <time>2023-10-17T07:09:50.572Z</time>
      </trkpt>
      <trkpt lat="45.687427036464214" lon="17.689022524282336">
        <ele>221.65</ele>
        <time>2023-10-17T07:09:57.373Z</time>
      </trkpt>
      <trkpt lat="45.68742678500712" lon="17.68902076408267">
        <ele>221.67</ele>
        <time>2023-10-17T07:10:04.174Z</time>
      </trkpt>
      <trkpt lat="45.68742670118809" lon="17.6890192553401">
        <ele>221.69</ele>
        <time>2023-10-17T07:10:10.975Z</time>
      </trkpt>
      <trkpt lat="45.68742678500712" lon="17.689018081873655">
        <ele>221.71</ele>
        <time>2023-10-17T07:10:17.776Z</time>
      </trkpt>
      <trkpt lat="45.687427036464214" lon="17.689017076045275">
        <ele>221.73</ele>
        <time>2023-10-17T07:10:24.577Z</time>
      </trkpt>
      <trkpt lat="45.68742745555937" lon="17.68901640549302">
        <ele>221.75</ele>
        <time>2023-10-17T07:10:31.378Z</time>
      </trkpt>
      <trkpt lat="45.68742787465453" lon="17.68901590257883">
        <ele>221.77</ele>
        <time>2023-10-17T07:10:38.179Z</time>
      </trkpt>
      <trkpt lat="45.68742846138775" lon="17.689015651121736">
        <ele>221.79</ele>
        <time>2023-10-17T07:10:44.980Z</time>
      </trkpt>
      <trkpt lat="45.687428964301944" lon="17.68901539966464">
        <ele>221.81</ele>
        <time>2023-10-17T07:10:51.781Z</time>
      </trkpt>
      <trkpt lat="45.687429467216134" lon="17.68901531584561">
        <ele>221.83</ele>
        <time>2023-10-17T07:10:58.582Z</time>
      </trkpt>
      <trkpt lat="45.687429970130324" lon="17.68901531584561">
        <ele>221.86</ele>
        <time>2023-10-17T07:11:05.383Z</time>
      </trkpt>
      <trkpt lat="45.68743038922548" lon="17.68901531584561">
        <ele>221.88</ele>
        <time>2023-10-17T07:11:12.184Z</time>
      </trkpt>
      <trkpt lat="45.68743080832064" lon="17.68901531584561">
        <ele>221.9</ele>
        <time>2023-10-17T07:11:18.985Z</time>
      </trkpt>
      <trkpt lat="45.687430975958705" lon="17.689015064388514">
        <ele>221.92</ele>
        <time>2023-10-17T07:11:25.786Z</time>
      </trkpt>
      <trkpt lat="45.68743105977774" lon="17.68901447765529">
        <ele>221.94</ele>
        <time>2023-10-17T07:11:32.587Z</time>
      </trkpt>
      <trkpt lat="45.687430975958705" lon="17.689013639464974">
        <ele>221.96</ele>
        <time>2023-10-17T07:11:39.388Z</time>
      </trkpt>
      <trkpt lat="45.68743072450161" lon="17.6890123821795">
        <ele>221.98</ele>
        <time>2023-10-17T07:11:46.189Z</time>
      </trkpt>
      <trkpt lat="45.68743030540645" lon="17.689010873436928">
        <ele>222.0</ele>
        <time>2023-10-17T07:11:52.990Z</time>
      </trkpt>
      <trkpt lat="45.68742988631129" lon="17.689009280875325">
        <ele>222.02</ele>
        <time>2023-10-17T07:11:59.791Z</time>
      </trkpt>
      <trkpt lat="45.68742929957807" lon="17.68900752067566">
        <ele>222.05</ele>
        <time>2023-10-17T07:12:06.592Z</time>
      </trkpt>
      <trkpt lat="45.68742879666388" lon="17.689005760475993">
        <ele>222.07</ele>
        <time>2023-10-17T07:12:13.393Z</time>
      </trkpt>
      <trkpt lat="45.68742820993066" lon="17.689003916457295">
        <ele>222.09</ele>
        <time>2023-10-17T07:12:20.194Z</time>
      </trkpt>
      <trkpt lat="45.687427623197436" lon="17.68900215625763">
        <ele>222.11</ele>
        <time>2023-10-17T07:12:26.995Z</time>
      </trkpt>
      <trkpt lat="45.687427036464214" lon="17.689000396057963">
        <ele>222.13</ele>
        <time>2023-10-17T07:12:33.796Z</time>
      </trkpt>
      <trkpt lat="45.68742644973099" lon="17.68899871967733">
        <ele>222.16</ele>
        <time>2023-10-17T07:12:40.597Z</time>
      </trkpt>
      <trkpt lat="45.6874259468168" lon="17.68899737857282">
        <ele>222.18</ele>
        <time>2023-10-17T07:12:47.398Z</time>
      </trkpt>
      <trkpt lat="45.68742552772164" lon="17.688996205106378">
        <ele>222.21</ele>
        <time>2023-10-17T07:12:54.199Z</time>
      </trkpt>
      <trkpt lat="45.687425108626485" lon="17.688995199277997">
        <ele>222.23</ele>
        <time>2023-10-17T07:13:01.000Z</time>
      </trkpt>
      <trkpt lat="45.68742477335036" lon="17.68899436108768">
        <ele>222.25</ele>
        <time>2023-10-17T07:13:07.801Z</time>
      </trkpt>
      <trkpt lat="45.68742443807423" lon="17.688993522897363">
        <ele>222.28</ele>
        <time>2023-10-17T07:13:14.602Z</time>
      </trkpt>
      <trkpt lat="45.687424102798104" lon="17.68899285234511">
        <ele>222.3</ele>
        <time>2023-10-17T07:13:21.403Z</time>
      </trkpt>
      <trkpt lat="45.68742385134101" lon="17.688992181792855">
        <ele>222.33</ele>
        <time>2023-10-17T07:13:28.204Z</time>
      </trkpt>
      <trkpt lat="45.687423599883914" lon="17.688991678878665">
        <ele>222.35</ele>
        <time>2023-10-17T07:13:35.005Z</time>
      </trkpt>
      <trkpt lat="45.68742343224585" lon="17.688991175964475">
        <ele>222.38</ele>
        <time>2023-10-17T07:13:41.806Z</time>
      </trkpt>
      <trkpt lat="45.68742334842682" lon="17.688990840688348">
        <ele>222.41</ele>
        <time>2023-10-17T07:13:48.607Z</time>
      </trkpt>
      <trkpt lat="45.68742326460779" lon="17.68899050541222">
        <ele>222.43</ele>
        <time>2023-10-17T07:13:55.408Z</time>
      </trkpt>
      <trkpt lat="45.687423180788755" lon="17.688990337774158">
        <ele>222.46</ele>
        <time>2023-10-17T07:14:02.210Z</time>
      </trkpt>
      <trkpt lat="45.68742326460779" lon="17.688990253955126">
        <ele>222.49</ele>
        <time>2023-10-17T07:14:09.012Z</time>
      </trkpt>
      <trkpt lat="45.68742326460779" lon="17.688990337774158">
        <ele>222.52</ele>
        <time>2023-10-17T07:14:15.814Z</time>
      </trkpt>
      <trkpt lat="45.68742343224585" lon="17.68899050541222">
        <ele>222.54</ele>
        <time>2023-10-17T07:14:22.616Z</time>
      </trkpt>
      <trkpt lat="45.68742376752198" lon="17.68899092450738">
        <ele>222.57</ele>
        <time>2023-10-17T07:14:29.418Z</time>
      </trkpt>
      <trkpt lat="45.68742443807423" lon="17.68899193033576">
        <ele>222.6</ele>
        <time>2023-10-17T07:14:36.220Z</time>
      </trkpt>
      <trkpt lat="45.68742544390261" lon="17.6889933552593">
        <ele>222.63</ele>
        <time>2023-10-17T07:14:43.022Z</time>
      </trkpt>
      <trkpt lat="45.68742686882615" lon="17.688995450735092">
        <ele>222.66</ele>
        <time>2023-10-17T07:14:49.824Z</time>
      </trkpt>
      <trkpt lat="45.68742879666388" lon="17.688998552039266">
        <ele>222.69</ele>
        <time>2023-10-17T07:14:56.626Z</time>
      </trkpt>
      <trkpt lat="45.68743139505386" lon="17.689002826809883">
        <ele>222.72</ele>
        <time>2023-10-17T07:15:03.428Z</time>
      </trkpt>
      <trkpt lat="45.68743474781513" lon="17.689008358865976">
        <ele>222.75</ele>
        <time>2023-10-17T07:15:10.230Z</time>
      </trkpt>
      <trkpt lat="45.68743868730962" lon="17.689014980569482">
        <ele>222.78</ele>
        <time>2023-10-17T07:15:17.032Z</time>
      </trkpt>
      <trkpt lat="45.68744346499443" lon="17.689022943377495">
        <ele>222.81</ele>
        <time>2023-10-17T07:15:23.835Z</time>
      </trkpt>
      <trkpt lat="45.687448997050524" lon="17.689032331109047">
        <ele>222.84</ele>
        <time>2023-10-17T07:15:30.638Z</time>
      </trkpt>
      <trkpt lat="45.687455367296934" lon="17.689043143764138">
        <ele>222.87</ele>
        <time>2023-10-17T07:15:37.441Z</time>
      </trkpt>
      <trkpt lat="45.687462240457535" lon="17.689055129885674">
        <ele>222.9</ele>
        <time>2023-10-17T07:15:44.245Z</time>
      </trkpt>
      <trkpt lat="45.68746970035136" lon="17.68906820565462">
        <ele>222.93</ele>
        <time>2023-10-17T07:15:51.049Z</time>
      </trkpt>
      <trkpt lat="45.68747766315937" lon="17.68908228725195">
        <ele>222.96</ele>
        <time>2023-10-17T07:15:57.853Z</time>
      </trkpt>
      <trkpt lat="45.68748596124351" lon="17.68909703940153">
        <ele>222.99</ele>
        <time>2023-10-17T07:16:04.658Z</time>
      </trkpt>
      <trkpt lat="45.687494510784745" lon="17.68911221064627">
        <ele>223.02</ele>
        <time>2023-10-17T07:16:11.463Z</time>
      </trkpt>
      <trkpt lat="45.68750314414501" lon="17.68912771716714">
        <ele>223.05</ele>
        <time>2023-10-17T07:16:18.269Z</time>
      </trkpt>
      <trkpt lat="45.68751186132431" lon="17.6891434751451">
        <ele>223.08</ele>
        <time>2023-10-17T07:16:25.075Z</time>
      </trkpt>
      <trkpt lat="45.68752066232264" lon="17.689159736037254">
        <ele>223.11</ele>
        <time>2023-10-17T07:16:31.882Z</time>
      </trkpt>
      <trkpt lat="45.68752937950194" lon="17.689176332205534">
        <ele>223.14</ele>
        <time>2023-10-17T07:16:38.689Z</time>
      </trkpt>
      <trkpt lat="45.687538012862206" lon="17.68919317983091">
        <ele>223.17</ele>
        <time>2023-10-17T07:16:45.497Z</time>
      </trkpt>
      <trkpt lat="45.68754639476538" lon="17.689209943637252">
        <ele>223.19</ele>
        <time>2023-10-17T07:16:52.305Z</time>
      </trkpt>
      <trkpt lat="45.68755469284952" lon="17.689226791262627">
        <ele>223.22</ele>
        <time>2023-10-17T07:16:59.114Z</time>
      </trkpt>
      <trkpt lat="45.68756273947656" lon="17.689243722707033">
        <ele>223.25</ele>
        <time>2023-10-17T07:17:05.923Z</time>
      </trkpt>
      <trkpt lat="45.687570702284575" lon="17.68926073797047">
        <ele>223.27</ele>
        <time>2023-10-17T07:17:12.733Z</time>
      </trkpt>
      <trkpt lat="45.687578497454524" lon="17.68927783705294">
        <ele>223.29</ele>
        <time>2023-10-17T07:17:19.543Z</time>
      </trkpt>
      <trkpt lat="45.68758612498641" lon="17.689295019954443">
        <ele>223.32</ele>
        <time>2023-10-17T07:17:26.353Z</time>
      </trkpt>
      <trkpt lat="45.687593668699265" lon="17.689312119036913">
        <ele>223.34</ele>
        <time>2023-10-17T07:17:33.164Z</time>
      </trkpt>
      <trkpt lat="45.68760112859309" lon="17.68932905048132">
        <ele>223.36</ele>
        <time>2023-10-17T07:17:39.975Z</time>
      </trkpt>
      <trkpt lat="45.68760858848691" lon="17.68934573046863">
        <ele>223.38</ele>
        <time>2023-10-17T07:17:46.787Z</time>
      </trkpt>
      <trkpt lat="45.68761604838073" lon="17.68936224281788">
        <ele>223.4</ele>
        <time>2023-10-17T07:17:53.599Z</time>
      </trkpt>
      <trkpt lat="45.687623508274555" lon="17.68937850371003">
        <ele>223.41</ele>
        <time>2023-10-17T07:18:00.412Z</time>
      </trkpt>
      <trkpt lat="45.68763105198741" lon="17.689394764602184">
        <ele>223.43</ele>
        <time>2023-10-17T07:18:07.225Z</time>
      </trkpt>
      <trkpt lat="45.687638679519296" lon="17.689411025494337">
        <ele>223.44</ele>
        <time>2023-10-17T07:18:14.039Z</time>
      </trkpt>
      <trkpt lat="45.68764639087021" lon="17.689427118748426">
        <ele>223.46</ele>
        <time>2023-10-17T07:18:20.853Z</time>
      </trkpt>
      <trkpt lat="45.68765410222113" lon="17.689443128183484">
        <ele>223.47</ele>
        <time>2023-10-17T07:18:27.668Z</time>
      </trkpt>
      <trkpt lat="45.68766198121011" lon="17.68945896998048">
        <ele>223.48</ele>
        <time>2023-10-17T07:18:34.483Z</time>
      </trkpt>
      <trkpt lat="45.687669860199094" lon="17.68947472795844">
        <ele>223.49</ele>
        <time>2023-10-17T07:18:41.299Z</time>
      </trkpt>
      <trkpt lat="45.687677739188075" lon="17.68949040211737">
        <ele>223.5</ele>
        <time>2023-10-17T07:18:48.115Z</time>
      </trkpt>
      <trkpt lat="45.687685618177056" lon="17.689506076276302">
        <ele>223.5</ele>
        <time>2023-10-17T07:18:54.931Z</time>
      </trkpt>
      <trkpt lat="45.687693329527974" lon="17.689521750435233">
        <ele>223.51</ele>
        <time>2023-10-17T07:19:01.748Z</time>
      </trkpt>
      <trkpt lat="45.68770095705986" lon="17.689537508413196">
        <ele>223.51</ele>
        <time>2023-10-17T07:19:08.565Z</time>
      </trkpt>
      <trkpt lat="45.68770833313465" lon="17.68955343402922">
        <ele>223.51</ele>
        <time>2023-10-17T07:19:15.383Z</time>
      </trkpt>
      <trkpt lat="45.68771545775235" lon="17.68956952728331">
        <ele>223.51</ele>
        <time>2023-10-17T07:19:22.201Z</time>
      </trkpt>
      <trkpt lat="45.68772233091295" lon="17.689585955813527">
        <ele>223.51</ele>
        <time>2023-10-17T07:19:29.020Z</time>
      </trkpt>
      <trkpt lat="45.68772886879742" lon="17.689602803438902">
        <ele>223.51</ele>
        <time>2023-10-17T07:19:35.839Z</time>
      </trkpt>
      <trkpt lat="45.687734903767705" lon="17.689619902521372">
        <ele>223.51</ele>
        <time>2023-10-17T07:19:42.659Z</time>
      </trkpt>
      <trkpt lat="45.68774051964283" lon="17.689637504518032">
        <ele>223.5</ele>
        <time>2023-10-17T07:19:49.479Z</time>
      </trkpt>
      <trkpt lat="45.687745632603765" lon="17.68965544179082">
        <ele>223.49</ele>
        <time>2023-10-17T07:19:56.299Z</time>
      </trkpt>
      <trkpt lat="45.68775032646954" lon="17.689673798158765">
        <ele>223.48</ele>
        <time>2023-10-17T07:20:03.120Z</time>
      </trkpt>
      <trkpt lat="45.687754517421126" lon="17.689692489802837">
        <ele>223.47</ele>
        <time>2023-10-17T07:20:09.941Z</time>
      </trkpt>
      <trkpt lat="45.687758289277554" lon="17.689711349084973">
        <ele>223.46</ele>
        <time>2023-10-17T07:20:16.763Z</time>
      </trkpt>
      <trkpt lat="45.687761809676886" lon="17.68973029218614">
        <ele>223.44</ele>
        <time>2023-10-17T07:20:23.585Z</time>
      </trkpt>
      <trkpt lat="45.687765246257186" lon="17.68974923528731">
        <ele>223.43</ele>
        <time>2023-10-17T07:20:30.408Z</time>
      </trkpt>
      <trkpt lat="45.687768599018455" lon="17.689768094569445">
        <ele>223.41</ele>
        <time>2023-10-17T07:20:37.231Z</time>
      </trkpt>
      <trkpt lat="45.68777195177972" lon="17.689786702394485">
        <ele>223.39</ele>
        <time>2023-10-17T07:20:44.055Z</time>
      </trkpt>
      <trkpt lat="45.68777538836002" lon="17.689805142581463">
        <ele>223.37</ele>
        <time>2023-10-17T07:20:50.879Z</time>
      </trkpt>
      <trkpt lat="45.68777907639742" lon="17.689823331311345">
        <ele>223.34</ele>
        <time>2023-10-17T07:20:57.704Z</time>
      </trkpt>
      <trkpt lat="45.68778293207288" lon="17.689841436222196">
        <ele>223.32</ele>
        <time>2023-10-17T07:21:04.529Z</time>
      </trkpt>
      <trkpt lat="45.68778703920543" lon="17.689859457314014">
        <ele>223.29</ele>
        <time>2023-10-17T07:21:11.354Z</time>
      </trkpt>
      <trkpt lat="45.687791565433145" lon="17.6898773945868">
        <ele>223.26</ele>
        <time>2023-10-17T07:21:18.180Z</time>
      </trkpt>
      <trkpt lat="45.687796426936984" lon="17.68989541567862">
        <ele>223.23</ele>
        <time>2023-10-17T07:21:25.006Z</time>
      </trkpt>
      <trkpt lat="45.687801372259855" lon="17.68991352058947">
        <ele>223.2</ele>
        <time>2023-10-17T07:21:31.833Z</time>
      </trkpt>
      <trkpt lat="45.68780640140176" lon="17.689931793138385">
        <ele>223.17</ele>
        <time>2023-10-17T07:21:38.660Z</time>
      </trkpt>
      <trkpt lat="45.68781134672463" lon="17.68995014950633">
        <ele>223.14</ele>
        <time>2023-10-17T07:21:45.488Z</time>
      </trkpt>
      <trkpt lat="45.68781612440944" lon="17.68996875733137">
        <ele>223.1</ele>
        <time>2023-10-17T07:21:52.316Z</time>
      </trkpt>
      <trkpt lat="45.68782081827521" lon="17.689987448975444">
        <ele>223.06</ele>
        <time>2023-10-17T07:21:59.145Z</time>
      </trkpt>
      <trkpt lat="45.687825344502926" lon="17.69000630825758">
        <ele>223.03</ele>
        <time>2023-10-17T07:22:05.974Z</time>
      </trkpt>
      <trkpt lat="45.687829703092575" lon="17.69002533517778">
        <ele>222.99</ele>
        <time>2023-10-17T07:22:12.804Z</time>
      </trkpt>
      <trkpt lat="45.687834061682224" lon="17.690044613555074">
        <ele>222.95</ele>
        <time>2023-10-17T07:22:19.634Z</time>
      </trkpt>
      <trkpt lat="45.68783825263381" lon="17.69006405957043">
        <ele>222.91</ele>
        <time>2023-10-17T07:22:26.464Z</time>
      </trkpt>
      <trkpt lat="45.687842359766364" lon="17.690083673223853">
        <ele>222.87</ele>
        <time>2023-10-17T07:22:33.295Z</time>
      </trkpt>
      <trkpt lat="45.687846383079886" lon="17.690103873610497">
        <ele>222.82</ele>
        <time>2023-10-17T07:22:40.126Z</time>
      </trkpt>
      <trkpt lat="45.68785057403147" lon="17.690124409273267">
        <ele>222.78</ele>
        <time>2023-10-17T07:22:46.958Z</time>
      </trkpt>
      <trkpt lat="45.68785484880209" lon="17.690145196393132">
        <ele>222.73</ele>
        <time>2023-10-17T07:22:53.790Z</time>
      </trkpt>
      <trkpt lat="45.68785929121077" lon="17.690166234970093">
        <ele>222.69</ele>
        <time>2023-10-17T07:23:00.623Z</time>
      </trkpt>
      <trkpt lat="45.68786398507655" lon="17.690187357366085">
        <ele>222.64</ele>
        <time>2023-10-17T07:23:07.457Z</time>
      </trkpt>
      <trkpt lat="45.68786918185651" lon="17.690208479762077">
        <ele>222.6</ele>
        <time>2023-10-17T07:23:14.291Z</time>
      </trkpt>
      <trkpt lat="45.68787479773164" lon="17.69022960215807">
        <ele>222.55</ele>
        <time>2023-10-17T07:23:21.126Z</time>
      </trkpt>
      <trkpt lat="45.68788116797805" lon="17.69025064073503">
        <ele>222.51</ele>
        <time>2023-10-17T07:23:27.961Z</time>
      </trkpt>
      <trkpt lat="45.68788820877671" lon="17.690271344035864">
        <ele>222.46</ele>
        <time>2023-10-17T07:23:34.797Z</time>
      </trkpt>
      <trkpt lat="45.68789592012763" lon="17.69029171206057">
        <ele>222.41</ele>
        <time>2023-10-17T07:23:41.633Z</time>
      </trkpt>
      <trkpt lat="45.68790472112596" lon="17.69031216390431">
        <ele>222.36</ele>
        <time>2023-10-17T07:23:48.470Z</time>
      </trkpt>
      <trkpt lat="45.6879148632288" lon="17.690332448109984">
        <ele>222.32</ele>
        <time>2023-10-17T07:23:55.307Z</time>
      </trkpt>
      <trkpt lat="45.68792609497905" lon="17.690352564677596">
        <ele>222.27</ele>
        <time>2023-10-17T07:24:02.145Z</time>
      </trkpt>
      <trkpt lat="45.68793850019574" lon="17.690372681245208">
        <ele>222.23</ele>
        <time>2023-10-17T07:24:08.984Z</time>
      </trkpt>
      <trkpt lat="45.687951827421784" lon="17.690392546355724">
        <ele>222.18</ele>
        <time>2023-10-17T07:24:15.823Z</time>
      </trkpt>
      <trkpt lat="45.68796616047621" lon="17.690412495285273">
        <ele>222.14</ele>
        <time>2023-10-17T07:24:22.663Z</time>
      </trkpt>
      <trkpt lat="45.68798099644482" lon="17.690432276576757">
        <ele>222.1</ele>
        <time>2023-10-17T07:24:29.504Z</time>
      </trkpt>
      <trkpt lat="45.687996335327625" lon="17.69045197404921">
        <ele>222.05</ele>
        <time>2023-10-17T07:24:36.345Z</time>
      </trkpt>
      <trkpt lat="45.68801184184849" lon="17.690471755340695">
        <ele>222.01</ele>
        <time>2023-10-17T07:24:43.187Z</time>
      </trkpt>
      <trkpt lat="45.68802751600742" lon="17.690491620451212">
        <ele>221.96</ele>
        <time>2023-10-17T07:24:50.030Z</time>
      </trkpt>
      <trkpt lat="45.688043190166354" lon="17.69051156938076">
        <ele>221.92</ele>
        <time>2023-10-17T07:24:56.873Z</time>
      </trkpt>
      <trkpt lat="45.688058445230126" lon="17.69053118303418">
        <ele>221.88</ele>
        <time>2023-10-17T07:25:03.717Z</time>
      </trkpt>
      <trkpt lat="45.68807311356068" lon="17.69055020995438">
        <ele>221.83</ele>
        <time>2023-10-17T07:25:10.562Z</time>
      </trkpt>
      <trkpt lat="45.68808727897704" lon="17.690568817779422">
        <ele>221.79</ele>
        <time>2023-10-17T07:25:17.407Z</time>
      </trkpt>
      <trkpt lat="45.68810060620308" lon="17.690587006509304">
        <ele>221.75</ele>
        <time>2023-10-17T07:25:24.253Z</time>
      </trkpt>
      <trkpt lat="45.68811317905784" lon="17.69060494378209">
        <ele>221.71</ele>
        <time>2023-10-17T07:25:31.100Z</time>
      </trkpt>
      <trkpt lat="45.68812499754131" lon="17.690622713416815">
        <ele>221.66</ele>
        <time>2023-10-17T07:25:37.947Z</time>
      </trkpt>
      <trkpt lat="45.68813622929156" lon="17.690640315413475">
        <ele>221.62</ele>
        <time>2023-10-17T07:25:44.795Z</time>
      </trkpt>
      <trkpt lat="45.68814670667052" lon="17.690658001229167">
        <ele>221.58</ele>
        <time>2023-10-17T07:25:51.643Z</time>
      </trkpt>
      <trkpt lat="45.6881564296782" lon="17.690675854682922">
        <ele>221.54</ele>
        <time>2023-10-17T07:25:58.492Z</time>
      </trkpt>
      <trkpt lat="45.688165398314595" lon="17.69069387577474">
        <ele>221.5</ele>
        <time>2023-10-17T07:26:05.341Z</time>
      </trkpt>
      <trkpt lat="45.688173696398735" lon="17.690712148323655">
        <ele>221.46</ele>
        <time>2023-10-17T07:26:12.191Z</time>
      </trkpt>
      <trkpt lat="45.68818124011159" lon="17.690731091424823">
        <ele>221.42</ele>
        <time>2023-10-17T07:26:19.041Z</time>
      </trkpt>
      <trkpt lat="45.68818802945316" lon="17.690750621259212">
        <ele>221.38</ele>
        <time>2023-10-17T07:26:25.892Z</time>
      </trkpt>
      <trkpt lat="45.68819431588054" lon="17.69077098928392">
        <ele>221.34</ele>
        <time>2023-10-17T07:26:32.743Z</time>
      </trkpt>
      <trkpt lat="45.688200015574694" lon="17.690791944041848">
        <ele>221.3</ele>
        <time>2023-10-17T07:26:39.595Z</time>
      </trkpt>
      <trkpt lat="45.68820537999272" lon="17.690813401713967">
        <ele>221.25</ele>
        <time>2023-10-17T07:26:46.447Z</time>
      </trkpt>
      <trkpt lat="45.68821049295366" lon="17.69083511084318">
        <ele>221.21</ele>
        <time>2023-10-17T07:26:53.300Z</time>
      </trkpt>
      <trkpt lat="45.6882153544575" lon="17.69085698761046">
        <ele>221.17</ele>
        <time>2023-10-17T07:27:00.153Z</time>
      </trkpt>
      <trkpt lat="45.68822021596134" lon="17.690878864377737">
        <ele>221.13</ele>
        <time>2023-10-17T07:27:07.007Z</time>
      </trkpt>
      <trkpt lat="45.68822507746518" lon="17.690900741145015">
        <ele>221.08</ele>
        <time>2023-10-17T07:27:13.861Z</time>
      </trkpt>
      <trkpt lat="45.688229938969016" lon="17.69092245027423">
        <ele>221.04</ele>
        <time>2023-10-17T07:27:20.716Z</time>
      </trkpt>
      <trkpt lat="45.688234716653824" lon="17.69094407558441">
        <ele>220.99</ele>
        <time>2023-10-17T07:27:27.572Z</time>
      </trkpt>
      <trkpt lat="45.68823932670057" lon="17.690965197980404">
        <ele>220.95</ele>
        <time>2023-10-17T07:27:34.428Z</time>
      </trkpt>
      <trkpt lat="45.68824368529022" lon="17.690986152738333">
        <ele>220.9</ele>
        <time>2023-10-17T07:27:41.285Z</time>
      </trkpt>
      <trkpt lat="45.68824770860374" lon="17.691006772220135">
        <ele>220.85</ele>
        <time>2023-10-17T07:27:48.142Z</time>
      </trkpt>
      <trkpt lat="45.68825114518404" lon="17.691027224063873">
        <ele>220.8</ele>
        <time>2023-10-17T07:27:55.000Z</time>
      </trkpt>
      <trkpt lat="45.68825424648821" lon="17.69104759208858">
        <ele>220.75</ele>
        <time>2023-10-17T07:28:01.858Z</time>
      </trkpt>
      <trkpt lat="45.68825692869723" lon="17.69106812775135">
        <ele>220.69</ele>
        <time>2023-10-17T07:28:08.717Z</time>
      </trkpt>
      <trkpt lat="45.68825927563012" lon="17.69108866341412">
        <ele>220.63</ele>
        <time>2023-10-17T07:28:15.576Z</time>
      </trkpt>
      <trkpt lat="45.68826128728688" lon="17.69110919907689">
        <ele>220.57</ele>
        <time>2023-10-17T07:28:22.435Z</time>
      </trkpt>
      <trkpt lat="45.68826329894364" lon="17.691129818558693">
        <ele>220.51</ele>
        <time>2023-10-17T07:28:29.295Z</time>
      </trkpt>
      <trkpt lat="45.68826514296234" lon="17.691150438040495">
        <ele>220.44</ele>
        <time>2023-10-17T07:28:36.155Z</time>
      </trkpt>
      <trkpt lat="45.688266903162" lon="17.691171057522297">
        <ele>220.38</ele>
        <time>2023-10-17T07:28:43.016Z</time>
      </trkpt>
      <trkpt lat="45.68826866336167" lon="17.6911916770041">
        <ele>220.3</ele>
        <time>2023-10-17T07:28:49.877Z</time>
      </trkpt>
      <trkpt lat="45.688270507380366" lon="17.6912122964859">
        <ele>220.22</ele>
        <time>2023-10-17T07:28:56.739Z</time>
      </trkpt>
      <trkpt lat="45.68827251903713" lon="17.691232915967703">
        <ele>220.15</ele>
        <time>2023-10-17T07:29:03.601Z</time>
      </trkpt>
      <trkpt lat="45.688274782150984" lon="17.691253451630473">
        <ele>220.06</ele>
        <time>2023-10-17T07:29:10.464Z</time>
      </trkpt>
      <trkpt lat="45.688277296721935" lon="17.69127390347421">
        <ele>219.98</ele>
        <time>2023-10-17T07:29:17.327Z</time>
      </trkpt>
      <trkpt lat="45.68827989511192" lon="17.691294439136982">
        <ele>219.89</ele>
        <time>2023-10-17T07:29:24.191Z</time>
      </trkpt>
      <trkpt lat="45.6882824935019" lon="17.69131489098072">
        <ele>219.8</ele>
        <time>2023-10-17T07:29:31.055Z</time>
      </trkpt>
      <trkpt lat="45.68828500807285" lon="17.69133542664349">
        <ele>219.71</ele>
        <time>2023-10-17T07:29:37.920Z</time>
      </trkpt>
      <trkpt lat="45.68828727118671" lon="17.69135596230626">
        <ele>219.61</ele>
        <time>2023-10-17T07:29:44.785Z</time>
      </trkpt>
      <trkpt lat="45.68828928284347" lon="17.691376665607095">
        <ele>219.51</ele>
        <time>2023-10-17T07:29:51.651Z</time>
      </trkpt>
      <trkpt lat="45.68829112686217" lon="17.69139745272696">
        <ele>219.4</ele>
        <time>2023-10-17T07:29:58.517Z</time>
      </trkpt>
      <trkpt lat="45.68829271942377" lon="17.691418323665857">
        <ele>219.3</ele>
        <time>2023-10-17T07:30:05.384Z</time>
      </trkpt>
      <trkpt lat="45.68829422816634" lon="17.691439278423786">
        <ele>219.19</ele>
        <time>2023-10-17T07:30:12.251Z</time>
      </trkpt>
      <trkpt lat="45.68829573690891" lon="17.691460233181715">
        <ele>219.08</ele>
        <time>2023-10-17T07:30:19.119Z</time>
      </trkpt>
      <trkpt lat="45.68829741328955" lon="17.691481104120612">
        <ele>218.97</ele>
        <time>2023-10-17T07:30:25.987Z</time>
      </trkpt>
      <trkpt lat="45.68829908967018" lon="17.69150197505951">
        <ele>218.85</ele>
        <time>2023-10-17T07:30:32.856Z</time>
      </trkpt>
      <trkpt lat="45.68830110132694" lon="17.691522845998406">
        <ele>218.74</ele>
        <time>2023-10-17T07:30:39.725Z</time>
      </trkpt>
      <trkpt lat="45.68830328062177" lon="17.691543716937304">
        <ele>218.62</ele>
        <time>2023-10-17T07:30:46.595Z</time>
      </trkpt>
      <trkpt lat="45.68830571137369" lon="17.6915645878762">
        <ele>218.5</ele>
        <time>2023-10-17T07:30:53.465Z</time>
      </trkpt>
      <trkpt lat="45.6883083935827" lon="17.69158554263413">
        <ele>218.37</ele>
        <time>2023-10-17T07:31:00.336Z</time>
      </trkpt>
      <trkpt lat="45.68831132724881" lon="17.691606413573027">
        <ele>218.25</ele>
        <time>2023-10-17T07:31:07.207Z</time>
      </trkpt>
      <trkpt lat="45.68831459619105" lon="17.691627200692892">
        <ele>218.12</ele>
        <time>2023-10-17T07:31:14.079Z</time>
      </trkpt>
      <trkpt lat="45.688318284228444" lon="17.69164807163179">
        <ele>217.99</ele>
        <time>2023-10-17T07:31:20.951Z</time>
      </trkpt>
      <trkpt lat="45.688322223722935" lon="17.691669026389718">
        <ele>217.86</ele>
        <time>2023-10-17T07:31:27.824Z</time>
      </trkpt>
      <trkpt lat="45.68832633085549" lon="17.691689897328615">
        <ele>217.72</ele>
        <time>2023-10-17T07:31:34.697Z</time>
      </trkpt>
      <trkpt lat="45.68833043798804" lon="17.691710852086544">
        <ele>217.58</ele>
        <time>2023-10-17T07:31:41.571Z</time>
      </trkpt>
      <trkpt lat="45.688334461301565" lon="17.69173172302544">
        <ele>217.45</ele>
        <time>2023-10-17T07:31:48.445Z</time>
      </trkpt>
      <trkpt lat="45.688338316977024" lon="17.691752845421433">
        <ele>217.31</ele>
        <time>2023-10-17T07:31:55.320Z</time>
      </trkpt>
      <trkpt lat="45.68834200501442" lon="17.691773967817426">
        <ele>217.17</ele>
        <time>2023-10-17T07:32:02.195Z</time>
      </trkpt>
      <trkpt lat="45.688345693051815" lon="17.691795425489545">
        <ele>217.03</ele>
        <time>2023-10-17T07:32:09.071Z</time>
      </trkpt>
      <trkpt lat="45.68834938108921" lon="17.691817050799727">
        <ele>216.89</ele>
        <time>2023-10-17T07:32:15.947Z</time>
      </trkpt>
      <trkpt lat="45.68835323676467" lon="17.691838927567005">
        <ele>216.75</ele>
        <time>2023-10-17T07:32:22.824Z</time>
      </trkpt>
      <trkpt lat="45.68835709244013" lon="17.691861055791378">
        <ele>216.61</ele>
        <time>2023-10-17T07:32:29.701Z</time>
      </trkpt>
      <trkpt lat="45.68836111575365" lon="17.691883351653814">
        <ele>216.46</ele>
        <time>2023-10-17T07:32:36.579Z</time>
      </trkpt>
      <trkpt lat="45.68836505524814" lon="17.69190556369722">
        <ele>216.32</ele>
        <time>2023-10-17T07:32:43.457Z</time>
      </trkpt>
      <trkpt lat="45.68836924619973" lon="17.691927859559655">
        <ele>216.18</ele>
        <time>2023-10-17T07:32:50.336Z</time>
      </trkpt>
      <trkpt lat="45.688373520970345" lon="17.691950239241123">
        <ele>216.04</ele>
        <time>2023-10-17T07:32:57.216Z</time>
      </trkpt>
      <trkpt lat="45.68837804719806" lon="17.691972367465496">
        <ele>215.9</ele>
        <time>2023-10-17T07:33:04.096Z</time>
      </trkpt>
      <trkpt lat="45.6883829087019" lon="17.691994160413742">
        <ele>215.75</ele>
        <time>2023-10-17T07:33:10.977Z</time>
      </trkpt>
      <trkpt lat="45.68838810548186" lon="17.69201553426683">
        <ele>215.61</ele>
        <time>2023-10-17T07:33:17.858Z</time>
      </trkpt>
      <trkpt lat="45.68839346989989" lon="17.692036405205727">
        <ele>215.47</ele>
        <time>2023-10-17T07:33:24.740Z</time>
      </trkpt>
      <trkpt lat="45.68839925341308" lon="17.6920566894114">
        <ele>215.33</ele>
        <time>2023-10-17T07:33:31.622Z</time>
      </trkpt>
      <trkpt lat="45.68840520456433" lon="17.692076386883855">
        <ele>215.19</ele>
        <time>2023-10-17T07:33:38.505Z</time>
      </trkpt>
      <trkpt lat="45.68841140717268" lon="17.692095497623086">
        <ele>215.05</ele>
        <time>2023-10-17T07:33:45.388Z</time>
      </trkpt>
      <trkpt lat="45.68841811269522" lon="17.69211385399103">
        <ele>214.91</ele>
        <time>2023-10-17T07:33:52.272Z</time>
      </trkpt>
      <trkpt lat="45.68842523731291" lon="17.692131539806724">
        <ele>214.78</ele>
        <time>2023-10-17T07:33:59.156Z</time>
      </trkpt>
      <trkpt lat="45.68843294866383" lon="17.69214847125113">
        <ele>214.64</ele>
        <time>2023-10-17T07:34:06.041Z</time>
      </trkpt>
      <trkpt lat="45.68844124674797" lon="17.69216456450522">
        <ele>214.51</ele>
        <time>2023-10-17T07:34:12.926Z</time>
      </trkpt>
      <trkpt lat="45.68845013156533" lon="17.692179987207055">
        <ele>214.39</ele>
        <time>2023-10-17T07:34:19.812Z</time>
      </trkpt>
      <trkpt lat="45.688459519296885" lon="17.692194739356637">
        <ele>214.26</ele>
        <time>2023-10-17T07:34:26.698Z</time>
      </trkpt>
      <trkpt lat="45.68846957758069" lon="17.69220898859203">
        <ele>214.14</ele>
        <time>2023-10-17T07:34:33.584Z</time>
      </trkpt>
      <trkpt lat="45.68848022259772" lon="17.692222567275167">
        <ele>214.02</ele>
        <time>2023-10-17T07:34:40.471Z</time>
      </trkpt>
      <trkpt lat="45.688491370528936" lon="17.69223547540605">
        <ele>213.91</ele>
        <time>2023-10-17T07:34:47.358Z</time>
      </trkpt>
      <trkpt lat="45.68850293755531" lon="17.692247545346618">
        <ele>213.8</ele>
        <time>2023-10-17T07:34:54.246Z</time>
      </trkpt>
      <trkpt lat="45.68851500749588" lon="17.692258777096868">
        <ele>213.69</ele>
        <time>2023-10-17T07:35:01.134Z</time>
      </trkpt>
      <trkpt lat="45.68852724507451" lon="17.69226908683777">
        <ele>213.58</ele>
        <time>2023-10-17T07:35:08.023Z</time>
      </trkpt>
      <trkpt lat="45.68853981792927" lon="17.69227847456932">
        <ele>213.49</ele>
        <time>2023-10-17T07:35:14.912Z</time>
      </trkpt>
      <trkpt lat="45.688552390784025" lon="17.69228719174862">
        <ele>213.39</ele>
        <time>2023-10-17T07:35:21.802Z</time>
      </trkpt>
      <trkpt lat="45.688565131276846" lon="17.692295322194695">
        <ele>213.3</ele>
        <time>2023-10-17T07:35:28.692Z</time>
      </trkpt>
      <trkpt lat="45.6885779555887" lon="17.69230294972658">
        <ele>213.22</ele>
        <time>2023-10-17T07:35:35.583Z</time>
      </trkpt>
      <trkpt lat="45.688590947538614" lon="17.692309906706214">
        <ele>213.13</ele>
        <time>2023-10-17T07:35:42.474Z</time>
      </trkpt>
      <trkpt lat="45.68860402330756" lon="17.692316193133593">
        <ele>213.06</ele>
        <time>2023-10-17T07:35:49.366Z</time>
      </trkpt>
      <trkpt lat="45.68861726671457" lon="17.692321809008718">
        <ele>212.99</ele>
        <time>2023-10-17T07:35:56.258Z</time>
      </trkpt>
      <trkpt lat="45.688630593940616" lon="17.69232675433159">
        <ele>212.92</ele>
        <time>2023-10-17T07:36:03.151Z</time>
      </trkpt>
      <trkpt lat="45.68864400498569" lon="17.69233119674027">
        <ele>212.86</ele>
        <time>2023-10-17T07:36:10.044Z</time>
      </trkpt>
      <trkpt lat="45.688657499849796" lon="17.69233513623476">
        <ele>212.8</ele>
        <time>2023-10-17T07:36:16.937Z</time>
      </trkpt>
      <trkpt lat="45.688671078532934" lon="17.692338740453124">
        <ele>212.75</ele>
        <time>2023-10-17T07:36:23.831Z</time>
      </trkpt>
      <trkpt lat="45.6886849924922" lon="17.692341841757298">
        <ele>212.71</ele>
        <time>2023-10-17T07:36:30.725Z</time>
      </trkpt>
      <trkpt lat="45.688698990270495" lon="17.692344523966312">
        <ele>212.67</ele>
        <time>2023-10-17T07:36:37.620Z</time>
      </trkpt>
      <trkpt lat="45.68871323950589" lon="17.692346619442105">
        <ele>212.63</ele>
        <time>2023-10-17T07:36:44.515Z</time>
      </trkpt>
      <trkpt lat="45.68872765637934" lon="17.69234829582274">
        <ele>212.61</ele>
        <time>2023-10-17T07:36:51.411Z</time>
      </trkpt>
      <trkpt lat="45.68874224089086" lon="17.692349636927247">
        <ele>212.58</ele>
        <time>2023-10-17T07:36:58.307Z</time>
      </trkpt>
      <trkpt lat="45.68875682540238" lon="17.692350558936596">
        <ele>212.56</ele>
        <time>2023-10-17T07:37:05.204Z</time>
      </trkpt>
      <trkpt lat="45.68877157755196" lon="17.69235122948885">
        <ele>212.54</ele>
        <time>2023-10-17T07:37:12.101Z</time>
      </trkpt>
      <trkpt lat="45.68878632970154" lon="17.69235181622207">
        <ele>212.53</ele>
        <time>2023-10-17T07:37:18.999Z</time>
      </trkpt>
      <trkpt lat="45.68880124948919" lon="17.6923521514982">
        <ele>212.53</ele>
        <time>2023-10-17T07:37:25.897Z</time>
      </trkpt>
      <trkpt lat="45.68881616927683" lon="17.692352486774325">
        <ele>212.52</ele>
        <time>2023-10-17T07:37:32.796Z</time>
      </trkpt>
      <trkpt lat="45.68883125670254" lon="17.692352822050452">
        <ele>212.52</ele>
        <time>2023-10-17T07:37:39.695Z</time>
      </trkpt>
      <trkpt lat="45.68884626030922" lon="17.69235315732658">
        <ele>212.53</ele>
        <time>2023-10-17T07:37:46.595Z</time>
      </trkpt>
      <trkpt lat="45.688861180096865" lon="17.69235366024077">
        <ele>212.54</ele>
        <time>2023-10-17T07:37:53.495Z</time>
      </trkpt>
      <trkpt lat="45.68887618370354" lon="17.692354330793023">
        <ele>212.56</ele>
        <time>2023-10-17T07:38:00.396Z</time>
      </trkpt>
      <trkpt lat="45.68889127112925" lon="17.69235516898334">
        <ele>212.58</ele>
        <time>2023-10-17T07:38:07.297Z</time>
      </trkpt>
      <trkpt lat="45.68890627473593" lon="17.692356258630753">
        <ele>212.6</ele>
        <time>2023-10-17T07:38:14.199Z</time>
      </trkpt>
      <trkpt lat="45.688921362161636" lon="17.69235751591623">
        <ele>212.63</ele>
        <time>2023-10-17T07:38:21.101Z</time>
      </trkpt>
      <trkpt lat="45.68893636576831" lon="17.6923590246588">
        <ele>212.66</ele>
        <time>2023-10-17T07:38:28.004Z</time>
      </trkpt>
      <trkpt lat="45.68895145319402" lon="17.692360784858465">
        <ele>212.7</ele>
        <time>2023-10-17T07:38:34.907Z</time>
      </trkpt>
      <trkpt lat="45.68896637298167" lon="17.692362880334258">
        <ele>212.73</ele>
        <time>2023-10-17T07:38:41.811Z</time>
      </trkpt>
      <trkpt lat="45.688981376588345" lon="17.692365227267146">
        <ele>212.78</ele>
        <time>2023-10-17T07:38:48.715Z</time>
      </trkpt>
      <trkpt lat="45.68899638019502" lon="17.692368077114224">
        <ele>212.82</ele>
        <time>2023-10-17T07:38:55.620Z</time>
      </trkpt>
      <trkpt lat="45.68901129998267" lon="17.69237126223743">
        <ele>212.87</ele>
        <time>2023-10-17T07:39:02.525Z</time>
      </trkpt>
      <trkpt lat="45.68902621977031" lon="17.692374866455793">
        <ele>212.92</ele>
        <time>2023-10-17T07:39:09.431Z</time>
      </trkpt>
      <trkpt lat="45.689041055738926" lon="17.69237905740738">
        <ele>212.98</ele>
        <time>2023-10-17T07:39:16.337Z</time>
      </trkpt>
      <trkpt lat="45.68905589170754" lon="17.692383835092187">
        <ele>213.03</ele>
        <time>2023-10-17T07:39:23.244Z</time>
      </trkpt>
      <trkpt lat="45.68907056003809" lon="17.692389031872153">
        <ele>213.09</ele>
        <time>2023-10-17T07:39:30.151Z</time>
      </trkpt>
      <trkpt lat="45.68908514454961" lon="17.69239481538534">
        <ele>213.15</ele>
        <time>2023-10-17T07:39:37.059Z</time>
      </trkpt>
      <trkpt lat="45.68909956142306" lon="17.69240110181272">
        <ele>213.21</ele>
        <time>2023-10-17T07:39:43.967Z</time>
      </trkpt>
      <trkpt lat="45.689113810658455" lon="17.69240789115429">
        <ele>213.27</ele>
        <time>2023-10-17T07:39:50.876Z</time>
      </trkpt>
      <trkpt lat="45.68912772461772" lon="17.69241518341005">
        <ele>213.34</ele>
        <time>2023-10-17T07:39:57.785Z</time>
      </trkpt>
      <trkpt lat="45.68914130330086" lon="17.69242306239903">
        <ele>213.41</ele>
        <time>2023-10-17T07:40:04.695Z</time>
      </trkpt>
      <trkpt lat="45.68915454670787" lon="17.6924314443022">
        <ele>213.48</ele>
        <time>2023-10-17T07:40:11.605Z</time>
      </trkpt>
      <trkpt lat="45.68916728720069" lon="17.692440412938595">
        <ele>213.55</ele>
        <time>2023-10-17T07:40:18.516Z</time>
      </trkpt>
      <trkpt lat="45.68917969241738" lon="17.69244988448918">
        <ele>213.63</ele>
        <time>2023-10-17T07:40:25.427Z</time>
      </trkpt>
      <trkpt lat="45.68919159471989" lon="17.69245977513492">
        <ele>213.7</ele>
        <time>2023-10-17T07:40:32.339Z</time>
      </trkpt>
      <trkpt lat="45.68920316174626" lon="17.692470252513885">
        <ele>213.78</ele>
        <time>2023-10-17T07:40:39.251Z</time>
      </trkpt>
      <trkpt lat="45.68921439349651" lon="17.69248114898801">
        <ele>213.85</ele>
        <time>2023-10-17T07:40:46.164Z</time>
      </trkpt>
      <trkpt lat="45.68922537378967" lon="17.692492799833417">
        <ele>213.93</ele>
        <time>2023-10-17T07:40:53.077Z</time>
      </trkpt>
      <trkpt lat="45.68923618644476" lon="17.69250520505011">
        <ele>214.01</ele>
        <time>2023-10-17T07:40:59.991Z</time>
      </trkpt>
      <trkpt lat="45.689246747642756" lon="17.69251828081906">
        <ele>214.08</ele>
        <time>2023-10-17T07:41:06.905Z</time>
      </trkpt>
      <trkpt lat="45.68925714120269" lon="17.692532194778323">
        <ele>214.16</ele>
        <time>2023-10-17T07:41:13.819Z</time>
      </trkpt>
      <trkpt lat="45.68926745094359" lon="17.692546863108873">
        <ele>214.24</ele>
        <time>2023-10-17T07:41:20.734Z</time>
      </trkpt>
      <trkpt lat="45.689277509227395" lon="17.692562118172646">
        <ele>214.31</ele>
        <time>2023-10-17T07:41:27.649Z</time>
      </trkpt>
      <trkpt lat="45.68928739987314" lon="17.69257804378867">
        <ele>214.38</ele>
        <time>2023-10-17T07:41:34.565Z</time>
      </trkpt>
      <trkpt lat="45.68929712288082" lon="17.69259455613792">
        <ele>214.45</ele>
        <time>2023-10-17T07:41:41.481Z</time>
      </trkpt>
      <trkpt lat="45.68930651061237" lon="17.69261173903942">
        <ele>214.52</ele>
        <time>2023-10-17T07:41:48.398Z</time>
      </trkpt>
      <trkpt lat="45.689315563067794" lon="17.692629424855113">
        <ele>214.58</ele>
        <time>2023-10-17T07:41:55.315Z</time>
      </trkpt>
      <trkpt lat="45.68932411260903" lon="17.692647697404027">
        <ele>214.64</ele>
        <time>2023-10-17T07:42:02.233Z</time>
      </trkpt>
      <trkpt lat="45.68933215923607" lon="17.692666556686163">
        <ele>214.7</ele>
        <time>2023-10-17T07:42:09.152Z</time>
      </trkpt>
      <trkpt lat="45.689339619129896" lon="17.69268591888249">
        <ele>214.75</ele>
        <time>2023-10-17T07:42:16.071Z</time>
      </trkpt>
      <trkpt lat="45.6893464922905" lon="17.692705700173974">
        <ele>214.8</ele>
        <time>2023-10-17T07:42:22.991Z</time>
      </trkpt>
      <trkpt lat="45.68935294635594" lon="17.692725732922554">
        <ele>214.85</ele>
        <time>2023-10-17T07:42:29.911Z</time>
      </trkpt>
      <trkpt lat="45.68935889750719" lon="17.692745933309197">
        <ele>214.89</ele>
        <time>2023-10-17T07:42:36.832Z</time>
      </trkpt>
      <trkpt lat="45.689364513382316" lon="17.692766385152936">
        <ele>214.93</ele>
        <time>2023-10-17T07:42:43.753Z</time>
      </trkpt>
      <trkpt lat="45.689369877800345" lon="17.692787004634738">
        <ele>214.96</ele>
        <time>2023-10-17T07:42:50.675Z</time>
      </trkpt>
      <trkpt lat="45.68937515839934" lon="17.692807791754603">
        <ele>214.98</ele>
        <time>2023-10-17T07:42:57.597Z</time>
      </trkpt>
      <trkpt lat="45.68938027136028" lon="17.6928286626935">
        <ele>215.0</ele>
        <time>2023-10-17T07:43:04.520Z</time>
      </trkpt>
      <trkpt lat="45.68938538432121" lon="17.69284961745143">
        <ele>215.01</ele>
        <time>2023-10-17T07:43:11.443Z</time>
      </trkpt>
      <trkpt lat="45.68939066492021" lon="17.692870488390326">
        <ele>215.01</ele>
        <time>2023-10-17T07:43:18.367Z</time>
      </trkpt>
      <trkpt lat="45.689396196976304" lon="17.69289119169116">
        <ele>215.0</ele>
        <time>2023-10-17T07:43:25.291Z</time>
      </trkpt>
      <trkpt lat="45.68940181285143" lon="17.6929116435349">
        <ele>214.99</ele>
        <time>2023-10-17T07:43:32.216Z</time>
      </trkpt>
      <trkpt lat="45.68940776400268" lon="17.692931843921542">
        <ele>214.97</ele>
        <time>2023-10-17T07:43:39.141Z</time>
      </trkpt>
      <trkpt lat="45.689413882791996" lon="17.69295170903206">
        <ele>214.94</ele>
        <time>2023-10-17T07:43:46.067Z</time>
      </trkpt>
      <trkpt lat="45.68942000158131" lon="17.69297132268548">
        <ele>214.91</ele>
        <time>2023-10-17T07:43:52.993Z</time>
      </trkpt>
      <trkpt lat="45.68942620418966" lon="17.692990601062775">
        <ele>214.87</ele>
        <time>2023-10-17T07:43:59.920Z</time>
      </trkpt>
      <trkpt lat="45.689432406798005" lon="17.693009627982974">
        <ele>214.82</ele>
        <time>2023-10-17T07:44:06.847Z</time>
      </trkpt>
      <trkpt lat="45.68943852558732" lon="17.693028319627047">
        <ele>214.76</ele>
        <time>2023-10-17T07:44:13.775Z</time>
      </trkpt>
      <trkpt lat="45.68944447673857" lon="17.693046675994992">
        <ele>214.7</ele>
        <time>2023-10-17T07:44:20.703Z</time>
      </trkpt>
      <trkpt lat="45.68945034407079" lon="17.69306469708681">
        <ele>214.62</ele>
        <time>2023-10-17T07:44:27.632Z</time>
      </trkpt>
      <trkpt lat="45.68945604376495" lon="17.693082466721535">
        <ele>214.54</ele>
        <time>2023-10-17T07:44:34.561Z</time>
      </trkpt>
      <trkpt lat="45.68946140818298" lon="17.693100068718195">
        <ele>214.46</ele>
        <time>2023-10-17T07:44:41.491Z</time>
      </trkpt>
      <trkpt lat="45.68946652114391" lon="17.693117586895823">
        <ele>214.36</ele>
        <time>2023-10-17T07:44:48.421Z</time>
      </trkpt>
      <trkpt lat="45.68947129882872" lon="17.69313502125442">
        <ele>214.25</ele>
        <time>2023-10-17T07:44:55.351Z</time>
      </trkpt>
      <trkpt lat="45.689475825056434" lon="17.693152287974954">
        <ele>214.13</ele>
        <time>2023-10-17T07:45:02.282Z</time>
      </trkpt>
      <trkpt lat="45.689480267465115" lon="17.693169554695487">
        <ele>214.01</ele>
        <time>2023-10-17T07:45:09.213Z</time>
      </trkpt>
      <trkpt lat="45.68948454223573" lon="17.693186653777957">
        <ele>213.88</ele>
        <time>2023-10-17T07:45:16.145Z</time>
      </trkpt>
      <trkpt lat="45.68948873318732" lon="17.693203669041395">
        <ele>213.74</ele>
        <time>2023-10-17T07:45:23.077Z</time>
      </trkpt>
      <trkpt lat="45.689492924138904" lon="17.69322051666677">
        <ele>213.59</ele>
        <time>2023-10-17T07:45:30.010Z</time>
      </trkpt>
      <trkpt lat="45.689496947452426" lon="17.693237448111176">
        <ele>213.44</ele>
        <time>2023-10-17T07:45:36.943Z</time>
      </trkpt>
      <trkpt lat="45.68950105458498" lon="17.69325429573655">
        <ele>213.28</ele>
        <time>2023-10-17T07:45:43.876Z</time>
      </trkpt>
      <trkpt lat="45.6895050778985" lon="17.69327139481902">
        <ele>213.11</ele>
        <time>2023-10-17T07:45:50.810Z</time>
      </trkpt>
      <trkpt lat="45.68950926885009" lon="17.693288577720523">
        <ele>212.93</ele>
        <time>2023-10-17T07:45:57.744Z</time>
      </trkpt>
      <trkpt lat="45.689513543620706" lon="17.693305844441056">
        <ele>212.75</ele>
        <time>2023-10-17T07:46:04.679Z</time>
      </trkpt>
      <trkpt lat="45.689517902210355" lon="17.693323278799653">
        <ele>212.56</ele>
        <time>2023-10-17T07:46:11.614Z</time>
      </trkpt>
      <trkpt lat="45.689522344619036" lon="17.693340964615345">
        <ele>212.37</ele>
        <time>2023-10-17T07:46:18.550Z</time>
      </trkpt>
      <trkpt lat="45.689526703208685" lon="17.693358985707164">
        <ele>212.17</ele>
        <time>2023-10-17T07:46:25.486Z</time>
      </trkpt>
      <trkpt lat="45.689531061798334" lon="17.693377258256078">
        <ele>211.96</ele>
        <time>2023-10-17T07:46:32.422Z</time>
      </trkpt>
      <trkpt lat="45.68953525274992" lon="17.693396201357245">
        <ele>211.75</ele>
        <time>2023-10-17T07:46:39.359Z</time>
      </trkpt>
      <trkpt lat="45.689539359882474" lon="17.693415647372603">
        <ele>211.53</ele>
        <time>2023-10-17T07:46:46.296Z</time>
      </trkpt>
      <trkpt lat="45.68954321555793" lon="17.69343551248312">
        <ele>211.31</ele>
        <time>2023-10-17T07:46:53.234Z</time>
      </trkpt>
      <trkpt lat="45.68954698741436" lon="17.693455712869763">
        <ele>211.08</ele>
        <time>2023-10-17T07:47:00.172Z</time>
      </trkpt>
      <trkpt lat="45.68955042399466" lon="17.693476164713502">
        <ele>210.85</ele>
        <time>2023-10-17T07:47:07.111Z</time>
      </trkpt>
      <trkpt lat="45.6895536929369" lon="17.69349661655724">
        <ele>210.62</ele>
        <time>2023-10-17T07:47:14.050Z</time>
      </trkpt>
      <trkpt lat="45.68955671042204" lon="17.693517319858074">
        <ele>210.38</ele>
        <time>2023-10-17T07:47:20.990Z</time>
      </trkpt>
      <trkpt lat="45.689559392631054" lon="17.69353810697794">
        <ele>210.14</ele>
        <time>2023-10-17T07:47:27.930Z</time>
      </trkpt>
      <trkpt lat="45.689561823382974" lon="17.693558894097805">
        <ele>209.89</ele>
        <time>2023-10-17T07:47:34.871Z</time>
      </trkpt>
      <trkpt lat="45.68956391885877" lon="17.693579765036702">
        <ele>209.65</ele>
        <time>2023-10-17T07:47:41.812Z</time>
      </trkpt>
      <trkpt lat="45.689565762877464" lon="17.693600552156568">
        <ele>209.4</ele>
        <time>2023-10-17T07:47:48.754Z</time>
      </trkpt>
      <trkpt lat="45.6895674392581" lon="17.69362117163837">
        <ele>209.15</ele>
        <time>2023-10-17T07:47:55.696Z</time>
      </trkpt>
      <trkpt lat="45.68956894800067" lon="17.693641623482108">
        <ele>208.9</ele>
        <time>2023-10-17T07:48:02.639Z</time>
      </trkpt>
      <trkpt lat="45.68957054056227" lon="17.69366174004972">
        <ele>208.65</ele>
        <time>2023-10-17T07:48:09.582Z</time>
      </trkpt>
      <trkpt lat="45.689572133123875" lon="17.693681605160236">
        <ele>208.4</ele>
        <time>2023-10-17T07:48:16.526Z</time>
      </trkpt>
      <trkpt lat="45.68957372568548" lon="17.693701218813658">
        <ele>208.15</ele>
        <time>2023-10-17T07:48:23.470Z</time>
      </trkpt>
      <trkpt lat="45.68957540206611" lon="17.693720581009984">
        <ele>207.9</ele>
        <time>2023-10-17T07:48:30.415Z</time>
      </trkpt>
      <trkpt lat="45.689576994627714" lon="17.693739607930183">
        <ele>207.65</ele>
        <time>2023-10-17T07:48:37.360Z</time>
      </trkpt>
      <trkpt lat="45.68957867100835" lon="17.69375846721232">
        <ele>207.4</ele>
        <time>2023-10-17T07:48:44.305Z</time>
      </trkpt>
      <trkpt lat="45.689580515027046" lon="17.693777158856392">
        <ele>207.15</ele>
        <time>2023-10-17T07:48:51.251Z</time>
      </trkpt>
      <trkpt lat="45.689582442864776" lon="17.6937956828624">
        <ele>206.9</ele>
        <time>2023-10-17T07:48:58.197Z</time>
      </trkpt>
      <trkpt lat="45.6895846221596" lon="17.69381412304938">
        <ele>206.65</ele>
        <time>2023-10-17T07:49:05.144Z</time>
      </trkpt>
      <trkpt lat="45.68958696909249" lon="17.69383231177926">
        <ele>206.41</ele>
        <time>2023-10-17T07:49:12.091Z</time>
      </trkpt>
      <trkpt lat="45.68958939984441" lon="17.69385033287108">
        <ele>206.16</ele>
        <time>2023-10-17T07:49:19.039Z</time>
      </trkpt>
      <trkpt lat="45.68959191441536" lon="17.693868102505803">
        <ele>205.92</ele>
        <time>2023-10-17T07:49:25.987Z</time>
      </trkpt>
      <trkpt lat="45.689594596624374" lon="17.693885872140527">
        <ele>205.68</ele>
        <time>2023-10-17T07:49:32.936Z</time>
      </trkpt>
      <trkpt lat="45.68959719501436" lon="17.693903474137187">
        <ele>205.44</ele>
        <time>2023-10-17T07:49:39.885Z</time>
      </trkpt>
      <trkpt lat="45.68959979340434" lon="17.69392115995288">
        <ele>205.2</ele>
        <time>2023-10-17T07:49:46.834Z</time>
      </trkpt>
      <trkpt lat="45.689602391794324" lon="17.69393884576857">
        <ele>204.97</ele>
        <time>2023-10-17T07:49:53.784Z</time>
      </trkpt>
      <trkpt lat="45.689604906365275" lon="17.693956615403295">
        <ele>204.74</ele>
        <time>2023-10-17T07:50:00.734Z</time>
      </trkpt>
      <trkpt lat="45.68960725329816" lon="17.693974636495113">
        <ele>204.52</ele>
        <time>2023-10-17T07:50:07.685Z</time>
      </trkpt>
      <trkpt lat="45.68960943259299" lon="17.693992741405964">
        <ele>204.3</ele>
        <time>2023-10-17T07:50:14.636Z</time>
      </trkpt>
      <trkpt lat="45.68961144424975" lon="17.694010846316814">
        <ele>204.08</ele>
        <time>2023-10-17T07:50:21.587Z</time>
      </trkpt>
      <trkpt lat="45.68961328826845" lon="17.69402920268476">
        <ele>203.87</ele>
        <time>2023-10-17T07:50:28.539Z</time>
      </trkpt>
      <trkpt lat="45.68961488083005" lon="17.694047559052706">
        <ele>203.66</ele>
        <time>2023-10-17T07:50:35.491Z</time>
      </trkpt>
      <trkpt lat="45.68961622193456" lon="17.69406583160162">
        <ele>203.45</ele>
        <time>2023-10-17T07:50:42.444Z</time>
      </trkpt>
      <trkpt lat="45.68961722776294" lon="17.694084020331502">
        <ele>203.25</ele>
        <time>2023-10-17T07:50:49.397Z</time>
      </trkpt>
      <trkpt lat="45.68961789831519" lon="17.694102125242352">
        <ele>203.05</ele>
        <time>2023-10-17T07:50:56.351Z</time>
      </trkpt>
      <trkpt lat="45.68961823359132" lon="17.694119811058044">
        <ele>202.85</ele>
        <time>2023-10-17T07:51:03.305Z</time>
      </trkpt>
      <trkpt lat="45.68961823359132" lon="17.694136993959546">
        <ele>202.66</ele>
        <time>2023-10-17T07:51:10.259Z</time>
      </trkpt>
      <trkpt lat="45.689618065953255" lon="17.694153590127826">
        <ele>202.47</ele>
        <time>2023-10-17T07:51:17.214Z</time>
      </trkpt>
      <trkpt lat="45.689617646858096" lon="17.69416951574385">
        <ele>202.28</ele>
        <time>2023-10-17T07:51:24.169Z</time>
      </trkpt>
      <trkpt lat="45.689617143943906" lon="17.694184770807624">
        <ele>202.1</ele>
        <time>2023-10-17T07:51:31.125Z</time>
      </trkpt>
      <trkpt lat="45.68961672484875" lon="17.694199522957206">
        <ele>201.92</ele>
        <time>2023-10-17T07:51:38.081Z</time>
      </trkpt>
      <trkpt lat="45.68961622193456" lon="17.69421393983066">
        <ele>201.75</ele>
        <time>2023-10-17T07:51:45.037Z</time>
      </trkpt>
      <trkpt lat="45.6896158028394" lon="17.694228272885084">
        <ele>201.58</ele>
        <time>2023-10-17T07:51:51.994Z</time>
      </trkpt>
      <trkpt lat="45.68961546756327" lon="17.69424277357757">
        <ele>201.42</ele>
        <time>2023-10-17T07:51:58.951Z</time>
      </trkpt>
      <trkpt lat="45.689615216106176" lon="17.69425744190812">
        <ele>201.25</ele>
        <time>2023-10-17T07:52:05.908Z</time>
      </trkpt>
      <trkpt lat="45.68961504846811" lon="17.694272445514798">
        <ele>201.1</ele>
        <time>2023-10-17T07:52:12.866Z</time>
      </trkpt>
      <trkpt lat="45.68961504846811" lon="17.694288035854697">
        <ele>200.94</ele>
        <time>2023-10-17T07:52:19.824Z</time>
      </trkpt>
      <trkpt lat="45.68961529992521" lon="17.694304045289755">
        <ele>200.79</ele>
        <time>2023-10-17T07:52:26.782Z</time>
      </trkpt>
      <trkpt lat="45.68961546756327" lon="17.694320725277066">
        <ele>200.64</ele>
        <time>2023-10-17T07:52:33.741Z</time>
      </trkpt>
      <trkpt lat="45.689615635201335" lon="17.694337908178568">
        <ele>200.5</ele>
        <time>2023-10-17T07:52:40.700Z</time>
      </trkpt>
      <trkpt lat="45.6896155513823" lon="17.69435559399426">
        <ele>200.36</ele>
        <time>2023-10-17T07:52:47.660Z</time>
      </trkpt>
      <trkpt lat="45.68961538374424" lon="17.69437369890511">
        <ele>200.23</ele>
        <time>2023-10-17T07:52:54.620Z</time>
      </trkpt>
      <trkpt lat="45.689615132287145" lon="17.69439222291112">
        <ele>200.1</ele>
        <time>2023-10-17T07:53:01.580Z</time>
      </trkpt>
      <trkpt lat="45.689614713191986" lon="17.694410914555192">
        <ele>199.97</ele>
        <time>2023-10-17T07:53:08.541Z</time>
      </trkpt>
      <trkpt lat="45.68961429409683" lon="17.694429606199265">
        <ele>199.84</ele>
        <time>2023-10-17T07:53:15.502Z</time>
      </trkpt>
      <trkpt lat="45.68961387500167" lon="17.694448130205274">
        <ele>199.72</ele>
        <time>2023-10-17T07:53:22.464Z</time>
      </trkpt>
      <trkpt lat="45.68961337208748" lon="17.694466235116124">
        <ele>199.6</ele>
        <time>2023-10-17T07:53:29.426Z</time>
      </trkpt>
      <trkpt lat="45.68961286917329" lon="17.694483753293753">
        <ele>199.49</ele>
        <time>2023-10-17T07:53:36.389Z</time>
      </trkpt>
      <trkpt lat="45.68961245007813" lon="17.694500433281064">
        <ele>199.38</ele>
        <time>2023-10-17T07:53:43.352Z</time>
      </trkpt>
      <trkpt lat="45.689612198621035" lon="17.694516107439995">
        <ele>199.27</ele>
        <time>2023-10-17T07:53:50.315Z</time>
      </trkpt>
      <trkpt lat="45.689612114802" lon="17.694530440494418">
        <ele>199.16</ele>
        <time>2023-10-17T07:53:57.279Z</time>
      </trkpt>
      <trkpt lat="45.68961245007813" lon="17.694543516263366">
        <ele>199.06</ele>
        <time>2023-10-17T07:54:04.243Z</time>
      </trkpt>
      <trkpt lat="45.68961303681135" lon="17.6945555023849">
        <ele>198.96</ele>
        <time>2023-10-17T07:54:11.207Z</time>
      </trkpt>
      <trkpt lat="45.689614126458764" lon="17.694566566497087">
        <ele>198.86</ele>
        <time>2023-10-17T07:54:18.171Z</time>
      </trkpt>
      <trkpt lat="45.68961546756327" lon="17.694576792418957">
        <ele>198.76</ele>
        <time>2023-10-17T07:54:25.136Z</time>
      </trkpt>
      <trkpt lat="45.689617060124874" lon="17.69458676688373">
        <ele>198.66</ele>
        <time>2023-10-17T07:54:32.101Z</time>
      </trkpt>
      <trkpt lat="45.689618987962604" lon="17.694596657529473">
        <ele>198.57</ele>
        <time>2023-10-17T07:54:39.066Z</time>
      </trkpt>
      <trkpt lat="45.68962116725743" lon="17.69460679963231">
        <ele>198.48</ele>
        <time>2023-10-17T07:54:46.031Z</time>
      </trkpt>
      <trkpt lat="45.689623514190316" lon="17.69461744464934">
        <ele>198.39</ele>
        <time>2023-10-17T07:54:52.997Z</time>
      </trkpt>
      <trkpt lat="45.68962619639933" lon="17.694628927856684">
        <ele>198.3</ele>
        <time>2023-10-17T07:54:59.963Z</time>
      </trkpt>
      <trkpt lat="45.68962913006544" lon="17.69464141689241">
        <ele>198.21</ele>
        <time>2023-10-17T07:55:06.929Z</time>
      </trkpt>
      <trkpt lat="45.68963239900768" lon="17.694655498489738">
        <ele>198.13</ele>
        <time>2023-10-17T07:55:13.896Z</time>
      </trkpt>
      <trkpt lat="45.689635667949915" lon="17.69467075355351">
        <ele>198.05</ele>
        <time>2023-10-17T07:55:20.863Z</time>
      </trkpt>
      <trkpt lat="45.68963918834925" lon="17.694687014445662">
        <ele>197.96</ele>
        <time>2023-10-17T07:55:27.830Z</time>
      </trkpt>
      <trkpt lat="45.68964270874858" lon="17.694704113528132">
        <ele>197.88</ele>
        <time>2023-10-17T07:55:34.798Z</time>
      </trkpt>
      <trkpt lat="45.68964631296694" lon="17.694721966981888">
        <ele>197.8</ele>
        <time>2023-10-17T07:55:41.766Z</time>
      </trkpt>
      <trkpt lat="45.68965000100434" lon="17.694739904254675">
        <ele>197.72</ele>
        <time>2023-10-17T07:55:48.735Z</time>
      </trkpt>
      <trkpt lat="45.6896538566798" lon="17.69475826062262">
        <ele>197.64</ele>
        <time>2023-10-17T07:55:55.704Z</time>
      </trkpt>
      <trkpt lat="45.68965796381235" lon="17.694776533171535">
        <ele>197.56</ele>
        <time>2023-10-17T07:56:02.674Z</time>
      </trkpt>
      <trkpt lat="45.68966223858297" lon="17.69479480572045">
        <ele>197.49</ele>
        <time>2023-10-17T07:56:09.644Z</time>
      </trkpt>
      <trkpt lat="45.689666932448745" lon="17.694812742993236">
        <ele>197.41</ele>
        <time>2023-10-17T07:56:16.615Z</time>
      </trkpt>
      <trkpt lat="45.689671793952584" lon="17.69483059644699">
        <ele>197.33</ele>
        <time>2023-10-17T07:56:23.586Z</time>
      </trkpt>
      <trkpt lat="45.68967699073255" lon="17.694847946986556">
        <ele>197.25</ele>
        <time>2023-10-17T07:56:30.557Z</time>
      </trkpt>
      <trkpt lat="45.68968235515058" lon="17.694865046069026">
        <ele>197.17</ele>
        <time>2023-10-17T07:56:37.529Z</time>
      </trkpt>
      <trkpt lat="45.68968771956861" lon="17.694881642237306">
        <ele>197.1</ele>
        <time>2023-10-17T07:56:44.501Z</time>
      </trkpt>
      <trkpt lat="45.68969316780567" lon="17.694897651672363">
        <ele>197.02</ele>
        <time>2023-10-17T07:56:51.474Z</time>
      </trkpt>
      <trkpt lat="45.68969836458564" lon="17.69491257146001">
        <ele>196.94</ele>
        <time>2023-10-17T07:56:58.447Z</time>
      </trkpt>
      <trkpt lat="45.68970339372754" lon="17.694926569238305">
        <ele>196.86</ele>
        <time>2023-10-17T07:57:05.420Z</time>
      </trkpt>
      <trkpt lat="45.68970808759332" lon="17.694939393550158">
        <ele>196.78</ele>
        <time>2023-10-17T07:57:12.394Z</time>
      </trkpt>
      <trkpt lat="45.689712446182966" lon="17.694950960576534">
        <ele>196.7</ele>
        <time>2023-10-17T07:57:19.368Z</time>
      </trkpt>
      <trkpt lat="45.68971646949649" lon="17.694961102679372">
        <ele>196.63</ele>
        <time>2023-10-17T07:57:26.342Z</time>
      </trkpt>
      <trkpt lat="45.689720157533884" lon="17.69497023895383">
        <ele>196.55</ele>
        <time>2023-10-17T07:57:33.317Z</time>
      </trkpt>
      <trkpt lat="45.68972342647612" lon="17.694978704676032">
        <ele>196.47</ele>
        <time>2023-10-17T07:57:40.292Z</time>
      </trkpt>
      <trkpt lat="45.68972644396126" lon="17.694986751303077">
        <ele>196.39</ele>
        <time>2023-10-17T07:57:47.267Z</time>
      </trkpt>
      <trkpt lat="45.68972929380834" lon="17.694994630292058">
        <ele>196.3</ele>
        <time>2023-10-17T07:57:54.242Z</time>
      </trkpt>
      <trkpt lat="45.689732395112514" lon="17.69500301219523">
        <ele>196.22</ele>
        <time>2023-10-17T07:58:01.217Z</time>
      </trkpt>
      <trkpt lat="45.68973549641669" lon="17.695011729374528">
        <ele>196.14</ele>
        <time>2023-10-17T07:58:08.193Z</time>
      </trkpt>
      <trkpt lat="45.68973901681602" lon="17.69502153620124">
        <ele>196.06</ele>
        <time>2023-10-17T07:58:15.169Z</time>
      </trkpt>
      <trkpt lat="45.68974295631051" lon="17.695032181218266">
        <ele>195.97</ele>
        <time>2023-10-17T07:58:22.145Z</time>
      </trkpt>
      <trkpt lat="45.68974748253822" lon="17.69504399970174">
        <ele>195.88</ele>
        <time>2023-10-17T07:58:29.122Z</time>
      </trkpt>
      <trkpt lat="45.68975226022303" lon="17.695057159289718">
        <ele>195.79</ele>
        <time>2023-10-17T07:58:36.099Z</time>
      </trkpt>
      <trkpt lat="45.68975754082203" lon="17.695071576163173">
        <ele>195.7</ele>
        <time>2023-10-17T07:58:43.076Z</time>
      </trkpt>
      <trkpt lat="45.689763156697154" lon="17.695087250322104">
        <ele>195.61</ele>
        <time>2023-10-17T07:58:50.054Z</time>
      </trkpt>
      <trkpt lat="45.689769024029374" lon="17.695103846490383">
        <ele>195.52</ele>
        <time>2023-10-17T07:58:57.032Z</time>
      </trkpt>
      <trkpt lat="45.68977514281869" lon="17.695121113210917">
        <ele>195.43</ele>
        <time>2023-10-17T07:59:04.011Z</time>
      </trkpt>
      <trkpt lat="45.6897815130651" lon="17.695138966664672">
        <ele>195.33</ele>
        <time>2023-10-17T07:59:10.990Z</time>
      </trkpt>
      <trkpt lat="45.68978779949248" lon="17.69515690393746">
        <ele>195.24</ele>
        <time>2023-10-17T07:59:17.970Z</time>
      </trkpt>
      <trkpt lat="45.68979408591986" lon="17.695175176486373">
        <ele>195.14</ele>
        <time>2023-10-17T07:59:24.950Z</time>
      </trkpt>
      <trkpt lat="45.689800372347236" lon="17.695193365216255">
        <ele>195.04</ele>
        <time>2023-10-17T07:59:31.930Z</time>
      </trkpt>
      <trkpt lat="45.68980649113655" lon="17.695211553946137">
        <ele>194.94</ele>
        <time>2023-10-17T07:59:38.911Z</time>
      </trkpt>
      <trkpt lat="45.689812526106834" lon="17.69522974267602">
        <ele>194.84</ele>
        <time>2023-10-17T07:59:45.892Z</time>
      </trkpt>
      <trkpt lat="45.689818477258086" lon="17.69524784758687">
        <ele>194.73</ele>
        <time>2023-10-17T07:59:52.874Z</time>
      </trkpt>
      <trkpt lat="45.68982442840934" lon="17.69526595249772">
        <ele>194.63</ele>
        <time>2023-10-17T07:59:59.856Z</time>
      </trkpt>
      <trkpt lat="45.68983029574156" lon="17.69528397358954">
        <ele>194.53</ele>
        <time>2023-10-17T08:00:06.839Z</time>
      </trkpt>
      <trkpt lat="45.68983624689281" lon="17.695301910862327">
        <ele>194.42</ele>
        <time>2023-10-17T08:00:13.822Z</time>
      </trkpt>
      <trkpt lat="45.68984211422503" lon="17.695319931954145">
        <ele>194.31</ele>
        <time>2023-10-17T08:00:20.806Z</time>
      </trkpt>
      <trkpt lat="45.68984798155725" lon="17.695337953045964">
        <ele>194.2</ele>
        <time>2023-10-17T08:00:27.790Z</time>
      </trkpt>
      <trkpt lat="45.68985368125141" lon="17.695355974137783">
        <ele>194.1</ele>
        <time>2023-10-17T08:00:34.775Z</time>
      </trkpt>
      <trkpt lat="45.689859464764595" lon="17.695374162867665">
        <ele>193.99</ele>
        <time>2023-10-17T08:00:41.760Z</time>
      </trkpt>
      <trkpt lat="45.68986516445875" lon="17.69539243541658">
        <ele>193.88</ele>
        <time>2023-10-17T08:00:48.746Z</time>
      </trkpt>
      <trkpt lat="45.68987103179097" lon="17.69541095942259">
        <ele>193.77</ele>
        <time>2023-10-17T08:00:55.732Z</time>
      </trkpt>
      <trkpt lat="45.689877066761255" lon="17.695429734885693">
        <ele>193.65</ele>
        <time>2023-10-17T08:01:02.719Z</time>
      </trkpt>
      <trkpt lat="45.68988318555057" lon="17.695448845624924">
        <ele>193.54</ele>
        <time>2023-10-17T08:01:09.706Z</time>
      </trkpt>
      <trkpt lat="45.68988938815892" lon="17.69546829164028">
        <ele>193.43</ele>
        <time>2023-10-17T08:01:16.694Z</time>
      </trkpt>
      <trkpt lat="45.689895674586296" lon="17.695487989112735">
        <ele>193.31</ele>
        <time>2023-10-17T08:01:23.682Z</time>
      </trkpt>
      <trkpt lat="45.68990204483271" lon="17.695507938042283">
        <ele>193.19</ele>
        <time>2023-10-17T08:01:30.671Z</time>
      </trkpt>
      <trkpt lat="45.689908331260085" lon="17.69552788697183">
        <ele>193.07</ele>
        <time>2023-10-17T08:01:37.660Z</time>
      </trkpt>
      <trkpt lat="45.689914701506495" lon="17.69554791972041">
        <ele>192.95</ele>
        <time>2023-10-17T08:01:44.650Z</time>
      </trkpt>
      <trkpt lat="45.68992123939097" lon="17.69556795246899">
        <ele>192.83</ele>
        <time>2023-10-17T08:01:51.640Z</time>
      </trkpt>
      <trkpt lat="45.68992777727544" lon="17.69558798521757">
        <ele>192.71</ele>
        <time>2023-10-17T08:01:58.631Z</time>
      </trkpt>
      <trkpt lat="45.68993448279798" lon="17.695607850328088">
        <ele>192.58</ele>
        <time>2023-10-17T08:02:05.622Z</time>
      </trkpt>
      <trkpt lat="45.68994127213955" lon="17.695627715438604">
        <ele>192.46</ele>
        <time>2023-10-17T08:02:12.614Z</time>
      </trkpt>
      <trkpt lat="45.68994806148112" lon="17.695647329092026">
        <ele>192.33</ele>
        <time>2023-10-17T08:02:19.606Z</time>
      </trkpt>
      <trkpt lat="45.689954683184624" lon="17.695666942745447">
        <ele>192.2</ele>
        <time>2023-10-17T08:02:26.599Z</time>
      </trkpt>
      <trkpt lat="45.6899612210691" lon="17.69568655639887">
        <ele>192.07</ele>
        <time>2023-10-17T08:02:33.592Z</time>
      </trkpt>
      <trkpt lat="45.68996775895357" lon="17.69570617005229">
        <ele>191.94</ele>
        <time>2023-10-17T08:02:40.586Z</time>
      </trkpt>
      <trkpt lat="45.689974296838045" lon="17.69572578370571">
        <ele>191.81</ele>
        <time>2023-10-17T08:02:47.580Z</time>
      </trkpt>
      <trkpt lat="45.68998100236058" lon="17.695745481178164">
        <ele>191.68</ele>
        <time>2023-10-17T08:02:54.575Z</time>
      </trkpt>
      <trkpt lat="45.689988043159246" lon="17.695765513926744">
        <ele>191.54</ele>
        <time>2023-10-17T08:03:01.570Z</time>
      </trkpt>
      <trkpt lat="45.689995335415006" lon="17.69578588195145">
        <ele>191.41</ele>
        <time>2023-10-17T08:03:08.566Z</time>
      </trkpt>
      <trkpt lat="45.69000279530883" lon="17.695806669071317">
        <ele>191.27</ele>
        <time>2023-10-17T08:03:15.562Z</time>
      </trkpt>
      <trkpt lat="45.690010506659746" lon="17.695828126743436">
        <ele>191.14</ele>
        <time>2023-10-17T08:03:22.559Z</time>
      </trkpt>
      <trkpt lat="45.690018301829696" lon="17.69585025496781">
        <ele>191.0</ele>
        <time>2023-10-17T08:03:29.556Z</time>
      </trkpt>
      <trkpt lat="45.69002618081868" lon="17.695873053744435">
        <ele>190.86</ele>
        <time>2023-10-17T08:03:36.554Z</time>
      </trkpt>
      <trkpt lat="45.69003414362669" lon="17.695896439254284">
        <ele>190.72</ele>
        <time>2023-10-17T08:03:43.553Z</time>
      </trkpt>
      <trkpt lat="45.690042274072766" lon="17.695920495316386">
        <ele>190.59</ele>
        <time>2023-10-17T08:03:50.552Z</time>
      </trkpt>
      <trkpt lat="45.69005040451884" lon="17.69594513811171">
        <ele>190.45</ele>
        <time>2023-10-17T08:03:57.552Z</time>
      </trkpt>
      <trkpt lat="45.69005853496492" lon="17.69597011618316">
        <ele>190.31</ele>
        <time>2023-10-17T08:04:04.553Z</time>
      </trkpt>
      <trkpt lat="45.690066665410995" lon="17.695995597168803">
        <ele>190.18</ele>
        <time>2023-10-17T08:04:11.554Z</time>
      </trkpt>
      <trkpt lat="45.69007462821901" lon="17.696021245792508">
        <ele>190.04</ele>
        <time>2023-10-17T08:04:18.556Z</time>
      </trkpt>
      <trkpt lat="45.69008259102702" lon="17.696046894416213">
        <ele>189.9</ele>
        <time>2023-10-17T08:04:25.559Z</time>
      </trkpt>
      <trkpt lat="45.690090553835034" lon="17.696072794497013">
        <ele>189.77</ele>
        <time>2023-10-17T08:04:32.562Z</time>
      </trkpt>
      <trkpt lat="45.69009851664305" lon="17.69609861075878">
        <ele>189.63</ele>
        <time>2023-10-17T08:04:39.566Z</time>
      </trkpt>
      <trkpt lat="45.69010656327009" lon="17.69612442702055">
        <ele>189.5</ele>
        <time>2023-10-17T08:04:46.571Z</time>
      </trkpt>
      <trkpt lat="45.69011469371617" lon="17.696150159463286">
        <ele>189.36</ele>
        <time>2023-10-17T08:04:53.576Z</time>
      </trkpt>
      <trkpt lat="45.6901232432574" lon="17.69617572426796">
        <ele>189.22</ele>
        <time>2023-10-17T08:05:00.582Z</time>
      </trkpt>
      <trkpt lat="45.69013204425573" lon="17.696201037615538">
        <ele>189.09</ele>
        <time>2023-10-17T08:05:07.588Z</time>
      </trkpt>
      <trkpt lat="45.69014126434922" lon="17.696226350963116">
        <ele>188.95</ele>
        <time>2023-10-17T08:05:14.595Z</time>
      </trkpt>
      <trkpt lat="45.69015081971884" lon="17.6962514128536">
        <ele>188.82</ele>
        <time>2023-10-17T08:05:21.603Z</time>
      </trkpt>
      <trkpt lat="45.69016062654555" lon="17.696276558563113">
        <ele>188.68</ele>
        <time>2023-10-17T08:05:28.611Z</time>
      </trkpt>
      <trkpt lat="45.69017060101032" lon="17.69630178809166">
        <ele>188.55</ele>
        <time>2023-10-17T08:05:35.620Z</time>
      </trkpt>
      <trkpt lat="45.69018074311316" lon="17.696327101439238">
        <ele>188.42</ele>
        <time>2023-10-17T08:05:42.630Z</time>
      </trkpt>
      <trkpt lat="45.69019096903503" lon="17.696352498605847">
        <ele>188.28</ele>
        <time>2023-10-17T08:05:49.641Z</time>
      </trkpt>
      <trkpt lat="45.69020127877593" lon="17.69637806341052">
        <ele>188.15</ele>
        <time>2023-10-17T08:05:56.652Z</time>
      </trkpt>
      <trkpt lat="45.69021158851683" lon="17.696403795853257">
        <ele>188.03</ele>
        <time>2023-10-17T08:06:03.664Z</time>
      </trkpt>
      <trkpt lat="45.69022189825773" lon="17.696429528295994">
        <ele>187.9</ele>
        <time>2023-10-17T08:06:10.677Z</time>
      </trkpt>
      <trkpt lat="45.6902321241796" lon="17.696455512195826">
        <ele>187.78</ele>
        <time>2023-10-17T08:06:17.690Z</time>
      </trkpt>
      <trkpt lat="45.69024218246341" lon="17.69648157991469">
        <ele>187.65</ele>
        <time>2023-10-17T08:06:24.704Z</time>
      </trkpt>
      <trkpt lat="45.69025198929012" lon="17.696507815271616">
        <ele>187.54</ele>
        <time>2023-10-17T08:06:31.719Z</time>
      </trkpt>
      <trkpt lat="45.6902614608407" lon="17.696534302085638">
        <ele>187.42</ele>
        <time>2023-10-17T08:06:38.734Z</time>
      </trkpt>
      <trkpt lat="45.69027068093419" lon="17.696560956537724">
        <ele>187.3</ele>
        <time>2023-10-17T08:06:45.750Z</time>
      </trkpt>
      <trkpt lat="45.690279649570584" lon="17.696587778627872">
        <ele>187.19</ele>
        <time>2023-10-17T08:06:52.767Z</time>
      </trkpt>
      <trkpt lat="45.69028828293085" lon="17.69661501981318">
        <ele>187.08</ele>
        <time>2023-10-17T08:06:59.784Z</time>
      </trkpt>
      <trkpt lat="45.690296832472086" lon="17.696642596274614">
        <ele>186.98</ele>
        <time>2023-10-17T08:07:06.802Z</time>
      </trkpt>
      <trkpt lat="45.690305130556226" lon="17.696670591831207">
        <ele>186.87</ele>
        <time>2023-10-17T08:07:13.821Z</time>
      </trkpt>
      <trkpt lat="45.690313344821334" lon="17.696698755025864">
        <ele>186.77</ele>
        <time>2023-10-17T08:07:20.841Z</time>
      </trkpt>
      <trkpt lat="45.69032139144838" lon="17.69672733731568">
        <ele>186.67</ele>
        <time>2023-10-17T08:07:27.861Z</time>
      </trkpt>
      <trkpt lat="45.69032935425639" lon="17.69675575196743">
        <ele>186.58</ele>
        <time>2023-10-17T08:07:34.882Z</time>
      </trkpt>
      <trkpt lat="45.69033706560731" lon="17.696783831343055">
        <ele>186.48</ele>
        <time>2023-10-17T08:07:41.904Z</time>
      </trkpt>
      <trkpt lat="45.69034452550113" lon="17.696811323985457">
        <ele>186.4</ele>
        <time>2023-10-17T08:07:48.926Z</time>
      </trkpt>
      <trkpt lat="45.69035181775689" lon="17.69683789461851">
        <ele>186.31</ele>
        <time>2023-10-17T08:07:55.949Z</time>
      </trkpt>
      <trkpt lat="45.690358858555555" lon="17.69686320796609">
        <ele>186.23</ele>
        <time>2023-10-17T08:08:02.973Z</time>
      </trkpt>
      <trkpt lat="45.69036548025906" lon="17.696887096390128">
        <ele>186.15</ele>
        <time>2023-10-17T08:08:09.997Z</time>
      </trkpt>
      <trkpt lat="45.69037176668644" lon="17.696909392252564">
        <ele>186.07</ele>
        <time>2023-10-17T08:08:17.022Z</time>
      </trkpt>
      <trkpt lat="45.69037763401866" lon="17.696929927915335">
        <ele>186.0</ele>
        <time>2023-10-17T08:08:24.047Z</time>
      </trkpt>
      <trkpt lat="45.69038291461766" lon="17.696948451921344">
        <ele>185.94</ele>
        <time>2023-10-17T08:08:31.073Z</time>
      </trkpt>
      <trkpt lat="45.690387692302465" lon="17.696965131908655">
        <ele>185.87</ele>
        <time>2023-10-17T08:08:38.099Z</time>
      </trkpt>
      <trkpt lat="45.69039179943502" lon="17.696980219334364">
        <ele>185.81</ele>
        <time>2023-10-17T08:08:45.126Z</time>
      </trkpt>
      <trkpt lat="45.690395487472415" lon="17.696994384750724">
        <ele>185.76</ele>
        <time>2023-10-17T08:08:52.153Z</time>
      </trkpt>
      <trkpt lat="45.690398924052715" lon="17.697008466348052">
        <ele>185.71</ele>
        <time>2023-10-17T08:08:59.180Z</time>
      </trkpt>
      <trkpt lat="45.690402276813984" lon="17.697022799402475">
        <ele>185.66</ele>
        <time>2023-10-17T08:09:06.208Z</time>
      </trkpt>
      <trkpt lat="45.690405797213316" lon="17.697038473561406">
        <ele>185.62</ele>
        <time>2023-10-17T08:09:13.236Z</time>
      </trkpt>
      <trkpt lat="45.69040948525071" lon="17.697055572643876">
        <ele>185.58</ele>
        <time>2023-10-17T08:09:20.265Z</time>
      </trkpt>
      <trkpt lat="45.69041376002133" lon="17.697074683383107">
        <ele>185.54</ele>
        <time>2023-10-17T08:09:27.294Z</time>
      </trkpt>
      <trkpt lat="45.69041828624904" lon="17.697095638141036">
        <ele>185.51</ele>
        <time>2023-10-17T08:09:34.324Z</time>
      </trkpt>
      <trkpt lat="45.690423399209976" lon="17.69711885601282">
        <ele>185.48</ele>
        <time>2023-10-17T08:09:41.354Z</time>
      </trkpt>
      <trkpt lat="45.6904290150851" lon="17.697144085541368">
        <ele>185.45</ele>
        <time>2023-10-17T08:09:48.385Z</time>
      </trkpt>
      <trkpt lat="45.690435133874416" lon="17.69717149436474">
        <ele>185.43</ele>
        <time>2023-10-17T08:09:55.416Z</time>
      </trkpt>
      <trkpt lat="45.69044175557792" lon="17.697200495749712">
        <ele>185.41</ele>
        <time>2023-10-17T08:10:02.448Z</time>
      </trkpt>
      <trkpt lat="45.690448796376586" lon="17.69723075442016">
        <ele>185.39</ele>
        <time>2023-10-17T08:10:09.481Z</time>
      </trkpt>
      <trkpt lat="45.69045625627041" lon="17.697261683642864">
        <ele>185.38</ele>
        <time>2023-10-17T08:10:16.515Z</time>
      </trkpt>
      <trkpt lat="45.690463967621326" lon="17.697293367236853">
        <ele>185.37</ele>
        <time>2023-10-17T08:10:23.549Z</time>
      </trkpt>
      <trkpt lat="45.690471678972244" lon="17.69732496701181">
        <ele>185.37</ele>
        <time>2023-10-17T08:10:30.584Z</time>
      </trkpt>
      <trkpt lat="45.69047930650413" lon="17.697356650605798">
        <ele>185.37</ele>
        <time>2023-10-17T08:10:37.620Z</time>
      </trkpt>
      <trkpt lat="45.690486850216985" lon="17.697387831285596">
        <ele>185.38</ele>
        <time>2023-10-17T08:10:44.657Z</time>
      </trkpt>
      <trkpt lat="45.690494226291776" lon="17.697418928146362">
        <ele>185.39</ele>
        <time>2023-10-17T08:10:51.694Z</time>
      </trkpt>
      <trkpt lat="45.690501518547535" lon="17.69744952209294">
        <ele>185.4</ele>
        <time>2023-10-17T08:10:58.732Z</time>
      </trkpt>
      <trkpt lat="45.690508894622326" lon="17.697480032220483">
        <ele>185.41</ele>
        <time>2023-10-17T08:11:05.771Z</time>
      </trkpt>
      <trkpt lat="45.69051627069712" lon="17.69751062616706">
        <ele>185.43</ele>
        <time>2023-10-17T08:11:12.811Z</time>
      </trkpt>
      <trkpt lat="45.69052373059094" lon="17.697541555389762">
        <ele>185.45</ele>
        <time>2023-10-17T08:11:19.852Z</time>
      </trkpt>
      <trkpt lat="45.69053110666573" lon="17.697573071345687">
        <ele>185.47</ele>
        <time>2023-10-17T08:11:26.893Z</time>
      </trkpt>
      <trkpt lat="45.69053848274052" lon="17.697605341672897">
        <ele>185.5</ele>
        <time>2023-10-17T08:11:33.935Z</time>
      </trkpt>
      <trkpt lat="45.69054577499628" lon="17.697638031095266">
        <ele>185.53</ele>
        <time>2023-10-17T08:11:40.978Z</time>
      </trkpt>
      <trkpt lat="45.69055315107107" lon="17.69767147488892">
        <ele>185.56</ele>
        <time>2023-10-17T08:11:48.022Z</time>
      </trkpt>
      <trkpt lat="45.690560694783926" lon="17.697705337777734">
        <ele>185.6</ele>
        <time>2023-10-17T08:11:55.067Z</time>
      </trkpt>
      <trkpt lat="45.69056823849678" lon="17.69773978739977">
        <ele>185.63</ele>
        <time>2023-10-17T08:12:02.112Z</time>
      </trkpt>
      <trkpt lat="45.69057586602867" lon="17.697774656116962">
        <ele>185.67</ele>
        <time>2023-10-17T08:12:09.158Z</time>
      </trkpt>
      <trkpt lat="45.69058349356055" lon="17.697809943929315">
        <ele>185.71</ele>
        <time>2023-10-17T08:12:16.205Z</time>
      </trkpt>
      <trkpt lat="45.69059120491147" lon="17.69784539937973">
        <ele>185.75</ele>
        <time>2023-10-17T08:12:23.253Z</time>
      </trkpt>
      <trkpt lat="45.69059891626239" lon="17.697880687192082">
        <ele>185.79</ele>
        <time>2023-10-17T08:12:30.302Z</time>
      </trkpt>
      <trkpt lat="45.69060679525137" lon="17.69791572354734">
        <ele>185.84</ele>
        <time>2023-10-17T08:12:37.352Z</time>
      </trkpt>
      <trkpt lat="45.69061500951648" lon="17.697950173169374">
        <ele>185.88</ele>
        <time>2023-10-17T08:12:44.403Z</time>
      </trkpt>
      <trkpt lat="45.690623642876744" lon="17.69798370078206">
        <ele>185.93</ele>
        <time>2023-10-17T08:12:51.454Z</time>
      </trkpt>
      <trkpt lat="45.69063286297023" lon="17.69801647402346">
        <ele>185.97</ele>
        <time>2023-10-17T08:12:58.506Z</time>
      </trkpt>
      <trkpt lat="45.690642669796944" lon="17.698048073798418">
        <ele>186.02</ele>
        <time>2023-10-17T08:13:05.559Z</time>
      </trkpt>
      <trkpt lat="45.69065323099494" lon="17.698078751564026">
        <ele>186.06</ele>
        <time>2023-10-17T08:13:12.613Z</time>
      </trkpt>
      <trkpt lat="45.69066454656422" lon="17.69810833968222">
        <ele>186.11</ele>
        <time>2023-10-17T08:13:19.668Z</time>
      </trkpt>
      <trkpt lat="45.690676448866725" lon="17.698136921972036">
        <ele>186.16</ele>
        <time>2023-10-17T08:13:26.723Z</time>
      </trkpt>
      <trkpt lat="45.69068902172148" lon="17.698164666071534">
        <ele>186.21</ele>
        <time>2023-10-17T08:13:33.779Z</time>
      </trkpt>
      <trkpt lat="45.69070209749043" lon="17.698191571980715">
        <ele>186.25</ele>
        <time>2023-10-17T08:13:40.836Z</time>
      </trkpt>
      <trkpt lat="45.6907157599926" lon="17.69821772351861">
        <ele>186.3</ele>
        <time>2023-10-17T08:13:47.894Z</time>
      </trkpt>
      <trkpt lat="45.69072984158993" lon="17.69824312068522">
        <ele>186.35</ele>
        <time>2023-10-17T08:13:54.952Z</time>
      </trkpt>
      <trkpt lat="45.69074417464435" lon="17.698267931118608">
        <ele>186.39</ele>
        <time>2023-10-17T08:14:02.011Z</time>
      </trkpt>
      <trkpt lat="45.690758591517806" lon="17.698292322456837">
        <ele>186.44</ele>
        <time>2023-10-17T08:14:09.071Z</time>
      </trkpt>
      <trkpt lat="45.69077300839126" lon="17.698316127061844">
        <ele>186.48</ele>
        <time>2023-10-17T08:14:16.132Z</time>
      </trkpt>
      <trkpt lat="45.690787341445684" lon="17.69833934493363">
        <ele>186.53</ele>
        <time>2023-10-17T08:14:23.193Z</time>
      </trkpt>
      <trkpt lat="45.69080125540495" lon="17.698361724615097">
        <ele>186.57</ele>
        <time>2023-10-17T08:14:30.255Z</time>
      </trkpt>
      <trkpt lat="45.690814750269055" lon="17.698383098468184">
        <ele>186.61</ele>
        <time>2023-10-17T08:14:37.318Z</time>
      </trkpt>
      <trkpt lat="45.690827826038" lon="17.69840338267386">
        <ele>186.65</ele>
        <time>2023-10-17T08:14:44.381Z</time>
      </trkpt>
      <trkpt lat="45.69084006361663" lon="17.698422158136964">
        <ele>186.69</ele>
        <time>2023-10-17T08:14:51.445Z</time>
      </trkpt>
      <trkpt lat="45.69085129536688" lon="17.698439341038465">
        <ele>186.72</ele>
        <time>2023-10-17T08:14:58.510Z</time>
      </trkpt>
      <trkpt lat="45.690861186012626" lon="17.698454931378365">
        <ele>186.75</ele>
        <time>2023-10-17T08:15:05.575Z</time>
      </trkpt>
      <trkpt lat="45.690869903191924" lon="17.698469012975693">
        <ele>186.79</ele>
        <time>2023-10-17T08:15:12.640Z</time>
      </trkpt>
      <trkpt lat="45.690877279266715" lon="17.698481250554323">
        <ele>186.81</ele>
        <time>2023-10-17T08:15:19.706Z</time>
      </trkpt>
      <trkpt lat="45.69088339805603" lon="17.698491644114256">
        <ele>186.84</ele>
        <time>2023-10-17T08:15:26.772Z</time>
      </trkpt>
      <trkpt lat="45.69088817574084" lon="17.69850010983646">
        <ele>186.86</ele>
        <time>2023-10-17T08:15:33.838Z</time>
      </trkpt>
      <trkpt lat="45.6908917799592" lon="17.698506899178028">
        <ele>186.88</ele>
        <time>2023-10-17T08:15:40.905Z</time>
      </trkpt>
      <trkpt lat="45.69089429453015" lon="17.698512263596058">
        <ele>186.9</ele>
        <time>2023-10-17T08:15:47.972Z</time>
      </trkpt>
      <trkpt lat="45.69089571945369" lon="17.698516370728612">
        <ele>186.91</ele>
        <time>2023-10-17T08:15:55.039Z</time>
      </trkpt>
      <trkpt lat="45.690896306186914" lon="17.698519388213754">
        <ele>186.92</ele>
        <time>2023-10-17T08:16:02.106Z</time>
      </trkpt>
      <trkpt lat="45.69089655764401" lon="17.698521986603737">
        <ele>186.93</ele>
        <time>2023-10-17T08:16:09.173Z</time>
      </trkpt>
      <trkpt lat="45.690896809101105" lon="17.69852458499372">
        <ele>186.93</ele>
        <time>2023-10-17T08:16:16.240Z</time>
      </trkpt>
      <trkpt lat="45.69089747965336" lon="17.698527351021767">
        <ele>186.93</ele>
        <time>2023-10-17T08:16:23.307Z</time>
      </trkpt>
      <trkpt lat="45.690898736938834" lon="17.698530536144972">
        <ele>186.92</ele>
        <time>2023-10-17T08:16:30.374Z</time>
      </trkpt>
      <trkpt lat="45.69090058095753" lon="17.698534559458494">
        <ele>186.92</ele>
        <time>2023-10-17T08:16:37.441Z</time>
      </trkpt>
      <trkpt lat="45.69090309552848" lon="17.698539588600397">
        <ele>186.9</ele>
        <time>2023-10-17T08:16:44.508Z</time>
      </trkpt>
      <trkpt lat="45.69090636447072" lon="17.698545707389712">
        <ele>186.89</ele>
        <time>2023-10-17T08:16:51.576Z</time>
      </trkpt>
      <trkpt lat="45.690910471603274" lon="17.69855291582644">
        <ele>186.87</ele>
        <time>2023-10-17T08:16:58.644Z</time>
      </trkpt>
      <trkpt lat="45.690915416926146" lon="17.69856121391058">
        <ele>186.84</ele>
        <time>2023-10-17T08:17:05.712Z</time>
      </trkpt>
      <trkpt lat="45.690921284258366" lon="17.698570685461164">
        <ele>186.81</ele>
        <time>2023-10-17T08:17:12.780Z</time>
      </trkpt>
      <trkpt lat="45.69092790596187" lon="17.698581162840128">
        <ele>186.78</ele>
        <time>2023-10-17T08:17:19.849Z</time>
      </trkpt>
      <trkpt lat="45.69093528203666" lon="17.69859247840941">
        <ele>186.74</ele>
        <time>2023-10-17T08:17:26.918Z</time>
      </trkpt>
      <trkpt lat="45.69094316102564" lon="17.698604380711913">
        <ele>186.69</ele>
        <time>2023-10-17T08:17:33.988Z</time>
      </trkpt>
      <trkpt lat="45.69095129147172" lon="17.698616618290544">
        <ele>186.64</ele>
        <time>2023-10-17T08:17:41.058Z</time>
      </trkpt>
      <trkpt lat="45.690959841012955" lon="17.698628939688206">
        <ele>186.59</ele>
        <time>2023-10-17T08:17:48.128Z</time>
      </trkpt>
      <trkpt lat="45.69096847437322" lon="17.698641261085868">
        <ele>186.53</ele>
        <time>2023-10-17T08:17:55.199Z</time>
      </trkpt>
      <trkpt lat="45.69097727537155" lon="17.6986534986645">
        <ele>186.47</ele>
        <time>2023-10-17T08:18:02.270Z</time>
      </trkpt>
      <trkpt lat="45.69098599255085" lon="17.69866573624313">
        <ele>186.4</ele>
        <time>2023-10-17T08:18:09.342Z</time>
      </trkpt>
      <trkpt lat="45.69099487736821" lon="17.69867797382176">
        <ele>186.33</ele>
        <time>2023-10-17T08:18:16.414Z</time>
      </trkpt>
      <trkpt lat="45.69100367836654" lon="17.69869021140039">
        <ele>186.25</ele>
        <time>2023-10-17T08:18:23.486Z</time>
      </trkpt>
      <trkpt lat="45.69101239554584" lon="17.698702532798052">
        <ele>186.17</ele>
        <time>2023-10-17T08:18:30.559Z</time>
      </trkpt>
      <trkpt lat="45.69102102890611" lon="17.698714854195714">
        <ele>186.08</ele>
        <time>2023-10-17T08:18:37.632Z</time>
      </trkpt>
      <trkpt lat="45.691029662266374" lon="17.698727259412408">
        <ele>185.99</ele>
        <time>2023-10-17T08:18:44.706Z</time>
      </trkpt>
      <trkpt lat="45.69103812798858" lon="17.698739748448133">
        <ele>185.89</ele>
        <time>2023-10-17T08:18:51.780Z</time>
      </trkpt>
      <trkpt lat="45.69104659371078" lon="17.698752405121922">
        <ele>185.78</ele>
        <time>2023-10-17T08:18:58.854Z</time>
      </trkpt>
      <trkpt lat="45.69105497561395" lon="17.69876506179571">
        <ele>185.68</ele>
        <time>2023-10-17T08:19:05.929Z</time>
      </trkpt>
      <trkpt lat="45.69106327369809" lon="17.698777886107564">
        <ele>185.56</ele>
        <time>2023-10-17T08:19:13.004Z</time>
      </trkpt>
      <trkpt lat="45.6910714879632" lon="17.698790794238448">
        <ele>185.45</ele>
        <time>2023-10-17T08:19:20.080Z</time>
      </trkpt>
      <trkpt lat="45.69107970222831" lon="17.698803786188364">
        <ele>185.32</ele>
        <time>2023-10-17T08:19:27.156Z</time>
      </trkpt>
      <trkpt lat="45.691087832674384" lon="17.69881686195731">
        <ele>185.2</ele>
        <time>2023-10-17T08:19:34.232Z</time>
      </trkpt>
      <trkpt lat="45.69109596312046" lon="17.69883002154529">
        <ele>185.07</ele>
        <time>2023-10-17T08:19:41.309Z</time>
      </trkpt>
      <trkpt lat="45.69110417738557" lon="17.698843516409397">
        <ele>184.93</ele>
        <time>2023-10-17T08:19:48.386Z</time>
      </trkpt>
      <trkpt lat="45.69111239165068" lon="17.6988572627306">
        <ele>184.79</ele>
        <time>2023-10-17T08:19:55.464Z</time>
      </trkpt>
      <trkpt lat="45.69112077355385" lon="17.69887142814696">
        <ele>184.64</ele>
        <time>2023-10-17T08:20:02.542Z</time>
      </trkpt>
      <trkpt lat="45.69112923927605" lon="17.698885928839445">
        <ele>184.49</ele>
        <time>2023-10-17T08:20:09.621Z</time>
      </trkpt>
      <trkpt lat="45.69113787263632" lon="17.69890084862709">
        <ele>184.34</ele>
        <time>2023-10-17T08:20:16.700Z</time>
      </trkpt>
      <trkpt lat="45.69114684127271" lon="17.698916271328926">
        <ele>184.18</ele>
        <time>2023-10-17T08:20:23.779Z</time>
      </trkpt>
      <trkpt lat="45.69115597754717" lon="17.698931861668825">
        <ele>184.02</ele>
        <time>2023-10-17T08:20:30.859Z</time>
      </trkpt>
      <trkpt lat="45.69116544909775" lon="17.698947535827756">
        <ele>183.85</ele>
        <time>2023-10-17T08:20:37.939Z</time>
      </trkpt>
      <trkpt lat="45.69117550738156" lon="17.698963209986687">
        <ele>183.68</ele>
        <time>2023-10-17T08:20:45.020Z</time>
      </trkpt>
      <trkpt lat="45.69118632003665" lon="17.69897854886949">
        <ele>183.5</ele>
        <time>2023-10-17T08:20:52.101Z</time>
      </trkpt>
      <trkpt lat="45.69119771942496" lon="17.698993384838104">
        <ele>183.32</ele>
        <time>2023-10-17T08:20:59.183Z</time>
      </trkpt>
      <trkpt lat="45.69120962172747" lon="17.699007466435432">
        <ele>183.14</ele>
        <time>2023-10-17T08:21:06.265Z</time>
      </trkpt>
      <trkpt lat="45.691222194582224" lon="17.699020709842443">
        <ele>182.95</ele>
        <time>2023-10-17T08:21:13.348Z</time>
      </trkpt>
      <trkpt lat="45.6912353541702" lon="17.699033115059137">
        <ele>182.76</ele>
        <time>2023-10-17T08:21:20.432Z</time>
      </trkpt>
      <trkpt lat="45.691249100491405" lon="17.699044849723577">
        <ele>182.57</ele>
        <time>2023-10-17T08:21:27.516Z</time>
      </trkpt>
      <trkpt lat="45.69126318208873" lon="17.69905624911189">
        <ele>182.37</ele>
        <time>2023-10-17T08:21:34.601Z</time>
      </trkpt>
      <trkpt lat="45.691277431324124" lon="17.699067313224077">
        <ele>182.17</ele>
        <time>2023-10-17T08:21:41.686Z</time>
      </trkpt>
      <trkpt lat="45.69129184819758" lon="17.699078544974327">
        <ele>181.97</ele>
        <time>2023-10-17T08:21:48.772Z</time>
      </trkpt>
      <trkpt lat="45.69130609743297" lon="17.699090195819736">
        <ele>181.76</ele>
        <time>2023-10-17T08:21:55.858Z</time>
      </trkpt>
      <trkpt lat="45.69131984375417" lon="17.699102433398366">
        <ele>181.56</ele>
        <time>2023-10-17T08:22:02.945Z</time>
      </trkpt>
      <trkpt lat="45.69133308716118" lon="17.699115676805377">
        <ele>181.35</ele>
        <time>2023-10-17T08:22:10.032Z</time>
      </trkpt>
      <trkpt lat="45.691345911473036" lon="17.699129842221737">
        <ele>181.14</ele>
        <time>2023-10-17T08:22:17.120Z</time>
      </trkpt>
      <trkpt lat="45.6913582328707" lon="17.69914509728551">
        <ele>180.93</ele>
        <time>2023-10-17T08:22:24.208Z</time>
      </trkpt>
      <trkpt lat="45.69136996753514" lon="17.699161441996694">
        <ele>180.71</ele>
        <time>2023-10-17T08:22:31.297Z</time>
      </trkpt>
      <trkpt lat="45.69138128310442" lon="17.69917879253626">
        <ele>180.5</ele>
        <time>2023-10-17T08:22:38.386Z</time>
      </trkpt>
      <trkpt lat="45.69139209575951" lon="17.699196729809046">
        <ele>180.28</ele>
        <time>2023-10-17T08:22:45.476Z</time>
      </trkpt>
      <trkpt lat="45.691402573138475" lon="17.69921508617699">
        <ele>180.07</ele>
        <time>2023-10-17T08:22:52.567Z</time>
      </trkpt>
      <trkpt lat="45.691412799060345" lon="17.699233694002032">
        <ele>179.85</ele>
        <time>2023-10-17T08:22:59.658Z</time>
      </trkpt>
      <trkpt lat="45.69142277352512" lon="17.69925213418901">
        <ele>179.63</ele>
        <time>2023-10-17T08:23:06.750Z</time>
      </trkpt>
      <trkpt lat="45.691432831808925" lon="17.699270406737924">
        <ele>179.42</ele>
        <time>2023-10-17T08:23:13.842Z</time>
      </trkpt>
      <trkpt lat="45.69144289009273" lon="17.69928834401071">
        <ele>179.2</ele>
        <time>2023-10-17T08:23:20.935Z</time>
      </trkpt>
      <trkpt lat="45.691452948376536" lon="17.69930594600737">
        <ele>178.98</ele>
        <time>2023-10-17T08:23:28.028Z</time>
      </trkpt>
      <trkpt lat="45.69146292284131" lon="17.699323296546936">
        <ele>178.77</ele>
        <time>2023-10-17T08:23:35.122Z</time>
      </trkpt>
      <trkpt lat="45.691472981125116" lon="17.699340395629406">
        <ele>178.55</ele>
        <time>2023-10-17T08:23:42.216Z</time>
      </trkpt>
      <trkpt lat="45.69148295558989" lon="17.69935715943575">
        <ele>178.33</ele>
        <time>2023-10-17T08:23:49.311Z</time>
      </trkpt>
      <trkpt lat="45.69149284623563" lon="17.699373671784997">
        <ele>178.12</ele>
        <time>2023-10-17T08:23:56.406Z</time>
      </trkpt>
      <trkpt lat="45.691502653062344" lon="17.69938993267715">
        <ele>177.9</ele>
        <time>2023-10-17T08:24:03.502Z</time>
      </trkpt>
      <trkpt lat="45.69151237607002" lon="17.699405858293176">
        <ele>177.69</ele>
        <time>2023-10-17T08:24:10.598Z</time>
      </trkpt>
      <trkpt lat="45.69152201525867" lon="17.69942170009017">
        <ele>177.48</ele>
        <time>2023-10-17T08:24:17.695Z</time>
      </trkpt>
      <trkpt lat="45.69153173826635" lon="17.6994373742491">
        <ele>177.26</ele>
        <time>2023-10-17T08:24:24.792Z</time>
      </trkpt>
      <trkpt lat="45.69154146127403" lon="17.699452796950936">
        <ele>177.06</ele>
        <time>2023-10-17T08:24:31.890Z</time>
      </trkpt>
      <trkpt lat="45.69155135191977" lon="17.69946813583374">
        <ele>176.85</ele>
        <time>2023-10-17T08:24:38.988Z</time>
      </trkpt>
      <trkpt lat="45.691561410203576" lon="17.699483139440417">
        <ele>176.64</ele>
        <time>2023-10-17T08:24:46.087Z</time>
      </trkpt>
      <trkpt lat="45.691571636125445" lon="17.69949789159">
        <ele>176.44</ele>
        <time>2023-10-17T08:24:53.186Z</time>
      </trkpt>
      <trkpt lat="45.69158202968538" lon="17.699512224644423">
        <ele>176.24</ele>
        <time>2023-10-17T08:25:00.286Z</time>
      </trkpt>
      <trkpt lat="45.69159250706434" lon="17.699525887146592">
        <ele>176.04</ele>
        <time>2023-10-17T08:25:07.386Z</time>
      </trkpt>
      <trkpt lat="45.691603319719434" lon="17.699538795277476">
        <ele>175.84</ele>
        <time>2023-10-17T08:25:14.487Z</time>
      </trkpt>
      <trkpt lat="45.69161446765065" lon="17.69955078139901">
        <ele>175.65</ele>
        <time>2023-10-17T08:25:21.588Z</time>
      </trkpt>
      <trkpt lat="45.69162603467703" lon="17.69956142641604">
        <ele>175.46</ele>
        <time>2023-10-17T08:25:28.690Z</time>
      </trkpt>
      <trkpt lat="45.6916378531605" lon="17.699570395052433">
        <ele>175.27</ele>
        <time>2023-10-17T08:25:35.792Z</time>
      </trkpt>
      <trkpt lat="45.69164967164397" lon="17.699577435851097">
        <ele>175.09</ele>
        <time>2023-10-17T08:25:42.895Z</time>
      </trkpt>
      <trkpt lat="45.69166140630841" lon="17.69958288408816">
        <ele>174.91</ele>
        <time>2023-10-17T08:25:49.998Z</time>
      </trkpt>
      <trkpt lat="45.69167305715382" lon="17.69958682358265">
        <ele>174.73</ele>
        <time>2023-10-17T08:25:57.101Z</time>
      </trkpt>
      <trkpt lat="45.691684540361166" lon="17.69958975724876">
        <ele>174.55</ele>
        <time>2023-10-17T08:26:04.205Z</time>
      </trkpt>
      <trkpt lat="45.691695688292384" lon="17.69959227181971">
        <ele>174.38</ele>
        <time>2023-10-17T08:26:11.309Z</time>
      </trkpt>
      <trkpt lat="45.69170633330941" lon="17.69959419965744">
        <ele>174.21</ele>
        <time>2023-10-17T08:26:18.413Z</time>
      </trkpt>
      <trkpt lat="45.69171655923128" lon="17.699595792219043">
        <ele>174.04</ele>
        <time>2023-10-17T08:26:25.518Z</time>
      </trkpt>
      <trkpt lat="45.69172636605799" lon="17.699596965685487">
        <ele>173.88</ele>
        <time>2023-10-17T08:26:32.623Z</time>
      </trkpt>
      <trkpt lat="45.69173566997051" lon="17.699597720056772">
        <ele>173.72</ele>
        <time>2023-10-17T08:26:39.728Z</time>
      </trkpt>
      <trkpt lat="45.69174430333078" lon="17.699597887694836">
        <ele>173.57</ele>
        <time>2023-10-17T08:26:46.834Z</time>
      </trkpt>
      <trkpt lat="45.69175226613879" lon="17.699597468599677">
        <ele>173.41</ele>
        <time>2023-10-17T08:26:53.940Z</time>
      </trkpt>
      <trkpt lat="45.69175955839455" lon="17.699596546590328">
        <ele>173.27</ele>
        <time>2023-10-17T08:27:01.046Z</time>
      </trkpt>
      <trkpt lat="45.69176626391709" lon="17.699594870209694">
        <ele>173.12</ele>
        <time>2023-10-17T08:27:08.152Z</time>
      </trkpt>
      <trkpt lat="45.691772382706404" lon="17.699592020362616">
        <ele>172.99</ele>
        <time>2023-10-17T08:27:15.259Z</time>
      </trkpt>
      <trkpt lat="45.69177808240056" lon="17.69958741031587">
        <ele>172.85</ele>
        <time>2023-10-17T08:27:22.366Z</time>
      </trkpt>
      <trkpt lat="45.69178344681859" lon="17.699580788612366">
        <ele>172.72</ele>
        <time>2023-10-17T08:27:29.473Z</time>
      </trkpt>
      <trkpt lat="45.69178881123662" lon="17.6995721552521">
        <ele>172.59</ele>
        <time>2023-10-17T08:27:36.580Z</time>
      </trkpt>
      <trkpt lat="45.691794008016586" lon="17.699561594054103">
        <ele>172.47</ele>
        <time>2023-10-17T08:27:43.688Z</time>
      </trkpt>
      <trkpt lat="45.69179920479655" lon="17.69954927265644">
        <ele>172.35</ele>
        <time>2023-10-17T08:27:50.796Z</time>
      </trkpt>
      <trkpt lat="45.691804233938456" lon="17.69953552633524">
        <ele>172.23</ele>
        <time>2023-10-17T08:27:57.904Z</time>
      </trkpt>
      <trkpt lat="45.69180926308036" lon="17.69952094182372">
        <ele>172.12</ele>
        <time>2023-10-17T08:28:05.013Z</time>
      </trkpt>
      <trkpt lat="45.69181437604129" lon="17.69950577057898">
        <ele>172.01</ele>
        <time>2023-10-17T08:28:12.122Z</time>
      </trkpt>
      <trkpt lat="45.69181974045932" lon="17.699490012601018">
        <ele>171.91</ele>
        <time>2023-10-17T08:28:19.232Z</time>
      </trkpt>
      <trkpt lat="45.691825272515416" lon="17.69947391934693">
        <ele>171.81</ele>
        <time>2023-10-17T08:28:26.342Z</time>
      </trkpt>
      <trkpt lat="45.69183080457151" lon="17.699457574635744">
        <ele>171.72</ele>
        <time>2023-10-17T08:28:33.452Z</time>
      </trkpt>
      <trkpt lat="45.69183616898954" lon="17.699441146105528">
        <ele>171.63</ele>
        <time>2023-10-17T08:28:40.563Z</time>
      </trkpt>
      <trkpt lat="45.691841365769506" lon="17.699424466118217">
        <ele>171.54</ele>
        <time>2023-10-17T08:28:47.674Z</time>
      </trkpt>
      <trkpt lat="45.69184639491141" lon="17.699407786130905">
        <ele>171.46</ele>
        <time>2023-10-17T08:28:54.786Z</time>
      </trkpt>
      <trkpt lat="45.69185125641525" lon="17.69939093850553">
        <ele>171.38</ele>
        <time>2023-10-17T08:29:01.898Z</time>
      </trkpt>
      <trkpt lat="45.69185611791909" lon="17.699374090880156">
        <ele>171.31</ele>
        <time>2023-10-17T08:29:09.011Z</time>
      </trkpt>
      <trkpt lat="45.69186081178486" lon="17.699357327073812">
        <ele>171.24</ele>
        <time>2023-10-17T08:29:16.124Z</time>
      </trkpt>
      <trkpt lat="45.69186558946967" lon="17.6993406470865">
        <ele>171.17</ele>
        <time>2023-10-17T08:29:23.237Z</time>
      </trkpt>
      <trkpt lat="45.69187028333545" lon="17.699324134737253">
        <ele>171.11</ele>
        <time>2023-10-17T08:29:30.351Z</time>
      </trkpt>
      <trkpt lat="45.691875061020255" lon="17.699307622388005">
        <ele>171.05</ele>
        <time>2023-10-17T08:29:37.465Z</time>
      </trkpt>
      <trkpt lat="45.691880006343126" lon="17.699291110038757">
        <ele>171.0</ele>
        <time>2023-10-17T08:29:44.580Z</time>
      </trkpt>
      <trkpt lat="45.69188503548503" lon="17.69927459768951">
        <ele>170.95</ele>
        <time>2023-10-17T08:29:51.695Z</time>
      </trkpt>
      <trkpt lat="45.691890148445964" lon="17.69925800152123">
        <ele>170.91</ele>
        <time>2023-10-17T08:29:58.810Z</time>
      </trkpt>
      <trkpt lat="45.691895512863994" lon="17.699241237714887">
        <ele>170.86</ele>
        <time>2023-10-17T08:30:05.926Z</time>
      </trkpt>
      <trkpt lat="45.691900961101055" lon="17.699224473908544">
        <ele>170.83</ele>
        <time>2023-10-17T08:30:13.042Z</time>
      </trkpt>
      <trkpt lat="45.69190649315715" lon="17.699207793921232">
        <ele>170.79</ele>
        <time>2023-10-17T08:30:20.159Z</time>
      </trkpt>
      <trkpt lat="45.69191185757518" lon="17.69919111393392">
        <ele>170.76</ele>
        <time>2023-10-17T08:30:27.276Z</time>
      </trkpt>
      <trkpt lat="45.691917138174176" lon="17.69917451776564">
        <ele>170.74</ele>
        <time>2023-10-17T08:30:34.394Z</time>
      </trkpt>
      <trkpt lat="45.69192216731608" lon="17.699158089235425">
        <ele>170.72</ele>
        <time>2023-10-17T08:30:41.512Z</time>
      </trkpt>
      <trkpt lat="45.691926861181855" lon="17.699141828343272">
        <ele>170.7</ele>
        <time>2023-10-17T08:30:48.630Z</time>
      </trkpt>
      <trkpt lat="45.691931303590536" lon="17.699125902727246">
        <ele>170.68</ele>
        <time>2023-10-17T08:30:55.749Z</time>
      </trkpt>
      <trkpt lat="45.69193549454212" lon="17.699110647663474">
        <ele>170.67</ele>
        <time>2023-10-17T08:31:02.868Z</time>
      </trkpt>
      <trkpt lat="45.69193943403661" lon="17.699096063151956">
        <ele>170.66</ele>
        <time>2023-10-17T08:31:09.988Z</time>
      </trkpt>
      <trkpt lat="45.69194320589304" lon="17.699082484468818">
        <ele>170.66</ele>
        <time>2023-10-17T08:31:17.108Z</time>
      </trkpt>
      <trkpt lat="45.69194630719721" lon="17.699070246890187">
        <ele>170.66</ele>
        <time>2023-10-17T08:31:24.228Z</time>
      </trkpt>
      <trkpt lat="45.69194873794913" lon="17.69906010478735">
        <ele>170.66</ele>
        <time>2023-10-17T08:31:31.349Z</time>
      </trkpt>
      <trkpt lat="45.6919504981488" lon="17.69905180670321">
        <ele>170.66</ele>
        <time>2023-10-17T08:31:38.470Z</time>
      </trkpt>
      <trkpt lat="45.69195158779621" lon="17.699045687913895">
        <ele>170.67</ele>
        <time>2023-10-17T08:31:45.591Z</time>
      </trkpt>
      <trkpt lat="45.6919520907104" lon="17.699041664600372">
        <ele>170.69</ele>
        <time>2023-10-17T08:31:52.712Z</time>
      </trkpt>
      <trkpt lat="45.69195192307234" lon="17.699039988219738">
        <ele>170.7</ele>
        <time>2023-10-17T08:31:59.833Z</time>
      </trkpt>
      <trkpt lat="45.691951252520084" lon="17.699040323495865">
        <ele>170.72</ele>
        <time>2023-10-17T08:32:06.954Z</time>
      </trkpt>
      <trkpt lat="45.69194999523461" lon="17.699042838066816">
        <ele>170.74</ele>
        <time>2023-10-17T08:32:14.075Z</time>
      </trkpt>
      <trkpt lat="45.69194815121591" lon="17.69904736429453">
        <ele>170.77</ele>
        <time>2023-10-17T08:32:21.196Z</time>
      </trkpt>
      <trkpt lat="45.69194563664496" lon="17.69905373454094">
        <ele>170.79</ele>
        <time>2023-10-17T08:32:28.317Z</time>
      </trkpt>
      <trkpt lat="45.69194270297885" lon="17.699061948806047">
        <ele>170.83</ele>
        <time>2023-10-17T08:32:35.439Z</time>
      </trkpt>
      <trkpt lat="45.691939601674676" lon="17.699071587994695">
        <ele>170.86</ele>
        <time>2023-10-17T08:32:42.561Z</time>
      </trkpt>
      <trkpt lat="45.69193633273244" lon="17.699081981554627">
        <ele>170.89</ele>
        <time>2023-10-17T08:32:49.683Z</time>
      </trkpt>
      <trkpt lat="45.69193297997117" lon="17.699093129485846">
        <ele>170.93</ele>
        <time>2023-10-17T08:32:56.805Z</time>
      </trkpt>
      <trkpt lat="45.69192945957184" lon="17.699104780331254">
        <ele>170.97</ele>
        <time>2023-10-17T08:33:03.928Z</time>
      </trkpt>
      <trkpt lat="45.691925855353475" lon="17.699116598814726">
        <ele>171.02</ele>
        <time>2023-10-17T08:33:11.051Z</time>
      </trkpt>
      <trkpt lat="45.69192225113511" lon="17.699128668755293">
        <ele>171.06</ele>
        <time>2023-10-17T08:33:18.174Z</time>
      </trkpt>
      <trkpt lat="45.69191864691675" lon="17.699141073971987">
        <ele>171.11</ele>
        <time>2023-10-17T08:33:25.298Z</time>
      </trkpt>
      <trkpt lat="45.69191495887935" lon="17.699153730645776">
        <ele>171.16</ele>
        <time>2023-10-17T08:33:32.422Z</time>
      </trkpt>
      <trkpt lat="45.691911270841956" lon="17.69916655495763">
        <ele>171.21</ele>
        <time>2023-10-17T08:33:39.546Z</time>
      </trkpt>
      <trkpt lat="45.691907331347466" lon="17.69917988218367">
        <ele>171.26</ele>
        <time>2023-10-17T08:33:46.671Z</time>
      </trkpt>
      <trkpt lat="45.69190330803394" lon="17.69919346086681">
        <ele>171.31</ele>
        <time>2023-10-17T08:33:53.796Z</time>
      </trkpt>
      <trkpt lat="45.69189911708236" lon="17.699207374826074">
        <ele>171.37</ele>
        <time>2023-10-17T08:34:00.921Z</time>
      </trkpt>
      <trkpt lat="45.69189475849271" lon="17.69922128878534">
        <ele>171.43</ele>
        <time>2023-10-17T08:34:08.047Z</time>
      </trkpt>
      <trkpt lat="45.69189039990306" lon="17.699235705658793">
        <ele>171.49</ele>
        <time>2023-10-17T08:34:15.173Z</time>
      </trkpt>
      <trkpt lat="45.69188595749438" lon="17.699250290170312">
        <ele>171.55</ele>
        <time>2023-10-17T08:34:22.299Z</time>
      </trkpt>
      <trkpt lat="45.69188159890473" lon="17.699265461415052">
        <ele>171.61</ele>
        <time>2023-10-17T08:34:29.426Z</time>
      </trkpt>
      <trkpt lat="45.69187724031508" lon="17.69928105175495">
        <ele>171.67</ele>
        <time>2023-10-17T08:34:36.553Z</time>
      </trkpt>
      <trkpt lat="45.69187296554446" lon="17.69929714500904">
        <ele>171.74</ele>
        <time>2023-10-17T08:34:43.681Z</time>
      </trkpt>
      <trkpt lat="45.691868774592876" lon="17.699313489720225">
        <ele>171.8</ele>
        <time>2023-10-17T08:34:50.809Z</time>
      </trkpt>
      <trkpt lat="45.69186449982226" lon="17.69932991825044">
        <ele>171.87</ele>
        <time>2023-10-17T08:34:57.937Z</time>
      </trkpt>
      <trkpt lat="45.69186030887067" lon="17.69934651441872">
        <ele>171.94</ele>
        <time>2023-10-17T08:35:05.066Z</time>
      </trkpt>
      <trkpt lat="45.69185611791909" lon="17.699362859129906">
        <ele>172.01</ele>
        <time>2023-10-17T08:35:12.195Z</time>
      </trkpt>
      <trkpt lat="45.691852094605565" lon="17.69937912002206">
        <ele>172.08</ele>
        <time>2023-10-17T08:35:19.325Z</time>
      </trkpt>
      <trkpt lat="45.691848155111074" lon="17.699395548552275">
        <ele>172.15</ele>
        <time>2023-10-17T08:35:26.455Z</time>
      </trkpt>
      <trkpt lat="45.691844215616584" lon="17.699411641806364">
        <ele>172.22</ele>
        <time>2023-10-17T08:35:33.585Z</time>
      </trkpt>
      <trkpt lat="45.69184019230306" lon="17.69942765124142">
        <ele>172.29</ele>
        <time>2023-10-17T08:35:40.716Z</time>
      </trkpt>
      <trkpt lat="45.69183608517051" lon="17.699443325400352">
        <ele>172.36</ele>
        <time>2023-10-17T08:35:47.847Z</time>
      </trkpt>
      <trkpt lat="45.69183181039989" lon="17.69945832900703">
        <ele>172.43</ele>
        <time>2023-10-17T08:35:54.979Z</time>
      </trkpt>
      <trkpt lat="45.69182753562927" lon="17.69947249442339">
        <ele>172.5</ele>
        <time>2023-10-17T08:36:02.111Z</time>
      </trkpt>
      <trkpt lat="45.69182334467769" lon="17.6994857378304">
        <ele>172.58</ele>
        <time>2023-10-17T08:36:09.243Z</time>
      </trkpt>
      <trkpt lat="45.69181948900223" lon="17.699497807770967">
        <ele>172.65</ele>
        <time>2023-10-17T08:36:16.376Z</time>
      </trkpt>
      <trkpt lat="45.691815968602896" lon="17.699508871883154">
        <ele>172.72</ele>
        <time>2023-10-17T08:36:23.509Z</time>
      </trkpt>
      <trkpt lat="45.69181286729872" lon="17.699518762528896">
        <ele>172.79</ele>
        <time>2023-10-17T08:36:30.642Z</time>
      </trkpt>
      <trkpt lat="45.69181026890874" lon="17.69952773116529">
        <ele>172.87</ele>
        <time>2023-10-17T08:36:37.775Z</time>
      </trkpt>
      <trkpt lat="45.69180800579488" lon="17.69953602924943">
        <ele>172.94</ele>
        <time>2023-10-17T08:36:44.909Z</time>
      </trkpt>
      <trkpt lat="45.69180624559522" lon="17.69954390823841">
        <ele>173.01</ele>
        <time>2023-10-17T08:36:52.043Z</time>
      </trkpt>
      <trkpt lat="45.69180482067168" lon="17.69955111667514">
        <ele>173.08</ele>
        <time>2023-10-17T08:36:59.177Z</time>
      </trkpt>
      <trkpt lat="45.6918038148433" lon="17.699558157473803">
        <ele>173.15</ele>
        <time>2023-10-17T08:37:06.311Z</time>
      </trkpt>
      <trkpt lat="45.69180306047201" lon="17.699565952643752">
        <ele>173.22</ele>
        <time>2023-10-17T08:37:13.445Z</time>
      </trkpt>
      <trkpt lat="45.69180255755782" lon="17.699574502184987">
        <ele>173.29</ele>
        <time>2023-10-17T08:37:20.579Z</time>
      </trkpt>
      <trkpt lat="45.69180238991976" lon="17.699583722278476">
        <ele>173.36</ele>
        <time>2023-10-17T08:37:27.714Z</time>
      </trkpt>
      <trkpt lat="45.69180238991976" lon="17.69959378056228">
        <ele>173.43</ele>
        <time>2023-10-17T08:37:34.849Z</time>
      </trkpt>
      <trkpt lat="45.69180247373879" lon="17.699604760855436">
        <ele>173.49</ele>
        <time>2023-10-17T08:37:41.984Z</time>
      </trkpt>
      <trkpt lat="45.69180255755782" lon="17.69961674697697">
        <ele>173.56</ele>
        <time>2023-10-17T08:37:49.119Z</time>
      </trkpt>
      <trkpt lat="45.691802222281694" lon="17.699629487469792">
        <ele>173.63</ele>
        <time>2023-10-17T08:37:56.255Z</time>
      </trkpt>
      <trkpt lat="45.69180146791041" lon="17.699642311781645">
        <ele>173.69</ele>
        <time>2023-10-17T08:38:03.391Z</time>
      </trkpt>
      <trkpt lat="45.69180054590106" lon="17.69965471699834">
        <ele>173.75</ele>
        <time>2023-10-17T08:38:10.527Z</time>
      </trkpt>
      <trkpt lat="45.69179920479655" lon="17.699666367843747">
        <ele>173.82</ele>
        <time>2023-10-17T08:38:17.664Z</time>
      </trkpt>
      <trkpt lat="45.69179744459689" lon="17.69967676140368">
        <ele>173.88</ele>
        <time>2023-10-17T08:38:24.801Z</time>
      </trkpt>
      <trkpt lat="45.691795432940125" lon="17.699685310944915">
        <ele>173.94</ele>
        <time>2023-10-17T08:38:31.938Z</time>
      </trkpt>
      <trkpt lat="45.6917932536453" lon="17.69969193264842">
        <ele>174.0</ele>
        <time>2023-10-17T08:38:39.075Z</time>
      </trkpt>
      <trkpt lat="45.69179090671241" lon="17.699697129428387">
        <ele>174.05</ele>
        <time>2023-10-17T08:38:46.212Z</time>
      </trkpt>
      <trkpt lat="45.69178839214146" lon="17.699700817465782">
        <ele>174.11</ele>
        <time>2023-10-17T08:38:53.350Z</time>
      </trkpt>
      <trkpt lat="45.691785626113415" lon="17.69970308057964">
        <ele>174.17</ele>
        <time>2023-10-17T08:39:00.488Z</time>
      </trkpt>
      <trkpt lat="45.6917829439044" lon="17.699704002588987">
        <ele>174.22</ele>
        <time>2023-10-17T08:39:07.626Z</time>
      </trkpt>
      <trkpt lat="45.69178042933345" lon="17.699703751131892">
        <ele>174.27</ele>
        <time>2023-10-17T08:39:14.764Z</time>
      </trkpt>
      <trkpt lat="45.691778333857656" lon="17.69970266148448">
        <ele>174.32</ele>
        <time>2023-10-17T08:39:21.902Z</time>
      </trkpt>
      <trkpt lat="45.691776322200894" lon="17.699700817465782">
        <ele>174.37</ele>
        <time>2023-10-17T08:39:29.040Z</time>
      </trkpt>
      <trkpt lat="45.69177472963929" lon="17.699698889628053">
        <ele>174.41</ele>
        <time>2023-10-17T08:39:36.178Z</time>
      </trkpt>
      <trkpt lat="45.69177355617285" lon="17.699697045609355">
        <ele>174.46</ele>
        <time>2023-10-17T08:39:43.316Z</time>
      </trkpt>
      <trkpt lat="45.6917726341635" lon="17.69969528540969">
        <ele>174.5</ele>
        <time>2023-10-17T08:39:50.454Z</time>
      </trkpt>
      <trkpt lat="45.69177179597318" lon="17.699693692848086">
        <ele>174.54</ele>
        <time>2023-10-17T08:39:57.592Z</time>
      </trkpt>
      <trkpt lat="45.691770957782865" lon="17.699692016467452">
        <ele>174.58</ele>
        <time>2023-10-17T08:40:04.730Z</time>
      </trkpt>
      <trkpt lat="45.69177020341158" lon="17.699690256267786">
        <ele>174.62</ele>
        <time>2023-10-17T08:40:11.868Z</time>
      </trkpt>
      <trkpt lat="45.69176928140223" lon="17.699688160791993">
        <ele>174.65</ele>
        <time>2023-10-17T08:40:19.006Z</time>
      </trkpt>
      <trkpt lat="45.69176819175482" lon="17.699685897678137">
        <ele>174.69</ele>
        <time>2023-10-17T08:40:26.144Z</time>
      </trkpt>
      <trkpt lat="45.691767018288374" lon="17.699683466926217">
        <ele>174.72</ele>
        <time>2023-10-17T08:40:33.282Z</time>
      </trkpt>
      <trkpt lat="45.69176567718387" lon="17.699680868536234">
        <ele>174.75</ele>
        <time>2023-10-17T08:40:40.421Z</time>
      </trkpt>
      <trkpt lat="45.69176425226033" lon="17.69967818632722">
        <ele>174.78</ele>
        <time>2023-10-17T08:40:47.560Z</time>
      </trkpt>
      <trkpt lat="45.69176274351776" lon="17.69967533648014">
        <ele>174.8</ele>
        <time>2023-10-17T08:40:54.699Z</time>
      </trkpt>
      <trkpt lat="45.691761150956154" lon="17.699672486633062">
        <ele>174.83</ele>
        <time>2023-10-17T08:41:01.838Z</time>
      </trkpt>
      <trkpt lat="45.69175955839455" lon="17.699669552966952">
        <ele>174.85</ele>
        <time>2023-10-17T08:41:08.977Z</time>
      </trkpt>
      <trkpt lat="45.69175788201392" lon="17.699666619300842">
        <ele>174.87</ele>
        <time>2023-10-17T08:41:16.116Z</time>
      </trkpt>
      <trkpt lat="45.69175620563328" lon="17.699663853272796">
        <ele>174.89</ele>
        <time>2023-10-17T08:41:23.255Z</time>
      </trkpt>
      <trkpt lat="45.69175469689071" lon="17.699661338701844">
        <ele>174.91</ele>
        <time>2023-10-17T08:41:30.394Z</time>
      </trkpt>
      <trkpt lat="45.69175327196717" lon="17.699659327045083">
        <ele>174.92</ele>
        <time>2023-10-17T08:41:37.533Z</time>
      </trkpt>
      <trkpt lat="45.69175209850073" lon="17.699657818302512">
        <ele>174.94</ele>
        <time>2023-10-17T08:41:44.672Z</time>
      </trkpt>
      <trkpt lat="45.691751427948475" lon="17.69965681247413">
        <ele>174.95</ele>
        <time>2023-10-17T08:41:51.811Z</time>
      </trkpt>
      <trkpt lat="45.69175134412944" lon="17.699656393378973">
        <ele>174.96</ele>
        <time>2023-10-17T08:41:58.950Z</time>
      </trkpt>
      <trkpt lat="45.691751930862665" lon="17.699656393378973">
        <ele>174.96</ele>
        <time>2023-10-17T08:42:06.089Z</time>
      </trkpt>
      <trkpt lat="45.691753355786204" lon="17.699657063931227">
        <ele>174.97</ele>
        <time>2023-10-17T08:42:13.228Z</time>
      </trkpt>
      <trkpt lat="45.69175553508103" lon="17.699658321216702">
        <ele>174.97</ele>
        <time>2023-10-17T08:42:20.367Z</time>
      </trkpt>
      <trkpt lat="45.69175855256617" lon="17.699660249054432">
        <ele>174.97</ele>
        <time>2023-10-17T08:42:27.507Z</time>
      </trkpt>
      <trkpt lat="45.6917623244226" lon="17.699662763625383">
        <ele>174.97</ele>
        <time>2023-10-17T08:42:34.647Z</time>
      </trkpt>
      <trkpt lat="45.69176685065031" lon="17.69966603256762">
        <ele>174.96</ele>
        <time>2023-10-17T08:42:41.787Z</time>
      </trkpt>
      <trkpt lat="45.69177221506834" lon="17.69966997206211">
        <ele>174.96</ele>
        <time>2023-10-17T08:42:48.927Z</time>
      </trkpt>
      <trkpt lat="45.69177816621959" lon="17.69967433065176">
        <ele>174.95</ele>
        <time>2023-10-17T08:42:56.067Z</time>
      </trkpt>
      <trkpt lat="45.691784704104066" lon="17.69967877306044">
        <ele>174.94</ele>
        <time>2023-10-17T08:43:03.208Z</time>
      </trkpt>
      <trkpt lat="45.69179124198854" lon="17.69968313165009">
        <ele>174.93</ele>
        <time>2023-10-17T08:43:10.349Z</time>
      </trkpt>
      <trkpt lat="45.69179752841592" lon="17.699687322601676">
        <ele>174.91</ele>
        <time>2023-10-17T08:43:17.490Z</time>
      </trkpt>
      <trkpt lat="45.69180339574814" lon="17.699691262096167">
        <ele>174.89</ele>
        <time>2023-10-17T08:43:24.631Z</time>
      </trkpt>
      <trkpt lat="45.691808592528105" lon="17.6996947824955">
        <ele>174.88</ele>
        <time>2023-10-17T08:43:31.772Z</time>
      </trkpt>
      <trkpt lat="45.69181320257485" lon="17.699698051437736">
        <ele>174.86</ele>
        <time>2023-10-17T08:43:38.914Z</time>
      </trkpt>
      <trkpt lat="45.69181714206934" lon="17.69970064982772">
        <ele>174.83</ele>
        <time>2023-10-17T08:43:46.056Z</time>
      </trkpt>
      <trkpt lat="45.69182041101158" lon="17.699702829122543">
        <ele>174.81</ele>
        <time>2023-10-17T08:43:53.198Z</time>
      </trkpt>
      <trkpt lat="45.69182300940156" lon="17.699704421684146">
        <ele>174.78</ele>
        <time>2023-10-17T08:44:00.340Z</time>
      </trkpt>
      <trkpt lat="45.69182485342026" lon="17.699705343693495">
        <ele>174.75</ele>
        <time>2023-10-17T08:44:07.482Z</time>
      </trkpt>
      <trkpt lat="45.6918260268867" lon="17.699705762788653">
        <ele>174.72</ele>
        <time>2023-10-17T08:44:14.624Z</time>
      </trkpt>
      <trkpt lat="45.69182678125799" lon="17.69970601424575">
        <ele>174.69</ele>
        <time>2023-10-17T08:44:21.766Z</time>
      </trkpt>
      <trkpt lat="45.691827200353146" lon="17.69970609806478">
        <ele>174.66</ele>
        <time>2023-10-17T08:44:28.908Z</time>
      </trkpt>
      <trkpt lat="45.69182745181024" lon="17.699706181883812">
        <ele>174.62</ele>
        <time>2023-10-17T08:44:36.050Z</time>
      </trkpt>
      <trkpt lat="45.691827619448304" lon="17.699706181883812">
        <ele>174.58</ele>
        <time>2023-10-17T08:44:43.192Z</time>
      </trkpt>
      <trkpt lat="45.691827703267336" lon="17.69970609806478">
        <ele>174.54</ele>
        <time>2023-10-17T08:44:50.334Z</time>
      </trkpt>
      <trkpt lat="45.691827703267336" lon="17.69970601424575">
        <ele>174.5</ele>
        <time>2023-10-17T08:44:57.476Z</time>
      </trkpt>
      <trkpt lat="45.69182795472443" lon="17.69970609806478">
        <ele>174.46</ele>
        <time>2023-10-17T08:45:04.618Z</time>
      </trkpt>
      <trkpt lat="45.691828625276685" lon="17.699706684798002">
        <ele>174.41</ele>
        <time>2023-10-17T08:45:11.760Z</time>
      </trkpt>
      <trkpt lat="45.691829631105065" lon="17.69970760680735">
        <ele>174.36</ele>
        <time>2023-10-17T08:45:18.902Z</time>
      </trkpt>
      <trkpt lat="45.69183122366667" lon="17.69970903173089">
        <ele>174.31</ele>
        <time>2023-10-17T08:45:26.044Z</time>
      </trkpt>
      <trkpt lat="45.691833570599556" lon="17.69971104338765">
        <ele>174.26</ele>
        <time>2023-10-17T08:45:33.186Z</time>
      </trkpt>
      <trkpt lat="45.691836923360825" lon="17.699713557958603">
        <ele>174.2</ele>
        <time>2023-10-17T08:45:40.328Z</time>
      </trkpt>
      <trkpt lat="45.691841365769506" lon="17.699716743081808">
        <ele>174.15</ele>
        <time>2023-10-17T08:45:47.471Z</time>
      </trkpt>
      <trkpt lat="45.69184681400657" lon="17.6997206825763">
        <ele>174.09</ele>
        <time>2023-10-17T08:45:54.614Z</time>
      </trkpt>
      <trkpt lat="45.69185318425298" lon="17.69972512498498">
        <ele>174.02</ele>
        <time>2023-10-17T08:46:01.757Z</time>
      </trkpt>
      <trkpt lat="45.69186056032777" lon="17.69973057322204">
        <ele>173.96</ele>
        <time>2023-10-17T08:46:08.900Z</time>
      </trkpt>
      <trkpt lat="45.691869109869" lon="17.699737111106515">
        <ele>173.89</ele>
        <time>2023-10-17T08:46:16.044Z</time>
      </trkpt>
      <trkpt lat="45.69187832996249" lon="17.699744403362274">
        <ele>173.82</ele>
        <time>2023-10-17T08:46:23.188Z</time>
      </trkpt>
      <trkpt lat="45.691888304427266" lon="17.69975244998932">
        <ele>173.75</ele>
        <time>2023-10-17T08:46:30.332Z</time>
      </trkpt>
      <trkpt lat="45.69189878180623" lon="17.699760915711522">
        <ele>173.68</ele>
        <time>2023-10-17T08:46:37.477Z</time>
      </trkpt>
      <trkpt lat="45.691909762099385" lon="17.699769716709852">
        <ele>173.6</ele>
        <time>2023-10-17T08:46:44.622Z</time>
      </trkpt>
      <trkpt lat="45.6919209100306" lon="17.699778769165277">
        <ele>173.53</ele>
        <time>2023-10-17T08:46:51.768Z</time>
      </trkpt>
      <trkpt lat="45.691932225599885" lon="17.69978815689683">
        <ele>173.45</ele>
        <time>2023-10-17T08:46:58.914Z</time>
      </trkpt>
      <trkpt lat="45.6919436249882" lon="17.699797712266445">
        <ele>173.37</ele>
        <time>2023-10-17T08:47:06.061Z</time>
      </trkpt>
      <trkpt lat="45.69195502437651" lon="17.69980726763606">
        <ele>173.28</ele>
        <time>2023-10-17T08:47:13.208Z</time>
      </trkpt>
      <trkpt lat="45.69196659140289" lon="17.69981707446277">
        <ele>173.2</ele>
        <time>2023-10-17T08:47:20.355Z</time>
      </trkpt>
      <trkpt lat="45.69197840988636" lon="17.699826629832387">
        <ele>173.11</ele>
        <time>2023-10-17T08:47:27.503Z</time>
      </trkpt>
      <trkpt lat="45.69199022836983" lon="17.699835682287812">
        <ele>173.02</ele>
        <time>2023-10-17T08:47:34.651Z</time>
      </trkpt>
      <trkpt lat="45.6920022983104" lon="17.69984431564808">
        <ele>172.93</ele>
        <time>2023-10-17T08:47:41.800Z</time>
      </trkpt>
      <trkpt lat="45.69201445207" lon="17.699852278456092">
        <ele>172.84</ele>
        <time>2023-10-17T08:47:48.949Z</time>
      </trkpt>
      <trkpt lat="45.69202668964863" lon="17.699859822168946">
        <ele>172.75</ele>
        <time>2023-10-17T08:47:56.099Z</time>
      </trkpt>
      <trkpt lat="45.69203901104629" lon="17.69986686296761">
        <ele>172.65</ele>
        <time>2023-10-17T08:48:03.249Z</time>
      </trkpt>
      <trkpt lat="45.692051416262984" lon="17.699873484671116">
        <ele>172.56</ele>
        <time>2023-10-17T08:48:10.400Z</time>
      </trkpt>
      <trkpt lat="45.69206382147968" lon="17.6998795196414">
        <ele>172.46</ele>
        <time>2023-10-17T08:48:17.551Z</time>
      </trkpt>
      <trkpt lat="45.69207622669637" lon="17.699885051697493">
        <ele>172.36</ele>
        <time>2023-10-17T08:48:24.702Z</time>
      </trkpt>
      <trkpt lat="45.692088631913066" lon="17.699889913201332">
        <ele>172.26</ele>
        <time>2023-10-17T08:48:31.854Z</time>
      </trkpt>
      <trkpt lat="45.69210103712976" lon="17.699893936514854">
        <ele>172.15</ele>
        <time>2023-10-17T08:48:39.006Z</time>
      </trkpt>
      <trkpt lat="45.69211335852742" lon="17.699897037819028">
        <ele>172.05</ele>
        <time>2023-10-17T08:48:46.159Z</time>
      </trkpt>
      <trkpt lat="45.69212551228702" lon="17.699898965656757">
        <ele>171.94</ele>
        <time>2023-10-17T08:48:53.312Z</time>
      </trkpt>
      <trkpt lat="45.69213766604662" lon="17.699899720028043">
        <ele>171.83</ele>
        <time>2023-10-17T08:49:00.466Z</time>
      </trkpt>
      <trkpt lat="45.692149652168155" lon="17.69989913329482">
        <ele>171.72</ele>
        <time>2023-10-17T08:49:07.620Z</time>
      </trkpt>
      <trkpt lat="45.69216155447066" lon="17.69989712163806">
        <ele>171.6</ele>
        <time>2023-10-17T08:49:14.774Z</time>
      </trkpt>
      <trkpt lat="45.69217337295413" lon="17.69989376887679">
        <ele>171.49</ele>
        <time>2023-10-17T08:49:21.929Z</time>
      </trkpt>
      <trkpt lat="45.69218502379954" lon="17.699889075011015">
        <ele>171.37</ele>
        <time>2023-10-17T08:49:29.084Z</time>
      </trkpt>
      <trkpt lat="45.69219642318785" lon="17.699882872402668">
        <ele>171.25</ele>
        <time>2023-10-17T08:49:36.240Z</time>
      </trkpt>
      <trkpt lat="45.69220757111907" lon="17.699875244870782">
        <ele>171.13</ele>
        <time>2023-10-17T08:49:43.396Z</time>
      </trkpt>
      <trkpt lat="45.69221838377416" lon="17.69986627623439">
        <ele>171.01</ele>
        <time>2023-10-17T08:49:50.552Z</time>
      </trkpt>
      <trkpt lat="45.692228861153126" lon="17.699856217950583">
        <ele>170.88</ele>
        <time>2023-10-17T08:49:57.709Z</time>
      </trkpt>
      <trkpt lat="45.69223900325596" lon="17.699845237657428">
        <ele>170.76</ele>
        <time>2023-10-17T08:50:04.866Z</time>
      </trkpt>
      <trkpt lat="45.692248810082674" lon="17.69983367063105">
        <ele>170.63</ele>
        <time>2023-10-17T08:50:12.024Z</time>
      </trkpt>
      <trkpt lat="45.692258197814226" lon="17.69982185214758">
        <ele>170.51</ele>
        <time>2023-10-17T08:50:19.182Z</time>
      </trkpt>
      <trkpt lat="45.69226725026965" lon="17.699809949845076">
        <ele>170.38</ele>
        <time>2023-10-17T08:50:26.340Z</time>
      </trkpt>
      <trkpt lat="45.69227605126798" lon="17.69979796372354">
        <ele>170.25</ele>
        <time>2023-10-17T08:50:33.499Z</time>
      </trkpt>
      <trkpt lat="45.69228460080922" lon="17.699786061421037">
        <ele>170.12</ele>
        <time>2023-10-17T08:50:40.658Z</time>
      </trkpt>
      <trkpt lat="45.69229298271239" lon="17.699774326756597">
        <ele>170.0</ele>
        <time>2023-10-17T08:50:47.818Z</time>
      </trkpt>
      <trkpt lat="45.69230136461556" lon="17.69976284354925">
        <ele>169.87</ele>
        <time>2023-10-17T08:50:54.978Z</time>
      </trkpt>
      <trkpt lat="45.69230983033776" lon="17.69975152797997">
        <ele>169.74</ele>
        <time>2023-10-17T08:51:02.138Z</time>
      </trkpt>
      <trkpt lat="45.692318379879" lon="17.699740463867784">
        <ele>169.61</ele>
        <time>2023-10-17T08:51:09.299Z</time>
      </trkpt>
      <trkpt lat="45.692327013239264" lon="17.699729651212692">
        <ele>169.48</ele>
        <time>2023-10-17T08:51:16.460Z</time>
      </trkpt>
      <trkpt lat="45.692335814237595" lon="17.699719006195664">
        <ele>169.35</ele>
        <time>2023-10-17T08:51:23.622Z</time>
      </trkpt>
      <trkpt lat="45.69234453141689" lon="17.699708361178637">
        <ele>169.22</ele>
        <time>2023-10-17T08:51:30.784Z</time>
      </trkpt>
      <trkpt lat="45.69235324859619" lon="17.69969771616161">
        <ele>169.09</ele>
        <time>2023-10-17T08:51:37.946Z</time>
      </trkpt>
      <trkpt lat="45.69236188195646" lon="17.699686903506517">
        <ele>168.96</ele>
        <time>2023-10-17T08:51:45.109Z</time>
      </trkpt>
      <trkpt lat="45.692370515316725" lon="17.699675923213363">
        <ele>168.83</ele>
        <time>2023-10-17T08:51:52.272Z</time>
      </trkpt>
      <trkpt lat="45.69237906485796" lon="17.69966460764408">
        <ele>168.7</ele>
        <time>2023-10-17T08:51:59.435Z</time>
      </trkpt>
      <trkpt lat="45.69238744676113" lon="17.699653208255768">
        <ele>168.56</ele>
        <time>2023-10-17T08:52:06.599Z</time>
      </trkpt>
      <trkpt lat="45.69239566102624" lon="17.699641892686486">
        <ele>168.43</ele>
        <time>2023-10-17T08:52:13.763Z</time>
      </trkpt>
      <trkpt lat="45.69240345619619" lon="17.699630660936236">
        <ele>168.3</ele>
        <time>2023-10-17T08:52:20.928Z</time>
      </trkpt>
      <trkpt lat="45.69241083227098" lon="17.69961968064308">
        <ele>168.16</ele>
        <time>2023-10-17T08:52:28.093Z</time>
      </trkpt>
      <trkpt lat="45.69241770543158" lon="17.69960878416896">
        <ele>168.03</ele>
        <time>2023-10-17T08:52:35.258Z</time>
      </trkpt>
      <trkpt lat="45.69242415949702" lon="17.699597971513867">
        <ele>167.89</ele>
        <time>2023-10-17T08:52:42.424Z</time>
      </trkpt>
      <trkpt lat="45.69243036210537" lon="17.699587075039744">
        <ele>167.76</ele>
        <time>2023-10-17T08:52:49.590Z</time>
      </trkpt>
      <trkpt lat="45.692436480894685" lon="17.699575927108526">
        <ele>167.62</ele>
        <time>2023-10-17T08:52:56.756Z</time>
      </trkpt>
      <trkpt lat="45.69244251586497" lon="17.699564695358276">
        <ele>167.49</ele>
        <time>2023-10-17T08:53:03.923Z</time>
      </trkpt>
      <trkpt lat="45.69244863465428" lon="17.69955321215093">
        <ele>167.35</ele>
        <time>2023-10-17T08:53:11.090Z</time>
      </trkpt>
      <trkpt lat="45.6924547534436" lon="17.69954147748649">
        <ele>167.22</ele>
        <time>2023-10-17T08:53:18.257Z</time>
      </trkpt>
      <trkpt lat="45.69246070459485" lon="17.69952923990786">
        <ele>167.08</ele>
        <time>2023-10-17T08:53:25.425Z</time>
      </trkpt>
      <trkpt lat="45.69246648810804" lon="17.69951641559601">
        <ele>166.94</ele>
        <time>2023-10-17T08:53:32.593Z</time>
      </trkpt>
      <trkpt lat="45.692472103983164" lon="17.69950275309384">
        <ele>166.81</ele>
        <time>2023-10-17T08:53:39.761Z</time>
      </trkpt>
      <trkpt lat="45.69247738458216" lon="17.699488336220384">
        <ele>166.67</ele>
        <time>2023-10-17T08:53:46.930Z</time>
      </trkpt>
      <trkpt lat="45.692482246086" lon="17.699473248794675">
        <ele>166.54</ele>
        <time>2023-10-17T08:53:54.099Z</time>
      </trkpt>
      <trkpt lat="45.69248652085662" lon="17.699457574635744">
        <ele>166.4</ele>
        <time>2023-10-17T08:54:01.269Z</time>
      </trkpt>
      <trkpt lat="45.69248995743692" lon="17.699441565200686">
        <ele>166.27</ele>
        <time>2023-10-17T08:54:08.439Z</time>
      </trkpt>
      <trkpt lat="45.692492639645934" lon="17.69942513667047">
        <ele>166.13</ele>
        <time>2023-10-17T08:54:15.609Z</time>
      </trkpt>
      <trkpt lat="45.69249423220754" lon="17.699408624321222">
        <ele>165.99</ele>
        <time>2023-10-17T08:54:22.780Z</time>
      </trkpt>
      <trkpt lat="45.69249490275979" lon="17.699392028152943">
        <ele>165.86</ele>
        <time>2023-10-17T08:54:29.951Z</time>
      </trkpt>
      <trkpt lat="45.692494651302695" lon="17.699375515803695">
        <ele>165.72</ele>
        <time>2023-10-17T08:54:37.123Z</time>
      </trkpt>
      <trkpt lat="45.69249347783625" lon="17.69935917109251">
        <ele>165.58</ele>
        <time>2023-10-17T08:54:44.295Z</time>
      </trkpt>
      <trkpt lat="45.69249146617949" lon="17.69934307783842">
        <ele>165.44</ele>
        <time>2023-10-17T08:54:51.467Z</time>
      </trkpt>
      <trkpt lat="45.69248870015144" lon="17.699327152222395">
        <ele>165.31</ele>
        <time>2023-10-17T08:54:58.640Z</time>
      </trkpt>
      <trkpt lat="45.69248551502824" lon="17.699311394244432">
        <ele>165.17</ele>
        <time>2023-10-17T08:55:05.813Z</time>
      </trkpt>
      <trkpt lat="45.69248182699084" lon="17.699295803904533">
        <ele>165.03</ele>
        <time>2023-10-17T08:55:12.986Z</time>
      </trkpt>
      <trkpt lat="45.692477971315384" lon="17.699280381202698">
        <ele>164.9</ele>
        <time>2023-10-17T08:55:20.160Z</time>
      </trkpt>
      <trkpt lat="45.69247394800186" lon="17.699265126138926">
        <ele>164.76</ele>
        <time>2023-10-17T08:55:27.334Z</time>
      </trkpt>
      <trkpt lat="45.692469673231244" lon="17.69925012253225">
        <ele>164.63</ele>
        <time>2023-10-17T08:55:34.509Z</time>
      </trkpt>
      <trkpt lat="45.692465314641595" lon="17.699235286563635">
        <ele>164.49</ele>
        <time>2023-10-17T08:55:41.684Z</time>
      </trkpt>
      <trkpt lat="45.692460872232914" lon="17.699220534414053">
        <ele>164.36</ele>
        <time>2023-10-17T08:55:48.859Z</time>
      </trkpt>
      <trkpt lat="45.692456513643265" lon="17.699205866083503">
        <ele>164.22</ele>
        <time>2023-10-17T08:55:56.035Z</time>
      </trkpt>
      <trkpt lat="45.69245223887265" lon="17.699191365391016">
        <ele>164.09</ele>
        <time>2023-10-17T08:56:03.211Z</time>
      </trkpt>
      <trkpt lat="45.69244804792106" lon="17.69917694851756">
        <ele>163.96</ele>
        <time>2023-10-17T08:56:10.387Z</time>
      </trkpt>
      <trkpt lat="45.69244402460754" lon="17.699162866920233">
        <ele>163.83</ele>
        <time>2023-10-17T08:56:17.564Z</time>
      </trkpt>
      <trkpt lat="45.69244025275111" lon="17.699148952960968">
        <ele>163.69</ele>
        <time>2023-10-17T08:56:24.741Z</time>
      </trkpt>
      <trkpt lat="45.69243656471372" lon="17.6991352904588">
        <ele>163.56</ele>
        <time>2023-10-17T08:56:31.918Z</time>
      </trkpt>
      <trkpt lat="45.692433128133416" lon="17.699121879413724">
        <ele>163.43</ele>
        <time>2023-10-17T08:56:39.096Z</time>
      </trkpt>
      <trkpt lat="45.69242977537215" lon="17.699108803644776">
        <ele>163.29</ele>
        <time>2023-10-17T08:56:46.274Z</time>
      </trkpt>
      <trkpt lat="45.69242659024894" lon="17.699096063151956">
        <ele>163.16</ele>
        <time>2023-10-17T08:56:53.452Z</time>
      </trkpt>
      <trkpt lat="45.6924235727638" lon="17.699083825573325">
        <ele>163.02</ele>
        <time>2023-10-17T08:57:00.631Z</time>
      </trkpt>
      <trkpt lat="45.69242063909769" lon="17.69907225854695">
        <ele>162.89</ele>
        <time>2023-10-17T08:57:07.810Z</time>
      </trkpt>
      <trkpt lat="45.69241778925061" lon="17.69906111061573">
        <ele>162.75</ele>
        <time>2023-10-17T08:57:14.989Z</time>
      </trkpt>
      <trkpt lat="45.6924151070416" lon="17.699050549417734">
        <ele>162.61</ele>
        <time>2023-10-17T08:57:22.169Z</time>
      </trkpt>
      <trkpt lat="45.692412508651614" lon="17.699040323495865">
        <ele>162.48</ele>
        <time>2023-10-17T08:57:29.349Z</time>
      </trkpt>
      <trkpt lat="45.692410161718726" lon="17.69903026521206">
        <ele>162.34</ele>
        <time>2023-10-17T08:57:36.529Z</time>
      </trkpt>
      <trkpt lat="45.692408233881" lon="17.699020290747285">
        <ele>162.2</ele>
        <time>2023-10-17T08:57:43.709Z</time>
      </trkpt>
      <trkpt lat="45.69240689277649" lon="17.699010148644447">
        <ele>162.06</ele>
        <time>2023-10-17T08:57:50.890Z</time>
      </trkpt>
      <trkpt lat="45.692406222224236" lon="17.698999922722578">
        <ele>161.92</ele>
        <time>2023-10-17T08:57:58.071Z</time>
      </trkpt>
      <trkpt lat="45.69240647368133" lon="17.69898927770555">
        <ele>161.77</ele>
        <time>2023-10-17T08:58:05.252Z</time>
      </trkpt>
      <trkpt lat="45.692407730966806" lon="17.698978297412395">
        <ele>161.63</ele>
        <time>2023-10-17T08:58:12.433Z</time>
      </trkpt>
      <trkpt lat="45.6924098264426" lon="17.69896681420505">
        <ele>161.49</ele>
        <time>2023-10-17T08:58:19.615Z</time>
      </trkpt>
      <trkpt lat="45.692413011565804" lon="17.69895466044545">
        <ele>161.34</ele>
        <time>2023-10-17T08:58:26.797Z</time>
      </trkpt>
      <trkpt lat="45.69241720251739" lon="17.698942003771663">
        <ele>161.19</ele>
        <time>2023-10-17T08:58:33.979Z</time>
      </trkpt>
      <trkpt lat="45.69242248311639" lon="17.698928928002715">
        <ele>161.04</ele>
        <time>2023-10-17T08:58:41.162Z</time>
      </trkpt>
      <trkpt lat="45.69242893718183" lon="17.698915684595704">
        <ele>160.9</ele>
        <time>2023-10-17T08:58:48.345Z</time>
      </trkpt>
      <trkpt lat="45.692436480894685" lon="17.698902525007725">
        <ele>160.75</ele>
        <time>2023-10-17T08:58:55.528Z</time>
      </trkpt>
      <trkpt lat="45.69244494661689" lon="17.69888961687684">
        <ele>160.6</ele>
        <time>2023-10-17T08:59:02.712Z</time>
      </trkpt>
      <trkpt lat="45.69245399907231" lon="17.698876708745956">
        <ele>160.45</ele>
        <time>2023-10-17T08:59:09.896Z</time>
      </trkpt>
      <trkpt lat="45.69246355444193" lon="17.698863800615072">
        <ele>160.29</ele>
        <time>2023-10-17T08:59:17.081Z</time>
      </trkpt>
      <trkpt lat="45.69247344508767" lon="17.698850892484188">
        <ele>160.14</ele>
        <time>2023-10-17T08:59:24.266Z</time>
      </trkpt>
      <trkpt lat="45.692483419552445" lon="17.698837984353304">
        <ele>159.99</ele>
        <time>2023-10-17T08:59:31.452Z</time>
      </trkpt>
      <trkpt lat="45.69249356165528" lon="17.69882516004145">
        <ele>159.83</ele>
        <time>2023-10-17T08:59:38.638Z</time>
      </trkpt>
      <trkpt lat="45.69250370375812" lon="17.6988123357296">
        <ele>159.68</ele>
        <time>2023-10-17T08:59:45.824Z</time>
      </trkpt>
      <trkpt lat="45.69251384586096" lon="17.69879967905581">
        <ele>159.53</ele>
        <time>2023-10-17T08:59:53.011Z</time>
      </trkpt>
      <trkpt lat="45.6925237365067" lon="17.698786770924926">
        <ele>159.37</ele>
        <time>2023-10-17T09:00:00.198Z</time>
      </trkpt>
      <trkpt lat="45.692533291876316" lon="17.698773611336946">
        <ele>159.22</ele>
        <time>2023-10-17T09:00:07.386Z</time>
      </trkpt>
      <trkpt lat="45.692542511969805" lon="17.69876003265381">
        <ele>159.06</ele>
        <time>2023-10-17T09:00:14.574Z</time>
      </trkpt>
      <trkpt lat="45.6925512291491" lon="17.698746118694544">
        <ele>158.9</ele>
        <time>2023-10-17T09:00:21.763Z</time>
      </trkpt>
      <trkpt lat="45.692559611052275" lon="17.698731869459152">
        <ele>158.75</ele>
        <time>2023-10-17T09:00:28.952Z</time>
      </trkpt>
      <trkpt lat="45.69256782531738" lon="17.69871753640473">
        <ele>158.6</ele>
        <time>2023-10-17T09:00:36.142Z</time>
      </trkpt>
      <trkpt lat="45.692575704306364" lon="17.69870295189321">
        <ele>158.44</ele>
        <time>2023-10-17T09:00:43.332Z</time>
      </trkpt>
      <trkpt lat="45.69258341565728" lon="17.69868828356266">
        <ele>158.29</ele>
        <time>2023-10-17T09:00:50.522Z</time>
      </trkpt>
      <trkpt lat="45.69259079173207" lon="17.69867319613695">
        <ele>158.13</ele>
        <time>2023-10-17T09:00:57.713Z</time>
      </trkpt>
      <trkpt lat="45.69259791634977" lon="17.698657857254148">
        <ele>157.98</ele>
        <time>2023-10-17T09:01:04.904Z</time>
      </trkpt>
      <trkpt lat="45.692604538053274" lon="17.698642099276185">
        <ele>157.83</ele>
        <time>2023-10-17T09:01:12.096Z</time>
      </trkpt>
      <trkpt lat="45.692610908299685" lon="17.698625922203064">
        <ele>157.67</ele>
        <time>2023-10-17T09:01:19.288Z</time>
      </trkpt>
      <trkpt lat="45.692617027089" lon="17.69860957749188">
        <ele>157.52</ele>
        <time>2023-10-17T09:01:26.481Z</time>
      </trkpt>
      <trkpt lat="45.69262281060219" lon="17.6985929813236">
        <ele>157.37</ele>
        <time>2023-10-17T09:01:33.674Z</time>
      </trkpt>
      <trkpt lat="45.692628510296345" lon="17.698576217517257">
        <ele>157.22</ele>
        <time>2023-10-17T09:01:40.867Z</time>
      </trkpt>
      <trkpt lat="45.69263404235244" lon="17.698559369891882">
        <ele>157.06</ele>
        <time>2023-10-17T09:01:48.061Z</time>
      </trkpt>
      <trkpt lat="45.69263940677047" lon="17.69854260608554">
        <ele>156.91</ele>
        <time>2023-10-17T09:01:55.255Z</time>
      </trkpt>
      <trkpt lat="45.692644603550434" lon="17.698525758460164">
        <ele>156.76</ele>
        <time>2023-10-17T09:02:02.450Z</time>
      </trkpt>
      <trkpt lat="45.69264971651137" lon="17.698509078472853">
        <ele>156.61</ele>
        <time>2023-10-17T09:02:09.645Z</time>
      </trkpt>
      <trkpt lat="45.69265474565327" lon="17.698492482304573">
        <ele>156.46</ele>
        <time>2023-10-17T09:02:16.841Z</time>
      </trkpt>
      <trkpt lat="45.69265969097614" lon="17.698476053774357">
        <ele>156.3</ele>
        <time>2023-10-17T09:02:24.037Z</time>
      </trkpt>
      <trkpt lat="45.69266488775611" lon="17.698459709063172">
        <ele>156.15</ele>
        <time>2023-10-17T09:02:31.233Z</time>
      </trkpt>
      <trkpt lat="45.69267016835511" lon="17.69844353199005">
        <ele>156.0</ele>
        <time>2023-10-17T09:02:38.430Z</time>
      </trkpt>
      <trkpt lat="45.69267578423023" lon="17.698427522554994">
        <ele>155.84</ele>
        <time>2023-10-17T09:02:45.627Z</time>
      </trkpt>
      <trkpt lat="45.69268165156245" lon="17.698411680758">
        <ele>155.69</ele>
        <time>2023-10-17T09:02:52.825Z</time>
      </trkpt>
      <trkpt lat="45.69268793798983" lon="17.69839600659907">
        <ele>155.53</ele>
        <time>2023-10-17T09:03:00.023Z</time>
      </trkpt>
      <trkpt lat="45.692694475874305" lon="17.698380667716265">
        <ele>155.38</ele>
        <time>2023-10-17T09:03:07.221Z</time>
      </trkpt>
      <trkpt lat="45.69270143285394" lon="17.698365664109588">
        <ele>155.23</ele>
        <time>2023-10-17T09:03:14.420Z</time>
      </trkpt>
      <trkpt lat="45.69270880892873" lon="17.698350911960006">
        <ele>155.07</ele>
        <time>2023-10-17T09:03:21.619Z</time>
      </trkpt>
      <trkpt lat="45.692716520279646" lon="17.69833641126752">
        <ele>154.92</ele>
        <time>2023-10-17T09:03:28.819Z</time>
      </trkpt>
      <trkpt lat="45.69272465072572" lon="17.69832224585116">
        <ele>154.77</ele>
        <time>2023-10-17T09:03:36.019Z</time>
      </trkpt>
      <trkpt lat="45.69273336790502" lon="17.698308415710926">
        <ele>154.61</ele>
        <time>2023-10-17T09:03:43.220Z</time>
      </trkpt>
      <trkpt lat="45.69274250417948" lon="17.69829500466585">
        <ele>154.46</ele>
        <time>2023-10-17T09:03:50.421Z</time>
      </trkpt>
      <trkpt lat="45.692752143368125" lon="17.698282180354">
        <ele>154.31</ele>
        <time>2023-10-17T09:03:57.622Z</time>
      </trkpt>
      <trkpt lat="45.69276220165193" lon="17.6982700265944">
        <ele>154.16</ele>
        <time>2023-10-17T09:04:04.824Z</time>
      </trkpt>
      <trkpt lat="45.69277276284993" lon="17.698258543387055">
        <ele>154.01</ele>
        <time>2023-10-17T09:04:12.026Z</time>
      </trkpt>
      <trkpt lat="45.69278365932405" lon="17.698247814550996">
        <ele>153.86</ele>
        <time>2023-10-17T09:04:19.229Z</time>
      </trkpt>
      <trkpt lat="45.6927948910743" lon="17.698237923905253">
        <ele>153.71</ele>
        <time>2023-10-17T09:04:26.432Z</time>
      </trkpt>
      <trkpt lat="45.69280654191971" lon="17.698228787630796">
        <ele>153.56</ele>
        <time>2023-10-17T09:04:33.636Z</time>
      </trkpt>
      <trkpt lat="45.692818528041244" lon="17.698220489546657">
        <ele>153.42</ele>
        <time>2023-10-17T09:04:40.840Z</time>
      </trkpt>
      <trkpt lat="45.692830765619874" lon="17.698213029652834">
        <ele>153.27</ele>
        <time>2023-10-17T09:04:48.045Z</time>
      </trkpt>
      <trkpt lat="45.6928432546556" lon="17.69820640794933">
        <ele>153.12</ele>
        <time>2023-10-17T09:04:55.250Z</time>
      </trkpt>
      <trkpt lat="45.69285582751036" lon="17.69820070825517">
        <ele>152.98</ele>
        <time>2023-10-17T09:05:02.455Z</time>
      </trkpt>
      <trkpt lat="45.692868400365114" lon="17.69819567911327">
        <ele>152.84</ele>
        <time>2023-10-17T09:05:09.661Z</time>
      </trkpt>
      <trkpt lat="45.6928810570389" lon="17.698191236704588">
        <ele>152.7</ele>
        <time>2023-10-17T09:05:16.867Z</time>
      </trkpt>
      <trkpt lat="45.69289371371269" lon="17.698187213391066">
        <ele>152.56</ele>
        <time>2023-10-17T09:05:24.074Z</time>
      </trkpt>
      <trkpt lat="45.69290637038648" lon="17.69818352535367">
        <ele>152.42</ele>
        <time>2023-10-17T09:05:31.281Z</time>
      </trkpt>
      <trkpt lat="45.6929191108793" lon="17.698179921135306">
        <ele>152.28</ele>
        <time>2023-10-17T09:05:38.489Z</time>
      </trkpt>
      <trkpt lat="45.69293185137212" lon="17.698176400735974">
        <ele>152.15</ele>
        <time>2023-10-17T09:05:45.697Z</time>
      </trkpt>
      <trkpt lat="45.692944675683975" lon="17.698172964155674">
        <ele>152.02</ele>
        <time>2023-10-17T09:05:52.905Z</time>
      </trkpt>
      <trkpt lat="45.69295766763389" lon="17.698169695213437">
        <ele>151.88</ele>
        <time>2023-10-17T09:06:00.114Z</time>
      </trkpt>
      <trkpt lat="45.69297082722187" lon="17.6981664262712">
        <ele>151.76</ele>
        <time>2023-10-17T09:06:07.323Z</time>
      </trkpt>
      <trkpt lat="45.69298415444791" lon="17.698163157328963">
        <ele>151.63</ele>
        <time>2023-10-17T09:06:14.533Z</time>
      </trkpt>
      <trkpt lat="45.69299773313105" lon="17.69816005602479">
        <ele>151.5</ele>
        <time>2023-10-17T09:06:21.743Z</time>
      </trkpt>
      <trkpt lat="45.69301147945225" lon="17.69815712235868">
        <ele>151.38</ele>
        <time>2023-10-17T09:06:28.954Z</time>
      </trkpt>
      <trkpt lat="45.69302547723055" lon="17.698154356330633">
        <ele>151.26</ele>
        <time>2023-10-17T09:06:36.165Z</time>
      </trkpt>
      <trkpt lat="45.69303955882788" lon="17.698151590302587">
        <ele>151.14</ele>
        <time>2023-10-17T09:06:43.377Z</time>
      </trkpt>
      <trkpt lat="45.69305380806327" lon="17.69814890809357">
        <ele>151.02</ele>
        <time>2023-10-17T09:06:50.589Z</time>
      </trkpt>
      <trkpt lat="45.69306805729866" lon="17.698146225884557">
        <ele>150.9</ele>
        <time>2023-10-17T09:06:57.802Z</time>
      </trkpt>
      <trkpt lat="45.693082390353084" lon="17.69814337603748">
        <ele>150.79</ele>
        <time>2023-10-17T09:07:05.015Z</time>
      </trkpt>
      <trkpt lat="45.69309680722654" lon="17.69814044237137">
        <ele>150.68</ele>
        <time>2023-10-17T09:07:12.229Z</time>
      </trkpt>
      <trkpt lat="45.693111307919025" lon="17.698137424886227">
        <ele>150.57</ele>
        <time>2023-10-17T09:07:19.443Z</time>
      </trkpt>
      <trkpt lat="45.69312580861151" lon="17.698134491220117">
        <ele>150.47</ele>
        <time>2023-10-17T09:07:26.658Z</time>
      </trkpt>
      <trkpt lat="45.69314039312303" lon="17.69813164137304">
        <ele>150.36</ele>
        <time>2023-10-17T09:07:33.873Z</time>
      </trkpt>
      <trkpt lat="45.69315497763455" lon="17.698128959164023">
        <ele>150.26</ele>
        <time>2023-10-17T09:07:41.089Z</time>
      </trkpt>
      <trkpt lat="45.693169478327036" lon="17.69812627695501">
        <ele>150.17</ele>
        <time>2023-10-17T09:07:48.305Z</time>
      </trkpt>
      <trkpt lat="45.69318389520049" lon="17.698123762384057">
        <ele>150.07</ele>
        <time>2023-10-17T09:07:55.522Z</time>
      </trkpt>
      <trkpt lat="45.69319839589298" lon="17.698121331632137">
        <ele>149.98</ele>
        <time>2023-10-17T09:08:02.739Z</time>
      </trkpt>
      <trkpt lat="45.693212896585464" lon="17.69811906851828">
        <ele>149.89</ele>
        <time>2023-10-17T09:08:09.957Z</time>
      </trkpt>
      <trkpt lat="45.69322722963989" lon="17.698117224499583">
        <ele>149.8</ele>
        <time>2023-10-17T09:08:17.175Z</time>
      </trkpt>
      <trkpt lat="45.69324164651334" lon="17.698115715757012">
        <ele>149.72</ele>
        <time>2023-10-17T09:08:24.393Z</time>
      </trkpt>
      <trkpt lat="45.693255979567766" lon="17.69811454229057">
        <ele>149.64</ele>
        <time>2023-10-17T09:08:31.612Z</time>
      </trkpt>
      <trkpt lat="45.69327022880316" lon="17.69811370410025">
        <ele>149.56</ele>
        <time>2023-10-17T09:08:38.831Z</time>
      </trkpt>
      <trkpt lat="45.69328447803855" lon="17.698113285005093">
        <ele>149.48</ele>
        <time>2023-10-17T09:08:46.051Z</time>
      </trkpt>
      <trkpt lat="45.69329881109297" lon="17.69811320118606">
        <ele>149.41</ele>
        <time>2023-10-17T09:08:53.271Z</time>
      </trkpt>
      <trkpt lat="45.693313144147396" lon="17.698113536462188">
        <ele>149.33</ele>
        <time>2023-10-17T09:09:00.492Z</time>
      </trkpt>
      <trkpt lat="45.69332747720182" lon="17.698114290833473">
        <ele>149.26</ele>
        <time>2023-10-17T09:09:07.713Z</time>
      </trkpt>
      <trkpt lat="45.693341977894306" lon="17.69811563193798">
        <ele>149.2</ele>
        <time>2023-10-17T09:09:14.935Z</time>
      </trkpt>
      <trkpt lat="45.69335639476776" lon="17.698117643594742">
        <ele>149.13</ele>
        <time>2023-10-17T09:09:22.157Z</time>
      </trkpt>
      <trkpt lat="45.693370811641216" lon="17.69812040962279">
        <ele>149.07</ele>
        <time>2023-10-17T09:09:29.380Z</time>
      </trkpt>
      <trkpt lat="45.69338522851467" lon="17.698124181479216">
        <ele>149.01</ele>
        <time>2023-10-17T09:09:36.603Z</time>
      </trkpt>
      <trkpt lat="45.693399561569095" lon="17.69812887534499">
        <ele>148.96</ele>
        <time>2023-10-17T09:09:43.827Z</time>
      </trkpt>
      <trkpt lat="45.69341364316642" lon="17.698134826496243">
        <ele>148.91</ele>
        <time>2023-10-17T09:09:51.051Z</time>
      </trkpt>
      <trkpt lat="45.693427473306656" lon="17.698141867294908">
        <ele>148.86</ele>
        <time>2023-10-17T09:09:58.276Z</time>
      </trkpt>
      <trkpt lat="45.693441051989794" lon="17.698150081560016">
        <ele>148.81</ele>
        <time>2023-10-17T09:10:05.501Z</time>
      </trkpt>
      <trkpt lat="45.693454295396805" lon="17.698159469291568">
        <ele>148.76</ele>
        <time>2023-10-17T09:10:12.727Z</time>
      </trkpt>
      <trkpt lat="45.69346720352769" lon="17.6981698628515">
        <ele>148.72</ele>
        <time>2023-10-17T09:10:19.953Z</time>
      </trkpt>
      <trkpt lat="45.693479776382446" lon="17.698181262239814">
        <ele>148.68</ele>
        <time>2023-10-17T09:10:27.180Z</time>
      </trkpt>
      <trkpt lat="45.693491930142045" lon="17.698193583637476">
        <ele>148.64</ele>
        <time>2023-10-17T09:10:34.407Z</time>
      </trkpt>
      <trkpt lat="45.69350383244455" lon="17.698206827044487">
        <ele>148.61</ele>
        <time>2023-10-17T09:10:41.635Z</time>
      </trkpt>
      <trkpt lat="45.693515315651894" lon="17.698220824822783">
        <ele>148.58</ele>
        <time>2023-10-17T09:10:48.863Z</time>
      </trkpt>
      <trkpt lat="45.69352646358311" lon="17.698235409334302">
        <ele>148.55</ele>
        <time>2023-10-17T09:10:56.092Z</time>
      </trkpt>
      <trkpt lat="45.693537360057235" lon="17.698250329121947">
        <ele>148.52</ele>
        <time>2023-10-17T09:11:03.321Z</time>
      </trkpt>
      <trkpt lat="45.69354792125523" lon="17.69826566800475">
        <ele>148.5</ele>
        <time>2023-10-17T09:11:10.551Z</time>
      </trkpt>
      <trkpt lat="45.693558314815164" lon="17.698281006887555">
        <ele>148.47</ele>
        <time>2023-10-17T09:11:17.781Z</time>
      </trkpt>
      <trkpt lat="45.69356854073703" lon="17.69829634577036">
        <ele>148.46</ele>
        <time>2023-10-17T09:11:25.012Z</time>
      </trkpt>
      <trkpt lat="45.6935787666589" lon="17.69831160083413">
        <ele>148.44</ele>
        <time>2023-10-17T09:11:32.243Z</time>
      </trkpt>
      <trkpt lat="45.69358890876174" lon="17.698326520621777">
        <ele>148.42</ele>
        <time>2023-10-17T09:11:39.475Z</time>
      </trkpt>
      <trkpt lat="45.69359921850264" lon="17.698341105133295">
        <ele>148.41</ele>
        <time>2023-10-17T09:11:46.707Z</time>
      </trkpt>
      <trkpt lat="45.69360961206257" lon="17.698355186730623">
        <ele>148.4</ele>
        <time>2023-10-17T09:11:53.940Z</time>
      </trkpt>
      <trkpt lat="45.69362017326057" lon="17.698368513956666">
        <ele>148.4</ele>
        <time>2023-10-17T09:12:01.173Z</time>
      </trkpt>
      <trkpt lat="45.69363106973469" lon="17.698381170630455">
        <ele>148.39</ele>
        <time>2023-10-17T09:12:08.407Z</time>
      </trkpt>
      <trkpt lat="45.69364221766591" lon="17.698392989113927">
        <ele>148.39</ele>
        <time>2023-10-17T09:12:15.641Z</time>
      </trkpt>
      <trkpt lat="45.693653700873256" lon="17.698403801769018">
        <ele>148.39</ele>
        <time>2023-10-17T09:12:22.876Z</time>
      </trkpt>
      <trkpt lat="45.693665435537696" lon="17.69841360859573">
        <ele>148.4</ele>
        <time>2023-10-17T09:12:30.111Z</time>
      </trkpt>
      <trkpt lat="45.69367742165923" lon="17.698422577232122">
        <ele>148.4</ele>
        <time>2023-10-17T09:12:37.346Z</time>
      </trkpt>
      <trkpt lat="45.69368974305689" lon="17.6984307076782">
        <ele>148.41</ele>
        <time>2023-10-17T09:12:44.582Z</time>
      </trkpt>
      <trkpt lat="45.69370214827359" lon="17.698437999933958">
        <ele>148.42</ele>
        <time>2023-10-17T09:12:51.818Z</time>
      </trkpt>
      <trkpt lat="45.69371463730931" lon="17.698444705456495">
        <ele>148.44</ele>
        <time>2023-10-17T09:12:59.055Z</time>
      </trkpt>
      <trkpt lat="45.69372721016407" lon="17.69845082424581">
        <ele>148.45</ele>
        <time>2023-10-17T09:13:06.292Z</time>
      </trkpt>
      <trkpt lat="45.69373978301883" lon="17.698456440120935">
        <ele>148.47</ele>
        <time>2023-10-17T09:13:13.530Z</time>
      </trkpt>
      <trkpt lat="45.69375243969262" lon="17.698461720719934">
        <ele>148.49</ele>
        <time>2023-10-17T09:13:20.768Z</time>
      </trkpt>
      <trkpt lat="45.69376492872834" lon="17.698466749861836">
        <ele>148.51</ele>
        <time>2023-10-17T09:13:28.007Z</time>
      </trkpt>
      <trkpt lat="45.6937775015831" lon="17.698471695184708">
        <ele>148.54</ele>
        <time>2023-10-17T09:13:35.246Z</time>
      </trkpt>
      <trkpt lat="45.69379007443786" lon="17.698476556688547">
        <ele>148.56</ele>
        <time>2023-10-17T09:13:42.485Z</time>
      </trkpt>
      <trkpt lat="45.69380256347358" lon="17.69848158583045">
        <ele>148.59</ele>
        <time>2023-10-17T09:13:49.725Z</time>
      </trkpt>
      <trkpt lat="45.69381513632834" lon="17.698486614972353">
        <ele>148.62</ele>
        <time>2023-10-17T09:13:56.965Z</time>
      </trkpt>
      <trkpt lat="45.693827625364065" lon="17.69849181175232">
        <ele>148.65</ele>
        <time>2023-10-17T09:14:04.206Z</time>
      </trkpt>
      <trkpt lat="45.69384019821882" lon="17.698497092351317">
        <ele>148.68</ele>
        <time>2023-10-17T09:14:11.447Z</time>
      </trkpt>
      <trkpt lat="45.69385277107358" lon="17.698502456769347">
        <ele>148.72</ele>
        <time>2023-10-17T09:14:18.689Z</time>
      </trkpt>
      <trkpt lat="45.69386542774737" lon="17.698507821187377">
        <ele>148.75</ele>
        <time>2023-10-17T09:14:25.931Z</time>
      </trkpt>
      <trkpt lat="45.69387816824019" lon="17.698513185605407">
        <ele>148.79</ele>
        <time>2023-10-17T09:14:33.173Z</time>
      </trkpt>
      <trkpt lat="45.69389099255204" lon="17.698518466204405">
        <ele>148.83</ele>
        <time>2023-10-17T09:14:40.416Z</time>
      </trkpt>
      <trkpt lat="45.693903900682926" lon="17.69852366298437">
        <ele>148.87</ele>
        <time>2023-10-17T09:14:47.659Z</time>
      </trkpt>
      <trkpt lat="45.693916976451874" lon="17.698528608307242">
        <ele>148.92</ele>
        <time>2023-10-17T09:14:54.903Z</time>
      </trkpt>
      <trkpt lat="45.69393005222082" lon="17.69853330217302">
        <ele>148.96</ele>
        <time>2023-10-17T09:15:02.147Z</time>
      </trkpt>
      <trkpt lat="45.69394329562783" lon="17.698537493124604">
        <ele>149.0</ele>
        <time>2023-10-17T09:15:09.392Z</time>
      </trkpt>
      <trkpt lat="45.693956622853875" lon="17.698541181162">
        <ele>149.05</ele>
        <time>2023-10-17T09:15:16.637Z</time>
      </trkpt>
      <trkpt lat="45.69397011771798" lon="17.69854419864714">
        <ele>149.1</ele>
        <time>2023-10-17T09:15:23.883Z</time>
      </trkpt>
      <trkpt lat="45.69398361258209" lon="17.69854662939906">
        <ele>149.15</ele>
        <time>2023-10-17T09:15:31.129Z</time>
      </trkpt>
      <trkpt lat="45.693997107446194" lon="17.698548724874854">
        <ele>149.2</ele>
        <time>2023-10-17T09:15:38.376Z</time>
      </trkpt>
      <trkpt lat="45.69401068612933" lon="17.698550736531615">
        <ele>149.25</ele>
        <time>2023-10-17T09:15:45.623Z</time>
      </trkpt>
      <trkpt lat="45.69402418099344" lon="17.698552664369345">
        <ele>149.3</ele>
        <time>2023-10-17T09:15:52.870Z</time>
      </trkpt>
      <trkpt lat="45.694037675857544" lon="17.698554759845138">
        <ele>149.35</ele>
        <time>2023-10-17T09:16:00.118Z</time>
      </trkpt>
      <trkpt lat="45.69405117072165" lon="17.69855685532093">
        <ele>149.4</ele>
        <time>2023-10-17T09:16:07.366Z</time>
      </trkpt>
      <trkpt lat="45.694064665585756" lon="17.698559118434787">
        <ele>149.46</ele>
        <time>2023-10-17T09:16:14.615Z</time>
      </trkpt>
      <trkpt lat="45.6940779928118" lon="17.69856171682477">
        <ele>149.51</ele>
        <time>2023-10-17T09:16:21.864Z</time>
      </trkpt>
      <trkpt lat="45.69409115239978" lon="17.69856465049088">
        <ele>149.56</ele>
        <time>2023-10-17T09:16:29.114Z</time>
      </trkpt>
      <trkpt lat="45.69410431198776" lon="17.698568170890212">
        <ele>149.62</ele>
        <time>2023-10-17T09:16:36.364Z</time>
      </trkpt>
      <trkpt lat="45.694117303937674" lon="17.698572361841798">
        <ele>149.67</ele>
        <time>2023-10-17T09:16:43.615Z</time>
      </trkpt>
      <trkpt lat="45.69413037970662" lon="17.69857688806951">
        <ele>149.73</ele>
        <time>2023-10-17T09:16:50.866Z</time>
      </trkpt>
      <trkpt lat="45.69414337165654" lon="17.69858174957335">
        <ele>149.78</ele>
        <time>2023-10-17T09:16:58.117Z</time>
      </trkpt>
      <trkpt lat="45.694156447425485" lon="17.698586778715253">
        <ele>149.83</ele>
        <time>2023-10-17T09:17:05.369Z</time>
      </trkpt>
      <trkpt lat="45.69416952319443" lon="17.698591891676188">
        <ele>149.89</ele>
        <time>2023-10-17T09:17:12.621Z</time>
      </trkpt>
      <trkpt lat="45.69418251514435" lon="17.698597088456154">
        <ele>149.94</ele>
        <time>2023-10-17T09:17:19.874Z</time>
      </trkpt>
      <trkpt lat="45.69419567473233" lon="17.69860228523612">
        <ele>149.99</ele>
        <time>2023-10-17T09:17:27.127Z</time>
      </trkpt>
      <trkpt lat="45.69420883432031" lon="17.69860756583512">
        <ele>150.04</ele>
        <time>2023-10-17T09:17:34.381Z</time>
      </trkpt>
      <trkpt lat="45.69422232918441" lon="17.69861309789121">
        <ele>150.1</ele>
        <time>2023-10-17T09:17:41.635Z</time>
      </trkpt>
      <trkpt lat="45.694236075505614" lon="17.698618797585368">
        <ele>150.15</ele>
        <time>2023-10-17T09:17:48.890Z</time>
      </trkpt>
      <trkpt lat="45.69425007328391" lon="17.69862483255565">
        <ele>150.2</ele>
        <time>2023-10-17T09:17:56.145Z</time>
      </trkpt>
      <trkpt lat="45.694264406338334" lon="17.698631202802062">
        <ele>150.25</ele>
        <time>2023-10-17T09:18:03.401Z</time>
      </trkpt>
      <trkpt lat="45.69427899084985" lon="17.6986379083246">
        <ele>150.29</ele>
        <time>2023-10-17T09:18:10.657Z</time>
      </trkpt>
      <trkpt lat="45.694293826818466" lon="17.69864486530423">
        <ele>150.34</ele>
        <time>2023-10-17T09:18:17.914Z</time>
      </trkpt>
      <trkpt lat="45.694308914244175" lon="17.698651989921927">
        <ele>150.39</ele>
        <time>2023-10-17T09:18:25.171Z</time>
      </trkpt>
      <trkpt lat="45.694324085488915" lon="17.698659198358655">
        <ele>150.43</ele>
        <time>2023-10-17T09:18:32.429Z</time>
      </trkpt>
      <trkpt lat="45.694339256733656" lon="17.69866632297635">
        <ele>150.48</ele>
        <time>2023-10-17T09:18:39.687Z</time>
      </trkpt>
      <trkpt lat="45.694354427978396" lon="17.698673363775015">
        <ele>150.52</ele>
        <time>2023-10-17T09:18:46.946Z</time>
      </trkpt>
      <trkpt lat="45.69436943158507" lon="17.698680320754647">
        <ele>150.56</ele>
        <time>2023-10-17T09:18:54.205Z</time>
      </trkpt>
      <trkpt lat="45.694384099915624" lon="17.69868685863912">
        <ele>150.6</ele>
        <time>2023-10-17T09:19:01.465Z</time>
      </trkpt>
      <trkpt lat="45.69439868442714" lon="17.698693061247468">
        <ele>150.64</ele>
        <time>2023-10-17T09:19:08.725Z</time>
      </trkpt>
      <trkpt lat="45.6944131013006" lon="17.698698928579688">
        <ele>150.68</ele>
        <time>2023-10-17T09:19:15.986Z</time>
      </trkpt>
      <trkpt lat="45.69442726671696" lon="17.69870437681675">
        <ele>150.71</ele>
        <time>2023-10-17T09:19:23.247Z</time>
      </trkpt>
      <trkpt lat="45.694441264495254" lon="17.698709405958652">
        <ele>150.74</ele>
        <time>2023-10-17T09:19:30.509Z</time>
      </trkpt>
      <trkpt lat="45.69445509463549" lon="17.698714016005397">
        <ele>150.77</ele>
        <time>2023-10-17T09:19:37.771Z</time>
      </trkpt>
      <trkpt lat="45.694468673318624" lon="17.698718290776014">
        <ele>150.8</ele>
        <time>2023-10-17T09:19:45.034Z</time>
      </trkpt>
      <trkpt lat="45.69448216818273" lon="17.698722230270505">
        <ele>150.83</ele>
        <time>2023-10-17T09:19:52.297Z</time>
      </trkpt>
      <trkpt lat="45.69449574686587" lon="17.698726002126932">
        <ele>150.86</ele>
        <time>2023-10-17T09:19:59.561Z</time>
      </trkpt>
      <trkpt lat="45.69450940936804" lon="17.698729522526264">
        <ele>150.88</ele>
        <time>2023-10-17T09:20:06.825Z</time>
      </trkpt>
      <trkpt lat="45.69452323950827" lon="17.698733042925596">
        <ele>150.9</ele>
        <time>2023-10-17T09:20:14.090Z</time>
      </trkpt>
      <trkpt lat="45.69453723728657" lon="17.698736479505897">
        <ele>150.91</ele>
        <time>2023-10-17T09:20:21.355Z</time>
      </trkpt>
      <trkpt lat="45.69455148652196" lon="17.69873958081007">
        <ele>150.93</ele>
        <time>2023-10-17T09:20:28.621Z</time>
      </trkpt>
      <trkpt lat="45.69456573575735" lon="17.698742346838117">
        <ele>150.94</ele>
        <time>2023-10-17T09:20:35.887Z</time>
      </trkpt>
      <trkpt lat="45.694580068811774" lon="17.69874452613294">
        <ele>150.95</ele>
        <time>2023-10-17T09:20:43.154Z</time>
      </trkpt>
      <trkpt lat="45.6945944018662" lon="17.698746034875512">
        <ele>150.96</ele>
        <time>2023-10-17T09:20:50.421Z</time>
      </trkpt>
      <trkpt lat="45.69460873492062" lon="17.698746789246798">
        <ele>150.96</ele>
        <time>2023-10-17T09:20:57.689Z</time>
      </trkpt>
      <trkpt lat="45.694623151794076" lon="17.69874695688486">
        <ele>150.97</ele>
        <time>2023-10-17T09:21:04.957Z</time>
      </trkpt>
      <trkpt lat="45.69463765248656" lon="17.698746537789702">
        <ele>150.97</ele>
        <time>2023-10-17T09:21:12.225Z</time>
      </trkpt>
      <trkpt lat="45.69465215317905" lon="17.698745699599385">
        <ele>150.97</ele>
        <time>2023-10-17T09:21:19.494Z</time>
      </trkpt>
      <trkpt lat="45.69466673769057" lon="17.69874444231391">
        <ele>150.97</ele>
        <time>2023-10-17T09:21:26.763Z</time>
      </trkpt>
      <trkpt lat="45.694681238383055" lon="17.698742682114244">
        <ele>150.96</ele>
        <time>2023-10-17T09:21:34.033Z</time>
      </trkpt>
      <trkpt lat="45.69469573907554" lon="17.69874050281942">
        <ele>150.95</ele>
        <time>2023-10-17T09:21:41.303Z</time>
      </trkpt>
      <trkpt lat="45.69471023976803" lon="17.698737736791372">
        <ele>150.94</ele>
        <time>2023-10-17T09:21:48.574Z</time>
      </trkpt>
      <trkpt lat="45.69472482427955" lon="17.6987346354872">
        <ele>150.93</ele>
        <time>2023-10-17T09:21:55.845Z</time>
      </trkpt>
      <trkpt lat="45.69473932497203" lon="17.698731115087867">
        <ele>150.92</ele>
        <time>2023-10-17T09:22:03.117Z</time>
      </trkpt>
      <trkpt lat="45.69475390948355" lon="17.698727259412408">
        <ele>150.9</ele>
        <time>2023-10-17T09:22:10.389Z</time>
      </trkpt>
      <trkpt lat="45.6947685778141" lon="17.698723152279854">
        <ele>150.88</ele>
        <time>2023-10-17T09:22:17.662Z</time>
      </trkpt>
      <trkpt lat="45.69478316232562" lon="17.698718793690205">
        <ele>150.86</ele>
        <time>2023-10-17T09:22:24.935Z</time>
      </trkpt>
      <trkpt lat="45.69479766301811" lon="17.698713932186365">
        <ele>150.84</ele>
        <time>2023-10-17T09:22:32.209Z</time>
      </trkpt>
      <trkpt lat="45.694812247529626" lon="17.698708651587367">
        <ele>150.82</ele>
        <time>2023-10-17T09:22:39.483Z</time>
      </trkpt>
      <trkpt lat="45.69482674822211" lon="17.69870295189321">
        <ele>150.79</ele>
        <time>2023-10-17T09:22:46.758Z</time>
      </trkpt>
      <trkpt lat="45.694841081276536" lon="17.6986965816468">
        <ele>150.77</ele>
        <time>2023-10-17T09:22:54.033Z</time>
      </trkpt>
      <trkpt lat="45.69485541433096" lon="17.69868979230523">
        <ele>150.74</ele>
        <time>2023-10-17T09:23:01.309Z</time>
      </trkpt>
      <trkpt lat="45.69486966356635" lon="17.69868241623044">
        <ele>150.7</ele>
        <time>2023-10-17T09:23:08.585Z</time>
      </trkpt>
      <trkpt lat="45.69488374516368" lon="17.698674704879522">
        <ele>150.67</ele>
        <time>2023-10-17T09:23:15.862Z</time>
      </trkpt>
      <trkpt lat="45.694897659122944" lon="17.69866674207151">
        <ele>150.64</ele>
        <time>2023-10-17T09:23:23.139Z</time>
      </trkpt>
      <trkpt lat="45.69491157308221" lon="17.698658611625433">
        <ele>150.6</ele>
        <time>2023-10-17T09:23:30.417Z</time>
      </trkpt>
      <trkpt lat="45.69492531940341" lon="17.698650397360325">
        <ele>150.56</ele>
        <time>2023-10-17T09:23:37.695Z</time>
      </trkpt>
      <trkpt lat="45.69493914954364" lon="17.698642183095217">
        <ele>150.53</ele>
        <time>2023-10-17T09:23:44.974Z</time>
      </trkpt>
      <trkpt lat="45.694952979683876" lon="17.698633885011077">
        <ele>150.48</ele>
        <time>2023-10-17T09:23:52.253Z</time>
      </trkpt>
      <trkpt lat="45.69496680982411" lon="17.69862567074597">
        <ele>150.44</ele>
        <time>2023-10-17T09:23:59.533Z</time>
      </trkpt>
      <trkpt lat="45.69498063996434" lon="17.69861745648086">
        <ele>150.4</ele>
        <time>2023-10-17T09:24:06.813Z</time>
      </trkpt>
      <trkpt lat="45.69499455392361" lon="17.698609242215753">
        <ele>150.35</ele>
        <time>2023-10-17T09:24:14.094Z</time>
      </trkpt>
      <trkpt lat="45.69500846788287" lon="17.698601027950644">
        <ele>150.31</ele>
        <time>2023-10-17T09:24:21.375Z</time>
      </trkpt>
      <trkpt lat="45.695022381842136" lon="17.6985929813236">
        <ele>150.26</ele>
        <time>2023-10-17T09:24:28.657Z</time>
      </trkpt>
      <trkpt lat="45.6950362958014" lon="17.698585018515587">
        <ele>150.21</ele>
        <time>2023-10-17T09:24:35.939Z</time>
      </trkpt>
      <trkpt lat="45.695050209760666" lon="17.698577055707574">
        <ele>150.16</ele>
        <time>2023-10-17T09:24:43.222Z</time>
      </trkpt>
      <trkpt lat="45.69506420753896" lon="17.69856909289956">
        <ele>150.11</ele>
        <time>2023-10-17T09:24:50.505Z</time>
      </trkpt>
      <trkpt lat="45.695078037679195" lon="17.698561046272516">
        <ele>150.05</ele>
        <time>2023-10-17T09:24:57.789Z</time>
      </trkpt>
      <trkpt lat="45.69509195163846" lon="17.698552748188376">
        <ele>150.0</ele>
        <time>2023-10-17T09:25:05.073Z</time>
      </trkpt>
      <trkpt lat="45.69510578177869" lon="17.69854419864714">
        <ele>149.94</ele>
        <time>2023-10-17T09:25:12.358Z</time>
      </trkpt>
      <trkpt lat="45.695119611918926" lon="17.69853539764881">
        <ele>149.88</ele>
        <time>2023-10-17T09:25:19.643Z</time>
      </trkpt>
      <trkpt lat="45.695133274421096" lon="17.698526429012418">
        <ele>149.82</ele>
        <time>2023-10-17T09:25:26.929Z</time>
      </trkpt>
      <trkpt lat="45.695146853104234" lon="17.698517460376024">
        <ele>149.76</ele>
        <time>2023-10-17T09:25:34.215Z</time>
      </trkpt>
      <trkpt lat="45.69516034796834" lon="17.698508575558662">
        <ele>149.7</ele>
        <time>2023-10-17T09:25:41.502Z</time>
      </trkpt>
      <trkpt lat="45.69517367519438" lon="17.6984996907413">
        <ele>149.63</ele>
        <time>2023-10-17T09:25:48.789Z</time>
      </trkpt>
      <trkpt lat="45.695186918601394" lon="17.69849088974297">
        <ele>149.57</ele>
        <time>2023-10-17T09:25:56.077Z</time>
      </trkpt>
      <trkpt lat="45.69520007818937" lon="17.69848208874464">
        <ele>149.5</ele>
        <time>2023-10-17T09:26:03.365Z</time>
      </trkpt>
      <trkpt lat="45.69521323777735" lon="17.698473371565342">
        <ele>149.43</ele>
        <time>2023-10-17T09:26:10.654Z</time>
      </trkpt>
      <trkpt lat="45.69522639736533" lon="17.698464738205075">
        <ele>149.36</ele>
        <time>2023-10-17T09:26:17.943Z</time>
      </trkpt>
      <trkpt lat="45.69523964077234" lon="17.698456523939967">
        <ele>149.28</ele>
        <time>2023-10-17T09:26:25.233Z</time>
      </trkpt>
      <trkpt lat="45.695252967998385" lon="17.698448644950986">
        <ele>149.21</ele>
        <time>2023-10-17T09:26:32.523Z</time>
      </trkpt>
      <trkpt lat="45.69526629522443" lon="17.698441268876195">
        <ele>149.14</ele>
        <time>2023-10-17T09:26:39.814Z</time>
      </trkpt>
      <trkpt lat="45.695279790088534" lon="17.69843422807753">
        <ele>149.06</ele>
        <time>2023-10-17T09:26:47.105Z</time>
      </trkpt>
      <trkpt lat="45.69529336877167" lon="17.69842735491693">
        <ele>148.99</ele>
        <time>2023-10-17T09:26:54.397Z</time>
      </trkpt>
      <trkpt lat="45.695307115092874" lon="17.698420397937298">
        <ele>148.91</ele>
        <time>2023-10-17T09:27:01.689Z</time>
      </trkpt>
      <trkpt lat="45.695320861414075" lon="17.69841318950057">
        <ele>148.83</ele>
        <time>2023-10-17T09:27:08.982Z</time>
      </trkpt>
      <trkpt lat="45.69533469155431" lon="17.69840581342578">
        <ele>148.76</ele>
        <time>2023-10-17T09:27:16.275Z</time>
      </trkpt>
      <trkpt lat="45.69534852169454" lon="17.69839810207486">
        <ele>148.68</ele>
        <time>2023-10-17T09:27:23.569Z</time>
      </trkpt>
      <trkpt lat="45.695362435653806" lon="17.698390306904912">
        <ele>148.6</ele>
        <time>2023-10-17T09:27:30.863Z</time>
      </trkpt>
      <trkpt lat="45.6953764334321" lon="17.6983823440969">
        <ele>148.53</ele>
        <time>2023-10-17T09:27:38.158Z</time>
      </trkpt>
      <trkpt lat="45.6953904312104" lon="17.69837412983179">
        <ele>148.45</ele>
        <time>2023-10-17T09:27:45.453Z</time>
      </trkpt>
      <trkpt lat="45.695404428988695" lon="17.698365664109588">
        <ele>148.37</ele>
        <time>2023-10-17T09:27:52.749Z</time>
      </trkpt>
      <trkpt lat="45.69541842676699" lon="17.69835694693029">
        <ele>148.3</ele>
        <time>2023-10-17T09:28:00.045Z</time>
      </trkpt>
      <trkpt lat="45.69543250836432" lon="17.698348062112927">
        <ele>148.22</ele>
        <time>2023-10-17T09:28:07.342Z</time>
      </trkpt>
      <trkpt lat="45.69544667378068" lon="17.698339177295566">
        <ele>148.14</ele>
        <time>2023-10-17T09:28:14.639Z</time>
      </trkpt>
      <trkpt lat="45.69546092301607" lon="17.698330460116267">
        <ele>148.07</ele>
        <time>2023-10-17T09:28:21.937Z</time>
      </trkpt>
      <trkpt lat="45.695475256070495" lon="17.698322078213096">
        <ele>147.99</ele>
        <time>2023-10-17T09:28:29.235Z</time>
      </trkpt>
      <trkpt lat="45.69548975676298" lon="17.698314115405083">
        <ele>147.91</ele>
        <time>2023-10-17T09:28:36.534Z</time>
      </trkpt>
      <trkpt lat="45.6955043412745" lon="17.698306487873197">
        <ele>147.83</ele>
        <time>2023-10-17T09:28:43.833Z</time>
      </trkpt>
      <trkpt lat="45.69551892578602" lon="17.69829927943647">
        <ele>147.75</ele>
        <time>2023-10-17T09:28:51.133Z</time>
      </trkpt>
      <trkpt lat="45.69553359411657" lon="17.6982924900949">
        <ele>147.67</ele>
        <time>2023-10-17T09:28:58.433Z</time>
      </trkpt>
      <trkpt lat="45.69554817862809" lon="17.69828611984849">
        <ele>147.59</ele>
        <time>2023-10-17T09:29:05.734Z</time>
      </trkpt>
      <trkpt lat="45.695562763139606" lon="17.698280001059175">
        <ele>147.51</ele>
        <time>2023-10-17T09:29:13.035Z</time>
      </trkpt>
      <trkpt lat="45.695577347651124" lon="17.698274217545986">
        <ele>147.43</ele>
        <time>2023-10-17T09:29:20.337Z</time>
      </trkpt>
      <trkpt lat="45.69559184834361" lon="17.698268685489893">
        <ele>147.35</ele>
        <time>2023-10-17T09:29:27.639Z</time>
      </trkpt>
      <trkpt lat="45.6956063490361" lon="17.698263488709927">
        <ele>147.26</ele>
        <time>2023-10-17T09:29:34.942Z</time>
      </trkpt>
      <trkpt lat="45.695620849728584" lon="17.698258543387055">
        <ele>147.18</ele>
        <time>2023-10-17T09:29:42.245Z</time>
      </trkpt>
      <trkpt lat="45.69563526660204" lon="17.69825384952128">
        <ele>147.1</ele>
        <time>2023-10-17T09:29:49.549Z</time>
      </trkpt>
      <trkpt lat="45.695649683475494" lon="17.6982494071126">
        <ele>147.03</ele>
        <time>2023-10-17T09:29:56.853Z</time>
      </trkpt>
      <trkpt lat="45.69566410034895" lon="17.698245216161013">
        <ele>146.95</ele>
        <time>2023-10-17T09:30:04.158Z</time>
      </trkpt>
      <trkpt lat="45.69567843340337" lon="17.698241360485554">
        <ele>146.87</ele>
        <time>2023-10-17T09:30:11.463Z</time>
      </trkpt>
      <trkpt lat="45.69569285027683" lon="17.69823767244816">
        <ele>146.79</ele>
        <time>2023-10-17T09:30:18.769Z</time>
      </trkpt>
      <trkpt lat="45.69570718333125" lon="17.69823431968689">
        <ele>146.71</ele>
        <time>2023-10-17T09:30:26.075Z</time>
      </trkpt>
      <trkpt lat="45.695721516385674" lon="17.698231134563684">
        <ele>146.63</ele>
        <time>2023-10-17T09:30:33.382Z</time>
      </trkpt>
      <trkpt lat="45.6957358494401" lon="17.698228117078543">
        <ele>146.56</ele>
        <time>2023-10-17T09:30:40.689Z</time>
      </trkpt>
      <trkpt lat="45.69575018249452" lon="17.698225183412433">
        <ele>146.48</ele>
        <time>2023-10-17T09:30:47.997Z</time>
      </trkpt>
      <trkpt lat="45.695764515548944" lon="17.698222333565354">
        <ele>146.41</ele>
        <time>2023-10-17T09:30:55.305Z</time>
      </trkpt>
      <trkpt lat="45.69577884860337" lon="17.698219567537308">
        <ele>146.33</ele>
        <time>2023-10-17T09:31:02.614Z</time>
      </trkpt>
      <trkpt lat="45.69579326547682" lon="17.698216969147325">
        <ele>146.26</ele>
        <time>2023-10-17T09:31:09.923Z</time>
      </trkpt>
      <trkpt lat="45.69580776616931" lon="17.698214454576373">
        <ele>146.19</ele>
        <time>2023-10-17T09:31:17.233Z</time>
      </trkpt>
      <trkpt lat="45.69582235068083" lon="17.698212191462517">
        <ele>146.12</ele>
        <time>2023-10-17T09:31:24.543Z</time>
      </trkpt>
      <trkpt lat="45.69583701901138" lon="17.698210095986724">
        <ele>146.05</ele>
        <time>2023-10-17T09:31:31.854Z</time>
      </trkpt>
      <trkpt lat="45.69585185497999" lon="17.698208168148994">
        <ele>145.98</ele>
        <time>2023-10-17T09:31:39.165Z</time>
      </trkpt>
      <trkpt lat="45.69586677476764" lon="17.69820640794933">
        <ele>145.91</ele>
        <time>2023-10-17T09:31:46.477Z</time>
      </trkpt>
      <trkpt lat="45.69588169455528" lon="17.698204899206758">
        <ele>145.84</ele>
        <time>2023-10-17T09:31:53.789Z</time>
      </trkpt>
      <trkpt lat="45.69589661434293" lon="17.69820355810225">
        <ele>145.78</ele>
        <time>2023-10-17T09:32:01.102Z</time>
      </trkpt>
      <trkpt lat="45.69591153413057" lon="17.698202719911933">
        <ele>145.71</ele>
        <time>2023-10-17T09:32:08.415Z</time>
      </trkpt>
      <trkpt lat="45.69592653773725" lon="17.698202300816774">
        <ele>145.65</ele>
        <time>2023-10-17T09:32:15.729Z</time>
      </trkpt>
      <trkpt lat="45.69594154134393" lon="17.698202384635806">
        <ele>145.59</ele>
        <time>2023-10-17T09:32:23.043Z</time>
      </trkpt>
      <trkpt lat="45.695956628769636" lon="17.698202971369028">
        <ele>145.53</ele>
        <time>2023-10-17T09:32:30.358Z</time>
      </trkpt>
      <trkpt lat="45.69597180001438" lon="17.698203809559345">
        <ele>145.47</ele>
        <time>2023-10-17T09:32:37.673Z</time>
      </trkpt>
      <trkpt lat="45.69598697125912" lon="17.69820498302579">
        <ele>145.41</ele>
        <time>2023-10-17T09:32:44.989Z</time>
      </trkpt>
      <trkpt lat="45.696002058684826" lon="17.69820649176836">
        <ele>145.36</ele>
        <time>2023-10-17T09:32:52.305Z</time>
      </trkpt>
      <trkpt lat="45.696017229929566" lon="17.698208335787058">
        <ele>145.3</ele>
        <time>2023-10-17T09:32:59.622Z</time>
      </trkpt>
      <trkpt lat="45.696032317355275" lon="17.698210682719946">
        <ele>145.25</ele>
        <time>2023-10-17T09:33:06.939Z</time>
      </trkpt>
      <trkpt lat="45.696047488600016" lon="17.698213532567024">
        <ele>145.2</ele>
        <time>2023-10-17T09:33:14.257Z</time>
      </trkpt>
      <trkpt lat="45.69606274366379" lon="17.698216885328293">
        <ele>145.15</ele>
        <time>2023-10-17T09:33:21.575Z</time>
      </trkpt>
      <trkpt lat="45.69607799872756" lon="17.698220824822783">
        <ele>145.1</ele>
        <time>2023-10-17T09:33:28.894Z</time>
      </trkpt>
      <trkpt lat="45.6960931699723" lon="17.6982250995934">
        <ele>145.05</ele>
        <time>2023-10-17T09:33:36.213Z</time>
      </trkpt>
      <trkpt lat="45.69610817357898" lon="17.69822987727821">
        <ele>145.0</ele>
        <time>2023-10-17T09:33:43.533Z</time>
      </trkpt>
      <trkpt lat="45.69612309336662" lon="17.69823490642011">
        <ele>144.96</ele>
        <time>2023-10-17T09:33:50.853Z</time>
      </trkpt>
      <trkpt lat="45.69613767787814" lon="17.698240354657173">
        <ele>144.92</ele>
        <time>2023-10-17T09:33:58.174Z</time>
      </trkpt>
      <trkpt lat="45.6961520947516" lon="17.69824605435133">
        <ele>144.87</ele>
        <time>2023-10-17T09:34:05.495Z</time>
      </trkpt>
      <trkpt lat="45.69616634398699" lon="17.69825200550258">
        <ele>144.83</ele>
        <time>2023-10-17T09:34:12.817Z</time>
      </trkpt>
      <trkpt lat="45.69618050940335" lon="17.698257956653833">
        <ele>144.79</ele>
        <time>2023-10-17T09:34:20.139Z</time>
      </trkpt>
      <trkpt lat="45.69619442336261" lon="17.69826415926218">
        <ele>144.76</ele>
        <time>2023-10-17T09:34:27.462Z</time>
      </trkpt>
      <trkpt lat="45.69620842114091" lon="17.69827052950859">
        <ele>144.72</ele>
        <time>2023-10-17T09:34:34.785Z</time>
      </trkpt>
      <trkpt lat="45.69622225128114" lon="17.698276983574033">
        <ele>144.68</ele>
        <time>2023-10-17T09:34:42.109Z</time>
      </trkpt>
      <trkpt lat="45.696236081421375" lon="17.6982837729156">
        <ele>144.65</ele>
        <time>2023-10-17T09:34:49.433Z</time>
      </trkpt>
      <trkpt lat="45.69624991156161" lon="17.698290813714266">
        <ele>144.62</ele>
        <time>2023-10-17T09:34:56.758Z</time>
      </trkpt>
      <trkpt lat="45.69626374170184" lon="17.698298022150993">
        <ele>144.59</ele>
        <time>2023-10-17T09:35:04.083Z</time>
      </trkpt>
      <trkpt lat="45.69627748802304" lon="17.698305398225784">
        <ele>144.56</ele>
        <time>2023-10-17T09:35:11.409Z</time>
      </trkpt>
      <trkpt lat="45.696291318163276" lon="17.69831294193864">
        <ele>144.53</ele>
        <time>2023-10-17T09:35:18.735Z</time>
      </trkpt>
      <trkpt lat="45.69630506448448" lon="17.698320485651493">
        <ele>144.5</ele>
        <time>2023-10-17T09:35:26.062Z</time>
      </trkpt>
      <trkpt lat="45.69631881080568" lon="17.69832811318338">
        <ele>144.47</ele>
        <time>2023-10-17T09:35:33.389Z</time>
      </trkpt>
      <trkpt lat="45.69633264094591" lon="17.69833590835333">
        <ele>144.45</ele>
        <time>2023-10-17T09:35:40.717Z</time>
      </trkpt>
      <trkpt lat="45.69634638726711" lon="17.698343954980373">
        <ele>144.42</ele>
        <time>2023-10-17T09:35:48.045Z</time>
      </trkpt>
      <trkpt lat="45.69635996595025" lon="17.69835216924548">
        <ele>144.4</ele>
        <time>2023-10-17T09:35:55.374Z</time>
      </trkpt>
      <trkpt lat="45.696373376995325" lon="17.698360551148653">
        <ele>144.38</ele>
        <time>2023-10-17T09:36:02.703Z</time>
      </trkpt>
      <trkpt lat="45.69638670422137" lon="17.69836918450892">
        <ele>144.36</ele>
        <time>2023-10-17T09:36:10.033Z</time>
      </trkpt>
      <trkpt lat="45.69639994762838" lon="17.69837806932628">
        <ele>144.34</ele>
        <time>2023-10-17T09:36:17.363Z</time>
      </trkpt>
      <trkpt lat="45.69641319103539" lon="17.69838728941977">
        <ele>144.32</ele>
        <time>2023-10-17T09:36:24.694Z</time>
      </trkpt>
      <trkpt lat="45.69642635062337" lon="17.698396928608418">
        <ele>144.3</ele>
        <time>2023-10-17T09:36:32.025Z</time>
      </trkpt>
      <trkpt lat="45.69643959403038" lon="17.698407154530287">
        <ele>144.28</ele>
        <time>2023-10-17T09:36:39.357Z</time>
      </trkpt>
      <trkpt lat="45.69645292125642" lon="17.698417967185378">
        <ele>144.27</ele>
        <time>2023-10-17T09:36:46.689Z</time>
      </trkpt>
      <trkpt lat="45.6964663323015" lon="17.69842928275466">
        <ele>144.25</ele>
        <time>2023-10-17T09:36:54.022Z</time>
      </trkpt>
      <trkpt lat="45.696479827165604" lon="17.6984410174191">
        <ele>144.23</ele>
        <time>2023-10-17T09:37:01.355Z</time>
      </trkpt>
      <trkpt lat="45.69649340584874" lon="17.698452919721603">
        <ele>144.22</ele>
        <time>2023-10-17T09:37:08.689Z</time>
      </trkpt>
      <trkpt lat="45.69650706835091" lon="17.69846498966217">
        <ele>144.21</ele>
        <time>2023-10-17T09:37:16.023Z</time>
      </trkpt>
      <trkpt lat="45.69652081467211" lon="17.698476891964674">
        <ele>144.19</ele>
        <time>2023-10-17T09:37:23.358Z</time>
      </trkpt>
      <trkpt lat="45.69653472863138" lon="17.69848845899105">
        <ele>144.18</ele>
        <time>2023-10-17T09:37:30.693Z</time>
      </trkpt>
      <trkpt lat="45.696548810228705" lon="17.69849960692227">
        <ele>144.17</ele>
        <time>2023-10-17T09:37:38.029Z</time>
      </trkpt>
      <trkpt lat="45.696562975645065" lon="17.69851033575833">
        <ele>144.16</ele>
        <time>2023-10-17T09:37:45.365Z</time>
      </trkpt>
      <trkpt lat="45.69657730869949" lon="17.698520561680198">
        <ele>144.15</ele>
        <time>2023-10-17T09:37:52.702Z</time>
      </trkpt>
      <trkpt lat="45.696591809391975" lon="17.69853045232594">
        <ele>144.14</ele>
        <time>2023-10-17T09:38:00.039Z</time>
      </trkpt>
      <trkpt lat="45.69660631008446" lon="17.698539923876524">
        <ele>144.13</ele>
        <time>2023-10-17T09:38:07.377Z</time>
      </trkpt>
      <trkpt lat="45.69662097841501" lon="17.698548892512918">
        <ele>144.13</ele>
        <time>2023-10-17T09:38:14.715Z</time>
      </trkpt>
      <trkpt lat="45.69663564674556" lon="17.698557693511248">
        <ele>144.12</ele>
        <time>2023-10-17T09:38:22.054Z</time>
      </trkpt>
      <trkpt lat="45.696650398895144" lon="17.69856607541442">
        <ele>144.11</ele>
        <time>2023-10-17T09:38:29.394Z</time>
      </trkpt>
      <trkpt lat="45.696665151044726" lon="17.698574205860496">
        <ele>144.11</ele>
        <time>2023-10-17T09:38:36.734Z</time>
      </trkpt>
      <trkpt lat="45.69668007083237" lon="17.69858216866851">
        <ele>144.1</ele>
        <time>2023-10-17T09:38:44.075Z</time>
      </trkpt>
      <trkpt lat="45.696694906800985" lon="17.69859013147652">
        <ele>144.1</ele>
        <time>2023-10-17T09:38:51.416Z</time>
      </trkpt>
      <trkpt lat="45.69670982658863" lon="17.698598094284534">
        <ele>144.1</ele>
        <time>2023-10-17T09:38:58.758Z</time>
      </trkpt>
      <trkpt lat="45.696724746376276" lon="17.698605973273516">
        <ele>144.09</ele>
        <time>2023-10-17T09:39:06.100Z</time>
      </trkpt>
      <trkpt lat="45.69673958234489" lon="17.698613852262497">
        <ele>144.09</ele>
        <time>2023-10-17T09:39:13.443Z</time>
      </trkpt>
      <trkpt lat="45.6967544183135" lon="17.698621731251478">
        <ele>144.09</ele>
        <time>2023-10-17T09:39:20.786Z</time>
      </trkpt>
      <trkpt lat="45.69676925428212" lon="17.698629442602396">
        <ele>144.09</ele>
        <time>2023-10-17T09:39:28.130Z</time>
      </trkpt>
      <trkpt lat="45.69678409025073" lon="17.698637153953314">
        <ele>144.09</ele>
        <time>2023-10-17T09:39:35.474Z</time>
      </trkpt>
      <trkpt lat="45.696798926219344" lon="17.69864486530423">
        <ele>144.09</ele>
        <time>2023-10-17T09:39:42.819Z</time>
      </trkpt>
      <trkpt lat="45.696813678368926" lon="17.69865257665515">
        <ele>144.09</ele>
        <time>2023-10-17T09:39:50.164Z</time>
      </trkpt>
      <trkpt lat="45.696828262880445" lon="17.6986603718251">
        <ele>144.09</ele>
        <time>2023-10-17T09:39:57.510Z</time>
      </trkpt>
      <trkpt lat="45.696843937039375" lon="17.698668502271175">
        <ele>144.1</ele>
        <time>2023-10-17T09:40:04.856Z</time>
      </trkpt>
      <trkpt lat="45.69685868918896" lon="17.698676213622093">
        <ele>144.1</ele>
        <time>2023-10-17T09:40:12.203Z</time>
      </trkpt>
      <trkpt lat="45.69687293842435" lon="17.69868384115398">
        <ele>144.1</ele>
        <time>2023-10-17T09:40:19.550Z</time>
      </trkpt>
      <trkpt lat="45.696886936202645" lon="17.698691468685865">
        <ele>144.11</ele>
        <time>2023-10-17T09:40:26.898Z</time>
      </trkpt>
      <trkpt lat="45.69690026342869" lon="17.698698844760656">
        <ele>144.11</ele>
        <time>2023-10-17T09:40:34.246Z</time>
      </trkpt>
      <trkpt lat="45.696912752464414" lon="17.698706053197384">
        <ele>144.12</ele>
        <time>2023-10-17T09:40:41.595Z</time>
      </trkpt>
      <trkpt lat="45.69692423567176" lon="17.698713010177016">
        <ele>144.12</ele>
        <time>2023-10-17T09:40:48.944Z</time>
      </trkpt>
      <trkpt lat="45.69693446159363" lon="17.69871954806149">
        <ele>144.13</ele>
        <time>2023-10-17T09:40:56.294Z</time>
      </trkpt>
      <trkpt lat="45.69694326259196" lon="17.698725583031774">
        <ele>144.13</ele>
        <time>2023-10-17T09:41:03.644Z</time>
      </trkpt>
      <trkpt lat="45.69695080630481" lon="17.698730947449803">
        <ele>144.14</ele>
        <time>2023-10-17T09:41:10.994Z</time>
      </trkpt>
      <trkpt lat="45.69695306941867" lon="17.69873471930623">
        <ele>144.15</ele>
        <time>2023-10-17T09:41:18.344Z</time>
      </trkpt>
      <trkpt lat="45.69695835001767" lon="17.698738826438785">
        <ele>144.15</ele>
        <time>2023-10-17T09:41:25.695Z</time>
      </trkpt>
      <trkpt lat="45.69696254096925" lon="17.698742263019085">
        <ele>144.16</ele>
        <time>2023-10-17T09:41:33.046Z</time>
      </trkpt>
      <trkpt lat="45.696966145187616" lon="17.69874502904713">
        <ele>144.16</ele>
        <time>2023-10-17T09:41:40.397Z</time>
      </trkpt>
      <trkpt lat="45.69696933031082" lon="17.698747124522924">
        <ele>144.17</ele>
        <time>2023-10-17T09:41:47.748Z</time>
      </trkpt>
      <trkpt lat="45.6969721801579" lon="17.698748549446464">
        <ele>144.18</ele>
        <time>2023-10-17T09:41:55.099Z</time>
      </trkpt>
      <trkpt lat="45.696974359452724" lon="17.698748968541622">
        <ele>144.18</ele>
        <time>2023-10-17T09:42:02.450Z</time>
      </trkpt>
      <trkpt lat="45.69697695784271" lon="17.698749136179686">
        <ele>144.19</ele>
        <time>2023-10-17T09:42:09.801Z</time>
      </trkpt>
      <trkpt lat="45.69698047824204" lon="17.698749136179686">
        <ele>144.19</ele>
        <time>2023-10-17T09:42:17.152Z</time>
      </trkpt>
      <trkpt lat="45.69698492065072" lon="17.698749219998717">
        <ele>144.2</ele>
        <time>2023-10-17T09:42:24.504Z</time>
      </trkpt>
      <trkpt lat="45.69699036888778" lon="17.698749722912908">
        <ele>144.2</ele>
        <time>2023-10-17T09:42:31.856Z</time>
      </trkpt>
      <trkpt lat="45.696996822953224" lon="17.698750728741288">
        <ele>144.21</ele>
        <time>2023-10-17T09:42:39.208Z</time>
      </trkpt>
      <trkpt lat="45.69700428284705" lon="17.69875223748386">
        <ele>144.21</ele>
        <time>2023-10-17T09:42:46.560Z</time>
      </trkpt>
      <trkpt lat="45.69701241329312" lon="17.698753997683525">
        <ele>144.22</ele>
        <time>2023-10-17T09:42:53.912Z</time>
      </trkpt>
      <trkpt lat="45.697020795196295" lon="17.698756344616413">
        <ele>144.22</ele>
        <time>2023-10-17T09:43:01.265Z</time>
      </trkpt>
      <trkpt lat="45.697029093280435" lon="17.69875919446349">
        <ele>144.23</ele>
        <time>2023-10-17T09:43:08.618Z</time>
      </trkpt>
      <trkpt lat="45.69703713990748" lon="17.69876246340573">
        <ele>144.23</ele>
        <time>2023-10-17T09:43:15.971Z</time>
      </trkpt>
      <trkpt lat="45.697044767439365" lon="17.69876589998603">
        <ele>144.24</ele>
        <time>2023-10-17T09:43:23.325Z</time>
      </trkpt>
      <trkpt lat="45.697051724419" lon="17.69876942038536">
        <ele>144.24</ele>
        <time>2023-10-17T09:43:30.679Z</time>
      </trkpt>
      <trkpt lat="45.69705775938928" lon="17.69877285696566">
        <ele>144.24</ele>
        <time>2023-10-17T09:43:38.033Z</time>
      </trkpt>
      <trkpt lat="45.697062788531184" lon="17.698776042088866">
        <ele>144.25</ele>
        <time>2023-10-17T09:43:45.387Z</time>
      </trkpt>
      <trkpt lat="45.69706689566374" lon="17.698778808116913">
        <ele>144.25</ele>
        <time>2023-10-17T09:43:52.741Z</time>
      </trkpt>
      <trkpt lat="45.69706991314888" lon="17.6987811550498">
        <ele>144.26</ele>
        <time>2023-10-17T09:44:00.095Z</time>
      </trkpt>
      <trkpt lat="45.697072092443705" lon="17.69878308288753">
        <ele>144.26</ele>
        <time>2023-10-17T09:44:07.450Z</time>
      </trkpt>
      <trkpt lat="45.697073601186275" lon="17.698784675449133">
        <ele>144.26</ele>
        <time>2023-10-17T09:44:14.805Z</time>
      </trkpt>
      <trkpt lat="45.697074523195624" lon="17.69878593273461">
        <ele>144.27</ele>
        <time>2023-10-17T09:44:22.160Z</time>
      </trkpt>
      <trkpt lat="45.697075026109815" lon="17.69878693856299">
        <ele>144.27</ele>
        <time>2023-10-17T09:44:29.515Z</time>
      </trkpt>
      <trkpt lat="45.69707527756691" lon="17.698787692934275">
        <ele>144.27</ele>
        <time>2023-10-17T09:44:36.870Z</time>
      </trkpt>
      <trkpt lat="45.69707536138594" lon="17.698788279667497">
        <ele>144.28</ele>
        <time>2023-10-17T09:44:44.225Z</time>
      </trkpt>
      <trkpt lat="45.69707536138594" lon="17.698788782581687">
        <ele>144.28</ele>
        <time>2023-10-17T09:44:51.580Z</time>
      </trkpt>
      <trkpt lat="45.69707527756691" lon="17.698789117857814">
        <ele>144.28</ele>
        <time>2023-10-17T09:44:58.935Z</time>
      </trkpt>
      <trkpt lat="45.697075109928846" lon="17.698789536952972">
        <ele>144.29</ele>
        <time>2023-10-17T09:45:06.290Z</time>
      </trkpt>
      <trkpt lat="45.69707494229078" lon="17.6987898722291">
        <ele>144.29</ele>
        <time>2023-10-17T09:45:13.645Z</time>
      </trkpt>
      <trkpt lat="45.69707469083369" lon="17.698790123686194">
        <ele>144.29</ele>
        <time>2023-10-17T09:45:21.000Z</time>
      </trkpt>
      <trkpt lat="45.69707443937659" lon="17.69879045896232">
        <ele>144.3</ele>
        <time>2023-10-17T09:45:28.355Z</time>
      </trkpt>
      <trkpt lat="45.69707427173853" lon="17.698790626600385">
        <ele>144.3</ele>
        <time>2023-10-17T09:45:35.710Z</time>
      </trkpt>
      <trkpt lat="45.697074104100466" lon="17.698790794238448">
        <ele>144.3</ele>
        <time>2023-10-17T09:45:43.065Z</time>
      </trkpt>
      <trkpt lat="45.697074020281434" lon="17.69879096187651">
        <ele>144.3</ele>
        <time>2023-10-17T09:45:50.420Z</time>
      </trkpt>
      <trkpt lat="45.69707427173853" lon="17.698791045695543">
        <ele>144.31</ele>
        <time>2023-10-17T09:45:57.775Z</time>
      </trkpt>
      <trkpt lat="45.69707485847175" lon="17.69879096187651">
        <ele>144.31</ele>
        <time>2023-10-17T09:46:05.130Z</time>
      </trkpt>
      <trkpt lat="45.69707594811916" lon="17.69879087805748">
        <ele>144.31</ele>
        <time>2023-10-17T09:46:12.485Z</time>
      </trkpt>
      <trkpt lat="45.69707770831883" lon="17.69879087805748">
        <ele>144.32</ele>
        <time>2023-10-17T09:46:19.840Z</time>
      </trkpt>
      <trkpt lat="45.69708030670881" lon="17.698791045695543">
        <ele>144.32</ele>
        <time>2023-10-17T09:46:27.195Z</time>
      </trkpt>
      <trkpt lat="45.69708349183202" lon="17.698791464790702">
        <ele>144.32</ele>
        <time>2023-10-17T09:46:34.550Z</time>
      </trkpt>
      <trkpt lat="45.697087263688445" lon="17.698792051523924">
        <ele>144.33</ele>
        <time>2023-10-17T09:46:41.905Z</time>
      </trkpt>
      <trkpt lat="45.69709153845906" lon="17.69879280589521">
        <ele>144.33</ele>
        <time>2023-10-17T09:46:49.260Z</time>
      </trkpt>
      <trkpt lat="45.697096483781934" lon="17.69879389554262">
        <ele>144.33</ele>
        <time>2023-10-17T09:46:56.616Z</time>
      </trkpt>
      <trkpt lat="45.69710226729512" lon="17.69879532046616">
        <ele>144.34</ele>
        <time>2023-10-17T09:47:03.972Z</time>
      </trkpt>
      <trkpt lat="45.69710888899863" lon="17.69879724830389">
        <ele>144.34</ele>
        <time>2023-10-17T09:47:11.328Z</time>
      </trkpt>
      <trkpt lat="45.69711626507342" lon="17.69879976287484">
        <ele>144.35</ele>
        <time>2023-10-17T09:47:18.684Z</time>
      </trkpt>
      <trkpt lat="45.697124395519495" lon="17.69880269654095">
        <ele>144.35</ele>
        <time>2023-10-17T09:47:26.041Z</time>
      </trkpt>
      <trkpt lat="45.697133196517825" lon="17.698806216940284">
        <ele>144.36</ele>
        <time>2023-10-17T09:47:33.398Z</time>
      </trkpt>
      <trkpt lat="45.697142416611314" lon="17.698810072615743">
        <ele>144.36</ele>
        <time>2023-10-17T09:47:40.755Z</time>
      </trkpt>
      <trkpt lat="45.69715197198093" lon="17.69881434738636">
        <ele>144.37</ele>
        <time>2023-10-17T09:47:48.112Z</time>
      </trkpt>
      <trkpt lat="45.697162030264735" lon="17.698818957433105">
        <ele>144.38</ele>
        <time>2023-10-17T09:47:55.470Z</time>
      </trkpt>
      <trkpt lat="45.697172759100795" lon="17.698823986575007">
        <ele>144.38</ele>
        <time>2023-10-17T09:48:02.828Z</time>
      </trkpt>
      <trkpt lat="45.69718415848911" lon="17.6988295186311">
        <ele>144.39</ele>
        <time>2023-10-17T09:48:10.187Z</time>
      </trkpt>
      <trkpt lat="45.69719614461064" lon="17.698835218325257">
        <ele>144.4</ele>
        <time>2023-10-17T09:48:17.546Z</time>
      </trkpt>
      <trkpt lat="45.69720854982734" lon="17.69884116947651">
        <ele>144.41</ele>
        <time>2023-10-17T09:48:24.905Z</time>
      </trkpt>
      <trkpt lat="45.697221206501126" lon="17.698847204446793">
        <ele>144.42</ele>
        <time>2023-10-17T09:48:32.265Z</time>
      </trkpt>
      <trkpt lat="45.69723403081298" lon="17.698853323236108">
        <ele>144.43</ele>
        <time>2023-10-17T09:48:39.625Z</time>
      </trkpt>
      <trkpt lat="45.69724693894386" lon="17.698859525844455">
        <ele>144.44</ele>
        <time>2023-10-17T09:48:46.986Z</time>
      </trkpt>
      <trkpt lat="45.69725993089378" lon="17.6988657284528">
        <ele>144.45</ele>
        <time>2023-10-17T09:48:54.347Z</time>
      </trkpt>
      <trkpt lat="45.697272922843695" lon="17.69887193106115">
        <ele>144.47</ele>
        <time>2023-10-17T09:49:01.709Z</time>
      </trkpt>
      <trkpt lat="45.697286082431674" lon="17.698878217488527">
        <ele>144.48</ele>
        <time>2023-10-17T09:49:09.071Z</time>
      </trkpt>
      <trkpt lat="45.69729924201965" lon="17.698884503915906">
        <ele>144.49</ele>
        <time>2023-10-17T09:49:16.434Z</time>
      </trkpt>
      <trkpt lat="45.69731240160763" lon="17.698890790343285">
        <ele>144.51</ele>
        <time>2023-10-17T09:49:23.797Z</time>
      </trkpt>
      <trkpt lat="45.69732556119561" lon="17.69889699295163">
        <ele>144.52</ele>
        <time>2023-10-17T09:49:31.161Z</time>
      </trkpt>
      <trkpt lat="45.69733872078359" lon="17.69890319555998">
        <ele>144.54</ele>
        <time>2023-10-17T09:49:38.525Z</time>
      </trkpt>
      <trkpt lat="45.69735188037157" lon="17.698909398168325">
        <ele>144.56</ele>
        <time>2023-10-17T09:49:45.890Z</time>
      </trkpt>
      <trkpt lat="45.69736503995955" lon="17.698915600776672">
        <ele>144.58</ele>
        <time>2023-10-17T09:49:53.255Z</time>
      </trkpt>
      <trkpt lat="45.69737828336656" lon="17.69892188720405">
        <ele>144.6</ele>
        <time>2023-10-17T09:50:00.620Z</time>
      </trkpt>
      <trkpt lat="45.697391610592604" lon="17.69892817363143">
        <ele>144.62</ele>
        <time>2023-10-17T09:50:07.986Z</time>
      </trkpt>
      <trkpt lat="45.697404937818646" lon="17.69893462769687">
        <ele>144.64</ele>
        <time>2023-10-17T09:50:15.352Z</time>
      </trkpt>
      <trkpt lat="45.69741843268275" lon="17.698941081762314">
        <ele>144.66</ele>
        <time>2023-10-17T09:50:22.719Z</time>
      </trkpt>
      <trkpt lat="45.69743209518492" lon="17.698947535827756">
        <ele>144.68</ele>
        <time>2023-10-17T09:50:30.086Z</time>
      </trkpt>
      <trkpt lat="45.69744575768709" lon="17.698953989893198">
        <ele>144.7</ele>
        <time>2023-10-17T09:50:37.454Z</time>
      </trkpt>
      <trkpt lat="45.69745950400829" lon="17.698960527777672">
        <ele>144.73</ele>
        <time>2023-10-17T09:50:44.822Z</time>
      </trkpt>
      <trkpt lat="45.697473250329494" lon="17.698967065662146">
        <ele>144.75</ele>
        <time>2023-10-17T09:50:52.191Z</time>
      </trkpt>
      <trkpt lat="45.697486996650696" lon="17.69897368736565">
        <ele>144.78</ele>
        <time>2023-10-17T09:50:59.560Z</time>
      </trkpt>
      <trkpt lat="45.697500575333834" lon="17.698980309069157">
        <ele>144.8</ele>
        <time>2023-10-17T09:51:06.930Z</time>
      </trkpt>
      <trkpt lat="45.69751415401697" lon="17.698987098410726">
        <ele>144.83</ele>
        <time>2023-10-17T09:51:14.300Z</time>
      </trkpt>
      <trkpt lat="45.697527481243014" lon="17.698994055390358">
        <ele>144.86</ele>
        <time>2023-10-17T09:51:21.671Z</time>
      </trkpt>
      <trkpt lat="45.697540640830994" lon="17.699001180008054">
        <ele>144.89</ele>
        <time>2023-10-17T09:51:29.042Z</time>
      </trkpt>
      <trkpt lat="45.69755363278091" lon="17.699008639901876">
        <ele>144.92</ele>
        <time>2023-10-17T09:51:36.414Z</time>
      </trkpt>
      <trkpt lat="45.69756637327373" lon="17.699016267433763">
        <ele>144.95</ele>
        <time>2023-10-17T09:51:43.786Z</time>
      </trkpt>
      <trkpt lat="45.697578862309456" lon="17.699024230241776">
        <ele>144.98</ele>
        <time>2023-10-17T09:51:51.159Z</time>
      </trkpt>
      <trkpt lat="45.69759126752615" lon="17.69903227686882">
        <ele>145.01</ele>
        <time>2023-10-17T09:51:58.532Z</time>
      </trkpt>
      <trkpt lat="45.69760350510478" lon="17.69904057495296">
        <ele>145.05</ele>
        <time>2023-10-17T09:52:05.905Z</time>
      </trkpt>
      <trkpt lat="45.69761574268341" lon="17.69904895685613">
        <ele>145.08</ele>
        <time>2023-10-17T09:52:13.279Z</time>
      </trkpt>
      <trkpt lat="45.69762798026204" lon="17.69905717112124">
        <ele>145.12</ele>
        <time>2023-10-17T09:52:20.653Z</time>
      </trkpt>
      <trkpt lat="45.6976403016597" lon="17.699065133929253">
        <ele>145.15</ele>
        <time>2023-10-17T09:52:28.028Z</time>
      </trkpt>
      <trkpt lat="45.69765279069543" lon="17.699072677642107">
        <ele>145.19</ele>
        <time>2023-10-17T09:52:35.403Z</time>
      </trkpt>
      <trkpt lat="45.69766544736922" lon="17.69907971844077">
        <ele>145.23</ele>
        <time>2023-10-17T09:52:42.779Z</time>
      </trkpt>
      <trkpt lat="45.697678439319134" lon="17.699086172506213">
        <ele>145.26</ele>
        <time>2023-10-17T09:52:50.155Z</time>
      </trkpt>
      <trkpt lat="45.697691682726145" lon="17.69909187220037">
        <ele>145.3</ele>
        <time>2023-10-17T09:52:57.532Z</time>
      </trkpt>
      <trkpt lat="45.69770517759025" lon="17.69909681752324">
        <ele>145.34</ele>
        <time>2023-10-17T09:53:04.909Z</time>
      </trkpt>
      <trkpt lat="45.69771884009242" lon="17.699101511389017">
        <ele>145.37</ele>
        <time>2023-10-17T09:53:12.287Z</time>
      </trkpt>
      <trkpt lat="45.697732670232654" lon="17.699105869978666">
        <ele>145.41</ele>
        <time>2023-10-17T09:53:19.665Z</time>
      </trkpt>
      <trkpt lat="45.69774658419192" lon="17.699110060930252">
        <ele>145.45</ele>
        <time>2023-10-17T09:53:27.044Z</time>
      </trkpt>
      <trkpt lat="45.69776041433215" lon="17.699114503338933">
        <ele>145.48</ele>
        <time>2023-10-17T09:53:34.423Z</time>
      </trkpt>
      <trkpt lat="45.697774328291416" lon="17.69911919720471">
        <ele>145.52</ele>
        <time>2023-10-17T09:53:41.802Z</time>
      </trkpt>
      <trkpt lat="45.69778824225068" lon="17.699124226346612">
        <ele>145.56</ele>
        <time>2023-10-17T09:53:49.182Z</time>
      </trkpt>
      <trkpt lat="45.697802072390914" lon="17.69912959076464">
        <ele>145.6</ele>
        <time>2023-10-17T09:53:56.562Z</time>
      </trkpt>
      <trkpt lat="45.69781598635018" lon="17.699135206639767">
        <ele>145.63</ele>
        <time>2023-10-17T09:54:03.943Z</time>
      </trkpt>
      <trkpt lat="45.69782981649041" lon="17.69914124161005">
        <ele>145.67</ele>
        <time>2023-10-17T09:54:11.324Z</time>
      </trkpt>
      <trkpt lat="45.697843646630645" lon="17.69914803095162">
        <ele>145.71</ele>
        <time>2023-10-17T09:54:18.706Z</time>
      </trkpt>
      <trkpt lat="45.697857309132814" lon="17.699155239388347">
        <ele>145.75</ele>
        <time>2023-10-17T09:54:26.088Z</time>
      </trkpt>
      <trkpt lat="45.69787080399692" lon="17.699162950739264">
        <ele>145.78</ele>
        <time>2023-10-17T09:54:33.471Z</time>
      </trkpt>
      <trkpt lat="45.69788413122296" lon="17.699170829728246">
        <ele>145.82</ele>
        <time>2023-10-17T09:54:40.854Z</time>
      </trkpt>
      <trkpt lat="45.69789720699191" lon="17.69917887635529">
        <ele>145.86</ele>
        <time>2023-10-17T09:54:48.238Z</time>
      </trkpt>
      <trkpt lat="45.69791028276086" lon="17.699186839163303">
        <ele>145.9</ele>
        <time>2023-10-17T09:54:55.622Z</time>
      </trkpt>
      <trkpt lat="45.697923274710774" lon="17.699194718152285">
        <ele>145.93</ele>
        <time>2023-10-17T09:55:03.007Z</time>
      </trkpt>
      <trkpt lat="45.69793618284166" lon="17.69920284859836">
        <ele>145.97</ele>
        <time>2023-10-17T09:55:10.392Z</time>
      </trkpt>
      <trkpt lat="45.69794909097254" lon="17.699211230501533">
        <ele>146.0</ele>
        <time>2023-10-17T09:55:17.778Z</time>
      </trkpt>
      <trkpt lat="45.69796199910343" lon="17.699220031499863">
        <ele>146.04</ele>
        <time>2023-10-17T09:55:25.164Z</time>
      </trkpt>
      <trkpt lat="45.69797473959625" lon="17.69922916777432">
        <ele>146.07</ele>
        <time>2023-10-17T09:55:32.551Z</time>
      </trkpt>
      <trkpt lat="45.69798739627004" lon="17.699238723143935">
        <ele>146.1</ele>
        <time>2023-10-17T09:55:39.938Z</time>
      </trkpt>
      <trkpt lat="45.697999969124794" lon="17.699248613789678">
        <ele>146.13</ele>
        <time>2023-10-17T09:55:47.326Z</time>
      </trkpt>
      <trkpt lat="45.69801254197955" lon="17.69925892353058">
        <ele>146.16</ele>
        <time>2023-10-17T09:55:54.714Z</time>
      </trkpt>
      <trkpt lat="45.69802511483431" lon="17.69926931709051">
        <ele>146.19</ele>
        <time>2023-10-17T09:56:02.103Z</time>
      </trkpt>
      <trkpt lat="45.69803793914616" lon="17.699279626831412">
        <ele>146.21</ele>
        <time>2023-10-17T09:56:09.492Z</time>
      </trkpt>
      <trkpt lat="45.698050847277045" lon="17.69928976893425">
        <ele>146.24</ele>
        <time>2023-10-17T09:56:16.882Z</time>
      </trkpt>
      <trkpt lat="45.698064006865025" lon="17.699299408122897">
        <ele>146.27</ele>
        <time>2023-10-17T09:56:24.272Z</time>
      </trkpt>
      <trkpt lat="45.698077250272036" lon="17.699308460578322">
        <ele>146.29</ele>
        <time>2023-10-17T09:56:31.663Z</time>
      </trkpt>
      <trkpt lat="45.698090409860015" lon="17.69931717775762">
        <ele>146.31</ele>
        <time>2023-10-17T09:56:39.054Z</time>
      </trkpt>
      <trkpt lat="45.698103653267026" lon="17.69932539202273">
        <ele>146.33</ele>
        <time>2023-10-17T09:56:46.445Z</time>
      </trkpt>
      <trkpt lat="45.69811689667404" lon="17.69933327101171">
        <ele>146.35</ele>
        <time>2023-10-17T09:56:53.837Z</time>
      </trkpt>
      <trkpt lat="45.698130056262016" lon="17.699340814724565">
        <ele>146.36</ele>
        <time>2023-10-17T09:57:01.229Z</time>
      </trkpt>
      <trkpt lat="45.69814329966903" lon="17.69934793934226">
        <ele>146.38</ele>
        <time>2023-10-17T09:57:08.622Z</time>
      </trkpt>
      <trkpt lat="45.69815654307604" lon="17.699354561045766">
        <ele>146.39</ele>
        <time>2023-10-17T09:57:16.015Z</time>
      </trkpt>
      <trkpt lat="45.69816978648305" lon="17.69936067983508">
        <ele>146.4</ele>
        <time>2023-10-17T09:57:23.409Z</time>
      </trkpt>
      <trkpt lat="45.69818302989006" lon="17.699366379529238">
        <ele>146.41</ele>
        <time>2023-10-17T09:57:30.803Z</time>
      </trkpt>
      <trkpt lat="45.698196021839976" lon="17.699371743947268">
        <ele>146.42</ele>
        <time>2023-10-17T09:57:38.198Z</time>
      </trkpt>
      <trkpt lat="45.69820892997086" lon="17.699376940727234">
        <ele>146.43</ele>
        <time>2023-10-17T09:57:45.593Z</time>
      </trkpt>
      <trkpt lat="45.69822158664465" lon="17.69938205368817">
        <ele>146.43</ele>
        <time>2023-10-17T09:57:52.989Z</time>
      </trkpt>
      <trkpt lat="45.69823424331844" lon="17.69938708283007">
        <ele>146.44</ele>
        <time>2023-10-17T09:58:00.385Z</time>
      </trkpt>
      <trkpt lat="45.698246816173196" lon="17.69939194433391">
        <ele>146.44</ele>
        <time>2023-10-17T09:58:07.782Z</time>
      </trkpt>
      <trkpt lat="45.698259472846985" lon="17.699396470561624">
        <ele>146.44</ele>
        <time>2023-10-17T09:58:15.179Z</time>
      </trkpt>
      <trkpt lat="45.698272213339806" lon="17.699400577694178">
        <ele>146.44</ele>
        <time>2023-10-17T09:58:22.576Z</time>
      </trkpt>
      <trkpt lat="45.69828503765166" lon="17.699404265731573">
        <ele>146.43</ele>
        <time>2023-10-17T09:58:29.974Z</time>
      </trkpt>
      <trkpt lat="45.69829794578254" lon="17.69940753467381">
        <ele>146.43</ele>
        <time>2023-10-17T09:58:37.372Z</time>
      </trkpt>
      <trkpt lat="45.69831093773246" lon="17.69941088743508">
        <ele>146.42</ele>
        <time>2023-10-17T09:58:44.771Z</time>
      </trkpt>
      <trkpt lat="45.698324013501406" lon="17.69941432401538">
        <ele>146.41</ele>
        <time>2023-10-17T09:58:52.170Z</time>
      </trkpt>
      <trkpt lat="45.69833725690842" lon="17.699418095871806">
        <ele>146.4</ele>
        <time>2023-10-17T09:58:59.570Z</time>
      </trkpt>
      <trkpt lat="45.69835058413446" lon="17.699422035366297">
        <ele>146.39</ele>
        <time>2023-10-17T09:59:06.970Z</time>
      </trkpt>
      <trkpt lat="45.698364078998566" lon="17.699426310136914">
        <ele>146.38</ele>
        <time>2023-10-17T09:59:14.371Z</time>
      </trkpt>
      <trkpt lat="45.69837757386267" lon="17.699430668726563">
        <ele>146.36</ele>
        <time>2023-10-17T09:59:21.772Z</time>
      </trkpt>
      <trkpt lat="45.69839115254581" lon="17.699435194954276">
        <ele>146.35</ele>
        <time>2023-10-17T09:59:29.173Z</time>
      </trkpt>
      <trkpt lat="45.69840473122895" lon="17.699439888820052">
        <ele>146.33</ele>
        <time>2023-10-17T09:59:36.575Z</time>
      </trkpt>
      <trkpt lat="45.69841839373112" lon="17.69944475032389">
        <ele>146.31</ele>
        <time>2023-10-17T09:59:43.977Z</time>
      </trkpt>
      <trkpt lat="45.69843205623329" lon="17.699449779465795">
        <ele>146.29</ele>
        <time>2023-10-17T09:59:51.380Z</time>
      </trkpt>
      <trkpt lat="45.69844580255449" lon="17.69945489242673">
        <ele>146.27</ele>
        <time>2023-10-17T09:59:58.783Z</time>
      </trkpt>
      <trkpt lat="45.698459381237626" lon="17.6994598377496">
        <ele>146.25</ele>
        <time>2023-10-17T10:00:06.187Z</time>
      </trkpt>
      <trkpt lat="45.69847270846367" lon="17.699464447796345">
        <ele>146.23</ele>
        <time>2023-10-17T10:00:13.591Z</time>
      </trkpt>
      <trkpt lat="45.698485700413585" lon="17.69946863874793">
        <ele>146.2</ele>
        <time>2023-10-17T10:00:20.996Z</time>
      </trkpt>
      <trkpt lat="45.69849827326834" lon="17.69947249442339">
        <ele>146.18</ele>
        <time>2023-10-17T10:00:28.401Z</time>
      </trkpt>
      <trkpt lat="45.698510175570846" lon="17.699476266279817">
        <ele>146.15</ele>
        <time>2023-10-17T10:00:35.807Z</time>
      </trkpt>
      <trkpt lat="45.698521323502064" lon="17.69947978667915">
        <ele>146.13</ele>
        <time>2023-10-17T10:00:43.213Z</time>
      </trkpt>
      <trkpt lat="45.698530711233616" lon="17.699483139440417">
        <ele>146.1</ele>
        <time>2023-10-17T10:00:50.619Z</time>
      </trkpt>
      <trkpt lat="45.698538506403565" lon="17.69948624074459">
        <ele>146.07</ele>
        <time>2023-10-17T10:00:58.025Z</time>
      </trkpt>
      <trkpt lat="45.69854470901191" lon="17.699488839134574">
        <ele>146.04</ele>
        <time>2023-10-17T10:01:05.432Z</time>
      </trkpt>
      <trkpt lat="45.69854948669672" lon="17.699490934610367">
        <ele>146.02</ele>
        <time>2023-10-17T10:01:12.839Z</time>
      </trkpt>
      <trkpt lat="45.69855283945799" lon="17.699492694810033">
        <ele>145.99</ele>
        <time>2023-10-17T10:01:20.246Z</time>
      </trkpt>
      <trkpt lat="45.698555102571845" lon="17.699494287371635">
        <ele>145.96</ele>
        <time>2023-10-17T10:01:27.653Z</time>
      </trkpt>
      <trkpt lat="45.69855644367635" lon="17.699495879933238">
        <ele>145.93</ele>
        <time>2023-10-17T10:01:35.060Z</time>
      </trkpt>
      <trkpt lat="45.69855686277151" lon="17.69949747249484">
        <ele>145.9</ele>
        <time>2023-10-17T10:01:42.467Z</time>
      </trkpt>
      <trkpt lat="45.698556527495384" lon="17.699499065056443">
        <ele>145.87</ele>
        <time>2023-10-17T10:01:49.874Z</time>
      </trkpt>
      <trkpt lat="45.6985557731241" lon="17.69950032234192">
        <ele>145.84</ele>
        <time>2023-10-17T10:01:57.281Z</time>
      </trkpt>
      <trkpt lat="45.69855493493378" lon="17.699501579627395">
        <ele>145.81</ele>
        <time>2023-10-17T10:02:04.688Z</time>
      </trkpt>
      <trkpt lat="45.69855527020991" lon="17.699502920731902">
        <ele>145.78</ele>
        <time>2023-10-17T10:02:12.095Z</time>
      </trkpt>
      <trkpt lat="45.69855686277151" lon="17.699504513293505">
        <ele>145.75</ele>
        <time>2023-10-17T10:02:19.502Z</time>
      </trkpt>
      <trkpt lat="45.69855971261859" lon="17.699506441131234">
        <ele>145.72</ele>
        <time>2023-10-17T10:02:26.909Z</time>
      </trkpt>
      <trkpt lat="45.698563903570175" lon="17.699508788064122">
        <ele>145.69</ele>
        <time>2023-10-17T10:02:34.317Z</time>
      </trkpt>
      <trkpt lat="45.69856935180724" lon="17.699511470273137">
        <ele>145.65</ele>
        <time>2023-10-17T10:02:41.725Z</time>
      </trkpt>
      <trkpt lat="45.69857597351074" lon="17.69951448775828">
        <ele>145.62</ele>
        <time>2023-10-17T10:02:49.133Z</time>
      </trkpt>
      <trkpt lat="45.69858368486166" lon="17.699517756700516">
        <ele>145.59</ele>
        <time>2023-10-17T10:02:56.541Z</time>
      </trkpt>
      <trkpt lat="45.69859265349805" lon="17.69952136091888">
        <ele>145.55</ele>
        <time>2023-10-17T10:03:03.950Z</time>
      </trkpt>
      <trkpt lat="45.69860262796283" lon="17.69952530041337">
        <ele>145.52</ele>
        <time>2023-10-17T10:03:11.359Z</time>
      </trkpt>
      <trkpt lat="45.698613692075014" lon="17.699529575183988">
        <ele>145.49</ele>
        <time>2023-10-17T10:03:18.768Z</time>
      </trkpt>
      <trkpt lat="45.698625510558486" lon="17.69953401759267">
        <ele>145.45</ele>
        <time>2023-10-17T10:03:26.178Z</time>
      </trkpt>
      <trkpt lat="45.69863799959421" lon="17.699538711458445">
        <ele>145.42</ele>
        <time>2023-10-17T10:03:33.588Z</time>
      </trkpt>
      <trkpt lat="45.69865074008703" lon="17.699543489143252">
        <ele>145.38</ele>
        <time>2023-10-17T10:03:40.999Z</time>
      </trkpt>
      <trkpt lat="45.69866381585598" lon="17.699548602104187">
        <ele>145.35</ele>
        <time>2023-10-17T10:03:48.410Z</time>
      </trkpt>
      <trkpt lat="45.69867705926299" lon="17.699553882703185">
        <ele>145.31</ele>
        <time>2023-10-17T10:03:55.822Z</time>
      </trkpt>
      <trkpt lat="45.698690470308065" lon="17.69955941475928">
        <ele>145.28</ele>
        <time>2023-10-17T10:04:03.234Z</time>
      </trkpt>
      <trkpt lat="45.69870396517217" lon="17.69956536591053">
        <ele>145.24</ele>
        <time>2023-10-17T10:04:10.647Z</time>
      </trkpt>
      <trkpt lat="45.69871754385531" lon="17.699571568518877">
        <ele>145.21</ele>
        <time>2023-10-17T10:04:18.060Z</time>
      </trkpt>
      <trkpt lat="45.69873112253845" lon="17.69957810640335">
        <ele>145.18</ele>
        <time>2023-10-17T10:04:25.473Z</time>
      </trkpt>
      <trkpt lat="45.69874478504062" lon="17.69958497956395">
        <ele>145.14</ele>
        <time>2023-10-17T10:04:32.887Z</time>
      </trkpt>
      <trkpt lat="45.69875844754279" lon="17.699592104181647">
        <ele>145.11</ele>
        <time>2023-10-17T10:04:40.301Z</time>
      </trkpt>
      <trkpt lat="45.698772110044956" lon="17.69959948025644">
        <ele>145.07</ele>
        <time>2023-10-17T10:04:47.716Z</time>
      </trkpt>
      <trkpt lat="45.698785772547126" lon="17.69960694015026">
        <ele>145.04</ele>
        <time>2023-10-17T10:04:55.131Z</time>
      </trkpt>
      <trkpt lat="45.698799435049295" lon="17.699614400044084">
        <ele>145.0</ele>
        <time>2023-10-17T10:05:02.547Z</time>
      </trkpt>
      <trkpt lat="45.69881301373243" lon="17.699621692299843">
        <ele>144.97</ele>
        <time>2023-10-17T10:05:09.963Z</time>
      </trkpt>
      <trkpt lat="45.69882659241557" lon="17.69962890073657">
        <ele>144.93</ele>
        <time>2023-10-17T10:05:17.380Z</time>
      </trkpt>
      <trkpt lat="45.698839919641614" lon="17.69963577389717">
        <ele>144.9</ele>
        <time>2023-10-17T10:05:24.797Z</time>
      </trkpt>
      <trkpt lat="45.698853163048625" lon="17.69964247941971">
        <ele>144.86</ele>
        <time>2023-10-17T10:05:32.215Z</time>
      </trkpt>
      <trkpt lat="45.698866322636604" lon="17.69964893348515">
        <ele>144.83</ele>
        <time>2023-10-17T10:05:39.633Z</time>
      </trkpt>
      <trkpt lat="45.69887939840555" lon="17.699655052274466">
        <ele>144.79</ele>
        <time>2023-10-17T10:05:47.052Z</time>
      </trkpt>
      <trkpt lat="45.6988924741745" lon="17.69966108724475">
        <ele>144.76</ele>
        <time>2023-10-17T10:05:54.471Z</time>
      </trkpt>
      <trkpt lat="45.69890554994345" lon="17.699666870757937">
        <ele>144.72</ele>
        <time>2023-10-17T10:06:01.891Z</time>
      </trkpt>
      <trkpt lat="45.698918709531426" lon="17.699672738090158">
        <ele>144.69</ele>
        <time>2023-10-17T10:06:09.311Z</time>
      </trkpt>
      <trkpt lat="45.69893195293844" lon="17.699678521603346">
        <ele>144.65</ele>
        <time>2023-10-17T10:06:16.732Z</time>
      </trkpt>
      <trkpt lat="45.69894519634545" lon="17.699684388935566">
        <ele>144.61</ele>
        <time>2023-10-17T10:06:24.153Z</time>
      </trkpt>
      <trkpt lat="45.69895852357149" lon="17.69969042390585">
        <ele>144.57</ele>
        <time>2023-10-17T10:06:31.574Z</time>
      </trkpt>
      <trkpt lat="45.698971850797534" lon="17.699696542695165">
        <ele>144.53</ele>
        <time>2023-10-17T10:06:38.996Z</time>
      </trkpt>
      <trkpt lat="45.69898526184261" lon="17.69970274530351">
        <ele>144.49</ele>
        <time>2023-10-17T10:06:46.418Z</time>
      </trkpt>
      <trkpt lat="45.698998756706715" lon="17.699709115549922">
        <ele>144.45</ele>
        <time>2023-10-17T10:06:53.841Z</time>
      </trkpt>
      <trkpt lat="45.699012419208884" lon="17.699715485796332">
        <ele>144.42</ele>
        <time>2023-10-17T10:07:01.264Z</time>
      </trkpt>
      <trkpt lat="45.69902624934912" lon="17.699721939861774">
        <ele>144.37</ele>
        <time>2023-10-17T10:07:08.688Z</time>
      </trkpt>
      <trkpt lat="45.69904016330838" lon="17.699728393927217">
        <ele>144.33</ele>
        <time>2023-10-17T10:07:16.112Z</time>
      </trkpt>
      <trkpt lat="45.69905416108668" lon="17.69973493181169">
        <ele>144.29</ele>
        <time>2023-10-17T10:07:23.537Z</time>
      </trkpt>
      <trkpt lat="45.69906824268401" lon="17.699741553515196">
        <ele>144.25</ele>
        <time>2023-10-17T10:07:30.962Z</time>
      </trkpt>
      <trkpt lat="45.69908215664327" lon="17.6997481752187">
        <ele>144.21</ele>
        <time>2023-10-17T10:07:38.388Z</time>
      </trkpt>
      <trkpt lat="45.6990962382406" lon="17.69975488074124">
        <ele>144.17</ele>
        <time>2023-10-17T10:07:45.814Z</time>
      </trkpt>
      <trkpt lat="45.699110236018896" lon="17.699761586263776">
        <ele>144.13</ele>
        <time>2023-10-17T10:07:53.241Z</time>
      </trkpt>
      <trkpt lat="45.699124317616224" lon="17.699768459424376">
        <ele>144.09</ele>
        <time>2023-10-17T10:08:00.668Z</time>
      </trkpt>
      <trkpt lat="45.69913831539452" lon="17.69977541640401">
        <ele>144.04</ele>
        <time>2023-10-17T10:08:08.096Z</time>
      </trkpt>
      <trkpt lat="45.69915231317282" lon="17.69978237338364">
        <ele>144.0</ele>
        <time>2023-10-17T10:08:15.524Z</time>
      </trkpt>
      <trkpt lat="45.699166394770145" lon="17.699789414182305">
        <ele>143.96</ele>
        <time>2023-10-17T10:08:22.953Z</time>
      </trkpt>
      <trkpt lat="45.69918030872941" lon="17.69979645498097">
        <ele>143.91</ele>
        <time>2023-10-17T10:08:30.382Z</time>
      </trkpt>
      <trkpt lat="45.69919430650771" lon="17.699803495779634">
        <ele>143.87</ele>
        <time>2023-10-17T10:08:37.812Z</time>
      </trkpt>
      <trkpt lat="45.69920822046697" lon="17.699810452759266">
        <ele>143.82</ele>
        <time>2023-10-17T10:08:45.242Z</time>
      </trkpt>
      <trkpt lat="45.699222050607204" lon="17.699817325919867">
        <ele>143.78</ele>
        <time>2023-10-17T10:08:52.673Z</time>
      </trkpt>
      <trkpt lat="45.69923596456647" lon="17.699824031442404">
        <ele>143.73</ele>
        <time>2023-10-17T10:09:00.104Z</time>
      </trkpt>
      <trkpt lat="45.69924971088767" lon="17.699830820783973">
        <ele>143.69</ele>
        <time>2023-10-17T10:09:07.536Z</time>
      </trkpt>
      <trkpt lat="45.699263541027904" lon="17.69983744248748">
        <ele>143.65</ele>
        <time>2023-10-17T10:09:14.968Z</time>
      </trkpt>
      <trkpt lat="45.69927737116814" lon="17.699844064190984">
        <ele>143.6</ele>
        <time>2023-10-17T10:09:22.401Z</time>
      </trkpt>
      <trkpt lat="45.69929120130837" lon="17.699850518256426">
        <ele>143.56</ele>
        <time>2023-10-17T10:09:29.834Z</time>
      </trkpt>
      <trkpt lat="45.699305115267634" lon="17.699856972321868">
        <ele>143.51</ele>
        <time>2023-10-17T10:09:37.268Z</time>
      </trkpt>
      <trkpt lat="45.69931911304593" lon="17.69986334256828">
        <ele>143.46</ele>
        <time>2023-10-17T10:09:44.702Z</time>
      </trkpt>
      <trkpt lat="45.69933319464326" lon="17.69986971281469">
        <ele>143.42</ele>
        <time>2023-10-17T10:09:52.137Z</time>
      </trkpt>
      <trkpt lat="45.69934727624059" lon="17.69987616688013">
        <ele>143.37</ele>
        <time>2023-10-17T10:09:59.572Z</time>
      </trkpt>
      <trkpt lat="45.699361274018884" lon="17.699882704764605">
        <ele>143.32</ele>
        <time>2023-10-17T10:10:07.008Z</time>
      </trkpt>
      <trkpt lat="45.69937527179718" lon="17.69988932646811">
        <ele>143.27</ele>
        <time>2023-10-17T10:10:14.444Z</time>
      </trkpt>
      <trkpt lat="45.69938926957548" lon="17.699895948171616">
        <ele>143.21</ele>
        <time>2023-10-17T10:10:21.881Z</time>
      </trkpt>
      <trkpt lat="45.69940318353474" lon="17.699902737513185">
        <ele>143.16</ele>
        <time>2023-10-17T10:10:29.318Z</time>
      </trkpt>
      <trkpt lat="45.699417097494006" lon="17.699909526854753">
        <ele>143.1</ele>
        <time>2023-10-17T10:10:36.756Z</time>
      </trkpt>
      <trkpt lat="45.6994310952723" lon="17.699916483834386">
        <ele>143.05</ele>
        <time>2023-10-17T10:10:44.194Z</time>
      </trkpt>
      <trkpt lat="45.69944517686963" lon="17.69992352463305">
        <ele>142.99</ele>
        <time>2023-10-17T10:10:51.633Z</time>
      </trkpt>
      <trkpt lat="45.69945925846696" lon="17.699930733069777">
        <ele>142.93</ele>
        <time>2023-10-17T10:10:59.072Z</time>
      </trkpt>
      <trkpt lat="45.69947342388332" lon="17.699938025325537">
        <ele>142.87</ele>
        <time>2023-10-17T10:11:06.512Z</time>
      </trkpt>
      <trkpt lat="45.69948750548065" lon="17.699945317581296">
        <ele>142.81</ele>
        <time>2023-10-17T10:11:13.952Z</time>
      </trkpt>
      <trkpt lat="45.69950175471604" lon="17.69995244219899">
        <ele>142.75</ele>
        <time>2023-10-17T10:11:21.393Z</time>
      </trkpt>
      <trkpt lat="45.69951600395143" lon="17.699959482997656">
        <ele>142.68</ele>
        <time>2023-10-17T10:11:28.834Z</time>
      </trkpt>
      <trkpt lat="45.69953025318682" lon="17.699966188520193">
        <ele>142.61</ele>
        <time>2023-10-17T10:11:36.276Z</time>
      </trkpt>
      <trkpt lat="45.699544502422214" lon="17.699972726404667">
        <ele>142.54</ele>
        <time>2023-10-17T10:11:43.718Z</time>
      </trkpt>
      <trkpt lat="45.699558751657605" lon="17.699978845193982">
        <ele>142.47</ele>
        <time>2023-10-17T10:11:51.161Z</time>
      </trkpt>
      <trkpt lat="45.699572917073965" lon="17.69998454488814">
        <ele>142.4</ele>
        <time>2023-10-17T10:11:58.604Z</time>
      </trkpt>
      <trkpt lat="45.69958716630936" lon="17.699989825487137">
        <ele>142.32</ele>
        <time>2023-10-17T10:12:06.048Z</time>
      </trkpt>
      <trkpt lat="45.69960133172572" lon="17.699994686990976">
        <ele>142.24</ele>
        <time>2023-10-17T10:12:13.492Z</time>
      </trkpt>
      <trkpt lat="45.69961549714208" lon="17.699999129399657">
        <ele>142.16</ele>
        <time>2023-10-17T10:12:20.937Z</time>
      </trkpt>
      <trkpt lat="45.699629662558436" lon="17.700003487989306">
        <ele>142.08</ele>
        <time>2023-10-17T10:12:28.382Z</time>
      </trkpt>
      <trkpt lat="45.699643827974796" lon="17.700007846578956">
        <ele>142.0</ele>
        <time>2023-10-17T10:12:35.828Z</time>
      </trkpt>
      <trkpt lat="45.699657993391156" lon="17.70001237280667">
        <ele>141.91</ele>
        <time>2023-10-17T10:12:43.274Z</time>
      </trkpt>
      <trkpt lat="45.69967224262655" lon="17.700017066672444">
        <ele>141.82</ele>
        <time>2023-10-17T10:12:50.720Z</time>
      </trkpt>
      <trkpt lat="45.69968649186194" lon="17.700021928176284">
        <ele>141.73</ele>
        <time>2023-10-17T10:12:58.167Z</time>
      </trkpt>
      <trkpt lat="45.69970082491636" lon="17.700026957318187">
        <ele>141.64</ele>
        <time>2023-10-17T10:13:05.614Z</time>
      </trkpt>
      <trkpt lat="45.699715157970786" lon="17.70003207027912">
        <ele>141.55</ele>
        <time>2023-10-17T10:13:13.062Z</time>
      </trkpt>
      <trkpt lat="45.69972957484424" lon="17.70003743469715">
        <ele>141.45</ele>
        <time>2023-10-17T10:13:20.510Z</time>
      </trkpt>
      <trkpt lat="45.699743907898664" lon="17.700043050572276">
        <ele>141.35</ele>
        <time>2023-10-17T10:13:27.959Z</time>
      </trkpt>
      <trkpt lat="45.69975824095309" lon="17.700048834085464">
        <ele>141.26</ele>
        <time>2023-10-17T10:13:35.408Z</time>
      </trkpt>
      <trkpt lat="45.69977249018848" lon="17.700054785236716">
        <ele>141.15</ele>
        <time>2023-10-17T10:13:42.858Z</time>
      </trkpt>
      <trkpt lat="45.69978673942387" lon="17.700060736387968">
        <ele>141.05</ele>
        <time>2023-10-17T10:13:50.308Z</time>
      </trkpt>
      <trkpt lat="45.69980090484023" lon="17.70006677135825">
        <ele>140.94</ele>
        <time>2023-10-17T10:13:57.759Z</time>
      </trkpt>
      <trkpt lat="45.69981507025659" lon="17.70007263869047">
        <ele>140.83</ele>
        <time>2023-10-17T10:14:05.210Z</time>
      </trkpt>
      <trkpt lat="45.69982923567295" lon="17.70007850602269">
        <ele>140.72</ele>
        <time>2023-10-17T10:14:12.662Z</time>
      </trkpt>
      <trkpt lat="45.69984323345125" lon="17.70008428953588">
        <ele>140.61</ele>
        <time>2023-10-17T10:14:20.114Z</time>
      </trkpt>
      <trkpt lat="45.699857231229544" lon="17.700089989230037">
        <ele>140.5</ele>
        <time>2023-10-17T10:14:27.567Z</time>
      </trkpt>
      <trkpt lat="45.69987114518881" lon="17.700095772743225">
        <ele>140.38</ele>
        <time>2023-10-17T10:14:35.020Z</time>
      </trkpt>
      <trkpt lat="45.69988497532904" lon="17.700101640075445">
        <ele>140.26</ele>
        <time>2023-10-17T10:14:42.474Z</time>
      </trkpt>
      <trkpt lat="45.699898805469275" lon="17.700107591226697">
        <ele>140.15</ele>
        <time>2023-10-17T10:14:49.928Z</time>
      </trkpt>
      <trkpt lat="45.69991263560951" lon="17.70011354237795">
        <ele>140.03</ele>
        <time>2023-10-17T10:14:57.383Z</time>
      </trkpt>
      <trkpt lat="45.69992638193071" lon="17.700119577348232">
        <ele>139.91</ele>
        <time>2023-10-17T10:15:04.838Z</time>
      </trkpt>
      <trkpt lat="45.69994012825191" lon="17.700125612318516">
        <ele>139.79</ele>
        <time>2023-10-17T10:15:12.294Z</time>
      </trkpt>
      <trkpt lat="45.69995387457311" lon="17.700131563469768">
        <ele>139.67</ele>
        <time>2023-10-17T10:15:19.750Z</time>
      </trkpt>
      <trkpt lat="45.69996753707528" lon="17.700137430801988">
        <ele>139.54</ele>
        <time>2023-10-17T10:15:27.207Z</time>
      </trkpt>
      <trkpt lat="45.69998128339648" lon="17.700143130496144">
        <ele>139.42</ele>
        <time>2023-10-17T10:15:34.664Z</time>
      </trkpt>
      <trkpt lat="45.699995029717684" lon="17.700148578733206">
        <ele>139.3</ele>
        <time>2023-10-17T10:15:42.122Z</time>
      </trkpt>
      <trkpt lat="45.70000885985792" lon="17.700153943151236">
        <ele>139.17</ele>
        <time>2023-10-17T10:15:49.580Z</time>
      </trkpt>
      <trkpt lat="45.70002268999815" lon="17.70015905611217">
        <ele>139.05</ele>
        <time>2023-10-17T10:15:57.039Z</time>
      </trkpt>
      <trkpt lat="45.70003652013838" lon="17.700163833796978">
        <ele>138.92</ele>
        <time>2023-10-17T10:16:04.498Z</time>
      </trkpt>
      <trkpt lat="45.700050350278616" lon="17.70016827620566">
        <ele>138.8</ele>
        <time>2023-10-17T10:16:11.958Z</time>
      </trkpt>
      <trkpt lat="45.70006426423788" lon="17.700172550976276">
        <ele>138.67</ele>
        <time>2023-10-17T10:16:19.418Z</time>
      </trkpt>
      <trkpt lat="45.700078178197145" lon="17.70017665810883">
        <ele>138.55</ele>
        <time>2023-10-17T10:16:26.879Z</time>
      </trkpt>
      <trkpt lat="45.70009209215641" lon="17.70018059760332">
        <ele>138.43</ele>
        <time>2023-10-17T10:16:34.340Z</time>
      </trkpt>
      <trkpt lat="45.70010608993471" lon="17.70018453709781">
        <ele>138.31</ele>
        <time>2023-10-17T10:16:41.801Z</time>
      </trkpt>
      <trkpt lat="45.70011992007494" lon="17.700188560411334">
        <ele>138.18</ele>
        <time>2023-10-17T10:16:49.263Z</time>
      </trkpt>
      <trkpt lat="45.700133834034204" lon="17.700192667543888">
        <ele>138.06</ele>
        <time>2023-10-17T10:16:56.725Z</time>
      </trkpt>
      <trkpt lat="45.700147580355406" lon="17.700196942314506">
        <ele>137.94</ele>
        <time>2023-10-17T10:17:04.188Z</time>
      </trkpt>
      <trkpt lat="45.70016141049564" lon="17.700201468542218">
        <ele>137.82</ele>
        <time>2023-10-17T10:17:11.651Z</time>
      </trkpt>
      <trkpt lat="45.70017515681684" lon="17.700206246227026">
        <ele>137.7</ele>
        <time>2023-10-17T10:17:19.115Z</time>
      </trkpt>
      <trkpt lat="45.70018898695707" lon="17.70021127536893">
        <ele>137.58</ele>
        <time>2023-10-17T10:17:26.579Z</time>
      </trkpt>
      <trkpt lat="45.700202817097306" lon="17.700216555967927">
        <ele>137.46</ele>
        <time>2023-10-17T10:17:34.044Z</time>
      </trkpt>
      <trkpt lat="45.70021673105657" lon="17.70022208802402">
        <ele>137.34</ele>
        <time>2023-10-17T10:17:41.509Z</time>
      </trkpt>
      <trkpt lat="45.700230645015836" lon="17.700227703899145">
        <ele>137.23</ele>
        <time>2023-10-17T10:17:48.975Z</time>
      </trkpt>
      <trkpt lat="45.700244726613164" lon="17.7002334035933">
        <ele>137.11</ele>
        <time>2023-10-17T10:17:56.441Z</time>
      </trkpt>
      <trkpt lat="45.70025872439146" lon="17.70023918710649">
        <ele>137.0</ele>
        <time>2023-10-17T10:18:03.908Z</time>
      </trkpt>
      <trkpt lat="45.70027280598879" lon="17.70024505443871">
        <ele>136.89</ele>
        <time>2023-10-17T10:18:11.375Z</time>
      </trkpt>
      <trkpt lat="45.700286803767085" lon="17.700251005589962">
        <ele>136.78</ele>
        <time>2023-10-17T10:18:18.843Z</time>
      </trkpt>
      <trkpt lat="45.70030080154538" lon="17.700256956741214">
        <ele>136.67</ele>
        <time>2023-10-17T10:18:26.311Z</time>
      </trkpt>
      <trkpt lat="45.700314631685615" lon="17.700262907892466">
        <ele>136.56</ele>
        <time>2023-10-17T10:18:33.780Z</time>
      </trkpt>
      <trkpt lat="45.70032846182585" lon="17.70026894286275">
        <ele>136.45</ele>
        <time>2023-10-17T10:18:41.249Z</time>
      </trkpt>
      <trkpt lat="45.70034229196608" lon="17.700274977833033">
        <ele>136.35</ele>
        <time>2023-10-17T10:18:48.719Z</time>
      </trkpt>
      <trkpt lat="45.700356122106314" lon="17.700280928984284">
        <ele>136.24</ele>
        <time>2023-10-17T10:18:56.189Z</time>
      </trkpt>
      <trkpt lat="45.700369868427515" lon="17.700286796316504">
        <ele>136.14</ele>
        <time>2023-10-17T10:19:03.660Z</time>
      </trkpt>
      <trkpt lat="45.700383530929685" lon="17.70029249601066">
        <ele>136.04</ele>
        <time>2023-10-17T10:19:11.131Z</time>
      </trkpt>
      <trkpt lat="45.700397193431854" lon="17.700298111885786">
        <ele>135.94</ele>
        <time>2023-10-17T10:19:18.603Z</time>
      </trkpt>
      <trkpt lat="45.700410855934024" lon="17.70030372776091">
        <ele>135.85</ele>
        <time>2023-10-17T10:19:26.075Z</time>
      </trkpt>
      <trkpt lat="45.70042451843619" lon="17.700309175997972">
        <ele>135.75</ele>
        <time>2023-10-17T10:19:33.547Z</time>
      </trkpt>
      <trkpt lat="45.70043818093836" lon="17.700314540416002">
        <ele>135.66</ele>
        <time>2023-10-17T10:19:41.020Z</time>
      </trkpt>
      <trkpt lat="45.700451927259564" lon="17.700319821015">
        <ele>135.57</ele>
        <time>2023-10-17T10:19:48.493Z</time>
      </trkpt>
      <trkpt lat="45.700465673580766" lon="17.700324933975935">
        <ele>135.48</ele>
        <time>2023-10-17T10:19:55.967Z</time>
      </trkpt>
      <trkpt lat="45.700479503721" lon="17.700329795479774">
        <ele>135.4</ele>
        <time>2023-10-17T10:20:03.441Z</time>
      </trkpt>
      <trkpt lat="45.70049333386123" lon="17.700334573164582">
        <ele>135.31</ele>
        <time>2023-10-17T10:20:10.916Z</time>
      </trkpt>
      <trkpt lat="45.700507164001465" lon="17.700339183211327">
        <ele>135.23</ele>
        <time>2023-10-17T10:20:18.391Z</time>
      </trkpt>
      <trkpt lat="45.7005209941417" lon="17.70034379325807">
        <ele>135.15</ele>
        <time>2023-10-17T10:20:25.867Z</time>
      </trkpt>
      <trkpt lat="45.70053482428193" lon="17.70034857094288">
        <ele>135.08</ele>
        <time>2023-10-17T10:20:33.343Z</time>
      </trkpt>
      <trkpt lat="45.700548654422164" lon="17.70035351626575">
        <ele>135.01</ele>
        <time>2023-10-17T10:20:40.820Z</time>
      </trkpt>
      <trkpt lat="45.7005624845624" lon="17.700358545407653">
        <ele>134.94</ele>
        <time>2023-10-17T10:20:48.297Z</time>
      </trkpt>
      <trkpt lat="45.70057639852166" lon="17.700363658368587">
        <ele>134.87</ele>
        <time>2023-10-17T10:20:55.775Z</time>
      </trkpt>
      <trkpt lat="45.70059031248093" lon="17.700368938967586">
        <ele>134.8</ele>
        <time>2023-10-17T10:21:03.253Z</time>
      </trkpt>
      <trkpt lat="45.70060431025922" lon="17.700374219566584">
        <ele>134.74</ele>
        <time>2023-10-17T10:21:10.732Z</time>
      </trkpt>
      <trkpt lat="45.70061839185655" lon="17.70037983544171">
        <ele>134.68</ele>
        <time>2023-10-17T10:21:18.211Z</time>
      </trkpt>
      <trkpt lat="45.70063255727291" lon="17.70038570277393">
        <ele>134.63</ele>
        <time>2023-10-17T10:21:25.691Z</time>
      </trkpt>
      <trkpt lat="45.7006468065083" lon="17.700391821563244">
        <ele>134.57</ele>
        <time>2023-10-17T10:21:33.171Z</time>
      </trkpt>
      <trkpt lat="45.700661139562726" lon="17.700398275628686">
        <ele>134.52</ele>
        <time>2023-10-17T10:21:40.652Z</time>
      </trkpt>
      <trkpt lat="45.70067547261715" lon="17.70040481351316">
        <ele>134.48</ele>
        <time>2023-10-17T10:21:48.133Z</time>
      </trkpt>
      <trkpt lat="45.70068972185254" lon="17.70041160285473">
        <ele>134.43</ele>
        <time>2023-10-17T10:21:55.615Z</time>
      </trkpt>
      <trkpt lat="45.700704054906964" lon="17.700418392196298">
        <ele>134.39</ele>
        <time>2023-10-17T10:22:03.097Z</time>
      </trkpt>
      <trkpt lat="45.70071838796139" lon="17.700425097718835">
        <ele>134.35</ele>
        <time>2023-10-17T10:22:10.580Z</time>
      </trkpt>
      <trkpt lat="45.70073263719678" lon="17.70043171942234">
        <ele>134.32</ele>
        <time>2023-10-17T10:22:18.063Z</time>
      </trkpt>
      <trkpt lat="45.70074688643217" lon="17.70043800584972">
        <ele>134.28</ele>
        <time>2023-10-17T10:22:25.547Z</time>
      </trkpt>
      <trkpt lat="45.70076113566756" lon="17.70044395700097">
        <ele>134.25</ele>
        <time>2023-10-17T10:22:33.031Z</time>
      </trkpt>
      <trkpt lat="45.70077530108392" lon="17.700449489057064">
        <ele>134.23</ele>
        <time>2023-10-17T10:22:40.516Z</time>
      </trkpt>
      <trkpt lat="45.70078929886222" lon="17.70045468583703">
        <ele>134.2</ele>
        <time>2023-10-17T10:22:48.001Z</time>
      </trkpt>
      <trkpt lat="45.700803212821484" lon="17.7004596311599">
        <ele>134.18</ele>
        <time>2023-10-17T10:22:55.487Z</time>
      </trkpt>
      <trkpt lat="45.700816959142685" lon="17.70046440884471">
        <ele>134.16</ele>
        <time>2023-10-17T10:23:02.973Z</time>
      </trkpt>
      <trkpt lat="45.700830621644855" lon="17.700469102710485">
        <ele>134.15</ele>
        <time>2023-10-17T10:23:10.460Z</time>
      </trkpt>
      <trkpt lat="45.70084420032799" lon="17.700473628938198">
        <ele>134.13</ele>
        <time>2023-10-17T10:23:17.947Z</time>
      </trkpt>
      <trkpt lat="45.7008576951921" lon="17.700477903708816">
        <ele>134.12</ele>
        <time>2023-10-17T10:23:25.434Z</time>
      </trkpt>
      <trkpt lat="45.70087110623717" lon="17.70048201084137">
        <ele>134.11</ele>
        <time>2023-10-17T10:23:32.922Z</time>
      </trkpt>
      <trkpt lat="45.700884433463216" lon="17.700486117973924">
        <ele>134.11</ele>
        <time>2023-10-17T10:23:40.410Z</time>
      </trkpt>
      <trkpt lat="45.70089776068926" lon="17.70049030892551">
        <ele>134.11</ele>
        <time>2023-10-17T10:23:47.899Z</time>
      </trkpt>
      <trkpt lat="45.7009110879153" lon="17.700494583696127">
        <ele>134.11</ele>
        <time>2023-10-17T10:23:55.388Z</time>
      </trkpt>
      <trkpt lat="45.700924498960376" lon="17.70049910992384">
        <ele>134.12</ele>
        <time>2023-10-17T10:24:02.878Z</time>
      </trkpt>
      <trkpt lat="45.70093799382448" lon="17.700503803789616">
        <ele>134.12</ele>
        <time>2023-10-17T10:24:10.368Z</time>
      </trkpt>
      <trkpt lat="45.70095165632665" lon="17.700508581474423">
        <ele>134.13</ele>
        <time>2023-10-17T10:24:17.859Z</time>
      </trkpt>
      <trkpt lat="45.70096531882882" lon="17.700513442978263">
        <ele>134.15</ele>
        <time>2023-10-17T10:24:25.350Z</time>
      </trkpt>
      <trkpt lat="45.70097889751196" lon="17.700518388301134">
        <ele>134.16</ele>
        <time>2023-10-17T10:24:32.842Z</time>
      </trkpt>
      <trkpt lat="45.7009924761951" lon="17.700523333624005">
        <ele>134.18</ele>
        <time>2023-10-17T10:24:40.334Z</time>
      </trkpt>
      <trkpt lat="45.7010059710592" lon="17.70052853040397">
        <ele>134.2</ele>
        <time>2023-10-17T10:24:47.827Z</time>
      </trkpt>
      <trkpt lat="45.70101946592331" lon="17.70053381100297">
        <ele>134.22</ele>
        <time>2023-10-17T10:24:55.320Z</time>
      </trkpt>
      <trkpt lat="45.701032876968384" lon="17.70053925924003">
        <ele>134.24</ele>
        <time>2023-10-17T10:25:02.813Z</time>
      </trkpt>
      <trkpt lat="45.70104637183249" lon="17.700544875115156">
        <ele>134.27</ele>
        <time>2023-10-17T10:25:10.307Z</time>
      </trkpt>
      <trkpt lat="45.701059782877564" lon="17.70055049099028">
        <ele>134.3</ele>
        <time>2023-10-17T10:25:17.801Z</time>
      </trkpt>
      <trkpt lat="45.70107319392264" lon="17.700556023046374">
        <ele>134.33</ele>
        <time>2023-10-17T10:25:25.296Z</time>
      </trkpt>
      <trkpt lat="45.70108652114868" lon="17.7005616389215">
        <ele>134.36</ele>
        <time>2023-10-17T10:25:32.791Z</time>
      </trkpt>
      <trkpt lat="45.70109976455569" lon="17.70056708715856">
        <ele>134.39</ele>
        <time>2023-10-17T10:25:40.287Z</time>
      </trkpt>
      <trkpt lat="45.70111292414367" lon="17.70057245157659">
        <ele>134.42</ele>
        <time>2023-10-17T10:25:47.783Z</time>
      </trkpt>
      <trkpt lat="45.70112599991262" lon="17.700577648356557">
        <ele>134.46</ele>
        <time>2023-10-17T10:25:55.280Z</time>
      </trkpt>
      <trkpt lat="45.701138991862535" lon="17.70058276131749">
        <ele>134.5</ele>
        <time>2023-10-17T10:26:02.777Z</time>
      </trkpt>
      <trkpt lat="45.70115189999342" lon="17.700587706640363">
        <ele>134.54</ele>
        <time>2023-10-17T10:26:10.275Z</time>
      </trkpt>
      <trkpt lat="45.70116464048624" lon="17.700592651963234">
        <ele>134.58</ele>
        <time>2023-10-17T10:26:17.773Z</time>
      </trkpt>
      <trkpt lat="45.701177213341" lon="17.7005978487432">
        <ele>134.62</ele>
        <time>2023-10-17T10:26:25.271Z</time>
      </trkpt>
      <trkpt lat="45.70118945091963" lon="17.700603967532516">
        <ele>134.66</ele>
        <time>2023-10-17T10:26:32.770Z</time>
      </trkpt>
      <trkpt lat="45.70120118558407" lon="17.70061151124537">
        <ele>134.7</ele>
        <time>2023-10-17T10:26:40.269Z</time>
      </trkpt>
      <trkpt lat="45.70121216587722" lon="17.70062081515789">
        <ele>134.75</ele>
        <time>2023-10-17T10:26:47.769Z</time>
      </trkpt>
      <trkpt lat="45.701222056522965" lon="17.700632130727172">
        <ele>134.79</ele>
        <time>2023-10-17T10:26:55.269Z</time>
      </trkpt>
      <trkpt lat="45.701230857521296" lon="17.700645625591278">
        <ele>134.84</ele>
        <time>2023-10-17T10:27:02.770Z</time>
      </trkpt>
      <trkpt lat="45.70123831741512" lon="17.70066129975021">
        <ele>134.88</ele>
        <time>2023-10-17T10:27:10.271Z</time>
      </trkpt>
      <trkpt lat="45.7012446038425" lon="17.700679237022996">
        <ele>134.93</ele>
        <time>2023-10-17T10:27:17.773Z</time>
      </trkpt>
      <trkpt lat="45.701249465346336" lon="17.700699353590608">
        <ele>134.97</ele>
        <time>2023-10-17T10:27:25.275Z</time>
      </trkpt>
      <trkpt lat="45.70125298574567" lon="17.700721314176917">
        <ele>135.02</ele>
        <time>2023-10-17T10:27:32.778Z</time>
      </trkpt>
      <trkpt lat="45.70125516504049" lon="17.700745118781924">
        <ele>135.07</ele>
        <time>2023-10-17T10:27:40.281Z</time>
      </trkpt>
      <trkpt lat="45.70125600323081" lon="17.700770180672407">
        <ele>135.11</ele>
        <time>2023-10-17T10:27:47.785Z</time>
      </trkpt>
      <trkpt lat="45.701255751773715" lon="17.700795996934175">
        <ele>135.16</ele>
        <time>2023-10-17T10:27:55.289Z</time>
      </trkpt>
      <trkpt lat="45.70125457830727" lon="17.700821980834007">
        <ele>135.21</ele>
        <time>2023-10-17T10:28:02.794Z</time>
      </trkpt>
      <trkpt lat="45.70125273428857" lon="17.700847713276744">
        <ele>135.26</ele>
        <time>2023-10-17T10:28:10.300Z</time>
      </trkpt>
      <trkpt lat="45.70125047117472" lon="17.700873026624322">
        <ele>135.3</ele>
        <time>2023-10-17T10:28:17.806Z</time>
      </trkpt>
      <trkpt lat="45.701247872784734" lon="17.700897669419646">
        <ele>135.35</ele>
        <time>2023-10-17T10:28:25.313Z</time>
      </trkpt>
      <trkpt lat="45.70124510675669" lon="17.700921474024653">
        <ele>135.39</ele>
        <time>2023-10-17T10:28:32.820Z</time>
      </trkpt>
      <trkpt lat="45.70124225690961" lon="17.700944524258375">
        <ele>135.43</ele>
        <time>2023-10-17T10:28:40.328Z</time>
      </trkpt>
      <trkpt lat="45.7012393232435" lon="17.70096682012081">
        <ele>135.47</ele>
        <time>2023-10-17T10:28:47.836Z</time>
      </trkpt>
      <trkpt lat="45.70123647339642" lon="17.700988445430994">
        <ele>135.51</ele>
        <time>2023-10-17T10:28:55.345Z</time>
      </trkpt>
      <trkpt lat="45.701233707368374" lon="17.701009567826986">
        <ele>135.55</ele>
        <time>2023-10-17T10:29:02.854Z</time>
      </trkpt>
      <trkpt lat="45.701230857521296" lon="17.70103035494685">
        <ele>135.59</ele>
        <time>2023-10-17T10:29:10.364Z</time>
      </trkpt>
      <trkpt lat="45.70122800767422" lon="17.701050974428654">
        <ele>135.63</ele>
        <time>2023-10-17T10:29:17.874Z</time>
      </trkpt>
      <trkpt lat="45.70122507400811" lon="17.70107134245336">
        <ele>135.66</ele>
        <time>2023-10-17T10:29:25.385Z</time>
      </trkpt>
      <trkpt lat="45.701222140342" lon="17.701091626659036">
        <ele>135.7</ele>
        <time>2023-10-17T10:29:32.896Z</time>
      </trkpt>
      <trkpt lat="45.70121920667589" lon="17.701111743226647">
        <ele>135.74</ele>
        <time>2023-10-17T10:29:40.408Z</time>
      </trkpt>
      <trkpt lat="45.70121627300978" lon="17.70113185979426">
        <ele>135.77</ele>
        <time>2023-10-17T10:29:47.920Z</time>
      </trkpt>
      <trkpt lat="45.7012134231627" lon="17.701152143999934">
        <ele>135.8</ele>
        <time>2023-10-17T10:29:55.433Z</time>
      </trkpt>
      <trkpt lat="45.70121065713465" lon="17.70117242820561">
        <ele>135.84</ele>
        <time>2023-10-17T10:30:02.946Z</time>
      </trkpt>
      <trkpt lat="45.70120805874467" lon="17.70119296386838">
        <ele>135.87</ele>
        <time>2023-10-17T10:30:10.460Z</time>
      </trkpt>
      <trkpt lat="45.70120554417372" lon="17.701213415712118">
        <ele>135.9</ele>
        <time>2023-10-17T10:30:17.974Z</time>
      </trkpt>
      <trkpt lat="45.70120319724083" lon="17.701233867555857">
        <ele>135.93</ele>
        <time>2023-10-17T10:30:25.489Z</time>
      </trkpt>
      <trkpt lat="45.70120085030794" lon="17.701254151761532">
        <ele>135.96</ele>
        <time>2023-10-17T10:30:33.004Z</time>
      </trkpt>
      <trkpt lat="45.70119867101312" lon="17.701274268329144">
        <ele>135.98</ele>
        <time>2023-10-17T10:30:40.520Z</time>
      </trkpt>
      <trkpt lat="45.70119649171829" lon="17.70129404962063">
        <ele>136.01</ele>
        <time>2023-10-17T10:30:48.036Z</time>
      </trkpt>
      <trkpt lat="45.70119448006153" lon="17.70131366327405">
        <ele>136.04</ele>
        <time>2023-10-17T10:30:55.553Z</time>
      </trkpt>
      <trkpt lat="45.7011925522238" lon="17.701332941651344">
        <ele>136.06</ele>
        <time>2023-10-17T10:31:03.070Z</time>
      </trkpt>
      <trkpt lat="45.70119062438607" lon="17.70135180093348">
        <ele>136.09</ele>
        <time>2023-10-17T10:31:10.587Z</time>
      </trkpt>
      <trkpt lat="45.70118869654834" lon="17.701369989663363">
        <ele>136.12</ele>
        <time>2023-10-17T10:31:18.105Z</time>
      </trkpt>
      <trkpt lat="45.70118676871061" lon="17.701387591660023">
        <ele>136.14</ele>
        <time>2023-10-17T10:31:25.623Z</time>
      </trkpt>
      <trkpt lat="45.701184840872884" lon="17.701404439285398">
        <ele>136.17</ele>
        <time>2023-10-17T10:31:33.142Z</time>
      </trkpt>
      <trkpt lat="45.701182913035154" lon="17.70142028108239">
        <ele>136.19</ele>
        <time>2023-10-17T10:31:40.661Z</time>
      </trkpt>
      <trkpt lat="45.70118115283549" lon="17.70143528468907">
        <ele>136.22</ele>
        <time>2023-10-17T10:31:48.180Z</time>
      </trkpt>
      <trkpt lat="45.701179476454854" lon="17.701449366286397">
        <ele>136.24</ele>
        <time>2023-10-17T10:31:55.700Z</time>
      </trkpt>
      <trkpt lat="45.70117788389325" lon="17.701462609693408">
        <ele>136.27</ele>
        <time>2023-10-17T10:32:03.220Z</time>
      </trkpt>
      <trkpt lat="45.70117629133165" lon="17.701475182548165">
        <ele>136.29</ele>
        <time>2023-10-17T10:32:10.740Z</time>
      </trkpt>
      <trkpt lat="45.701174614951015" lon="17.701487336307764">
        <ele>136.32</ele>
        <time>2023-10-17T10:32:18.261Z</time>
      </trkpt>
      <trkpt lat="45.70117285475135" lon="17.70149940624833">
        <ele>136.35</ele>
        <time>2023-10-17T10:32:25.782Z</time>
      </trkpt>
      <trkpt lat="45.70117109455168" lon="17.701511476188898">
        <ele>136.37</ele>
        <time>2023-10-17T10:32:33.303Z</time>
      </trkpt>
      <trkpt lat="45.70116941817105" lon="17.701523965224624">
        <ele>136.4</ele>
        <time>2023-10-17T10:32:40.825Z</time>
      </trkpt>
      <trkpt lat="45.701167741790414" lon="17.701536789536476">
        <ele>136.43</ele>
        <time>2023-10-17T10:32:48.347Z</time>
      </trkpt>
      <trkpt lat="45.70116623304784" lon="17.701550284400582">
        <ele>136.45</ele>
        <time>2023-10-17T10:32:55.869Z</time>
      </trkpt>
      <trkpt lat="45.701164808124304" lon="17.701564617455006">
        <ele>136.48</ele>
        <time>2023-10-17T10:33:03.392Z</time>
      </trkpt>
      <trkpt lat="45.701163383200765" lon="17.701579872518778">
        <ele>136.51</ele>
        <time>2023-10-17T10:33:10.915Z</time>
      </trkpt>
      <trkpt lat="45.70116204209626" lon="17.701595965772867">
        <ele>136.54</ele>
        <time>2023-10-17T10:33:18.438Z</time>
      </trkpt>
      <trkpt lat="45.70116078481078" lon="17.701612981036305">
        <ele>136.57</ele>
        <time>2023-10-17T10:33:25.962Z</time>
      </trkpt>
      <trkpt lat="45.70115961134434" lon="17.70163075067103">
        <ele>136.59</ele>
        <time>2023-10-17T10:33:33.486Z</time>
      </trkpt>
      <trkpt lat="45.70115860551596" lon="17.70164885558188">
        <ele>136.62</ele>
        <time>2023-10-17T10:33:41.011Z</time>
      </trkpt>
      <trkpt lat="45.70115776732564" lon="17.701667211949825">
        <ele>136.65</ele>
        <time>2023-10-17T10:33:48.536Z</time>
      </trkpt>
      <trkpt lat="45.70115692913532" lon="17.70168556831777">
        <ele>136.69</ele>
        <time>2023-10-17T10:33:56.061Z</time>
      </trkpt>
      <trkpt lat="45.70115575566888" lon="17.70170400850475">
        <ele>136.72</ele>
        <time>2023-10-17T10:34:03.587Z</time>
      </trkpt>
      <trkpt lat="45.701154079288244" lon="17.70172219723463">
        <ele>136.75</ele>
        <time>2023-10-17T10:34:11.113Z</time>
      </trkpt>
      <trkpt lat="45.701151732355356" lon="17.701740134507418">
        <ele>136.78</ele>
        <time>2023-10-17T10:34:18.640Z</time>
      </trkpt>
      <trkpt lat="45.70114854723215" lon="17.701758071780205">
        <ele>136.82</ele>
        <time>2023-10-17T10:34:26.167Z</time>
      </trkpt>
      <trkpt lat="45.70114460773766" lon="17.70177584141493">
        <ele>136.86</ele>
        <time>2023-10-17T10:34:33.695Z</time>
      </trkpt>
      <trkpt lat="45.70113974623382" lon="17.701793778687716">
        <ele>136.89</ele>
        <time>2023-10-17T10:34:41.223Z</time>
      </trkpt>
      <trkpt lat="45.701134130358696" lon="17.701811883598566">
        <ele>136.93</ele>
        <time>2023-10-17T10:34:48.751Z</time>
      </trkpt>
      <trkpt lat="45.70112792775035" lon="17.70183007232845">
        <ele>136.97</ele>
        <time>2023-10-17T10:34:56.280Z</time>
      </trkpt>
      <trkpt lat="45.70112105458975" lon="17.701848512515426">
        <ele>137.01</ele>
        <time>2023-10-17T10:35:03.809Z</time>
      </trkpt>
      <trkpt lat="45.70111376233399" lon="17.701867120340466">
        <ele>137.05</ele>
        <time>2023-10-17T10:35:11.339Z</time>
      </trkpt>
      <trkpt lat="45.70110605098307" lon="17.701885979622602">
        <ele>137.09</ele>
        <time>2023-10-17T10:35:18.869Z</time>
      </trkpt>
      <trkpt lat="45.70109833963215" lon="17.701905006542802">
        <ele>137.13</ele>
        <time>2023-10-17T10:35:26.400Z</time>
      </trkpt>
      <trkpt lat="45.70109071210027" lon="17.701924284920096">
        <ele>137.17</ele>
        <time>2023-10-17T10:35:33.931Z</time>
      </trkpt>
      <trkpt lat="45.70108333602548" lon="17.701943730935454">
        <ele>137.21</ele>
        <time>2023-10-17T10:35:41.463Z</time>
      </trkpt>
      <trkpt lat="45.70107621140778" lon="17.701963260769844">
        <ele>137.25</ele>
        <time>2023-10-17T10:35:48.995Z</time>
      </trkpt>
      <trkpt lat="45.70106950588524" lon="17.701982958242297">
        <ele>137.3</ele>
        <time>2023-10-17T10:35:56.528Z</time>
      </trkpt>
      <trkpt lat="45.70106313563883" lon="17.70200257189572">
        <ele>137.34</ele>
        <time>2023-10-17T10:36:04.061Z</time>
      </trkpt>
      <trkpt lat="45.701056933030486" lon="17.70202218554914">
        <ele>137.38</ele>
        <time>2023-10-17T10:36:11.595Z</time>
      </trkpt>
      <trkpt lat="45.70105081424117" lon="17.702041631564498">
        <ele>137.42</ele>
        <time>2023-10-17T10:36:19.129Z</time>
      </trkpt>
      <trkpt lat="45.70104486308992" lon="17.702061077579856">
        <ele>137.47</ele>
        <time>2023-10-17T10:36:26.664Z</time>
      </trkpt>
      <trkpt lat="45.7010389957577" lon="17.702080523595214">
        <ele>137.51</ele>
        <time>2023-10-17T10:36:34.199Z</time>
      </trkpt>
      <trkpt lat="45.70103321224451" lon="17.70209980197251">
        <ele>137.56</ele>
        <time>2023-10-17T10:36:41.735Z</time>
      </trkpt>
      <trkpt lat="45.70102742873132" lon="17.702119080349803">
        <ele>137.6</ele>
        <time>2023-10-17T10:36:49.271Z</time>
      </trkpt>
      <trkpt lat="45.701021729037166" lon="17.702138358727098">
        <ele>137.65</ele>
        <time>2023-10-17T10:36:56.808Z</time>
      </trkpt>
      <trkpt lat="45.70101602934301" lon="17.70215755328536">
        <ele>137.69</ele>
        <time>2023-10-17T10:37:04.345Z</time>
      </trkpt>
      <trkpt lat="45.701010413467884" lon="17.702176747843623">
        <ele>137.74</ele>
        <time>2023-10-17T10:37:11.883Z</time>
      </trkpt>
      <trkpt lat="45.701004629954696" lon="17.702195774763823">
        <ele>137.79</ele>
        <time>2023-10-17T10:37:19.421Z</time>
      </trkpt>
      <trkpt lat="45.70099893026054" lon="17.70221471786499">
        <ele>137.83</ele>
        <time>2023-10-17T10:37:26.960Z</time>
      </trkpt>
      <trkpt lat="45.70099314674735" lon="17.702233493328094">
        <ele>137.88</ele>
        <time>2023-10-17T10:37:34.499Z</time>
      </trkpt>
      <trkpt lat="45.700987447053194" lon="17.702252184972167">
        <ele>137.93</ele>
        <time>2023-10-17T10:37:42.039Z</time>
      </trkpt>
      <trkpt lat="45.70098183117807" lon="17.702270708978176">
        <ele>137.98</ele>
        <time>2023-10-17T10:37:49.579Z</time>
      </trkpt>
      <trkpt lat="45.700976299121976" lon="17.702289149165154">
        <ele>138.02</ele>
        <time>2023-10-17T10:37:57.120Z</time>
      </trkpt>
      <trkpt lat="45.700970934703946" lon="17.70230758935213">
        <ele>138.07</ele>
        <time>2023-10-17T10:38:04.661Z</time>
      </trkpt>
      <trkpt lat="45.70096573792398" lon="17.702325945720077">
        <ele>138.12</ele>
        <time>2023-10-17T10:38:12.203Z</time>
      </trkpt>
      <trkpt lat="45.70096070878208" lon="17.702344302088022">
        <ele>138.17</ele>
        <time>2023-10-17T10:38:19.745Z</time>
      </trkpt>
      <trkpt lat="45.700955763459206" lon="17.702362742275">
        <ele>138.22</ele>
        <time>2023-10-17T10:38:27.288Z</time>
      </trkpt>
      <trkpt lat="45.700950901955366" lon="17.70238135010004">
        <ele>138.27</ele>
        <time>2023-10-17T10:38:34.831Z</time>
      </trkpt>
      <trkpt lat="45.70094620808959" lon="17.702400041744113">
        <ele>138.32</ele>
        <time>2023-10-17T10:38:42.375Z</time>
      </trkpt>
      <trkpt lat="45.700941514223814" lon="17.70241898484528">
        <ele>138.37</ele>
        <time>2023-10-17T10:38:49.919Z</time>
      </trkpt>
      <trkpt lat="45.7009369879961" lon="17.70243809558451">
        <ele>138.43</ele>
        <time>2023-10-17T10:38:57.464Z</time>
      </trkpt>
      <trkpt lat="45.70093254558742" lon="17.702457290142775">
        <ele>138.48</ele>
        <time>2023-10-17T10:39:05.009Z</time>
      </trkpt>
      <trkpt lat="45.70092818699777" lon="17.702476484701037">
        <ele>138.53</ele>
        <time>2023-10-17T10:39:12.554Z</time>
      </trkpt>
      <trkpt lat="45.70092374458909" lon="17.702495763078332">
        <ele>138.58</ele>
        <time>2023-10-17T10:39:20.100Z</time>
      </trkpt>
      <trkpt lat="45.700919134542346" lon="17.702514957636595">
        <ele>138.63</ele>
        <time>2023-10-17T10:39:27.646Z</time>
      </trkpt>
      <trkpt lat="45.70091435685754" lon="17.702533984556794">
        <ele>138.69</ele>
        <time>2023-10-17T10:39:35.193Z</time>
      </trkpt>
      <trkpt lat="45.70090941153467" lon="17.702553011476994">
        <ele>138.74</ele>
        <time>2023-10-17T10:39:42.740Z</time>
      </trkpt>
      <trkpt lat="45.7009042147547" lon="17.70257187075913">
        <ele>138.79</ele>
        <time>2023-10-17T10:39:50.288Z</time>
      </trkpt>
      <trkpt lat="45.7008989341557" lon="17.702590646222234">
        <ele>138.85</ele>
        <time>2023-10-17T10:39:57.836Z</time>
      </trkpt>
      <trkpt lat="45.70089356973767" lon="17.702609421685338">
        <ele>138.9</ele>
        <time>2023-10-17T10:40:05.385Z</time>
      </trkpt>
      <trkpt lat="45.70088820531964" lon="17.70262802951038">
        <ele>138.96</ele>
        <time>2023-10-17T10:40:12.934Z</time>
      </trkpt>
      <trkpt lat="45.70088284090161" lon="17.70264663733542">
        <ele>139.02</ele>
        <time>2023-10-17T10:40:20.484Z</time>
      </trkpt>
      <trkpt lat="45.70087747648358" lon="17.702665077522397">
        <ele>139.07</ele>
        <time>2023-10-17T10:40:28.034Z</time>
      </trkpt>
      <trkpt lat="45.70087202824652" lon="17.70268335007131">
        <ele>139.13</ele>
        <time>2023-10-17T10:40:35.585Z</time>
      </trkpt>
      <trkpt lat="45.70086649619043" lon="17.702701538801193">
        <ele>139.18</ele>
        <time>2023-10-17T10:40:43.136Z</time>
      </trkpt>
      <trkpt lat="45.700860880315304" lon="17.702719643712044">
        <ele>139.24</ele>
        <time>2023-10-17T10:40:50.688Z</time>
      </trkpt>
      <trkpt lat="45.700855012983084" lon="17.70273758098483">
        <ele>139.3</ele>
        <time>2023-10-17T10:40:58.240Z</time>
      </trkpt>
      <trkpt lat="45.70084881037474" lon="17.70275509916246">
        <ele>139.35</ele>
        <time>2023-10-17T10:41:05.792Z</time>
      </trkpt>
      <trkpt lat="45.7008421048522" lon="17.702772114425898">
        <ele>139.41</ele>
        <time>2023-10-17T10:41:13.345Z</time>
      </trkpt>
      <trkpt lat="45.70083472877741" lon="17.702788123860955">
        <ele>139.47</ele>
        <time>2023-10-17T10:41:20.898Z</time>
      </trkpt>
      <trkpt lat="45.7008265145123" lon="17.702802792191505">
        <ele>139.53</ele>
        <time>2023-10-17T10:41:28.452Z</time>
      </trkpt>
      <trkpt lat="45.70081737823784" lon="17.70281578414142">
        <ele>139.59</ele>
        <time>2023-10-17T10:41:36.006Z</time>
      </trkpt>
      <trkpt lat="45.7008074875921" lon="17.70282701589167">
        <ele>139.65</ele>
        <time>2023-10-17T10:41:43.561Z</time>
      </trkpt>
      <trkpt lat="45.70079684257507" lon="17.70283631980419">
        <ele>139.71</ele>
        <time>2023-10-17T10:41:51.116Z</time>
      </trkpt>
      <trkpt lat="45.70078544318676" lon="17.702843695878983">
        <ele>139.76</ele>
        <time>2023-10-17T10:41:58.672Z</time>
      </trkpt>
      <trkpt lat="45.700773457065225" lon="17.702849311754107">
        <ele>139.82</ele>
        <time>2023-10-17T10:42:06.228Z</time>
      </trkpt>
      <trkpt lat="45.700760800391436" lon="17.702853167429566">
        <ele>139.88</ele>
        <time>2023-10-17T10:42:13.784Z</time>
      </trkpt>
      <trkpt lat="45.70074772462249" lon="17.70285534672439">
        <ele>139.94</ele>
        <time>2023-10-17T10:42:21.341Z</time>
      </trkpt>
      <trkpt lat="45.70073414593935" lon="17.702856017276645">
        <ele>140.0</ele>
        <time>2023-10-17T10:42:28.898Z</time>
      </trkpt>
      <trkpt lat="45.70072039961815" lon="17.70285526290536">
        <ele>140.07</ele>
        <time>2023-10-17T10:42:36.456Z</time>
      </trkpt>
      <trkpt lat="45.700706569477916" lon="17.70285333506763">
        <ele>140.13</ele>
        <time>2023-10-17T10:42:44.014Z</time>
      </trkpt>
      <trkpt lat="45.700692906975746" lon="17.702850569039583">
        <ele>140.19</ele>
        <time>2023-10-17T10:42:51.573Z</time>
      </trkpt>
      <trkpt lat="45.70067924447358" lon="17.702847383916378">
        <ele>140.25</ele>
        <time>2023-10-17T10:42:59.132Z</time>
      </trkpt>
      <trkpt lat="45.70066566579044" lon="17.702843863517046">
        <ele>140.31</ele>
        <time>2023-10-17T10:43:06.692Z</time>
      </trkpt>
      <trkpt lat="45.7006520871073" lon="17.702840259298682">
        <ele>140.37</ele>
        <time>2023-10-17T10:43:14.252Z</time>
      </trkpt>
      <trkpt lat="45.70063850842416" lon="17.702836487442255">
        <ele>140.43</ele>
        <time>2023-10-17T10:43:21.812Z</time>
      </trkpt>
      <trkpt lat="45.70062501356006" lon="17.702832547947764">
        <ele>140.49</ele>
        <time>2023-10-17T10:43:29.373Z</time>
      </trkpt>
      <trkpt lat="45.70061151869595" lon="17.70282835699618">
        <ele>140.55</ele>
        <time>2023-10-17T10:43:36.934Z</time>
      </trkpt>
      <trkpt lat="45.70059827528894" lon="17.702823746949434">
        <ele>140.61</ele>
        <time>2023-10-17T10:43:44.496Z</time>
      </trkpt>
      <trkpt lat="45.70058511570096" lon="17.702818885445595">
        <ele>140.68</ele>
        <time>2023-10-17T10:43:52.058Z</time>
      </trkpt>
      <trkpt lat="45.70057229138911" lon="17.702813856303692">
        <ele>140.74</ele>
        <time>2023-10-17T10:43:59.621Z</time>
      </trkpt>
      <trkpt lat="45.70055955089629" lon="17.702808659523726">
        <ele>140.8</ele>
        <time>2023-10-17T10:44:07.184Z</time>
      </trkpt>
      <trkpt lat="45.70054714567959" lon="17.702803211286664">
        <ele>140.86</ele>
        <time>2023-10-17T10:44:14.748Z</time>
      </trkpt>
      <trkpt lat="45.70053490810096" lon="17.70279759541154">
        <ele>140.92</ele>
        <time>2023-10-17T10:44:22.312Z</time>
      </trkpt>
      <trkpt lat="45.70052300579846" lon="17.702791644260287">
        <ele>140.98</ele>
        <time>2023-10-17T10:44:29.876Z</time>
      </trkpt>
      <trkpt lat="45.70051127113402" lon="17.702785274013877">
        <ele>141.04</ele>
        <time>2023-10-17T10:44:37.441Z</time>
      </trkpt>
      <trkpt lat="45.700499871745706" lon="17.70277856849134">
        <ele>141.09</ele>
        <time>2023-10-17T10:44:45.006Z</time>
      </trkpt>
      <trkpt lat="45.700488556176424" lon="17.702771527692676">
        <ele>141.15</ele>
        <time>2023-10-17T10:44:52.572Z</time>
      </trkpt>
      <trkpt lat="45.70047749206424" lon="17.702764151617885">
        <ele>141.21</ele>
        <time>2023-10-17T10:45:00.138Z</time>
      </trkpt>
      <trkpt lat="45.700466595590115" lon="17.702756691724062">
        <ele>141.26</ele>
        <time>2023-10-17T10:45:07.705Z</time>
      </trkpt>
      <trkpt lat="45.70045603439212" lon="17.702748980373144">
        <ele>141.32</ele>
        <time>2023-10-17T10:45:15.272Z</time>
      </trkpt>
      <trkpt lat="45.70044589228928" lon="17.70274101756513">
        <ele>141.37</ele>
        <time>2023-10-17T10:45:22.839Z</time>
      </trkpt>
      <trkpt lat="45.700436336919665" lon="17.70273313857615">
        <ele>141.42</ele>
        <time>2023-10-17T10:45:30.407Z</time>
      </trkpt>
      <trkpt lat="45.7004274521023" lon="17.70272525958717">
        <ele>141.47</ele>
        <time>2023-10-17T10:45:37.975Z</time>
      </trkpt>
      <trkpt lat="45.70041907019913" lon="17.702717380598187">
        <ele>141.52</ele>
        <time>2023-10-17T10:45:45.543Z</time>
      </trkpt>
      <trkpt lat="45.70041127502918" lon="17.7027097530663">
        <ele>141.57</ele>
        <time>2023-10-17T10:45:53.112Z</time>
      </trkpt>
      <trkpt lat="45.70040398277342" lon="17.702702460810542">
        <ele>141.62</ele>
        <time>2023-10-17T10:46:00.681Z</time>
      </trkpt>
      <trkpt lat="45.700397193431854" lon="17.70269550383091">
        <ele>141.67</ele>
        <time>2023-10-17T10:46:08.250Z</time>
      </trkpt>
      <trkpt lat="45.700390907004476" lon="17.70268871448934">
        <ele>141.71</ele>
        <time>2023-10-17T10:46:15.820Z</time>
      </trkpt>
      <trkpt lat="45.70038520731032" lon="17.702682092785835">
        <ele>141.76</ele>
        <time>2023-10-17T10:46:23.390Z</time>
      </trkpt>
      <trkpt lat="45.70038001053035" lon="17.70267555490136">
        <ele>141.8</ele>
        <time>2023-10-17T10:46:30.960Z</time>
      </trkpt>
      <trkpt lat="45.70037540048361" lon="17.70266910083592">
        <ele>141.84</ele>
        <time>2023-10-17T10:46:38.530Z</time>
      </trkpt>
      <trkpt lat="45.700371293351054" lon="17.702662982046604">
        <ele>141.88</ele>
        <time>2023-10-17T10:46:46.100Z</time>
      </trkpt>
      <trkpt lat="45.70036760531366" lon="17.70265736617148">
        <ele>141.92</ele>
        <time>2023-10-17T10:46:53.671Z</time>
      </trkpt>
      <trkpt lat="45.70036425255239" lon="17.702652253210545">
        <ele>141.96</ele>
        <time>2023-10-17T10:47:01.242Z</time>
      </trkpt>
      <trkpt lat="45.70036123506725" lon="17.702647810801864">
        <ele>142.0</ele>
        <time>2023-10-17T10:47:08.813Z</time>
      </trkpt>
      <trkpt lat="45.7003587204963" lon="17.702644038945436">
        <ele>142.03</ele>
        <time>2023-10-17T10:47:16.384Z</time>
      </trkpt>
      <trkpt lat="45.700356625020504" lon="17.7026407700032">
        <ele>142.07</ele>
        <time>2023-10-17T10:47:23.955Z</time>
      </trkpt>
      <trkpt lat="45.70035494863987" lon="17.702638003975153">
        <ele>142.1</ele>
        <time>2023-10-17T10:47:31.526Z</time>
      </trkpt>
      <trkpt lat="45.700353775173426" lon="17.70263582468033">
        <ele>142.13</ele>
        <time>2023-10-17T10:47:39.097Z</time>
      </trkpt>
      <trkpt lat="45.70035302080214" lon="17.702634315937757">
        <ele>142.16</ele>
        <time>2023-10-17T10:47:46.668Z</time>
      </trkpt>
      <trkpt lat="45.70035260170698" lon="17.70263347774744">
        <ele>142.19</ele>
        <time>2023-10-17T10:47:54.239Z</time>
      </trkpt>
      <trkpt lat="45.700352266430855" lon="17.702633310109377">
        <ele>142.22</ele>
        <time>2023-10-17T10:48:01.810Z</time>
      </trkpt>
      <trkpt lat="45.70035193115473" lon="17.702633729204535">
        <ele>142.24</ele>
        <time>2023-10-17T10:48:09.381Z</time>
      </trkpt>
      <trkpt lat="45.70035151205957" lon="17.702634651213884">
        <ele>142.27</ele>
        <time>2023-10-17T10:48:16.952Z</time>
      </trkpt>
      <trkpt lat="45.700350841507316" lon="17.702635992318392">
        <ele>142.29</ele>
        <time>2023-10-17T10:48:24.523Z</time>
      </trkpt>
      <trkpt lat="45.700350003317" lon="17.702637584879994">
        <ele>142.31</ele>
        <time>2023-10-17T10:48:32.094Z</time>
      </trkpt>
      <trkpt lat="45.70034899748862" lon="17.70263934507966">
        <ele>142.34</ele>
        <time>2023-10-17T10:48:39.666Z</time>
      </trkpt>
      <trkpt lat="45.700347824022174" lon="17.702641189098358">
        <ele>142.36</ele>
        <time>2023-10-17T10:48:47.238Z</time>
      </trkpt>
      <trkpt lat="45.70034665055573" lon="17.702643033117056">
        <ele>142.38</ele>
        <time>2023-10-17T10:48:54.810Z</time>
      </trkpt>
      <trkpt lat="45.70034556090832" lon="17.70264470949769">
        <ele>142.39</ele>
        <time>2023-10-17T10:49:02.382Z</time>
      </trkpt>
      <trkpt lat="45.70034455507994" lon="17.70264613442123">
        <ele>142.41</ele>
        <time>2023-10-17T10:49:09.954Z</time>
      </trkpt>
      <trkpt lat="45.70034371688962" lon="17.702647307887673">
        <ele>142.43</ele>
        <time>2023-10-17T10:49:17.526Z</time>
      </trkpt>
      <trkpt lat="45.700343046337366" lon="17.70264814607799">
        <ele>142.44</ele>
        <time>2023-10-17T10:49:25.098Z</time>
      </trkpt>
      <trkpt lat="45.70034262724221" lon="17.70264864899218">
        <ele>142.45</ele>
        <time>2023-10-17T10:49:32.670Z</time>
      </trkpt>
      <trkpt lat="45.70034229196608" lon="17.702648732811213">
        <ele>142.47</ele>
        <time>2023-10-17T10:49:40.242Z</time>
      </trkpt>
      <trkpt lat="45.70034237578511" lon="17.702648313716054">
        <ele>142.48</ele>
        <time>2023-10-17T10:49:47.814Z</time>
      </trkpt>
      <trkpt lat="45.700342543423176" lon="17.7026476431638">
        <ele>142.49</ele>
        <time>2023-10-17T10:49:55.386Z</time>
      </trkpt>
      <trkpt lat="45.700342962518334" lon="17.70264672115445">
        <ele>142.5</ele>
        <time>2023-10-17T10:50:02.958Z</time>
      </trkpt>
      <trkpt lat="45.700343465432525" lon="17.70264571532607">
        <ele>142.5</ele>
        <time>2023-10-17T10:50:10.530Z</time>
      </trkpt>
      <trkpt lat="45.700343968346715" lon="17.702644541859627">
        <ele>142.51</ele>
        <time>2023-10-17T10:50:18.102Z</time>
      </trkpt>
      <trkpt lat="45.70034455507994" lon="17.702643368393183">
        <ele>142.52</ele>
        <time>2023-10-17T10:50:25.674Z</time>
      </trkpt>
      <trkpt lat="45.70034480653703" lon="17.702642362564802">
        <ele>142.52</ele>
        <time>2023-10-17T10:50:33.246Z</time>
      </trkpt>
      <trkpt lat="45.700344974175096" lon="17.70264169201255">
        <ele>142.53</ele>
        <time>2023-10-17T10:50:40.818Z</time>
      </trkpt>
      <trkpt lat="45.700344890356064" lon="17.70264127291739">
        <ele>142.53</ele>
        <time>2023-10-17T10:50:48.390Z</time>
      </trkpt>
      <trkpt lat="45.700344722718" lon="17.702641021460295">
        <ele>142.53</ele>
        <time>2023-10-17T10:50:55.962Z</time>
      </trkpt>
      <trkpt lat="45.70034455507994" lon="17.7026407700032">
        <ele>142.53</ele>
        <time>2023-10-17T10:51:03.534Z</time>
      </trkpt>
      <trkpt lat="45.70034421980381" lon="17.702640518546104">
        <ele>142.54</ele>
        <time>2023-10-17T10:51:11.106Z</time>
      </trkpt>
      <trkpt lat="45.700343968346715" lon="17.702640099450946">
        <ele>142.54</ele>
        <time>2023-10-17T10:51:18.678Z</time>
      </trkpt>
      <trkpt lat="45.70034380070865" lon="17.70263976417482">
        <ele>142.54</ele>
        <time>2023-10-17T10:51:26.250Z</time>
      </trkpt>
      <trkpt lat="45.70034363307059" lon="17.702639428898692">
        <ele>142.54</ele>
        <time>2023-10-17T10:51:33.822Z</time>
      </trkpt>
      <trkpt lat="45.70034363307059" lon="17.702639093622565">
        <ele>142.53</ele>
        <time>2023-10-17T10:51:41.394Z</time>
      </trkpt>
      <trkpt lat="45.70034262724221" lon="17.702638674527407">
        <ele>142.53</ele>
        <time>2023-10-17T10:51:48.966Z</time>
      </trkpt>
      <trkpt lat="45.700342543423176" lon="17.702638003975153">
        <ele>142.53</ele>
        <time>2023-10-17T10:51:56.538Z</time>
      </trkpt>
      <trkpt lat="45.700342962518334" lon="17.702637668699026">
        <ele>142.53</ele>
        <time>2023-10-17T10:52:04.110Z</time>
      </trkpt>
      <trkpt lat="45.700343549251556" lon="17.70263741724193">
        <ele>142.52</ele>
        <time>2023-10-17T10:52:11.682Z</time>
      </trkpt>
      <trkpt lat="45.700344471260905" lon="17.702637752518058">
        <ele>142.52</ele>
        <time>2023-10-17T10:52:19.254Z</time>
      </trkpt>
    </trkseg>
  </trk>
</gpx>
